<?xml version="1.0" encoding="UTF-8" standalone="no" ?>
<gpx xmlns="http://www.topografix.com/GPX/1/1" xmlns:xsi="http://www.w3.org/2001/XMLSchema-instance" xsi:schemaLocation="http://www.topografix.com/GPX/1/1 http://www.topografix.com/GPX/1/1/gpx.xsd" version="1.1" creator="VisuGPX - https://www.visugpx.com">
  <metadata>
    <name>vtt Vagney</name>
  </metadata>
  <trk>
    <name><![CDATA[vtt Vagney_1]]></name>
    <trkseg>
      <trkpt lat="48.01202" lon="6.71436">
        <ele>407.4</ele>
        <time>2022-06-26T05:50:11Z</time>
      </trkpt>
      <trkpt lat="48.01227" lon="6.71415">
        <ele>407.8</ele>
        <time>2022-06-26T05:50:14Z</time>
      </trkpt>
      <trkpt lat="48.01214" lon="6.71437">
        <ele>407.8</ele>
        <time>2022-06-26T05:50:15Z</time>
      </trkpt>
      <trkpt lat="48.01217" lon="6.71433">
        <ele>407.8</ele>
        <time>2022-06-26T05:50:16Z</time>
      </trkpt>
      <trkpt lat="48.01216" lon="6.71438">
        <ele>407.8</ele>
        <time>2022-06-26T05:50:17Z</time>
      </trkpt>
      <trkpt lat="48.01216" lon="6.71441">
        <ele>408</ele>
        <time>2022-06-26T05:50:18Z</time>
      </trkpt>
      <trkpt lat="48.01187" lon="6.71462">
        <ele>407.8</ele>
        <time>2022-06-26T05:50:21Z</time>
      </trkpt>
      <trkpt lat="48.01187" lon="6.71474">
        <ele>408</ele>
        <time>2022-06-26T05:50:23Z</time>
      </trkpt>
      <trkpt lat="48.01189" lon="6.71478">
        <ele>408</ele>
        <time>2022-06-26T05:50:24Z</time>
      </trkpt>
      <trkpt lat="48.0119" lon="6.7148">
        <ele>407.8</ele>
        <time>2022-06-26T05:50:25Z</time>
      </trkpt>
      <trkpt lat="48.01188" lon="6.71478">
        <ele>407.8</ele>
        <time>2022-06-26T05:50:34Z</time>
      </trkpt>
      <trkpt lat="48.01187" lon="6.71477">
        <ele>407.8</ele>
        <time>2022-06-26T05:50:40Z</time>
      </trkpt>
      <trkpt lat="48.01191" lon="6.71473">
        <ele>407.8</ele>
        <time>2022-06-26T05:50:51Z</time>
      </trkpt>
      <trkpt lat="48.01193" lon="6.71471">
        <ele>407.8</ele>
        <time>2022-06-26T05:50:58Z</time>
      </trkpt>
      <trkpt lat="48.01194" lon="6.71475">
        <ele>407.4</ele>
        <time>2022-06-26T05:51:46Z</time>
      </trkpt>
      <trkpt lat="48.01194" lon="6.71473">
        <ele>407.6</ele>
        <time>2022-06-26T05:52:41Z</time>
      </trkpt>
      <trkpt lat="48.01198" lon="6.71481">
        <ele>407.6</ele>
        <time>2022-06-26T05:52:44Z</time>
      </trkpt>
      <trkpt lat="48.012" lon="6.71484">
        <ele>407.6</ele>
        <time>2022-06-26T05:52:45Z</time>
      </trkpt>
      <trkpt lat="48.01204" lon="6.71486">
        <ele>407.6</ele>
        <time>2022-06-26T05:52:46Z</time>
      </trkpt>
      <trkpt lat="48.01208" lon="6.71485">
        <ele>407.6</ele>
        <time>2022-06-26T05:52:47Z</time>
      </trkpt>
      <trkpt lat="48.0122" lon="6.71487">
        <ele>407.6</ele>
        <time>2022-06-26T05:52:50Z</time>
      </trkpt>
      <trkpt lat="48.01223" lon="6.7149">
        <ele>407.6</ele>
        <time>2022-06-26T05:52:51Z</time>
      </trkpt>
      <trkpt lat="48.01226" lon="6.71494">
        <ele>407.6</ele>
        <time>2022-06-26T05:52:52Z</time>
      </trkpt>
      <trkpt lat="48.01229" lon="6.71499">
        <ele>407.6</ele>
        <time>2022-06-26T05:52:53Z</time>
      </trkpt>
      <trkpt lat="48.01231" lon="6.71504">
        <ele>407.6</ele>
        <time>2022-06-26T05:52:54Z</time>
      </trkpt>
      <trkpt lat="48.01234" lon="6.71509">
        <ele>407.6</ele>
        <time>2022-06-26T05:52:55Z</time>
      </trkpt>
      <trkpt lat="48.01236" lon="6.71515">
        <ele>407.6</ele>
        <time>2022-06-26T05:52:56Z</time>
      </trkpt>
      <trkpt lat="48.01239" lon="6.71527">
        <ele>407.8</ele>
        <time>2022-06-26T05:52:58Z</time>
      </trkpt>
      <trkpt lat="48.01239" lon="6.71539">
        <ele>407.8</ele>
        <time>2022-06-26T05:53:00Z</time>
      </trkpt>
      <trkpt lat="48.01237" lon="6.71544">
        <ele>407.8</ele>
        <time>2022-06-26T05:53:01Z</time>
      </trkpt>
      <trkpt lat="48.01235" lon="6.71549">
        <ele>408</ele>
        <time>2022-06-26T05:53:02Z</time>
      </trkpt>
      <trkpt lat="48.01228" lon="6.71556">
        <ele>408</ele>
        <time>2022-06-26T05:53:04Z</time>
      </trkpt>
      <trkpt lat="48.01225" lon="6.71558">
        <ele>408.2</ele>
        <time>2022-06-26T05:53:05Z</time>
      </trkpt>
      <trkpt lat="48.01221" lon="6.71562">
        <ele>408.2</ele>
        <time>2022-06-26T05:53:06Z</time>
      </trkpt>
      <trkpt lat="48.01217" lon="6.71565">
        <ele>408.4</ele>
        <time>2022-06-26T05:53:07Z</time>
      </trkpt>
      <trkpt lat="48.01187" lon="6.71591">
        <ele>408.4</ele>
        <time>2022-06-26T05:53:15Z</time>
      </trkpt>
      <trkpt lat="48.01159" lon="6.71604">
        <ele>408.4</ele>
        <time>2022-06-26T05:53:21Z</time>
      </trkpt>
      <trkpt lat="48.01114" lon="6.71618">
        <ele>408.4</ele>
        <time>2022-06-26T05:53:30Z</time>
      </trkpt>
      <trkpt lat="48.01099" lon="6.71619">
        <ele>408.2</ele>
        <time>2022-06-26T05:53:33Z</time>
      </trkpt>
      <trkpt lat="48.01084" lon="6.71616">
        <ele>408.4</ele>
        <time>2022-06-26T05:53:36Z</time>
      </trkpt>
      <trkpt lat="48.01065" lon="6.71614">
        <ele>408.4</ele>
        <time>2022-06-26T05:53:40Z</time>
      </trkpt>
      <trkpt lat="48.01045" lon="6.71611">
        <ele>408.6</ele>
        <time>2022-06-26T05:53:44Z</time>
      </trkpt>
      <trkpt lat="48.01041" lon="6.7161">
        <ele>408.6</ele>
        <time>2022-06-26T05:53:45Z</time>
      </trkpt>
      <trkpt lat="48.01031" lon="6.71609">
        <ele>408.6</ele>
        <time>2022-06-26T05:53:47Z</time>
      </trkpt>
      <trkpt lat="48.01026" lon="6.71609">
        <ele>408.6</ele>
        <time>2022-06-26T05:53:48Z</time>
      </trkpt>
      <trkpt lat="48.01002" lon="6.71606">
        <ele>408.6</ele>
        <time>2022-06-26T05:53:53Z</time>
      </trkpt>
      <trkpt lat="48.00997" lon="6.71606">
        <ele>408.6</ele>
        <time>2022-06-26T05:53:54Z</time>
      </trkpt>
      <trkpt lat="48.00993" lon="6.71606">
        <ele>408.6</ele>
        <time>2022-06-26T05:53:55Z</time>
      </trkpt>
      <trkpt lat="48.00983" lon="6.71607">
        <ele>408.6</ele>
        <time>2022-06-26T05:53:57Z</time>
      </trkpt>
      <trkpt lat="48.00979" lon="6.71608">
        <ele>408.8</ele>
        <time>2022-06-26T05:53:58Z</time>
      </trkpt>
      <trkpt lat="48.00969" lon="6.7161">
        <ele>408.8</ele>
        <time>2022-06-26T05:54:00Z</time>
      </trkpt>
      <trkpt lat="48.00964" lon="6.71612">
        <ele>408.8</ele>
        <time>2022-06-26T05:54:01Z</time>
      </trkpt>
      <trkpt lat="48.00924" lon="6.71634">
        <ele>409</ele>
        <time>2022-06-26T05:54:10Z</time>
      </trkpt>
      <trkpt lat="48.00885" lon="6.71663">
        <ele>408.8</ele>
        <time>2022-06-26T05:54:19Z</time>
      </trkpt>
      <trkpt lat="48.00876" lon="6.71666">
        <ele>408.8</ele>
        <time>2022-06-26T05:54:21Z</time>
      </trkpt>
      <trkpt lat="48.00871" lon="6.71665">
        <ele>408.8</ele>
        <time>2022-06-26T05:54:22Z</time>
      </trkpt>
      <trkpt lat="48.00868" lon="6.71663">
        <ele>408.8</ele>
        <time>2022-06-26T05:54:23Z</time>
      </trkpt>
      <trkpt lat="48.00863" lon="6.71653">
        <ele>408.8</ele>
        <time>2022-06-26T05:54:25Z</time>
      </trkpt>
      <trkpt lat="48.00861" lon="6.71647">
        <ele>408.8</ele>
        <time>2022-06-26T05:54:26Z</time>
      </trkpt>
      <trkpt lat="48.00861" lon="6.7164">
        <ele>408.8</ele>
        <time>2022-06-26T05:54:27Z</time>
      </trkpt>
      <trkpt lat="48.00861" lon="6.71633">
        <ele>408.8</ele>
        <time>2022-06-26T05:54:28Z</time>
      </trkpt>
      <trkpt lat="48.00861" lon="6.71626">
        <ele>408.8</ele>
        <time>2022-06-26T05:54:29Z</time>
      </trkpt>
      <trkpt lat="48.00861" lon="6.71619">
        <ele>408.8</ele>
        <time>2022-06-26T05:54:30Z</time>
      </trkpt>
      <trkpt lat="48.00863" lon="6.71581">
        <ele>408.6</ele>
        <time>2022-06-26T05:54:35Z</time>
      </trkpt>
      <trkpt lat="48.00868" lon="6.7156">
        <ele>408.4</ele>
        <time>2022-06-26T05:54:38Z</time>
      </trkpt>
      <trkpt lat="48.00872" lon="6.71538">
        <ele>408.2</ele>
        <time>2022-06-26T05:54:41Z</time>
      </trkpt>
      <trkpt lat="48.00872" lon="6.71522">
        <ele>408.2</ele>
        <time>2022-06-26T05:54:43Z</time>
      </trkpt>
      <trkpt lat="48.00871" lon="6.71514">
        <ele>408.2</ele>
        <time>2022-06-26T05:54:44Z</time>
      </trkpt>
      <trkpt lat="48.00867" lon="6.715">
        <ele>408</ele>
        <time>2022-06-26T05:54:46Z</time>
      </trkpt>
      <trkpt lat="48.00864" lon="6.71494">
        <ele>407.8</ele>
        <time>2022-06-26T05:54:47Z</time>
      </trkpt>
      <trkpt lat="48.00861" lon="6.7149">
        <ele>407.6</ele>
        <time>2022-06-26T05:54:48Z</time>
      </trkpt>
      <trkpt lat="48.00857" lon="6.71485">
        <ele>407.6</ele>
        <time>2022-06-26T05:54:49Z</time>
      </trkpt>
      <trkpt lat="48.00852" lon="6.7148">
        <ele>407.6</ele>
        <time>2022-06-26T05:54:50Z</time>
      </trkpt>
      <trkpt lat="48.00848" lon="6.71478">
        <ele>407.4</ele>
        <time>2022-06-26T05:54:51Z</time>
      </trkpt>
      <trkpt lat="48.00843" lon="6.71477">
        <ele>407.4</ele>
        <time>2022-06-26T05:54:52Z</time>
      </trkpt>
      <trkpt lat="48.00838" lon="6.71478">
        <ele>407.4</ele>
        <time>2022-06-26T05:54:53Z</time>
      </trkpt>
      <trkpt lat="48.00834" lon="6.7148">
        <ele>407.2</ele>
        <time>2022-06-26T05:54:54Z</time>
      </trkpt>
      <trkpt lat="48.00829" lon="6.71482">
        <ele>407.2</ele>
        <time>2022-06-26T05:54:55Z</time>
      </trkpt>
      <trkpt lat="48.00824" lon="6.71483">
        <ele>407.2</ele>
        <time>2022-06-26T05:54:56Z</time>
      </trkpt>
      <trkpt lat="48.0082" lon="6.71484">
        <ele>407.2</ele>
        <time>2022-06-26T05:54:57Z</time>
      </trkpt>
      <trkpt lat="48.00815" lon="6.71485">
        <ele>407.4</ele>
        <time>2022-06-26T05:54:58Z</time>
      </trkpt>
      <trkpt lat="48.00811" lon="6.71485">
        <ele>407.4</ele>
        <time>2022-06-26T05:54:59Z</time>
      </trkpt>
      <trkpt lat="48.00806" lon="6.71486">
        <ele>407.6</ele>
        <time>2022-06-26T05:55:00Z</time>
      </trkpt>
      <trkpt lat="48.00803" lon="6.71487">
        <ele>407.8</ele>
        <time>2022-06-26T05:55:01Z</time>
      </trkpt>
      <trkpt lat="48.00798" lon="6.71487">
        <ele>407.8</ele>
        <time>2022-06-26T05:55:02Z</time>
      </trkpt>
      <trkpt lat="48.00794" lon="6.71488">
        <ele>408.2</ele>
        <time>2022-06-26T05:55:03Z</time>
      </trkpt>
      <trkpt lat="48.00791" lon="6.71488">
        <ele>408.4</ele>
        <time>2022-06-26T05:55:04Z</time>
      </trkpt>
      <trkpt lat="48.00788" lon="6.71488">
        <ele>408.4</ele>
        <time>2022-06-26T05:55:05Z</time>
      </trkpt>
      <trkpt lat="48.00786" lon="6.71488">
        <ele>408.6</ele>
        <time>2022-06-26T05:55:06Z</time>
      </trkpt>
      <trkpt lat="48.00783" lon="6.71489">
        <ele>408.6</ele>
        <time>2022-06-26T05:55:07Z</time>
      </trkpt>
      <trkpt lat="48.00781" lon="6.71491">
        <ele>408.8</ele>
        <time>2022-06-26T05:55:08Z</time>
      </trkpt>
      <trkpt lat="48.00779" lon="6.71493">
        <ele>408.8</ele>
        <time>2022-06-26T05:55:09Z</time>
      </trkpt>
      <trkpt lat="48.00778" lon="6.71498">
        <ele>408.8</ele>
        <time>2022-06-26T05:55:10Z</time>
      </trkpt>
      <trkpt lat="48.00776" lon="6.71503">
        <ele>408.8</ele>
        <time>2022-06-26T05:55:11Z</time>
      </trkpt>
      <trkpt lat="48.00774" lon="6.71507">
        <ele>408.8</ele>
        <time>2022-06-26T05:55:12Z</time>
      </trkpt>
      <trkpt lat="48.00771" lon="6.71509">
        <ele>408.8</ele>
        <time>2022-06-26T05:55:13Z</time>
      </trkpt>
      <trkpt lat="48.00768" lon="6.7151">
        <ele>408.8</ele>
        <time>2022-06-26T05:55:14Z</time>
      </trkpt>
      <trkpt lat="48.00742" lon="6.71522">
        <ele>408.8</ele>
        <time>2022-06-26T05:55:21Z</time>
      </trkpt>
      <trkpt lat="48.00708" lon="6.71543">
        <ele>409.4</ele>
        <time>2022-06-26T05:55:30Z</time>
      </trkpt>
      <trkpt lat="48.00673" lon="6.71565">
        <ele>409.4</ele>
        <time>2022-06-26T05:55:39Z</time>
      </trkpt>
      <trkpt lat="48.00653" lon="6.71578">
        <ele>409.6</ele>
        <time>2022-06-26T05:55:44Z</time>
      </trkpt>
      <trkpt lat="48.00633" lon="6.7159">
        <ele>409.4</ele>
        <time>2022-06-26T05:55:49Z</time>
      </trkpt>
      <trkpt lat="48.00629" lon="6.71592">
        <ele>409.4</ele>
        <time>2022-06-26T05:55:50Z</time>
      </trkpt>
      <trkpt lat="48.00623" lon="6.716">
        <ele>409.4</ele>
        <time>2022-06-26T05:55:52Z</time>
      </trkpt>
      <trkpt lat="48.00623" lon="6.71605">
        <ele>409.6</ele>
        <time>2022-06-26T05:55:53Z</time>
      </trkpt>
      <trkpt lat="48.00624" lon="6.71611">
        <ele>409.6</ele>
        <time>2022-06-26T05:55:54Z</time>
      </trkpt>
      <trkpt lat="48.00625" lon="6.71616">
        <ele>409.6</ele>
        <time>2022-06-26T05:55:55Z</time>
      </trkpt>
      <trkpt lat="48.00625" lon="6.71621">
        <ele>409.6</ele>
        <time>2022-06-26T05:55:56Z</time>
      </trkpt>
      <trkpt lat="48.00623" lon="6.71626">
        <ele>409.8</ele>
        <time>2022-06-26T05:55:57Z</time>
      </trkpt>
      <trkpt lat="48.0062" lon="6.71629">
        <ele>409.8</ele>
        <time>2022-06-26T05:55:58Z</time>
      </trkpt>
      <trkpt lat="48.00616" lon="6.71631">
        <ele>409.8</ele>
        <time>2022-06-26T05:55:59Z</time>
      </trkpt>
      <trkpt lat="48.00608" lon="6.71636">
        <ele>409.8</ele>
        <time>2022-06-26T05:56:01Z</time>
      </trkpt>
      <trkpt lat="48.0056" lon="6.71664">
        <ele>410.4</ele>
        <time>2022-06-26T05:56:13Z</time>
      </trkpt>
      <trkpt lat="48.00525" lon="6.71686">
        <ele>410</ele>
        <time>2022-06-26T05:56:22Z</time>
      </trkpt>
      <trkpt lat="48.0052" lon="6.71689">
        <ele>410.2</ele>
        <time>2022-06-26T05:56:23Z</time>
      </trkpt>
      <trkpt lat="48.00516" lon="6.71692">
        <ele>410.2</ele>
        <time>2022-06-26T05:56:24Z</time>
      </trkpt>
      <trkpt lat="48.00467" lon="6.71721">
        <ele>410.6</ele>
        <time>2022-06-26T05:56:36Z</time>
      </trkpt>
      <trkpt lat="48.00463" lon="6.71723">
        <ele>410.6</ele>
        <time>2022-06-26T05:56:37Z</time>
      </trkpt>
      <trkpt lat="48.00456" lon="6.71727">
        <ele>410.6</ele>
        <time>2022-06-26T05:56:39Z</time>
      </trkpt>
      <trkpt lat="48.00452" lon="6.7173">
        <ele>410.6</ele>
        <time>2022-06-26T05:56:40Z</time>
      </trkpt>
      <trkpt lat="48.00448" lon="6.71731">
        <ele>410.6</ele>
        <time>2022-06-26T05:56:41Z</time>
      </trkpt>
      <trkpt lat="48.00445" lon="6.71733">
        <ele>410.6</ele>
        <time>2022-06-26T05:56:42Z</time>
      </trkpt>
      <trkpt lat="48.00442" lon="6.71734">
        <ele>410.6</ele>
        <time>2022-06-26T05:56:43Z</time>
      </trkpt>
      <trkpt lat="48.00438" lon="6.71736">
        <ele>410.6</ele>
        <time>2022-06-26T05:56:44Z</time>
      </trkpt>
      <trkpt lat="48.00434" lon="6.71737">
        <ele>410.6</ele>
        <time>2022-06-26T05:56:45Z</time>
      </trkpt>
      <trkpt lat="48.00431" lon="6.71739">
        <ele>410.6</ele>
        <time>2022-06-26T05:56:46Z</time>
      </trkpt>
      <trkpt lat="48.00429" lon="6.71742">
        <ele>410.8</ele>
        <time>2022-06-26T05:56:47Z</time>
      </trkpt>
      <trkpt lat="48.00427" lon="6.71748">
        <ele>410.8</ele>
        <time>2022-06-26T05:56:48Z</time>
      </trkpt>
      <trkpt lat="48.00427" lon="6.71754">
        <ele>410.8</ele>
        <time>2022-06-26T05:56:49Z</time>
      </trkpt>
      <trkpt lat="48.00432" lon="6.71773">
        <ele>410.8</ele>
        <time>2022-06-26T05:56:52Z</time>
      </trkpt>
      <trkpt lat="48.00434" lon="6.71779">
        <ele>410.6</ele>
        <time>2022-06-26T05:56:53Z</time>
      </trkpt>
      <trkpt lat="48.00449" lon="6.71827">
        <ele>410.4</ele>
        <time>2022-06-26T05:57:00Z</time>
      </trkpt>
      <trkpt lat="48.00467" lon="6.71885">
        <ele>410.2</ele>
        <time>2022-06-26T05:57:09Z</time>
      </trkpt>
      <trkpt lat="48.00468" lon="6.71891">
        <ele>410.2</ele>
        <time>2022-06-26T05:57:10Z</time>
      </trkpt>
      <trkpt lat="48.00467" lon="6.71897">
        <ele>410</ele>
        <time>2022-06-26T05:57:11Z</time>
      </trkpt>
      <trkpt lat="48.00465" lon="6.71901">
        <ele>410</ele>
        <time>2022-06-26T05:57:12Z</time>
      </trkpt>
      <trkpt lat="48.00457" lon="6.71907">
        <ele>410</ele>
        <time>2022-06-26T05:57:13Z</time>
      </trkpt>
      <trkpt lat="48.00457" lon="6.71907">
        <ele>410</ele>
        <time>2022-06-26T05:57:14Z</time>
      </trkpt>
      <trkpt lat="48.00453" lon="6.71911">
        <ele>410.2</ele>
        <time>2022-06-26T05:57:15Z</time>
      </trkpt>
      <trkpt lat="48.00449" lon="6.71914">
        <ele>410.2</ele>
        <time>2022-06-26T05:57:16Z</time>
      </trkpt>
      <trkpt lat="48.00445" lon="6.71918">
        <ele>410.2</ele>
        <time>2022-06-26T05:57:17Z</time>
      </trkpt>
      <trkpt lat="48.00412" lon="6.7194">
        <ele>410.2</ele>
        <time>2022-06-26T05:57:25Z</time>
      </trkpt>
      <trkpt lat="48.00409" lon="6.71941">
        <ele>410.2</ele>
        <time>2022-06-26T05:57:26Z</time>
      </trkpt>
      <trkpt lat="48.00405" lon="6.71943">
        <ele>410.2</ele>
        <time>2022-06-26T05:57:27Z</time>
      </trkpt>
      <trkpt lat="48.00402" lon="6.71945">
        <ele>410.2</ele>
        <time>2022-06-26T05:57:28Z</time>
      </trkpt>
      <trkpt lat="48.004" lon="6.71948">
        <ele>410.2</ele>
        <time>2022-06-26T05:57:29Z</time>
      </trkpt>
      <trkpt lat="48.00398" lon="6.71952">
        <ele>410.2</ele>
        <time>2022-06-26T05:57:30Z</time>
      </trkpt>
      <trkpt lat="48.00399" lon="6.71957">
        <ele>410.4</ele>
        <time>2022-06-26T05:57:31Z</time>
      </trkpt>
      <trkpt lat="48.00401" lon="6.71974">
        <ele>410.4</ele>
        <time>2022-06-26T05:57:34Z</time>
      </trkpt>
      <trkpt lat="48.00407" lon="6.72012">
        <ele>410.6</ele>
        <time>2022-06-26T05:57:40Z</time>
      </trkpt>
      <trkpt lat="48.00412" lon="6.72031">
        <ele>410.6</ele>
        <time>2022-06-26T05:57:43Z</time>
      </trkpt>
      <trkpt lat="48.00429" lon="6.72105">
        <ele>410.4</ele>
        <time>2022-06-26T05:57:54Z</time>
      </trkpt>
      <trkpt lat="48.00441" lon="6.72176">
        <ele>410</ele>
        <time>2022-06-26T05:58:04Z</time>
      </trkpt>
      <trkpt lat="48.00447" lon="6.72211">
        <ele>409.8</ele>
        <time>2022-06-26T05:58:09Z</time>
      </trkpt>
      <trkpt lat="48.00451" lon="6.72247">
        <ele>409.6</ele>
        <time>2022-06-26T05:58:14Z</time>
      </trkpt>
      <trkpt lat="48.00457" lon="6.72303">
        <ele>409.8</ele>
        <time>2022-06-26T05:58:22Z</time>
      </trkpt>
      <trkpt lat="48.00456" lon="6.7231">
        <ele>410</ele>
        <time>2022-06-26T05:58:23Z</time>
      </trkpt>
      <trkpt lat="48.00454" lon="6.72314">
        <ele>410</ele>
        <time>2022-06-26T05:58:24Z</time>
      </trkpt>
      <trkpt lat="48.0045" lon="6.72318">
        <ele>410</ele>
        <time>2022-06-26T05:58:25Z</time>
      </trkpt>
      <trkpt lat="48.00446" lon="6.72321">
        <ele>410</ele>
        <time>2022-06-26T05:58:26Z</time>
      </trkpt>
      <trkpt lat="48.00442" lon="6.72324">
        <ele>410</ele>
        <time>2022-06-26T05:58:27Z</time>
      </trkpt>
      <trkpt lat="48.00438" lon="6.72327">
        <ele>410</ele>
        <time>2022-06-26T05:58:28Z</time>
      </trkpt>
      <trkpt lat="48.00433" lon="6.72329">
        <ele>409.8</ele>
        <time>2022-06-26T05:58:29Z</time>
      </trkpt>
      <trkpt lat="48.00429" lon="6.72332">
        <ele>409.8</ele>
        <time>2022-06-26T05:58:30Z</time>
      </trkpt>
      <trkpt lat="48.00425" lon="6.72334">
        <ele>409.6</ele>
        <time>2022-06-26T05:58:31Z</time>
      </trkpt>
      <trkpt lat="48.00421" lon="6.72337">
        <ele>409.6</ele>
        <time>2022-06-26T05:58:32Z</time>
      </trkpt>
      <trkpt lat="48.00418" lon="6.7234">
        <ele>409.6</ele>
        <time>2022-06-26T05:58:33Z</time>
      </trkpt>
      <trkpt lat="48.00414" lon="6.72343">
        <ele>409.6</ele>
        <time>2022-06-26T05:58:34Z</time>
      </trkpt>
      <trkpt lat="48.0041" lon="6.72345">
        <ele>410</ele>
        <time>2022-06-26T05:58:35Z</time>
      </trkpt>
      <trkpt lat="48.00406" lon="6.72348">
        <ele>410</ele>
        <time>2022-06-26T05:58:36Z</time>
      </trkpt>
      <trkpt lat="48.00402" lon="6.7235">
        <ele>410</ele>
        <time>2022-06-26T05:58:37Z</time>
      </trkpt>
      <trkpt lat="48.00398" lon="6.72352">
        <ele>410</ele>
        <time>2022-06-26T05:58:38Z</time>
      </trkpt>
      <trkpt lat="48.00394" lon="6.72355">
        <ele>410</ele>
        <time>2022-06-26T05:58:39Z</time>
      </trkpt>
      <trkpt lat="48.0039" lon="6.72357">
        <ele>410</ele>
        <time>2022-06-26T05:58:40Z</time>
      </trkpt>
      <trkpt lat="48.00375" lon="6.72368">
        <ele>410.2</ele>
        <time>2022-06-26T05:58:44Z</time>
      </trkpt>
      <trkpt lat="48.00372" lon="6.7237">
        <ele>410.2</ele>
        <time>2022-06-26T05:58:45Z</time>
      </trkpt>
      <trkpt lat="48.00368" lon="6.72373">
        <ele>410.2</ele>
        <time>2022-06-26T05:58:46Z</time>
      </trkpt>
      <trkpt lat="48.00365" lon="6.72375">
        <ele>410.2</ele>
        <time>2022-06-26T05:58:47Z</time>
      </trkpt>
      <trkpt lat="48.00361" lon="6.72377">
        <ele>410.2</ele>
        <time>2022-06-26T05:58:48Z</time>
      </trkpt>
      <trkpt lat="48.00357" lon="6.7238">
        <ele>410.2</ele>
        <time>2022-06-26T05:58:49Z</time>
      </trkpt>
      <trkpt lat="48.00354" lon="6.72382">
        <ele>410</ele>
        <time>2022-06-26T05:58:50Z</time>
      </trkpt>
      <trkpt lat="48.0035" lon="6.72384">
        <ele>410</ele>
        <time>2022-06-26T05:58:51Z</time>
      </trkpt>
      <trkpt lat="48.00346" lon="6.72387">
        <ele>410</ele>
        <time>2022-06-26T05:58:52Z</time>
      </trkpt>
      <trkpt lat="48.00323" lon="6.72401">
        <ele>410</ele>
        <time>2022-06-26T05:58:58Z</time>
      </trkpt>
      <trkpt lat="48.00299" lon="6.72425">
        <ele>410</ele>
        <time>2022-06-26T05:59:05Z</time>
      </trkpt>
      <trkpt lat="48.0029" lon="6.7244">
        <ele>410</ele>
        <time>2022-06-26T05:59:08Z</time>
      </trkpt>
      <trkpt lat="48.00283" lon="6.72455">
        <ele>410</ele>
        <time>2022-06-26T05:59:11Z</time>
      </trkpt>
      <trkpt lat="48.00275" lon="6.72469">
        <ele>410.2</ele>
        <time>2022-06-26T05:59:14Z</time>
      </trkpt>
      <trkpt lat="48.00267" lon="6.72492">
        <ele>410.2</ele>
        <time>2022-06-26T05:59:18Z</time>
      </trkpt>
      <trkpt lat="48.00261" lon="6.72513">
        <ele>410.2</ele>
        <time>2022-06-26T05:59:22Z</time>
      </trkpt>
      <trkpt lat="48.00258" lon="6.7252">
        <ele>410.2</ele>
        <time>2022-06-26T05:59:23Z</time>
      </trkpt>
      <trkpt lat="48.00256" lon="6.72526">
        <ele>410</ele>
        <time>2022-06-26T05:59:24Z</time>
      </trkpt>
      <trkpt lat="48.00246" lon="6.72545">
        <ele>410.2</ele>
        <time>2022-06-26T05:59:27Z</time>
      </trkpt>
      <trkpt lat="48.00237" lon="6.72558">
        <ele>410.2</ele>
        <time>2022-06-26T05:59:31Z</time>
      </trkpt>
      <trkpt lat="48.00223" lon="6.7257">
        <ele>410.2</ele>
        <time>2022-06-26T05:59:35Z</time>
      </trkpt>
      <trkpt lat="48.00216" lon="6.72575">
        <ele>410.2</ele>
        <time>2022-06-26T05:59:36Z</time>
      </trkpt>
      <trkpt lat="48.00212" lon="6.72577">
        <ele>410.4</ele>
        <time>2022-06-26T05:59:37Z</time>
      </trkpt>
      <trkpt lat="48.00206" lon="6.72578">
        <ele>410.4</ele>
        <time>2022-06-26T05:59:39Z</time>
      </trkpt>
      <trkpt lat="48.00203" lon="6.72579">
        <ele>410.4</ele>
        <time>2022-06-26T05:59:40Z</time>
      </trkpt>
      <trkpt lat="48.002" lon="6.72579">
        <ele>410.4</ele>
        <time>2022-06-26T05:59:41Z</time>
      </trkpt>
      <trkpt lat="48.00196" lon="6.72579">
        <ele>410.6</ele>
        <time>2022-06-26T05:59:42Z</time>
      </trkpt>
      <trkpt lat="48.00182" lon="6.72577">
        <ele>410.6</ele>
        <time>2022-06-26T05:59:46Z</time>
      </trkpt>
      <trkpt lat="48.00179" lon="6.72577">
        <ele>410.6</ele>
        <time>2022-06-26T05:59:47Z</time>
      </trkpt>
      <trkpt lat="48.00176" lon="6.72576">
        <ele>410.6</ele>
        <time>2022-06-26T05:59:48Z</time>
      </trkpt>
      <trkpt lat="48.00172" lon="6.72575">
        <ele>410.6</ele>
        <time>2022-06-26T05:59:49Z</time>
      </trkpt>
      <trkpt lat="48.00147" lon="6.72577">
        <ele>410.6</ele>
        <time>2022-06-26T05:59:55Z</time>
      </trkpt>
      <trkpt lat="48.00147" lon="6.72577">
        <ele>410.6</ele>
        <time>2022-06-26T05:59:56Z</time>
      </trkpt>
      <trkpt lat="48.0012" lon="6.72581">
        <ele>410.6</ele>
        <time>2022-06-26T06:00:02Z</time>
      </trkpt>
      <trkpt lat="48.00116" lon="6.72581">
        <ele>410.6</ele>
        <time>2022-06-26T06:00:03Z</time>
      </trkpt>
      <trkpt lat="48.00109" lon="6.72581">
        <ele>410.6</ele>
        <time>2022-06-26T06:00:04Z</time>
      </trkpt>
      <trkpt lat="48.001" lon="6.72582">
        <ele>410.6</ele>
        <time>2022-06-26T06:00:06Z</time>
      </trkpt>
      <trkpt lat="48.00092" lon="6.72581">
        <ele>410.8</ele>
        <time>2022-06-26T06:00:08Z</time>
      </trkpt>
      <trkpt lat="48.0007" lon="6.72581">
        <ele>410.8</ele>
        <time>2022-06-26T06:00:14Z</time>
      </trkpt>
      <trkpt lat="48.00064" lon="6.72583">
        <ele>410.8</ele>
        <time>2022-06-26T06:00:16Z</time>
      </trkpt>
      <trkpt lat="48.00061" lon="6.72589">
        <ele>410.8</ele>
        <time>2022-06-26T06:00:18Z</time>
      </trkpt>
      <trkpt lat="48.0006" lon="6.72594">
        <ele>410.8</ele>
        <time>2022-06-26T06:00:19Z</time>
      </trkpt>
      <trkpt lat="48.00059" lon="6.72598">
        <ele>410.8</ele>
        <time>2022-06-26T06:00:20Z</time>
      </trkpt>
      <trkpt lat="48.00059" lon="6.72598">
        <ele>410.8</ele>
        <time>2022-06-26T06:00:21Z</time>
      </trkpt>
      <trkpt lat="48.00058" lon="6.72602">
        <ele>411</ele>
        <time>2022-06-26T06:00:22Z</time>
      </trkpt>
      <trkpt lat="48.00057" lon="6.72612">
        <ele>411</ele>
        <time>2022-06-26T06:00:23Z</time>
      </trkpt>
      <trkpt lat="48.00057" lon="6.72617">
        <ele>411</ele>
        <time>2022-06-26T06:00:24Z</time>
      </trkpt>
      <trkpt lat="48.00057" lon="6.7262">
        <ele>411</ele>
        <time>2022-06-26T06:00:25Z</time>
      </trkpt>
      <trkpt lat="48.00057" lon="6.72624">
        <ele>411</ele>
        <time>2022-06-26T06:00:26Z</time>
      </trkpt>
      <trkpt lat="48.00057" lon="6.72629">
        <ele>411</ele>
        <time>2022-06-26T06:00:27Z</time>
      </trkpt>
      <trkpt lat="48.00056" lon="6.72634">
        <ele>411.2</ele>
        <time>2022-06-26T06:00:28Z</time>
      </trkpt>
      <trkpt lat="48.00056" lon="6.7264">
        <ele>411.2</ele>
        <time>2022-06-26T06:00:29Z</time>
      </trkpt>
      <trkpt lat="48.00053" lon="6.72654">
        <ele>411.4</ele>
        <time>2022-06-26T06:00:32Z</time>
      </trkpt>
      <trkpt lat="48.00052" lon="6.72663">
        <ele>411.4</ele>
        <time>2022-06-26T06:00:34Z</time>
      </trkpt>
      <trkpt lat="48.00054" lon="6.7268">
        <ele>412</ele>
        <time>2022-06-26T06:00:38Z</time>
      </trkpt>
      <trkpt lat="48.00055" lon="6.72692">
        <ele>412.6</ele>
        <time>2022-06-26T06:00:41Z</time>
      </trkpt>
      <trkpt lat="48.00056" lon="6.72695">
        <ele>412.6</ele>
        <time>2022-06-26T06:00:42Z</time>
      </trkpt>
      <trkpt lat="48.00057" lon="6.72699">
        <ele>413</ele>
        <time>2022-06-26T06:00:43Z</time>
      </trkpt>
      <trkpt lat="48.00057" lon="6.72703">
        <ele>413.2</ele>
        <time>2022-06-26T06:00:44Z</time>
      </trkpt>
      <trkpt lat="48.00057" lon="6.72707">
        <ele>413.6</ele>
        <time>2022-06-26T06:00:45Z</time>
      </trkpt>
      <trkpt lat="48.00058" lon="6.72711">
        <ele>413.6</ele>
        <time>2022-06-26T06:00:46Z</time>
      </trkpt>
      <trkpt lat="48.00058" lon="6.7272">
        <ele>414.6</ele>
        <time>2022-06-26T06:00:49Z</time>
      </trkpt>
      <trkpt lat="48.00058" lon="6.72723">
        <ele>415</ele>
        <time>2022-06-26T06:00:50Z</time>
      </trkpt>
      <trkpt lat="48.00057" lon="6.72728">
        <ele>415</ele>
        <time>2022-06-26T06:00:51Z</time>
      </trkpt>
      <trkpt lat="48.00056" lon="6.72731">
        <ele>415.4</ele>
        <time>2022-06-26T06:00:52Z</time>
      </trkpt>
      <trkpt lat="48.00055" lon="6.72735">
        <ele>415.6</ele>
        <time>2022-06-26T06:00:53Z</time>
      </trkpt>
      <trkpt lat="48.00054" lon="6.72738">
        <ele>415.8</ele>
        <time>2022-06-26T06:00:54Z</time>
      </trkpt>
      <trkpt lat="48.00053" lon="6.72742">
        <ele>416</ele>
        <time>2022-06-26T06:00:55Z</time>
      </trkpt>
      <trkpt lat="48.00053" lon="6.72746">
        <ele>416.4</ele>
        <time>2022-06-26T06:00:56Z</time>
      </trkpt>
      <trkpt lat="48.00052" lon="6.7275">
        <ele>416.6</ele>
        <time>2022-06-26T06:00:57Z</time>
      </trkpt>
      <trkpt lat="48.00051" lon="6.72753">
        <ele>417</ele>
        <time>2022-06-26T06:00:58Z</time>
      </trkpt>
      <trkpt lat="48.0005" lon="6.72757">
        <ele>417.2</ele>
        <time>2022-06-26T06:00:59Z</time>
      </trkpt>
      <trkpt lat="48.0005" lon="6.7276">
        <ele>417.4</ele>
        <time>2022-06-26T06:01:00Z</time>
      </trkpt>
      <trkpt lat="48.00049" lon="6.72764">
        <ele>417.4</ele>
        <time>2022-06-26T06:01:01Z</time>
      </trkpt>
      <trkpt lat="48.00049" lon="6.72767">
        <ele>417.6</ele>
        <time>2022-06-26T06:01:02Z</time>
      </trkpt>
      <trkpt lat="48.00048" lon="6.72771">
        <ele>418</ele>
        <time>2022-06-26T06:01:03Z</time>
      </trkpt>
      <trkpt lat="48.00048" lon="6.72774">
        <ele>418</ele>
        <time>2022-06-26T06:01:04Z</time>
      </trkpt>
      <trkpt lat="48.00047" lon="6.72778">
        <ele>418.4</ele>
        <time>2022-06-26T06:01:05Z</time>
      </trkpt>
      <trkpt lat="48.00046" lon="6.72782">
        <ele>418.4</ele>
        <time>2022-06-26T06:01:06Z</time>
      </trkpt>
      <trkpt lat="48.00045" lon="6.72786">
        <ele>418.6</ele>
        <time>2022-06-26T06:01:07Z</time>
      </trkpt>
      <trkpt lat="48.00045" lon="6.7279">
        <ele>418.8</ele>
        <time>2022-06-26T06:01:08Z</time>
      </trkpt>
      <trkpt lat="48.00044" lon="6.72793">
        <ele>418.8</ele>
        <time>2022-06-26T06:01:09Z</time>
      </trkpt>
      <trkpt lat="48.00044" lon="6.72797">
        <ele>419</ele>
        <time>2022-06-26T06:01:10Z</time>
      </trkpt>
      <trkpt lat="48.00044" lon="6.72801">
        <ele>419.2</ele>
        <time>2022-06-26T06:01:11Z</time>
      </trkpt>
      <trkpt lat="48.00044" lon="6.72805">
        <ele>419.6</ele>
        <time>2022-06-26T06:01:12Z</time>
      </trkpt>
      <trkpt lat="48.00044" lon="6.72809">
        <ele>419.8</ele>
        <time>2022-06-26T06:01:13Z</time>
      </trkpt>
      <trkpt lat="48.00045" lon="6.72813">
        <ele>420.2</ele>
        <time>2022-06-26T06:01:14Z</time>
      </trkpt>
      <trkpt lat="48.00045" lon="6.72817">
        <ele>420.4</ele>
        <time>2022-06-26T06:01:15Z</time>
      </trkpt>
      <trkpt lat="48.00045" lon="6.72821">
        <ele>420.4</ele>
        <time>2022-06-26T06:01:16Z</time>
      </trkpt>
      <trkpt lat="48.00045" lon="6.72825">
        <ele>420.6</ele>
        <time>2022-06-26T06:01:17Z</time>
      </trkpt>
      <trkpt lat="48.00045" lon="6.72829">
        <ele>420.8</ele>
        <time>2022-06-26T06:01:18Z</time>
      </trkpt>
      <trkpt lat="48.00045" lon="6.72833">
        <ele>421</ele>
        <time>2022-06-26T06:01:19Z</time>
      </trkpt>
      <trkpt lat="48.00045" lon="6.72837">
        <ele>421</ele>
        <time>2022-06-26T06:01:20Z</time>
      </trkpt>
      <trkpt lat="48.00045" lon="6.72841">
        <ele>421.2</ele>
        <time>2022-06-26T06:01:21Z</time>
      </trkpt>
      <trkpt lat="48.00045" lon="6.72845">
        <ele>421.4</ele>
        <time>2022-06-26T06:01:22Z</time>
      </trkpt>
      <trkpt lat="48.00045" lon="6.72849">
        <ele>421.6</ele>
        <time>2022-06-26T06:01:23Z</time>
      </trkpt>
      <trkpt lat="48.00045" lon="6.72854">
        <ele>421.8</ele>
        <time>2022-06-26T06:01:24Z</time>
      </trkpt>
      <trkpt lat="48.00045" lon="6.72858">
        <ele>421.8</ele>
        <time>2022-06-26T06:01:25Z</time>
      </trkpt>
      <trkpt lat="48.00045" lon="6.72862">
        <ele>422</ele>
        <time>2022-06-26T06:01:26Z</time>
      </trkpt>
      <trkpt lat="48.00045" lon="6.72866">
        <ele>422.2</ele>
        <time>2022-06-26T06:01:27Z</time>
      </trkpt>
      <trkpt lat="48.00044" lon="6.72871">
        <ele>422.4</ele>
        <time>2022-06-26T06:01:28Z</time>
      </trkpt>
      <trkpt lat="48.00043" lon="6.72875">
        <ele>422.4</ele>
        <time>2022-06-26T06:01:29Z</time>
      </trkpt>
      <trkpt lat="48.00042" lon="6.72879">
        <ele>422.4</ele>
        <time>2022-06-26T06:01:30Z</time>
      </trkpt>
      <trkpt lat="48.00041" lon="6.72883">
        <ele>422.6</ele>
        <time>2022-06-26T06:01:31Z</time>
      </trkpt>
      <trkpt lat="48.00041" lon="6.72883">
        <ele>422.6</ele>
        <time>2022-06-26T06:01:32Z</time>
      </trkpt>
      <trkpt lat="48.00039" lon="6.72891">
        <ele>422.8</ele>
        <time>2022-06-26T06:01:33Z</time>
      </trkpt>
      <trkpt lat="48.00037" lon="6.72895">
        <ele>422.8</ele>
        <time>2022-06-26T06:01:34Z</time>
      </trkpt>
      <trkpt lat="48.00035" lon="6.72898">
        <ele>423</ele>
        <time>2022-06-26T06:01:35Z</time>
      </trkpt>
      <trkpt lat="48.00033" lon="6.72902">
        <ele>423</ele>
        <time>2022-06-26T06:01:36Z</time>
      </trkpt>
      <trkpt lat="48.00031" lon="6.72905">
        <ele>422.8</ele>
        <time>2022-06-26T06:01:37Z</time>
      </trkpt>
      <trkpt lat="48.00028" lon="6.72908">
        <ele>423.2</ele>
        <time>2022-06-26T06:01:38Z</time>
      </trkpt>
      <trkpt lat="48.00026" lon="6.72911">
        <ele>423.2</ele>
        <time>2022-06-26T06:01:39Z</time>
      </trkpt>
      <trkpt lat="48.00023" lon="6.72914">
        <ele>423.2</ele>
        <time>2022-06-26T06:01:40Z</time>
      </trkpt>
      <trkpt lat="48.00021" lon="6.72916">
        <ele>423.2</ele>
        <time>2022-06-26T06:01:41Z</time>
      </trkpt>
      <trkpt lat="48.00018" lon="6.72918">
        <ele>423.4</ele>
        <time>2022-06-26T06:01:42Z</time>
      </trkpt>
      <trkpt lat="48.00014" lon="6.7292">
        <ele>423.6</ele>
        <time>2022-06-26T06:01:43Z</time>
      </trkpt>
      <trkpt lat="48.00011" lon="6.72921">
        <ele>423.6</ele>
        <time>2022-06-26T06:01:44Z</time>
      </trkpt>
      <trkpt lat="48.00008" lon="6.72922">
        <ele>423.6</ele>
        <time>2022-06-26T06:01:45Z</time>
      </trkpt>
      <trkpt lat="48.00004" lon="6.72923">
        <ele>423.6</ele>
        <time>2022-06-26T06:01:46Z</time>
      </trkpt>
      <trkpt lat="48" lon="6.72924">
        <ele>423.8</ele>
        <time>2022-06-26T06:01:47Z</time>
      </trkpt>
      <trkpt lat="47.99996" lon="6.72925">
        <ele>423.8</ele>
        <time>2022-06-26T06:01:48Z</time>
      </trkpt>
      <trkpt lat="47.99993" lon="6.72925">
        <ele>423.8</ele>
        <time>2022-06-26T06:01:49Z</time>
      </trkpt>
      <trkpt lat="47.99989" lon="6.72926">
        <ele>423.8</ele>
        <time>2022-06-26T06:01:50Z</time>
      </trkpt>
      <trkpt lat="47.99985" lon="6.72926">
        <ele>423.8</ele>
        <time>2022-06-26T06:01:51Z</time>
      </trkpt>
      <trkpt lat="47.99985" lon="6.72926">
        <ele>424</ele>
        <time>2022-06-26T06:01:52Z</time>
      </trkpt>
      <trkpt lat="47.99977" lon="6.72925">
        <ele>424</ele>
        <time>2022-06-26T06:01:53Z</time>
      </trkpt>
      <trkpt lat="47.99973" lon="6.72925">
        <ele>424</ele>
        <time>2022-06-26T06:01:54Z</time>
      </trkpt>
      <trkpt lat="47.99954" lon="6.72922">
        <ele>424</ele>
        <time>2022-06-26T06:01:59Z</time>
      </trkpt>
      <trkpt lat="47.99931" lon="6.72918">
        <ele>424</ele>
        <time>2022-06-26T06:02:05Z</time>
      </trkpt>
      <trkpt lat="47.99928" lon="6.72917">
        <ele>424.2</ele>
        <time>2022-06-26T06:02:06Z</time>
      </trkpt>
      <trkpt lat="47.99924" lon="6.72914">
        <ele>424.2</ele>
        <time>2022-06-26T06:02:07Z</time>
      </trkpt>
      <trkpt lat="47.99922" lon="6.72911">
        <ele>424.4</ele>
        <time>2022-06-26T06:02:08Z</time>
      </trkpt>
      <trkpt lat="47.9992" lon="6.72906">
        <ele>424.4</ele>
        <time>2022-06-26T06:02:09Z</time>
      </trkpt>
      <trkpt lat="47.99918" lon="6.729">
        <ele>424.4</ele>
        <time>2022-06-26T06:02:10Z</time>
      </trkpt>
      <trkpt lat="47.99916" lon="6.72888">
        <ele>424.4</ele>
        <time>2022-06-26T06:02:12Z</time>
      </trkpt>
      <trkpt lat="47.99915" lon="6.72882">
        <ele>424.4</ele>
        <time>2022-06-26T06:02:13Z</time>
      </trkpt>
      <trkpt lat="47.99907" lon="6.72865">
        <ele>424.4</ele>
        <time>2022-06-26T06:02:16Z</time>
      </trkpt>
      <trkpt lat="47.99904" lon="6.7286">
        <ele>424.4</ele>
        <time>2022-06-26T06:02:17Z</time>
      </trkpt>
      <trkpt lat="47.99888" lon="6.72842">
        <ele>424</ele>
        <time>2022-06-26T06:02:22Z</time>
      </trkpt>
      <trkpt lat="47.99885" lon="6.72843">
        <ele>424</ele>
        <time>2022-06-26T06:02:23Z</time>
      </trkpt>
      <trkpt lat="47.99884" lon="6.72845">
        <ele>423.8</ele>
        <time>2022-06-26T06:02:24Z</time>
      </trkpt>
      <trkpt lat="47.99883" lon="6.72848">
        <ele>423.8</ele>
        <time>2022-06-26T06:02:25Z</time>
      </trkpt>
      <trkpt lat="47.99883" lon="6.7285">
        <ele>423.8</ele>
        <time>2022-06-26T06:02:26Z</time>
      </trkpt>
      <trkpt lat="47.99883" lon="6.72851">
        <ele>423.8</ele>
        <time>2022-06-26T06:02:27Z</time>
      </trkpt>
      <trkpt lat="47.99882" lon="6.72853">
        <ele>423.8</ele>
        <time>2022-06-26T06:02:28Z</time>
      </trkpt>
      <trkpt lat="47.99882" lon="6.72854">
        <ele>424</ele>
        <time>2022-06-26T06:02:29Z</time>
      </trkpt>
      <trkpt lat="47.99881" lon="6.72857">
        <ele>424.2</ele>
        <time>2022-06-26T06:02:30Z</time>
      </trkpt>
      <trkpt lat="47.99881" lon="6.72858">
        <ele>424.6</ele>
        <time>2022-06-26T06:02:31Z</time>
      </trkpt>
      <trkpt lat="47.9988" lon="6.7286">
        <ele>424.8</ele>
        <time>2022-06-26T06:02:32Z</time>
      </trkpt>
      <trkpt lat="47.9988" lon="6.72862">
        <ele>425</ele>
        <time>2022-06-26T06:02:33Z</time>
      </trkpt>
      <trkpt lat="47.99879" lon="6.72863">
        <ele>425.4</ele>
        <time>2022-06-26T06:02:34Z</time>
      </trkpt>
      <trkpt lat="47.99879" lon="6.72865">
        <ele>425.4</ele>
        <time>2022-06-26T06:02:35Z</time>
      </trkpt>
      <trkpt lat="47.99878" lon="6.72866">
        <ele>425.8</ele>
        <time>2022-06-26T06:02:36Z</time>
      </trkpt>
      <trkpt lat="47.99878" lon="6.72868">
        <ele>426</ele>
        <time>2022-06-26T06:02:37Z</time>
      </trkpt>
      <trkpt lat="47.99878" lon="6.72871">
        <ele>426.2</ele>
        <time>2022-06-26T06:02:38Z</time>
      </trkpt>
      <trkpt lat="47.99878" lon="6.72873">
        <ele>426.4</ele>
        <time>2022-06-26T06:02:39Z</time>
      </trkpt>
      <trkpt lat="47.99877" lon="6.72875">
        <ele>426.8</ele>
        <time>2022-06-26T06:02:40Z</time>
      </trkpt>
      <trkpt lat="47.99876" lon="6.72878">
        <ele>427</ele>
        <time>2022-06-26T06:02:41Z</time>
      </trkpt>
      <trkpt lat="47.99876" lon="6.72884">
        <ele>427.8</ele>
        <time>2022-06-26T06:02:44Z</time>
      </trkpt>
      <trkpt lat="47.99875" lon="6.72886">
        <ele>428.4</ele>
        <time>2022-06-26T06:02:45Z</time>
      </trkpt>
      <trkpt lat="47.99875" lon="6.72889">
        <ele>428.6</ele>
        <time>2022-06-26T06:02:46Z</time>
      </trkpt>
      <trkpt lat="47.99874" lon="6.72892">
        <ele>428.8</ele>
        <time>2022-06-26T06:02:47Z</time>
      </trkpt>
      <trkpt lat="47.99873" lon="6.72894">
        <ele>429</ele>
        <time>2022-06-26T06:02:48Z</time>
      </trkpt>
      <trkpt lat="47.99871" lon="6.72895">
        <ele>429.2</ele>
        <time>2022-06-26T06:02:49Z</time>
      </trkpt>
      <trkpt lat="47.9987" lon="6.72897">
        <ele>429.4</ele>
        <time>2022-06-26T06:02:50Z</time>
      </trkpt>
      <trkpt lat="47.99868" lon="6.72899">
        <ele>429.6</ele>
        <time>2022-06-26T06:02:51Z</time>
      </trkpt>
      <trkpt lat="47.99867" lon="6.729">
        <ele>429.6</ele>
        <time>2022-06-26T06:02:52Z</time>
      </trkpt>
      <trkpt lat="47.99864" lon="6.72902">
        <ele>429.8</ele>
        <time>2022-06-26T06:02:53Z</time>
      </trkpt>
      <trkpt lat="47.99862" lon="6.72903">
        <ele>429.8</ele>
        <time>2022-06-26T06:02:54Z</time>
      </trkpt>
      <trkpt lat="47.99859" lon="6.72905">
        <ele>429.8</ele>
        <time>2022-06-26T06:02:55Z</time>
      </trkpt>
      <trkpt lat="47.99857" lon="6.72906">
        <ele>429.8</ele>
        <time>2022-06-26T06:02:56Z</time>
      </trkpt>
      <trkpt lat="47.99855" lon="6.72907">
        <ele>429.8</ele>
        <time>2022-06-26T06:02:57Z</time>
      </trkpt>
      <trkpt lat="47.99853" lon="6.72909">
        <ele>429.8</ele>
        <time>2022-06-26T06:02:58Z</time>
      </trkpt>
      <trkpt lat="47.99851" lon="6.7291">
        <ele>429.8</ele>
        <time>2022-06-26T06:02:59Z</time>
      </trkpt>
      <trkpt lat="47.99849" lon="6.72912">
        <ele>429.8</ele>
        <time>2022-06-26T06:03:00Z</time>
      </trkpt>
      <trkpt lat="47.99847" lon="6.72914">
        <ele>429.8</ele>
        <time>2022-06-26T06:03:01Z</time>
      </trkpt>
      <trkpt lat="47.99845" lon="6.72915">
        <ele>429.8</ele>
        <time>2022-06-26T06:03:02Z</time>
      </trkpt>
      <trkpt lat="47.99844" lon="6.72916">
        <ele>430</ele>
        <time>2022-06-26T06:03:03Z</time>
      </trkpt>
      <trkpt lat="47.99843" lon="6.72917">
        <ele>430</ele>
        <time>2022-06-26T06:03:04Z</time>
      </trkpt>
      <trkpt lat="47.99843" lon="6.72918">
        <ele>430</ele>
        <time>2022-06-26T06:03:05Z</time>
      </trkpt>
      <trkpt lat="47.99842" lon="6.72919">
        <ele>430.2</ele>
        <time>2022-06-26T06:03:06Z</time>
      </trkpt>
      <trkpt lat="47.9984" lon="6.72921">
        <ele>430.4</ele>
        <time>2022-06-26T06:03:07Z</time>
      </trkpt>
      <trkpt lat="47.99838" lon="6.72923">
        <ele>430.4</ele>
        <time>2022-06-26T06:03:08Z</time>
      </trkpt>
      <trkpt lat="47.99836" lon="6.72925">
        <ele>430.6</ele>
        <time>2022-06-26T06:03:09Z</time>
      </trkpt>
      <trkpt lat="47.99834" lon="6.72928">
        <ele>430.8</ele>
        <time>2022-06-26T06:03:10Z</time>
      </trkpt>
      <trkpt lat="47.99833" lon="6.7293">
        <ele>430.8</ele>
        <time>2022-06-26T06:03:11Z</time>
      </trkpt>
      <trkpt lat="47.99831" lon="6.72932">
        <ele>431.2</ele>
        <time>2022-06-26T06:03:12Z</time>
      </trkpt>
      <trkpt lat="47.99829" lon="6.72934">
        <ele>431.2</ele>
        <time>2022-06-26T06:03:13Z</time>
      </trkpt>
      <trkpt lat="47.99828" lon="6.72937">
        <ele>431.2</ele>
        <time>2022-06-26T06:03:14Z</time>
      </trkpt>
      <trkpt lat="47.99827" lon="6.72939">
        <ele>431.6</ele>
        <time>2022-06-26T06:03:15Z</time>
      </trkpt>
      <trkpt lat="47.99825" lon="6.72941">
        <ele>431.8</ele>
        <time>2022-06-26T06:03:16Z</time>
      </trkpt>
      <trkpt lat="47.99824" lon="6.72943">
        <ele>431.8</ele>
        <time>2022-06-26T06:03:17Z</time>
      </trkpt>
      <trkpt lat="47.99822" lon="6.72946">
        <ele>431.8</ele>
        <time>2022-06-26T06:03:18Z</time>
      </trkpt>
      <trkpt lat="47.9982" lon="6.72948">
        <ele>431.8</ele>
        <time>2022-06-26T06:03:19Z</time>
      </trkpt>
      <trkpt lat="47.99818" lon="6.7295">
        <ele>432.2</ele>
        <time>2022-06-26T06:03:20Z</time>
      </trkpt>
      <trkpt lat="47.99817" lon="6.72952">
        <ele>432.4</ele>
        <time>2022-06-26T06:03:21Z</time>
      </trkpt>
      <trkpt lat="47.99816" lon="6.72954">
        <ele>432.4</ele>
        <time>2022-06-26T06:03:22Z</time>
      </trkpt>
      <trkpt lat="47.99814" lon="6.72957">
        <ele>432.4</ele>
        <time>2022-06-26T06:03:23Z</time>
      </trkpt>
      <trkpt lat="47.99815" lon="6.72961">
        <ele>432.6</ele>
        <time>2022-06-26T06:03:24Z</time>
      </trkpt>
      <trkpt lat="47.99816" lon="6.72964">
        <ele>433</ele>
        <time>2022-06-26T06:03:25Z</time>
      </trkpt>
      <trkpt lat="47.99815" lon="6.72967">
        <ele>433</ele>
        <time>2022-06-26T06:03:26Z</time>
      </trkpt>
      <trkpt lat="47.99814" lon="6.7297">
        <ele>433.2</ele>
        <time>2022-06-26T06:03:27Z</time>
      </trkpt>
      <trkpt lat="47.99815" lon="6.72972">
        <ele>433.6</ele>
        <time>2022-06-26T06:03:28Z</time>
      </trkpt>
      <trkpt lat="47.99816" lon="6.72974">
        <ele>433.8</ele>
        <time>2022-06-26T06:03:29Z</time>
      </trkpt>
      <trkpt lat="47.99818" lon="6.72979">
        <ele>434.2</ele>
        <time>2022-06-26T06:03:30Z</time>
      </trkpt>
      <trkpt lat="47.99818" lon="6.72982">
        <ele>434.4</ele>
        <time>2022-06-26T06:03:31Z</time>
      </trkpt>
      <trkpt lat="47.99818" lon="6.72986">
        <ele>435</ele>
        <time>2022-06-26T06:03:32Z</time>
      </trkpt>
      <trkpt lat="47.99819" lon="6.7299">
        <ele>435</ele>
        <time>2022-06-26T06:03:33Z</time>
      </trkpt>
      <trkpt lat="47.99821" lon="6.72994">
        <ele>435.6</ele>
        <time>2022-06-26T06:03:34Z</time>
      </trkpt>
      <trkpt lat="47.99821" lon="6.72998">
        <ele>435.6</ele>
        <time>2022-06-26T06:03:35Z</time>
      </trkpt>
      <trkpt lat="47.99822" lon="6.73003">
        <ele>435.6</ele>
        <time>2022-06-26T06:03:36Z</time>
      </trkpt>
      <trkpt lat="47.99822" lon="6.73008">
        <ele>435.6</ele>
        <time>2022-06-26T06:03:37Z</time>
      </trkpt>
      <trkpt lat="47.99823" lon="6.73012">
        <ele>435.6</ele>
        <time>2022-06-26T06:03:38Z</time>
      </trkpt>
      <trkpt lat="47.99823" lon="6.73016">
        <ele>435.8</ele>
        <time>2022-06-26T06:03:39Z</time>
      </trkpt>
      <trkpt lat="47.99824" lon="6.73019">
        <ele>435.8</ele>
        <time>2022-06-26T06:03:40Z</time>
      </trkpt>
      <trkpt lat="47.99825" lon="6.73022">
        <ele>436</ele>
        <time>2022-06-26T06:03:41Z</time>
      </trkpt>
      <trkpt lat="47.99827" lon="6.73025">
        <ele>436</ele>
        <time>2022-06-26T06:03:42Z</time>
      </trkpt>
      <trkpt lat="47.99828" lon="6.73029">
        <ele>436</ele>
        <time>2022-06-26T06:03:43Z</time>
      </trkpt>
      <trkpt lat="47.99829" lon="6.73032">
        <ele>436.4</ele>
        <time>2022-06-26T06:03:44Z</time>
      </trkpt>
      <trkpt lat="47.99829" lon="6.73036">
        <ele>436.2</ele>
        <time>2022-06-26T06:03:45Z</time>
      </trkpt>
      <trkpt lat="47.99828" lon="6.73039">
        <ele>436.4</ele>
        <time>2022-06-26T06:03:46Z</time>
      </trkpt>
      <trkpt lat="47.99827" lon="6.73042">
        <ele>436.6</ele>
        <time>2022-06-26T06:03:47Z</time>
      </trkpt>
      <trkpt lat="47.99826" lon="6.73045">
        <ele>436.6</ele>
        <time>2022-06-26T06:03:48Z</time>
      </trkpt>
      <trkpt lat="47.99826" lon="6.73047">
        <ele>436.6</ele>
        <time>2022-06-26T06:03:49Z</time>
      </trkpt>
      <trkpt lat="47.99826" lon="6.7305">
        <ele>436.8</ele>
        <time>2022-06-26T06:03:50Z</time>
      </trkpt>
      <trkpt lat="47.99826" lon="6.73053">
        <ele>437</ele>
        <time>2022-06-26T06:03:51Z</time>
      </trkpt>
      <trkpt lat="47.99827" lon="6.73057">
        <ele>437.2</ele>
        <time>2022-06-26T06:03:52Z</time>
      </trkpt>
      <trkpt lat="47.99827" lon="6.73062">
        <ele>437.6</ele>
        <time>2022-06-26T06:03:53Z</time>
      </trkpt>
      <trkpt lat="47.99828" lon="6.73066">
        <ele>437.6</ele>
        <time>2022-06-26T06:03:54Z</time>
      </trkpt>
      <trkpt lat="47.99829" lon="6.7307">
        <ele>437.8</ele>
        <time>2022-06-26T06:03:55Z</time>
      </trkpt>
      <trkpt lat="47.9983" lon="6.73073">
        <ele>437.8</ele>
        <time>2022-06-26T06:03:56Z</time>
      </trkpt>
      <trkpt lat="47.99831" lon="6.73076">
        <ele>438</ele>
        <time>2022-06-26T06:03:57Z</time>
      </trkpt>
      <trkpt lat="47.99832" lon="6.7308">
        <ele>438</ele>
        <time>2022-06-26T06:03:58Z</time>
      </trkpt>
      <trkpt lat="47.99832" lon="6.73084">
        <ele>438</ele>
        <time>2022-06-26T06:03:59Z</time>
      </trkpt>
      <trkpt lat="47.99833" lon="6.73088">
        <ele>438.2</ele>
        <time>2022-06-26T06:04:00Z</time>
      </trkpt>
      <trkpt lat="47.99833" lon="6.73092">
        <ele>438.2</ele>
        <time>2022-06-26T06:04:01Z</time>
      </trkpt>
      <trkpt lat="47.99833" lon="6.73094">
        <ele>438.4</ele>
        <time>2022-06-26T06:04:02Z</time>
      </trkpt>
      <trkpt lat="47.99833" lon="6.73097">
        <ele>438.4</ele>
        <time>2022-06-26T06:04:03Z</time>
      </trkpt>
      <trkpt lat="47.99834" lon="6.73099">
        <ele>438.6</ele>
        <time>2022-06-26T06:04:04Z</time>
      </trkpt>
      <trkpt lat="47.99834" lon="6.73102">
        <ele>438.6</ele>
        <time>2022-06-26T06:04:05Z</time>
      </trkpt>
      <trkpt lat="47.99834" lon="6.73104">
        <ele>438.8</ele>
        <time>2022-06-26T06:04:06Z</time>
      </trkpt>
      <trkpt lat="47.99835" lon="6.73106">
        <ele>438.8</ele>
        <time>2022-06-26T06:04:07Z</time>
      </trkpt>
      <trkpt lat="47.99836" lon="6.73108">
        <ele>439</ele>
        <time>2022-06-26T06:04:08Z</time>
      </trkpt>
      <trkpt lat="47.99837" lon="6.73111">
        <ele>439.4</ele>
        <time>2022-06-26T06:04:09Z</time>
      </trkpt>
      <trkpt lat="47.99838" lon="6.73113">
        <ele>439.6</ele>
        <time>2022-06-26T06:04:10Z</time>
      </trkpt>
      <trkpt lat="47.99839" lon="6.73115">
        <ele>440</ele>
        <time>2022-06-26T06:04:11Z</time>
      </trkpt>
      <trkpt lat="47.9984" lon="6.73118">
        <ele>440.2</ele>
        <time>2022-06-26T06:04:12Z</time>
      </trkpt>
      <trkpt lat="47.9984" lon="6.7312">
        <ele>440.6</ele>
        <time>2022-06-26T06:04:13Z</time>
      </trkpt>
      <trkpt lat="47.99841" lon="6.73124">
        <ele>440.8</ele>
        <time>2022-06-26T06:04:14Z</time>
      </trkpt>
      <trkpt lat="47.99842" lon="6.73129">
        <ele>441</ele>
        <time>2022-06-26T06:04:15Z</time>
      </trkpt>
      <trkpt lat="47.99844" lon="6.73132">
        <ele>441</ele>
        <time>2022-06-26T06:04:16Z</time>
      </trkpt>
      <trkpt lat="47.99848" lon="6.73133">
        <ele>441</ele>
        <time>2022-06-26T06:04:17Z</time>
      </trkpt>
      <trkpt lat="47.99852" lon="6.73134">
        <ele>441</ele>
        <time>2022-06-26T06:04:18Z</time>
      </trkpt>
      <trkpt lat="47.99855" lon="6.73136">
        <ele>441</ele>
        <time>2022-06-26T06:04:19Z</time>
      </trkpt>
      <trkpt lat="47.99857" lon="6.7314">
        <ele>441</ele>
        <time>2022-06-26T06:04:20Z</time>
      </trkpt>
      <trkpt lat="47.99859" lon="6.73144">
        <ele>440.6</ele>
        <time>2022-06-26T06:04:21Z</time>
      </trkpt>
      <trkpt lat="47.9986" lon="6.73149">
        <ele>440.2</ele>
        <time>2022-06-26T06:04:22Z</time>
      </trkpt>
      <trkpt lat="47.9986" lon="6.73152">
        <ele>440</ele>
        <time>2022-06-26T06:04:23Z</time>
      </trkpt>
      <trkpt lat="47.9986" lon="6.73155">
        <ele>439.4</ele>
        <time>2022-06-26T06:04:24Z</time>
      </trkpt>
      <trkpt lat="47.9986" lon="6.73157">
        <ele>439.2</ele>
        <time>2022-06-26T06:04:25Z</time>
      </trkpt>
      <trkpt lat="47.99861" lon="6.73159">
        <ele>438.8</ele>
        <time>2022-06-26T06:04:26Z</time>
      </trkpt>
      <trkpt lat="47.99861" lon="6.73162">
        <ele>438.6</ele>
        <time>2022-06-26T06:04:27Z</time>
      </trkpt>
      <trkpt lat="47.99862" lon="6.73164">
        <ele>438.6</ele>
        <time>2022-06-26T06:04:28Z</time>
      </trkpt>
      <trkpt lat="47.99864" lon="6.73167">
        <ele>438.6</ele>
        <time>2022-06-26T06:04:29Z</time>
      </trkpt>
      <trkpt lat="47.99866" lon="6.73171">
        <ele>438.6</ele>
        <time>2022-06-26T06:04:30Z</time>
      </trkpt>
      <trkpt lat="47.99871" lon="6.73187">
        <ele>438.6</ele>
        <time>2022-06-26T06:04:33Z</time>
      </trkpt>
      <trkpt lat="47.99875" lon="6.73201">
        <ele>438.4</ele>
        <time>2022-06-26T06:04:35Z</time>
      </trkpt>
      <trkpt lat="47.99876" lon="6.73207">
        <ele>438.4</ele>
        <time>2022-06-26T06:04:36Z</time>
      </trkpt>
      <trkpt lat="47.99877" lon="6.73221">
        <ele>438.2</ele>
        <time>2022-06-26T06:04:38Z</time>
      </trkpt>
      <trkpt lat="47.99876" lon="6.73227">
        <ele>438.2</ele>
        <time>2022-06-26T06:04:39Z</time>
      </trkpt>
      <trkpt lat="47.99875" lon="6.73233">
        <ele>438</ele>
        <time>2022-06-26T06:04:40Z</time>
      </trkpt>
      <trkpt lat="47.99874" lon="6.7324">
        <ele>437.8</ele>
        <time>2022-06-26T06:04:41Z</time>
      </trkpt>
      <trkpt lat="47.99875" lon="6.73248">
        <ele>437.6</ele>
        <time>2022-06-26T06:04:42Z</time>
      </trkpt>
      <trkpt lat="47.99876" lon="6.73256">
        <ele>437.2</ele>
        <time>2022-06-26T06:04:43Z</time>
      </trkpt>
      <trkpt lat="47.99878" lon="6.73267">
        <ele>436.8</ele>
        <time>2022-06-26T06:04:44Z</time>
      </trkpt>
      <trkpt lat="47.99878" lon="6.73276">
        <ele>436.4</ele>
        <time>2022-06-26T06:04:45Z</time>
      </trkpt>
      <trkpt lat="47.99881" lon="6.73297">
        <ele>436</ele>
        <time>2022-06-26T06:04:47Z</time>
      </trkpt>
      <trkpt lat="47.99883" lon="6.73307">
        <ele>435.8</ele>
        <time>2022-06-26T06:04:48Z</time>
      </trkpt>
      <trkpt lat="47.99883" lon="6.73314">
        <ele>434.6</ele>
        <time>2022-06-26T06:04:49Z</time>
      </trkpt>
      <trkpt lat="47.99883" lon="6.73319">
        <ele>434</ele>
        <time>2022-06-26T06:04:50Z</time>
      </trkpt>
      <trkpt lat="47.99882" lon="6.73323">
        <ele>433</ele>
        <time>2022-06-26T06:04:51Z</time>
      </trkpt>
      <trkpt lat="47.99882" lon="6.73325">
        <ele>432.6</ele>
        <time>2022-06-26T06:04:52Z</time>
      </trkpt>
      <trkpt lat="47.9988" lon="6.73327">
        <ele>432.4</ele>
        <time>2022-06-26T06:04:53Z</time>
      </trkpt>
      <trkpt lat="47.9988" lon="6.73327">
        <ele>432.4</ele>
        <time>2022-06-26T06:04:54Z</time>
      </trkpt>
      <trkpt lat="47.9988" lon="6.73328">
        <ele>432.4</ele>
        <time>2022-06-26T06:04:55Z</time>
      </trkpt>
      <trkpt lat="47.99879" lon="6.7333">
        <ele>432.2</ele>
        <time>2022-06-26T06:04:56Z</time>
      </trkpt>
      <trkpt lat="47.99877" lon="6.73332">
        <ele>432.2</ele>
        <time>2022-06-26T06:04:57Z</time>
      </trkpt>
      <trkpt lat="47.99874" lon="6.73334">
        <ele>432.4</ele>
        <time>2022-06-26T06:04:59Z</time>
      </trkpt>
      <trkpt lat="47.99873" lon="6.73336">
        <ele>432.6</ele>
        <time>2022-06-26T06:05:00Z</time>
      </trkpt>
      <trkpt lat="47.99872" lon="6.73338">
        <ele>432.8</ele>
        <time>2022-06-26T06:05:01Z</time>
      </trkpt>
      <trkpt lat="47.99871" lon="6.73341">
        <ele>433</ele>
        <time>2022-06-26T06:05:02Z</time>
      </trkpt>
      <trkpt lat="47.99869" lon="6.73343">
        <ele>433.2</ele>
        <time>2022-06-26T06:05:03Z</time>
      </trkpt>
      <trkpt lat="47.99868" lon="6.73346">
        <ele>433.4</ele>
        <time>2022-06-26T06:05:04Z</time>
      </trkpt>
      <trkpt lat="47.99867" lon="6.73348">
        <ele>433.4</ele>
        <time>2022-06-26T06:05:05Z</time>
      </trkpt>
      <trkpt lat="47.99866" lon="6.73349">
        <ele>433.6</ele>
        <time>2022-06-26T06:05:07Z</time>
      </trkpt>
      <trkpt lat="47.99864" lon="6.73351">
        <ele>433.6</ele>
        <time>2022-06-26T06:05:08Z</time>
      </trkpt>
      <trkpt lat="47.99861" lon="6.73363">
        <ele>434</ele>
        <time>2022-06-26T06:05:11Z</time>
      </trkpt>
      <trkpt lat="47.99859" lon="6.73369">
        <ele>433.8</ele>
        <time>2022-06-26T06:05:12Z</time>
      </trkpt>
      <trkpt lat="47.99858" lon="6.73374">
        <ele>434</ele>
        <time>2022-06-26T06:05:13Z</time>
      </trkpt>
      <trkpt lat="47.99855" lon="6.73379">
        <ele>434.2</ele>
        <time>2022-06-26T06:05:14Z</time>
      </trkpt>
      <trkpt lat="47.99853" lon="6.73382">
        <ele>434.2</ele>
        <time>2022-06-26T06:05:15Z</time>
      </trkpt>
      <trkpt lat="47.99851" lon="6.73384">
        <ele>434.2</ele>
        <time>2022-06-26T06:05:16Z</time>
      </trkpt>
      <trkpt lat="47.99849" lon="6.73387">
        <ele>434.4</ele>
        <time>2022-06-26T06:05:17Z</time>
      </trkpt>
      <trkpt lat="47.99845" lon="6.73393">
        <ele>434.4</ele>
        <time>2022-06-26T06:05:19Z</time>
      </trkpt>
      <trkpt lat="47.99837" lon="6.73404">
        <ele>434.4</ele>
        <time>2022-06-26T06:05:23Z</time>
      </trkpt>
      <trkpt lat="47.99836" lon="6.73407">
        <ele>434.4</ele>
        <time>2022-06-26T06:05:24Z</time>
      </trkpt>
      <trkpt lat="47.99834" lon="6.73414">
        <ele>434.4</ele>
        <time>2022-06-26T06:05:25Z</time>
      </trkpt>
      <trkpt lat="47.99831" lon="6.73419">
        <ele>434.4</ele>
        <time>2022-06-26T06:05:26Z</time>
      </trkpt>
      <trkpt lat="47.99825" lon="6.73426">
        <ele>434.2</ele>
        <time>2022-06-26T06:05:28Z</time>
      </trkpt>
      <trkpt lat="47.99821" lon="6.73433">
        <ele>434.4</ele>
        <time>2022-06-26T06:05:29Z</time>
      </trkpt>
      <trkpt lat="47.99818" lon="6.73439">
        <ele>434.2</ele>
        <time>2022-06-26T06:05:30Z</time>
      </trkpt>
      <trkpt lat="47.99816" lon="6.73441">
        <ele>434.2</ele>
        <time>2022-06-26T06:05:31Z</time>
      </trkpt>
      <trkpt lat="47.99815" lon="6.73444">
        <ele>434.2</ele>
        <time>2022-06-26T06:05:32Z</time>
      </trkpt>
      <trkpt lat="47.99814" lon="6.73446">
        <ele>434.2</ele>
        <time>2022-06-26T06:05:33Z</time>
      </trkpt>
      <trkpt lat="47.99807" lon="6.7345">
        <ele>434.4</ele>
        <time>2022-06-26T06:05:34Z</time>
      </trkpt>
      <trkpt lat="47.99805" lon="6.73453">
        <ele>434.4</ele>
        <time>2022-06-26T06:05:35Z</time>
      </trkpt>
      <trkpt lat="47.99804" lon="6.73456">
        <ele>434.4</ele>
        <time>2022-06-26T06:05:36Z</time>
      </trkpt>
      <trkpt lat="47.99804" lon="6.73457">
        <ele>434.6</ele>
        <time>2022-06-26T06:05:37Z</time>
      </trkpt>
      <trkpt lat="47.99803" lon="6.73458">
        <ele>434.6</ele>
        <time>2022-06-26T06:05:38Z</time>
      </trkpt>
      <trkpt lat="47.99803" lon="6.7346">
        <ele>435</ele>
        <time>2022-06-26T06:05:39Z</time>
      </trkpt>
      <trkpt lat="47.99802" lon="6.73463">
        <ele>435.2</ele>
        <time>2022-06-26T06:05:40Z</time>
      </trkpt>
      <trkpt lat="47.99798" lon="6.73467">
        <ele>436</ele>
        <time>2022-06-26T06:05:43Z</time>
      </trkpt>
      <trkpt lat="47.99796" lon="6.7347">
        <ele>436.2</ele>
        <time>2022-06-26T06:05:44Z</time>
      </trkpt>
      <trkpt lat="47.99794" lon="6.73473">
        <ele>436.2</ele>
        <time>2022-06-26T06:05:45Z</time>
      </trkpt>
      <trkpt lat="47.99789" lon="6.73486">
        <ele>437</ele>
        <time>2022-06-26T06:05:49Z</time>
      </trkpt>
      <trkpt lat="47.99787" lon="6.73489">
        <ele>437.2</ele>
        <time>2022-06-26T06:05:50Z</time>
      </trkpt>
      <trkpt lat="47.99786" lon="6.73493">
        <ele>437.4</ele>
        <time>2022-06-26T06:05:51Z</time>
      </trkpt>
      <trkpt lat="47.99786" lon="6.73495">
        <ele>437.6</ele>
        <time>2022-06-26T06:05:52Z</time>
      </trkpt>
      <trkpt lat="47.99784" lon="6.73497">
        <ele>437.8</ele>
        <time>2022-06-26T06:05:53Z</time>
      </trkpt>
      <trkpt lat="47.99784" lon="6.73498">
        <ele>438</ele>
        <time>2022-06-26T06:05:54Z</time>
      </trkpt>
      <trkpt lat="47.99783" lon="6.73501">
        <ele>438</ele>
        <time>2022-06-26T06:05:55Z</time>
      </trkpt>
      <trkpt lat="47.99781" lon="6.73504">
        <ele>438.2</ele>
        <time>2022-06-26T06:05:56Z</time>
      </trkpt>
      <trkpt lat="47.99779" lon="6.7351">
        <ele>438.4</ele>
        <time>2022-06-26T06:05:57Z</time>
      </trkpt>
      <trkpt lat="47.99777" lon="6.73512">
        <ele>438.6</ele>
        <time>2022-06-26T06:05:58Z</time>
      </trkpt>
      <trkpt lat="47.99776" lon="6.73513">
        <ele>438.6</ele>
        <time>2022-06-26T06:05:59Z</time>
      </trkpt>
      <trkpt lat="47.99776" lon="6.73516">
        <ele>438.8</ele>
        <time>2022-06-26T06:06:00Z</time>
      </trkpt>
      <trkpt lat="47.99776" lon="6.7352">
        <ele>439</ele>
        <time>2022-06-26T06:06:01Z</time>
      </trkpt>
      <trkpt lat="47.99777" lon="6.73521">
        <ele>439.4</ele>
        <time>2022-06-26T06:06:02Z</time>
      </trkpt>
      <trkpt lat="47.99777" lon="6.73521">
        <ele>439.6</ele>
        <time>2022-06-26T06:06:03Z</time>
      </trkpt>
      <trkpt lat="47.99777" lon="6.73521">
        <ele>440</ele>
        <time>2022-06-26T06:06:04Z</time>
      </trkpt>
      <trkpt lat="47.99776" lon="6.73522">
        <ele>440</ele>
        <time>2022-06-26T06:06:05Z</time>
      </trkpt>
      <trkpt lat="47.99776" lon="6.73522">
        <ele>440.2</ele>
        <time>2022-06-26T06:06:06Z</time>
      </trkpt>
      <trkpt lat="47.99776" lon="6.73522">
        <ele>440.6</ele>
        <time>2022-06-26T06:06:07Z</time>
      </trkpt>
      <trkpt lat="47.99776" lon="6.73524">
        <ele>441</ele>
        <time>2022-06-26T06:06:08Z</time>
      </trkpt>
      <trkpt lat="47.99775" lon="6.73525">
        <ele>441.2</ele>
        <time>2022-06-26T06:06:09Z</time>
      </trkpt>
      <trkpt lat="47.99774" lon="6.73526">
        <ele>441.6</ele>
        <time>2022-06-26T06:06:10Z</time>
      </trkpt>
      <trkpt lat="47.99774" lon="6.73526">
        <ele>442</ele>
        <time>2022-06-26T06:06:11Z</time>
      </trkpt>
      <trkpt lat="47.99774" lon="6.73527">
        <ele>442.2</ele>
        <time>2022-06-26T06:06:12Z</time>
      </trkpt>
      <trkpt lat="47.99773" lon="6.73527">
        <ele>442.6</ele>
        <time>2022-06-26T06:06:13Z</time>
      </trkpt>
      <trkpt lat="47.99773" lon="6.73528">
        <ele>442.8</ele>
        <time>2022-06-26T06:06:14Z</time>
      </trkpt>
      <trkpt lat="47.99773" lon="6.73529">
        <ele>443.2</ele>
        <time>2022-06-26T06:06:15Z</time>
      </trkpt>
      <trkpt lat="47.99772" lon="6.73531">
        <ele>443.4</ele>
        <time>2022-06-26T06:06:16Z</time>
      </trkpt>
      <trkpt lat="47.99772" lon="6.73531">
        <ele>443.8</ele>
        <time>2022-06-26T06:06:17Z</time>
      </trkpt>
      <trkpt lat="47.99772" lon="6.73531">
        <ele>444</ele>
        <time>2022-06-26T06:06:18Z</time>
      </trkpt>
      <trkpt lat="47.99772" lon="6.73531">
        <ele>444.4</ele>
        <time>2022-06-26T06:06:19Z</time>
      </trkpt>
      <trkpt lat="47.99772" lon="6.73531">
        <ele>445</ele>
        <time>2022-06-26T06:06:21Z</time>
      </trkpt>
      <trkpt lat="47.99771" lon="6.73533">
        <ele>445.4</ele>
        <time>2022-06-26T06:06:22Z</time>
      </trkpt>
      <trkpt lat="47.99771" lon="6.73533">
        <ele>445.4</ele>
        <time>2022-06-26T06:06:23Z</time>
      </trkpt>
      <trkpt lat="47.99771" lon="6.73534">
        <ele>445.6</ele>
        <time>2022-06-26T06:06:24Z</time>
      </trkpt>
      <trkpt lat="47.9977" lon="6.73534">
        <ele>445.8</ele>
        <time>2022-06-26T06:06:25Z</time>
      </trkpt>
      <trkpt lat="47.9977" lon="6.73536">
        <ele>446</ele>
        <time>2022-06-26T06:06:26Z</time>
      </trkpt>
      <trkpt lat="47.99768" lon="6.73539">
        <ele>446.4</ele>
        <time>2022-06-26T06:06:27Z</time>
      </trkpt>
      <trkpt lat="47.99767" lon="6.73542">
        <ele>446.4</ele>
        <time>2022-06-26T06:06:28Z</time>
      </trkpt>
      <trkpt lat="47.99766" lon="6.73544">
        <ele>446.6</ele>
        <time>2022-06-26T06:06:29Z</time>
      </trkpt>
      <trkpt lat="47.99765" lon="6.73545">
        <ele>446.8</ele>
        <time>2022-06-26T06:06:30Z</time>
      </trkpt>
      <trkpt lat="47.99765" lon="6.73546">
        <ele>447</ele>
        <time>2022-06-26T06:06:31Z</time>
      </trkpt>
      <trkpt lat="47.99764" lon="6.73547">
        <ele>447</ele>
        <time>2022-06-26T06:06:32Z</time>
      </trkpt>
      <trkpt lat="47.99763" lon="6.73549">
        <ele>447.2</ele>
        <time>2022-06-26T06:06:33Z</time>
      </trkpt>
      <trkpt lat="47.99762" lon="6.7355">
        <ele>447.2</ele>
        <time>2022-06-26T06:06:34Z</time>
      </trkpt>
      <trkpt lat="47.99762" lon="6.73551">
        <ele>447.2</ele>
        <time>2022-06-26T06:06:35Z</time>
      </trkpt>
      <trkpt lat="47.99761" lon="6.73551">
        <ele>447.4</ele>
        <time>2022-06-26T06:06:36Z</time>
      </trkpt>
      <trkpt lat="47.9976" lon="6.73552">
        <ele>447.4</ele>
        <time>2022-06-26T06:06:37Z</time>
      </trkpt>
      <trkpt lat="47.99759" lon="6.73553">
        <ele>447.8</ele>
        <time>2022-06-26T06:06:38Z</time>
      </trkpt>
      <trkpt lat="47.99757" lon="6.73557">
        <ele>448</ele>
        <time>2022-06-26T06:06:39Z</time>
      </trkpt>
      <trkpt lat="47.99756" lon="6.73559">
        <ele>448.4</ele>
        <time>2022-06-26T06:06:40Z</time>
      </trkpt>
      <trkpt lat="47.99756" lon="6.7356">
        <ele>448.6</ele>
        <time>2022-06-26T06:06:41Z</time>
      </trkpt>
      <trkpt lat="47.99756" lon="6.7356">
        <ele>448.8</ele>
        <time>2022-06-26T06:06:42Z</time>
      </trkpt>
      <trkpt lat="47.99755" lon="6.73562">
        <ele>448.8</ele>
        <time>2022-06-26T06:06:43Z</time>
      </trkpt>
      <trkpt lat="47.99754" lon="6.73564">
        <ele>449.2</ele>
        <time>2022-06-26T06:06:44Z</time>
      </trkpt>
      <trkpt lat="47.99753" lon="6.73567">
        <ele>449.6</ele>
        <time>2022-06-26T06:06:45Z</time>
      </trkpt>
      <trkpt lat="47.99752" lon="6.73567">
        <ele>449.8</ele>
        <time>2022-06-26T06:06:46Z</time>
      </trkpt>
      <trkpt lat="47.99752" lon="6.73567">
        <ele>450</ele>
        <time>2022-06-26T06:06:47Z</time>
      </trkpt>
      <trkpt lat="47.99752" lon="6.73571">
        <ele>450.4</ele>
        <time>2022-06-26T06:06:49Z</time>
      </trkpt>
      <trkpt lat="47.99752" lon="6.73573">
        <ele>450.6</ele>
        <time>2022-06-26T06:06:50Z</time>
      </trkpt>
      <trkpt lat="47.99751" lon="6.73575">
        <ele>450.8</ele>
        <time>2022-06-26T06:06:51Z</time>
      </trkpt>
      <trkpt lat="47.99751" lon="6.73576">
        <ele>450.8</ele>
        <time>2022-06-26T06:06:52Z</time>
      </trkpt>
      <trkpt lat="47.99751" lon="6.73577">
        <ele>451</ele>
        <time>2022-06-26T06:06:53Z</time>
      </trkpt>
      <trkpt lat="47.99751" lon="6.73577">
        <ele>451.4</ele>
        <time>2022-06-26T06:06:54Z</time>
      </trkpt>
      <trkpt lat="47.99751" lon="6.73577">
        <ele>451.4</ele>
        <time>2022-06-26T06:06:55Z</time>
      </trkpt>
      <trkpt lat="47.99751" lon="6.73577">
        <ele>451.8</ele>
        <time>2022-06-26T06:06:56Z</time>
      </trkpt>
      <trkpt lat="47.99751" lon="6.73578">
        <ele>451.6</ele>
        <time>2022-06-26T06:06:57Z</time>
      </trkpt>
      <trkpt lat="47.99752" lon="6.73578">
        <ele>452</ele>
        <time>2022-06-26T06:06:58Z</time>
      </trkpt>
      <trkpt lat="47.99752" lon="6.73578">
        <ele>452.2</ele>
        <time>2022-06-26T06:06:59Z</time>
      </trkpt>
      <trkpt lat="47.99752" lon="6.73578">
        <ele>452.4</ele>
        <time>2022-06-26T06:07:00Z</time>
      </trkpt>
      <trkpt lat="47.99752" lon="6.73578">
        <ele>452.6</ele>
        <time>2022-06-26T06:07:01Z</time>
      </trkpt>
      <trkpt lat="47.99752" lon="6.73578">
        <ele>452.8</ele>
        <time>2022-06-26T06:07:02Z</time>
      </trkpt>
      <trkpt lat="47.99752" lon="6.73579">
        <ele>453.2</ele>
        <time>2022-06-26T06:07:03Z</time>
      </trkpt>
      <trkpt lat="47.99752" lon="6.73579">
        <ele>453.4</ele>
        <time>2022-06-26T06:07:04Z</time>
      </trkpt>
      <trkpt lat="47.99752" lon="6.73582">
        <ele>453.8</ele>
        <time>2022-06-26T06:07:05Z</time>
      </trkpt>
      <trkpt lat="47.99751" lon="6.73584">
        <ele>454</ele>
        <time>2022-06-26T06:07:06Z</time>
      </trkpt>
      <trkpt lat="47.9975" lon="6.73588">
        <ele>454.2</ele>
        <time>2022-06-26T06:07:07Z</time>
      </trkpt>
      <trkpt lat="47.99749" lon="6.7359">
        <ele>454.4</ele>
        <time>2022-06-26T06:07:08Z</time>
      </trkpt>
      <trkpt lat="47.99748" lon="6.73592">
        <ele>454.8</ele>
        <time>2022-06-26T06:07:09Z</time>
      </trkpt>
      <trkpt lat="47.99748" lon="6.73592">
        <ele>455.2</ele>
        <time>2022-06-26T06:07:10Z</time>
      </trkpt>
      <trkpt lat="47.99748" lon="6.73592">
        <ele>455.2</ele>
        <time>2022-06-26T06:07:11Z</time>
      </trkpt>
      <trkpt lat="47.99748" lon="6.73592">
        <ele>455.4</ele>
        <time>2022-06-26T06:07:12Z</time>
      </trkpt>
      <trkpt lat="47.99747" lon="6.73593">
        <ele>455.6</ele>
        <time>2022-06-26T06:07:13Z</time>
      </trkpt>
      <trkpt lat="47.99746" lon="6.73596">
        <ele>455.8</ele>
        <time>2022-06-26T06:07:14Z</time>
      </trkpt>
      <trkpt lat="47.99746" lon="6.73599">
        <ele>456</ele>
        <time>2022-06-26T06:07:15Z</time>
      </trkpt>
      <trkpt lat="47.99746" lon="6.73602">
        <ele>456.2</ele>
        <time>2022-06-26T06:07:16Z</time>
      </trkpt>
      <trkpt lat="47.99745" lon="6.73602">
        <ele>456.2</ele>
        <time>2022-06-26T06:07:17Z</time>
      </trkpt>
      <trkpt lat="47.99745" lon="6.73602">
        <ele>456.6</ele>
        <time>2022-06-26T06:07:18Z</time>
      </trkpt>
      <trkpt lat="47.99745" lon="6.73604">
        <ele>457</ele>
        <time>2022-06-26T06:07:19Z</time>
      </trkpt>
      <trkpt lat="47.99745" lon="6.73607">
        <ele>457.2</ele>
        <time>2022-06-26T06:07:20Z</time>
      </trkpt>
      <trkpt lat="47.99744" lon="6.7361">
        <ele>457.8</ele>
        <time>2022-06-26T06:07:21Z</time>
      </trkpt>
      <trkpt lat="47.99743" lon="6.73611">
        <ele>458</ele>
        <time>2022-06-26T06:07:22Z</time>
      </trkpt>
      <trkpt lat="47.99743" lon="6.73611">
        <ele>458.4</ele>
        <time>2022-06-26T06:07:23Z</time>
      </trkpt>
      <trkpt lat="47.99742" lon="6.73614">
        <ele>459.2</ele>
        <time>2022-06-26T06:07:26Z</time>
      </trkpt>
      <trkpt lat="47.99741" lon="6.73617">
        <ele>459.4</ele>
        <time>2022-06-26T06:07:27Z</time>
      </trkpt>
      <trkpt lat="47.9974" lon="6.7362">
        <ele>459.6</ele>
        <time>2022-06-26T06:07:28Z</time>
      </trkpt>
      <trkpt lat="47.99739" lon="6.73623">
        <ele>459.6</ele>
        <time>2022-06-26T06:07:29Z</time>
      </trkpt>
      <trkpt lat="47.99738" lon="6.73626">
        <ele>459.8</ele>
        <time>2022-06-26T06:07:30Z</time>
      </trkpt>
      <trkpt lat="47.99736" lon="6.73629">
        <ele>459.8</ele>
        <time>2022-06-26T06:07:31Z</time>
      </trkpt>
      <trkpt lat="47.99735" lon="6.73631">
        <ele>460</ele>
        <time>2022-06-26T06:07:32Z</time>
      </trkpt>
      <trkpt lat="47.99735" lon="6.73633">
        <ele>460</ele>
        <time>2022-06-26T06:07:33Z</time>
      </trkpt>
      <trkpt lat="47.99734" lon="6.73635">
        <ele>460.4</ele>
        <time>2022-06-26T06:07:34Z</time>
      </trkpt>
      <trkpt lat="47.99734" lon="6.73638">
        <ele>460.4</ele>
        <time>2022-06-26T06:07:35Z</time>
      </trkpt>
      <trkpt lat="47.99733" lon="6.7364">
        <ele>460.8</ele>
        <time>2022-06-26T06:07:36Z</time>
      </trkpt>
      <trkpt lat="47.99733" lon="6.73643">
        <ele>461</ele>
        <time>2022-06-26T06:07:37Z</time>
      </trkpt>
      <trkpt lat="47.99733" lon="6.73646">
        <ele>461</ele>
        <time>2022-06-26T06:07:38Z</time>
      </trkpt>
      <trkpt lat="47.99734" lon="6.73649">
        <ele>461.2</ele>
        <time>2022-06-26T06:07:39Z</time>
      </trkpt>
      <trkpt lat="47.99735" lon="6.73653">
        <ele>461.4</ele>
        <time>2022-06-26T06:07:40Z</time>
      </trkpt>
      <trkpt lat="47.99737" lon="6.73657">
        <ele>461.4</ele>
        <time>2022-06-26T06:07:41Z</time>
      </trkpt>
      <trkpt lat="47.99737" lon="6.73661">
        <ele>461.4</ele>
        <time>2022-06-26T06:07:42Z</time>
      </trkpt>
      <trkpt lat="47.99738" lon="6.73666">
        <ele>461.4</ele>
        <time>2022-06-26T06:07:43Z</time>
      </trkpt>
      <trkpt lat="47.99738" lon="6.73671">
        <ele>461.4</ele>
        <time>2022-06-26T06:07:44Z</time>
      </trkpt>
      <trkpt lat="47.99738" lon="6.73675">
        <ele>461.4</ele>
        <time>2022-06-26T06:07:45Z</time>
      </trkpt>
      <trkpt lat="47.99737" lon="6.73677">
        <ele>461.6</ele>
        <time>2022-06-26T06:07:46Z</time>
      </trkpt>
      <trkpt lat="47.99736" lon="6.73679">
        <ele>461.6</ele>
        <time>2022-06-26T06:07:47Z</time>
      </trkpt>
      <trkpt lat="47.99735" lon="6.73682">
        <ele>461.6</ele>
        <time>2022-06-26T06:07:48Z</time>
      </trkpt>
      <trkpt lat="47.99735" lon="6.73684">
        <ele>461.6</ele>
        <time>2022-06-26T06:07:49Z</time>
      </trkpt>
      <trkpt lat="47.99735" lon="6.73687">
        <ele>461.8</ele>
        <time>2022-06-26T06:07:50Z</time>
      </trkpt>
      <trkpt lat="47.99735" lon="6.73689">
        <ele>461.8</ele>
        <time>2022-06-26T06:07:51Z</time>
      </trkpt>
      <trkpt lat="47.99736" lon="6.7369">
        <ele>462</ele>
        <time>2022-06-26T06:07:52Z</time>
      </trkpt>
      <trkpt lat="47.99735" lon="6.73693">
        <ele>462</ele>
        <time>2022-06-26T06:07:53Z</time>
      </trkpt>
      <trkpt lat="47.99738" lon="6.73695">
        <ele>462.2</ele>
        <time>2022-06-26T06:07:54Z</time>
      </trkpt>
      <trkpt lat="47.99738" lon="6.73699">
        <ele>462.4</ele>
        <time>2022-06-26T06:07:55Z</time>
      </trkpt>
      <trkpt lat="47.99739" lon="6.73703">
        <ele>462.4</ele>
        <time>2022-06-26T06:07:56Z</time>
      </trkpt>
      <trkpt lat="47.99739" lon="6.73706">
        <ele>462.6</ele>
        <time>2022-06-26T06:07:57Z</time>
      </trkpt>
      <trkpt lat="47.99739" lon="6.73708">
        <ele>462.6</ele>
        <time>2022-06-26T06:07:58Z</time>
      </trkpt>
      <trkpt lat="47.9974" lon="6.73711">
        <ele>462.8</ele>
        <time>2022-06-26T06:07:59Z</time>
      </trkpt>
      <trkpt lat="47.99739" lon="6.73713">
        <ele>463</ele>
        <time>2022-06-26T06:08:00Z</time>
      </trkpt>
      <trkpt lat="47.99738" lon="6.73716">
        <ele>463</ele>
        <time>2022-06-26T06:08:01Z</time>
      </trkpt>
      <trkpt lat="47.99737" lon="6.73718">
        <ele>463.2</ele>
        <time>2022-06-26T06:08:02Z</time>
      </trkpt>
      <trkpt lat="47.99738" lon="6.7372">
        <ele>463.4</ele>
        <time>2022-06-26T06:08:03Z</time>
      </trkpt>
      <trkpt lat="47.99739" lon="6.73722">
        <ele>463.6</ele>
        <time>2022-06-26T06:08:04Z</time>
      </trkpt>
      <trkpt lat="47.99739" lon="6.73723">
        <ele>463.8</ele>
        <time>2022-06-26T06:08:05Z</time>
      </trkpt>
      <trkpt lat="47.99739" lon="6.73723">
        <ele>464</ele>
        <time>2022-06-26T06:08:06Z</time>
      </trkpt>
      <trkpt lat="47.99739" lon="6.73723">
        <ele>464.4</ele>
        <time>2022-06-26T06:08:07Z</time>
      </trkpt>
      <trkpt lat="47.99739" lon="6.73724">
        <ele>465</ele>
        <time>2022-06-26T06:08:08Z</time>
      </trkpt>
      <trkpt lat="47.99739" lon="6.73726">
        <ele>465</ele>
        <time>2022-06-26T06:08:09Z</time>
      </trkpt>
      <trkpt lat="47.99739" lon="6.73727">
        <ele>465.6</ele>
        <time>2022-06-26T06:08:10Z</time>
      </trkpt>
      <trkpt lat="47.99739" lon="6.73728">
        <ele>465.8</ele>
        <time>2022-06-26T06:08:11Z</time>
      </trkpt>
      <trkpt lat="47.9974" lon="6.73729">
        <ele>466</ele>
        <time>2022-06-26T06:08:12Z</time>
      </trkpt>
      <trkpt lat="47.99741" lon="6.7373">
        <ele>466.2</ele>
        <time>2022-06-26T06:08:13Z</time>
      </trkpt>
      <trkpt lat="47.99741" lon="6.7373">
        <ele>466.4</ele>
        <time>2022-06-26T06:08:14Z</time>
      </trkpt>
      <trkpt lat="47.99742" lon="6.73731">
        <ele>466.6</ele>
        <time>2022-06-26T06:08:15Z</time>
      </trkpt>
      <trkpt lat="47.99742" lon="6.73731">
        <ele>466.6</ele>
        <time>2022-06-26T06:08:16Z</time>
      </trkpt>
      <trkpt lat="47.99743" lon="6.73732">
        <ele>466.8</ele>
        <time>2022-06-26T06:08:17Z</time>
      </trkpt>
      <trkpt lat="47.99744" lon="6.73732">
        <ele>467</ele>
        <time>2022-06-26T06:08:18Z</time>
      </trkpt>
      <trkpt lat="47.99745" lon="6.73733">
        <ele>467.4</ele>
        <time>2022-06-26T06:08:19Z</time>
      </trkpt>
      <trkpt lat="47.99746" lon="6.73733">
        <ele>467.6</ele>
        <time>2022-06-26T06:08:20Z</time>
      </trkpt>
      <trkpt lat="47.99747" lon="6.73734">
        <ele>467.8</ele>
        <time>2022-06-26T06:08:21Z</time>
      </trkpt>
      <trkpt lat="47.99748" lon="6.73734">
        <ele>468.2</ele>
        <time>2022-06-26T06:08:22Z</time>
      </trkpt>
      <trkpt lat="47.99749" lon="6.73735">
        <ele>468.2</ele>
        <time>2022-06-26T06:08:23Z</time>
      </trkpt>
      <trkpt lat="47.99751" lon="6.73735">
        <ele>468.4</ele>
        <time>2022-06-26T06:08:24Z</time>
      </trkpt>
      <trkpt lat="47.99752" lon="6.73735">
        <ele>468.4</ele>
        <time>2022-06-26T06:08:25Z</time>
      </trkpt>
      <trkpt lat="47.99752" lon="6.73736">
        <ele>468.6</ele>
        <time>2022-06-26T06:08:26Z</time>
      </trkpt>
      <trkpt lat="47.99753" lon="6.73736">
        <ele>468.6</ele>
        <time>2022-06-26T06:08:27Z</time>
      </trkpt>
      <trkpt lat="47.99754" lon="6.73737">
        <ele>468.6</ele>
        <time>2022-06-26T06:08:28Z</time>
      </trkpt>
      <trkpt lat="47.99755" lon="6.73738">
        <ele>468.8</ele>
        <time>2022-06-26T06:08:29Z</time>
      </trkpt>
      <trkpt lat="47.99756" lon="6.73738">
        <ele>468.8</ele>
        <time>2022-06-26T06:08:30Z</time>
      </trkpt>
      <trkpt lat="47.99757" lon="6.73739">
        <ele>468.6</ele>
        <time>2022-06-26T06:08:31Z</time>
      </trkpt>
      <trkpt lat="47.99757" lon="6.73739">
        <ele>468.6</ele>
        <time>2022-06-26T06:08:32Z</time>
      </trkpt>
      <trkpt lat="47.99758" lon="6.7374">
        <ele>468.8</ele>
        <time>2022-06-26T06:08:33Z</time>
      </trkpt>
      <trkpt lat="47.9976" lon="6.7374">
        <ele>468.8</ele>
        <time>2022-06-26T06:08:34Z</time>
      </trkpt>
      <trkpt lat="47.99762" lon="6.7374">
        <ele>468.6</ele>
        <time>2022-06-26T06:08:35Z</time>
      </trkpt>
      <trkpt lat="47.99765" lon="6.7374">
        <ele>468.6</ele>
        <time>2022-06-26T06:08:36Z</time>
      </trkpt>
      <trkpt lat="47.99768" lon="6.73741">
        <ele>468.6</ele>
        <time>2022-06-26T06:08:37Z</time>
      </trkpt>
      <trkpt lat="47.9977" lon="6.73744">
        <ele>468.4</ele>
        <time>2022-06-26T06:08:38Z</time>
      </trkpt>
      <trkpt lat="47.99772" lon="6.73747">
        <ele>468.4</ele>
        <time>2022-06-26T06:08:39Z</time>
      </trkpt>
      <trkpt lat="47.99773" lon="6.7375">
        <ele>468</ele>
        <time>2022-06-26T06:08:40Z</time>
      </trkpt>
      <trkpt lat="47.99774" lon="6.73754">
        <ele>467.8</ele>
        <time>2022-06-26T06:08:41Z</time>
      </trkpt>
      <trkpt lat="47.99776" lon="6.73758">
        <ele>467.2</ele>
        <time>2022-06-26T06:08:42Z</time>
      </trkpt>
      <trkpt lat="47.99776" lon="6.73761">
        <ele>467</ele>
        <time>2022-06-26T06:08:43Z</time>
      </trkpt>
      <trkpt lat="47.99777" lon="6.73766">
        <ele>466.2</ele>
        <time>2022-06-26T06:08:45Z</time>
      </trkpt>
      <trkpt lat="47.99777" lon="6.73768">
        <ele>466.2</ele>
        <time>2022-06-26T06:08:46Z</time>
      </trkpt>
      <trkpt lat="47.99777" lon="6.73769">
        <ele>466</ele>
        <time>2022-06-26T06:08:47Z</time>
      </trkpt>
      <trkpt lat="47.99777" lon="6.73771">
        <ele>466</ele>
        <time>2022-06-26T06:08:48Z</time>
      </trkpt>
      <trkpt lat="47.99777" lon="6.73773">
        <ele>466</ele>
        <time>2022-06-26T06:08:49Z</time>
      </trkpt>
      <trkpt lat="47.99777" lon="6.73775">
        <ele>466</ele>
        <time>2022-06-26T06:08:50Z</time>
      </trkpt>
      <trkpt lat="47.99777" lon="6.73778">
        <ele>466</ele>
        <time>2022-06-26T06:08:52Z</time>
      </trkpt>
      <trkpt lat="47.99779" lon="6.73781">
        <ele>466</ele>
        <time>2022-06-26T06:08:53Z</time>
      </trkpt>
      <trkpt lat="47.9978" lon="6.73784">
        <ele>466.4</ele>
        <time>2022-06-26T06:08:55Z</time>
      </trkpt>
      <trkpt lat="47.99782" lon="6.73787">
        <ele>466.4</ele>
        <time>2022-06-26T06:08:56Z</time>
      </trkpt>
      <trkpt lat="47.99785" lon="6.73795">
        <ele>466.6</ele>
        <time>2022-06-26T06:08:58Z</time>
      </trkpt>
      <trkpt lat="47.99784" lon="6.73798">
        <ele>466.6</ele>
        <time>2022-06-26T06:08:59Z</time>
      </trkpt>
      <trkpt lat="47.99784" lon="6.73801">
        <ele>466.8</ele>
        <time>2022-06-26T06:09:00Z</time>
      </trkpt>
      <trkpt lat="47.99785" lon="6.73803">
        <ele>466.8</ele>
        <time>2022-06-26T06:09:01Z</time>
      </trkpt>
      <trkpt lat="47.99785" lon="6.73805">
        <ele>467</ele>
        <time>2022-06-26T06:09:02Z</time>
      </trkpt>
      <trkpt lat="47.99786" lon="6.73808">
        <ele>467</ele>
        <time>2022-06-26T06:09:03Z</time>
      </trkpt>
      <trkpt lat="47.99786" lon="6.73811">
        <ele>467.2</ele>
        <time>2022-06-26T06:09:04Z</time>
      </trkpt>
      <trkpt lat="47.99785" lon="6.73814">
        <ele>467.2</ele>
        <time>2022-06-26T06:09:05Z</time>
      </trkpt>
      <trkpt lat="47.99785" lon="6.73816">
        <ele>467.2</ele>
        <time>2022-06-26T06:09:06Z</time>
      </trkpt>
      <trkpt lat="47.99785" lon="6.73819">
        <ele>467.4</ele>
        <time>2022-06-26T06:09:07Z</time>
      </trkpt>
      <trkpt lat="47.99784" lon="6.73821">
        <ele>467.4</ele>
        <time>2022-06-26T06:09:08Z</time>
      </trkpt>
      <trkpt lat="47.99784" lon="6.73823">
        <ele>467.6</ele>
        <time>2022-06-26T06:09:09Z</time>
      </trkpt>
      <trkpt lat="47.99786" lon="6.73828">
        <ele>467.8</ele>
        <time>2022-06-26T06:09:10Z</time>
      </trkpt>
      <trkpt lat="47.99787" lon="6.73838">
        <ele>468.4</ele>
        <time>2022-06-26T06:09:12Z</time>
      </trkpt>
      <trkpt lat="47.99787" lon="6.73847">
        <ele>468.4</ele>
        <time>2022-06-26T06:09:14Z</time>
      </trkpt>
      <trkpt lat="47.99787" lon="6.73852">
        <ele>468.4</ele>
        <time>2022-06-26T06:09:15Z</time>
      </trkpt>
      <trkpt lat="47.99787" lon="6.73856">
        <ele>468.6</ele>
        <time>2022-06-26T06:09:16Z</time>
      </trkpt>
      <trkpt lat="47.99788" lon="6.73861">
        <ele>468.6</ele>
        <time>2022-06-26T06:09:17Z</time>
      </trkpt>
      <trkpt lat="47.99788" lon="6.73862">
        <ele>468.6</ele>
        <time>2022-06-26T06:09:18Z</time>
      </trkpt>
      <trkpt lat="47.99787" lon="6.73863">
        <ele>468.6</ele>
        <time>2022-06-26T06:09:19Z</time>
      </trkpt>
      <trkpt lat="47.99788" lon="6.73865">
        <ele>468.8</ele>
        <time>2022-06-26T06:09:20Z</time>
      </trkpt>
      <trkpt lat="47.99789" lon="6.73871">
        <ele>468.8</ele>
        <time>2022-06-26T06:09:22Z</time>
      </trkpt>
      <trkpt lat="47.99789" lon="6.73873">
        <ele>468.8</ele>
        <time>2022-06-26T06:09:23Z</time>
      </trkpt>
      <trkpt lat="47.99788" lon="6.73877">
        <ele>468.8</ele>
        <time>2022-06-26T06:09:24Z</time>
      </trkpt>
      <trkpt lat="47.99786" lon="6.7388">
        <ele>469</ele>
        <time>2022-06-26T06:09:25Z</time>
      </trkpt>
      <trkpt lat="47.99786" lon="6.73882">
        <ele>469</ele>
        <time>2022-06-26T06:09:26Z</time>
      </trkpt>
      <trkpt lat="47.99787" lon="6.73884">
        <ele>469.2</ele>
        <time>2022-06-26T06:09:27Z</time>
      </trkpt>
      <trkpt lat="47.99787" lon="6.73886">
        <ele>469.2</ele>
        <time>2022-06-26T06:09:28Z</time>
      </trkpt>
      <trkpt lat="47.99787" lon="6.73889">
        <ele>469.4</ele>
        <time>2022-06-26T06:09:29Z</time>
      </trkpt>
      <trkpt lat="47.99787" lon="6.73892">
        <ele>469.4</ele>
        <time>2022-06-26T06:09:30Z</time>
      </trkpt>
      <trkpt lat="47.99787" lon="6.73895">
        <ele>469.6</ele>
        <time>2022-06-26T06:09:31Z</time>
      </trkpt>
      <trkpt lat="47.99786" lon="6.73897">
        <ele>469.6</ele>
        <time>2022-06-26T06:09:32Z</time>
      </trkpt>
      <trkpt lat="47.99786" lon="6.73898">
        <ele>469.8</ele>
        <time>2022-06-26T06:09:33Z</time>
      </trkpt>
      <trkpt lat="47.99786" lon="6.73899">
        <ele>470.2</ele>
        <time>2022-06-26T06:09:34Z</time>
      </trkpt>
      <trkpt lat="47.99786" lon="6.739">
        <ele>470.2</ele>
        <time>2022-06-26T06:09:35Z</time>
      </trkpt>
      <trkpt lat="47.99787" lon="6.73902">
        <ele>470.6</ele>
        <time>2022-06-26T06:09:36Z</time>
      </trkpt>
      <trkpt lat="47.99788" lon="6.73904">
        <ele>471.2</ele>
        <time>2022-06-26T06:09:37Z</time>
      </trkpt>
      <trkpt lat="47.99788" lon="6.73906">
        <ele>471.4</ele>
        <time>2022-06-26T06:09:38Z</time>
      </trkpt>
      <trkpt lat="47.99788" lon="6.73909">
        <ele>471.8</ele>
        <time>2022-06-26T06:09:39Z</time>
      </trkpt>
      <trkpt lat="47.99788" lon="6.73912">
        <ele>472</ele>
        <time>2022-06-26T06:09:40Z</time>
      </trkpt>
      <trkpt lat="47.99789" lon="6.73915">
        <ele>472.2</ele>
        <time>2022-06-26T06:09:41Z</time>
      </trkpt>
      <trkpt lat="47.99791" lon="6.73918">
        <ele>472.2</ele>
        <time>2022-06-26T06:09:42Z</time>
      </trkpt>
      <trkpt lat="47.99792" lon="6.73922">
        <ele>472.4</ele>
        <time>2022-06-26T06:09:43Z</time>
      </trkpt>
      <trkpt lat="47.99793" lon="6.73926">
        <ele>472.4</ele>
        <time>2022-06-26T06:09:44Z</time>
      </trkpt>
      <trkpt lat="47.99794" lon="6.73929">
        <ele>472.6</ele>
        <time>2022-06-26T06:09:45Z</time>
      </trkpt>
      <trkpt lat="47.99796" lon="6.73931">
        <ele>472.6</ele>
        <time>2022-06-26T06:09:46Z</time>
      </trkpt>
      <trkpt lat="47.99797" lon="6.73934">
        <ele>472.6</ele>
        <time>2022-06-26T06:09:47Z</time>
      </trkpt>
      <trkpt lat="47.99798" lon="6.73936">
        <ele>472.6</ele>
        <time>2022-06-26T06:09:48Z</time>
      </trkpt>
      <trkpt lat="47.99799" lon="6.7394">
        <ele>472.6</ele>
        <time>2022-06-26T06:09:49Z</time>
      </trkpt>
      <trkpt lat="47.998" lon="6.73943">
        <ele>472.4</ele>
        <time>2022-06-26T06:09:50Z</time>
      </trkpt>
      <trkpt lat="47.99802" lon="6.73947">
        <ele>472.6</ele>
        <time>2022-06-26T06:09:51Z</time>
      </trkpt>
      <trkpt lat="47.99803" lon="6.73952">
        <ele>472.6</ele>
        <time>2022-06-26T06:09:52Z</time>
      </trkpt>
      <trkpt lat="47.99804" lon="6.73956">
        <ele>472.6</ele>
        <time>2022-06-26T06:09:53Z</time>
      </trkpt>
      <trkpt lat="47.99804" lon="6.7396">
        <ele>472.6</ele>
        <time>2022-06-26T06:09:54Z</time>
      </trkpt>
      <trkpt lat="47.99805" lon="6.73964">
        <ele>472.8</ele>
        <time>2022-06-26T06:09:55Z</time>
      </trkpt>
      <trkpt lat="47.99806" lon="6.73968">
        <ele>472.8</ele>
        <time>2022-06-26T06:09:56Z</time>
      </trkpt>
      <trkpt lat="47.99807" lon="6.73973">
        <ele>473</ele>
        <time>2022-06-26T06:09:57Z</time>
      </trkpt>
      <trkpt lat="47.99809" lon="6.73977">
        <ele>473.2</ele>
        <time>2022-06-26T06:09:58Z</time>
      </trkpt>
      <trkpt lat="47.99813" lon="6.73981">
        <ele>473.2</ele>
        <time>2022-06-26T06:09:59Z</time>
      </trkpt>
      <trkpt lat="47.99817" lon="6.73984">
        <ele>473.2</ele>
        <time>2022-06-26T06:10:00Z</time>
      </trkpt>
      <trkpt lat="47.99819" lon="6.73986">
        <ele>473.2</ele>
        <time>2022-06-26T06:10:01Z</time>
      </trkpt>
      <trkpt lat="47.99821" lon="6.73988">
        <ele>473.2</ele>
        <time>2022-06-26T06:10:02Z</time>
      </trkpt>
      <trkpt lat="47.99822" lon="6.7399">
        <ele>473.2</ele>
        <time>2022-06-26T06:10:03Z</time>
      </trkpt>
      <trkpt lat="47.99823" lon="6.73992">
        <ele>473.2</ele>
        <time>2022-06-26T06:10:04Z</time>
      </trkpt>
      <trkpt lat="47.99825" lon="6.73994">
        <ele>473.2</ele>
        <time>2022-06-26T06:10:05Z</time>
      </trkpt>
      <trkpt lat="47.99827" lon="6.73995">
        <ele>473.4</ele>
        <time>2022-06-26T06:10:06Z</time>
      </trkpt>
      <trkpt lat="47.99832" lon="6.73999">
        <ele>473.6</ele>
        <time>2022-06-26T06:10:08Z</time>
      </trkpt>
      <trkpt lat="47.99834" lon="6.74">
        <ele>473.8</ele>
        <time>2022-06-26T06:10:09Z</time>
      </trkpt>
      <trkpt lat="47.99837" lon="6.74001">
        <ele>474</ele>
        <time>2022-06-26T06:10:10Z</time>
      </trkpt>
      <trkpt lat="47.99843" lon="6.74004">
        <ele>474.2</ele>
        <time>2022-06-26T06:10:13Z</time>
      </trkpt>
      <trkpt lat="47.9986" lon="6.74013">
        <ele>474.6</ele>
        <time>2022-06-26T06:10:20Z</time>
      </trkpt>
      <trkpt lat="47.99862" lon="6.74014">
        <ele>474.6</ele>
        <time>2022-06-26T06:10:21Z</time>
      </trkpt>
      <trkpt lat="47.9987" lon="6.74016">
        <ele>474.8</ele>
        <time>2022-06-26T06:10:25Z</time>
      </trkpt>
      <trkpt lat="47.99874" lon="6.74016">
        <ele>475</ele>
        <time>2022-06-26T06:10:27Z</time>
      </trkpt>
      <trkpt lat="47.99876" lon="6.74015">
        <ele>475</ele>
        <time>2022-06-26T06:10:28Z</time>
      </trkpt>
      <trkpt lat="47.99878" lon="6.74014">
        <ele>475.2</ele>
        <time>2022-06-26T06:10:29Z</time>
      </trkpt>
      <trkpt lat="47.99889" lon="6.7401">
        <ele>475.4</ele>
        <time>2022-06-26T06:10:33Z</time>
      </trkpt>
      <trkpt lat="47.99892" lon="6.7401">
        <ele>475.6</ele>
        <time>2022-06-26T06:10:34Z</time>
      </trkpt>
      <trkpt lat="47.99906" lon="6.74019">
        <ele>475.8</ele>
        <time>2022-06-26T06:10:40Z</time>
      </trkpt>
      <trkpt lat="47.99908" lon="6.74022">
        <ele>475.8</ele>
        <time>2022-06-26T06:10:41Z</time>
      </trkpt>
      <trkpt lat="47.9991" lon="6.74026">
        <ele>475.8</ele>
        <time>2022-06-26T06:10:42Z</time>
      </trkpt>
      <trkpt lat="47.99912" lon="6.7403">
        <ele>475.8</ele>
        <time>2022-06-26T06:10:43Z</time>
      </trkpt>
      <trkpt lat="47.99922" lon="6.74042">
        <ele>475.6</ele>
        <time>2022-06-26T06:10:47Z</time>
      </trkpt>
      <trkpt lat="47.99932" lon="6.74045">
        <ele>475.4</ele>
        <time>2022-06-26T06:10:50Z</time>
      </trkpt>
      <trkpt lat="47.99937" lon="6.74045">
        <ele>475.2</ele>
        <time>2022-06-26T06:10:51Z</time>
      </trkpt>
      <trkpt lat="47.99941" lon="6.74045">
        <ele>475</ele>
        <time>2022-06-26T06:10:52Z</time>
      </trkpt>
      <trkpt lat="47.99949" lon="6.74049">
        <ele>475</ele>
        <time>2022-06-26T06:10:54Z</time>
      </trkpt>
      <trkpt lat="47.99952" lon="6.74052">
        <ele>474.8</ele>
        <time>2022-06-26T06:10:55Z</time>
      </trkpt>
      <trkpt lat="47.99955" lon="6.74056">
        <ele>474.8</ele>
        <time>2022-06-26T06:10:56Z</time>
      </trkpt>
      <trkpt lat="47.99958" lon="6.7406">
        <ele>474.6</ele>
        <time>2022-06-26T06:10:57Z</time>
      </trkpt>
      <trkpt lat="47.99961" lon="6.74063">
        <ele>474.6</ele>
        <time>2022-06-26T06:10:58Z</time>
      </trkpt>
      <trkpt lat="47.99964" lon="6.74067">
        <ele>474.6</ele>
        <time>2022-06-26T06:10:59Z</time>
      </trkpt>
      <trkpt lat="47.99967" lon="6.74071">
        <ele>474.4</ele>
        <time>2022-06-26T06:11:00Z</time>
      </trkpt>
      <trkpt lat="47.99975" lon="6.74082">
        <ele>473.8</ele>
        <time>2022-06-26T06:11:03Z</time>
      </trkpt>
      <trkpt lat="47.99977" lon="6.74087">
        <ele>473.8</ele>
        <time>2022-06-26T06:11:04Z</time>
      </trkpt>
      <trkpt lat="47.9998" lon="6.74091">
        <ele>473.6</ele>
        <time>2022-06-26T06:11:05Z</time>
      </trkpt>
      <trkpt lat="47.99982" lon="6.74096">
        <ele>473.4</ele>
        <time>2022-06-26T06:11:06Z</time>
      </trkpt>
      <trkpt lat="47.99987" lon="6.74106">
        <ele>473.4</ele>
        <time>2022-06-26T06:11:08Z</time>
      </trkpt>
      <trkpt lat="47.9999" lon="6.74116">
        <ele>473.2</ele>
        <time>2022-06-26T06:11:10Z</time>
      </trkpt>
      <trkpt lat="48.00001" lon="6.74142">
        <ele>472.6</ele>
        <time>2022-06-26T06:11:16Z</time>
      </trkpt>
      <trkpt lat="48.00004" lon="6.74144">
        <ele>472.6</ele>
        <time>2022-06-26T06:11:17Z</time>
      </trkpt>
      <trkpt lat="48.00008" lon="6.74145">
        <ele>472.6</ele>
        <time>2022-06-26T06:11:18Z</time>
      </trkpt>
      <trkpt lat="48.00011" lon="6.74145">
        <ele>472.6</ele>
        <time>2022-06-26T06:11:19Z</time>
      </trkpt>
      <trkpt lat="48.00015" lon="6.74145">
        <ele>472.4</ele>
        <time>2022-06-26T06:11:20Z</time>
      </trkpt>
      <trkpt lat="48.00019" lon="6.74143">
        <ele>472.2</ele>
        <time>2022-06-26T06:11:21Z</time>
      </trkpt>
      <trkpt lat="48.00023" lon="6.74142">
        <ele>472.2</ele>
        <time>2022-06-26T06:11:22Z</time>
      </trkpt>
      <trkpt lat="48.00027" lon="6.7414">
        <ele>472.2</ele>
        <time>2022-06-26T06:11:23Z</time>
      </trkpt>
      <trkpt lat="48.0003" lon="6.74139">
        <ele>472</ele>
        <time>2022-06-26T06:11:24Z</time>
      </trkpt>
      <trkpt lat="48.00032" lon="6.7414">
        <ele>471.4</ele>
        <time>2022-06-26T06:11:25Z</time>
      </trkpt>
      <trkpt lat="48.00034" lon="6.74141">
        <ele>471</ele>
        <time>2022-06-26T06:11:26Z</time>
      </trkpt>
      <trkpt lat="48.00035" lon="6.74145">
        <ele>470.4</ele>
        <time>2022-06-26T06:11:27Z</time>
      </trkpt>
      <trkpt lat="48.00036" lon="6.74148">
        <ele>470.2</ele>
        <time>2022-06-26T06:11:28Z</time>
      </trkpt>
      <trkpt lat="48.00036" lon="6.74151">
        <ele>469.4</ele>
        <time>2022-06-26T06:11:29Z</time>
      </trkpt>
      <trkpt lat="48.00035" lon="6.74162">
        <ele>469</ele>
        <time>2022-06-26T06:11:32Z</time>
      </trkpt>
      <trkpt lat="48.00035" lon="6.74164">
        <ele>469</ele>
        <time>2022-06-26T06:11:33Z</time>
      </trkpt>
      <trkpt lat="48.00036" lon="6.74167">
        <ele>469</ele>
        <time>2022-06-26T06:11:34Z</time>
      </trkpt>
      <trkpt lat="48.00036" lon="6.74169">
        <ele>469</ele>
        <time>2022-06-26T06:11:35Z</time>
      </trkpt>
      <trkpt lat="48.00036" lon="6.74172">
        <ele>469</ele>
        <time>2022-06-26T06:11:36Z</time>
      </trkpt>
      <trkpt lat="48.00036" lon="6.74174">
        <ele>469</ele>
        <time>2022-06-26T06:11:37Z</time>
      </trkpt>
      <trkpt lat="48.00036" lon="6.74177">
        <ele>469</ele>
        <time>2022-06-26T06:11:38Z</time>
      </trkpt>
      <trkpt lat="48.00036" lon="6.74179">
        <ele>469.4</ele>
        <time>2022-06-26T06:11:39Z</time>
      </trkpt>
      <trkpt lat="48.00036" lon="6.74181">
        <ele>469.6</ele>
        <time>2022-06-26T06:11:40Z</time>
      </trkpt>
      <trkpt lat="48.00037" lon="6.74184">
        <ele>469.8</ele>
        <time>2022-06-26T06:11:41Z</time>
      </trkpt>
      <trkpt lat="48.00036" lon="6.74187">
        <ele>470</ele>
        <time>2022-06-26T06:11:42Z</time>
      </trkpt>
      <trkpt lat="48.00035" lon="6.74189">
        <ele>470.4</ele>
        <time>2022-06-26T06:11:43Z</time>
      </trkpt>
      <trkpt lat="48.00035" lon="6.74192">
        <ele>470.6</ele>
        <time>2022-06-26T06:11:44Z</time>
      </trkpt>
      <trkpt lat="48.00035" lon="6.74195">
        <ele>470.8</ele>
        <time>2022-06-26T06:11:45Z</time>
      </trkpt>
      <trkpt lat="48.00034" lon="6.74197">
        <ele>470.8</ele>
        <time>2022-06-26T06:11:46Z</time>
      </trkpt>
      <trkpt lat="48.00032" lon="6.74205">
        <ele>471.6</ele>
        <time>2022-06-26T06:11:49Z</time>
      </trkpt>
      <trkpt lat="48.00029" lon="6.74214">
        <ele>472.6</ele>
        <time>2022-06-26T06:11:53Z</time>
      </trkpt>
      <trkpt lat="48.00028" lon="6.74223">
        <ele>473.6</ele>
        <time>2022-06-26T06:11:57Z</time>
      </trkpt>
      <trkpt lat="48.00028" lon="6.74226">
        <ele>473.8</ele>
        <time>2022-06-26T06:11:58Z</time>
      </trkpt>
      <trkpt lat="48.00028" lon="6.74229">
        <ele>474</ele>
        <time>2022-06-26T06:11:59Z</time>
      </trkpt>
      <trkpt lat="48.00028" lon="6.74231">
        <ele>474.2</ele>
        <time>2022-06-26T06:12:00Z</time>
      </trkpt>
      <trkpt lat="48.00027" lon="6.74234">
        <ele>474.4</ele>
        <time>2022-06-26T06:12:01Z</time>
      </trkpt>
      <trkpt lat="48.00027" lon="6.74237">
        <ele>474.6</ele>
        <time>2022-06-26T06:12:02Z</time>
      </trkpt>
      <trkpt lat="48.00026" lon="6.74239">
        <ele>474.8</ele>
        <time>2022-06-26T06:12:03Z</time>
      </trkpt>
      <trkpt lat="48.00026" lon="6.74241">
        <ele>474.8</ele>
        <time>2022-06-26T06:12:04Z</time>
      </trkpt>
      <trkpt lat="48.00025" lon="6.74243">
        <ele>475.2</ele>
        <time>2022-06-26T06:12:05Z</time>
      </trkpt>
      <trkpt lat="48.00025" lon="6.74245">
        <ele>475.4</ele>
        <time>2022-06-26T06:12:06Z</time>
      </trkpt>
      <trkpt lat="48.00025" lon="6.74247">
        <ele>475.4</ele>
        <time>2022-06-26T06:12:07Z</time>
      </trkpt>
      <trkpt lat="48.00024" lon="6.74249">
        <ele>475.8</ele>
        <time>2022-06-26T06:12:08Z</time>
      </trkpt>
      <trkpt lat="48.00024" lon="6.74251">
        <ele>475.8</ele>
        <time>2022-06-26T06:12:09Z</time>
      </trkpt>
      <trkpt lat="48.00023" lon="6.74253">
        <ele>476</ele>
        <time>2022-06-26T06:12:10Z</time>
      </trkpt>
      <trkpt lat="48.00023" lon="6.74256">
        <ele>476</ele>
        <time>2022-06-26T06:12:11Z</time>
      </trkpt>
      <trkpt lat="48.00023" lon="6.74258">
        <ele>476.2</ele>
        <time>2022-06-26T06:12:12Z</time>
      </trkpt>
      <trkpt lat="48.00021" lon="6.74262">
        <ele>476.4</ele>
        <time>2022-06-26T06:12:13Z</time>
      </trkpt>
      <trkpt lat="48.00021" lon="6.74266">
        <ele>476.8</ele>
        <time>2022-06-26T06:12:14Z</time>
      </trkpt>
      <trkpt lat="48.0002" lon="6.74268">
        <ele>476.8</ele>
        <time>2022-06-26T06:12:15Z</time>
      </trkpt>
      <trkpt lat="48.0002" lon="6.7427">
        <ele>477</ele>
        <time>2022-06-26T06:12:16Z</time>
      </trkpt>
      <trkpt lat="48.00019" lon="6.74272">
        <ele>477.4</ele>
        <time>2022-06-26T06:12:17Z</time>
      </trkpt>
      <trkpt lat="48.00019" lon="6.74275">
        <ele>477.6</ele>
        <time>2022-06-26T06:12:18Z</time>
      </trkpt>
      <trkpt lat="48.00019" lon="6.74277">
        <ele>477.8</ele>
        <time>2022-06-26T06:12:19Z</time>
      </trkpt>
      <trkpt lat="48.00019" lon="6.74279">
        <ele>477.8</ele>
        <time>2022-06-26T06:12:20Z</time>
      </trkpt>
      <trkpt lat="48.00019" lon="6.74282">
        <ele>478.2</ele>
        <time>2022-06-26T06:12:21Z</time>
      </trkpt>
      <trkpt lat="48.00018" lon="6.74284">
        <ele>478.4</ele>
        <time>2022-06-26T06:12:22Z</time>
      </trkpt>
      <trkpt lat="48.00018" lon="6.74286">
        <ele>478.4</ele>
        <time>2022-06-26T06:12:23Z</time>
      </trkpt>
      <trkpt lat="48.00017" lon="6.74288">
        <ele>478.6</ele>
        <time>2022-06-26T06:12:24Z</time>
      </trkpt>
      <trkpt lat="48.00016" lon="6.74291">
        <ele>478.6</ele>
        <time>2022-06-26T06:12:25Z</time>
      </trkpt>
      <trkpt lat="48.00015" lon="6.74293">
        <ele>479</ele>
        <time>2022-06-26T06:12:26Z</time>
      </trkpt>
      <trkpt lat="48.00014" lon="6.74295">
        <ele>479</ele>
        <time>2022-06-26T06:12:27Z</time>
      </trkpt>
      <trkpt lat="48.00013" lon="6.74298">
        <ele>479.4</ele>
        <time>2022-06-26T06:12:28Z</time>
      </trkpt>
      <trkpt lat="48.00013" lon="6.74302">
        <ele>479.4</ele>
        <time>2022-06-26T06:12:29Z</time>
      </trkpt>
      <trkpt lat="48.00012" lon="6.74305">
        <ele>480</ele>
        <time>2022-06-26T06:12:30Z</time>
      </trkpt>
      <trkpt lat="48.00012" lon="6.74309">
        <ele>480.2</ele>
        <time>2022-06-26T06:12:31Z</time>
      </trkpt>
      <trkpt lat="48.00012" lon="6.74313">
        <ele>480.4</ele>
        <time>2022-06-26T06:12:32Z</time>
      </trkpt>
      <trkpt lat="48.00012" lon="6.74317">
        <ele>480.6</ele>
        <time>2022-06-26T06:12:33Z</time>
      </trkpt>
      <trkpt lat="48.00011" lon="6.74321">
        <ele>480.8</ele>
        <time>2022-06-26T06:12:34Z</time>
      </trkpt>
      <trkpt lat="48.00009" lon="6.74324">
        <ele>481</ele>
        <time>2022-06-26T06:12:35Z</time>
      </trkpt>
      <trkpt lat="48.00008" lon="6.74327">
        <ele>481</ele>
        <time>2022-06-26T06:12:36Z</time>
      </trkpt>
      <trkpt lat="48.00007" lon="6.74329">
        <ele>481.2</ele>
        <time>2022-06-26T06:12:37Z</time>
      </trkpt>
      <trkpt lat="48.00009" lon="6.7433">
        <ele>481.4</ele>
        <time>2022-06-26T06:12:38Z</time>
      </trkpt>
      <trkpt lat="48.0001" lon="6.74333">
        <ele>481.6</ele>
        <time>2022-06-26T06:12:39Z</time>
      </trkpt>
      <trkpt lat="48.0001" lon="6.74335">
        <ele>481.8</ele>
        <time>2022-06-26T06:12:40Z</time>
      </trkpt>
      <trkpt lat="48.00012" lon="6.74338">
        <ele>482</ele>
        <time>2022-06-26T06:12:41Z</time>
      </trkpt>
      <trkpt lat="48.00012" lon="6.74341">
        <ele>482</ele>
        <time>2022-06-26T06:12:42Z</time>
      </trkpt>
      <trkpt lat="48.00012" lon="6.74344">
        <ele>482.2</ele>
        <time>2022-06-26T06:12:43Z</time>
      </trkpt>
      <trkpt lat="48.00012" lon="6.74347">
        <ele>482.4</ele>
        <time>2022-06-26T06:12:44Z</time>
      </trkpt>
      <trkpt lat="48.00012" lon="6.7435">
        <ele>482.6</ele>
        <time>2022-06-26T06:12:45Z</time>
      </trkpt>
      <trkpt lat="48.00013" lon="6.74354">
        <ele>482.8</ele>
        <time>2022-06-26T06:12:46Z</time>
      </trkpt>
      <trkpt lat="48.00013" lon="6.74357">
        <ele>483</ele>
        <time>2022-06-26T06:12:47Z</time>
      </trkpt>
      <trkpt lat="48.00013" lon="6.7436">
        <ele>483</ele>
        <time>2022-06-26T06:12:48Z</time>
      </trkpt>
      <trkpt lat="48.00014" lon="6.74363">
        <ele>483.2</ele>
        <time>2022-06-26T06:12:49Z</time>
      </trkpt>
      <trkpt lat="48.00016" lon="6.74367">
        <ele>483.2</ele>
        <time>2022-06-26T06:12:50Z</time>
      </trkpt>
      <trkpt lat="48.00017" lon="6.7437">
        <ele>483.2</ele>
        <time>2022-06-26T06:12:51Z</time>
      </trkpt>
      <trkpt lat="48.00017" lon="6.74374">
        <ele>483.2</ele>
        <time>2022-06-26T06:12:52Z</time>
      </trkpt>
      <trkpt lat="48.00019" lon="6.74379">
        <ele>483.2</ele>
        <time>2022-06-26T06:12:53Z</time>
      </trkpt>
      <trkpt lat="48.0002" lon="6.74382">
        <ele>483.2</ele>
        <time>2022-06-26T06:12:54Z</time>
      </trkpt>
      <trkpt lat="48.0002" lon="6.74385">
        <ele>483.2</ele>
        <time>2022-06-26T06:12:55Z</time>
      </trkpt>
      <trkpt lat="48.0002" lon="6.74389">
        <ele>483.2</ele>
        <time>2022-06-26T06:12:56Z</time>
      </trkpt>
      <trkpt lat="48.0002" lon="6.74396">
        <ele>483.2</ele>
        <time>2022-06-26T06:12:57Z</time>
      </trkpt>
      <trkpt lat="48.0002" lon="6.744">
        <ele>482.8</ele>
        <time>2022-06-26T06:12:58Z</time>
      </trkpt>
      <trkpt lat="48.00021" lon="6.74404">
        <ele>483</ele>
        <time>2022-06-26T06:12:59Z</time>
      </trkpt>
      <trkpt lat="48.00022" lon="6.74409">
        <ele>483</ele>
        <time>2022-06-26T06:13:00Z</time>
      </trkpt>
      <trkpt lat="48.00022" lon="6.74416">
        <ele>482.8</ele>
        <time>2022-06-26T06:13:01Z</time>
      </trkpt>
      <trkpt lat="48.00022" lon="6.74424">
        <ele>482.8</ele>
        <time>2022-06-26T06:13:02Z</time>
      </trkpt>
      <trkpt lat="48.00023" lon="6.7443">
        <ele>482.8</ele>
        <time>2022-06-26T06:13:03Z</time>
      </trkpt>
      <trkpt lat="48.00025" lon="6.74435">
        <ele>482.8</ele>
        <time>2022-06-26T06:13:04Z</time>
      </trkpt>
      <trkpt lat="48.00029" lon="6.74442">
        <ele>482.8</ele>
        <time>2022-06-26T06:13:06Z</time>
      </trkpt>
      <trkpt lat="48.00032" lon="6.74446">
        <ele>483</ele>
        <time>2022-06-26T06:13:07Z</time>
      </trkpt>
      <trkpt lat="48.00032" lon="6.74451">
        <ele>483</ele>
        <time>2022-06-26T06:13:08Z</time>
      </trkpt>
      <trkpt lat="48.00035" lon="6.74455">
        <ele>482.8</ele>
        <time>2022-06-26T06:13:09Z</time>
      </trkpt>
      <trkpt lat="48.00037" lon="6.74462">
        <ele>483</ele>
        <time>2022-06-26T06:13:11Z</time>
      </trkpt>
      <trkpt lat="48.00039" lon="6.74466">
        <ele>483</ele>
        <time>2022-06-26T06:13:12Z</time>
      </trkpt>
      <trkpt lat="48.0004" lon="6.7447">
        <ele>483.2</ele>
        <time>2022-06-26T06:13:13Z</time>
      </trkpt>
      <trkpt lat="48.00039" lon="6.74475">
        <ele>483.4</ele>
        <time>2022-06-26T06:13:14Z</time>
      </trkpt>
      <trkpt lat="48.00036" lon="6.74482">
        <ele>483.6</ele>
        <time>2022-06-26T06:13:15Z</time>
      </trkpt>
      <trkpt lat="48.00029" lon="6.74496">
        <ele>483.8</ele>
        <time>2022-06-26T06:13:17Z</time>
      </trkpt>
      <trkpt lat="48.00038" lon="6.74505">
        <ele>484.2</ele>
        <time>2022-06-26T06:13:20Z</time>
      </trkpt>
      <trkpt lat="48.00038" lon="6.74508">
        <ele>484.2</ele>
        <time>2022-06-26T06:13:21Z</time>
      </trkpt>
      <trkpt lat="48.00037" lon="6.74512">
        <ele>484.2</ele>
        <time>2022-06-26T06:13:22Z</time>
      </trkpt>
      <trkpt lat="48.00036" lon="6.74519">
        <ele>484.4</ele>
        <time>2022-06-26T06:13:23Z</time>
      </trkpt>
      <trkpt lat="48.00037" lon="6.74524">
        <ele>484.4</ele>
        <time>2022-06-26T06:13:24Z</time>
      </trkpt>
      <trkpt lat="48.00038" lon="6.74531">
        <ele>484.4</ele>
        <time>2022-06-26T06:13:25Z</time>
      </trkpt>
      <trkpt lat="48.00038" lon="6.74534">
        <ele>484.6</ele>
        <time>2022-06-26T06:13:26Z</time>
      </trkpt>
      <trkpt lat="48.00038" lon="6.74536">
        <ele>484.6</ele>
        <time>2022-06-26T06:13:27Z</time>
      </trkpt>
      <trkpt lat="48.00038" lon="6.74538">
        <ele>484.6</ele>
        <time>2022-06-26T06:13:28Z</time>
      </trkpt>
      <trkpt lat="48.00037" lon="6.74542">
        <ele>484.6</ele>
        <time>2022-06-26T06:13:29Z</time>
      </trkpt>
      <trkpt lat="48.00036" lon="6.74546">
        <ele>484.8</ele>
        <time>2022-06-26T06:13:30Z</time>
      </trkpt>
      <trkpt lat="48.00037" lon="6.74551">
        <ele>484.8</ele>
        <time>2022-06-26T06:13:31Z</time>
      </trkpt>
      <trkpt lat="48.00037" lon="6.74554">
        <ele>485.2</ele>
        <time>2022-06-26T06:13:32Z</time>
      </trkpt>
      <trkpt lat="48.00039" lon="6.74556">
        <ele>485.4</ele>
        <time>2022-06-26T06:13:33Z</time>
      </trkpt>
      <trkpt lat="48.00039" lon="6.74559">
        <ele>485.6</ele>
        <time>2022-06-26T06:13:34Z</time>
      </trkpt>
      <trkpt lat="48.00038" lon="6.74562">
        <ele>485.6</ele>
        <time>2022-06-26T06:13:35Z</time>
      </trkpt>
      <trkpt lat="48.00039" lon="6.74566">
        <ele>486</ele>
        <time>2022-06-26T06:13:36Z</time>
      </trkpt>
      <trkpt lat="48.0004" lon="6.74569">
        <ele>486</ele>
        <time>2022-06-26T06:13:37Z</time>
      </trkpt>
      <trkpt lat="48.00041" lon="6.74571">
        <ele>486.4</ele>
        <time>2022-06-26T06:13:38Z</time>
      </trkpt>
      <trkpt lat="48.00042" lon="6.74573">
        <ele>486.4</ele>
        <time>2022-06-26T06:13:39Z</time>
      </trkpt>
      <trkpt lat="48.00043" lon="6.74575">
        <ele>486.6</ele>
        <time>2022-06-26T06:13:40Z</time>
      </trkpt>
      <trkpt lat="48.00045" lon="6.74578">
        <ele>486.8</ele>
        <time>2022-06-26T06:13:41Z</time>
      </trkpt>
      <trkpt lat="48.00047" lon="6.74581">
        <ele>487</ele>
        <time>2022-06-26T06:13:42Z</time>
      </trkpt>
      <trkpt lat="48.00049" lon="6.74584">
        <ele>487.2</ele>
        <time>2022-06-26T06:13:43Z</time>
      </trkpt>
      <trkpt lat="48.0005" lon="6.74587">
        <ele>487.4</ele>
        <time>2022-06-26T06:13:44Z</time>
      </trkpt>
      <trkpt lat="48.0005" lon="6.74591">
        <ele>487.6</ele>
        <time>2022-06-26T06:13:45Z</time>
      </trkpt>
      <trkpt lat="48.00052" lon="6.74595">
        <ele>487.6</ele>
        <time>2022-06-26T06:13:46Z</time>
      </trkpt>
      <trkpt lat="48.00053" lon="6.74598">
        <ele>487.8</ele>
        <time>2022-06-26T06:13:47Z</time>
      </trkpt>
      <trkpt lat="48.00053" lon="6.74601">
        <ele>487.8</ele>
        <time>2022-06-26T06:13:48Z</time>
      </trkpt>
      <trkpt lat="48.00054" lon="6.74604">
        <ele>488</ele>
        <time>2022-06-26T06:13:49Z</time>
      </trkpt>
      <trkpt lat="48.00056" lon="6.74608">
        <ele>488</ele>
        <time>2022-06-26T06:13:50Z</time>
      </trkpt>
      <trkpt lat="48.00056" lon="6.74612">
        <ele>488</ele>
        <time>2022-06-26T06:13:51Z</time>
      </trkpt>
      <trkpt lat="48.00056" lon="6.74617">
        <ele>488</ele>
        <time>2022-06-26T06:13:52Z</time>
      </trkpt>
      <trkpt lat="48.00056" lon="6.74623">
        <ele>488</ele>
        <time>2022-06-26T06:13:53Z</time>
      </trkpt>
      <trkpt lat="48.00055" lon="6.74628">
        <ele>488.2</ele>
        <time>2022-06-26T06:13:54Z</time>
      </trkpt>
      <trkpt lat="48.00055" lon="6.74632">
        <ele>488.2</ele>
        <time>2022-06-26T06:13:55Z</time>
      </trkpt>
      <trkpt lat="48.00055" lon="6.74637">
        <ele>488.4</ele>
        <time>2022-06-26T06:13:56Z</time>
      </trkpt>
      <trkpt lat="48.00055" lon="6.74641">
        <ele>488.4</ele>
        <time>2022-06-26T06:13:57Z</time>
      </trkpt>
      <trkpt lat="48.00055" lon="6.74646">
        <ele>488.4</ele>
        <time>2022-06-26T06:13:58Z</time>
      </trkpt>
      <trkpt lat="48.00056" lon="6.7465">
        <ele>488.6</ele>
        <time>2022-06-26T06:13:59Z</time>
      </trkpt>
      <trkpt lat="48.00056" lon="6.74655">
        <ele>488.6</ele>
        <time>2022-06-26T06:14:00Z</time>
      </trkpt>
      <trkpt lat="48.00057" lon="6.7466">
        <ele>488.6</ele>
        <time>2022-06-26T06:14:01Z</time>
      </trkpt>
      <trkpt lat="48.00058" lon="6.74664">
        <ele>488.8</ele>
        <time>2022-06-26T06:14:02Z</time>
      </trkpt>
      <trkpt lat="48.00058" lon="6.74668">
        <ele>489</ele>
        <time>2022-06-26T06:14:03Z</time>
      </trkpt>
      <trkpt lat="48.0006" lon="6.74672">
        <ele>489</ele>
        <time>2022-06-26T06:14:04Z</time>
      </trkpt>
      <trkpt lat="48.00061" lon="6.74677">
        <ele>489.4</ele>
        <time>2022-06-26T06:14:05Z</time>
      </trkpt>
      <trkpt lat="48.00061" lon="6.7468">
        <ele>489.4</ele>
        <time>2022-06-26T06:14:06Z</time>
      </trkpt>
      <trkpt lat="48.00061" lon="6.74683">
        <ele>489.6</ele>
        <time>2022-06-26T06:14:07Z</time>
      </trkpt>
      <trkpt lat="48.0006" lon="6.74687">
        <ele>489.8</ele>
        <time>2022-06-26T06:14:08Z</time>
      </trkpt>
      <trkpt lat="48.00061" lon="6.7469">
        <ele>489.8</ele>
        <time>2022-06-26T06:14:09Z</time>
      </trkpt>
      <trkpt lat="48.00061" lon="6.74694">
        <ele>490</ele>
        <time>2022-06-26T06:14:10Z</time>
      </trkpt>
      <trkpt lat="48.00062" lon="6.74697">
        <ele>490</ele>
        <time>2022-06-26T06:14:11Z</time>
      </trkpt>
      <trkpt lat="48.00063" lon="6.74701">
        <ele>490.4</ele>
        <time>2022-06-26T06:14:12Z</time>
      </trkpt>
      <trkpt lat="48.00063" lon="6.74705">
        <ele>490.4</ele>
        <time>2022-06-26T06:14:13Z</time>
      </trkpt>
      <trkpt lat="48.00065" lon="6.74708">
        <ele>490.8</ele>
        <time>2022-06-26T06:14:14Z</time>
      </trkpt>
      <trkpt lat="48.00066" lon="6.74711">
        <ele>490.8</ele>
        <time>2022-06-26T06:14:15Z</time>
      </trkpt>
      <trkpt lat="48.00067" lon="6.74714">
        <ele>490.8</ele>
        <time>2022-06-26T06:14:16Z</time>
      </trkpt>
      <trkpt lat="48.00068" lon="6.74716">
        <ele>491</ele>
        <time>2022-06-26T06:14:17Z</time>
      </trkpt>
      <trkpt lat="48.00069" lon="6.7472">
        <ele>491</ele>
        <time>2022-06-26T06:14:18Z</time>
      </trkpt>
      <trkpt lat="48.0007" lon="6.74725">
        <ele>491.2</ele>
        <time>2022-06-26T06:14:19Z</time>
      </trkpt>
      <trkpt lat="48.0007" lon="6.74728">
        <ele>491.4</ele>
        <time>2022-06-26T06:14:20Z</time>
      </trkpt>
      <trkpt lat="48.00071" lon="6.7473">
        <ele>491.6</ele>
        <time>2022-06-26T06:14:21Z</time>
      </trkpt>
      <trkpt lat="48.00072" lon="6.74733">
        <ele>491.6</ele>
        <time>2022-06-26T06:14:22Z</time>
      </trkpt>
      <trkpt lat="48.00074" lon="6.74734">
        <ele>491.8</ele>
        <time>2022-06-26T06:14:23Z</time>
      </trkpt>
      <trkpt lat="48.00075" lon="6.74736">
        <ele>492</ele>
        <time>2022-06-26T06:14:24Z</time>
      </trkpt>
      <trkpt lat="48.00076" lon="6.74738">
        <ele>492.2</ele>
        <time>2022-06-26T06:14:25Z</time>
      </trkpt>
      <trkpt lat="48.00078" lon="6.7474">
        <ele>492.4</ele>
        <time>2022-06-26T06:14:26Z</time>
      </trkpt>
      <trkpt lat="48.00079" lon="6.74743">
        <ele>492.6</ele>
        <time>2022-06-26T06:14:27Z</time>
      </trkpt>
      <trkpt lat="48.0008" lon="6.74746">
        <ele>493</ele>
        <time>2022-06-26T06:14:28Z</time>
      </trkpt>
      <trkpt lat="48.00082" lon="6.74748">
        <ele>493</ele>
        <time>2022-06-26T06:14:29Z</time>
      </trkpt>
      <trkpt lat="48.00083" lon="6.7475">
        <ele>493.4</ele>
        <time>2022-06-26T06:14:30Z</time>
      </trkpt>
      <trkpt lat="48.00084" lon="6.74752">
        <ele>493.4</ele>
        <time>2022-06-26T06:14:31Z</time>
      </trkpt>
      <trkpt lat="48.00084" lon="6.74754">
        <ele>493.8</ele>
        <time>2022-06-26T06:14:32Z</time>
      </trkpt>
      <trkpt lat="48.00085" lon="6.74755">
        <ele>494.4</ele>
        <time>2022-06-26T06:14:33Z</time>
      </trkpt>
      <trkpt lat="48.00086" lon="6.74757">
        <ele>494.4</ele>
        <time>2022-06-26T06:14:34Z</time>
      </trkpt>
      <trkpt lat="48.00087" lon="6.74759">
        <ele>494.8</ele>
        <time>2022-06-26T06:14:35Z</time>
      </trkpt>
      <trkpt lat="48.00087" lon="6.74761">
        <ele>495</ele>
        <time>2022-06-26T06:14:36Z</time>
      </trkpt>
      <trkpt lat="48.00088" lon="6.74764">
        <ele>495.2</ele>
        <time>2022-06-26T06:14:37Z</time>
      </trkpt>
      <trkpt lat="48.00088" lon="6.74767">
        <ele>495.4</ele>
        <time>2022-06-26T06:14:38Z</time>
      </trkpt>
      <trkpt lat="48.00088" lon="6.74769">
        <ele>495.6</ele>
        <time>2022-06-26T06:14:39Z</time>
      </trkpt>
      <trkpt lat="48.00089" lon="6.74772">
        <ele>495.8</ele>
        <time>2022-06-26T06:14:40Z</time>
      </trkpt>
      <trkpt lat="48.0009" lon="6.74775">
        <ele>496.2</ele>
        <time>2022-06-26T06:14:41Z</time>
      </trkpt>
      <trkpt lat="48.00091" lon="6.74778">
        <ele>496.4</ele>
        <time>2022-06-26T06:14:42Z</time>
      </trkpt>
      <trkpt lat="48.00091" lon="6.74781">
        <ele>496.6</ele>
        <time>2022-06-26T06:14:43Z</time>
      </trkpt>
      <trkpt lat="48.00092" lon="6.74785">
        <ele>496.8</ele>
        <time>2022-06-26T06:14:44Z</time>
      </trkpt>
      <trkpt lat="48.00095" lon="6.74788">
        <ele>497</ele>
        <time>2022-06-26T06:14:45Z</time>
      </trkpt>
      <trkpt lat="48.00096" lon="6.74791">
        <ele>497.2</ele>
        <time>2022-06-26T06:14:46Z</time>
      </trkpt>
      <trkpt lat="48.00097" lon="6.74795">
        <ele>497.2</ele>
        <time>2022-06-26T06:14:47Z</time>
      </trkpt>
      <trkpt lat="48.00099" lon="6.74798">
        <ele>497.4</ele>
        <time>2022-06-26T06:14:48Z</time>
      </trkpt>
      <trkpt lat="48.001" lon="6.748">
        <ele>497.6</ele>
        <time>2022-06-26T06:14:49Z</time>
      </trkpt>
      <trkpt lat="48.00101" lon="6.74803">
        <ele>497.8</ele>
        <time>2022-06-26T06:14:50Z</time>
      </trkpt>
      <trkpt lat="48.00102" lon="6.74807">
        <ele>498</ele>
        <time>2022-06-26T06:14:51Z</time>
      </trkpt>
      <trkpt lat="48.00103" lon="6.7481">
        <ele>498.2</ele>
        <time>2022-06-26T06:14:52Z</time>
      </trkpt>
      <trkpt lat="48.00105" lon="6.74815">
        <ele>498.6</ele>
        <time>2022-06-26T06:14:53Z</time>
      </trkpt>
      <trkpt lat="48.00105" lon="6.74818">
        <ele>498.6</ele>
        <time>2022-06-26T06:14:54Z</time>
      </trkpt>
      <trkpt lat="48.00105" lon="6.74821">
        <ele>498.8</ele>
        <time>2022-06-26T06:14:55Z</time>
      </trkpt>
      <trkpt lat="48.00106" lon="6.74824">
        <ele>499</ele>
        <time>2022-06-26T06:14:56Z</time>
      </trkpt>
      <trkpt lat="48.00105" lon="6.74832">
        <ele>499.2</ele>
        <time>2022-06-26T06:14:57Z</time>
      </trkpt>
      <trkpt lat="48.00104" lon="6.74834">
        <ele>499.4</ele>
        <time>2022-06-26T06:14:58Z</time>
      </trkpt>
      <trkpt lat="48.00104" lon="6.74838">
        <ele>499.6</ele>
        <time>2022-06-26T06:14:59Z</time>
      </trkpt>
      <trkpt lat="48.00103" lon="6.74841">
        <ele>499.8</ele>
        <time>2022-06-26T06:15:00Z</time>
      </trkpt>
      <trkpt lat="48.00102" lon="6.74846">
        <ele>500</ele>
        <time>2022-06-26T06:15:01Z</time>
      </trkpt>
      <trkpt lat="48.00101" lon="6.74851">
        <ele>500</ele>
        <time>2022-06-26T06:15:02Z</time>
      </trkpt>
      <trkpt lat="48.00101" lon="6.74854">
        <ele>500.2</ele>
        <time>2022-06-26T06:15:03Z</time>
      </trkpt>
      <trkpt lat="48.001" lon="6.74856">
        <ele>500.4</ele>
        <time>2022-06-26T06:15:04Z</time>
      </trkpt>
      <trkpt lat="48.00099" lon="6.7486">
        <ele>500.4</ele>
        <time>2022-06-26T06:15:05Z</time>
      </trkpt>
      <trkpt lat="48.00098" lon="6.74865">
        <ele>500.6</ele>
        <time>2022-06-26T06:15:06Z</time>
      </trkpt>
      <trkpt lat="48.00098" lon="6.74869">
        <ele>500.6</ele>
        <time>2022-06-26T06:15:07Z</time>
      </trkpt>
      <trkpt lat="48.00098" lon="6.74874">
        <ele>500.8</ele>
        <time>2022-06-26T06:15:08Z</time>
      </trkpt>
      <trkpt lat="48.00098" lon="6.74879">
        <ele>501</ele>
        <time>2022-06-26T06:15:09Z</time>
      </trkpt>
      <trkpt lat="48.00098" lon="6.74884">
        <ele>501</ele>
        <time>2022-06-26T06:15:10Z</time>
      </trkpt>
      <trkpt lat="48.00097" lon="6.74888">
        <ele>501.2</ele>
        <time>2022-06-26T06:15:11Z</time>
      </trkpt>
      <trkpt lat="48.00096" lon="6.74892">
        <ele>501.2</ele>
        <time>2022-06-26T06:15:12Z</time>
      </trkpt>
      <trkpt lat="48.00095" lon="6.74895">
        <ele>501.2</ele>
        <time>2022-06-26T06:15:13Z</time>
      </trkpt>
      <trkpt lat="48.00094" lon="6.74898">
        <ele>501.2</ele>
        <time>2022-06-26T06:15:14Z</time>
      </trkpt>
      <trkpt lat="48.00094" lon="6.74903">
        <ele>501.4</ele>
        <time>2022-06-26T06:15:15Z</time>
      </trkpt>
      <trkpt lat="48.00093" lon="6.74907">
        <ele>501.4</ele>
        <time>2022-06-26T06:15:16Z</time>
      </trkpt>
      <trkpt lat="48.00093" lon="6.7491">
        <ele>501.6</ele>
        <time>2022-06-26T06:15:17Z</time>
      </trkpt>
      <trkpt lat="48.00092" lon="6.74914">
        <ele>501.6</ele>
        <time>2022-06-26T06:15:18Z</time>
      </trkpt>
      <trkpt lat="48.00092" lon="6.74918">
        <ele>501.6</ele>
        <time>2022-06-26T06:15:19Z</time>
      </trkpt>
      <trkpt lat="48.00091" lon="6.74922">
        <ele>501.8</ele>
        <time>2022-06-26T06:15:20Z</time>
      </trkpt>
      <trkpt lat="48.0009" lon="6.74926">
        <ele>502</ele>
        <time>2022-06-26T06:15:21Z</time>
      </trkpt>
      <trkpt lat="48.00089" lon="6.74929">
        <ele>502</ele>
        <time>2022-06-26T06:15:22Z</time>
      </trkpt>
      <trkpt lat="48.00088" lon="6.74933">
        <ele>502.2</ele>
        <time>2022-06-26T06:15:23Z</time>
      </trkpt>
      <trkpt lat="48.00088" lon="6.74936">
        <ele>502.4</ele>
        <time>2022-06-26T06:15:24Z</time>
      </trkpt>
      <trkpt lat="48.00088" lon="6.7494">
        <ele>502.4</ele>
        <time>2022-06-26T06:15:25Z</time>
      </trkpt>
      <trkpt lat="48.00088" lon="6.74943">
        <ele>502.6</ele>
        <time>2022-06-26T06:15:26Z</time>
      </trkpt>
      <trkpt lat="48.00088" lon="6.74947">
        <ele>502.6</ele>
        <time>2022-06-26T06:15:27Z</time>
      </trkpt>
      <trkpt lat="48.00089" lon="6.74951">
        <ele>502.8</ele>
        <time>2022-06-26T06:15:28Z</time>
      </trkpt>
      <trkpt lat="48.0009" lon="6.74955">
        <ele>503</ele>
        <time>2022-06-26T06:15:29Z</time>
      </trkpt>
      <trkpt lat="48.0009" lon="6.74958">
        <ele>503</ele>
        <time>2022-06-26T06:15:30Z</time>
      </trkpt>
      <trkpt lat="48.00091" lon="6.74962">
        <ele>503.4</ele>
        <time>2022-06-26T06:15:31Z</time>
      </trkpt>
      <trkpt lat="48.00091" lon="6.74966">
        <ele>503.6</ele>
        <time>2022-06-26T06:15:32Z</time>
      </trkpt>
      <trkpt lat="48.00092" lon="6.74969">
        <ele>503.8</ele>
        <time>2022-06-26T06:15:33Z</time>
      </trkpt>
      <trkpt lat="48.00093" lon="6.74972">
        <ele>504</ele>
        <time>2022-06-26T06:15:34Z</time>
      </trkpt>
      <trkpt lat="48.00095" lon="6.74975">
        <ele>504.2</ele>
        <time>2022-06-26T06:15:35Z</time>
      </trkpt>
      <trkpt lat="48.00097" lon="6.74978">
        <ele>504.6</ele>
        <time>2022-06-26T06:15:36Z</time>
      </trkpt>
      <trkpt lat="48.00098" lon="6.74982">
        <ele>504.8</ele>
        <time>2022-06-26T06:15:37Z</time>
      </trkpt>
      <trkpt lat="48.001" lon="6.74985">
        <ele>505</ele>
        <time>2022-06-26T06:15:38Z</time>
      </trkpt>
      <trkpt lat="48.00102" lon="6.74988">
        <ele>505.2</ele>
        <time>2022-06-26T06:15:39Z</time>
      </trkpt>
      <trkpt lat="48.00104" lon="6.74992">
        <ele>505.4</ele>
        <time>2022-06-26T06:15:40Z</time>
      </trkpt>
      <trkpt lat="48.00106" lon="6.74995">
        <ele>505.4</ele>
        <time>2022-06-26T06:15:41Z</time>
      </trkpt>
      <trkpt lat="48.00108" lon="6.74999">
        <ele>505.6</ele>
        <time>2022-06-26T06:15:42Z</time>
      </trkpt>
      <trkpt lat="48.0011" lon="6.75002">
        <ele>505.6</ele>
        <time>2022-06-26T06:15:43Z</time>
      </trkpt>
      <trkpt lat="48.00112" lon="6.75006">
        <ele>505.6</ele>
        <time>2022-06-26T06:15:44Z</time>
      </trkpt>
      <trkpt lat="48.00114" lon="6.75009">
        <ele>505.8</ele>
        <time>2022-06-26T06:15:45Z</time>
      </trkpt>
      <trkpt lat="48.00117" lon="6.75012">
        <ele>505.8</ele>
        <time>2022-06-26T06:15:46Z</time>
      </trkpt>
      <trkpt lat="48.00119" lon="6.75015">
        <ele>505.8</ele>
        <time>2022-06-26T06:15:47Z</time>
      </trkpt>
      <trkpt lat="48.00122" lon="6.75018">
        <ele>505.8</ele>
        <time>2022-06-26T06:15:48Z</time>
      </trkpt>
      <trkpt lat="48.00125" lon="6.7502">
        <ele>506</ele>
        <time>2022-06-26T06:15:49Z</time>
      </trkpt>
      <trkpt lat="48.00128" lon="6.75021">
        <ele>506</ele>
        <time>2022-06-26T06:15:50Z</time>
      </trkpt>
      <trkpt lat="48.00131" lon="6.75022">
        <ele>506</ele>
        <time>2022-06-26T06:15:51Z</time>
      </trkpt>
      <trkpt lat="48.00135" lon="6.75024">
        <ele>506</ele>
        <time>2022-06-26T06:15:52Z</time>
      </trkpt>
      <trkpt lat="48.00138" lon="6.75025">
        <ele>506.2</ele>
        <time>2022-06-26T06:15:53Z</time>
      </trkpt>
      <trkpt lat="48.00142" lon="6.75026">
        <ele>506.2</ele>
        <time>2022-06-26T06:15:54Z</time>
      </trkpt>
      <trkpt lat="48.00146" lon="6.75027">
        <ele>506.2</ele>
        <time>2022-06-26T06:15:55Z</time>
      </trkpt>
      <trkpt lat="48.0015" lon="6.75028">
        <ele>506.2</ele>
        <time>2022-06-26T06:15:56Z</time>
      </trkpt>
      <trkpt lat="48.00154" lon="6.75029">
        <ele>506.2</ele>
        <time>2022-06-26T06:15:57Z</time>
      </trkpt>
      <trkpt lat="48.00158" lon="6.75029">
        <ele>506.2</ele>
        <time>2022-06-26T06:15:58Z</time>
      </trkpt>
      <trkpt lat="48.00163" lon="6.75029">
        <ele>506</ele>
        <time>2022-06-26T06:15:59Z</time>
      </trkpt>
      <trkpt lat="48.00168" lon="6.7503">
        <ele>505.8</ele>
        <time>2022-06-26T06:16:00Z</time>
      </trkpt>
      <trkpt lat="48.0018" lon="6.7503">
        <ele>505.8</ele>
        <time>2022-06-26T06:16:02Z</time>
      </trkpt>
      <trkpt lat="48.00211" lon="6.75038">
        <ele>504</ele>
        <time>2022-06-26T06:16:07Z</time>
      </trkpt>
      <trkpt lat="48.00216" lon="6.7504">
        <ele>503.4</ele>
        <time>2022-06-26T06:16:08Z</time>
      </trkpt>
      <trkpt lat="48.00222" lon="6.75042">
        <ele>503.2</ele>
        <time>2022-06-26T06:16:09Z</time>
      </trkpt>
      <trkpt lat="48.00227" lon="6.75044">
        <ele>503</ele>
        <time>2022-06-26T06:16:10Z</time>
      </trkpt>
      <trkpt lat="48.00232" lon="6.75046">
        <ele>502.8</ele>
        <time>2022-06-26T06:16:11Z</time>
      </trkpt>
      <trkpt lat="48.00237" lon="6.75048">
        <ele>502.8</ele>
        <time>2022-06-26T06:16:12Z</time>
      </trkpt>
      <trkpt lat="48.00242" lon="6.7505">
        <ele>502.8</ele>
        <time>2022-06-26T06:16:13Z</time>
      </trkpt>
      <trkpt lat="48.00247" lon="6.75051">
        <ele>502.6</ele>
        <time>2022-06-26T06:16:14Z</time>
      </trkpt>
      <trkpt lat="48.0026" lon="6.75054">
        <ele>502.8</ele>
        <time>2022-06-26T06:16:17Z</time>
      </trkpt>
      <trkpt lat="48.00264" lon="6.75054">
        <ele>502.8</ele>
        <time>2022-06-26T06:16:18Z</time>
      </trkpt>
      <trkpt lat="48.00268" lon="6.75054">
        <ele>502.8</ele>
        <time>2022-06-26T06:16:19Z</time>
      </trkpt>
      <trkpt lat="48.00273" lon="6.75053">
        <ele>503</ele>
        <time>2022-06-26T06:16:20Z</time>
      </trkpt>
      <trkpt lat="48.00277" lon="6.75053">
        <ele>503</ele>
        <time>2022-06-26T06:16:21Z</time>
      </trkpt>
      <trkpt lat="48.00282" lon="6.75054">
        <ele>503</ele>
        <time>2022-06-26T06:16:22Z</time>
      </trkpt>
      <trkpt lat="48.00286" lon="6.75056">
        <ele>502.8</ele>
        <time>2022-06-26T06:16:23Z</time>
      </trkpt>
      <trkpt lat="48.00291" lon="6.75059">
        <ele>502.8</ele>
        <time>2022-06-26T06:16:24Z</time>
      </trkpt>
      <trkpt lat="48.00296" lon="6.75065">
        <ele>502.8</ele>
        <time>2022-06-26T06:16:25Z</time>
      </trkpt>
      <trkpt lat="48.003" lon="6.75072">
        <ele>502.6</ele>
        <time>2022-06-26T06:16:26Z</time>
      </trkpt>
      <trkpt lat="48.00305" lon="6.7508">
        <ele>502.6</ele>
        <time>2022-06-26T06:16:27Z</time>
      </trkpt>
      <trkpt lat="48.00311" lon="6.75087">
        <ele>502.2</ele>
        <time>2022-06-26T06:16:28Z</time>
      </trkpt>
      <trkpt lat="48.00324" lon="6.75101">
        <ele>501.6</ele>
        <time>2022-06-26T06:16:30Z</time>
      </trkpt>
      <trkpt lat="48.00338" lon="6.75114">
        <ele>500.6</ele>
        <time>2022-06-26T06:16:32Z</time>
      </trkpt>
      <trkpt lat="48.00349" lon="6.75132">
        <ele>499.6</ele>
        <time>2022-06-26T06:16:34Z</time>
      </trkpt>
      <trkpt lat="48.00353" lon="6.75141">
        <ele>498.8</ele>
        <time>2022-06-26T06:16:35Z</time>
      </trkpt>
      <trkpt lat="48.00358" lon="6.75148">
        <ele>498.4</ele>
        <time>2022-06-26T06:16:36Z</time>
      </trkpt>
      <trkpt lat="48.00364" lon="6.75154">
        <ele>497.8</ele>
        <time>2022-06-26T06:16:37Z</time>
      </trkpt>
      <trkpt lat="48.00368" lon="6.7516">
        <ele>497.4</ele>
        <time>2022-06-26T06:16:38Z</time>
      </trkpt>
      <trkpt lat="48.00372" lon="6.75165">
        <ele>497.2</ele>
        <time>2022-06-26T06:16:39Z</time>
      </trkpt>
      <trkpt lat="48.00376" lon="6.75171">
        <ele>497.2</ele>
        <time>2022-06-26T06:16:40Z</time>
      </trkpt>
      <trkpt lat="48.00379" lon="6.75176">
        <ele>497</ele>
        <time>2022-06-26T06:16:41Z</time>
      </trkpt>
      <trkpt lat="48.00382" lon="6.75181">
        <ele>497</ele>
        <time>2022-06-26T06:16:42Z</time>
      </trkpt>
      <trkpt lat="48.00384" lon="6.75186">
        <ele>497</ele>
        <time>2022-06-26T06:16:43Z</time>
      </trkpt>
      <trkpt lat="48.00386" lon="6.75191">
        <ele>497.2</ele>
        <time>2022-06-26T06:16:44Z</time>
      </trkpt>
      <trkpt lat="48.00389" lon="6.75195">
        <ele>497.4</ele>
        <time>2022-06-26T06:16:45Z</time>
      </trkpt>
      <trkpt lat="48.00391" lon="6.75199">
        <ele>497.6</ele>
        <time>2022-06-26T06:16:46Z</time>
      </trkpt>
      <trkpt lat="48.00392" lon="6.75204">
        <ele>497.8</ele>
        <time>2022-06-26T06:16:47Z</time>
      </trkpt>
      <trkpt lat="48.00394" lon="6.75207">
        <ele>498.4</ele>
        <time>2022-06-26T06:16:48Z</time>
      </trkpt>
      <trkpt lat="48.00395" lon="6.75213">
        <ele>498.6</ele>
        <time>2022-06-26T06:16:49Z</time>
      </trkpt>
      <trkpt lat="48.00396" lon="6.75217">
        <ele>498.8</ele>
        <time>2022-06-26T06:16:50Z</time>
      </trkpt>
      <trkpt lat="48.00398" lon="6.75221">
        <ele>499.4</ele>
        <time>2022-06-26T06:16:51Z</time>
      </trkpt>
      <trkpt lat="48.004" lon="6.7523">
        <ele>500.2</ele>
        <time>2022-06-26T06:16:53Z</time>
      </trkpt>
      <trkpt lat="48.00402" lon="6.75239">
        <ele>500.6</ele>
        <time>2022-06-26T06:16:55Z</time>
      </trkpt>
      <trkpt lat="48.00402" lon="6.75244">
        <ele>500.8</ele>
        <time>2022-06-26T06:16:56Z</time>
      </trkpt>
      <trkpt lat="48.00403" lon="6.75248">
        <ele>501</ele>
        <time>2022-06-26T06:16:57Z</time>
      </trkpt>
      <trkpt lat="48.00404" lon="6.75253">
        <ele>501.2</ele>
        <time>2022-06-26T06:16:58Z</time>
      </trkpt>
      <trkpt lat="48.00405" lon="6.75258">
        <ele>501.4</ele>
        <time>2022-06-26T06:16:59Z</time>
      </trkpt>
      <trkpt lat="48.0041" lon="6.75271">
        <ele>501.8</ele>
        <time>2022-06-26T06:17:02Z</time>
      </trkpt>
      <trkpt lat="48.00411" lon="6.75275">
        <ele>502</ele>
        <time>2022-06-26T06:17:03Z</time>
      </trkpt>
      <trkpt lat="48.00414" lon="6.75283">
        <ele>502.2</ele>
        <time>2022-06-26T06:17:05Z</time>
      </trkpt>
      <trkpt lat="48.00416" lon="6.75287">
        <ele>502.2</ele>
        <time>2022-06-26T06:17:06Z</time>
      </trkpt>
      <trkpt lat="48.00418" lon="6.75291">
        <ele>502.4</ele>
        <time>2022-06-26T06:17:07Z</time>
      </trkpt>
      <trkpt lat="48.0042" lon="6.75295">
        <ele>502.6</ele>
        <time>2022-06-26T06:17:08Z</time>
      </trkpt>
      <trkpt lat="48.00422" lon="6.75299">
        <ele>502.8</ele>
        <time>2022-06-26T06:17:09Z</time>
      </trkpt>
      <trkpt lat="48.00424" lon="6.75303">
        <ele>503</ele>
        <time>2022-06-26T06:17:10Z</time>
      </trkpt>
      <trkpt lat="48.00426" lon="6.75307">
        <ele>503.2</ele>
        <time>2022-06-26T06:17:11Z</time>
      </trkpt>
      <trkpt lat="48.00428" lon="6.75312">
        <ele>503.2</ele>
        <time>2022-06-26T06:17:12Z</time>
      </trkpt>
      <trkpt lat="48.0043" lon="6.75315">
        <ele>503.4</ele>
        <time>2022-06-26T06:17:13Z</time>
      </trkpt>
      <trkpt lat="48.00433" lon="6.75319">
        <ele>503.4</ele>
        <time>2022-06-26T06:17:14Z</time>
      </trkpt>
      <trkpt lat="48.00435" lon="6.75323">
        <ele>503.6</ele>
        <time>2022-06-26T06:17:15Z</time>
      </trkpt>
      <trkpt lat="48.00438" lon="6.75327">
        <ele>503.6</ele>
        <time>2022-06-26T06:17:16Z</time>
      </trkpt>
      <trkpt lat="48.0044" lon="6.75331">
        <ele>503.6</ele>
        <time>2022-06-26T06:17:17Z</time>
      </trkpt>
      <trkpt lat="48.00443" lon="6.75335">
        <ele>503.8</ele>
        <time>2022-06-26T06:17:18Z</time>
      </trkpt>
      <trkpt lat="48.00446" lon="6.75339">
        <ele>503.8</ele>
        <time>2022-06-26T06:17:19Z</time>
      </trkpt>
      <trkpt lat="48.00448" lon="6.75343">
        <ele>503.8</ele>
        <time>2022-06-26T06:17:20Z</time>
      </trkpt>
      <trkpt lat="48.00451" lon="6.75348">
        <ele>504</ele>
        <time>2022-06-26T06:17:21Z</time>
      </trkpt>
      <trkpt lat="48.00454" lon="6.75352">
        <ele>504</ele>
        <time>2022-06-26T06:17:22Z</time>
      </trkpt>
      <trkpt lat="48.00457" lon="6.75357">
        <ele>504</ele>
        <time>2022-06-26T06:17:23Z</time>
      </trkpt>
      <trkpt lat="48.00459" lon="6.75362">
        <ele>504</ele>
        <time>2022-06-26T06:17:24Z</time>
      </trkpt>
      <trkpt lat="48.00461" lon="6.75367">
        <ele>504</ele>
        <time>2022-06-26T06:17:25Z</time>
      </trkpt>
      <trkpt lat="48.00463" lon="6.75372">
        <ele>504</ele>
        <time>2022-06-26T06:17:26Z</time>
      </trkpt>
      <trkpt lat="48.00466" lon="6.75378">
        <ele>504</ele>
        <time>2022-06-26T06:17:27Z</time>
      </trkpt>
      <trkpt lat="48.00467" lon="6.75384">
        <ele>504</ele>
        <time>2022-06-26T06:17:28Z</time>
      </trkpt>
      <trkpt lat="48.00468" lon="6.75391">
        <ele>504.2</ele>
        <time>2022-06-26T06:17:29Z</time>
      </trkpt>
      <trkpt lat="48.00468" lon="6.75397">
        <ele>504.2</ele>
        <time>2022-06-26T06:17:30Z</time>
      </trkpt>
      <trkpt lat="48.00468" lon="6.75409">
        <ele>504.2</ele>
        <time>2022-06-26T06:17:32Z</time>
      </trkpt>
      <trkpt lat="48.00469" lon="6.75421">
        <ele>504.2</ele>
        <time>2022-06-26T06:17:34Z</time>
      </trkpt>
      <trkpt lat="48.00472" lon="6.75432">
        <ele>504.2</ele>
        <time>2022-06-26T06:17:36Z</time>
      </trkpt>
      <trkpt lat="48.00474" lon="6.75438">
        <ele>504.2</ele>
        <time>2022-06-26T06:17:37Z</time>
      </trkpt>
      <trkpt lat="48.00476" lon="6.75442">
        <ele>504.4</ele>
        <time>2022-06-26T06:17:38Z</time>
      </trkpt>
      <trkpt lat="48.00479" lon="6.75446">
        <ele>504.4</ele>
        <time>2022-06-26T06:17:39Z</time>
      </trkpt>
      <trkpt lat="48.00483" lon="6.7545">
        <ele>504.4</ele>
        <time>2022-06-26T06:17:40Z</time>
      </trkpt>
      <trkpt lat="48.00486" lon="6.75453">
        <ele>504.4</ele>
        <time>2022-06-26T06:17:41Z</time>
      </trkpt>
      <trkpt lat="48.00489" lon="6.75456">
        <ele>504.6</ele>
        <time>2022-06-26T06:17:42Z</time>
      </trkpt>
      <trkpt lat="48.00496" lon="6.75463">
        <ele>504.6</ele>
        <time>2022-06-26T06:17:44Z</time>
      </trkpt>
      <trkpt lat="48.00499" lon="6.75466">
        <ele>504.8</ele>
        <time>2022-06-26T06:17:45Z</time>
      </trkpt>
      <trkpt lat="48.00502" lon="6.7547">
        <ele>504.8</ele>
        <time>2022-06-26T06:17:46Z</time>
      </trkpt>
      <trkpt lat="48.00508" lon="6.75478">
        <ele>504.8</ele>
        <time>2022-06-26T06:17:48Z</time>
      </trkpt>
      <trkpt lat="48.00516" lon="6.7549">
        <ele>505</ele>
        <time>2022-06-26T06:17:51Z</time>
      </trkpt>
      <trkpt lat="48.00524" lon="6.75503">
        <ele>505.4</ele>
        <time>2022-06-26T06:17:54Z</time>
      </trkpt>
      <trkpt lat="48.00536" lon="6.75518">
        <ele>505.6</ele>
        <time>2022-06-26T06:17:58Z</time>
      </trkpt>
      <trkpt lat="48.00565" lon="6.75546">
        <ele>506.4</ele>
        <time>2022-06-26T06:18:07Z</time>
      </trkpt>
      <trkpt lat="48.00568" lon="6.75549">
        <ele>506.6</ele>
        <time>2022-06-26T06:18:08Z</time>
      </trkpt>
      <trkpt lat="48.00582" lon="6.75561">
        <ele>507</ele>
        <time>2022-06-26T06:18:13Z</time>
      </trkpt>
      <trkpt lat="48.00584" lon="6.75563">
        <ele>507.2</ele>
        <time>2022-06-26T06:18:14Z</time>
      </trkpt>
      <trkpt lat="48.00586" lon="6.75565">
        <ele>507.2</ele>
        <time>2022-06-26T06:18:15Z</time>
      </trkpt>
      <trkpt lat="48.00589" lon="6.75567">
        <ele>507.4</ele>
        <time>2022-06-26T06:18:16Z</time>
      </trkpt>
      <trkpt lat="48.00591" lon="6.75569">
        <ele>507.8</ele>
        <time>2022-06-26T06:18:17Z</time>
      </trkpt>
      <trkpt lat="48.00594" lon="6.75572">
        <ele>508</ele>
        <time>2022-06-26T06:18:19Z</time>
      </trkpt>
      <trkpt lat="48.00596" lon="6.75574">
        <ele>508.2</ele>
        <time>2022-06-26T06:18:20Z</time>
      </trkpt>
      <trkpt lat="48.00598" lon="6.75576">
        <ele>508.4</ele>
        <time>2022-06-26T06:18:21Z</time>
      </trkpt>
      <trkpt lat="48.006" lon="6.75578">
        <ele>508.4</ele>
        <time>2022-06-26T06:18:22Z</time>
      </trkpt>
      <trkpt lat="48.00601" lon="6.7558">
        <ele>508.8</ele>
        <time>2022-06-26T06:18:23Z</time>
      </trkpt>
      <trkpt lat="48.00603" lon="6.75582">
        <ele>509</ele>
        <time>2022-06-26T06:18:24Z</time>
      </trkpt>
      <trkpt lat="48.00605" lon="6.75584">
        <ele>509.2</ele>
        <time>2022-06-26T06:18:25Z</time>
      </trkpt>
      <trkpt lat="48.00606" lon="6.75586">
        <ele>509.6</ele>
        <time>2022-06-26T06:18:26Z</time>
      </trkpt>
      <trkpt lat="48.00608" lon="6.75588">
        <ele>509.6</ele>
        <time>2022-06-26T06:18:27Z</time>
      </trkpt>
      <trkpt lat="48.0061" lon="6.7559">
        <ele>509.8</ele>
        <time>2022-06-26T06:18:28Z</time>
      </trkpt>
      <trkpt lat="48.00611" lon="6.75593">
        <ele>509.8</ele>
        <time>2022-06-26T06:18:29Z</time>
      </trkpt>
      <trkpt lat="48.00613" lon="6.75595">
        <ele>510</ele>
        <time>2022-06-26T06:18:30Z</time>
      </trkpt>
      <trkpt lat="48.00614" lon="6.75598">
        <ele>510.2</ele>
        <time>2022-06-26T06:18:31Z</time>
      </trkpt>
      <trkpt lat="48.00615" lon="6.756">
        <ele>510.4</ele>
        <time>2022-06-26T06:18:32Z</time>
      </trkpt>
      <trkpt lat="48.00617" lon="6.75603">
        <ele>510.6</ele>
        <time>2022-06-26T06:18:33Z</time>
      </trkpt>
      <trkpt lat="48.00618" lon="6.75605">
        <ele>510.8</ele>
        <time>2022-06-26T06:18:34Z</time>
      </trkpt>
      <trkpt lat="48.00619" lon="6.75608">
        <ele>511</ele>
        <time>2022-06-26T06:18:35Z</time>
      </trkpt>
      <trkpt lat="48.0062" lon="6.75611">
        <ele>511.2</ele>
        <time>2022-06-26T06:18:36Z</time>
      </trkpt>
      <trkpt lat="48.00622" lon="6.75613">
        <ele>511.4</ele>
        <time>2022-06-26T06:18:37Z</time>
      </trkpt>
      <trkpt lat="48.00623" lon="6.75616">
        <ele>511.6</ele>
        <time>2022-06-26T06:18:38Z</time>
      </trkpt>
      <trkpt lat="48.00624" lon="6.75619">
        <ele>512</ele>
        <time>2022-06-26T06:18:39Z</time>
      </trkpt>
      <trkpt lat="48.00626" lon="6.75622">
        <ele>512.2</ele>
        <time>2022-06-26T06:18:40Z</time>
      </trkpt>
      <trkpt lat="48.00627" lon="6.75625">
        <ele>512.4</ele>
        <time>2022-06-26T06:18:41Z</time>
      </trkpt>
      <trkpt lat="48.00629" lon="6.75629">
        <ele>512.6</ele>
        <time>2022-06-26T06:18:42Z</time>
      </trkpt>
      <trkpt lat="48.00631" lon="6.75632">
        <ele>512.8</ele>
        <time>2022-06-26T06:18:43Z</time>
      </trkpt>
      <trkpt lat="48.00634" lon="6.75636">
        <ele>513</ele>
        <time>2022-06-26T06:18:44Z</time>
      </trkpt>
      <trkpt lat="48.00636" lon="6.7564">
        <ele>513</ele>
        <time>2022-06-26T06:18:45Z</time>
      </trkpt>
      <trkpt lat="48.00639" lon="6.75644">
        <ele>513.2</ele>
        <time>2022-06-26T06:18:46Z</time>
      </trkpt>
      <trkpt lat="48.00642" lon="6.75648">
        <ele>513.2</ele>
        <time>2022-06-26T06:18:47Z</time>
      </trkpt>
      <trkpt lat="48.00645" lon="6.75652">
        <ele>513.2</ele>
        <time>2022-06-26T06:18:48Z</time>
      </trkpt>
      <trkpt lat="48.00648" lon="6.75656">
        <ele>513.2</ele>
        <time>2022-06-26T06:18:49Z</time>
      </trkpt>
      <trkpt lat="48.00651" lon="6.75659">
        <ele>513.2</ele>
        <time>2022-06-26T06:18:50Z</time>
      </trkpt>
      <trkpt lat="48.00654" lon="6.75663">
        <ele>513.2</ele>
        <time>2022-06-26T06:18:51Z</time>
      </trkpt>
      <trkpt lat="48.00657" lon="6.75666">
        <ele>513.2</ele>
        <time>2022-06-26T06:18:52Z</time>
      </trkpt>
      <trkpt lat="48.0066" lon="6.7567">
        <ele>513.2</ele>
        <time>2022-06-26T06:18:53Z</time>
      </trkpt>
      <trkpt lat="48.00663" lon="6.75673">
        <ele>513.2</ele>
        <time>2022-06-26T06:18:54Z</time>
      </trkpt>
      <trkpt lat="48.00666" lon="6.75676">
        <ele>513.2</ele>
        <time>2022-06-26T06:18:55Z</time>
      </trkpt>
      <trkpt lat="48.00668" lon="6.7568">
        <ele>513.2</ele>
        <time>2022-06-26T06:18:56Z</time>
      </trkpt>
      <trkpt lat="48.0067" lon="6.75683">
        <ele>513.2</ele>
        <time>2022-06-26T06:18:57Z</time>
      </trkpt>
      <trkpt lat="48.00673" lon="6.75685">
        <ele>513.2</ele>
        <time>2022-06-26T06:18:58Z</time>
      </trkpt>
      <trkpt lat="48.00675" lon="6.75688">
        <ele>513.4</ele>
        <time>2022-06-26T06:18:59Z</time>
      </trkpt>
      <trkpt lat="48.00677" lon="6.75691">
        <ele>513.6</ele>
        <time>2022-06-26T06:19:00Z</time>
      </trkpt>
      <trkpt lat="48.00678" lon="6.75694">
        <ele>513.8</ele>
        <time>2022-06-26T06:19:01Z</time>
      </trkpt>
      <trkpt lat="48.0068" lon="6.75697">
        <ele>514</ele>
        <time>2022-06-26T06:19:02Z</time>
      </trkpt>
      <trkpt lat="48.00682" lon="6.75699">
        <ele>514.2</ele>
        <time>2022-06-26T06:19:03Z</time>
      </trkpt>
      <trkpt lat="48.00684" lon="6.75702">
        <ele>514.4</ele>
        <time>2022-06-26T06:19:04Z</time>
      </trkpt>
      <trkpt lat="48.00686" lon="6.75705">
        <ele>514.4</ele>
        <time>2022-06-26T06:19:05Z</time>
      </trkpt>
      <trkpt lat="48.00687" lon="6.75708">
        <ele>514.6</ele>
        <time>2022-06-26T06:19:06Z</time>
      </trkpt>
      <trkpt lat="48.00689" lon="6.75711">
        <ele>514.8</ele>
        <time>2022-06-26T06:19:07Z</time>
      </trkpt>
      <trkpt lat="48.0069" lon="6.75715">
        <ele>515</ele>
        <time>2022-06-26T06:19:08Z</time>
      </trkpt>
      <trkpt lat="48.00691" lon="6.75718">
        <ele>515.4</ele>
        <time>2022-06-26T06:19:09Z</time>
      </trkpt>
      <trkpt lat="48.00692" lon="6.75722">
        <ele>515.6</ele>
        <time>2022-06-26T06:19:10Z</time>
      </trkpt>
      <trkpt lat="48.00694" lon="6.75725">
        <ele>516</ele>
        <time>2022-06-26T06:19:11Z</time>
      </trkpt>
      <trkpt lat="48.00695" lon="6.75729">
        <ele>516.2</ele>
        <time>2022-06-26T06:19:12Z</time>
      </trkpt>
      <trkpt lat="48.00696" lon="6.75734">
        <ele>516.4</ele>
        <time>2022-06-26T06:19:13Z</time>
      </trkpt>
      <trkpt lat="48.00697" lon="6.75738">
        <ele>516.6</ele>
        <time>2022-06-26T06:19:14Z</time>
      </trkpt>
      <trkpt lat="48.00697" lon="6.75743">
        <ele>516.8</ele>
        <time>2022-06-26T06:19:15Z</time>
      </trkpt>
      <trkpt lat="48.00698" lon="6.75748">
        <ele>517</ele>
        <time>2022-06-26T06:19:16Z</time>
      </trkpt>
      <trkpt lat="48.00699" lon="6.75752">
        <ele>517.2</ele>
        <time>2022-06-26T06:19:17Z</time>
      </trkpt>
      <trkpt lat="48.007" lon="6.75757">
        <ele>517.4</ele>
        <time>2022-06-26T06:19:18Z</time>
      </trkpt>
      <trkpt lat="48.00702" lon="6.75761">
        <ele>517.4</ele>
        <time>2022-06-26T06:19:19Z</time>
      </trkpt>
      <trkpt lat="48.00704" lon="6.75766">
        <ele>517.4</ele>
        <time>2022-06-26T06:19:20Z</time>
      </trkpt>
      <trkpt lat="48.00706" lon="6.75769">
        <ele>517.6</ele>
        <time>2022-06-26T06:19:21Z</time>
      </trkpt>
      <trkpt lat="48.00708" lon="6.75773">
        <ele>517.6</ele>
        <time>2022-06-26T06:19:22Z</time>
      </trkpt>
      <trkpt lat="48.0071" lon="6.75776">
        <ele>517.6</ele>
        <time>2022-06-26T06:19:23Z</time>
      </trkpt>
      <trkpt lat="48.00712" lon="6.75779">
        <ele>517.6</ele>
        <time>2022-06-26T06:19:24Z</time>
      </trkpt>
      <trkpt lat="48.00715" lon="6.75782">
        <ele>517.6</ele>
        <time>2022-06-26T06:19:25Z</time>
      </trkpt>
      <trkpt lat="48.00717" lon="6.75785">
        <ele>517.6</ele>
        <time>2022-06-26T06:19:26Z</time>
      </trkpt>
      <trkpt lat="48.00719" lon="6.75787">
        <ele>517.8</ele>
        <time>2022-06-26T06:19:27Z</time>
      </trkpt>
      <trkpt lat="48.00721" lon="6.7579">
        <ele>517.8</ele>
        <time>2022-06-26T06:19:28Z</time>
      </trkpt>
      <trkpt lat="48.00722" lon="6.75792">
        <ele>518</ele>
        <time>2022-06-26T06:19:29Z</time>
      </trkpt>
      <trkpt lat="48.00723" lon="6.75795">
        <ele>518</ele>
        <time>2022-06-26T06:19:30Z</time>
      </trkpt>
      <trkpt lat="48.00724" lon="6.75797">
        <ele>518.2</ele>
        <time>2022-06-26T06:19:31Z</time>
      </trkpt>
      <trkpt lat="48.00725" lon="6.758">
        <ele>518.4</ele>
        <time>2022-06-26T06:19:32Z</time>
      </trkpt>
      <trkpt lat="48.00726" lon="6.75803">
        <ele>518.6</ele>
        <time>2022-06-26T06:19:33Z</time>
      </trkpt>
      <trkpt lat="48.00726" lon="6.75806">
        <ele>518.8</ele>
        <time>2022-06-26T06:19:34Z</time>
      </trkpt>
      <trkpt lat="48.00727" lon="6.7581">
        <ele>519</ele>
        <time>2022-06-26T06:19:35Z</time>
      </trkpt>
      <trkpt lat="48.00727" lon="6.75812">
        <ele>519.4</ele>
        <time>2022-06-26T06:19:36Z</time>
      </trkpt>
      <trkpt lat="48.00728" lon="6.75815">
        <ele>519.4</ele>
        <time>2022-06-26T06:19:37Z</time>
      </trkpt>
      <trkpt lat="48.00728" lon="6.75818">
        <ele>519.6</ele>
        <time>2022-06-26T06:19:38Z</time>
      </trkpt>
      <trkpt lat="48.00728" lon="6.75821">
        <ele>519.8</ele>
        <time>2022-06-26T06:19:39Z</time>
      </trkpt>
      <trkpt lat="48.00729" lon="6.75823">
        <ele>520</ele>
        <time>2022-06-26T06:19:40Z</time>
      </trkpt>
      <trkpt lat="48.0073" lon="6.75826">
        <ele>520.2</ele>
        <time>2022-06-26T06:19:41Z</time>
      </trkpt>
      <trkpt lat="48.0073" lon="6.75829">
        <ele>520.2</ele>
        <time>2022-06-26T06:19:42Z</time>
      </trkpt>
      <trkpt lat="48.0073" lon="6.75831">
        <ele>520.4</ele>
        <time>2022-06-26T06:19:43Z</time>
      </trkpt>
      <trkpt lat="48.0073" lon="6.75834">
        <ele>520.6</ele>
        <time>2022-06-26T06:19:44Z</time>
      </trkpt>
      <trkpt lat="48.00731" lon="6.75837">
        <ele>521</ele>
        <time>2022-06-26T06:19:45Z</time>
      </trkpt>
      <trkpt lat="48.00731" lon="6.75839">
        <ele>521.2</ele>
        <time>2022-06-26T06:19:46Z</time>
      </trkpt>
      <trkpt lat="48.00731" lon="6.75841">
        <ele>521.6</ele>
        <time>2022-06-26T06:19:47Z</time>
      </trkpt>
      <trkpt lat="48.00732" lon="6.75844">
        <ele>521.8</ele>
        <time>2022-06-26T06:19:48Z</time>
      </trkpt>
      <trkpt lat="48.00732" lon="6.75847">
        <ele>522.2</ele>
        <time>2022-06-26T06:19:49Z</time>
      </trkpt>
      <trkpt lat="48.00732" lon="6.7585">
        <ele>522.2</ele>
        <time>2022-06-26T06:19:50Z</time>
      </trkpt>
      <trkpt lat="48.00733" lon="6.75852">
        <ele>522.6</ele>
        <time>2022-06-26T06:19:51Z</time>
      </trkpt>
      <trkpt lat="48.00733" lon="6.75854">
        <ele>522.6</ele>
        <time>2022-06-26T06:19:52Z</time>
      </trkpt>
      <trkpt lat="48.00734" lon="6.75857">
        <ele>522.8</ele>
        <time>2022-06-26T06:19:53Z</time>
      </trkpt>
      <trkpt lat="48.00734" lon="6.75859">
        <ele>523</ele>
        <time>2022-06-26T06:19:54Z</time>
      </trkpt>
      <trkpt lat="48.00735" lon="6.75861">
        <ele>523.2</ele>
        <time>2022-06-26T06:19:55Z</time>
      </trkpt>
      <trkpt lat="48.00736" lon="6.75863">
        <ele>523.4</ele>
        <time>2022-06-26T06:19:56Z</time>
      </trkpt>
      <trkpt lat="48.00736" lon="6.75865">
        <ele>523.6</ele>
        <time>2022-06-26T06:19:57Z</time>
      </trkpt>
      <trkpt lat="48.00737" lon="6.75867">
        <ele>524</ele>
        <time>2022-06-26T06:19:58Z</time>
      </trkpt>
      <trkpt lat="48.00738" lon="6.75869">
        <ele>524.2</ele>
        <time>2022-06-26T06:19:59Z</time>
      </trkpt>
      <trkpt lat="48.00738" lon="6.75871">
        <ele>524.6</ele>
        <time>2022-06-26T06:20:00Z</time>
      </trkpt>
      <trkpt lat="48.00739" lon="6.75874">
        <ele>524.6</ele>
        <time>2022-06-26T06:20:01Z</time>
      </trkpt>
      <trkpt lat="48.00739" lon="6.75876">
        <ele>524.8</ele>
        <time>2022-06-26T06:20:02Z</time>
      </trkpt>
      <trkpt lat="48.0074" lon="6.75878">
        <ele>525.2</ele>
        <time>2022-06-26T06:20:03Z</time>
      </trkpt>
      <trkpt lat="48.00741" lon="6.7588">
        <ele>525.4</ele>
        <time>2022-06-26T06:20:04Z</time>
      </trkpt>
      <trkpt lat="48.00742" lon="6.75882">
        <ele>525.6</ele>
        <time>2022-06-26T06:20:05Z</time>
      </trkpt>
      <trkpt lat="48.00742" lon="6.75884">
        <ele>525.8</ele>
        <time>2022-06-26T06:20:06Z</time>
      </trkpt>
      <trkpt lat="48.00743" lon="6.75886">
        <ele>526.2</ele>
        <time>2022-06-26T06:20:07Z</time>
      </trkpt>
      <trkpt lat="48.00744" lon="6.75889">
        <ele>526.2</ele>
        <time>2022-06-26T06:20:08Z</time>
      </trkpt>
      <trkpt lat="48.00745" lon="6.75891">
        <ele>526.6</ele>
        <time>2022-06-26T06:20:09Z</time>
      </trkpt>
      <trkpt lat="48.00746" lon="6.75893">
        <ele>526.8</ele>
        <time>2022-06-26T06:20:10Z</time>
      </trkpt>
      <trkpt lat="48.00747" lon="6.75895">
        <ele>527</ele>
        <time>2022-06-26T06:20:11Z</time>
      </trkpt>
      <trkpt lat="48.00748" lon="6.75897">
        <ele>527.2</ele>
        <time>2022-06-26T06:20:12Z</time>
      </trkpt>
      <trkpt lat="48.00748" lon="6.759">
        <ele>527.2</ele>
        <time>2022-06-26T06:20:13Z</time>
      </trkpt>
      <trkpt lat="48.00749" lon="6.75902">
        <ele>527.4</ele>
        <time>2022-06-26T06:20:14Z</time>
      </trkpt>
      <trkpt lat="48.0075" lon="6.75904">
        <ele>527.6</ele>
        <time>2022-06-26T06:20:15Z</time>
      </trkpt>
      <trkpt lat="48.00751" lon="6.75906">
        <ele>527.8</ele>
        <time>2022-06-26T06:20:16Z</time>
      </trkpt>
      <trkpt lat="48.00752" lon="6.75908">
        <ele>527.8</ele>
        <time>2022-06-26T06:20:17Z</time>
      </trkpt>
      <trkpt lat="48.00754" lon="6.75909">
        <ele>528.2</ele>
        <time>2022-06-26T06:20:18Z</time>
      </trkpt>
      <trkpt lat="48.00754" lon="6.75911">
        <ele>528.4</ele>
        <time>2022-06-26T06:20:19Z</time>
      </trkpt>
      <trkpt lat="48.00755" lon="6.75913">
        <ele>528.6</ele>
        <time>2022-06-26T06:20:20Z</time>
      </trkpt>
      <trkpt lat="48.00756" lon="6.75915">
        <ele>528.8</ele>
        <time>2022-06-26T06:20:21Z</time>
      </trkpt>
      <trkpt lat="48.00757" lon="6.75917">
        <ele>529</ele>
        <time>2022-06-26T06:20:22Z</time>
      </trkpt>
      <trkpt lat="48.00758" lon="6.75919">
        <ele>529.4</ele>
        <time>2022-06-26T06:20:23Z</time>
      </trkpt>
      <trkpt lat="48.00759" lon="6.75921">
        <ele>529.6</ele>
        <time>2022-06-26T06:20:24Z</time>
      </trkpt>
      <trkpt lat="48.0076" lon="6.75923">
        <ele>530</ele>
        <time>2022-06-26T06:20:25Z</time>
      </trkpt>
      <trkpt lat="48.00761" lon="6.75925">
        <ele>530</ele>
        <time>2022-06-26T06:20:26Z</time>
      </trkpt>
      <trkpt lat="48.00762" lon="6.75927">
        <ele>530.2</ele>
        <time>2022-06-26T06:20:27Z</time>
      </trkpt>
      <trkpt lat="48.00764" lon="6.75929">
        <ele>530.6</ele>
        <time>2022-06-26T06:20:28Z</time>
      </trkpt>
      <trkpt lat="48.00765" lon="6.75931">
        <ele>530.8</ele>
        <time>2022-06-26T06:20:29Z</time>
      </trkpt>
      <trkpt lat="48.00766" lon="6.75932">
        <ele>531</ele>
        <time>2022-06-26T06:20:30Z</time>
      </trkpt>
      <trkpt lat="48.00767" lon="6.75935">
        <ele>531.2</ele>
        <time>2022-06-26T06:20:31Z</time>
      </trkpt>
      <trkpt lat="48.00768" lon="6.75937">
        <ele>531.4</ele>
        <time>2022-06-26T06:20:32Z</time>
      </trkpt>
      <trkpt lat="48.00769" lon="6.75939">
        <ele>531.4</ele>
        <time>2022-06-26T06:20:33Z</time>
      </trkpt>
      <trkpt lat="48.0077" lon="6.75941">
        <ele>531.6</ele>
        <time>2022-06-26T06:20:34Z</time>
      </trkpt>
      <trkpt lat="48.00771" lon="6.75943">
        <ele>531.6</ele>
        <time>2022-06-26T06:20:35Z</time>
      </trkpt>
      <trkpt lat="48.00771" lon="6.75945">
        <ele>532.2</ele>
        <time>2022-06-26T06:20:36Z</time>
      </trkpt>
      <trkpt lat="48.00772" lon="6.75948">
        <ele>532.4</ele>
        <time>2022-06-26T06:20:37Z</time>
      </trkpt>
      <trkpt lat="48.00773" lon="6.7595">
        <ele>532.6</ele>
        <time>2022-06-26T06:20:38Z</time>
      </trkpt>
      <trkpt lat="48.00774" lon="6.75952">
        <ele>533.2</ele>
        <time>2022-06-26T06:20:39Z</time>
      </trkpt>
      <trkpt lat="48.00774" lon="6.75954">
        <ele>533.4</ele>
        <time>2022-06-26T06:20:40Z</time>
      </trkpt>
      <trkpt lat="48.00774" lon="6.75957">
        <ele>533.8</ele>
        <time>2022-06-26T06:20:41Z</time>
      </trkpt>
      <trkpt lat="48.00775" lon="6.75959">
        <ele>534</ele>
        <time>2022-06-26T06:20:42Z</time>
      </trkpt>
      <trkpt lat="48.00776" lon="6.75961">
        <ele>534.4</ele>
        <time>2022-06-26T06:20:43Z</time>
      </trkpt>
      <trkpt lat="48.00777" lon="6.75963">
        <ele>534.6</ele>
        <time>2022-06-26T06:20:44Z</time>
      </trkpt>
      <trkpt lat="48.00778" lon="6.75965">
        <ele>534.8</ele>
        <time>2022-06-26T06:20:45Z</time>
      </trkpt>
      <trkpt lat="48.00778" lon="6.75966">
        <ele>535</ele>
        <time>2022-06-26T06:20:46Z</time>
      </trkpt>
      <trkpt lat="48.00779" lon="6.75968">
        <ele>535.2</ele>
        <time>2022-06-26T06:20:47Z</time>
      </trkpt>
      <trkpt lat="48.0078" lon="6.75969">
        <ele>535.6</ele>
        <time>2022-06-26T06:20:48Z</time>
      </trkpt>
      <trkpt lat="48.00782" lon="6.75971">
        <ele>535.6</ele>
        <time>2022-06-26T06:20:49Z</time>
      </trkpt>
      <trkpt lat="48.00783" lon="6.75973">
        <ele>536</ele>
        <time>2022-06-26T06:20:50Z</time>
      </trkpt>
      <trkpt lat="48.00784" lon="6.75975">
        <ele>536.2</ele>
        <time>2022-06-26T06:20:51Z</time>
      </trkpt>
      <trkpt lat="48.00786" lon="6.75976">
        <ele>536.4</ele>
        <time>2022-06-26T06:20:52Z</time>
      </trkpt>
      <trkpt lat="48.00787" lon="6.75977">
        <ele>536.8</ele>
        <time>2022-06-26T06:20:53Z</time>
      </trkpt>
      <trkpt lat="48.00789" lon="6.75979">
        <ele>536.8</ele>
        <time>2022-06-26T06:20:54Z</time>
      </trkpt>
      <trkpt lat="48.00791" lon="6.7598">
        <ele>537</ele>
        <time>2022-06-26T06:20:55Z</time>
      </trkpt>
      <trkpt lat="48.00792" lon="6.75982">
        <ele>537.2</ele>
        <time>2022-06-26T06:20:56Z</time>
      </trkpt>
      <trkpt lat="48.00794" lon="6.75984">
        <ele>537.6</ele>
        <time>2022-06-26T06:20:57Z</time>
      </trkpt>
      <trkpt lat="48.00795" lon="6.75985">
        <ele>537.8</ele>
        <time>2022-06-26T06:20:58Z</time>
      </trkpt>
      <trkpt lat="48.00797" lon="6.75987">
        <ele>538</ele>
        <time>2022-06-26T06:20:59Z</time>
      </trkpt>
      <trkpt lat="48.00799" lon="6.75988">
        <ele>538.2</ele>
        <time>2022-06-26T06:21:00Z</time>
      </trkpt>
      <trkpt lat="48.008" lon="6.7599">
        <ele>538.6</ele>
        <time>2022-06-26T06:21:01Z</time>
      </trkpt>
      <trkpt lat="48.00802" lon="6.75992">
        <ele>538.8</ele>
        <time>2022-06-26T06:21:02Z</time>
      </trkpt>
      <trkpt lat="48.00803" lon="6.75994">
        <ele>538.8</ele>
        <time>2022-06-26T06:21:03Z</time>
      </trkpt>
      <trkpt lat="48.00805" lon="6.75996">
        <ele>539</ele>
        <time>2022-06-26T06:21:04Z</time>
      </trkpt>
      <trkpt lat="48.00806" lon="6.75998">
        <ele>539.2</ele>
        <time>2022-06-26T06:21:05Z</time>
      </trkpt>
      <trkpt lat="48.00808" lon="6.76">
        <ele>539.4</ele>
        <time>2022-06-26T06:21:06Z</time>
      </trkpt>
      <trkpt lat="48.00809" lon="6.76002">
        <ele>539.6</ele>
        <time>2022-06-26T06:21:07Z</time>
      </trkpt>
      <trkpt lat="48.0081" lon="6.76004">
        <ele>539.8</ele>
        <time>2022-06-26T06:21:08Z</time>
      </trkpt>
      <trkpt lat="48.00812" lon="6.76006">
        <ele>540</ele>
        <time>2022-06-26T06:21:09Z</time>
      </trkpt>
      <trkpt lat="48.00813" lon="6.76008">
        <ele>540.2</ele>
        <time>2022-06-26T06:21:10Z</time>
      </trkpt>
      <trkpt lat="48.00814" lon="6.7601">
        <ele>540.4</ele>
        <time>2022-06-26T06:21:11Z</time>
      </trkpt>
      <trkpt lat="48.00815" lon="6.76011">
        <ele>540.6</ele>
        <time>2022-06-26T06:21:12Z</time>
      </trkpt>
      <trkpt lat="48.00817" lon="6.76013">
        <ele>540.8</ele>
        <time>2022-06-26T06:21:13Z</time>
      </trkpt>
      <trkpt lat="48.00818" lon="6.76015">
        <ele>540.8</ele>
        <time>2022-06-26T06:21:14Z</time>
      </trkpt>
      <trkpt lat="48.00819" lon="6.76017">
        <ele>541.2</ele>
        <time>2022-06-26T06:21:15Z</time>
      </trkpt>
      <trkpt lat="48.00822" lon="6.76018">
        <ele>541.4</ele>
        <time>2022-06-26T06:21:16Z</time>
      </trkpt>
      <trkpt lat="48.00823" lon="6.7602">
        <ele>541.8</ele>
        <time>2022-06-26T06:21:17Z</time>
      </trkpt>
      <trkpt lat="48.00824" lon="6.76021">
        <ele>542</ele>
        <time>2022-06-26T06:21:18Z</time>
      </trkpt>
      <trkpt lat="48.00826" lon="6.76023">
        <ele>542.2</ele>
        <time>2022-06-26T06:21:19Z</time>
      </trkpt>
      <trkpt lat="48.00827" lon="6.76024">
        <ele>542.4</ele>
        <time>2022-06-26T06:21:20Z</time>
      </trkpt>
      <trkpt lat="48.00828" lon="6.76026">
        <ele>542.4</ele>
        <time>2022-06-26T06:21:21Z</time>
      </trkpt>
      <trkpt lat="48.0083" lon="6.76028">
        <ele>542.6</ele>
        <time>2022-06-26T06:21:22Z</time>
      </trkpt>
      <trkpt lat="48.00831" lon="6.7603">
        <ele>542.8</ele>
        <time>2022-06-26T06:21:23Z</time>
      </trkpt>
      <trkpt lat="48.00833" lon="6.76032">
        <ele>543</ele>
        <time>2022-06-26T06:21:24Z</time>
      </trkpt>
      <trkpt lat="48.00834" lon="6.76034">
        <ele>543.2</ele>
        <time>2022-06-26T06:21:25Z</time>
      </trkpt>
      <trkpt lat="48.00835" lon="6.76036">
        <ele>543.2</ele>
        <time>2022-06-26T06:21:26Z</time>
      </trkpt>
      <trkpt lat="48.00837" lon="6.76038">
        <ele>543.4</ele>
        <time>2022-06-26T06:21:27Z</time>
      </trkpt>
      <trkpt lat="48.00838" lon="6.76039">
        <ele>543.6</ele>
        <time>2022-06-26T06:21:28Z</time>
      </trkpt>
      <trkpt lat="48.0084" lon="6.76041">
        <ele>543.6</ele>
        <time>2022-06-26T06:21:29Z</time>
      </trkpt>
      <trkpt lat="48.00841" lon="6.76042">
        <ele>543.6</ele>
        <time>2022-06-26T06:21:30Z</time>
      </trkpt>
      <trkpt lat="48.00842" lon="6.76044">
        <ele>543.8</ele>
        <time>2022-06-26T06:21:31Z</time>
      </trkpt>
      <trkpt lat="48.00843" lon="6.76046">
        <ele>544</ele>
        <time>2022-06-26T06:21:32Z</time>
      </trkpt>
      <trkpt lat="48.00844" lon="6.76047">
        <ele>544.2</ele>
        <time>2022-06-26T06:21:33Z</time>
      </trkpt>
      <trkpt lat="48.00846" lon="6.76049">
        <ele>544.2</ele>
        <time>2022-06-26T06:21:34Z</time>
      </trkpt>
      <trkpt lat="48.00848" lon="6.76051">
        <ele>544.4</ele>
        <time>2022-06-26T06:21:35Z</time>
      </trkpt>
      <trkpt lat="48.0085" lon="6.76053">
        <ele>544.6</ele>
        <time>2022-06-26T06:21:36Z</time>
      </trkpt>
      <trkpt lat="48.00852" lon="6.76054">
        <ele>544.6</ele>
        <time>2022-06-26T06:21:37Z</time>
      </trkpt>
      <trkpt lat="48.00853" lon="6.76056">
        <ele>544.6</ele>
        <time>2022-06-26T06:21:38Z</time>
      </trkpt>
      <trkpt lat="48.00855" lon="6.76057">
        <ele>544.8</ele>
        <time>2022-06-26T06:21:39Z</time>
      </trkpt>
      <trkpt lat="48.00857" lon="6.76059">
        <ele>545</ele>
        <time>2022-06-26T06:21:40Z</time>
      </trkpt>
      <trkpt lat="48.00859" lon="6.7606">
        <ele>545.2</ele>
        <time>2022-06-26T06:21:41Z</time>
      </trkpt>
      <trkpt lat="48.0086" lon="6.76062">
        <ele>545.4</ele>
        <time>2022-06-26T06:21:42Z</time>
      </trkpt>
      <trkpt lat="48.00862" lon="6.76064">
        <ele>545.4</ele>
        <time>2022-06-26T06:21:43Z</time>
      </trkpt>
      <trkpt lat="48.00864" lon="6.76065">
        <ele>545.6</ele>
        <time>2022-06-26T06:21:44Z</time>
      </trkpt>
      <trkpt lat="48.00866" lon="6.76067">
        <ele>546</ele>
        <time>2022-06-26T06:21:45Z</time>
      </trkpt>
      <trkpt lat="48.00868" lon="6.76069">
        <ele>546</ele>
        <time>2022-06-26T06:21:46Z</time>
      </trkpt>
      <trkpt lat="48.00869" lon="6.76072">
        <ele>546.2</ele>
        <time>2022-06-26T06:21:47Z</time>
      </trkpt>
      <trkpt lat="48.00871" lon="6.76074">
        <ele>546.2</ele>
        <time>2022-06-26T06:21:48Z</time>
      </trkpt>
      <trkpt lat="48.00873" lon="6.76076">
        <ele>546.4</ele>
        <time>2022-06-26T06:21:49Z</time>
      </trkpt>
      <trkpt lat="48.00874" lon="6.76079">
        <ele>546.6</ele>
        <time>2022-06-26T06:21:50Z</time>
      </trkpt>
      <trkpt lat="48.00875" lon="6.76082">
        <ele>546.8</ele>
        <time>2022-06-26T06:21:51Z</time>
      </trkpt>
      <trkpt lat="48.00876" lon="6.76085">
        <ele>546.8</ele>
        <time>2022-06-26T06:21:52Z</time>
      </trkpt>
      <trkpt lat="48.00877" lon="6.76087">
        <ele>547</ele>
        <time>2022-06-26T06:21:53Z</time>
      </trkpt>
      <trkpt lat="48.00877" lon="6.7609">
        <ele>547.2</ele>
        <time>2022-06-26T06:21:54Z</time>
      </trkpt>
      <trkpt lat="48.00878" lon="6.76093">
        <ele>547.2</ele>
        <time>2022-06-26T06:21:55Z</time>
      </trkpt>
      <trkpt lat="48.00879" lon="6.76095">
        <ele>547.4</ele>
        <time>2022-06-26T06:21:56Z</time>
      </trkpt>
      <trkpt lat="48.00879" lon="6.76098">
        <ele>547.6</ele>
        <time>2022-06-26T06:21:57Z</time>
      </trkpt>
      <trkpt lat="48.0088" lon="6.761">
        <ele>547.8</ele>
        <time>2022-06-26T06:21:58Z</time>
      </trkpt>
      <trkpt lat="48.00881" lon="6.76102">
        <ele>547.8</ele>
        <time>2022-06-26T06:21:59Z</time>
      </trkpt>
      <trkpt lat="48.00881" lon="6.76104">
        <ele>548</ele>
        <time>2022-06-26T06:22:00Z</time>
      </trkpt>
      <trkpt lat="48.00882" lon="6.76105">
        <ele>548</ele>
        <time>2022-06-26T06:22:01Z</time>
      </trkpt>
      <trkpt lat="48.00883" lon="6.76106">
        <ele>548.2</ele>
        <time>2022-06-26T06:22:02Z</time>
      </trkpt>
      <trkpt lat="48.00884" lon="6.76107">
        <ele>548.4</ele>
        <time>2022-06-26T06:22:03Z</time>
      </trkpt>
      <trkpt lat="48.00885" lon="6.7611">
        <ele>548.4</ele>
        <time>2022-06-26T06:22:04Z</time>
      </trkpt>
      <trkpt lat="48.00886" lon="6.76113">
        <ele>548.6</ele>
        <time>2022-06-26T06:22:05Z</time>
      </trkpt>
      <trkpt lat="48.00889" lon="6.76118">
        <ele>548.6</ele>
        <time>2022-06-26T06:22:06Z</time>
      </trkpt>
      <trkpt lat="48.00891" lon="6.76121">
        <ele>548.8</ele>
        <time>2022-06-26T06:22:07Z</time>
      </trkpt>
      <trkpt lat="48.00895" lon="6.76126">
        <ele>548.8</ele>
        <time>2022-06-26T06:22:08Z</time>
      </trkpt>
      <trkpt lat="48.00895" lon="6.76133">
        <ele>548.8</ele>
        <time>2022-06-26T06:22:09Z</time>
      </trkpt>
      <trkpt lat="48.00895" lon="6.76139">
        <ele>549</ele>
        <time>2022-06-26T06:22:10Z</time>
      </trkpt>
      <trkpt lat="48.00895" lon="6.76143">
        <ele>549</ele>
        <time>2022-06-26T06:22:11Z</time>
      </trkpt>
      <trkpt lat="48.00896" lon="6.76147">
        <ele>549</ele>
        <time>2022-06-26T06:22:12Z</time>
      </trkpt>
      <trkpt lat="48.00895" lon="6.76152">
        <ele>549</ele>
        <time>2022-06-26T06:22:13Z</time>
      </trkpt>
      <trkpt lat="48.00897" lon="6.76157">
        <ele>549</ele>
        <time>2022-06-26T06:22:14Z</time>
      </trkpt>
      <trkpt lat="48.00897" lon="6.76162">
        <ele>549</ele>
        <time>2022-06-26T06:22:15Z</time>
      </trkpt>
      <trkpt lat="48.00899" lon="6.76164">
        <ele>549</ele>
        <time>2022-06-26T06:22:16Z</time>
      </trkpt>
      <trkpt lat="48.00901" lon="6.76164">
        <ele>549</ele>
        <time>2022-06-26T06:22:17Z</time>
      </trkpt>
      <trkpt lat="48.00906" lon="6.76167">
        <ele>549</ele>
        <time>2022-06-26T06:22:18Z</time>
      </trkpt>
      <trkpt lat="48.00911" lon="6.76169">
        <ele>548.8</ele>
        <time>2022-06-26T06:22:19Z</time>
      </trkpt>
      <trkpt lat="48.00921" lon="6.76175">
        <ele>548.8</ele>
        <time>2022-06-26T06:22:20Z</time>
      </trkpt>
      <trkpt lat="48.00928" lon="6.76178">
        <ele>548.8</ele>
        <time>2022-06-26T06:22:21Z</time>
      </trkpt>
      <trkpt lat="48.00939" lon="6.76184">
        <ele>548.8</ele>
        <time>2022-06-26T06:22:23Z</time>
      </trkpt>
      <trkpt lat="48.00942" lon="6.76188">
        <ele>548.8</ele>
        <time>2022-06-26T06:22:24Z</time>
      </trkpt>
      <trkpt lat="48.00943" lon="6.76192">
        <ele>549</ele>
        <time>2022-06-26T06:22:25Z</time>
      </trkpt>
      <trkpt lat="48.00945" lon="6.76195">
        <ele>549</ele>
        <time>2022-06-26T06:22:26Z</time>
      </trkpt>
      <trkpt lat="48.0095" lon="6.76197">
        <ele>549</ele>
        <time>2022-06-26T06:22:27Z</time>
      </trkpt>
      <trkpt lat="48.00953" lon="6.76199">
        <ele>549</ele>
        <time>2022-06-26T06:22:28Z</time>
      </trkpt>
      <trkpt lat="48.00961" lon="6.762">
        <ele>549.4</ele>
        <time>2022-06-26T06:22:30Z</time>
      </trkpt>
      <trkpt lat="48.00963" lon="6.76202">
        <ele>549.4</ele>
        <time>2022-06-26T06:22:31Z</time>
      </trkpt>
      <trkpt lat="48.00964" lon="6.76204">
        <ele>549.6</ele>
        <time>2022-06-26T06:22:32Z</time>
      </trkpt>
      <trkpt lat="48.00964" lon="6.76207">
        <ele>549.8</ele>
        <time>2022-06-26T06:22:33Z</time>
      </trkpt>
      <trkpt lat="48.00964" lon="6.7621">
        <ele>549.8</ele>
        <time>2022-06-26T06:22:34Z</time>
      </trkpt>
      <trkpt lat="48.00965" lon="6.76212">
        <ele>550</ele>
        <time>2022-06-26T06:22:36Z</time>
      </trkpt>
      <trkpt lat="48.00968" lon="6.76214">
        <ele>550.2</ele>
        <time>2022-06-26T06:22:38Z</time>
      </trkpt>
      <trkpt lat="48.00971" lon="6.76215">
        <ele>550.6</ele>
        <time>2022-06-26T06:22:39Z</time>
      </trkpt>
      <trkpt lat="48.00983" lon="6.76217">
        <ele>551.2</ele>
        <time>2022-06-26T06:22:42Z</time>
      </trkpt>
      <trkpt lat="48.0099" lon="6.76218">
        <ele>551.6</ele>
        <time>2022-06-26T06:22:44Z</time>
      </trkpt>
      <trkpt lat="48.00993" lon="6.76218">
        <ele>552</ele>
        <time>2022-06-26T06:22:45Z</time>
      </trkpt>
      <trkpt lat="48.00995" lon="6.76217">
        <ele>552.2</ele>
        <time>2022-06-26T06:22:46Z</time>
      </trkpt>
      <trkpt lat="48.00998" lon="6.76215">
        <ele>552.4</ele>
        <time>2022-06-26T06:22:47Z</time>
      </trkpt>
      <trkpt lat="48.01001" lon="6.76213">
        <ele>552.8</ele>
        <time>2022-06-26T06:22:48Z</time>
      </trkpt>
      <trkpt lat="48.01003" lon="6.76212">
        <ele>553</ele>
        <time>2022-06-26T06:22:49Z</time>
      </trkpt>
      <trkpt lat="48.01006" lon="6.76209">
        <ele>553.2</ele>
        <time>2022-06-26T06:22:50Z</time>
      </trkpt>
      <trkpt lat="48.01009" lon="6.76206">
        <ele>553.4</ele>
        <time>2022-06-26T06:22:51Z</time>
      </trkpt>
      <trkpt lat="48.01013" lon="6.76203">
        <ele>553.4</ele>
        <time>2022-06-26T06:22:52Z</time>
      </trkpt>
      <trkpt lat="48.01016" lon="6.76201">
        <ele>553.4</ele>
        <time>2022-06-26T06:22:53Z</time>
      </trkpt>
      <trkpt lat="48.01018" lon="6.76198">
        <ele>553.4</ele>
        <time>2022-06-26T06:22:54Z</time>
      </trkpt>
      <trkpt lat="48.01024" lon="6.76194">
        <ele>553.4</ele>
        <time>2022-06-26T06:22:55Z</time>
      </trkpt>
      <trkpt lat="48.01029" lon="6.7619">
        <ele>553.4</ele>
        <time>2022-06-26T06:22:56Z</time>
      </trkpt>
      <trkpt lat="48.01034" lon="6.76186">
        <ele>553</ele>
        <time>2022-06-26T06:22:57Z</time>
      </trkpt>
      <trkpt lat="48.01039" lon="6.76182">
        <ele>552.8</ele>
        <time>2022-06-26T06:22:58Z</time>
      </trkpt>
      <trkpt lat="48.01045" lon="6.76176">
        <ele>552.4</ele>
        <time>2022-06-26T06:22:59Z</time>
      </trkpt>
      <trkpt lat="48.01052" lon="6.76171">
        <ele>552.2</ele>
        <time>2022-06-26T06:23:00Z</time>
      </trkpt>
      <trkpt lat="48.01059" lon="6.76166">
        <ele>551.8</ele>
        <time>2022-06-26T06:23:01Z</time>
      </trkpt>
      <trkpt lat="48.01066" lon="6.76161">
        <ele>551.6</ele>
        <time>2022-06-26T06:23:02Z</time>
      </trkpt>
      <trkpt lat="48.01073" lon="6.76157">
        <ele>550.8</ele>
        <time>2022-06-26T06:23:03Z</time>
      </trkpt>
      <trkpt lat="48.0108" lon="6.76152">
        <ele>549.4</ele>
        <time>2022-06-26T06:23:04Z</time>
      </trkpt>
      <trkpt lat="48.01087" lon="6.76149">
        <ele>549</ele>
        <time>2022-06-26T06:23:05Z</time>
      </trkpt>
      <trkpt lat="48.01094" lon="6.76146">
        <ele>548.4</ele>
        <time>2022-06-26T06:23:06Z</time>
      </trkpt>
      <trkpt lat="48.01124" lon="6.7614">
        <ele>547.2</ele>
        <time>2022-06-26T06:23:10Z</time>
      </trkpt>
      <trkpt lat="48.01131" lon="6.76142">
        <ele>547</ele>
        <time>2022-06-26T06:23:11Z</time>
      </trkpt>
      <trkpt lat="48.01138" lon="6.76145">
        <ele>546</ele>
        <time>2022-06-26T06:23:12Z</time>
      </trkpt>
      <trkpt lat="48.01144" lon="6.7615">
        <ele>545.4</ele>
        <time>2022-06-26T06:23:13Z</time>
      </trkpt>
      <trkpt lat="48.01148" lon="6.76153">
        <ele>545</ele>
        <time>2022-06-26T06:23:14Z</time>
      </trkpt>
      <trkpt lat="48.01151" lon="6.76157">
        <ele>544.4</ele>
        <time>2022-06-26T06:23:15Z</time>
      </trkpt>
      <trkpt lat="48.01154" lon="6.7616">
        <ele>544.2</ele>
        <time>2022-06-26T06:23:16Z</time>
      </trkpt>
      <trkpt lat="48.01156" lon="6.76163">
        <ele>544</ele>
        <time>2022-06-26T06:23:17Z</time>
      </trkpt>
      <trkpt lat="48.01159" lon="6.76167">
        <ele>544</ele>
        <time>2022-06-26T06:23:18Z</time>
      </trkpt>
      <trkpt lat="48.01161" lon="6.7617">
        <ele>543.8</ele>
        <time>2022-06-26T06:23:19Z</time>
      </trkpt>
      <trkpt lat="48.01163" lon="6.76174">
        <ele>543.8</ele>
        <time>2022-06-26T06:23:20Z</time>
      </trkpt>
      <trkpt lat="48.01168" lon="6.76182">
        <ele>543.8</ele>
        <time>2022-06-26T06:23:22Z</time>
      </trkpt>
      <trkpt lat="48.01171" lon="6.76185">
        <ele>543.8</ele>
        <time>2022-06-26T06:23:23Z</time>
      </trkpt>
      <trkpt lat="48.01174" lon="6.76188">
        <ele>543.8</ele>
        <time>2022-06-26T06:23:24Z</time>
      </trkpt>
      <trkpt lat="48.01177" lon="6.76191">
        <ele>543.8</ele>
        <time>2022-06-26T06:23:25Z</time>
      </trkpt>
      <trkpt lat="48.01184" lon="6.76197">
        <ele>544</ele>
        <time>2022-06-26T06:23:27Z</time>
      </trkpt>
      <trkpt lat="48.01188" lon="6.76203">
        <ele>544.2</ele>
        <time>2022-06-26T06:23:29Z</time>
      </trkpt>
      <trkpt lat="48.0119" lon="6.76206">
        <ele>543.8</ele>
        <time>2022-06-26T06:23:30Z</time>
      </trkpt>
      <trkpt lat="48.01192" lon="6.76209">
        <ele>543.8</ele>
        <time>2022-06-26T06:23:31Z</time>
      </trkpt>
      <trkpt lat="48.01193" lon="6.76212">
        <ele>543.8</ele>
        <time>2022-06-26T06:23:32Z</time>
      </trkpt>
      <trkpt lat="48.01195" lon="6.76215">
        <ele>543.8</ele>
        <time>2022-06-26T06:23:33Z</time>
      </trkpt>
      <trkpt lat="48.01199" lon="6.76221">
        <ele>544</ele>
        <time>2022-06-26T06:23:35Z</time>
      </trkpt>
      <trkpt lat="48.012" lon="6.76223">
        <ele>544</ele>
        <time>2022-06-26T06:23:36Z</time>
      </trkpt>
      <trkpt lat="48.01202" lon="6.76226">
        <ele>544.2</ele>
        <time>2022-06-26T06:23:37Z</time>
      </trkpt>
      <trkpt lat="48.01205" lon="6.76229">
        <ele>544.2</ele>
        <time>2022-06-26T06:23:38Z</time>
      </trkpt>
      <trkpt lat="48.01208" lon="6.76232">
        <ele>544.4</ele>
        <time>2022-06-26T06:23:39Z</time>
      </trkpt>
      <trkpt lat="48.0121" lon="6.76234">
        <ele>544.4</ele>
        <time>2022-06-26T06:23:40Z</time>
      </trkpt>
      <trkpt lat="48.01213" lon="6.76237">
        <ele>544.6</ele>
        <time>2022-06-26T06:23:41Z</time>
      </trkpt>
      <trkpt lat="48.01214" lon="6.76239">
        <ele>544.8</ele>
        <time>2022-06-26T06:23:42Z</time>
      </trkpt>
      <trkpt lat="48.01217" lon="6.76242">
        <ele>545</ele>
        <time>2022-06-26T06:23:43Z</time>
      </trkpt>
      <trkpt lat="48.0122" lon="6.76245">
        <ele>545.2</ele>
        <time>2022-06-26T06:23:44Z</time>
      </trkpt>
      <trkpt lat="48.01223" lon="6.76249">
        <ele>545.2</ele>
        <time>2022-06-26T06:23:45Z</time>
      </trkpt>
      <trkpt lat="48.01226" lon="6.76252">
        <ele>545.4</ele>
        <time>2022-06-26T06:23:46Z</time>
      </trkpt>
      <trkpt lat="48.0123" lon="6.76254">
        <ele>545.6</ele>
        <time>2022-06-26T06:23:47Z</time>
      </trkpt>
      <trkpt lat="48.01234" lon="6.7626">
        <ele>546</ele>
        <time>2022-06-26T06:23:49Z</time>
      </trkpt>
      <trkpt lat="48.01241" lon="6.7627">
        <ele>547.2</ele>
        <time>2022-06-26T06:23:53Z</time>
      </trkpt>
      <trkpt lat="48.01244" lon="6.76272">
        <ele>547.2</ele>
        <time>2022-06-26T06:23:54Z</time>
      </trkpt>
      <trkpt lat="48.01247" lon="6.76277">
        <ele>547.8</ele>
        <time>2022-06-26T06:23:56Z</time>
      </trkpt>
      <trkpt lat="48.01249" lon="6.76279">
        <ele>547.8</ele>
        <time>2022-06-26T06:23:57Z</time>
      </trkpt>
      <trkpt lat="48.01251" lon="6.76282">
        <ele>548.2</ele>
        <time>2022-06-26T06:23:58Z</time>
      </trkpt>
      <trkpt lat="48.01253" lon="6.76285">
        <ele>548.4</ele>
        <time>2022-06-26T06:23:59Z</time>
      </trkpt>
      <trkpt lat="48.01255" lon="6.76288">
        <ele>548.6</ele>
        <time>2022-06-26T06:24:00Z</time>
      </trkpt>
      <trkpt lat="48.01256" lon="6.7629">
        <ele>548.6</ele>
        <time>2022-06-26T06:24:01Z</time>
      </trkpt>
      <trkpt lat="48.01258" lon="6.76293">
        <ele>548.8</ele>
        <time>2022-06-26T06:24:02Z</time>
      </trkpt>
      <trkpt lat="48.01259" lon="6.76297">
        <ele>548.8</ele>
        <time>2022-06-26T06:24:03Z</time>
      </trkpt>
      <trkpt lat="48.0126" lon="6.763">
        <ele>549</ele>
        <time>2022-06-26T06:24:04Z</time>
      </trkpt>
      <trkpt lat="48.01262" lon="6.76303">
        <ele>549.2</ele>
        <time>2022-06-26T06:24:05Z</time>
      </trkpt>
      <trkpt lat="48.01263" lon="6.76307">
        <ele>549.2</ele>
        <time>2022-06-26T06:24:06Z</time>
      </trkpt>
      <trkpt lat="48.01264" lon="6.76311">
        <ele>549.4</ele>
        <time>2022-06-26T06:24:07Z</time>
      </trkpt>
      <trkpt lat="48.01266" lon="6.76315">
        <ele>549.4</ele>
        <time>2022-06-26T06:24:08Z</time>
      </trkpt>
      <trkpt lat="48.01267" lon="6.76319">
        <ele>549.4</ele>
        <time>2022-06-26T06:24:09Z</time>
      </trkpt>
      <trkpt lat="48.01268" lon="6.76323">
        <ele>549.4</ele>
        <time>2022-06-26T06:24:10Z</time>
      </trkpt>
      <trkpt lat="48.01269" lon="6.76328">
        <ele>549.4</ele>
        <time>2022-06-26T06:24:11Z</time>
      </trkpt>
      <trkpt lat="48.01271" lon="6.76332">
        <ele>549.4</ele>
        <time>2022-06-26T06:24:12Z</time>
      </trkpt>
      <trkpt lat="48.01271" lon="6.76335">
        <ele>549.4</ele>
        <time>2022-06-26T06:24:13Z</time>
      </trkpt>
      <trkpt lat="48.01272" lon="6.76338">
        <ele>549.4</ele>
        <time>2022-06-26T06:24:14Z</time>
      </trkpt>
      <trkpt lat="48.01273" lon="6.76342">
        <ele>549.4</ele>
        <time>2022-06-26T06:24:15Z</time>
      </trkpt>
      <trkpt lat="48.01274" lon="6.76345">
        <ele>549.4</ele>
        <time>2022-06-26T06:24:16Z</time>
      </trkpt>
      <trkpt lat="48.01274" lon="6.76348">
        <ele>549.6</ele>
        <time>2022-06-26T06:24:17Z</time>
      </trkpt>
      <trkpt lat="48.01274" lon="6.7635">
        <ele>549.6</ele>
        <time>2022-06-26T06:24:18Z</time>
      </trkpt>
      <trkpt lat="48.01275" lon="6.76353">
        <ele>549.6</ele>
        <time>2022-06-26T06:24:19Z</time>
      </trkpt>
      <trkpt lat="48.01274" lon="6.76356">
        <ele>549.6</ele>
        <time>2022-06-26T06:24:20Z</time>
      </trkpt>
      <trkpt lat="48.01275" lon="6.76359">
        <ele>549.8</ele>
        <time>2022-06-26T06:24:21Z</time>
      </trkpt>
      <trkpt lat="48.01276" lon="6.76362">
        <ele>549.8</ele>
        <time>2022-06-26T06:24:22Z</time>
      </trkpt>
      <trkpt lat="48.01276" lon="6.76365">
        <ele>550</ele>
        <time>2022-06-26T06:24:23Z</time>
      </trkpt>
      <trkpt lat="48.01276" lon="6.76368">
        <ele>550</ele>
        <time>2022-06-26T06:24:24Z</time>
      </trkpt>
      <trkpt lat="48.01275" lon="6.76372">
        <ele>550.2</ele>
        <time>2022-06-26T06:24:25Z</time>
      </trkpt>
      <trkpt lat="48.01275" lon="6.76375">
        <ele>550.2</ele>
        <time>2022-06-26T06:24:26Z</time>
      </trkpt>
      <trkpt lat="48.01274" lon="6.76379">
        <ele>550.2</ele>
        <time>2022-06-26T06:24:27Z</time>
      </trkpt>
      <trkpt lat="48.01274" lon="6.76384">
        <ele>550.2</ele>
        <time>2022-06-26T06:24:28Z</time>
      </trkpt>
      <trkpt lat="48.01275" lon="6.76389">
        <ele>550.2</ele>
        <time>2022-06-26T06:24:29Z</time>
      </trkpt>
      <trkpt lat="48.01276" lon="6.76395">
        <ele>550.2</ele>
        <time>2022-06-26T06:24:30Z</time>
      </trkpt>
      <trkpt lat="48.01277" lon="6.764">
        <ele>550.4</ele>
        <time>2022-06-26T06:24:31Z</time>
      </trkpt>
      <trkpt lat="48.0128" lon="6.76413">
        <ele>550.4</ele>
        <time>2022-06-26T06:24:33Z</time>
      </trkpt>
      <trkpt lat="48.0128" lon="6.7642">
        <ele>550.4</ele>
        <time>2022-06-26T06:24:34Z</time>
      </trkpt>
      <trkpt lat="48.0128" lon="6.76426">
        <ele>550.2</ele>
        <time>2022-06-26T06:24:35Z</time>
      </trkpt>
      <trkpt lat="48.01279" lon="6.76434">
        <ele>550.2</ele>
        <time>2022-06-26T06:24:36Z</time>
      </trkpt>
      <trkpt lat="48.01279" lon="6.76443">
        <ele>550.2</ele>
        <time>2022-06-26T06:24:37Z</time>
      </trkpt>
      <trkpt lat="48.01279" lon="6.76453">
        <ele>550.2</ele>
        <time>2022-06-26T06:24:38Z</time>
      </trkpt>
      <trkpt lat="48.01283" lon="6.76464">
        <ele>550</ele>
        <time>2022-06-26T06:24:40Z</time>
      </trkpt>
      <trkpt lat="48.01288" lon="6.76474">
        <ele>550</ele>
        <time>2022-06-26T06:24:42Z</time>
      </trkpt>
      <trkpt lat="48.01291" lon="6.76478">
        <ele>549.8</ele>
        <time>2022-06-26T06:24:43Z</time>
      </trkpt>
      <trkpt lat="48.01293" lon="6.76483">
        <ele>549.8</ele>
        <time>2022-06-26T06:24:44Z</time>
      </trkpt>
      <trkpt lat="48.01294" lon="6.76487">
        <ele>549.8</ele>
        <time>2022-06-26T06:24:45Z</time>
      </trkpt>
      <trkpt lat="48.01294" lon="6.76491">
        <ele>549.8</ele>
        <time>2022-06-26T06:24:46Z</time>
      </trkpt>
      <trkpt lat="48.01296" lon="6.76496">
        <ele>549.8</ele>
        <time>2022-06-26T06:24:47Z</time>
      </trkpt>
      <trkpt lat="48.01295" lon="6.76499">
        <ele>549.8</ele>
        <time>2022-06-26T06:24:48Z</time>
      </trkpt>
      <trkpt lat="48.01295" lon="6.76503">
        <ele>550</ele>
        <time>2022-06-26T06:24:49Z</time>
      </trkpt>
      <trkpt lat="48.01294" lon="6.76508">
        <ele>550</ele>
        <time>2022-06-26T06:24:50Z</time>
      </trkpt>
      <trkpt lat="48.01296" lon="6.76513">
        <ele>550</ele>
        <time>2022-06-26T06:24:51Z</time>
      </trkpt>
      <trkpt lat="48.013" lon="6.76527">
        <ele>550</ele>
        <time>2022-06-26T06:24:53Z</time>
      </trkpt>
      <trkpt lat="48.01302" lon="6.76532">
        <ele>550</ele>
        <time>2022-06-26T06:24:54Z</time>
      </trkpt>
      <trkpt lat="48.01308" lon="6.76544">
        <ele>549.2</ele>
        <time>2022-06-26T06:24:57Z</time>
      </trkpt>
      <trkpt lat="48.01308" lon="6.76548">
        <ele>548.8</ele>
        <time>2022-06-26T06:24:58Z</time>
      </trkpt>
      <trkpt lat="48.0131" lon="6.76551">
        <ele>548.6</ele>
        <time>2022-06-26T06:24:59Z</time>
      </trkpt>
      <trkpt lat="48.0131" lon="6.76553">
        <ele>548.4</ele>
        <time>2022-06-26T06:25:00Z</time>
      </trkpt>
      <trkpt lat="48.01312" lon="6.76554">
        <ele>548.4</ele>
        <time>2022-06-26T06:25:01Z</time>
      </trkpt>
      <trkpt lat="48.01316" lon="6.76555">
        <ele>548.4</ele>
        <time>2022-06-26T06:25:02Z</time>
      </trkpt>
      <trkpt lat="48.0132" lon="6.76555">
        <ele>548.4</ele>
        <time>2022-06-26T06:25:03Z</time>
      </trkpt>
      <trkpt lat="48.01325" lon="6.76558">
        <ele>548.4</ele>
        <time>2022-06-26T06:25:04Z</time>
      </trkpt>
      <trkpt lat="48.01331" lon="6.76563">
        <ele>549.2</ele>
        <time>2022-06-26T06:25:06Z</time>
      </trkpt>
      <trkpt lat="48.01332" lon="6.76564">
        <ele>549.2</ele>
        <time>2022-06-26T06:25:07Z</time>
      </trkpt>
      <trkpt lat="48.01333" lon="6.76566">
        <ele>549.4</ele>
        <time>2022-06-26T06:25:08Z</time>
      </trkpt>
      <trkpt lat="48.01339" lon="6.76569">
        <ele>549.6</ele>
        <time>2022-06-26T06:25:09Z</time>
      </trkpt>
      <trkpt lat="48.01339" lon="6.76572">
        <ele>550</ele>
        <time>2022-06-26T06:25:10Z</time>
      </trkpt>
      <trkpt lat="48.0134" lon="6.76576">
        <ele>550</ele>
        <time>2022-06-26T06:25:11Z</time>
      </trkpt>
      <trkpt lat="48.01341" lon="6.76578">
        <ele>550.2</ele>
        <time>2022-06-26T06:25:12Z</time>
      </trkpt>
      <trkpt lat="48.01343" lon="6.76581">
        <ele>550.2</ele>
        <time>2022-06-26T06:25:13Z</time>
      </trkpt>
      <trkpt lat="48.01344" lon="6.76583">
        <ele>550.4</ele>
        <time>2022-06-26T06:25:14Z</time>
      </trkpt>
      <trkpt lat="48.01345" lon="6.76585">
        <ele>550.6</ele>
        <time>2022-06-26T06:25:15Z</time>
      </trkpt>
      <trkpt lat="48.01346" lon="6.76586">
        <ele>550.8</ele>
        <time>2022-06-26T06:25:16Z</time>
      </trkpt>
      <trkpt lat="48.01347" lon="6.76588">
        <ele>551</ele>
        <time>2022-06-26T06:25:17Z</time>
      </trkpt>
      <trkpt lat="48.01348" lon="6.76589">
        <ele>551</ele>
        <time>2022-06-26T06:25:18Z</time>
      </trkpt>
      <trkpt lat="48.01348" lon="6.76591">
        <ele>551.4</ele>
        <time>2022-06-26T06:25:19Z</time>
      </trkpt>
      <trkpt lat="48.01349" lon="6.76593">
        <ele>551.4</ele>
        <time>2022-06-26T06:25:20Z</time>
      </trkpt>
      <trkpt lat="48.01351" lon="6.76595">
        <ele>551.8</ele>
        <time>2022-06-26T06:25:22Z</time>
      </trkpt>
      <trkpt lat="48.01353" lon="6.76596">
        <ele>552.2</ele>
        <time>2022-06-26T06:25:23Z</time>
      </trkpt>
      <trkpt lat="48.01354" lon="6.76597">
        <ele>552.4</ele>
        <time>2022-06-26T06:25:24Z</time>
      </trkpt>
      <trkpt lat="48.01356" lon="6.76599">
        <ele>552.4</ele>
        <time>2022-06-26T06:25:25Z</time>
      </trkpt>
      <trkpt lat="48.01357" lon="6.76601">
        <ele>552.6</ele>
        <time>2022-06-26T06:25:26Z</time>
      </trkpt>
      <trkpt lat="48.01357" lon="6.76603">
        <ele>552.8</ele>
        <time>2022-06-26T06:25:27Z</time>
      </trkpt>
      <trkpt lat="48.01358" lon="6.76606">
        <ele>553.2</ele>
        <time>2022-06-26T06:25:28Z</time>
      </trkpt>
      <trkpt lat="48.01359" lon="6.76608">
        <ele>553.4</ele>
        <time>2022-06-26T06:25:29Z</time>
      </trkpt>
      <trkpt lat="48.0136" lon="6.7661">
        <ele>553.4</ele>
        <time>2022-06-26T06:25:30Z</time>
      </trkpt>
      <trkpt lat="48.01362" lon="6.76613">
        <ele>553.6</ele>
        <time>2022-06-26T06:25:31Z</time>
      </trkpt>
      <trkpt lat="48.01364" lon="6.76616">
        <ele>554</ele>
        <time>2022-06-26T06:25:32Z</time>
      </trkpt>
      <trkpt lat="48.01365" lon="6.76619">
        <ele>554.4</ele>
        <time>2022-06-26T06:25:33Z</time>
      </trkpt>
      <trkpt lat="48.01366" lon="6.76623">
        <ele>554.4</ele>
        <time>2022-06-26T06:25:34Z</time>
      </trkpt>
      <trkpt lat="48.01367" lon="6.76627">
        <ele>554.6</ele>
        <time>2022-06-26T06:25:35Z</time>
      </trkpt>
      <trkpt lat="48.01367" lon="6.76632">
        <ele>554.6</ele>
        <time>2022-06-26T06:25:36Z</time>
      </trkpt>
      <trkpt lat="48.01368" lon="6.76637">
        <ele>554.6</ele>
        <time>2022-06-26T06:25:37Z</time>
      </trkpt>
      <trkpt lat="48.01369" lon="6.76641">
        <ele>554.6</ele>
        <time>2022-06-26T06:25:38Z</time>
      </trkpt>
      <trkpt lat="48.0137" lon="6.76645">
        <ele>554.6</ele>
        <time>2022-06-26T06:25:39Z</time>
      </trkpt>
      <trkpt lat="48.01371" lon="6.76649">
        <ele>554.6</ele>
        <time>2022-06-26T06:25:40Z</time>
      </trkpt>
      <trkpt lat="48.01371" lon="6.76652">
        <ele>554.6</ele>
        <time>2022-06-26T06:25:41Z</time>
      </trkpt>
      <trkpt lat="48.01372" lon="6.76656">
        <ele>554.6</ele>
        <time>2022-06-26T06:25:42Z</time>
      </trkpt>
      <trkpt lat="48.01373" lon="6.76659">
        <ele>554.6</ele>
        <time>2022-06-26T06:25:43Z</time>
      </trkpt>
      <trkpt lat="48.01375" lon="6.76662">
        <ele>554.6</ele>
        <time>2022-06-26T06:25:44Z</time>
      </trkpt>
      <trkpt lat="48.01376" lon="6.76665">
        <ele>554.6</ele>
        <time>2022-06-26T06:25:45Z</time>
      </trkpt>
      <trkpt lat="48.01377" lon="6.76667">
        <ele>554.6</ele>
        <time>2022-06-26T06:25:46Z</time>
      </trkpt>
      <trkpt lat="48.01378" lon="6.76669">
        <ele>554.8</ele>
        <time>2022-06-26T06:25:47Z</time>
      </trkpt>
      <trkpt lat="48.01381" lon="6.76671">
        <ele>555</ele>
        <time>2022-06-26T06:25:48Z</time>
      </trkpt>
      <trkpt lat="48.01383" lon="6.76673">
        <ele>555</ele>
        <time>2022-06-26T06:25:49Z</time>
      </trkpt>
      <trkpt lat="48.01385" lon="6.76675">
        <ele>555</ele>
        <time>2022-06-26T06:25:50Z</time>
      </trkpt>
      <trkpt lat="48.01388" lon="6.76677">
        <ele>555.2</ele>
        <time>2022-06-26T06:25:51Z</time>
      </trkpt>
      <trkpt lat="48.0139" lon="6.76679">
        <ele>555.2</ele>
        <time>2022-06-26T06:25:52Z</time>
      </trkpt>
      <trkpt lat="48.01393" lon="6.76681">
        <ele>555.2</ele>
        <time>2022-06-26T06:25:53Z</time>
      </trkpt>
      <trkpt lat="48.01395" lon="6.76683">
        <ele>555.4</ele>
        <time>2022-06-26T06:25:54Z</time>
      </trkpt>
      <trkpt lat="48.01402" lon="6.76692">
        <ele>556.6</ele>
        <time>2022-06-26T06:25:59Z</time>
      </trkpt>
      <trkpt lat="48.01404" lon="6.76693">
        <ele>556.8</ele>
        <time>2022-06-26T06:26:00Z</time>
      </trkpt>
      <trkpt lat="48.01406" lon="6.76695">
        <ele>557</ele>
        <time>2022-06-26T06:26:01Z</time>
      </trkpt>
      <trkpt lat="48.01408" lon="6.76697">
        <ele>557.2</ele>
        <time>2022-06-26T06:26:02Z</time>
      </trkpt>
      <trkpt lat="48.01409" lon="6.76699">
        <ele>557.2</ele>
        <time>2022-06-26T06:26:03Z</time>
      </trkpt>
      <trkpt lat="48.0141" lon="6.76701">
        <ele>557.4</ele>
        <time>2022-06-26T06:26:04Z</time>
      </trkpt>
      <trkpt lat="48.01412" lon="6.76704">
        <ele>557.6</ele>
        <time>2022-06-26T06:26:05Z</time>
      </trkpt>
      <trkpt lat="48.01413" lon="6.76707">
        <ele>557.8</ele>
        <time>2022-06-26T06:26:06Z</time>
      </trkpt>
      <trkpt lat="48.01414" lon="6.76709">
        <ele>557.8</ele>
        <time>2022-06-26T06:26:07Z</time>
      </trkpt>
      <trkpt lat="48.01416" lon="6.76712">
        <ele>558.2</ele>
        <time>2022-06-26T06:26:08Z</time>
      </trkpt>
      <trkpt lat="48.01417" lon="6.76715">
        <ele>558.4</ele>
        <time>2022-06-26T06:26:09Z</time>
      </trkpt>
      <trkpt lat="48.01418" lon="6.76718">
        <ele>558.6</ele>
        <time>2022-06-26T06:26:10Z</time>
      </trkpt>
      <trkpt lat="48.01419" lon="6.7672">
        <ele>558.8</ele>
        <time>2022-06-26T06:26:11Z</time>
      </trkpt>
      <trkpt lat="48.01421" lon="6.76724">
        <ele>558.8</ele>
        <time>2022-06-26T06:26:12Z</time>
      </trkpt>
      <trkpt lat="48.01422" lon="6.76727">
        <ele>559</ele>
        <time>2022-06-26T06:26:13Z</time>
      </trkpt>
      <trkpt lat="48.01423" lon="6.7673">
        <ele>559</ele>
        <time>2022-06-26T06:26:14Z</time>
      </trkpt>
      <trkpt lat="48.01424" lon="6.76734">
        <ele>559</ele>
        <time>2022-06-26T06:26:15Z</time>
      </trkpt>
      <trkpt lat="48.01425" lon="6.76737">
        <ele>559.2</ele>
        <time>2022-06-26T06:26:16Z</time>
      </trkpt>
      <trkpt lat="48.01425" lon="6.7674">
        <ele>559.2</ele>
        <time>2022-06-26T06:26:17Z</time>
      </trkpt>
      <trkpt lat="48.01426" lon="6.76744">
        <ele>559.2</ele>
        <time>2022-06-26T06:26:18Z</time>
      </trkpt>
      <trkpt lat="48.01426" lon="6.76747">
        <ele>559.2</ele>
        <time>2022-06-26T06:26:19Z</time>
      </trkpt>
      <trkpt lat="48.01427" lon="6.7675">
        <ele>559.4</ele>
        <time>2022-06-26T06:26:20Z</time>
      </trkpt>
      <trkpt lat="48.01428" lon="6.76753">
        <ele>559.4</ele>
        <time>2022-06-26T06:26:21Z</time>
      </trkpt>
      <trkpt lat="48.01429" lon="6.76757">
        <ele>559.6</ele>
        <time>2022-06-26T06:26:22Z</time>
      </trkpt>
      <trkpt lat="48.01429" lon="6.7676">
        <ele>559.8</ele>
        <time>2022-06-26T06:26:23Z</time>
      </trkpt>
      <trkpt lat="48.0143" lon="6.76764">
        <ele>560</ele>
        <time>2022-06-26T06:26:24Z</time>
      </trkpt>
      <trkpt lat="48.0143" lon="6.76767">
        <ele>560.2</ele>
        <time>2022-06-26T06:26:25Z</time>
      </trkpt>
      <trkpt lat="48.0143" lon="6.7677">
        <ele>560.4</ele>
        <time>2022-06-26T06:26:26Z</time>
      </trkpt>
      <trkpt lat="48.01431" lon="6.76774">
        <ele>560.4</ele>
        <time>2022-06-26T06:26:27Z</time>
      </trkpt>
      <trkpt lat="48.01432" lon="6.76778">
        <ele>560.6</ele>
        <time>2022-06-26T06:26:28Z</time>
      </trkpt>
      <trkpt lat="48.01432" lon="6.76783">
        <ele>560.8</ele>
        <time>2022-06-26T06:26:29Z</time>
      </trkpt>
      <trkpt lat="48.01432" lon="6.76787">
        <ele>561</ele>
        <time>2022-06-26T06:26:30Z</time>
      </trkpt>
      <trkpt lat="48.01433" lon="6.76792">
        <ele>561</ele>
        <time>2022-06-26T06:26:31Z</time>
      </trkpt>
      <trkpt lat="48.01433" lon="6.76797">
        <ele>561</ele>
        <time>2022-06-26T06:26:32Z</time>
      </trkpt>
      <trkpt lat="48.01434" lon="6.76801">
        <ele>561</ele>
        <time>2022-06-26T06:26:33Z</time>
      </trkpt>
      <trkpt lat="48.01434" lon="6.76806">
        <ele>561</ele>
        <time>2022-06-26T06:26:34Z</time>
      </trkpt>
      <trkpt lat="48.01435" lon="6.76812">
        <ele>561</ele>
        <time>2022-06-26T06:26:35Z</time>
      </trkpt>
      <trkpt lat="48.01436" lon="6.76818">
        <ele>560.8</ele>
        <time>2022-06-26T06:26:36Z</time>
      </trkpt>
      <trkpt lat="48.01437" lon="6.76824">
        <ele>560.6</ele>
        <time>2022-06-26T06:26:37Z</time>
      </trkpt>
      <trkpt lat="48.01438" lon="6.76831">
        <ele>560.6</ele>
        <time>2022-06-26T06:26:38Z</time>
      </trkpt>
      <trkpt lat="48.01438" lon="6.76838">
        <ele>560.6</ele>
        <time>2022-06-26T06:26:39Z</time>
      </trkpt>
      <trkpt lat="48.01439" lon="6.76845">
        <ele>560.4</ele>
        <time>2022-06-26T06:26:40Z</time>
      </trkpt>
      <trkpt lat="48.01439" lon="6.76852">
        <ele>560.2</ele>
        <time>2022-06-26T06:26:41Z</time>
      </trkpt>
      <trkpt lat="48.0144" lon="6.7686">
        <ele>560</ele>
        <time>2022-06-26T06:26:42Z</time>
      </trkpt>
      <trkpt lat="48.01441" lon="6.76868">
        <ele>559.8</ele>
        <time>2022-06-26T06:26:43Z</time>
      </trkpt>
      <trkpt lat="48.01442" lon="6.76876">
        <ele>559.6</ele>
        <time>2022-06-26T06:26:44Z</time>
      </trkpt>
      <trkpt lat="48.01446" lon="6.7689">
        <ele>559</ele>
        <time>2022-06-26T06:26:46Z</time>
      </trkpt>
      <trkpt lat="48.01449" lon="6.76896">
        <ele>558.8</ele>
        <time>2022-06-26T06:26:47Z</time>
      </trkpt>
      <trkpt lat="48.01452" lon="6.76902">
        <ele>558.6</ele>
        <time>2022-06-26T06:26:48Z</time>
      </trkpt>
      <trkpt lat="48.01458" lon="6.76913">
        <ele>558.2</ele>
        <time>2022-06-26T06:26:50Z</time>
      </trkpt>
      <trkpt lat="48.0146" lon="6.76918">
        <ele>558</ele>
        <time>2022-06-26T06:26:51Z</time>
      </trkpt>
      <trkpt lat="48.01462" lon="6.76924">
        <ele>558</ele>
        <time>2022-06-26T06:26:52Z</time>
      </trkpt>
      <trkpt lat="48.01464" lon="6.76929">
        <ele>558</ele>
        <time>2022-06-26T06:26:53Z</time>
      </trkpt>
      <trkpt lat="48.01466" lon="6.76933">
        <ele>558</ele>
        <time>2022-06-26T06:26:54Z</time>
      </trkpt>
      <trkpt lat="48.01469" lon="6.76936">
        <ele>558</ele>
        <time>2022-06-26T06:26:55Z</time>
      </trkpt>
      <trkpt lat="48.01471" lon="6.76939">
        <ele>557.8</ele>
        <time>2022-06-26T06:26:56Z</time>
      </trkpt>
      <trkpt lat="48.01473" lon="6.76943">
        <ele>557.8</ele>
        <time>2022-06-26T06:26:57Z</time>
      </trkpt>
      <trkpt lat="48.01475" lon="6.76946">
        <ele>557.8</ele>
        <time>2022-06-26T06:26:58Z</time>
      </trkpt>
      <trkpt lat="48.01478" lon="6.76949">
        <ele>557.8</ele>
        <time>2022-06-26T06:26:59Z</time>
      </trkpt>
      <trkpt lat="48.01486" lon="6.76958">
        <ele>557.8</ele>
        <time>2022-06-26T06:27:02Z</time>
      </trkpt>
      <trkpt lat="48.01493" lon="6.76967">
        <ele>557.8</ele>
        <time>2022-06-26T06:27:05Z</time>
      </trkpt>
      <trkpt lat="48.01497" lon="6.7697">
        <ele>557.8</ele>
        <time>2022-06-26T06:27:06Z</time>
      </trkpt>
      <trkpt lat="48.01501" lon="6.76973">
        <ele>557.8</ele>
        <time>2022-06-26T06:27:07Z</time>
      </trkpt>
      <trkpt lat="48.01504" lon="6.76976">
        <ele>557.8</ele>
        <time>2022-06-26T06:27:08Z</time>
      </trkpt>
      <trkpt lat="48.01526" lon="6.76983">
        <ele>557.8</ele>
        <time>2022-06-26T06:27:14Z</time>
      </trkpt>
      <trkpt lat="48.0155" lon="6.7699">
        <ele>558</ele>
        <time>2022-06-26T06:27:20Z</time>
      </trkpt>
      <trkpt lat="48.01563" lon="6.76995">
        <ele>557.8</ele>
        <time>2022-06-26T06:27:23Z</time>
      </trkpt>
      <trkpt lat="48.01566" lon="6.76997">
        <ele>557.8</ele>
        <time>2022-06-26T06:27:24Z</time>
      </trkpt>
      <trkpt lat="48.0157" lon="6.77">
        <ele>557.6</ele>
        <time>2022-06-26T06:27:25Z</time>
      </trkpt>
      <trkpt lat="48.01573" lon="6.77002">
        <ele>557.6</ele>
        <time>2022-06-26T06:27:26Z</time>
      </trkpt>
      <trkpt lat="48.01576" lon="6.77003">
        <ele>557.4</ele>
        <time>2022-06-26T06:27:27Z</time>
      </trkpt>
      <trkpt lat="48.01579" lon="6.77005">
        <ele>557</ele>
        <time>2022-06-26T06:27:28Z</time>
      </trkpt>
      <trkpt lat="48.01583" lon="6.77007">
        <ele>556.8</ele>
        <time>2022-06-26T06:27:29Z</time>
      </trkpt>
      <trkpt lat="48.01592" lon="6.77012">
        <ele>556.4</ele>
        <time>2022-06-26T06:27:31Z</time>
      </trkpt>
      <trkpt lat="48.01611" lon="6.77026">
        <ele>556</ele>
        <time>2022-06-26T06:27:35Z</time>
      </trkpt>
      <trkpt lat="48.01614" lon="6.77032">
        <ele>555.6</ele>
        <time>2022-06-26T06:27:36Z</time>
      </trkpt>
      <trkpt lat="48.01615" lon="6.77039">
        <ele>555.4</ele>
        <time>2022-06-26T06:27:37Z</time>
      </trkpt>
      <trkpt lat="48.01616" lon="6.77046">
        <ele>555.4</ele>
        <time>2022-06-26T06:27:38Z</time>
      </trkpt>
      <trkpt lat="48.01616" lon="6.77054">
        <ele>555.4</ele>
        <time>2022-06-26T06:27:39Z</time>
      </trkpt>
      <trkpt lat="48.01616" lon="6.77062">
        <ele>555.4</ele>
        <time>2022-06-26T06:27:40Z</time>
      </trkpt>
      <trkpt lat="48.01617" lon="6.77071">
        <ele>555.4</ele>
        <time>2022-06-26T06:27:41Z</time>
      </trkpt>
      <trkpt lat="48.01615" lon="6.77091">
        <ele>555.2</ele>
        <time>2022-06-26T06:27:43Z</time>
      </trkpt>
      <trkpt lat="48.01617" lon="6.77099">
        <ele>555.4</ele>
        <time>2022-06-26T06:27:44Z</time>
      </trkpt>
      <trkpt lat="48.01619" lon="6.77109">
        <ele>555</ele>
        <time>2022-06-26T06:27:45Z</time>
      </trkpt>
      <trkpt lat="48.01629" lon="6.77126">
        <ele>554.8</ele>
        <time>2022-06-26T06:27:47Z</time>
      </trkpt>
      <trkpt lat="48.01635" lon="6.77133">
        <ele>554.6</ele>
        <time>2022-06-26T06:27:48Z</time>
      </trkpt>
      <trkpt lat="48.01642" lon="6.77138">
        <ele>554.4</ele>
        <time>2022-06-26T06:27:49Z</time>
      </trkpt>
      <trkpt lat="48.01648" lon="6.77143">
        <ele>553.4</ele>
        <time>2022-06-26T06:27:50Z</time>
      </trkpt>
      <trkpt lat="48.01652" lon="6.77149">
        <ele>553</ele>
        <time>2022-06-26T06:27:51Z</time>
      </trkpt>
      <trkpt lat="48.01656" lon="6.77155">
        <ele>551.8</ele>
        <time>2022-06-26T06:27:52Z</time>
      </trkpt>
      <trkpt lat="48.01659" lon="6.77162">
        <ele>551.6</ele>
        <time>2022-06-26T06:27:53Z</time>
      </trkpt>
      <trkpt lat="48.01662" lon="6.77171">
        <ele>551.2</ele>
        <time>2022-06-26T06:27:54Z</time>
      </trkpt>
      <trkpt lat="48.01664" lon="6.77179">
        <ele>550.8</ele>
        <time>2022-06-26T06:27:55Z</time>
      </trkpt>
      <trkpt lat="48.01665" lon="6.77186">
        <ele>550.8</ele>
        <time>2022-06-26T06:27:56Z</time>
      </trkpt>
      <trkpt lat="48.01666" lon="6.77195">
        <ele>550.6</ele>
        <time>2022-06-26T06:27:57Z</time>
      </trkpt>
      <trkpt lat="48.01667" lon="6.77207">
        <ele>550.4</ele>
        <time>2022-06-26T06:27:58Z</time>
      </trkpt>
      <trkpt lat="48.01666" lon="6.77224">
        <ele>549.6</ele>
        <time>2022-06-26T06:28:00Z</time>
      </trkpt>
      <trkpt lat="48.01666" lon="6.77233">
        <ele>549.4</ele>
        <time>2022-06-26T06:28:01Z</time>
      </trkpt>
      <trkpt lat="48.01665" lon="6.7724">
        <ele>549.2</ele>
        <time>2022-06-26T06:28:02Z</time>
      </trkpt>
      <trkpt lat="48.01663" lon="6.77247">
        <ele>549.2</ele>
        <time>2022-06-26T06:28:03Z</time>
      </trkpt>
      <trkpt lat="48.01661" lon="6.77254">
        <ele>548.6</ele>
        <time>2022-06-26T06:28:04Z</time>
      </trkpt>
      <trkpt lat="48.01659" lon="6.77262">
        <ele>548.4</ele>
        <time>2022-06-26T06:28:05Z</time>
      </trkpt>
      <trkpt lat="48.01659" lon="6.7727">
        <ele>548.2</ele>
        <time>2022-06-26T06:28:06Z</time>
      </trkpt>
      <trkpt lat="48.01659" lon="6.77277">
        <ele>548.2</ele>
        <time>2022-06-26T06:28:07Z</time>
      </trkpt>
      <trkpt lat="48.01661" lon="6.77283">
        <ele>548</ele>
        <time>2022-06-26T06:28:08Z</time>
      </trkpt>
      <trkpt lat="48.01664" lon="6.77287">
        <ele>548</ele>
        <time>2022-06-26T06:28:09Z</time>
      </trkpt>
      <trkpt lat="48.01667" lon="6.7729">
        <ele>548</ele>
        <time>2022-06-26T06:28:10Z</time>
      </trkpt>
      <trkpt lat="48.0167" lon="6.77292">
        <ele>548</ele>
        <time>2022-06-26T06:28:11Z</time>
      </trkpt>
      <trkpt lat="48.01673" lon="6.77294">
        <ele>548.2</ele>
        <time>2022-06-26T06:28:12Z</time>
      </trkpt>
      <trkpt lat="48.01677" lon="6.77295">
        <ele>548.2</ele>
        <time>2022-06-26T06:28:13Z</time>
      </trkpt>
      <trkpt lat="48.0168" lon="6.77297">
        <ele>548.2</ele>
        <time>2022-06-26T06:28:14Z</time>
      </trkpt>
      <trkpt lat="48.01684" lon="6.77299">
        <ele>548.4</ele>
        <time>2022-06-26T06:28:15Z</time>
      </trkpt>
      <trkpt lat="48.01687" lon="6.77302">
        <ele>548.6</ele>
        <time>2022-06-26T06:28:16Z</time>
      </trkpt>
      <trkpt lat="48.01691" lon="6.77305">
        <ele>548.6</ele>
        <time>2022-06-26T06:28:17Z</time>
      </trkpt>
      <trkpt lat="48.01699" lon="6.77314">
        <ele>549</ele>
        <time>2022-06-26T06:28:20Z</time>
      </trkpt>
      <trkpt lat="48.01701" lon="6.77318">
        <ele>549.2</ele>
        <time>2022-06-26T06:28:21Z</time>
      </trkpt>
      <trkpt lat="48.01707" lon="6.77331">
        <ele>549.4</ele>
        <time>2022-06-26T06:28:24Z</time>
      </trkpt>
      <trkpt lat="48.01707" lon="6.77336">
        <ele>549.6</ele>
        <time>2022-06-26T06:28:25Z</time>
      </trkpt>
      <trkpt lat="48.01709" lon="6.77342">
        <ele>549.6</ele>
        <time>2022-06-26T06:28:26Z</time>
      </trkpt>
      <trkpt lat="48.0171" lon="6.77347">
        <ele>549.6</ele>
        <time>2022-06-26T06:28:27Z</time>
      </trkpt>
      <trkpt lat="48.01716" lon="6.77362">
        <ele>550</ele>
        <time>2022-06-26T06:28:31Z</time>
      </trkpt>
      <trkpt lat="48.01717" lon="6.77365">
        <ele>550.2</ele>
        <time>2022-06-26T06:28:32Z</time>
      </trkpt>
      <trkpt lat="48.01718" lon="6.77368">
        <ele>550.2</ele>
        <time>2022-06-26T06:28:33Z</time>
      </trkpt>
      <trkpt lat="48.0172" lon="6.7737">
        <ele>550.2</ele>
        <time>2022-06-26T06:28:34Z</time>
      </trkpt>
      <trkpt lat="48.01722" lon="6.77373">
        <ele>550.4</ele>
        <time>2022-06-26T06:28:35Z</time>
      </trkpt>
      <trkpt lat="48.01724" lon="6.77377">
        <ele>550.6</ele>
        <time>2022-06-26T06:28:36Z</time>
      </trkpt>
      <trkpt lat="48.01725" lon="6.77379">
        <ele>551</ele>
        <time>2022-06-26T06:28:37Z</time>
      </trkpt>
      <trkpt lat="48.01731" lon="6.77387">
        <ele>551.6</ele>
        <time>2022-06-26T06:28:39Z</time>
      </trkpt>
      <trkpt lat="48.01734" lon="6.77389">
        <ele>551.8</ele>
        <time>2022-06-26T06:28:40Z</time>
      </trkpt>
      <trkpt lat="48.01737" lon="6.77393">
        <ele>551.8</ele>
        <time>2022-06-26T06:28:41Z</time>
      </trkpt>
      <trkpt lat="48.0174" lon="6.77397">
        <ele>552</ele>
        <time>2022-06-26T06:28:42Z</time>
      </trkpt>
      <trkpt lat="48.01748" lon="6.77407">
        <ele>552</ele>
        <time>2022-06-26T06:28:44Z</time>
      </trkpt>
      <trkpt lat="48.0175" lon="6.77412">
        <ele>552</ele>
        <time>2022-06-26T06:28:45Z</time>
      </trkpt>
      <trkpt lat="48.01752" lon="6.77417">
        <ele>552</ele>
        <time>2022-06-26T06:28:46Z</time>
      </trkpt>
      <trkpt lat="48.01755" lon="6.77422">
        <ele>552</ele>
        <time>2022-06-26T06:28:47Z</time>
      </trkpt>
      <trkpt lat="48.01758" lon="6.77429">
        <ele>552</ele>
        <time>2022-06-26T06:28:48Z</time>
      </trkpt>
      <trkpt lat="48.0176" lon="6.77435">
        <ele>552</ele>
        <time>2022-06-26T06:28:49Z</time>
      </trkpt>
      <trkpt lat="48.01762" lon="6.77441">
        <ele>551.8</ele>
        <time>2022-06-26T06:28:50Z</time>
      </trkpt>
      <trkpt lat="48.01763" lon="6.77448">
        <ele>551.6</ele>
        <time>2022-06-26T06:28:51Z</time>
      </trkpt>
      <trkpt lat="48.01765" lon="6.77453">
        <ele>551.6</ele>
        <time>2022-06-26T06:28:52Z</time>
      </trkpt>
      <trkpt lat="48.0177" lon="6.77466">
        <ele>551.4</ele>
        <time>2022-06-26T06:28:54Z</time>
      </trkpt>
      <trkpt lat="48.01774" lon="6.77479">
        <ele>550.8</ele>
        <time>2022-06-26T06:28:56Z</time>
      </trkpt>
      <trkpt lat="48.0178" lon="6.775">
        <ele>550.4</ele>
        <time>2022-06-26T06:29:00Z</time>
      </trkpt>
      <trkpt lat="48.01782" lon="6.77505">
        <ele>550.4</ele>
        <time>2022-06-26T06:29:01Z</time>
      </trkpt>
      <trkpt lat="48.01783" lon="6.7751">
        <ele>550.2</ele>
        <time>2022-06-26T06:29:02Z</time>
      </trkpt>
      <trkpt lat="48.01786" lon="6.77515">
        <ele>550.2</ele>
        <time>2022-06-26T06:29:03Z</time>
      </trkpt>
      <trkpt lat="48.01788" lon="6.7752">
        <ele>550</ele>
        <time>2022-06-26T06:29:04Z</time>
      </trkpt>
      <trkpt lat="48.01789" lon="6.77525">
        <ele>549.8</ele>
        <time>2022-06-26T06:29:05Z</time>
      </trkpt>
      <trkpt lat="48.01791" lon="6.77529">
        <ele>549.8</ele>
        <time>2022-06-26T06:29:06Z</time>
      </trkpt>
      <trkpt lat="48.01792" lon="6.77537">
        <ele>549.6</ele>
        <time>2022-06-26T06:29:07Z</time>
      </trkpt>
      <trkpt lat="48.01794" lon="6.77542">
        <ele>549.6</ele>
        <time>2022-06-26T06:29:08Z</time>
      </trkpt>
      <trkpt lat="48.01794" lon="6.77547">
        <ele>549.6</ele>
        <time>2022-06-26T06:29:09Z</time>
      </trkpt>
      <trkpt lat="48.01798" lon="6.77558">
        <ele>549.4</ele>
        <time>2022-06-26T06:29:11Z</time>
      </trkpt>
      <trkpt lat="48.01804" lon="6.77571">
        <ele>549.2</ele>
        <time>2022-06-26T06:29:13Z</time>
      </trkpt>
      <trkpt lat="48.01815" lon="6.77594">
        <ele>548.8</ele>
        <time>2022-06-26T06:29:17Z</time>
      </trkpt>
      <trkpt lat="48.01816" lon="6.77597">
        <ele>549</ele>
        <time>2022-06-26T06:29:18Z</time>
      </trkpt>
      <trkpt lat="48.01818" lon="6.77602">
        <ele>548.8</ele>
        <time>2022-06-26T06:29:19Z</time>
      </trkpt>
      <trkpt lat="48.0182" lon="6.77606">
        <ele>549</ele>
        <time>2022-06-26T06:29:20Z</time>
      </trkpt>
      <trkpt lat="48.01821" lon="6.77609">
        <ele>549</ele>
        <time>2022-06-26T06:29:21Z</time>
      </trkpt>
      <trkpt lat="48.01821" lon="6.77614">
        <ele>549</ele>
        <time>2022-06-26T06:29:22Z</time>
      </trkpt>
      <trkpt lat="48.01821" lon="6.7762">
        <ele>549.2</ele>
        <time>2022-06-26T06:29:23Z</time>
      </trkpt>
      <trkpt lat="48.01822" lon="6.77632">
        <ele>549.8</ele>
        <time>2022-06-26T06:29:25Z</time>
      </trkpt>
      <trkpt lat="48.0183" lon="6.77646">
        <ele>549.8</ele>
        <time>2022-06-26T06:29:28Z</time>
      </trkpt>
      <trkpt lat="48.01833" lon="6.7765">
        <ele>549.8</ele>
        <time>2022-06-26T06:29:29Z</time>
      </trkpt>
      <trkpt lat="48.01835" lon="6.77651">
        <ele>550</ele>
        <time>2022-06-26T06:29:30Z</time>
      </trkpt>
      <trkpt lat="48.01837" lon="6.77654">
        <ele>550</ele>
        <time>2022-06-26T06:29:31Z</time>
      </trkpt>
      <trkpt lat="48.01838" lon="6.77658">
        <ele>550</ele>
        <time>2022-06-26T06:29:32Z</time>
      </trkpt>
      <trkpt lat="48.01841" lon="6.77661">
        <ele>550</ele>
        <time>2022-06-26T06:29:33Z</time>
      </trkpt>
      <trkpt lat="48.01852" lon="6.77681">
        <ele>550.2</ele>
        <time>2022-06-26T06:29:38Z</time>
      </trkpt>
      <trkpt lat="48.01853" lon="6.77684">
        <ele>550.2</ele>
        <time>2022-06-26T06:29:39Z</time>
      </trkpt>
      <trkpt lat="48.01855" lon="6.77688">
        <ele>550.6</ele>
        <time>2022-06-26T06:29:40Z</time>
      </trkpt>
      <trkpt lat="48.01856" lon="6.77691">
        <ele>550.8</ele>
        <time>2022-06-26T06:29:41Z</time>
      </trkpt>
      <trkpt lat="48.01857" lon="6.77694">
        <ele>551</ele>
        <time>2022-06-26T06:29:42Z</time>
      </trkpt>
      <trkpt lat="48.01858" lon="6.77698">
        <ele>551.2</ele>
        <time>2022-06-26T06:29:43Z</time>
      </trkpt>
      <trkpt lat="48.0186" lon="6.77704">
        <ele>551.4</ele>
        <time>2022-06-26T06:29:45Z</time>
      </trkpt>
      <trkpt lat="48.01861" lon="6.77707">
        <ele>551.4</ele>
        <time>2022-06-26T06:29:46Z</time>
      </trkpt>
      <trkpt lat="48.01862" lon="6.7771">
        <ele>551.8</ele>
        <time>2022-06-26T06:29:47Z</time>
      </trkpt>
      <trkpt lat="48.01862" lon="6.77714">
        <ele>552</ele>
        <time>2022-06-26T06:29:48Z</time>
      </trkpt>
      <trkpt lat="48.01863" lon="6.77717">
        <ele>552.2</ele>
        <time>2022-06-26T06:29:49Z</time>
      </trkpt>
      <trkpt lat="48.01864" lon="6.77721">
        <ele>552.4</ele>
        <time>2022-06-26T06:29:50Z</time>
      </trkpt>
      <trkpt lat="48.01864" lon="6.77724">
        <ele>552.4</ele>
        <time>2022-06-26T06:29:51Z</time>
      </trkpt>
      <trkpt lat="48.01864" lon="6.77726">
        <ele>552.8</ele>
        <time>2022-06-26T06:29:52Z</time>
      </trkpt>
      <trkpt lat="48.01864" lon="6.7773">
        <ele>552.8</ele>
        <time>2022-06-26T06:29:53Z</time>
      </trkpt>
      <trkpt lat="48.01864" lon="6.77733">
        <ele>553</ele>
        <time>2022-06-26T06:29:54Z</time>
      </trkpt>
      <trkpt lat="48.01864" lon="6.77735">
        <ele>553.2</ele>
        <time>2022-06-26T06:29:55Z</time>
      </trkpt>
      <trkpt lat="48.01863" lon="6.77738">
        <ele>553.4</ele>
        <time>2022-06-26T06:29:56Z</time>
      </trkpt>
      <trkpt lat="48.01863" lon="6.77741">
        <ele>553.6</ele>
        <time>2022-06-26T06:29:57Z</time>
      </trkpt>
      <trkpt lat="48.01863" lon="6.77744">
        <ele>553.6</ele>
        <time>2022-06-26T06:29:58Z</time>
      </trkpt>
      <trkpt lat="48.01863" lon="6.77747">
        <ele>554</ele>
        <time>2022-06-26T06:29:59Z</time>
      </trkpt>
      <trkpt lat="48.01862" lon="6.7775">
        <ele>554.2</ele>
        <time>2022-06-26T06:30:00Z</time>
      </trkpt>
      <trkpt lat="48.01862" lon="6.77752">
        <ele>554.6</ele>
        <time>2022-06-26T06:30:01Z</time>
      </trkpt>
      <trkpt lat="48.01861" lon="6.77755">
        <ele>554.6</ele>
        <time>2022-06-26T06:30:02Z</time>
      </trkpt>
      <trkpt lat="48.01861" lon="6.77757">
        <ele>554.8</ele>
        <time>2022-06-26T06:30:03Z</time>
      </trkpt>
      <trkpt lat="48.01861" lon="6.7776">
        <ele>555.2</ele>
        <time>2022-06-26T06:30:04Z</time>
      </trkpt>
      <trkpt lat="48.01861" lon="6.77763">
        <ele>555.4</ele>
        <time>2022-06-26T06:30:05Z</time>
      </trkpt>
      <trkpt lat="48.0186" lon="6.77765">
        <ele>555.6</ele>
        <time>2022-06-26T06:30:06Z</time>
      </trkpt>
      <trkpt lat="48.0186" lon="6.77768">
        <ele>555.8</ele>
        <time>2022-06-26T06:30:07Z</time>
      </trkpt>
      <trkpt lat="48.0186" lon="6.7777">
        <ele>556</ele>
        <time>2022-06-26T06:30:08Z</time>
      </trkpt>
      <trkpt lat="48.01859" lon="6.77773">
        <ele>556</ele>
        <time>2022-06-26T06:30:09Z</time>
      </trkpt>
      <trkpt lat="48.01858" lon="6.77775">
        <ele>556.2</ele>
        <time>2022-06-26T06:30:10Z</time>
      </trkpt>
      <trkpt lat="48.01858" lon="6.77778">
        <ele>556.4</ele>
        <time>2022-06-26T06:30:11Z</time>
      </trkpt>
      <trkpt lat="48.01858" lon="6.77779">
        <ele>556.6</ele>
        <time>2022-06-26T06:30:12Z</time>
      </trkpt>
      <trkpt lat="48.01858" lon="6.77781">
        <ele>556.8</ele>
        <time>2022-06-26T06:30:13Z</time>
      </trkpt>
      <trkpt lat="48.01858" lon="6.77783">
        <ele>557.2</ele>
        <time>2022-06-26T06:30:14Z</time>
      </trkpt>
      <trkpt lat="48.01858" lon="6.77785">
        <ele>557.4</ele>
        <time>2022-06-26T06:30:15Z</time>
      </trkpt>
      <trkpt lat="48.01858" lon="6.77788">
        <ele>557.6</ele>
        <time>2022-06-26T06:30:16Z</time>
      </trkpt>
      <trkpt lat="48.01858" lon="6.7779">
        <ele>557.8</ele>
        <time>2022-06-26T06:30:17Z</time>
      </trkpt>
      <trkpt lat="48.01859" lon="6.77792">
        <ele>558</ele>
        <time>2022-06-26T06:30:18Z</time>
      </trkpt>
      <trkpt lat="48.01861" lon="6.77794">
        <ele>558</ele>
        <time>2022-06-26T06:30:19Z</time>
      </trkpt>
      <trkpt lat="48.01863" lon="6.77796">
        <ele>558.2</ele>
        <time>2022-06-26T06:30:20Z</time>
      </trkpt>
      <trkpt lat="48.01865" lon="6.77799">
        <ele>558.2</ele>
        <time>2022-06-26T06:30:21Z</time>
      </trkpt>
      <trkpt lat="48.01867" lon="6.77802">
        <ele>558.2</ele>
        <time>2022-06-26T06:30:22Z</time>
      </trkpt>
      <trkpt lat="48.01869" lon="6.77806">
        <ele>558.2</ele>
        <time>2022-06-26T06:30:23Z</time>
      </trkpt>
      <trkpt lat="48.01873" lon="6.7781">
        <ele>558.2</ele>
        <time>2022-06-26T06:30:24Z</time>
      </trkpt>
      <trkpt lat="48.01876" lon="6.77815">
        <ele>558.2</ele>
        <time>2022-06-26T06:30:25Z</time>
      </trkpt>
      <trkpt lat="48.0188" lon="6.7782">
        <ele>558.2</ele>
        <time>2022-06-26T06:30:26Z</time>
      </trkpt>
      <trkpt lat="48.01883" lon="6.77824">
        <ele>558.2</ele>
        <time>2022-06-26T06:30:27Z</time>
      </trkpt>
      <trkpt lat="48.01886" lon="6.77827">
        <ele>558</ele>
        <time>2022-06-26T06:30:28Z</time>
      </trkpt>
      <trkpt lat="48.0189" lon="6.77833">
        <ele>558</ele>
        <time>2022-06-26T06:30:29Z</time>
      </trkpt>
      <trkpt lat="48.01892" lon="6.77837">
        <ele>557.6</ele>
        <time>2022-06-26T06:30:30Z</time>
      </trkpt>
      <trkpt lat="48.01893" lon="6.77841">
        <ele>557.4</ele>
        <time>2022-06-26T06:30:31Z</time>
      </trkpt>
      <trkpt lat="48.01894" lon="6.77845">
        <ele>557.4</ele>
        <time>2022-06-26T06:30:32Z</time>
      </trkpt>
      <trkpt lat="48.01896" lon="6.7785">
        <ele>557.4</ele>
        <time>2022-06-26T06:30:33Z</time>
      </trkpt>
      <trkpt lat="48.01897" lon="6.77856">
        <ele>557.2</ele>
        <time>2022-06-26T06:30:34Z</time>
      </trkpt>
      <trkpt lat="48.01898" lon="6.77861">
        <ele>557.2</ele>
        <time>2022-06-26T06:30:35Z</time>
      </trkpt>
      <trkpt lat="48.01901" lon="6.77866">
        <ele>557.2</ele>
        <time>2022-06-26T06:30:36Z</time>
      </trkpt>
      <trkpt lat="48.01903" lon="6.77886">
        <ele>557.6</ele>
        <time>2022-06-26T06:30:40Z</time>
      </trkpt>
      <trkpt lat="48.01903" lon="6.77893">
        <ele>557.8</ele>
        <time>2022-06-26T06:30:41Z</time>
      </trkpt>
      <trkpt lat="48.01901" lon="6.779">
        <ele>557.8</ele>
        <time>2022-06-26T06:30:42Z</time>
      </trkpt>
      <trkpt lat="48.01899" lon="6.77906">
        <ele>557.8</ele>
        <time>2022-06-26T06:30:43Z</time>
      </trkpt>
      <trkpt lat="48.01897" lon="6.77911">
        <ele>557.8</ele>
        <time>2022-06-26T06:30:44Z</time>
      </trkpt>
      <trkpt lat="48.01895" lon="6.77922">
        <ele>558</ele>
        <time>2022-06-26T06:30:46Z</time>
      </trkpt>
      <trkpt lat="48.01897" lon="6.77927">
        <ele>558</ele>
        <time>2022-06-26T06:30:47Z</time>
      </trkpt>
      <trkpt lat="48.01899" lon="6.77934">
        <ele>558</ele>
        <time>2022-06-26T06:30:48Z</time>
      </trkpt>
      <trkpt lat="48.01902" lon="6.7794">
        <ele>558</ele>
        <time>2022-06-26T06:30:49Z</time>
      </trkpt>
      <trkpt lat="48.01904" lon="6.77945">
        <ele>558</ele>
        <time>2022-06-26T06:30:50Z</time>
      </trkpt>
      <trkpt lat="48.01905" lon="6.77949">
        <ele>558</ele>
        <time>2022-06-26T06:30:51Z</time>
      </trkpt>
      <trkpt lat="48.01906" lon="6.77954">
        <ele>558</ele>
        <time>2022-06-26T06:30:52Z</time>
      </trkpt>
      <trkpt lat="48.01907" lon="6.77959">
        <ele>558</ele>
        <time>2022-06-26T06:30:53Z</time>
      </trkpt>
      <trkpt lat="48.01908" lon="6.77963">
        <ele>557.8</ele>
        <time>2022-06-26T06:30:54Z</time>
      </trkpt>
      <trkpt lat="48.01908" lon="6.77968">
        <ele>558</ele>
        <time>2022-06-26T06:30:55Z</time>
      </trkpt>
      <trkpt lat="48.01908" lon="6.77973">
        <ele>558.2</ele>
        <time>2022-06-26T06:30:56Z</time>
      </trkpt>
      <trkpt lat="48.01907" lon="6.77978">
        <ele>558.2</ele>
        <time>2022-06-26T06:30:57Z</time>
      </trkpt>
      <trkpt lat="48.01905" lon="6.77983">
        <ele>558.2</ele>
        <time>2022-06-26T06:30:58Z</time>
      </trkpt>
      <trkpt lat="48.01903" lon="6.7799">
        <ele>558.4</ele>
        <time>2022-06-26T06:30:59Z</time>
      </trkpt>
      <trkpt lat="48.01901" lon="6.78008">
        <ele>558.4</ele>
        <time>2022-06-26T06:31:01Z</time>
      </trkpt>
      <trkpt lat="48.01902" lon="6.78017">
        <ele>558.4</ele>
        <time>2022-06-26T06:31:02Z</time>
      </trkpt>
      <trkpt lat="48.01904" lon="6.78027">
        <ele>558.4</ele>
        <time>2022-06-26T06:31:03Z</time>
      </trkpt>
      <trkpt lat="48.01907" lon="6.78036">
        <ele>558.2</ele>
        <time>2022-06-26T06:31:04Z</time>
      </trkpt>
      <trkpt lat="48.01912" lon="6.78044">
        <ele>557.8</ele>
        <time>2022-06-26T06:31:05Z</time>
      </trkpt>
      <trkpt lat="48.01922" lon="6.78055">
        <ele>556.8</ele>
        <time>2022-06-26T06:31:07Z</time>
      </trkpt>
      <trkpt lat="48.01926" lon="6.7806">
        <ele>556.2</ele>
        <time>2022-06-26T06:31:08Z</time>
      </trkpt>
      <trkpt lat="48.0193" lon="6.78064">
        <ele>556</ele>
        <time>2022-06-26T06:31:09Z</time>
      </trkpt>
      <trkpt lat="48.01932" lon="6.78069">
        <ele>555.8</ele>
        <time>2022-06-26T06:31:10Z</time>
      </trkpt>
      <trkpt lat="48.01935" lon="6.78073">
        <ele>555.8</ele>
        <time>2022-06-26T06:31:11Z</time>
      </trkpt>
      <trkpt lat="48.01937" lon="6.78077">
        <ele>555.8</ele>
        <time>2022-06-26T06:31:12Z</time>
      </trkpt>
      <trkpt lat="48.01938" lon="6.78081">
        <ele>555.8</ele>
        <time>2022-06-26T06:31:13Z</time>
      </trkpt>
      <trkpt lat="48.0194" lon="6.78086">
        <ele>555.8</ele>
        <time>2022-06-26T06:31:14Z</time>
      </trkpt>
      <trkpt lat="48.01951" lon="6.78118">
        <ele>556.6</ele>
        <time>2022-06-26T06:31:19Z</time>
      </trkpt>
      <trkpt lat="48.01963" lon="6.78155">
        <ele>556</ele>
        <time>2022-06-26T06:31:24Z</time>
      </trkpt>
      <trkpt lat="48.01964" lon="6.78162">
        <ele>555.8</ele>
        <time>2022-06-26T06:31:25Z</time>
      </trkpt>
      <trkpt lat="48.01966" lon="6.78169">
        <ele>555.4</ele>
        <time>2022-06-26T06:31:26Z</time>
      </trkpt>
      <trkpt lat="48.01969" lon="6.78184">
        <ele>555.2</ele>
        <time>2022-06-26T06:31:28Z</time>
      </trkpt>
      <trkpt lat="48.01975" lon="6.78215">
        <ele>554.8</ele>
        <time>2022-06-26T06:31:32Z</time>
      </trkpt>
      <trkpt lat="48.01978" lon="6.78221">
        <ele>554.8</ele>
        <time>2022-06-26T06:31:33Z</time>
      </trkpt>
      <trkpt lat="48.0198" lon="6.78228">
        <ele>554.6</ele>
        <time>2022-06-26T06:31:34Z</time>
      </trkpt>
      <trkpt lat="48.01988" lon="6.78252">
        <ele>554.4</ele>
        <time>2022-06-26T06:31:37Z</time>
      </trkpt>
      <trkpt lat="48.01991" lon="6.7826">
        <ele>554.2</ele>
        <time>2022-06-26T06:31:38Z</time>
      </trkpt>
      <trkpt lat="48.01995" lon="6.78278">
        <ele>553.6</ele>
        <time>2022-06-26T06:31:40Z</time>
      </trkpt>
      <trkpt lat="48.01997" lon="6.78287">
        <ele>553.6</ele>
        <time>2022-06-26T06:31:41Z</time>
      </trkpt>
      <trkpt lat="48.01997" lon="6.78295">
        <ele>553.2</ele>
        <time>2022-06-26T06:31:42Z</time>
      </trkpt>
      <trkpt lat="48.01997" lon="6.78302">
        <ele>553</ele>
        <time>2022-06-26T06:31:43Z</time>
      </trkpt>
      <trkpt lat="48.01996" lon="6.78308">
        <ele>552.8</ele>
        <time>2022-06-26T06:31:44Z</time>
      </trkpt>
      <trkpt lat="48.01995" lon="6.78313">
        <ele>552.8</ele>
        <time>2022-06-26T06:31:45Z</time>
      </trkpt>
      <trkpt lat="48.01994" lon="6.78317">
        <ele>552.6</ele>
        <time>2022-06-26T06:31:46Z</time>
      </trkpt>
      <trkpt lat="48.01993" lon="6.78321">
        <ele>552.6</ele>
        <time>2022-06-26T06:31:47Z</time>
      </trkpt>
      <trkpt lat="48.01992" lon="6.78324">
        <ele>552.6</ele>
        <time>2022-06-26T06:31:48Z</time>
      </trkpt>
      <trkpt lat="48.01991" lon="6.78328">
        <ele>552.8</ele>
        <time>2022-06-26T06:31:49Z</time>
      </trkpt>
      <trkpt lat="48.0199" lon="6.78332">
        <ele>553</ele>
        <time>2022-06-26T06:31:50Z</time>
      </trkpt>
      <trkpt lat="48.0199" lon="6.78335">
        <ele>553.2</ele>
        <time>2022-06-26T06:31:51Z</time>
      </trkpt>
      <trkpt lat="48.01988" lon="6.78342">
        <ele>553.8</ele>
        <time>2022-06-26T06:31:53Z</time>
      </trkpt>
      <trkpt lat="48.01988" lon="6.78345">
        <ele>554</ele>
        <time>2022-06-26T06:31:54Z</time>
      </trkpt>
      <trkpt lat="48.01987" lon="6.78348">
        <ele>554.2</ele>
        <time>2022-06-26T06:31:55Z</time>
      </trkpt>
      <trkpt lat="48.01986" lon="6.78351">
        <ele>554.6</ele>
        <time>2022-06-26T06:31:56Z</time>
      </trkpt>
      <trkpt lat="48.01985" lon="6.78354">
        <ele>554.8</ele>
        <time>2022-06-26T06:31:57Z</time>
      </trkpt>
      <trkpt lat="48.01984" lon="6.78357">
        <ele>555</ele>
        <time>2022-06-26T06:31:58Z</time>
      </trkpt>
      <trkpt lat="48.01983" lon="6.7836">
        <ele>555.2</ele>
        <time>2022-06-26T06:31:59Z</time>
      </trkpt>
      <trkpt lat="48.01983" lon="6.78363">
        <ele>555.6</ele>
        <time>2022-06-26T06:32:00Z</time>
      </trkpt>
      <trkpt lat="48.01982" lon="6.78365">
        <ele>555.8</ele>
        <time>2022-06-26T06:32:01Z</time>
      </trkpt>
      <trkpt lat="48.01981" lon="6.78368">
        <ele>556.2</ele>
        <time>2022-06-26T06:32:02Z</time>
      </trkpt>
      <trkpt lat="48.01981" lon="6.78371">
        <ele>556.2</ele>
        <time>2022-06-26T06:32:03Z</time>
      </trkpt>
      <trkpt lat="48.0198" lon="6.78374">
        <ele>556.6</ele>
        <time>2022-06-26T06:32:04Z</time>
      </trkpt>
      <trkpt lat="48.01979" lon="6.78377">
        <ele>556.8</ele>
        <time>2022-06-26T06:32:05Z</time>
      </trkpt>
      <trkpt lat="48.01978" lon="6.78379">
        <ele>557</ele>
        <time>2022-06-26T06:32:06Z</time>
      </trkpt>
      <trkpt lat="48.01977" lon="6.78382">
        <ele>557.2</ele>
        <time>2022-06-26T06:32:07Z</time>
      </trkpt>
      <trkpt lat="48.01976" lon="6.78384">
        <ele>557.4</ele>
        <time>2022-06-26T06:32:08Z</time>
      </trkpt>
      <trkpt lat="48.01975" lon="6.78387">
        <ele>557.6</ele>
        <time>2022-06-26T06:32:09Z</time>
      </trkpt>
      <trkpt lat="48.01974" lon="6.78389">
        <ele>557.6</ele>
        <time>2022-06-26T06:32:10Z</time>
      </trkpt>
      <trkpt lat="48.01974" lon="6.78392">
        <ele>557.8</ele>
        <time>2022-06-26T06:32:11Z</time>
      </trkpt>
      <trkpt lat="48.01974" lon="6.78395">
        <ele>558</ele>
        <time>2022-06-26T06:32:12Z</time>
      </trkpt>
      <trkpt lat="48.01975" lon="6.78398">
        <ele>558.4</ele>
        <time>2022-06-26T06:32:13Z</time>
      </trkpt>
      <trkpt lat="48.01975" lon="6.78401">
        <ele>558.8</ele>
        <time>2022-06-26T06:32:14Z</time>
      </trkpt>
      <trkpt lat="48.01974" lon="6.78404">
        <ele>559</ele>
        <time>2022-06-26T06:32:15Z</time>
      </trkpt>
      <trkpt lat="48.01974" lon="6.78407">
        <ele>559.2</ele>
        <time>2022-06-26T06:32:16Z</time>
      </trkpt>
      <trkpt lat="48.01974" lon="6.7841">
        <ele>559.2</ele>
        <time>2022-06-26T06:32:17Z</time>
      </trkpt>
      <trkpt lat="48.01974" lon="6.78413">
        <ele>559.4</ele>
        <time>2022-06-26T06:32:18Z</time>
      </trkpt>
      <trkpt lat="48.01974" lon="6.78415">
        <ele>559.6</ele>
        <time>2022-06-26T06:32:19Z</time>
      </trkpt>
      <trkpt lat="48.01974" lon="6.78419">
        <ele>559.8</ele>
        <time>2022-06-26T06:32:20Z</time>
      </trkpt>
      <trkpt lat="48.01974" lon="6.78422">
        <ele>560</ele>
        <time>2022-06-26T06:32:21Z</time>
      </trkpt>
      <trkpt lat="48.01974" lon="6.78425">
        <ele>560.2</ele>
        <time>2022-06-26T06:32:22Z</time>
      </trkpt>
      <trkpt lat="48.01974" lon="6.78428">
        <ele>560.6</ele>
        <time>2022-06-26T06:32:23Z</time>
      </trkpt>
      <trkpt lat="48.01973" lon="6.78431">
        <ele>560.8</ele>
        <time>2022-06-26T06:32:24Z</time>
      </trkpt>
      <trkpt lat="48.01973" lon="6.78434">
        <ele>561</ele>
        <time>2022-06-26T06:32:25Z</time>
      </trkpt>
      <trkpt lat="48.01973" lon="6.78437">
        <ele>561</ele>
        <time>2022-06-26T06:32:26Z</time>
      </trkpt>
      <trkpt lat="48.01973" lon="6.7844">
        <ele>561.2</ele>
        <time>2022-06-26T06:32:27Z</time>
      </trkpt>
      <trkpt lat="48.01973" lon="6.78443">
        <ele>561.4</ele>
        <time>2022-06-26T06:32:28Z</time>
      </trkpt>
      <trkpt lat="48.01973" lon="6.78446">
        <ele>561.6</ele>
        <time>2022-06-26T06:32:29Z</time>
      </trkpt>
      <trkpt lat="48.01973" lon="6.78449">
        <ele>561.6</ele>
        <time>2022-06-26T06:32:30Z</time>
      </trkpt>
      <trkpt lat="48.01973" lon="6.78452">
        <ele>561.6</ele>
        <time>2022-06-26T06:32:31Z</time>
      </trkpt>
      <trkpt lat="48.01973" lon="6.78455">
        <ele>562</ele>
        <time>2022-06-26T06:32:32Z</time>
      </trkpt>
      <trkpt lat="48.01973" lon="6.78458">
        <ele>562.2</ele>
        <time>2022-06-26T06:32:33Z</time>
      </trkpt>
      <trkpt lat="48.01973" lon="6.78461">
        <ele>562.4</ele>
        <time>2022-06-26T06:32:34Z</time>
      </trkpt>
      <trkpt lat="48.01972" lon="6.78465">
        <ele>562.4</ele>
        <time>2022-06-26T06:32:35Z</time>
      </trkpt>
      <trkpt lat="48.01972" lon="6.78468">
        <ele>562.4</ele>
        <time>2022-06-26T06:32:36Z</time>
      </trkpt>
      <trkpt lat="48.01972" lon="6.78471">
        <ele>562.6</ele>
        <time>2022-06-26T06:32:37Z</time>
      </trkpt>
      <trkpt lat="48.01972" lon="6.78474">
        <ele>562.8</ele>
        <time>2022-06-26T06:32:38Z</time>
      </trkpt>
      <trkpt lat="48.01972" lon="6.78477">
        <ele>563</ele>
        <time>2022-06-26T06:32:39Z</time>
      </trkpt>
      <trkpt lat="48.01972" lon="6.78481">
        <ele>563.2</ele>
        <time>2022-06-26T06:32:40Z</time>
      </trkpt>
      <trkpt lat="48.01972" lon="6.78483">
        <ele>563.4</ele>
        <time>2022-06-26T06:32:41Z</time>
      </trkpt>
      <trkpt lat="48.01972" lon="6.78486">
        <ele>563.6</ele>
        <time>2022-06-26T06:32:42Z</time>
      </trkpt>
      <trkpt lat="48.01972" lon="6.78489">
        <ele>563.6</ele>
        <time>2022-06-26T06:32:43Z</time>
      </trkpt>
      <trkpt lat="48.01972" lon="6.78492">
        <ele>563.8</ele>
        <time>2022-06-26T06:32:44Z</time>
      </trkpt>
      <trkpt lat="48.01972" lon="6.78495">
        <ele>564</ele>
        <time>2022-06-26T06:32:45Z</time>
      </trkpt>
      <trkpt lat="48.01971" lon="6.78497">
        <ele>564.2</ele>
        <time>2022-06-26T06:32:46Z</time>
      </trkpt>
      <trkpt lat="48.01971" lon="6.785">
        <ele>564.6</ele>
        <time>2022-06-26T06:32:47Z</time>
      </trkpt>
      <trkpt lat="48.01971" lon="6.78503">
        <ele>564.8</ele>
        <time>2022-06-26T06:32:48Z</time>
      </trkpt>
      <trkpt lat="48.01971" lon="6.78506">
        <ele>565</ele>
        <time>2022-06-26T06:32:49Z</time>
      </trkpt>
      <trkpt lat="48.01972" lon="6.7851">
        <ele>565.2</ele>
        <time>2022-06-26T06:32:50Z</time>
      </trkpt>
      <trkpt lat="48.01972" lon="6.78513">
        <ele>565.2</ele>
        <time>2022-06-26T06:32:51Z</time>
      </trkpt>
      <trkpt lat="48.01972" lon="6.78516">
        <ele>565.4</ele>
        <time>2022-06-26T06:32:52Z</time>
      </trkpt>
      <trkpt lat="48.01973" lon="6.7852">
        <ele>565.6</ele>
        <time>2022-06-26T06:32:53Z</time>
      </trkpt>
      <trkpt lat="48.01973" lon="6.78523">
        <ele>565.8</ele>
        <time>2022-06-26T06:32:54Z</time>
      </trkpt>
      <trkpt lat="48.01974" lon="6.78527">
        <ele>565.8</ele>
        <time>2022-06-26T06:32:55Z</time>
      </trkpt>
      <trkpt lat="48.01974" lon="6.78531">
        <ele>566</ele>
        <time>2022-06-26T06:32:56Z</time>
      </trkpt>
      <trkpt lat="48.01974" lon="6.78534">
        <ele>566</ele>
        <time>2022-06-26T06:32:57Z</time>
      </trkpt>
      <trkpt lat="48.01974" lon="6.78538">
        <ele>566.2</ele>
        <time>2022-06-26T06:32:58Z</time>
      </trkpt>
      <trkpt lat="48.01974" lon="6.78541">
        <ele>566.4</ele>
        <time>2022-06-26T06:32:59Z</time>
      </trkpt>
      <trkpt lat="48.01975" lon="6.78544">
        <ele>566.4</ele>
        <time>2022-06-26T06:33:00Z</time>
      </trkpt>
      <trkpt lat="48.01976" lon="6.78547">
        <ele>566.6</ele>
        <time>2022-06-26T06:33:01Z</time>
      </trkpt>
      <trkpt lat="48.01976" lon="6.78551">
        <ele>566.6</ele>
        <time>2022-06-26T06:33:02Z</time>
      </trkpt>
      <trkpt lat="48.01977" lon="6.78554">
        <ele>566.8</ele>
        <time>2022-06-26T06:33:03Z</time>
      </trkpt>
      <trkpt lat="48.01978" lon="6.78557">
        <ele>567</ele>
        <time>2022-06-26T06:33:04Z</time>
      </trkpt>
      <trkpt lat="48.01978" lon="6.7856">
        <ele>567.2</ele>
        <time>2022-06-26T06:33:05Z</time>
      </trkpt>
      <trkpt lat="48.01979" lon="6.78563">
        <ele>567.4</ele>
        <time>2022-06-26T06:33:06Z</time>
      </trkpt>
      <trkpt lat="48.0198" lon="6.78566">
        <ele>567.4</ele>
        <time>2022-06-26T06:33:07Z</time>
      </trkpt>
      <trkpt lat="48.0198" lon="6.78569">
        <ele>567.6</ele>
        <time>2022-06-26T06:33:08Z</time>
      </trkpt>
      <trkpt lat="48.01981" lon="6.78573">
        <ele>567.6</ele>
        <time>2022-06-26T06:33:09Z</time>
      </trkpt>
      <trkpt lat="48.01981" lon="6.78576">
        <ele>568</ele>
        <time>2022-06-26T06:33:10Z</time>
      </trkpt>
      <trkpt lat="48.01982" lon="6.7858">
        <ele>568</ele>
        <time>2022-06-26T06:33:11Z</time>
      </trkpt>
      <trkpt lat="48.01982" lon="6.78583">
        <ele>568.4</ele>
        <time>2022-06-26T06:33:12Z</time>
      </trkpt>
      <trkpt lat="48.01983" lon="6.78587">
        <ele>568.4</ele>
        <time>2022-06-26T06:33:13Z</time>
      </trkpt>
      <trkpt lat="48.01983" lon="6.7859">
        <ele>568.6</ele>
        <time>2022-06-26T06:33:14Z</time>
      </trkpt>
      <trkpt lat="48.01983" lon="6.78593">
        <ele>568.8</ele>
        <time>2022-06-26T06:33:15Z</time>
      </trkpt>
      <trkpt lat="48.01983" lon="6.78597">
        <ele>569</ele>
        <time>2022-06-26T06:33:16Z</time>
      </trkpt>
      <trkpt lat="48.01983" lon="6.78601">
        <ele>569.2</ele>
        <time>2022-06-26T06:33:17Z</time>
      </trkpt>
      <trkpt lat="48.01984" lon="6.78604">
        <ele>569.2</ele>
        <time>2022-06-26T06:33:18Z</time>
      </trkpt>
      <trkpt lat="48.01984" lon="6.78607">
        <ele>569.4</ele>
        <time>2022-06-26T06:33:19Z</time>
      </trkpt>
      <trkpt lat="48.01984" lon="6.78611">
        <ele>569.4</ele>
        <time>2022-06-26T06:33:20Z</time>
      </trkpt>
      <trkpt lat="48.01984" lon="6.78614">
        <ele>569.6</ele>
        <time>2022-06-26T06:33:21Z</time>
      </trkpt>
      <trkpt lat="48.01985" lon="6.78618">
        <ele>569.8</ele>
        <time>2022-06-26T06:33:22Z</time>
      </trkpt>
      <trkpt lat="48.01985" lon="6.78621">
        <ele>569.8</ele>
        <time>2022-06-26T06:33:23Z</time>
      </trkpt>
      <trkpt lat="48.01985" lon="6.78624">
        <ele>570</ele>
        <time>2022-06-26T06:33:24Z</time>
      </trkpt>
      <trkpt lat="48.01986" lon="6.78628">
        <ele>570</ele>
        <time>2022-06-26T06:33:25Z</time>
      </trkpt>
      <trkpt lat="48.01987" lon="6.78631">
        <ele>570</ele>
        <time>2022-06-26T06:33:26Z</time>
      </trkpt>
      <trkpt lat="48.01987" lon="6.78634">
        <ele>570.2</ele>
        <time>2022-06-26T06:33:27Z</time>
      </trkpt>
      <trkpt lat="48.01988" lon="6.78638">
        <ele>570.4</ele>
        <time>2022-06-26T06:33:28Z</time>
      </trkpt>
      <trkpt lat="48.01988" lon="6.78641">
        <ele>570.6</ele>
        <time>2022-06-26T06:33:29Z</time>
      </trkpt>
      <trkpt lat="48.01989" lon="6.78644">
        <ele>571</ele>
        <time>2022-06-26T06:33:30Z</time>
      </trkpt>
      <trkpt lat="48.0199" lon="6.78647">
        <ele>571</ele>
        <time>2022-06-26T06:33:31Z</time>
      </trkpt>
      <trkpt lat="48.01991" lon="6.7865">
        <ele>571.2</ele>
        <time>2022-06-26T06:33:32Z</time>
      </trkpt>
      <trkpt lat="48.01992" lon="6.78653">
        <ele>571.4</ele>
        <time>2022-06-26T06:33:33Z</time>
      </trkpt>
      <trkpt lat="48.01992" lon="6.78656">
        <ele>571.4</ele>
        <time>2022-06-26T06:33:34Z</time>
      </trkpt>
      <trkpt lat="48.01993" lon="6.7866">
        <ele>571.8</ele>
        <time>2022-06-26T06:33:35Z</time>
      </trkpt>
      <trkpt lat="48.01994" lon="6.78663">
        <ele>571.8</ele>
        <time>2022-06-26T06:33:36Z</time>
      </trkpt>
      <trkpt lat="48.01995" lon="6.78666">
        <ele>572.2</ele>
        <time>2022-06-26T06:33:37Z</time>
      </trkpt>
      <trkpt lat="48.01996" lon="6.78669">
        <ele>572.2</ele>
        <time>2022-06-26T06:33:38Z</time>
      </trkpt>
      <trkpt lat="48.01996" lon="6.78672">
        <ele>572.6</ele>
        <time>2022-06-26T06:33:39Z</time>
      </trkpt>
      <trkpt lat="48.01997" lon="6.78676">
        <ele>572.6</ele>
        <time>2022-06-26T06:33:40Z</time>
      </trkpt>
      <trkpt lat="48.01997" lon="6.78679">
        <ele>572.8</ele>
        <time>2022-06-26T06:33:41Z</time>
      </trkpt>
      <trkpt lat="48.01998" lon="6.78682">
        <ele>573</ele>
        <time>2022-06-26T06:33:42Z</time>
      </trkpt>
      <trkpt lat="48.01998" lon="6.78686">
        <ele>573</ele>
        <time>2022-06-26T06:33:43Z</time>
      </trkpt>
      <trkpt lat="48.01998" lon="6.78689">
        <ele>573.2</ele>
        <time>2022-06-26T06:33:44Z</time>
      </trkpt>
      <trkpt lat="48.01998" lon="6.78692">
        <ele>573.2</ele>
        <time>2022-06-26T06:33:45Z</time>
      </trkpt>
      <trkpt lat="48.01998" lon="6.78696">
        <ele>573.4</ele>
        <time>2022-06-26T06:33:46Z</time>
      </trkpt>
      <trkpt lat="48.01997" lon="6.787">
        <ele>573.4</ele>
        <time>2022-06-26T06:33:47Z</time>
      </trkpt>
      <trkpt lat="48.01997" lon="6.78703">
        <ele>573.6</ele>
        <time>2022-06-26T06:33:48Z</time>
      </trkpt>
      <trkpt lat="48.01997" lon="6.78707">
        <ele>573.6</ele>
        <time>2022-06-26T06:33:49Z</time>
      </trkpt>
      <trkpt lat="48.01996" lon="6.7871">
        <ele>573.8</ele>
        <time>2022-06-26T06:33:50Z</time>
      </trkpt>
      <trkpt lat="48.01995" lon="6.78713">
        <ele>574</ele>
        <time>2022-06-26T06:33:51Z</time>
      </trkpt>
      <trkpt lat="48.01995" lon="6.78717">
        <ele>574.2</ele>
        <time>2022-06-26T06:33:52Z</time>
      </trkpt>
      <trkpt lat="48.01994" lon="6.7872">
        <ele>574.4</ele>
        <time>2022-06-26T06:33:53Z</time>
      </trkpt>
      <trkpt lat="48.01994" lon="6.78723">
        <ele>574.6</ele>
        <time>2022-06-26T06:33:54Z</time>
      </trkpt>
      <trkpt lat="48.01993" lon="6.78726">
        <ele>574.8</ele>
        <time>2022-06-26T06:33:55Z</time>
      </trkpt>
      <trkpt lat="48.01992" lon="6.78729">
        <ele>574.8</ele>
        <time>2022-06-26T06:33:56Z</time>
      </trkpt>
      <trkpt lat="48.01991" lon="6.78733">
        <ele>575</ele>
        <time>2022-06-26T06:33:57Z</time>
      </trkpt>
      <trkpt lat="48.0199" lon="6.78736">
        <ele>575</ele>
        <time>2022-06-26T06:33:58Z</time>
      </trkpt>
      <trkpt lat="48.0199" lon="6.78739">
        <ele>575.4</ele>
        <time>2022-06-26T06:33:59Z</time>
      </trkpt>
      <trkpt lat="48.01989" lon="6.78742">
        <ele>575.4</ele>
        <time>2022-06-26T06:34:00Z</time>
      </trkpt>
      <trkpt lat="48.01989" lon="6.78746">
        <ele>575.6</ele>
        <time>2022-06-26T06:34:01Z</time>
      </trkpt>
      <trkpt lat="48.01988" lon="6.78749">
        <ele>575.8</ele>
        <time>2022-06-26T06:34:02Z</time>
      </trkpt>
      <trkpt lat="48.01987" lon="6.78753">
        <ele>575.8</ele>
        <time>2022-06-26T06:34:03Z</time>
      </trkpt>
      <trkpt lat="48.01986" lon="6.78756">
        <ele>576</ele>
        <time>2022-06-26T06:34:04Z</time>
      </trkpt>
      <trkpt lat="48.01986" lon="6.7876">
        <ele>576</ele>
        <time>2022-06-26T06:34:05Z</time>
      </trkpt>
      <trkpt lat="48.01985" lon="6.78763">
        <ele>576.2</ele>
        <time>2022-06-26T06:34:06Z</time>
      </trkpt>
      <trkpt lat="48.01984" lon="6.78766">
        <ele>576.2</ele>
        <time>2022-06-26T06:34:07Z</time>
      </trkpt>
      <trkpt lat="48.01984" lon="6.7877">
        <ele>576.4</ele>
        <time>2022-06-26T06:34:08Z</time>
      </trkpt>
      <trkpt lat="48.01983" lon="6.78773">
        <ele>576.4</ele>
        <time>2022-06-26T06:34:09Z</time>
      </trkpt>
      <trkpt lat="48.01982" lon="6.78777">
        <ele>576.6</ele>
        <time>2022-06-26T06:34:10Z</time>
      </trkpt>
      <trkpt lat="48.0198" lon="6.7878">
        <ele>576.8</ele>
        <time>2022-06-26T06:34:11Z</time>
      </trkpt>
      <trkpt lat="48.01979" lon="6.78783">
        <ele>576.8</ele>
        <time>2022-06-26T06:34:12Z</time>
      </trkpt>
      <trkpt lat="48.01977" lon="6.78786">
        <ele>577</ele>
        <time>2022-06-26T06:34:13Z</time>
      </trkpt>
      <trkpt lat="48.01976" lon="6.78789">
        <ele>577</ele>
        <time>2022-06-26T06:34:14Z</time>
      </trkpt>
      <trkpt lat="48.01974" lon="6.78792">
        <ele>577.2</ele>
        <time>2022-06-26T06:34:15Z</time>
      </trkpt>
      <trkpt lat="48.01973" lon="6.78795">
        <ele>577.2</ele>
        <time>2022-06-26T06:34:16Z</time>
      </trkpt>
      <trkpt lat="48.01971" lon="6.78798">
        <ele>577.2</ele>
        <time>2022-06-26T06:34:17Z</time>
      </trkpt>
      <trkpt lat="48.0197" lon="6.78801">
        <ele>577.4</ele>
        <time>2022-06-26T06:34:18Z</time>
      </trkpt>
      <trkpt lat="48.01969" lon="6.78803">
        <ele>577.4</ele>
        <time>2022-06-26T06:34:19Z</time>
      </trkpt>
      <trkpt lat="48.01968" lon="6.78805">
        <ele>577.6</ele>
        <time>2022-06-26T06:34:20Z</time>
      </trkpt>
      <trkpt lat="48.01967" lon="6.78807">
        <ele>577.8</ele>
        <time>2022-06-26T06:34:21Z</time>
      </trkpt>
      <trkpt lat="48.01966" lon="6.7881">
        <ele>577.8</ele>
        <time>2022-06-26T06:34:22Z</time>
      </trkpt>
      <trkpt lat="48.01965" lon="6.78814">
        <ele>578</ele>
        <time>2022-06-26T06:34:23Z</time>
      </trkpt>
      <trkpt lat="48.01964" lon="6.78817">
        <ele>578</ele>
        <time>2022-06-26T06:34:24Z</time>
      </trkpt>
      <trkpt lat="48.01963" lon="6.78821">
        <ele>578.2</ele>
        <time>2022-06-26T06:34:25Z</time>
      </trkpt>
      <trkpt lat="48.01962" lon="6.78824">
        <ele>578.2</ele>
        <time>2022-06-26T06:34:26Z</time>
      </trkpt>
      <trkpt lat="48.01962" lon="6.78828">
        <ele>578.2</ele>
        <time>2022-06-26T06:34:27Z</time>
      </trkpt>
      <trkpt lat="48.01962" lon="6.78831">
        <ele>578.4</ele>
        <time>2022-06-26T06:34:28Z</time>
      </trkpt>
      <trkpt lat="48.01962" lon="6.78834">
        <ele>578.6</ele>
        <time>2022-06-26T06:34:29Z</time>
      </trkpt>
      <trkpt lat="48.01962" lon="6.78838">
        <ele>578.6</ele>
        <time>2022-06-26T06:34:30Z</time>
      </trkpt>
      <trkpt lat="48.01963" lon="6.78841">
        <ele>578.8</ele>
        <time>2022-06-26T06:34:31Z</time>
      </trkpt>
      <trkpt lat="48.01963" lon="6.78845">
        <ele>579</ele>
        <time>2022-06-26T06:34:32Z</time>
      </trkpt>
      <trkpt lat="48.01964" lon="6.78848">
        <ele>579</ele>
        <time>2022-06-26T06:34:33Z</time>
      </trkpt>
      <trkpt lat="48.01965" lon="6.78851">
        <ele>579.2</ele>
        <time>2022-06-26T06:34:34Z</time>
      </trkpt>
      <trkpt lat="48.01966" lon="6.78854">
        <ele>579.4</ele>
        <time>2022-06-26T06:34:35Z</time>
      </trkpt>
      <trkpt lat="48.01968" lon="6.78857">
        <ele>579.6</ele>
        <time>2022-06-26T06:34:36Z</time>
      </trkpt>
      <trkpt lat="48.01968" lon="6.7886">
        <ele>579.6</ele>
        <time>2022-06-26T06:34:37Z</time>
      </trkpt>
      <trkpt lat="48.01969" lon="6.78864">
        <ele>579.8</ele>
        <time>2022-06-26T06:34:38Z</time>
      </trkpt>
      <trkpt lat="48.01969" lon="6.78867">
        <ele>580</ele>
        <time>2022-06-26T06:34:39Z</time>
      </trkpt>
      <trkpt lat="48.0197" lon="6.7887">
        <ele>580.2</ele>
        <time>2022-06-26T06:34:40Z</time>
      </trkpt>
      <trkpt lat="48.0197" lon="6.78873">
        <ele>580.4</ele>
        <time>2022-06-26T06:34:41Z</time>
      </trkpt>
      <trkpt lat="48.01971" lon="6.78876">
        <ele>580.6</ele>
        <time>2022-06-26T06:34:42Z</time>
      </trkpt>
      <trkpt lat="48.01972" lon="6.7888">
        <ele>580.8</ele>
        <time>2022-06-26T06:34:43Z</time>
      </trkpt>
      <trkpt lat="48.01973" lon="6.78883">
        <ele>581</ele>
        <time>2022-06-26T06:34:44Z</time>
      </trkpt>
      <trkpt lat="48.01973" lon="6.78886">
        <ele>581.4</ele>
        <time>2022-06-26T06:34:45Z</time>
      </trkpt>
      <trkpt lat="48.01974" lon="6.7889">
        <ele>581.4</ele>
        <time>2022-06-26T06:34:46Z</time>
      </trkpt>
      <trkpt lat="48.01975" lon="6.78893">
        <ele>581.6</ele>
        <time>2022-06-26T06:34:47Z</time>
      </trkpt>
      <trkpt lat="48.01974" lon="6.78896">
        <ele>581.6</ele>
        <time>2022-06-26T06:34:48Z</time>
      </trkpt>
      <trkpt lat="48.01974" lon="6.789">
        <ele>581.8</ele>
        <time>2022-06-26T06:34:49Z</time>
      </trkpt>
      <trkpt lat="48.01973" lon="6.78903">
        <ele>582</ele>
        <time>2022-06-26T06:34:50Z</time>
      </trkpt>
      <trkpt lat="48.01973" lon="6.78906">
        <ele>582.2</ele>
        <time>2022-06-26T06:34:51Z</time>
      </trkpt>
      <trkpt lat="48.01973" lon="6.78909">
        <ele>582.4</ele>
        <time>2022-06-26T06:34:52Z</time>
      </trkpt>
      <trkpt lat="48.01974" lon="6.78912">
        <ele>582.6</ele>
        <time>2022-06-26T06:34:53Z</time>
      </trkpt>
      <trkpt lat="48.01974" lon="6.78916">
        <ele>582.8</ele>
        <time>2022-06-26T06:34:54Z</time>
      </trkpt>
      <trkpt lat="48.01975" lon="6.78919">
        <ele>583</ele>
        <time>2022-06-26T06:34:55Z</time>
      </trkpt>
      <trkpt lat="48.01975" lon="6.78922">
        <ele>583.2</ele>
        <time>2022-06-26T06:34:56Z</time>
      </trkpt>
      <trkpt lat="48.01975" lon="6.78925">
        <ele>583.2</ele>
        <time>2022-06-26T06:34:57Z</time>
      </trkpt>
      <trkpt lat="48.01975" lon="6.78929">
        <ele>583.4</ele>
        <time>2022-06-26T06:34:58Z</time>
      </trkpt>
      <trkpt lat="48.01976" lon="6.78932">
        <ele>583.4</ele>
        <time>2022-06-26T06:34:59Z</time>
      </trkpt>
      <trkpt lat="48.01976" lon="6.78935">
        <ele>583.6</ele>
        <time>2022-06-26T06:35:00Z</time>
      </trkpt>
      <trkpt lat="48.01976" lon="6.78939">
        <ele>583.8</ele>
        <time>2022-06-26T06:35:01Z</time>
      </trkpt>
      <trkpt lat="48.01976" lon="6.78942">
        <ele>584</ele>
        <time>2022-06-26T06:35:02Z</time>
      </trkpt>
      <trkpt lat="48.01976" lon="6.78946">
        <ele>584.2</ele>
        <time>2022-06-26T06:35:03Z</time>
      </trkpt>
      <trkpt lat="48.01975" lon="6.78949">
        <ele>584.4</ele>
        <time>2022-06-26T06:35:04Z</time>
      </trkpt>
      <trkpt lat="48.01975" lon="6.78952">
        <ele>584.6</ele>
        <time>2022-06-26T06:35:05Z</time>
      </trkpt>
      <trkpt lat="48.01975" lon="6.78955">
        <ele>584.8</ele>
        <time>2022-06-26T06:35:06Z</time>
      </trkpt>
      <trkpt lat="48.01975" lon="6.78958">
        <ele>585.2</ele>
        <time>2022-06-26T06:35:07Z</time>
      </trkpt>
      <trkpt lat="48.01975" lon="6.78961">
        <ele>585.2</ele>
        <time>2022-06-26T06:35:08Z</time>
      </trkpt>
      <trkpt lat="48.01974" lon="6.78964">
        <ele>585.6</ele>
        <time>2022-06-26T06:35:09Z</time>
      </trkpt>
      <trkpt lat="48.01974" lon="6.78967">
        <ele>585.8</ele>
        <time>2022-06-26T06:35:10Z</time>
      </trkpt>
      <trkpt lat="48.01973" lon="6.7897">
        <ele>586</ele>
        <time>2022-06-26T06:35:11Z</time>
      </trkpt>
      <trkpt lat="48.01973" lon="6.78973">
        <ele>586.4</ele>
        <time>2022-06-26T06:35:12Z</time>
      </trkpt>
      <trkpt lat="48.01972" lon="6.78977">
        <ele>586.4</ele>
        <time>2022-06-26T06:35:13Z</time>
      </trkpt>
      <trkpt lat="48.01971" lon="6.7898">
        <ele>586.6</ele>
        <time>2022-06-26T06:35:14Z</time>
      </trkpt>
      <trkpt lat="48.0197" lon="6.78983">
        <ele>586.8</ele>
        <time>2022-06-26T06:35:15Z</time>
      </trkpt>
      <trkpt lat="48.01969" lon="6.78986">
        <ele>587.2</ele>
        <time>2022-06-26T06:35:16Z</time>
      </trkpt>
      <trkpt lat="48.01969" lon="6.78989">
        <ele>587.2</ele>
        <time>2022-06-26T06:35:17Z</time>
      </trkpt>
      <trkpt lat="48.01968" lon="6.78992">
        <ele>587.4</ele>
        <time>2022-06-26T06:35:18Z</time>
      </trkpt>
      <trkpt lat="48.01967" lon="6.78995">
        <ele>587.6</ele>
        <time>2022-06-26T06:35:19Z</time>
      </trkpt>
      <trkpt lat="48.01967" lon="6.78998">
        <ele>587.8</ele>
        <time>2022-06-26T06:35:20Z</time>
      </trkpt>
      <trkpt lat="48.01966" lon="6.79001">
        <ele>587.8</ele>
        <time>2022-06-26T06:35:21Z</time>
      </trkpt>
      <trkpt lat="48.01965" lon="6.79004">
        <ele>588</ele>
        <time>2022-06-26T06:35:22Z</time>
      </trkpt>
      <trkpt lat="48.01964" lon="6.79008">
        <ele>588.2</ele>
        <time>2022-06-26T06:35:23Z</time>
      </trkpt>
      <trkpt lat="48.01964" lon="6.79011">
        <ele>588.2</ele>
        <time>2022-06-26T06:35:24Z</time>
      </trkpt>
      <trkpt lat="48.01963" lon="6.79014">
        <ele>588.4</ele>
        <time>2022-06-26T06:35:25Z</time>
      </trkpt>
      <trkpt lat="48.01962" lon="6.79017">
        <ele>588.6</ele>
        <time>2022-06-26T06:35:26Z</time>
      </trkpt>
      <trkpt lat="48.01962" lon="6.79021">
        <ele>588.8</ele>
        <time>2022-06-26T06:35:27Z</time>
      </trkpt>
      <trkpt lat="48.01961" lon="6.79023">
        <ele>589</ele>
        <time>2022-06-26T06:35:28Z</time>
      </trkpt>
      <trkpt lat="48.0196" lon="6.79026">
        <ele>589</ele>
        <time>2022-06-26T06:35:29Z</time>
      </trkpt>
      <trkpt lat="48.0196" lon="6.7903">
        <ele>589.4</ele>
        <time>2022-06-26T06:35:30Z</time>
      </trkpt>
      <trkpt lat="48.0196" lon="6.79033">
        <ele>589.4</ele>
        <time>2022-06-26T06:35:31Z</time>
      </trkpt>
      <trkpt lat="48.01959" lon="6.79036">
        <ele>589.6</ele>
        <time>2022-06-26T06:35:32Z</time>
      </trkpt>
      <trkpt lat="48.01959" lon="6.79039">
        <ele>589.8</ele>
        <time>2022-06-26T06:35:33Z</time>
      </trkpt>
      <trkpt lat="48.01958" lon="6.79042">
        <ele>590</ele>
        <time>2022-06-26T06:35:34Z</time>
      </trkpt>
      <trkpt lat="48.01958" lon="6.79045">
        <ele>590.2</ele>
        <time>2022-06-26T06:35:35Z</time>
      </trkpt>
      <trkpt lat="48.01958" lon="6.79049">
        <ele>590.4</ele>
        <time>2022-06-26T06:35:36Z</time>
      </trkpt>
      <trkpt lat="48.01958" lon="6.79052">
        <ele>590.8</ele>
        <time>2022-06-26T06:35:37Z</time>
      </trkpt>
      <trkpt lat="48.01958" lon="6.79055">
        <ele>590.8</ele>
        <time>2022-06-26T06:35:38Z</time>
      </trkpt>
      <trkpt lat="48.01957" lon="6.79058">
        <ele>591</ele>
        <time>2022-06-26T06:35:39Z</time>
      </trkpt>
      <trkpt lat="48.01957" lon="6.79061">
        <ele>591.2</ele>
        <time>2022-06-26T06:35:40Z</time>
      </trkpt>
      <trkpt lat="48.01956" lon="6.79064">
        <ele>591.4</ele>
        <time>2022-06-26T06:35:41Z</time>
      </trkpt>
      <trkpt lat="48.01957" lon="6.79067">
        <ele>591.6</ele>
        <time>2022-06-26T06:35:42Z</time>
      </trkpt>
      <trkpt lat="48.01957" lon="6.79069">
        <ele>592</ele>
        <time>2022-06-26T06:35:43Z</time>
      </trkpt>
      <trkpt lat="48.01958" lon="6.79071">
        <ele>592</ele>
        <time>2022-06-26T06:35:44Z</time>
      </trkpt>
      <trkpt lat="48.0196" lon="6.79071">
        <ele>592.2</ele>
        <time>2022-06-26T06:35:45Z</time>
      </trkpt>
      <trkpt lat="48.01961" lon="6.79071">
        <ele>592.4</ele>
        <time>2022-06-26T06:35:46Z</time>
      </trkpt>
      <trkpt lat="48.01963" lon="6.7907">
        <ele>592.4</ele>
        <time>2022-06-26T06:35:47Z</time>
      </trkpt>
      <trkpt lat="48.01965" lon="6.7907">
        <ele>592.6</ele>
        <time>2022-06-26T06:35:48Z</time>
      </trkpt>
      <trkpt lat="48.01967" lon="6.79068">
        <ele>592.6</ele>
        <time>2022-06-26T06:35:49Z</time>
      </trkpt>
      <trkpt lat="48.01969" lon="6.79067">
        <ele>592.6</ele>
        <time>2022-06-26T06:35:50Z</time>
      </trkpt>
      <trkpt lat="48.01971" lon="6.79065">
        <ele>592.6</ele>
        <time>2022-06-26T06:35:51Z</time>
      </trkpt>
      <trkpt lat="48.01974" lon="6.79064">
        <ele>592.6</ele>
        <time>2022-06-26T06:35:52Z</time>
      </trkpt>
      <trkpt lat="48.01978" lon="6.79064">
        <ele>592.4</ele>
        <time>2022-06-26T06:35:53Z</time>
      </trkpt>
      <trkpt lat="48.01982" lon="6.79064">
        <ele>592</ele>
        <time>2022-06-26T06:35:54Z</time>
      </trkpt>
      <trkpt lat="48.01986" lon="6.79066">
        <ele>591.2</ele>
        <time>2022-06-26T06:35:55Z</time>
      </trkpt>
      <trkpt lat="48.01989" lon="6.79069">
        <ele>591</ele>
        <time>2022-06-26T06:35:56Z</time>
      </trkpt>
      <trkpt lat="48.01993" lon="6.79074">
        <ele>590.4</ele>
        <time>2022-06-26T06:35:57Z</time>
      </trkpt>
      <trkpt lat="48.01997" lon="6.79078">
        <ele>590.2</ele>
        <time>2022-06-26T06:35:58Z</time>
      </trkpt>
      <trkpt lat="48.02002" lon="6.79083">
        <ele>589.6</ele>
        <time>2022-06-26T06:35:59Z</time>
      </trkpt>
      <trkpt lat="48.02005" lon="6.7909">
        <ele>589</ele>
        <time>2022-06-26T06:36:00Z</time>
      </trkpt>
      <trkpt lat="48.02007" lon="6.79099">
        <ele>587.8</ele>
        <time>2022-06-26T06:36:01Z</time>
      </trkpt>
      <trkpt lat="48.02008" lon="6.79108">
        <ele>586.4</ele>
        <time>2022-06-26T06:36:02Z</time>
      </trkpt>
      <trkpt lat="48.0201" lon="6.79118">
        <ele>586</ele>
        <time>2022-06-26T06:36:03Z</time>
      </trkpt>
      <trkpt lat="48.02011" lon="6.79126">
        <ele>585.6</ele>
        <time>2022-06-26T06:36:04Z</time>
      </trkpt>
      <trkpt lat="48.02013" lon="6.79133">
        <ele>585.4</ele>
        <time>2022-06-26T06:36:05Z</time>
      </trkpt>
      <trkpt lat="48.02016" lon="6.7914">
        <ele>584.2</ele>
        <time>2022-06-26T06:36:06Z</time>
      </trkpt>
      <trkpt lat="48.02019" lon="6.79147">
        <ele>583.8</ele>
        <time>2022-06-26T06:36:07Z</time>
      </trkpt>
      <trkpt lat="48.02023" lon="6.79153">
        <ele>583.2</ele>
        <time>2022-06-26T06:36:08Z</time>
      </trkpt>
      <trkpt lat="48.02026" lon="6.79158">
        <ele>582.8</ele>
        <time>2022-06-26T06:36:09Z</time>
      </trkpt>
      <trkpt lat="48.02028" lon="6.79163">
        <ele>582.6</ele>
        <time>2022-06-26T06:36:10Z</time>
      </trkpt>
      <trkpt lat="48.0203" lon="6.79169">
        <ele>582.2</ele>
        <time>2022-06-26T06:36:11Z</time>
      </trkpt>
      <trkpt lat="48.02031" lon="6.79173">
        <ele>582.2</ele>
        <time>2022-06-26T06:36:12Z</time>
      </trkpt>
      <trkpt lat="48.02032" lon="6.79178">
        <ele>582</ele>
        <time>2022-06-26T06:36:13Z</time>
      </trkpt>
      <trkpt lat="48.02033" lon="6.79183">
        <ele>581.8</ele>
        <time>2022-06-26T06:36:14Z</time>
      </trkpt>
      <trkpt lat="48.02035" lon="6.79188">
        <ele>581.6</ele>
        <time>2022-06-26T06:36:15Z</time>
      </trkpt>
      <trkpt lat="48.02037" lon="6.79194">
        <ele>581.6</ele>
        <time>2022-06-26T06:36:16Z</time>
      </trkpt>
      <trkpt lat="48.02042" lon="6.79207">
        <ele>581.4</ele>
        <time>2022-06-26T06:36:18Z</time>
      </trkpt>
      <trkpt lat="48.02045" lon="6.79213">
        <ele>581.2</ele>
        <time>2022-06-26T06:36:19Z</time>
      </trkpt>
      <trkpt lat="48.02048" lon="6.79219">
        <ele>580.8</ele>
        <time>2022-06-26T06:36:20Z</time>
      </trkpt>
      <trkpt lat="48.02062" lon="6.79238">
        <ele>579.6</ele>
        <time>2022-06-26T06:36:23Z</time>
      </trkpt>
      <trkpt lat="48.02066" lon="6.79255">
        <ele>579</ele>
        <time>2022-06-26T06:36:25Z</time>
      </trkpt>
      <trkpt lat="48.02067" lon="6.79263">
        <ele>578.6</ele>
        <time>2022-06-26T06:36:26Z</time>
      </trkpt>
      <trkpt lat="48.02068" lon="6.7927">
        <ele>578</ele>
        <time>2022-06-26T06:36:27Z</time>
      </trkpt>
      <trkpt lat="48.02068" lon="6.79277">
        <ele>577.6</ele>
        <time>2022-06-26T06:36:28Z</time>
      </trkpt>
      <trkpt lat="48.02069" lon="6.79284">
        <ele>577.4</ele>
        <time>2022-06-26T06:36:29Z</time>
      </trkpt>
      <trkpt lat="48.0207" lon="6.7929">
        <ele>577.2</ele>
        <time>2022-06-26T06:36:30Z</time>
      </trkpt>
      <trkpt lat="48.02071" lon="6.79296">
        <ele>577</ele>
        <time>2022-06-26T06:36:31Z</time>
      </trkpt>
      <trkpt lat="48.02071" lon="6.79301">
        <ele>577</ele>
        <time>2022-06-26T06:36:32Z</time>
      </trkpt>
      <trkpt lat="48.02072" lon="6.79306">
        <ele>576.8</ele>
        <time>2022-06-26T06:36:33Z</time>
      </trkpt>
      <trkpt lat="48.02071" lon="6.79311">
        <ele>577</ele>
        <time>2022-06-26T06:36:34Z</time>
      </trkpt>
      <trkpt lat="48.02072" lon="6.79316">
        <ele>577.2</ele>
        <time>2022-06-26T06:36:35Z</time>
      </trkpt>
      <trkpt lat="48.02072" lon="6.79322">
        <ele>577.4</ele>
        <time>2022-06-26T06:36:36Z</time>
      </trkpt>
      <trkpt lat="48.0207" lon="6.79351">
        <ele>578.4</ele>
        <time>2022-06-26T06:36:41Z</time>
      </trkpt>
      <trkpt lat="48.0207" lon="6.79357">
        <ele>578.4</ele>
        <time>2022-06-26T06:36:42Z</time>
      </trkpt>
      <trkpt lat="48.0207" lon="6.79364">
        <ele>578.6</ele>
        <time>2022-06-26T06:36:43Z</time>
      </trkpt>
      <trkpt lat="48.02071" lon="6.79378">
        <ele>578.6</ele>
        <time>2022-06-26T06:36:45Z</time>
      </trkpt>
      <trkpt lat="48.02072" lon="6.79385">
        <ele>578.8</ele>
        <time>2022-06-26T06:36:46Z</time>
      </trkpt>
      <trkpt lat="48.02077" lon="6.794">
        <ele>578.8</ele>
        <time>2022-06-26T06:36:48Z</time>
      </trkpt>
      <trkpt lat="48.02083" lon="6.79417">
        <ele>578.8</ele>
        <time>2022-06-26T06:36:50Z</time>
      </trkpt>
      <trkpt lat="48.02086" lon="6.79424">
        <ele>578.8</ele>
        <time>2022-06-26T06:36:51Z</time>
      </trkpt>
      <trkpt lat="48.02095" lon="6.79445">
        <ele>578.4</ele>
        <time>2022-06-26T06:36:54Z</time>
      </trkpt>
      <trkpt lat="48.02097" lon="6.7946">
        <ele>578</ele>
        <time>2022-06-26T06:36:56Z</time>
      </trkpt>
      <trkpt lat="48.02099" lon="6.79499">
        <ele>577.8</ele>
        <time>2022-06-26T06:37:01Z</time>
      </trkpt>
      <trkpt lat="48.02098" lon="6.79513">
        <ele>577.6</ele>
        <time>2022-06-26T06:37:03Z</time>
      </trkpt>
      <trkpt lat="48.02099" lon="6.79519">
        <ele>577.6</ele>
        <time>2022-06-26T06:37:04Z</time>
      </trkpt>
      <trkpt lat="48.021" lon="6.79525">
        <ele>577.6</ele>
        <time>2022-06-26T06:37:05Z</time>
      </trkpt>
      <trkpt lat="48.02101" lon="6.79531">
        <ele>577.6</ele>
        <time>2022-06-26T06:37:06Z</time>
      </trkpt>
      <trkpt lat="48.02102" lon="6.79536">
        <ele>577.6</ele>
        <time>2022-06-26T06:37:07Z</time>
      </trkpt>
      <trkpt lat="48.02102" lon="6.79539">
        <ele>577.8</ele>
        <time>2022-06-26T06:37:08Z</time>
      </trkpt>
      <trkpt lat="48.02103" lon="6.79541">
        <ele>577.8</ele>
        <time>2022-06-26T06:37:09Z</time>
      </trkpt>
      <trkpt lat="48.02103" lon="6.79544">
        <ele>577.8</ele>
        <time>2022-06-26T06:37:10Z</time>
      </trkpt>
      <trkpt lat="48.02103" lon="6.79546">
        <ele>578.6</ele>
        <time>2022-06-26T06:37:11Z</time>
      </trkpt>
      <trkpt lat="48.02103" lon="6.79548">
        <ele>579</ele>
        <time>2022-06-26T06:37:12Z</time>
      </trkpt>
      <trkpt lat="48.02103" lon="6.7955">
        <ele>579.4</ele>
        <time>2022-06-26T06:37:13Z</time>
      </trkpt>
      <trkpt lat="48.02103" lon="6.79554">
        <ele>580.2</ele>
        <time>2022-06-26T06:37:15Z</time>
      </trkpt>
      <trkpt lat="48.02104" lon="6.79556">
        <ele>580.6</ele>
        <time>2022-06-26T06:37:16Z</time>
      </trkpt>
      <trkpt lat="48.02104" lon="6.79558">
        <ele>580.6</ele>
        <time>2022-06-26T06:37:17Z</time>
      </trkpt>
      <trkpt lat="48.02104" lon="6.7956">
        <ele>580.8</ele>
        <time>2022-06-26T06:37:18Z</time>
      </trkpt>
      <trkpt lat="48.02104" lon="6.79562">
        <ele>581</ele>
        <time>2022-06-26T06:37:19Z</time>
      </trkpt>
      <trkpt lat="48.02104" lon="6.79564">
        <ele>581.2</ele>
        <time>2022-06-26T06:37:20Z</time>
      </trkpt>
      <trkpt lat="48.02104" lon="6.79566">
        <ele>582</ele>
        <time>2022-06-26T06:37:21Z</time>
      </trkpt>
      <trkpt lat="48.02103" lon="6.79569">
        <ele>582.2</ele>
        <time>2022-06-26T06:37:22Z</time>
      </trkpt>
      <trkpt lat="48.02103" lon="6.79571">
        <ele>582.6</ele>
        <time>2022-06-26T06:37:23Z</time>
      </trkpt>
      <trkpt lat="48.02102" lon="6.79574">
        <ele>582.8</ele>
        <time>2022-06-26T06:37:24Z</time>
      </trkpt>
      <trkpt lat="48.02102" lon="6.79576">
        <ele>583.2</ele>
        <time>2022-06-26T06:37:25Z</time>
      </trkpt>
      <trkpt lat="48.02102" lon="6.79578">
        <ele>583.4</ele>
        <time>2022-06-26T06:37:26Z</time>
      </trkpt>
      <trkpt lat="48.02101" lon="6.79581">
        <ele>583.8</ele>
        <time>2022-06-26T06:37:27Z</time>
      </trkpt>
      <trkpt lat="48.02101" lon="6.79584">
        <ele>584</ele>
        <time>2022-06-26T06:37:28Z</time>
      </trkpt>
      <trkpt lat="48.021" lon="6.79587">
        <ele>584.4</ele>
        <time>2022-06-26T06:37:29Z</time>
      </trkpt>
      <trkpt lat="48.02099" lon="6.79589">
        <ele>584.6</ele>
        <time>2022-06-26T06:37:30Z</time>
      </trkpt>
      <trkpt lat="48.02099" lon="6.79592">
        <ele>584.8</ele>
        <time>2022-06-26T06:37:31Z</time>
      </trkpt>
      <trkpt lat="48.02099" lon="6.79594">
        <ele>585</ele>
        <time>2022-06-26T06:37:32Z</time>
      </trkpt>
      <trkpt lat="48.02099" lon="6.79596">
        <ele>585.2</ele>
        <time>2022-06-26T06:37:33Z</time>
      </trkpt>
      <trkpt lat="48.02098" lon="6.79599">
        <ele>585.4</ele>
        <time>2022-06-26T06:37:34Z</time>
      </trkpt>
      <trkpt lat="48.02098" lon="6.79601">
        <ele>585.6</ele>
        <time>2022-06-26T06:37:35Z</time>
      </trkpt>
      <trkpt lat="48.02097" lon="6.79604">
        <ele>586</ele>
        <time>2022-06-26T06:37:36Z</time>
      </trkpt>
      <trkpt lat="48.02098" lon="6.79606">
        <ele>586.2</ele>
        <time>2022-06-26T06:37:37Z</time>
      </trkpt>
      <trkpt lat="48.02098" lon="6.79608">
        <ele>586.4</ele>
        <time>2022-06-26T06:37:38Z</time>
      </trkpt>
      <trkpt lat="48.02099" lon="6.7961">
        <ele>586.6</ele>
        <time>2022-06-26T06:37:39Z</time>
      </trkpt>
      <trkpt lat="48.02099" lon="6.79613">
        <ele>586.8</ele>
        <time>2022-06-26T06:37:40Z</time>
      </trkpt>
      <trkpt lat="48.021" lon="6.79615">
        <ele>587.2</ele>
        <time>2022-06-26T06:37:41Z</time>
      </trkpt>
      <trkpt lat="48.021" lon="6.79618">
        <ele>587.2</ele>
        <time>2022-06-26T06:37:42Z</time>
      </trkpt>
      <trkpt lat="48.02101" lon="6.79621">
        <ele>587.2</ele>
        <time>2022-06-26T06:37:43Z</time>
      </trkpt>
      <trkpt lat="48.02101" lon="6.79625">
        <ele>587.4</ele>
        <time>2022-06-26T06:37:44Z</time>
      </trkpt>
      <trkpt lat="48.02101" lon="6.79628">
        <ele>588</ele>
        <time>2022-06-26T06:37:45Z</time>
      </trkpt>
      <trkpt lat="48.02101" lon="6.79631">
        <ele>588</ele>
        <time>2022-06-26T06:37:46Z</time>
      </trkpt>
      <trkpt lat="48.02102" lon="6.79635">
        <ele>588.4</ele>
        <time>2022-06-26T06:37:47Z</time>
      </trkpt>
      <trkpt lat="48.02103" lon="6.79638">
        <ele>588.6</ele>
        <time>2022-06-26T06:37:48Z</time>
      </trkpt>
      <trkpt lat="48.02103" lon="6.7964">
        <ele>588.8</ele>
        <time>2022-06-26T06:37:49Z</time>
      </trkpt>
      <trkpt lat="48.02104" lon="6.79643">
        <ele>589.2</ele>
        <time>2022-06-26T06:37:50Z</time>
      </trkpt>
      <trkpt lat="48.02105" lon="6.79646">
        <ele>589.4</ele>
        <time>2022-06-26T06:37:51Z</time>
      </trkpt>
      <trkpt lat="48.02106" lon="6.79648">
        <ele>589.4</ele>
        <time>2022-06-26T06:37:52Z</time>
      </trkpt>
      <trkpt lat="48.02107" lon="6.7965">
        <ele>589.6</ele>
        <time>2022-06-26T06:37:53Z</time>
      </trkpt>
      <trkpt lat="48.02108" lon="6.79653">
        <ele>589.8</ele>
        <time>2022-06-26T06:37:54Z</time>
      </trkpt>
      <trkpt lat="48.02109" lon="6.79656">
        <ele>590</ele>
        <time>2022-06-26T06:37:55Z</time>
      </trkpt>
      <trkpt lat="48.02109" lon="6.79659">
        <ele>590.4</ele>
        <time>2022-06-26T06:37:56Z</time>
      </trkpt>
      <trkpt lat="48.0211" lon="6.79662">
        <ele>590.6</ele>
        <time>2022-06-26T06:37:57Z</time>
      </trkpt>
      <trkpt lat="48.02111" lon="6.79665">
        <ele>590.8</ele>
        <time>2022-06-26T06:37:58Z</time>
      </trkpt>
      <trkpt lat="48.02112" lon="6.79667">
        <ele>591</ele>
        <time>2022-06-26T06:37:59Z</time>
      </trkpt>
      <trkpt lat="48.02113" lon="6.7967">
        <ele>591</ele>
        <time>2022-06-26T06:38:00Z</time>
      </trkpt>
      <trkpt lat="48.02114" lon="6.79673">
        <ele>591.2</ele>
        <time>2022-06-26T06:38:01Z</time>
      </trkpt>
      <trkpt lat="48.02115" lon="6.79676">
        <ele>591.2</ele>
        <time>2022-06-26T06:38:02Z</time>
      </trkpt>
      <trkpt lat="48.02116" lon="6.79678">
        <ele>591.2</ele>
        <time>2022-06-26T06:38:03Z</time>
      </trkpt>
      <trkpt lat="48.02117" lon="6.79681">
        <ele>591.2</ele>
        <time>2022-06-26T06:38:04Z</time>
      </trkpt>
      <trkpt lat="48.02118" lon="6.79684">
        <ele>591.2</ele>
        <time>2022-06-26T06:38:05Z</time>
      </trkpt>
      <trkpt lat="48.02119" lon="6.79687">
        <ele>591.4</ele>
        <time>2022-06-26T06:38:06Z</time>
      </trkpt>
      <trkpt lat="48.0212" lon="6.79689">
        <ele>591.6</ele>
        <time>2022-06-26T06:38:07Z</time>
      </trkpt>
      <trkpt lat="48.02121" lon="6.79692">
        <ele>591.6</ele>
        <time>2022-06-26T06:38:08Z</time>
      </trkpt>
      <trkpt lat="48.02122" lon="6.79695">
        <ele>591.8</ele>
        <time>2022-06-26T06:38:09Z</time>
      </trkpt>
      <trkpt lat="48.02123" lon="6.79698">
        <ele>592</ele>
        <time>2022-06-26T06:38:10Z</time>
      </trkpt>
      <trkpt lat="48.02124" lon="6.79701">
        <ele>592.2</ele>
        <time>2022-06-26T06:38:11Z</time>
      </trkpt>
      <trkpt lat="48.02125" lon="6.79705">
        <ele>592.4</ele>
        <time>2022-06-26T06:38:12Z</time>
      </trkpt>
      <trkpt lat="48.02125" lon="6.79707">
        <ele>592.6</ele>
        <time>2022-06-26T06:38:13Z</time>
      </trkpt>
      <trkpt lat="48.02126" lon="6.7971">
        <ele>592.6</ele>
        <time>2022-06-26T06:38:14Z</time>
      </trkpt>
      <trkpt lat="48.02127" lon="6.79713">
        <ele>592.6</ele>
        <time>2022-06-26T06:38:15Z</time>
      </trkpt>
      <trkpt lat="48.02128" lon="6.79717">
        <ele>592.8</ele>
        <time>2022-06-26T06:38:16Z</time>
      </trkpt>
      <trkpt lat="48.02129" lon="6.7972">
        <ele>592.8</ele>
        <time>2022-06-26T06:38:17Z</time>
      </trkpt>
      <trkpt lat="48.0213" lon="6.79723">
        <ele>593</ele>
        <time>2022-06-26T06:38:18Z</time>
      </trkpt>
      <trkpt lat="48.0213" lon="6.79726">
        <ele>593.4</ele>
        <time>2022-06-26T06:38:19Z</time>
      </trkpt>
      <trkpt lat="48.02131" lon="6.79729">
        <ele>593.4</ele>
        <time>2022-06-26T06:38:20Z</time>
      </trkpt>
      <trkpt lat="48.02132" lon="6.79732">
        <ele>593.6</ele>
        <time>2022-06-26T06:38:21Z</time>
      </trkpt>
      <trkpt lat="48.02133" lon="6.79735">
        <ele>593.8</ele>
        <time>2022-06-26T06:38:22Z</time>
      </trkpt>
      <trkpt lat="48.02134" lon="6.79737">
        <ele>594</ele>
        <time>2022-06-26T06:38:23Z</time>
      </trkpt>
      <trkpt lat="48.02135" lon="6.7974">
        <ele>594.4</ele>
        <time>2022-06-26T06:38:24Z</time>
      </trkpt>
      <trkpt lat="48.02135" lon="6.79744">
        <ele>594.4</ele>
        <time>2022-06-26T06:38:25Z</time>
      </trkpt>
      <trkpt lat="48.02136" lon="6.79747">
        <ele>594.8</ele>
        <time>2022-06-26T06:38:26Z</time>
      </trkpt>
      <trkpt lat="48.02137" lon="6.7975">
        <ele>595</ele>
        <time>2022-06-26T06:38:27Z</time>
      </trkpt>
      <trkpt lat="48.02138" lon="6.79752">
        <ele>595</ele>
        <time>2022-06-26T06:38:28Z</time>
      </trkpt>
      <trkpt lat="48.02139" lon="6.79755">
        <ele>595.2</ele>
        <time>2022-06-26T06:38:29Z</time>
      </trkpt>
      <trkpt lat="48.02141" lon="6.79759">
        <ele>595.6</ele>
        <time>2022-06-26T06:38:30Z</time>
      </trkpt>
      <trkpt lat="48.02142" lon="6.79762">
        <ele>595.6</ele>
        <time>2022-06-26T06:38:31Z</time>
      </trkpt>
      <trkpt lat="48.02143" lon="6.79764">
        <ele>595.6</ele>
        <time>2022-06-26T06:38:32Z</time>
      </trkpt>
      <trkpt lat="48.02144" lon="6.79766">
        <ele>595.8</ele>
        <time>2022-06-26T06:38:33Z</time>
      </trkpt>
      <trkpt lat="48.02144" lon="6.79767">
        <ele>596</ele>
        <time>2022-06-26T06:38:34Z</time>
      </trkpt>
      <trkpt lat="48.02144" lon="6.79767">
        <ele>596.2</ele>
        <time>2022-06-26T06:38:35Z</time>
      </trkpt>
      <trkpt lat="48.02144" lon="6.79767">
        <ele>596.2</ele>
        <time>2022-06-26T06:38:36Z</time>
      </trkpt>
      <trkpt lat="48.02144" lon="6.79767">
        <ele>596.4</ele>
        <time>2022-06-26T06:38:39Z</time>
      </trkpt>
      <trkpt lat="48.02146" lon="6.7977">
        <ele>596.6</ele>
        <time>2022-06-26T06:38:44Z</time>
      </trkpt>
      <trkpt lat="48.02148" lon="6.79772">
        <ele>596.6</ele>
        <time>2022-06-26T06:38:45Z</time>
      </trkpt>
      <trkpt lat="48.02148" lon="6.79775">
        <ele>596.6</ele>
        <time>2022-06-26T06:38:46Z</time>
      </trkpt>
      <trkpt lat="48.02149" lon="6.79778">
        <ele>596.8</ele>
        <time>2022-06-26T06:38:47Z</time>
      </trkpt>
      <trkpt lat="48.0215" lon="6.79781">
        <ele>596.8</ele>
        <time>2022-06-26T06:38:48Z</time>
      </trkpt>
      <trkpt lat="48.02152" lon="6.79784">
        <ele>596.8</ele>
        <time>2022-06-26T06:38:49Z</time>
      </trkpt>
      <trkpt lat="48.02153" lon="6.79787">
        <ele>597</ele>
        <time>2022-06-26T06:38:50Z</time>
      </trkpt>
      <trkpt lat="48.02154" lon="6.7979">
        <ele>597</ele>
        <time>2022-06-26T06:38:51Z</time>
      </trkpt>
      <trkpt lat="48.02156" lon="6.79793">
        <ele>597.2</ele>
        <time>2022-06-26T06:38:52Z</time>
      </trkpt>
      <trkpt lat="48.02157" lon="6.79796">
        <ele>597.2</ele>
        <time>2022-06-26T06:38:53Z</time>
      </trkpt>
      <trkpt lat="48.02158" lon="6.79799">
        <ele>597.4</ele>
        <time>2022-06-26T06:38:54Z</time>
      </trkpt>
      <trkpt lat="48.02159" lon="6.79802">
        <ele>597.8</ele>
        <time>2022-06-26T06:38:55Z</time>
      </trkpt>
      <trkpt lat="48.0216" lon="6.79805">
        <ele>597.8</ele>
        <time>2022-06-26T06:38:56Z</time>
      </trkpt>
      <trkpt lat="48.02165" lon="6.79814">
        <ele>598.4</ele>
        <time>2022-06-26T06:38:59Z</time>
      </trkpt>
      <trkpt lat="48.02168" lon="6.79817">
        <ele>598.6</ele>
        <time>2022-06-26T06:39:00Z</time>
      </trkpt>
      <trkpt lat="48.02172" lon="6.7982">
        <ele>598.6</ele>
        <time>2022-06-26T06:39:01Z</time>
      </trkpt>
      <trkpt lat="48.02175" lon="6.79822">
        <ele>598.6</ele>
        <time>2022-06-26T06:39:02Z</time>
      </trkpt>
      <trkpt lat="48.0218" lon="6.79824">
        <ele>598.8</ele>
        <time>2022-06-26T06:39:03Z</time>
      </trkpt>
      <trkpt lat="48.02184" lon="6.79825">
        <ele>598.8</ele>
        <time>2022-06-26T06:39:04Z</time>
      </trkpt>
      <trkpt lat="48.02188" lon="6.79827">
        <ele>598.8</ele>
        <time>2022-06-26T06:39:05Z</time>
      </trkpt>
      <trkpt lat="48.02192" lon="6.79828">
        <ele>598.6</ele>
        <time>2022-06-26T06:39:06Z</time>
      </trkpt>
      <trkpt lat="48.02195" lon="6.7983">
        <ele>598.6</ele>
        <time>2022-06-26T06:39:07Z</time>
      </trkpt>
      <trkpt lat="48.02197" lon="6.79832">
        <ele>598.6</ele>
        <time>2022-06-26T06:39:08Z</time>
      </trkpt>
      <trkpt lat="48.02199" lon="6.79834">
        <ele>598.6</ele>
        <time>2022-06-26T06:39:09Z</time>
      </trkpt>
      <trkpt lat="48.02201" lon="6.79835">
        <ele>598.6</ele>
        <time>2022-06-26T06:39:10Z</time>
      </trkpt>
      <trkpt lat="48.02203" lon="6.79837">
        <ele>598.6</ele>
        <time>2022-06-26T06:39:11Z</time>
      </trkpt>
      <trkpt lat="48.02204" lon="6.79839">
        <ele>598.6</ele>
        <time>2022-06-26T06:39:12Z</time>
      </trkpt>
      <trkpt lat="48.02206" lon="6.79841">
        <ele>598.8</ele>
        <time>2022-06-26T06:39:13Z</time>
      </trkpt>
      <trkpt lat="48.02207" lon="6.79842">
        <ele>598.8</ele>
        <time>2022-06-26T06:39:14Z</time>
      </trkpt>
      <trkpt lat="48.02208" lon="6.79844">
        <ele>599</ele>
        <time>2022-06-26T06:39:15Z</time>
      </trkpt>
      <trkpt lat="48.0221" lon="6.79846">
        <ele>599.2</ele>
        <time>2022-06-26T06:39:16Z</time>
      </trkpt>
      <trkpt lat="48.02211" lon="6.79848">
        <ele>599.6</ele>
        <time>2022-06-26T06:39:17Z</time>
      </trkpt>
      <trkpt lat="48.02213" lon="6.7985">
        <ele>600</ele>
        <time>2022-06-26T06:39:18Z</time>
      </trkpt>
      <trkpt lat="48.02214" lon="6.79851">
        <ele>600</ele>
        <time>2022-06-26T06:39:19Z</time>
      </trkpt>
      <trkpt lat="48.02215" lon="6.79853">
        <ele>600.4</ele>
        <time>2022-06-26T06:39:20Z</time>
      </trkpt>
      <trkpt lat="48.02215" lon="6.79854">
        <ele>600.4</ele>
        <time>2022-06-26T06:39:21Z</time>
      </trkpt>
      <trkpt lat="48.02216" lon="6.79856">
        <ele>600.8</ele>
        <time>2022-06-26T06:39:22Z</time>
      </trkpt>
      <trkpt lat="48.02216" lon="6.79857">
        <ele>601.2</ele>
        <time>2022-06-26T06:39:23Z</time>
      </trkpt>
      <trkpt lat="48.02216" lon="6.79859">
        <ele>601.4</ele>
        <time>2022-06-26T06:39:24Z</time>
      </trkpt>
      <trkpt lat="48.02216" lon="6.79861">
        <ele>601.6</ele>
        <time>2022-06-26T06:39:25Z</time>
      </trkpt>
      <trkpt lat="48.02217" lon="6.79863">
        <ele>601.8</ele>
        <time>2022-06-26T06:39:26Z</time>
      </trkpt>
      <trkpt lat="48.02218" lon="6.79865">
        <ele>601.8</ele>
        <time>2022-06-26T06:39:27Z</time>
      </trkpt>
      <trkpt lat="48.02218" lon="6.79867">
        <ele>602</ele>
        <time>2022-06-26T06:39:28Z</time>
      </trkpt>
      <trkpt lat="48.02219" lon="6.79869">
        <ele>602.4</ele>
        <time>2022-06-26T06:39:29Z</time>
      </trkpt>
      <trkpt lat="48.02219" lon="6.79871">
        <ele>602.6</ele>
        <time>2022-06-26T06:39:30Z</time>
      </trkpt>
      <trkpt lat="48.02221" lon="6.79874">
        <ele>603</ele>
        <time>2022-06-26T06:39:31Z</time>
      </trkpt>
      <trkpt lat="48.02222" lon="6.79876">
        <ele>603.2</ele>
        <time>2022-06-26T06:39:32Z</time>
      </trkpt>
      <trkpt lat="48.02222" lon="6.79878">
        <ele>603.2</ele>
        <time>2022-06-26T06:39:33Z</time>
      </trkpt>
      <trkpt lat="48.02223" lon="6.7988">
        <ele>603.6</ele>
        <time>2022-06-26T06:39:34Z</time>
      </trkpt>
      <trkpt lat="48.02223" lon="6.79881">
        <ele>603.6</ele>
        <time>2022-06-26T06:39:35Z</time>
      </trkpt>
      <trkpt lat="48.02224" lon="6.79883">
        <ele>604</ele>
        <time>2022-06-26T06:39:36Z</time>
      </trkpt>
      <trkpt lat="48.02224" lon="6.79885">
        <ele>604</ele>
        <time>2022-06-26T06:39:37Z</time>
      </trkpt>
      <trkpt lat="48.02225" lon="6.79886">
        <ele>604.2</ele>
        <time>2022-06-26T06:39:38Z</time>
      </trkpt>
      <trkpt lat="48.02226" lon="6.79887">
        <ele>604.4</ele>
        <time>2022-06-26T06:39:39Z</time>
      </trkpt>
      <trkpt lat="48.02227" lon="6.79889">
        <ele>604.4</ele>
        <time>2022-06-26T06:39:40Z</time>
      </trkpt>
      <trkpt lat="48.02228" lon="6.79891">
        <ele>604.8</ele>
        <time>2022-06-26T06:39:41Z</time>
      </trkpt>
      <trkpt lat="48.02229" lon="6.79893">
        <ele>605</ele>
        <time>2022-06-26T06:39:42Z</time>
      </trkpt>
      <trkpt lat="48.02229" lon="6.79895">
        <ele>605.2</ele>
        <time>2022-06-26T06:39:43Z</time>
      </trkpt>
      <trkpt lat="48.02229" lon="6.79898">
        <ele>605.4</ele>
        <time>2022-06-26T06:39:44Z</time>
      </trkpt>
      <trkpt lat="48.0223" lon="6.79901">
        <ele>605.4</ele>
        <time>2022-06-26T06:39:45Z</time>
      </trkpt>
      <trkpt lat="48.02231" lon="6.79905">
        <ele>605.6</ele>
        <time>2022-06-26T06:39:46Z</time>
      </trkpt>
      <trkpt lat="48.02232" lon="6.79908">
        <ele>605.6</ele>
        <time>2022-06-26T06:39:47Z</time>
      </trkpt>
      <trkpt lat="48.02234" lon="6.79913">
        <ele>605.6</ele>
        <time>2022-06-26T06:39:48Z</time>
      </trkpt>
      <trkpt lat="48.02237" lon="6.79918">
        <ele>605.8</ele>
        <time>2022-06-26T06:39:49Z</time>
      </trkpt>
      <trkpt lat="48.0224" lon="6.79925">
        <ele>605.8</ele>
        <time>2022-06-26T06:39:50Z</time>
      </trkpt>
      <trkpt lat="48.02241" lon="6.79929">
        <ele>605.6</ele>
        <time>2022-06-26T06:39:51Z</time>
      </trkpt>
      <trkpt lat="48.02242" lon="6.79934">
        <ele>605.6</ele>
        <time>2022-06-26T06:39:52Z</time>
      </trkpt>
      <trkpt lat="48.02244" lon="6.79939">
        <ele>605.6</ele>
        <time>2022-06-26T06:39:53Z</time>
      </trkpt>
      <trkpt lat="48.02245" lon="6.79945">
        <ele>605.4</ele>
        <time>2022-06-26T06:39:54Z</time>
      </trkpt>
      <trkpt lat="48.02246" lon="6.7995">
        <ele>605.2</ele>
        <time>2022-06-26T06:39:55Z</time>
      </trkpt>
      <trkpt lat="48.02247" lon="6.79954">
        <ele>605</ele>
        <time>2022-06-26T06:39:56Z</time>
      </trkpt>
      <trkpt lat="48.02249" lon="6.79958">
        <ele>605</ele>
        <time>2022-06-26T06:39:57Z</time>
      </trkpt>
      <trkpt lat="48.02251" lon="6.79964">
        <ele>604.8</ele>
        <time>2022-06-26T06:39:58Z</time>
      </trkpt>
      <trkpt lat="48.02251" lon="6.79971">
        <ele>604.8</ele>
        <time>2022-06-26T06:39:59Z</time>
      </trkpt>
      <trkpt lat="48.02252" lon="6.79978">
        <ele>604.8</ele>
        <time>2022-06-26T06:40:00Z</time>
      </trkpt>
      <trkpt lat="48.02253" lon="6.7999">
        <ele>604.6</ele>
        <time>2022-06-26T06:40:02Z</time>
      </trkpt>
      <trkpt lat="48.02253" lon="6.8">
        <ele>604.4</ele>
        <time>2022-06-26T06:40:04Z</time>
      </trkpt>
      <trkpt lat="48.02253" lon="6.8002">
        <ele>604.2</ele>
        <time>2022-06-26T06:40:09Z</time>
      </trkpt>
      <trkpt lat="48.02253" lon="6.80023">
        <ele>604.2</ele>
        <time>2022-06-26T06:40:10Z</time>
      </trkpt>
      <trkpt lat="48.02253" lon="6.80025">
        <ele>604.2</ele>
        <time>2022-06-26T06:40:11Z</time>
      </trkpt>
      <trkpt lat="48.02253" lon="6.80027">
        <ele>604.2</ele>
        <time>2022-06-26T06:40:12Z</time>
      </trkpt>
      <trkpt lat="48.02252" lon="6.8003">
        <ele>604.4</ele>
        <time>2022-06-26T06:40:13Z</time>
      </trkpt>
      <trkpt lat="48.02252" lon="6.80032">
        <ele>604.6</ele>
        <time>2022-06-26T06:40:14Z</time>
      </trkpt>
      <trkpt lat="48.02252" lon="6.80035">
        <ele>604.6</ele>
        <time>2022-06-26T06:40:15Z</time>
      </trkpt>
      <trkpt lat="48.02252" lon="6.80041">
        <ele>605.2</ele>
        <time>2022-06-26T06:40:17Z</time>
      </trkpt>
      <trkpt lat="48.02253" lon="6.80043">
        <ele>605.2</ele>
        <time>2022-06-26T06:40:18Z</time>
      </trkpt>
      <trkpt lat="48.02253" lon="6.80045">
        <ele>605.4</ele>
        <time>2022-06-26T06:40:19Z</time>
      </trkpt>
      <trkpt lat="48.02253" lon="6.80048">
        <ele>605.6</ele>
        <time>2022-06-26T06:40:20Z</time>
      </trkpt>
      <trkpt lat="48.02253" lon="6.80051">
        <ele>606</ele>
        <time>2022-06-26T06:40:21Z</time>
      </trkpt>
      <trkpt lat="48.02253" lon="6.80054">
        <ele>606</ele>
        <time>2022-06-26T06:40:22Z</time>
      </trkpt>
      <trkpt lat="48.02252" lon="6.80056">
        <ele>606.2</ele>
        <time>2022-06-26T06:40:23Z</time>
      </trkpt>
      <trkpt lat="48.02251" lon="6.80059">
        <ele>606.2</ele>
        <time>2022-06-26T06:40:24Z</time>
      </trkpt>
      <trkpt lat="48.02252" lon="6.80061">
        <ele>606.6</ele>
        <time>2022-06-26T06:40:25Z</time>
      </trkpt>
      <trkpt lat="48.02252" lon="6.80063">
        <ele>606.8</ele>
        <time>2022-06-26T06:40:26Z</time>
      </trkpt>
      <trkpt lat="48.02252" lon="6.80065">
        <ele>607</ele>
        <time>2022-06-26T06:40:27Z</time>
      </trkpt>
      <trkpt lat="48.02253" lon="6.80067">
        <ele>607.2</ele>
        <time>2022-06-26T06:40:28Z</time>
      </trkpt>
      <trkpt lat="48.02254" lon="6.8007">
        <ele>607.2</ele>
        <time>2022-06-26T06:40:29Z</time>
      </trkpt>
      <trkpt lat="48.02254" lon="6.80073">
        <ele>607.8</ele>
        <time>2022-06-26T06:40:30Z</time>
      </trkpt>
      <trkpt lat="48.02254" lon="6.80076">
        <ele>607.8</ele>
        <time>2022-06-26T06:40:31Z</time>
      </trkpt>
      <trkpt lat="48.02254" lon="6.80079">
        <ele>608</ele>
        <time>2022-06-26T06:40:32Z</time>
      </trkpt>
      <trkpt lat="48.02254" lon="6.80081">
        <ele>608.2</ele>
        <time>2022-06-26T06:40:33Z</time>
      </trkpt>
      <trkpt lat="48.02254" lon="6.80084">
        <ele>608.4</ele>
        <time>2022-06-26T06:40:34Z</time>
      </trkpt>
      <trkpt lat="48.02254" lon="6.80087">
        <ele>608.8</ele>
        <time>2022-06-26T06:40:35Z</time>
      </trkpt>
      <trkpt lat="48.02254" lon="6.8009">
        <ele>608.8</ele>
        <time>2022-06-26T06:40:36Z</time>
      </trkpt>
      <trkpt lat="48.02253" lon="6.80093">
        <ele>609.2</ele>
        <time>2022-06-26T06:40:37Z</time>
      </trkpt>
      <trkpt lat="48.02253" lon="6.80096">
        <ele>609.2</ele>
        <time>2022-06-26T06:40:38Z</time>
      </trkpt>
      <trkpt lat="48.02253" lon="6.80099">
        <ele>609.6</ele>
        <time>2022-06-26T06:40:39Z</time>
      </trkpt>
      <trkpt lat="48.02253" lon="6.80101">
        <ele>609.6</ele>
        <time>2022-06-26T06:40:40Z</time>
      </trkpt>
      <trkpt lat="48.02253" lon="6.80103">
        <ele>610</ele>
        <time>2022-06-26T06:40:41Z</time>
      </trkpt>
      <trkpt lat="48.02253" lon="6.80106">
        <ele>610.4</ele>
        <time>2022-06-26T06:40:42Z</time>
      </trkpt>
      <trkpt lat="48.02253" lon="6.80108">
        <ele>610.4</ele>
        <time>2022-06-26T06:40:43Z</time>
      </trkpt>
      <trkpt lat="48.02253" lon="6.8011">
        <ele>610.8</ele>
        <time>2022-06-26T06:40:44Z</time>
      </trkpt>
      <trkpt lat="48.02253" lon="6.80112">
        <ele>611</ele>
        <time>2022-06-26T06:40:45Z</time>
      </trkpt>
      <trkpt lat="48.02253" lon="6.80115">
        <ele>611.2</ele>
        <time>2022-06-26T06:40:46Z</time>
      </trkpt>
      <trkpt lat="48.02252" lon="6.80117">
        <ele>611.4</ele>
        <time>2022-06-26T06:40:47Z</time>
      </trkpt>
      <trkpt lat="48.02251" lon="6.80119">
        <ele>611.6</ele>
        <time>2022-06-26T06:40:48Z</time>
      </trkpt>
      <trkpt lat="48.02251" lon="6.80122">
        <ele>611.8</ele>
        <time>2022-06-26T06:40:49Z</time>
      </trkpt>
      <trkpt lat="48.02251" lon="6.80124">
        <ele>612</ele>
        <time>2022-06-26T06:40:50Z</time>
      </trkpt>
      <trkpt lat="48.02251" lon="6.80126">
        <ele>612.4</ele>
        <time>2022-06-26T06:40:51Z</time>
      </trkpt>
      <trkpt lat="48.0225" lon="6.80129">
        <ele>612.4</ele>
        <time>2022-06-26T06:40:52Z</time>
      </trkpt>
      <trkpt lat="48.0225" lon="6.80131">
        <ele>612.6</ele>
        <time>2022-06-26T06:40:53Z</time>
      </trkpt>
      <trkpt lat="48.02249" lon="6.80134">
        <ele>612.6</ele>
        <time>2022-06-26T06:40:54Z</time>
      </trkpt>
      <trkpt lat="48.02248" lon="6.80136">
        <ele>613</ele>
        <time>2022-06-26T06:40:55Z</time>
      </trkpt>
      <trkpt lat="48.02248" lon="6.80139">
        <ele>613</ele>
        <time>2022-06-26T06:40:56Z</time>
      </trkpt>
      <trkpt lat="48.02248" lon="6.80141">
        <ele>613.2</ele>
        <time>2022-06-26T06:40:57Z</time>
      </trkpt>
      <trkpt lat="48.02248" lon="6.80143">
        <ele>613.4</ele>
        <time>2022-06-26T06:40:58Z</time>
      </trkpt>
      <trkpt lat="48.02248" lon="6.80146">
        <ele>613.6</ele>
        <time>2022-06-26T06:40:59Z</time>
      </trkpt>
      <trkpt lat="48.02248" lon="6.80148">
        <ele>613.8</ele>
        <time>2022-06-26T06:41:00Z</time>
      </trkpt>
      <trkpt lat="48.02249" lon="6.80151">
        <ele>614</ele>
        <time>2022-06-26T06:41:01Z</time>
      </trkpt>
      <trkpt lat="48.0225" lon="6.80153">
        <ele>614.2</ele>
        <time>2022-06-26T06:41:02Z</time>
      </trkpt>
      <trkpt lat="48.0225" lon="6.80156">
        <ele>614.2</ele>
        <time>2022-06-26T06:41:03Z</time>
      </trkpt>
      <trkpt lat="48.02251" lon="6.80158">
        <ele>614.4</ele>
        <time>2022-06-26T06:41:04Z</time>
      </trkpt>
      <trkpt lat="48.02252" lon="6.80161">
        <ele>614.4</ele>
        <time>2022-06-26T06:41:05Z</time>
      </trkpt>
      <trkpt lat="48.02252" lon="6.80163">
        <ele>614.6</ele>
        <time>2022-06-26T06:41:06Z</time>
      </trkpt>
      <trkpt lat="48.02252" lon="6.80166">
        <ele>614.6</ele>
        <time>2022-06-26T06:41:07Z</time>
      </trkpt>
      <trkpt lat="48.02252" lon="6.80169">
        <ele>614.8</ele>
        <time>2022-06-26T06:41:08Z</time>
      </trkpt>
      <trkpt lat="48.02253" lon="6.80173">
        <ele>614.8</ele>
        <time>2022-06-26T06:41:09Z</time>
      </trkpt>
      <trkpt lat="48.02254" lon="6.80176">
        <ele>614.8</ele>
        <time>2022-06-26T06:41:10Z</time>
      </trkpt>
      <trkpt lat="48.02255" lon="6.80178">
        <ele>614.8</ele>
        <time>2022-06-26T06:41:11Z</time>
      </trkpt>
      <trkpt lat="48.02255" lon="6.80182">
        <ele>614.8</ele>
        <time>2022-06-26T06:41:12Z</time>
      </trkpt>
      <trkpt lat="48.02256" lon="6.80185">
        <ele>614.6</ele>
        <time>2022-06-26T06:41:13Z</time>
      </trkpt>
      <trkpt lat="48.02256" lon="6.80189">
        <ele>614.4</ele>
        <time>2022-06-26T06:41:14Z</time>
      </trkpt>
      <trkpt lat="48.02257" lon="6.80193">
        <ele>614</ele>
        <time>2022-06-26T06:41:15Z</time>
      </trkpt>
      <trkpt lat="48.02258" lon="6.80197">
        <ele>614</ele>
        <time>2022-06-26T06:41:16Z</time>
      </trkpt>
      <trkpt lat="48.02257" lon="6.80201">
        <ele>613.8</ele>
        <time>2022-06-26T06:41:17Z</time>
      </trkpt>
      <trkpt lat="48.02258" lon="6.80203">
        <ele>613.4</ele>
        <time>2022-06-26T06:41:18Z</time>
      </trkpt>
      <trkpt lat="48.02259" lon="6.80206">
        <ele>613.4</ele>
        <time>2022-06-26T06:41:19Z</time>
      </trkpt>
      <trkpt lat="48.02261" lon="6.80211">
        <ele>613</ele>
        <time>2022-06-26T06:41:21Z</time>
      </trkpt>
      <trkpt lat="48.02261" lon="6.80215">
        <ele>613</ele>
        <time>2022-06-26T06:41:22Z</time>
      </trkpt>
      <trkpt lat="48.02261" lon="6.80219">
        <ele>612.8</ele>
        <time>2022-06-26T06:41:23Z</time>
      </trkpt>
      <trkpt lat="48.02262" lon="6.80223">
        <ele>612.8</ele>
        <time>2022-06-26T06:41:24Z</time>
      </trkpt>
      <trkpt lat="48.02263" lon="6.80227">
        <ele>612.6</ele>
        <time>2022-06-26T06:41:25Z</time>
      </trkpt>
      <trkpt lat="48.02264" lon="6.80231">
        <ele>612.6</ele>
        <time>2022-06-26T06:41:26Z</time>
      </trkpt>
      <trkpt lat="48.02264" lon="6.80244">
        <ele>612.2</ele>
        <time>2022-06-26T06:41:28Z</time>
      </trkpt>
      <trkpt lat="48.02261" lon="6.80253">
        <ele>612</ele>
        <time>2022-06-26T06:41:30Z</time>
      </trkpt>
      <trkpt lat="48.02262" lon="6.80257">
        <ele>611.8</ele>
        <time>2022-06-26T06:41:31Z</time>
      </trkpt>
      <trkpt lat="48.02263" lon="6.80261">
        <ele>611.6</ele>
        <time>2022-06-26T06:41:32Z</time>
      </trkpt>
      <trkpt lat="48.02266" lon="6.80264">
        <ele>611.2</ele>
        <time>2022-06-26T06:41:33Z</time>
      </trkpt>
      <trkpt lat="48.02268" lon="6.80268">
        <ele>611.2</ele>
        <time>2022-06-26T06:41:34Z</time>
      </trkpt>
      <trkpt lat="48.02269" lon="6.80272">
        <ele>611</ele>
        <time>2022-06-26T06:41:35Z</time>
      </trkpt>
      <trkpt lat="48.02269" lon="6.80275">
        <ele>610.8</ele>
        <time>2022-06-26T06:41:36Z</time>
      </trkpt>
      <trkpt lat="48.02269" lon="6.8028">
        <ele>610.8</ele>
        <time>2022-06-26T06:41:37Z</time>
      </trkpt>
      <trkpt lat="48.0227" lon="6.80282">
        <ele>610.4</ele>
        <time>2022-06-26T06:41:38Z</time>
      </trkpt>
      <trkpt lat="48.02271" lon="6.80285">
        <ele>610.4</ele>
        <time>2022-06-26T06:41:39Z</time>
      </trkpt>
      <trkpt lat="48.02271" lon="6.8029">
        <ele>610.4</ele>
        <time>2022-06-26T06:41:40Z</time>
      </trkpt>
      <trkpt lat="48.02271" lon="6.80295">
        <ele>610.4</ele>
        <time>2022-06-26T06:41:41Z</time>
      </trkpt>
      <trkpt lat="48.02274" lon="6.80301">
        <ele>610.2</ele>
        <time>2022-06-26T06:41:42Z</time>
      </trkpt>
      <trkpt lat="48.02275" lon="6.80306">
        <ele>610.2</ele>
        <time>2022-06-26T06:41:43Z</time>
      </trkpt>
      <trkpt lat="48.02278" lon="6.8031">
        <ele>610.2</ele>
        <time>2022-06-26T06:41:44Z</time>
      </trkpt>
      <trkpt lat="48.02279" lon="6.80313">
        <ele>610.2</ele>
        <time>2022-06-26T06:41:45Z</time>
      </trkpt>
      <trkpt lat="48.02278" lon="6.80317">
        <ele>610.2</ele>
        <time>2022-06-26T06:41:46Z</time>
      </trkpt>
      <trkpt lat="48.02276" lon="6.80321">
        <ele>610.2</ele>
        <time>2022-06-26T06:41:47Z</time>
      </trkpt>
      <trkpt lat="48.02274" lon="6.80325">
        <ele>610.2</ele>
        <time>2022-06-26T06:41:48Z</time>
      </trkpt>
      <trkpt lat="48.02275" lon="6.80328">
        <ele>610.2</ele>
        <time>2022-06-26T06:41:49Z</time>
      </trkpt>
      <trkpt lat="48.02276" lon="6.80333">
        <ele>610.2</ele>
        <time>2022-06-26T06:41:50Z</time>
      </trkpt>
      <trkpt lat="48.02277" lon="6.80338">
        <ele>610</ele>
        <time>2022-06-26T06:41:51Z</time>
      </trkpt>
      <trkpt lat="48.0228" lon="6.8035">
        <ele>610</ele>
        <time>2022-06-26T06:41:53Z</time>
      </trkpt>
      <trkpt lat="48.02279" lon="6.80354">
        <ele>610</ele>
        <time>2022-06-26T06:41:54Z</time>
      </trkpt>
      <trkpt lat="48.0228" lon="6.80357">
        <ele>610</ele>
        <time>2022-06-26T06:41:55Z</time>
      </trkpt>
      <trkpt lat="48.02281" lon="6.80359">
        <ele>610</ele>
        <time>2022-06-26T06:41:56Z</time>
      </trkpt>
      <trkpt lat="48.02281" lon="6.80364">
        <ele>610</ele>
        <time>2022-06-26T06:41:57Z</time>
      </trkpt>
      <trkpt lat="48.02282" lon="6.80368">
        <ele>610</ele>
        <time>2022-06-26T06:41:58Z</time>
      </trkpt>
      <trkpt lat="48.02281" lon="6.8037">
        <ele>610</ele>
        <time>2022-06-26T06:41:59Z</time>
      </trkpt>
      <trkpt lat="48.0228" lon="6.80374">
        <ele>610</ele>
        <time>2022-06-26T06:42:00Z</time>
      </trkpt>
      <trkpt lat="48.0228" lon="6.80382">
        <ele>610</ele>
        <time>2022-06-26T06:42:02Z</time>
      </trkpt>
      <trkpt lat="48.0228" lon="6.80385">
        <ele>610</ele>
        <time>2022-06-26T06:42:03Z</time>
      </trkpt>
      <trkpt lat="48.0228" lon="6.80389">
        <ele>610</ele>
        <time>2022-06-26T06:42:04Z</time>
      </trkpt>
      <trkpt lat="48.02278" lon="6.80394">
        <ele>610</ele>
        <time>2022-06-26T06:42:05Z</time>
      </trkpt>
      <trkpt lat="48.02276" lon="6.80398">
        <ele>610</ele>
        <time>2022-06-26T06:42:06Z</time>
      </trkpt>
      <trkpt lat="48.02275" lon="6.80401">
        <ele>610.2</ele>
        <time>2022-06-26T06:42:07Z</time>
      </trkpt>
      <trkpt lat="48.02273" lon="6.80407">
        <ele>610.2</ele>
        <time>2022-06-26T06:42:08Z</time>
      </trkpt>
      <trkpt lat="48.02274" lon="6.80412">
        <ele>610.2</ele>
        <time>2022-06-26T06:42:10Z</time>
      </trkpt>
      <trkpt lat="48.02272" lon="6.80416">
        <ele>610.2</ele>
        <time>2022-06-26T06:42:11Z</time>
      </trkpt>
      <trkpt lat="48.02273" lon="6.80419">
        <ele>610.2</ele>
        <time>2022-06-26T06:42:12Z</time>
      </trkpt>
      <trkpt lat="48.02274" lon="6.80423">
        <ele>610.2</ele>
        <time>2022-06-26T06:42:13Z</time>
      </trkpt>
      <trkpt lat="48.02276" lon="6.80428">
        <ele>610.2</ele>
        <time>2022-06-26T06:42:14Z</time>
      </trkpt>
      <trkpt lat="48.02275" lon="6.80433">
        <ele>610.2</ele>
        <time>2022-06-26T06:42:15Z</time>
      </trkpt>
      <trkpt lat="48.02274" lon="6.80436">
        <ele>610.4</ele>
        <time>2022-06-26T06:42:16Z</time>
      </trkpt>
      <trkpt lat="48.02274" lon="6.80442">
        <ele>610.4</ele>
        <time>2022-06-26T06:42:18Z</time>
      </trkpt>
      <trkpt lat="48.02274" lon="6.80445">
        <ele>610.4</ele>
        <time>2022-06-26T06:42:19Z</time>
      </trkpt>
      <trkpt lat="48.02272" lon="6.8045">
        <ele>610.4</ele>
        <time>2022-06-26T06:42:20Z</time>
      </trkpt>
      <trkpt lat="48.0227" lon="6.80457">
        <ele>610.4</ele>
        <time>2022-06-26T06:42:21Z</time>
      </trkpt>
      <trkpt lat="48.02269" lon="6.8046">
        <ele>610.6</ele>
        <time>2022-06-26T06:42:22Z</time>
      </trkpt>
      <trkpt lat="48.02268" lon="6.80461">
        <ele>610.6</ele>
        <time>2022-06-26T06:42:23Z</time>
      </trkpt>
      <trkpt lat="48.02267" lon="6.80462">
        <ele>610.6</ele>
        <time>2022-06-26T06:42:24Z</time>
      </trkpt>
      <trkpt lat="48.02267" lon="6.80463">
        <ele>610.6</ele>
        <time>2022-06-26T06:42:25Z</time>
      </trkpt>
      <trkpt lat="48.02267" lon="6.80463">
        <ele>610.6</ele>
        <time>2022-06-26T06:42:26Z</time>
      </trkpt>
      <trkpt lat="48.02267" lon="6.80463">
        <ele>610.8</ele>
        <time>2022-06-26T06:42:27Z</time>
      </trkpt>
      <trkpt lat="48.02267" lon="6.80464">
        <ele>611</ele>
        <time>2022-06-26T06:42:31Z</time>
      </trkpt>
      <trkpt lat="48.02267" lon="6.80464">
        <ele>611.2</ele>
        <time>2022-06-26T06:42:32Z</time>
      </trkpt>
      <trkpt lat="48.02267" lon="6.80465">
        <ele>611.2</ele>
        <time>2022-06-26T06:42:33Z</time>
      </trkpt>
      <trkpt lat="48.02268" lon="6.80467">
        <ele>611.2</ele>
        <time>2022-06-26T06:42:38Z</time>
      </trkpt>
      <trkpt lat="48.02268" lon="6.80467">
        <ele>611.2</ele>
        <time>2022-06-26T06:42:39Z</time>
      </trkpt>
      <trkpt lat="48.02268" lon="6.80469">
        <ele>611.2</ele>
        <time>2022-06-26T06:42:42Z</time>
      </trkpt>
      <trkpt lat="48.02268" lon="6.80474">
        <ele>611.2</ele>
        <time>2022-06-26T06:42:44Z</time>
      </trkpt>
      <trkpt lat="48.02267" lon="6.80478">
        <ele>611.2</ele>
        <time>2022-06-26T06:42:46Z</time>
      </trkpt>
      <trkpt lat="48.02266" lon="6.8048">
        <ele>611.2</ele>
        <time>2022-06-26T06:42:47Z</time>
      </trkpt>
      <trkpt lat="48.02265" lon="6.80483">
        <ele>611.2</ele>
        <time>2022-06-26T06:42:48Z</time>
      </trkpt>
      <trkpt lat="48.02262" lon="6.8049">
        <ele>611.6</ele>
        <time>2022-06-26T06:42:50Z</time>
      </trkpt>
      <trkpt lat="48.02261" lon="6.80496">
        <ele>611.6</ele>
        <time>2022-06-26T06:42:52Z</time>
      </trkpt>
      <trkpt lat="48.0226" lon="6.80499">
        <ele>611.8</ele>
        <time>2022-06-26T06:42:53Z</time>
      </trkpt>
      <trkpt lat="48.02258" lon="6.80504">
        <ele>612</ele>
        <time>2022-06-26T06:42:55Z</time>
      </trkpt>
      <trkpt lat="48.02255" lon="6.8051">
        <ele>612.4</ele>
        <time>2022-06-26T06:42:59Z</time>
      </trkpt>
      <trkpt lat="48.02253" lon="6.8051">
        <ele>612.6</ele>
        <time>2022-06-26T06:43:01Z</time>
      </trkpt>
      <trkpt lat="48.02253" lon="6.8051">
        <ele>612.6</ele>
        <time>2022-06-26T06:43:02Z</time>
      </trkpt>
      <trkpt lat="48.02253" lon="6.80514">
        <ele>612.6</ele>
        <time>2022-06-26T06:43:06Z</time>
      </trkpt>
      <trkpt lat="48.02253" lon="6.80514">
        <ele>612.6</ele>
        <time>2022-06-26T06:43:07Z</time>
      </trkpt>
      <trkpt lat="48.02254" lon="6.80518">
        <ele>612.6</ele>
        <time>2022-06-26T06:43:12Z</time>
      </trkpt>
      <trkpt lat="48.02255" lon="6.80519">
        <ele>612.6</ele>
        <time>2022-06-26T06:43:13Z</time>
      </trkpt>
      <trkpt lat="48.02255" lon="6.80521">
        <ele>612.6</ele>
        <time>2022-06-26T06:43:14Z</time>
      </trkpt>
      <trkpt lat="48.02255" lon="6.80522">
        <ele>612.6</ele>
        <time>2022-06-26T06:43:15Z</time>
      </trkpt>
      <trkpt lat="48.02257" lon="6.80523">
        <ele>612.8</ele>
        <time>2022-06-26T06:43:16Z</time>
      </trkpt>
      <trkpt lat="48.0226" lon="6.80526">
        <ele>612.8</ele>
        <time>2022-06-26T06:43:18Z</time>
      </trkpt>
      <trkpt lat="48.02262" lon="6.80527">
        <ele>612.8</ele>
        <time>2022-06-26T06:43:19Z</time>
      </trkpt>
      <trkpt lat="48.02263" lon="6.80529">
        <ele>612.8</ele>
        <time>2022-06-26T06:43:20Z</time>
      </trkpt>
      <trkpt lat="48.02264" lon="6.8053">
        <ele>612.6</ele>
        <time>2022-06-26T06:43:21Z</time>
      </trkpt>
      <trkpt lat="48.02264" lon="6.80533">
        <ele>612.6</ele>
        <time>2022-06-26T06:43:22Z</time>
      </trkpt>
      <trkpt lat="48.02264" lon="6.80533">
        <ele>612.4</ele>
        <time>2022-06-26T06:43:23Z</time>
      </trkpt>
      <trkpt lat="48.02265" lon="6.80534">
        <ele>612.6</ele>
        <time>2022-06-26T06:43:24Z</time>
      </trkpt>
      <trkpt lat="48.02264" lon="6.80534">
        <ele>612.6</ele>
        <time>2022-06-26T06:43:25Z</time>
      </trkpt>
      <trkpt lat="48.02264" lon="6.80534">
        <ele>612.8</ele>
        <time>2022-06-26T06:43:26Z</time>
      </trkpt>
      <trkpt lat="48.02264" lon="6.80534">
        <ele>612.8</ele>
        <time>2022-06-26T06:43:27Z</time>
      </trkpt>
      <trkpt lat="48.02265" lon="6.80535">
        <ele>612.8</ele>
        <time>2022-06-26T06:43:28Z</time>
      </trkpt>
      <trkpt lat="48.02265" lon="6.8054">
        <ele>612.8</ele>
        <time>2022-06-26T06:43:30Z</time>
      </trkpt>
      <trkpt lat="48.02265" lon="6.80542">
        <ele>612.8</ele>
        <time>2022-06-26T06:43:31Z</time>
      </trkpt>
      <trkpt lat="48.02263" lon="6.80548">
        <ele>613</ele>
        <time>2022-06-26T06:43:34Z</time>
      </trkpt>
      <trkpt lat="48.02263" lon="6.80549">
        <ele>613</ele>
        <time>2022-06-26T06:43:35Z</time>
      </trkpt>
      <trkpt lat="48.02263" lon="6.80549">
        <ele>613</ele>
        <time>2022-06-26T06:43:37Z</time>
      </trkpt>
      <trkpt lat="48.02261" lon="6.8055">
        <ele>613.2</ele>
        <time>2022-06-26T06:43:38Z</time>
      </trkpt>
      <trkpt lat="48.02261" lon="6.80552">
        <ele>613.2</ele>
        <time>2022-06-26T06:43:39Z</time>
      </trkpt>
      <trkpt lat="48.02261" lon="6.80554">
        <ele>613.2</ele>
        <time>2022-06-26T06:43:40Z</time>
      </trkpt>
      <trkpt lat="48.02261" lon="6.80557">
        <ele>613.4</ele>
        <time>2022-06-26T06:43:41Z</time>
      </trkpt>
      <trkpt lat="48.02261" lon="6.80559">
        <ele>613.4</ele>
        <time>2022-06-26T06:43:42Z</time>
      </trkpt>
      <trkpt lat="48.02261" lon="6.8056">
        <ele>613.4</ele>
        <time>2022-06-26T06:43:43Z</time>
      </trkpt>
      <trkpt lat="48.02261" lon="6.80561">
        <ele>613.4</ele>
        <time>2022-06-26T06:43:44Z</time>
      </trkpt>
      <trkpt lat="48.02261" lon="6.80561">
        <ele>613.4</ele>
        <time>2022-06-26T06:43:45Z</time>
      </trkpt>
      <trkpt lat="48.02261" lon="6.80561">
        <ele>613.4</ele>
        <time>2022-06-26T06:43:46Z</time>
      </trkpt>
      <trkpt lat="48.02261" lon="6.80561">
        <ele>613.4</ele>
        <time>2022-06-26T06:43:47Z</time>
      </trkpt>
      <trkpt lat="48.02261" lon="6.80562">
        <ele>613.4</ele>
        <time>2022-06-26T06:43:48Z</time>
      </trkpt>
      <trkpt lat="48.02261" lon="6.80563">
        <ele>613.4</ele>
        <time>2022-06-26T06:43:49Z</time>
      </trkpt>
      <trkpt lat="48.02261" lon="6.80564">
        <ele>613.4</ele>
        <time>2022-06-26T06:43:50Z</time>
      </trkpt>
      <trkpt lat="48.0226" lon="6.80565">
        <ele>613.4</ele>
        <time>2022-06-26T06:43:51Z</time>
      </trkpt>
      <trkpt lat="48.0226" lon="6.80565">
        <ele>613.4</ele>
        <time>2022-06-26T06:43:52Z</time>
      </trkpt>
      <trkpt lat="48.02259" lon="6.8057">
        <ele>613.2</ele>
        <time>2022-06-26T06:43:56Z</time>
      </trkpt>
      <trkpt lat="48.02259" lon="6.8057">
        <ele>613.2</ele>
        <time>2022-06-26T06:43:57Z</time>
      </trkpt>
      <trkpt lat="48.02259" lon="6.80572">
        <ele>613.2</ele>
        <time>2022-06-26T06:43:58Z</time>
      </trkpt>
      <trkpt lat="48.02259" lon="6.80573">
        <ele>613.2</ele>
        <time>2022-06-26T06:43:59Z</time>
      </trkpt>
      <trkpt lat="48.0226" lon="6.80575">
        <ele>613.2</ele>
        <time>2022-06-26T06:44:00Z</time>
      </trkpt>
      <trkpt lat="48.02261" lon="6.80577">
        <ele>613.2</ele>
        <time>2022-06-26T06:44:01Z</time>
      </trkpt>
      <trkpt lat="48.02261" lon="6.80579">
        <ele>613.2</ele>
        <time>2022-06-26T06:44:02Z</time>
      </trkpt>
      <trkpt lat="48.0226" lon="6.80581">
        <ele>613.2</ele>
        <time>2022-06-26T06:44:03Z</time>
      </trkpt>
      <trkpt lat="48.02261" lon="6.80583">
        <ele>613.2</ele>
        <time>2022-06-26T06:44:04Z</time>
      </trkpt>
      <trkpt lat="48.02261" lon="6.80583">
        <ele>613.2</ele>
        <time>2022-06-26T06:44:05Z</time>
      </trkpt>
      <trkpt lat="48.02261" lon="6.80583">
        <ele>613.2</ele>
        <time>2022-06-26T06:44:07Z</time>
      </trkpt>
      <trkpt lat="48.0226" lon="6.80587">
        <ele>613.2</ele>
        <time>2022-06-26T06:44:11Z</time>
      </trkpt>
      <trkpt lat="48.02259" lon="6.80593">
        <ele>613.2</ele>
        <time>2022-06-26T06:44:13Z</time>
      </trkpt>
      <trkpt lat="48.02257" lon="6.80599">
        <ele>613.4</ele>
        <time>2022-06-26T06:44:15Z</time>
      </trkpt>
      <trkpt lat="48.02257" lon="6.80601">
        <ele>613.6</ele>
        <time>2022-06-26T06:44:16Z</time>
      </trkpt>
      <trkpt lat="48.02257" lon="6.80603">
        <ele>613.6</ele>
        <time>2022-06-26T06:44:17Z</time>
      </trkpt>
      <trkpt lat="48.02258" lon="6.80605">
        <ele>613.8</ele>
        <time>2022-06-26T06:44:18Z</time>
      </trkpt>
      <trkpt lat="48.02262" lon="6.80613">
        <ele>613.8</ele>
        <time>2022-06-26T06:44:21Z</time>
      </trkpt>
      <trkpt lat="48.02262" lon="6.80614">
        <ele>613.8</ele>
        <time>2022-06-26T06:44:22Z</time>
      </trkpt>
      <trkpt lat="48.02262" lon="6.80615">
        <ele>613.8</ele>
        <time>2022-06-26T06:44:23Z</time>
      </trkpt>
      <trkpt lat="48.02262" lon="6.80615">
        <ele>613.8</ele>
        <time>2022-06-26T06:44:24Z</time>
      </trkpt>
      <trkpt lat="48.02261" lon="6.80615">
        <ele>614</ele>
        <time>2022-06-26T06:44:28Z</time>
      </trkpt>
      <trkpt lat="48.02261" lon="6.80615">
        <ele>614</ele>
        <time>2022-06-26T06:44:30Z</time>
      </trkpt>
      <trkpt lat="48.02263" lon="6.80619">
        <ele>614</ele>
        <time>2022-06-26T06:44:36Z</time>
      </trkpt>
      <trkpt lat="48.02265" lon="6.80625">
        <ele>614</ele>
        <time>2022-06-26T06:44:38Z</time>
      </trkpt>
      <trkpt lat="48.02266" lon="6.80628">
        <ele>614</ele>
        <time>2022-06-26T06:44:39Z</time>
      </trkpt>
      <trkpt lat="48.02266" lon="6.80628">
        <ele>614</ele>
        <time>2022-06-26T06:44:40Z</time>
      </trkpt>
      <trkpt lat="48.02266" lon="6.80628">
        <ele>614</ele>
        <time>2022-06-26T06:44:41Z</time>
      </trkpt>
      <trkpt lat="48.02266" lon="6.80628">
        <ele>614</ele>
        <time>2022-06-26T06:44:42Z</time>
      </trkpt>
      <trkpt lat="48.02266" lon="6.80628">
        <ele>614.2</ele>
        <time>2022-06-26T06:44:43Z</time>
      </trkpt>
      <trkpt lat="48.02266" lon="6.8063">
        <ele>614.2</ele>
        <time>2022-06-26T06:44:44Z</time>
      </trkpt>
      <trkpt lat="48.02265" lon="6.80637">
        <ele>614.4</ele>
        <time>2022-06-26T06:44:49Z</time>
      </trkpt>
      <trkpt lat="48.02265" lon="6.80637">
        <ele>614.4</ele>
        <time>2022-06-26T06:44:50Z</time>
      </trkpt>
      <trkpt lat="48.02265" lon="6.80637">
        <ele>614.6</ele>
        <time>2022-06-26T06:44:51Z</time>
      </trkpt>
      <trkpt lat="48.02265" lon="6.80637">
        <ele>614.6</ele>
        <time>2022-06-26T06:44:52Z</time>
      </trkpt>
      <trkpt lat="48.02265" lon="6.80637">
        <ele>614.6</ele>
        <time>2022-06-26T06:44:53Z</time>
      </trkpt>
      <trkpt lat="48.02264" lon="6.80652">
        <ele>615</ele>
        <time>2022-06-26T06:44:58Z</time>
      </trkpt>
      <trkpt lat="48.02263" lon="6.80656">
        <ele>615</ele>
        <time>2022-06-26T06:44:59Z</time>
      </trkpt>
      <trkpt lat="48.02262" lon="6.80659">
        <ele>615</ele>
        <time>2022-06-26T06:45:00Z</time>
      </trkpt>
      <trkpt lat="48.02261" lon="6.80663">
        <ele>615.2</ele>
        <time>2022-06-26T06:45:01Z</time>
      </trkpt>
      <trkpt lat="48.02261" lon="6.80664">
        <ele>615.2</ele>
        <time>2022-06-26T06:45:02Z</time>
      </trkpt>
      <trkpt lat="48.02261" lon="6.80666">
        <ele>615.2</ele>
        <time>2022-06-26T06:45:03Z</time>
      </trkpt>
      <trkpt lat="48.02261" lon="6.80666">
        <ele>615.2</ele>
        <time>2022-06-26T06:45:04Z</time>
      </trkpt>
      <trkpt lat="48.02261" lon="6.80666">
        <ele>615.4</ele>
        <time>2022-06-26T06:45:05Z</time>
      </trkpt>
      <trkpt lat="48.0226" lon="6.80669">
        <ele>615.6</ele>
        <time>2022-06-26T06:45:06Z</time>
      </trkpt>
      <trkpt lat="48.02258" lon="6.80675">
        <ele>615.8</ele>
        <time>2022-06-26T06:45:08Z</time>
      </trkpt>
      <trkpt lat="48.02258" lon="6.80675">
        <ele>615.8</ele>
        <time>2022-06-26T06:45:09Z</time>
      </trkpt>
      <trkpt lat="48.02258" lon="6.80675">
        <ele>615.8</ele>
        <time>2022-06-26T06:45:10Z</time>
      </trkpt>
      <trkpt lat="48.02258" lon="6.80675">
        <ele>616</ele>
        <time>2022-06-26T06:45:11Z</time>
      </trkpt>
      <trkpt lat="48.02258" lon="6.80675">
        <ele>616.4</ele>
        <time>2022-06-26T06:45:16Z</time>
      </trkpt>
      <trkpt lat="48.02258" lon="6.80675">
        <ele>616.6</ele>
        <time>2022-06-26T06:45:17Z</time>
      </trkpt>
      <trkpt lat="48.02257" lon="6.80678">
        <ele>616.6</ele>
        <time>2022-06-26T06:45:19Z</time>
      </trkpt>
      <trkpt lat="48.02257" lon="6.80681">
        <ele>616.6</ele>
        <time>2022-06-26T06:45:22Z</time>
      </trkpt>
      <trkpt lat="48.02256" lon="6.80684">
        <ele>616.6</ele>
        <time>2022-06-26T06:45:23Z</time>
      </trkpt>
      <trkpt lat="48.02256" lon="6.80684">
        <ele>616.6</ele>
        <time>2022-06-26T06:45:24Z</time>
      </trkpt>
      <trkpt lat="48.02256" lon="6.80684">
        <ele>616.8</ele>
        <time>2022-06-26T06:45:25Z</time>
      </trkpt>
      <trkpt lat="48.02256" lon="6.80684">
        <ele>616.8</ele>
        <time>2022-06-26T06:45:27Z</time>
      </trkpt>
      <trkpt lat="48.02256" lon="6.80684">
        <ele>616.8</ele>
        <time>2022-06-26T06:45:28Z</time>
      </trkpt>
      <trkpt lat="48.02256" lon="6.80689">
        <ele>616.8</ele>
        <time>2022-06-26T06:45:30Z</time>
      </trkpt>
      <trkpt lat="48.02256" lon="6.80701">
        <ele>616.8</ele>
        <time>2022-06-26T06:45:32Z</time>
      </trkpt>
      <trkpt lat="48.02256" lon="6.80712">
        <ele>617</ele>
        <time>2022-06-26T06:45:34Z</time>
      </trkpt>
      <trkpt lat="48.02255" lon="6.80719">
        <ele>617.2</ele>
        <time>2022-06-26T06:45:35Z</time>
      </trkpt>
      <trkpt lat="48.02254" lon="6.80724">
        <ele>617.2</ele>
        <time>2022-06-26T06:45:36Z</time>
      </trkpt>
      <trkpt lat="48.02253" lon="6.80727">
        <ele>617.4</ele>
        <time>2022-06-26T06:45:37Z</time>
      </trkpt>
      <trkpt lat="48.02253" lon="6.80728">
        <ele>617.4</ele>
        <time>2022-06-26T06:45:38Z</time>
      </trkpt>
      <trkpt lat="48.02253" lon="6.80728">
        <ele>617.6</ele>
        <time>2022-06-26T06:45:39Z</time>
      </trkpt>
      <trkpt lat="48.02253" lon="6.80728">
        <ele>618</ele>
        <time>2022-06-26T06:45:40Z</time>
      </trkpt>
      <trkpt lat="48.02253" lon="6.8073">
        <ele>618.4</ele>
        <time>2022-06-26T06:45:43Z</time>
      </trkpt>
      <trkpt lat="48.02253" lon="6.80731">
        <ele>618.8</ele>
        <time>2022-06-26T06:45:45Z</time>
      </trkpt>
      <trkpt lat="48.02253" lon="6.80731">
        <ele>618.8</ele>
        <time>2022-06-26T06:45:46Z</time>
      </trkpt>
      <trkpt lat="48.02253" lon="6.80731">
        <ele>618.8</ele>
        <time>2022-06-26T06:45:47Z</time>
      </trkpt>
      <trkpt lat="48.02252" lon="6.80736">
        <ele>619</ele>
        <time>2022-06-26T06:45:50Z</time>
      </trkpt>
      <trkpt lat="48.02252" lon="6.80736">
        <ele>619</ele>
        <time>2022-06-26T06:45:51Z</time>
      </trkpt>
      <trkpt lat="48.02252" lon="6.80736">
        <ele>619</ele>
        <time>2022-06-26T06:45:52Z</time>
      </trkpt>
      <trkpt lat="48.0225" lon="6.80739">
        <ele>619.2</ele>
        <time>2022-06-26T06:45:54Z</time>
      </trkpt>
      <trkpt lat="48.0225" lon="6.80741">
        <ele>619.4</ele>
        <time>2022-06-26T06:45:55Z</time>
      </trkpt>
      <trkpt lat="48.0225" lon="6.80741">
        <ele>619.6</ele>
        <time>2022-06-26T06:45:57Z</time>
      </trkpt>
      <trkpt lat="48.0225" lon="6.80741">
        <ele>619.6</ele>
        <time>2022-06-26T06:45:58Z</time>
      </trkpt>
      <trkpt lat="48.0225" lon="6.80741">
        <ele>619.6</ele>
        <time>2022-06-26T06:45:59Z</time>
      </trkpt>
      <trkpt lat="48.0225" lon="6.80742">
        <ele>619.6</ele>
        <time>2022-06-26T06:46:00Z</time>
      </trkpt>
      <trkpt lat="48.0225" lon="6.80744">
        <ele>619.6</ele>
        <time>2022-06-26T06:46:01Z</time>
      </trkpt>
      <trkpt lat="48.0225" lon="6.80747">
        <ele>619.8</ele>
        <time>2022-06-26T06:46:02Z</time>
      </trkpt>
      <trkpt lat="48.0225" lon="6.80749">
        <ele>619.8</ele>
        <time>2022-06-26T06:46:03Z</time>
      </trkpt>
      <trkpt lat="48.0225" lon="6.80752">
        <ele>619.8</ele>
        <time>2022-06-26T06:46:04Z</time>
      </trkpt>
      <trkpt lat="48.02248" lon="6.80757">
        <ele>619.6</ele>
        <time>2022-06-26T06:46:05Z</time>
      </trkpt>
      <trkpt lat="48.02248" lon="6.80761">
        <ele>619.8</ele>
        <time>2022-06-26T06:46:06Z</time>
      </trkpt>
      <trkpt lat="48.0225" lon="6.80775">
        <ele>619.6</ele>
        <time>2022-06-26T06:46:07Z</time>
      </trkpt>
      <trkpt lat="48.02249" lon="6.80779">
        <ele>619.6</ele>
        <time>2022-06-26T06:46:08Z</time>
      </trkpt>
      <trkpt lat="48.02248" lon="6.80787">
        <ele>619.6</ele>
        <time>2022-06-26T06:46:10Z</time>
      </trkpt>
      <trkpt lat="48.02247" lon="6.80791">
        <ele>619.6</ele>
        <time>2022-06-26T06:46:11Z</time>
      </trkpt>
      <trkpt lat="48.02247" lon="6.80793">
        <ele>619.6</ele>
        <time>2022-06-26T06:46:12Z</time>
      </trkpt>
      <trkpt lat="48.02247" lon="6.80795">
        <ele>619.6</ele>
        <time>2022-06-26T06:46:13Z</time>
      </trkpt>
      <trkpt lat="48.02247" lon="6.80798">
        <ele>619.6</ele>
        <time>2022-06-26T06:46:14Z</time>
      </trkpt>
      <trkpt lat="48.02247" lon="6.80798">
        <ele>619.8</ele>
        <time>2022-06-26T06:46:15Z</time>
      </trkpt>
      <trkpt lat="48.02247" lon="6.80798">
        <ele>619.8</ele>
        <time>2022-06-26T06:46:16Z</time>
      </trkpt>
      <trkpt lat="48.02247" lon="6.80798">
        <ele>619.8</ele>
        <time>2022-06-26T06:46:17Z</time>
      </trkpt>
      <trkpt lat="48.02247" lon="6.80799">
        <ele>620</ele>
        <time>2022-06-26T06:46:18Z</time>
      </trkpt>
      <trkpt lat="48.02247" lon="6.80801">
        <ele>620</ele>
        <time>2022-06-26T06:46:19Z</time>
      </trkpt>
      <trkpt lat="48.02247" lon="6.80801">
        <ele>620</ele>
        <time>2022-06-26T06:46:20Z</time>
      </trkpt>
      <trkpt lat="48.02248" lon="6.80802">
        <ele>620</ele>
        <time>2022-06-26T06:46:21Z</time>
      </trkpt>
      <trkpt lat="48.02248" lon="6.80804">
        <ele>620.2</ele>
        <time>2022-06-26T06:46:24Z</time>
      </trkpt>
      <trkpt lat="48.02248" lon="6.80806">
        <ele>620.2</ele>
        <time>2022-06-26T06:46:25Z</time>
      </trkpt>
      <trkpt lat="48.02248" lon="6.80808">
        <ele>620.4</ele>
        <time>2022-06-26T06:46:26Z</time>
      </trkpt>
      <trkpt lat="48.02248" lon="6.80809">
        <ele>620.4</ele>
        <time>2022-06-26T06:46:27Z</time>
      </trkpt>
      <trkpt lat="48.02249" lon="6.80813">
        <ele>620.6</ele>
        <time>2022-06-26T06:46:29Z</time>
      </trkpt>
      <trkpt lat="48.0225" lon="6.80814">
        <ele>621</ele>
        <time>2022-06-26T06:46:31Z</time>
      </trkpt>
      <trkpt lat="48.0225" lon="6.80814">
        <ele>621</ele>
        <time>2022-06-26T06:46:33Z</time>
      </trkpt>
      <trkpt lat="48.0225" lon="6.8082">
        <ele>621.2</ele>
        <time>2022-06-26T06:46:35Z</time>
      </trkpt>
      <trkpt lat="48.0225" lon="6.80823">
        <ele>621.2</ele>
        <time>2022-06-26T06:46:36Z</time>
      </trkpt>
      <trkpt lat="48.02249" lon="6.80828">
        <ele>621.2</ele>
        <time>2022-06-26T06:46:38Z</time>
      </trkpt>
      <trkpt lat="48.02249" lon="6.80838">
        <ele>621.2</ele>
        <time>2022-06-26T06:46:40Z</time>
      </trkpt>
      <trkpt lat="48.0225" lon="6.80841">
        <ele>621.2</ele>
        <time>2022-06-26T06:46:41Z</time>
      </trkpt>
      <trkpt lat="48.02253" lon="6.8085">
        <ele>621.2</ele>
        <time>2022-06-26T06:46:43Z</time>
      </trkpt>
      <trkpt lat="48.02252" lon="6.80855">
        <ele>621.2</ele>
        <time>2022-06-26T06:46:44Z</time>
      </trkpt>
      <trkpt lat="48.02252" lon="6.80858">
        <ele>621.2</ele>
        <time>2022-06-26T06:46:45Z</time>
      </trkpt>
      <trkpt lat="48.0225" lon="6.80863">
        <ele>621.2</ele>
        <time>2022-06-26T06:46:46Z</time>
      </trkpt>
      <trkpt lat="48.02252" lon="6.80868">
        <ele>621.2</ele>
        <time>2022-06-26T06:46:47Z</time>
      </trkpt>
      <trkpt lat="48.02254" lon="6.80871">
        <ele>621.2</ele>
        <time>2022-06-26T06:46:48Z</time>
      </trkpt>
      <trkpt lat="48.02255" lon="6.80875">
        <ele>621.4</ele>
        <time>2022-06-26T06:46:49Z</time>
      </trkpt>
      <trkpt lat="48.02254" lon="6.80881">
        <ele>621.6</ele>
        <time>2022-06-26T06:46:50Z</time>
      </trkpt>
      <trkpt lat="48.02254" lon="6.80892">
        <ele>621.8</ele>
        <time>2022-06-26T06:46:53Z</time>
      </trkpt>
      <trkpt lat="48.02252" lon="6.80896">
        <ele>621.8</ele>
        <time>2022-06-26T06:46:54Z</time>
      </trkpt>
      <trkpt lat="48.02252" lon="6.80902">
        <ele>621.8</ele>
        <time>2022-06-26T06:46:55Z</time>
      </trkpt>
      <trkpt lat="48.02252" lon="6.80909">
        <ele>621.8</ele>
        <time>2022-06-26T06:46:57Z</time>
      </trkpt>
      <trkpt lat="48.02254" lon="6.80913">
        <ele>622</ele>
        <time>2022-06-26T06:46:58Z</time>
      </trkpt>
      <trkpt lat="48.02254" lon="6.80918">
        <ele>622</ele>
        <time>2022-06-26T06:46:59Z</time>
      </trkpt>
      <trkpt lat="48.02255" lon="6.80921">
        <ele>622</ele>
        <time>2022-06-26T06:47:00Z</time>
      </trkpt>
      <trkpt lat="48.02255" lon="6.80922">
        <ele>622.2</ele>
        <time>2022-06-26T06:47:01Z</time>
      </trkpt>
      <trkpt lat="48.02255" lon="6.80922">
        <ele>622.2</ele>
        <time>2022-06-26T06:47:02Z</time>
      </trkpt>
      <trkpt lat="48.02255" lon="6.80922">
        <ele>622.6</ele>
        <time>2022-06-26T06:47:08Z</time>
      </trkpt>
      <trkpt lat="48.02256" lon="6.80924">
        <ele>622.6</ele>
        <time>2022-06-26T06:47:09Z</time>
      </trkpt>
      <trkpt lat="48.02256" lon="6.80925">
        <ele>622.8</ele>
        <time>2022-06-26T06:47:10Z</time>
      </trkpt>
      <trkpt lat="48.02254" lon="6.80932">
        <ele>622.8</ele>
        <time>2022-06-26T06:47:13Z</time>
      </trkpt>
      <trkpt lat="48.02253" lon="6.80934">
        <ele>622.8</ele>
        <time>2022-06-26T06:47:14Z</time>
      </trkpt>
      <trkpt lat="48.02253" lon="6.8094">
        <ele>622.8</ele>
        <time>2022-06-26T06:47:17Z</time>
      </trkpt>
      <trkpt lat="48.02253" lon="6.8094">
        <ele>622.8</ele>
        <time>2022-06-26T06:47:18Z</time>
      </trkpt>
      <trkpt lat="48.02253" lon="6.8094">
        <ele>622.8</ele>
        <time>2022-06-26T06:47:19Z</time>
      </trkpt>
      <trkpt lat="48.02252" lon="6.80942">
        <ele>623</ele>
        <time>2022-06-26T06:47:20Z</time>
      </trkpt>
      <trkpt lat="48.02252" lon="6.80942">
        <ele>623</ele>
        <time>2022-06-26T06:47:22Z</time>
      </trkpt>
      <trkpt lat="48.02253" lon="6.80943">
        <ele>622.8</ele>
        <time>2022-06-26T06:47:23Z</time>
      </trkpt>
      <trkpt lat="48.02252" lon="6.80945">
        <ele>623</ele>
        <time>2022-06-26T06:47:24Z</time>
      </trkpt>
      <trkpt lat="48.02252" lon="6.8095">
        <ele>622.8</ele>
        <time>2022-06-26T06:47:26Z</time>
      </trkpt>
      <trkpt lat="48.02253" lon="6.80952">
        <ele>622.8</ele>
        <time>2022-06-26T06:47:27Z</time>
      </trkpt>
      <trkpt lat="48.02253" lon="6.80953">
        <ele>622.8</ele>
        <time>2022-06-26T06:47:28Z</time>
      </trkpt>
      <trkpt lat="48.02253" lon="6.80956">
        <ele>622.8</ele>
        <time>2022-06-26T06:47:29Z</time>
      </trkpt>
      <trkpt lat="48.02253" lon="6.80957">
        <ele>622.8</ele>
        <time>2022-06-26T06:47:30Z</time>
      </trkpt>
      <trkpt lat="48.02254" lon="6.80959">
        <ele>622.8</ele>
        <time>2022-06-26T06:47:31Z</time>
      </trkpt>
      <trkpt lat="48.02254" lon="6.80961">
        <ele>622.8</ele>
        <time>2022-06-26T06:47:32Z</time>
      </trkpt>
      <trkpt lat="48.02254" lon="6.80962">
        <ele>622.8</ele>
        <time>2022-06-26T06:47:33Z</time>
      </trkpt>
      <trkpt lat="48.02254" lon="6.80963">
        <ele>623</ele>
        <time>2022-06-26T06:47:34Z</time>
      </trkpt>
      <trkpt lat="48.02254" lon="6.80963">
        <ele>623</ele>
        <time>2022-06-26T06:47:35Z</time>
      </trkpt>
      <trkpt lat="48.02254" lon="6.80965">
        <ele>623</ele>
        <time>2022-06-26T06:47:36Z</time>
      </trkpt>
      <trkpt lat="48.02254" lon="6.80966">
        <ele>623.2</ele>
        <time>2022-06-26T06:47:37Z</time>
      </trkpt>
      <trkpt lat="48.02254" lon="6.80971">
        <ele>623.2</ele>
        <time>2022-06-26T06:47:39Z</time>
      </trkpt>
      <trkpt lat="48.02254" lon="6.80972">
        <ele>623.4</ele>
        <time>2022-06-26T06:47:40Z</time>
      </trkpt>
      <trkpt lat="48.02255" lon="6.80974">
        <ele>623.4</ele>
        <time>2022-06-26T06:47:41Z</time>
      </trkpt>
      <trkpt lat="48.02256" lon="6.80977">
        <ele>623.4</ele>
        <time>2022-06-26T06:47:42Z</time>
      </trkpt>
      <trkpt lat="48.02257" lon="6.80979">
        <ele>623.4</ele>
        <time>2022-06-26T06:47:43Z</time>
      </trkpt>
      <trkpt lat="48.02258" lon="6.80981">
        <ele>623.6</ele>
        <time>2022-06-26T06:47:44Z</time>
      </trkpt>
      <trkpt lat="48.02257" lon="6.80983">
        <ele>623.6</ele>
        <time>2022-06-26T06:47:45Z</time>
      </trkpt>
      <trkpt lat="48.02256" lon="6.80985">
        <ele>623.8</ele>
        <time>2022-06-26T06:47:46Z</time>
      </trkpt>
      <trkpt lat="48.02256" lon="6.80988">
        <ele>624</ele>
        <time>2022-06-26T06:47:47Z</time>
      </trkpt>
      <trkpt lat="48.02257" lon="6.80989">
        <ele>624</ele>
        <time>2022-06-26T06:47:48Z</time>
      </trkpt>
      <trkpt lat="48.02258" lon="6.8099">
        <ele>624.2</ele>
        <time>2022-06-26T06:47:49Z</time>
      </trkpt>
      <trkpt lat="48.02257" lon="6.80993">
        <ele>624.2</ele>
        <time>2022-06-26T06:47:50Z</time>
      </trkpt>
      <trkpt lat="48.02257" lon="6.80995">
        <ele>624.2</ele>
        <time>2022-06-26T06:47:51Z</time>
      </trkpt>
      <trkpt lat="48.02259" lon="6.80997">
        <ele>624.4</ele>
        <time>2022-06-26T06:47:52Z</time>
      </trkpt>
      <trkpt lat="48.02259" lon="6.80999">
        <ele>624.4</ele>
        <time>2022-06-26T06:47:53Z</time>
      </trkpt>
      <trkpt lat="48.02258" lon="6.81001">
        <ele>624.4</ele>
        <time>2022-06-26T06:47:54Z</time>
      </trkpt>
      <trkpt lat="48.02257" lon="6.81003">
        <ele>624.6</ele>
        <time>2022-06-26T06:47:55Z</time>
      </trkpt>
      <trkpt lat="48.02258" lon="6.81006">
        <ele>624.6</ele>
        <time>2022-06-26T06:47:56Z</time>
      </trkpt>
      <trkpt lat="48.02258" lon="6.81007">
        <ele>624.6</ele>
        <time>2022-06-26T06:47:57Z</time>
      </trkpt>
      <trkpt lat="48.02257" lon="6.81008">
        <ele>624.6</ele>
        <time>2022-06-26T06:47:58Z</time>
      </trkpt>
      <trkpt lat="48.02257" lon="6.81008">
        <ele>624.6</ele>
        <time>2022-06-26T06:47:59Z</time>
      </trkpt>
      <trkpt lat="48.02257" lon="6.81009">
        <ele>624.6</ele>
        <time>2022-06-26T06:48:00Z</time>
      </trkpt>
      <trkpt lat="48.02257" lon="6.8101">
        <ele>624.6</ele>
        <time>2022-06-26T06:48:01Z</time>
      </trkpt>
      <trkpt lat="48.02258" lon="6.8101">
        <ele>624.6</ele>
        <time>2022-06-26T06:48:03Z</time>
      </trkpt>
      <trkpt lat="48.02259" lon="6.81011">
        <ele>624.8</ele>
        <time>2022-06-26T06:48:04Z</time>
      </trkpt>
      <trkpt lat="48.0226" lon="6.81012">
        <ele>624.8</ele>
        <time>2022-06-26T06:48:05Z</time>
      </trkpt>
      <trkpt lat="48.02263" lon="6.81016">
        <ele>625.2</ele>
        <time>2022-06-26T06:48:09Z</time>
      </trkpt>
      <trkpt lat="48.02264" lon="6.81017">
        <ele>625.4</ele>
        <time>2022-06-26T06:48:10Z</time>
      </trkpt>
      <trkpt lat="48.02265" lon="6.81019">
        <ele>625.8</ele>
        <time>2022-06-26T06:48:12Z</time>
      </trkpt>
      <trkpt lat="48.02265" lon="6.81019">
        <ele>626</ele>
        <time>2022-06-26T06:48:13Z</time>
      </trkpt>
      <trkpt lat="48.02265" lon="6.81019">
        <ele>626.4</ele>
        <time>2022-06-26T06:48:17Z</time>
      </trkpt>
      <trkpt lat="48.02265" lon="6.8102">
        <ele>626.4</ele>
        <time>2022-06-26T06:48:18Z</time>
      </trkpt>
      <trkpt lat="48.02266" lon="6.81022">
        <ele>626.6</ele>
        <time>2022-06-26T06:48:19Z</time>
      </trkpt>
      <trkpt lat="48.02265" lon="6.81029">
        <ele>626.6</ele>
        <time>2022-06-26T06:48:22Z</time>
      </trkpt>
      <trkpt lat="48.02264" lon="6.81031">
        <ele>626.8</ele>
        <time>2022-06-26T06:48:23Z</time>
      </trkpt>
      <trkpt lat="48.02263" lon="6.81033">
        <ele>626.8</ele>
        <time>2022-06-26T06:48:24Z</time>
      </trkpt>
      <trkpt lat="48.02262" lon="6.81035">
        <ele>626.8</ele>
        <time>2022-06-26T06:48:25Z</time>
      </trkpt>
      <trkpt lat="48.02262" lon="6.81038">
        <ele>627</ele>
        <time>2022-06-26T06:48:26Z</time>
      </trkpt>
      <trkpt lat="48.02262" lon="6.81041">
        <ele>627.2</ele>
        <time>2022-06-26T06:48:27Z</time>
      </trkpt>
      <trkpt lat="48.02261" lon="6.81045">
        <ele>627.4</ele>
        <time>2022-06-26T06:48:28Z</time>
      </trkpt>
      <trkpt lat="48.0226" lon="6.81048">
        <ele>627.6</ele>
        <time>2022-06-26T06:48:29Z</time>
      </trkpt>
      <trkpt lat="48.02261" lon="6.81052">
        <ele>627.8</ele>
        <time>2022-06-26T06:48:30Z</time>
      </trkpt>
      <trkpt lat="48.0226" lon="6.81056">
        <ele>628.2</ele>
        <time>2022-06-26T06:48:31Z</time>
      </trkpt>
      <trkpt lat="48.02261" lon="6.81061">
        <ele>628.2</ele>
        <time>2022-06-26T06:48:32Z</time>
      </trkpt>
      <trkpt lat="48.02261" lon="6.81062">
        <ele>628.4</ele>
        <time>2022-06-26T06:48:33Z</time>
      </trkpt>
      <trkpt lat="48.02261" lon="6.81063">
        <ele>628.4</ele>
        <time>2022-06-26T06:48:34Z</time>
      </trkpt>
      <trkpt lat="48.02261" lon="6.81065">
        <ele>628.6</ele>
        <time>2022-06-26T06:48:35Z</time>
      </trkpt>
      <trkpt lat="48.02261" lon="6.81068">
        <ele>628.8</ele>
        <time>2022-06-26T06:48:36Z</time>
      </trkpt>
      <trkpt lat="48.02262" lon="6.81069">
        <ele>628.8</ele>
        <time>2022-06-26T06:48:37Z</time>
      </trkpt>
      <trkpt lat="48.02261" lon="6.81071">
        <ele>629</ele>
        <time>2022-06-26T06:48:38Z</time>
      </trkpt>
      <trkpt lat="48.02261" lon="6.81073">
        <ele>629</ele>
        <time>2022-06-26T06:48:39Z</time>
      </trkpt>
      <trkpt lat="48.0226" lon="6.81076">
        <ele>629.2</ele>
        <time>2022-06-26T06:48:40Z</time>
      </trkpt>
      <trkpt lat="48.0226" lon="6.81078">
        <ele>629.2</ele>
        <time>2022-06-26T06:48:41Z</time>
      </trkpt>
      <trkpt lat="48.02262" lon="6.8108">
        <ele>629.4</ele>
        <time>2022-06-26T06:48:42Z</time>
      </trkpt>
      <trkpt lat="48.02262" lon="6.81084">
        <ele>629.4</ele>
        <time>2022-06-26T06:48:43Z</time>
      </trkpt>
      <trkpt lat="48.02261" lon="6.81087">
        <ele>629.6</ele>
        <time>2022-06-26T06:48:44Z</time>
      </trkpt>
      <trkpt lat="48.02261" lon="6.8109">
        <ele>629.8</ele>
        <time>2022-06-26T06:48:45Z</time>
      </trkpt>
      <trkpt lat="48.02262" lon="6.81093">
        <ele>629.6</ele>
        <time>2022-06-26T06:48:46Z</time>
      </trkpt>
      <trkpt lat="48.02262" lon="6.81095">
        <ele>629.8</ele>
        <time>2022-06-26T06:48:47Z</time>
      </trkpt>
      <trkpt lat="48.02263" lon="6.81097">
        <ele>629.8</ele>
        <time>2022-06-26T06:48:48Z</time>
      </trkpt>
      <trkpt lat="48.02264" lon="6.811">
        <ele>630</ele>
        <time>2022-06-26T06:48:49Z</time>
      </trkpt>
      <trkpt lat="48.02265" lon="6.81102">
        <ele>630</ele>
        <time>2022-06-26T06:48:50Z</time>
      </trkpt>
      <trkpt lat="48.02268" lon="6.81106">
        <ele>630.2</ele>
        <time>2022-06-26T06:48:51Z</time>
      </trkpt>
      <trkpt lat="48.02269" lon="6.81109">
        <ele>630.2</ele>
        <time>2022-06-26T06:48:52Z</time>
      </trkpt>
      <trkpt lat="48.0227" lon="6.81112">
        <ele>630.2</ele>
        <time>2022-06-26T06:48:53Z</time>
      </trkpt>
      <trkpt lat="48.02269" lon="6.81116">
        <ele>630.4</ele>
        <time>2022-06-26T06:48:54Z</time>
      </trkpt>
      <trkpt lat="48.02269" lon="6.81116">
        <ele>630.6</ele>
        <time>2022-06-26T06:48:55Z</time>
      </trkpt>
      <trkpt lat="48.02269" lon="6.81116">
        <ele>630.8</ele>
        <time>2022-06-26T06:48:56Z</time>
      </trkpt>
      <trkpt lat="48.02269" lon="6.81116">
        <ele>630.8</ele>
        <time>2022-06-26T06:48:57Z</time>
      </trkpt>
      <trkpt lat="48.02269" lon="6.81116">
        <ele>631</ele>
        <time>2022-06-26T06:48:58Z</time>
      </trkpt>
      <trkpt lat="48.02269" lon="6.81117">
        <ele>631.2</ele>
        <time>2022-06-26T06:49:01Z</time>
      </trkpt>
      <trkpt lat="48.02269" lon="6.81117">
        <ele>631.2</ele>
        <time>2022-06-26T06:49:02Z</time>
      </trkpt>
      <trkpt lat="48.02269" lon="6.81118">
        <ele>631.4</ele>
        <time>2022-06-26T06:49:03Z</time>
      </trkpt>
      <trkpt lat="48.02269" lon="6.81121">
        <ele>631.4</ele>
        <time>2022-06-26T06:49:04Z</time>
      </trkpt>
      <trkpt lat="48.02269" lon="6.81122">
        <ele>631.4</ele>
        <time>2022-06-26T06:49:05Z</time>
      </trkpt>
      <trkpt lat="48.02269" lon="6.81124">
        <ele>631.4</ele>
        <time>2022-06-26T06:49:06Z</time>
      </trkpt>
      <trkpt lat="48.02268" lon="6.81127">
        <ele>631.4</ele>
        <time>2022-06-26T06:49:07Z</time>
      </trkpt>
      <trkpt lat="48.02268" lon="6.8113">
        <ele>631.4</ele>
        <time>2022-06-26T06:49:08Z</time>
      </trkpt>
      <trkpt lat="48.02268" lon="6.81132">
        <ele>631.4</ele>
        <time>2022-06-26T06:49:09Z</time>
      </trkpt>
      <trkpt lat="48.02269" lon="6.81134">
        <ele>631.4</ele>
        <time>2022-06-26T06:49:10Z</time>
      </trkpt>
      <trkpt lat="48.0227" lon="6.81136">
        <ele>631.4</ele>
        <time>2022-06-26T06:49:11Z</time>
      </trkpt>
      <trkpt lat="48.0227" lon="6.81138">
        <ele>631.4</ele>
        <time>2022-06-26T06:49:12Z</time>
      </trkpt>
      <trkpt lat="48.02271" lon="6.81139">
        <ele>631.4</ele>
        <time>2022-06-26T06:49:13Z</time>
      </trkpt>
      <trkpt lat="48.02271" lon="6.81141">
        <ele>631.4</ele>
        <time>2022-06-26T06:49:14Z</time>
      </trkpt>
      <trkpt lat="48.02271" lon="6.81143">
        <ele>631.4</ele>
        <time>2022-06-26T06:49:15Z</time>
      </trkpt>
      <trkpt lat="48.02272" lon="6.81144">
        <ele>631.4</ele>
        <time>2022-06-26T06:49:16Z</time>
      </trkpt>
      <trkpt lat="48.02274" lon="6.81146">
        <ele>631.4</ele>
        <time>2022-06-26T06:49:17Z</time>
      </trkpt>
      <trkpt lat="48.02273" lon="6.81148">
        <ele>631.6</ele>
        <time>2022-06-26T06:49:18Z</time>
      </trkpt>
      <trkpt lat="48.02273" lon="6.81148">
        <ele>631.6</ele>
        <time>2022-06-26T06:49:19Z</time>
      </trkpt>
      <trkpt lat="48.02273" lon="6.8115">
        <ele>631.6</ele>
        <time>2022-06-26T06:49:20Z</time>
      </trkpt>
      <trkpt lat="48.02273" lon="6.8115">
        <ele>631.8</ele>
        <time>2022-06-26T06:49:21Z</time>
      </trkpt>
      <trkpt lat="48.02273" lon="6.81151">
        <ele>631.8</ele>
        <time>2022-06-26T06:49:22Z</time>
      </trkpt>
      <trkpt lat="48.02274" lon="6.81152">
        <ele>632</ele>
        <time>2022-06-26T06:49:23Z</time>
      </trkpt>
      <trkpt lat="48.02274" lon="6.81158">
        <ele>632.2</ele>
        <time>2022-06-26T06:49:25Z</time>
      </trkpt>
      <trkpt lat="48.02274" lon="6.8116">
        <ele>632.4</ele>
        <time>2022-06-26T06:49:26Z</time>
      </trkpt>
      <trkpt lat="48.02273" lon="6.81164">
        <ele>632.4</ele>
        <time>2022-06-26T06:49:28Z</time>
      </trkpt>
      <trkpt lat="48.02274" lon="6.81166">
        <ele>632.6</ele>
        <time>2022-06-26T06:49:29Z</time>
      </trkpt>
      <trkpt lat="48.02274" lon="6.81168">
        <ele>632.8</ele>
        <time>2022-06-26T06:49:30Z</time>
      </trkpt>
      <trkpt lat="48.02274" lon="6.81171">
        <ele>632.8</ele>
        <time>2022-06-26T06:49:31Z</time>
      </trkpt>
      <trkpt lat="48.02275" lon="6.81173">
        <ele>632.8</ele>
        <time>2022-06-26T06:49:32Z</time>
      </trkpt>
      <trkpt lat="48.02273" lon="6.81177">
        <ele>632.8</ele>
        <time>2022-06-26T06:49:33Z</time>
      </trkpt>
      <trkpt lat="48.02271" lon="6.8118">
        <ele>633</ele>
        <time>2022-06-26T06:49:34Z</time>
      </trkpt>
      <trkpt lat="48.02271" lon="6.81181">
        <ele>633</ele>
        <time>2022-06-26T06:49:35Z</time>
      </trkpt>
      <trkpt lat="48.02271" lon="6.81183">
        <ele>633.2</ele>
        <time>2022-06-26T06:49:37Z</time>
      </trkpt>
      <trkpt lat="48.02271" lon="6.81185">
        <ele>633.4</ele>
        <time>2022-06-26T06:49:38Z</time>
      </trkpt>
      <trkpt lat="48.02272" lon="6.81186">
        <ele>633.6</ele>
        <time>2022-06-26T06:49:39Z</time>
      </trkpt>
      <trkpt lat="48.02273" lon="6.81192">
        <ele>633.8</ele>
        <time>2022-06-26T06:49:42Z</time>
      </trkpt>
      <trkpt lat="48.02273" lon="6.81192">
        <ele>633.8</ele>
        <time>2022-06-26T06:49:43Z</time>
      </trkpt>
      <trkpt lat="48.02273" lon="6.81194">
        <ele>634</ele>
        <time>2022-06-26T06:49:44Z</time>
      </trkpt>
      <trkpt lat="48.02273" lon="6.81196">
        <ele>634</ele>
        <time>2022-06-26T06:49:45Z</time>
      </trkpt>
      <trkpt lat="48.02274" lon="6.81197">
        <ele>634.2</ele>
        <time>2022-06-26T06:49:46Z</time>
      </trkpt>
      <trkpt lat="48.02276" lon="6.81201">
        <ele>634.4</ele>
        <time>2022-06-26T06:49:48Z</time>
      </trkpt>
      <trkpt lat="48.02277" lon="6.81202">
        <ele>634.6</ele>
        <time>2022-06-26T06:49:49Z</time>
      </trkpt>
      <trkpt lat="48.02277" lon="6.81204">
        <ele>634.6</ele>
        <time>2022-06-26T06:49:50Z</time>
      </trkpt>
      <trkpt lat="48.02277" lon="6.81206">
        <ele>634.8</ele>
        <time>2022-06-26T06:49:51Z</time>
      </trkpt>
      <trkpt lat="48.02276" lon="6.81209">
        <ele>634.8</ele>
        <time>2022-06-26T06:49:52Z</time>
      </trkpt>
      <trkpt lat="48.02276" lon="6.81211">
        <ele>634.8</ele>
        <time>2022-06-26T06:49:53Z</time>
      </trkpt>
      <trkpt lat="48.02276" lon="6.81212">
        <ele>634.8</ele>
        <time>2022-06-26T06:49:54Z</time>
      </trkpt>
      <trkpt lat="48.02276" lon="6.81212">
        <ele>634.8</ele>
        <time>2022-06-26T06:49:55Z</time>
      </trkpt>
      <trkpt lat="48.02275" lon="6.81213">
        <ele>634.8</ele>
        <time>2022-06-26T06:49:56Z</time>
      </trkpt>
      <trkpt lat="48.02275" lon="6.81213">
        <ele>634.8</ele>
        <time>2022-06-26T06:49:57Z</time>
      </trkpt>
      <trkpt lat="48.02276" lon="6.81214">
        <ele>634.8</ele>
        <time>2022-06-26T06:49:58Z</time>
      </trkpt>
      <trkpt lat="48.02277" lon="6.81217">
        <ele>634.8</ele>
        <time>2022-06-26T06:50:01Z</time>
      </trkpt>
      <trkpt lat="48.02276" lon="6.81218">
        <ele>634.8</ele>
        <time>2022-06-26T06:50:02Z</time>
      </trkpt>
      <trkpt lat="48.02276" lon="6.8122">
        <ele>634.8</ele>
        <time>2022-06-26T06:50:03Z</time>
      </trkpt>
      <trkpt lat="48.02277" lon="6.81222">
        <ele>634.8</ele>
        <time>2022-06-26T06:50:05Z</time>
      </trkpt>
      <trkpt lat="48.02277" lon="6.81223">
        <ele>634.8</ele>
        <time>2022-06-26T06:50:06Z</time>
      </trkpt>
      <trkpt lat="48.02277" lon="6.81223">
        <ele>634.8</ele>
        <time>2022-06-26T06:50:07Z</time>
      </trkpt>
      <trkpt lat="48.02276" lon="6.81226">
        <ele>634.8</ele>
        <time>2022-06-26T06:50:11Z</time>
      </trkpt>
      <trkpt lat="48.02277" lon="6.81229">
        <ele>635</ele>
        <time>2022-06-26T06:50:13Z</time>
      </trkpt>
      <trkpt lat="48.02276" lon="6.81232">
        <ele>635.2</ele>
        <time>2022-06-26T06:50:14Z</time>
      </trkpt>
      <trkpt lat="48.02277" lon="6.81234">
        <ele>635.2</ele>
        <time>2022-06-26T06:50:15Z</time>
      </trkpt>
      <trkpt lat="48.02278" lon="6.81236">
        <ele>635.2</ele>
        <time>2022-06-26T06:50:16Z</time>
      </trkpt>
      <trkpt lat="48.02278" lon="6.81237">
        <ele>635.4</ele>
        <time>2022-06-26T06:50:18Z</time>
      </trkpt>
      <trkpt lat="48.02278" lon="6.81238">
        <ele>635.4</ele>
        <time>2022-06-26T06:50:19Z</time>
      </trkpt>
      <trkpt lat="48.02278" lon="6.81241">
        <ele>635.4</ele>
        <time>2022-06-26T06:50:21Z</time>
      </trkpt>
      <trkpt lat="48.02279" lon="6.81242">
        <ele>635.6</ele>
        <time>2022-06-26T06:50:22Z</time>
      </trkpt>
      <trkpt lat="48.02278" lon="6.81243">
        <ele>635.6</ele>
        <time>2022-06-26T06:50:23Z</time>
      </trkpt>
      <trkpt lat="48.02278" lon="6.81246">
        <ele>635.8</ele>
        <time>2022-06-26T06:50:24Z</time>
      </trkpt>
      <trkpt lat="48.02278" lon="6.81249">
        <ele>635.8</ele>
        <time>2022-06-26T06:50:25Z</time>
      </trkpt>
      <trkpt lat="48.02278" lon="6.81251">
        <ele>635.8</ele>
        <time>2022-06-26T06:50:26Z</time>
      </trkpt>
      <trkpt lat="48.02278" lon="6.81253">
        <ele>636</ele>
        <time>2022-06-26T06:50:27Z</time>
      </trkpt>
      <trkpt lat="48.02279" lon="6.81255">
        <ele>636.2</ele>
        <time>2022-06-26T06:50:28Z</time>
      </trkpt>
      <trkpt lat="48.02279" lon="6.81256">
        <ele>636.2</ele>
        <time>2022-06-26T06:50:29Z</time>
      </trkpt>
      <trkpt lat="48.02279" lon="6.81258">
        <ele>636.4</ele>
        <time>2022-06-26T06:50:31Z</time>
      </trkpt>
      <trkpt lat="48.0228" lon="6.81263">
        <ele>636.6</ele>
        <time>2022-06-26T06:50:33Z</time>
      </trkpt>
      <trkpt lat="48.0228" lon="6.81266">
        <ele>636.6</ele>
        <time>2022-06-26T06:50:34Z</time>
      </trkpt>
      <trkpt lat="48.02281" lon="6.81269">
        <ele>636.8</ele>
        <time>2022-06-26T06:50:36Z</time>
      </trkpt>
      <trkpt lat="48.02282" lon="6.81272">
        <ele>636.8</ele>
        <time>2022-06-26T06:50:37Z</time>
      </trkpt>
      <trkpt lat="48.02282" lon="6.81274">
        <ele>637</ele>
        <time>2022-06-26T06:50:38Z</time>
      </trkpt>
      <trkpt lat="48.02282" lon="6.81283">
        <ele>637</ele>
        <time>2022-06-26T06:50:41Z</time>
      </trkpt>
      <trkpt lat="48.02283" lon="6.81285">
        <ele>637.2</ele>
        <time>2022-06-26T06:50:42Z</time>
      </trkpt>
      <trkpt lat="48.02283" lon="6.81288">
        <ele>637.2</ele>
        <time>2022-06-26T06:50:43Z</time>
      </trkpt>
      <trkpt lat="48.02283" lon="6.81289">
        <ele>637.4</ele>
        <time>2022-06-26T06:50:44Z</time>
      </trkpt>
      <trkpt lat="48.02283" lon="6.81289">
        <ele>637.4</ele>
        <time>2022-06-26T06:50:45Z</time>
      </trkpt>
      <trkpt lat="48.02283" lon="6.81289">
        <ele>637.4</ele>
        <time>2022-06-26T06:50:46Z</time>
      </trkpt>
      <trkpt lat="48.02282" lon="6.81291">
        <ele>637.6</ele>
        <time>2022-06-26T06:50:47Z</time>
      </trkpt>
      <trkpt lat="48.02283" lon="6.81291">
        <ele>637.6</ele>
        <time>2022-06-26T06:50:48Z</time>
      </trkpt>
      <trkpt lat="48.02283" lon="6.81291">
        <ele>637.8</ele>
        <time>2022-06-26T06:50:49Z</time>
      </trkpt>
      <trkpt lat="48.02283" lon="6.81291">
        <ele>637.8</ele>
        <time>2022-06-26T06:50:50Z</time>
      </trkpt>
      <trkpt lat="48.02282" lon="6.81295">
        <ele>638.2</ele>
        <time>2022-06-26T06:50:53Z</time>
      </trkpt>
      <trkpt lat="48.02282" lon="6.81297">
        <ele>638.2</ele>
        <time>2022-06-26T06:50:55Z</time>
      </trkpt>
      <trkpt lat="48.02283" lon="6.81302">
        <ele>638.2</ele>
        <time>2022-06-26T06:50:57Z</time>
      </trkpt>
      <trkpt lat="48.02283" lon="6.81305">
        <ele>638.2</ele>
        <time>2022-06-26T06:50:58Z</time>
      </trkpt>
      <trkpt lat="48.02283" lon="6.8131">
        <ele>638.2</ele>
        <time>2022-06-26T06:51:00Z</time>
      </trkpt>
      <trkpt lat="48.02283" lon="6.81313">
        <ele>638.2</ele>
        <time>2022-06-26T06:51:01Z</time>
      </trkpt>
      <trkpt lat="48.02283" lon="6.81315">
        <ele>638.2</ele>
        <time>2022-06-26T06:51:02Z</time>
      </trkpt>
      <trkpt lat="48.02284" lon="6.81319">
        <ele>638.2</ele>
        <time>2022-06-26T06:51:03Z</time>
      </trkpt>
      <trkpt lat="48.02285" lon="6.81322">
        <ele>638.2</ele>
        <time>2022-06-26T06:51:04Z</time>
      </trkpt>
      <trkpt lat="48.02286" lon="6.81324">
        <ele>638.2</ele>
        <time>2022-06-26T06:51:05Z</time>
      </trkpt>
      <trkpt lat="48.02289" lon="6.81332">
        <ele>638</ele>
        <time>2022-06-26T06:51:07Z</time>
      </trkpt>
      <trkpt lat="48.0229" lon="6.81338">
        <ele>637.8</ele>
        <time>2022-06-26T06:51:08Z</time>
      </trkpt>
      <trkpt lat="48.0229" lon="6.81345">
        <ele>637.8</ele>
        <time>2022-06-26T06:51:09Z</time>
      </trkpt>
      <trkpt lat="48.02291" lon="6.81355">
        <ele>637.8</ele>
        <time>2022-06-26T06:51:10Z</time>
      </trkpt>
      <trkpt lat="48.02291" lon="6.8136">
        <ele>637.6</ele>
        <time>2022-06-26T06:51:11Z</time>
      </trkpt>
      <trkpt lat="48.02291" lon="6.81369">
        <ele>637</ele>
        <time>2022-06-26T06:51:13Z</time>
      </trkpt>
      <trkpt lat="48.0229" lon="6.81375">
        <ele>636.4</ele>
        <time>2022-06-26T06:51:14Z</time>
      </trkpt>
      <trkpt lat="48.02292" lon="6.81381">
        <ele>636.4</ele>
        <time>2022-06-26T06:51:15Z</time>
      </trkpt>
      <trkpt lat="48.02296" lon="6.81387">
        <ele>636</ele>
        <time>2022-06-26T06:51:16Z</time>
      </trkpt>
      <trkpt lat="48.02296" lon="6.81393">
        <ele>635.8</ele>
        <time>2022-06-26T06:51:17Z</time>
      </trkpt>
      <trkpt lat="48.02296" lon="6.81397">
        <ele>635.6</ele>
        <time>2022-06-26T06:51:18Z</time>
      </trkpt>
      <trkpt lat="48.02296" lon="6.81404">
        <ele>635.4</ele>
        <time>2022-06-26T06:51:19Z</time>
      </trkpt>
      <trkpt lat="48.023" lon="6.81423">
        <ele>634.6</ele>
        <time>2022-06-26T06:51:22Z</time>
      </trkpt>
      <trkpt lat="48.02298" lon="6.81429">
        <ele>634.6</ele>
        <time>2022-06-26T06:51:23Z</time>
      </trkpt>
      <trkpt lat="48.02295" lon="6.81433">
        <ele>634.6</ele>
        <time>2022-06-26T06:51:24Z</time>
      </trkpt>
      <trkpt lat="48.02293" lon="6.81435">
        <ele>634.4</ele>
        <time>2022-06-26T06:51:25Z</time>
      </trkpt>
      <trkpt lat="48.02291" lon="6.81437">
        <ele>634.2</ele>
        <time>2022-06-26T06:51:26Z</time>
      </trkpt>
      <trkpt lat="48.02288" lon="6.81439">
        <ele>633.8</ele>
        <time>2022-06-26T06:51:27Z</time>
      </trkpt>
      <trkpt lat="48.02284" lon="6.8144">
        <ele>633.6</ele>
        <time>2022-06-26T06:51:28Z</time>
      </trkpt>
      <trkpt lat="48.0228" lon="6.81442">
        <ele>633.4</ele>
        <time>2022-06-26T06:51:29Z</time>
      </trkpt>
      <trkpt lat="48.02278" lon="6.81443">
        <ele>633.2</ele>
        <time>2022-06-26T06:51:31Z</time>
      </trkpt>
      <trkpt lat="48.02276" lon="6.81444">
        <ele>633</ele>
        <time>2022-06-26T06:51:32Z</time>
      </trkpt>
      <trkpt lat="48.02275" lon="6.81445">
        <ele>632.8</ele>
        <time>2022-06-26T06:51:33Z</time>
      </trkpt>
      <trkpt lat="48.02275" lon="6.81447">
        <ele>632.6</ele>
        <time>2022-06-26T06:51:34Z</time>
      </trkpt>
      <trkpt lat="48.02275" lon="6.81449">
        <ele>632.4</ele>
        <time>2022-06-26T06:51:35Z</time>
      </trkpt>
      <trkpt lat="48.02277" lon="6.81452">
        <ele>632</ele>
        <time>2022-06-26T06:51:36Z</time>
      </trkpt>
      <trkpt lat="48.02282" lon="6.81456">
        <ele>631.6</ele>
        <time>2022-06-26T06:51:38Z</time>
      </trkpt>
      <trkpt lat="48.02283" lon="6.81462">
        <ele>630.8</ele>
        <time>2022-06-26T06:51:40Z</time>
      </trkpt>
      <trkpt lat="48.02283" lon="6.81465">
        <ele>630.4</ele>
        <time>2022-06-26T06:51:41Z</time>
      </trkpt>
      <trkpt lat="48.02285" lon="6.81467">
        <ele>630.2</ele>
        <time>2022-06-26T06:51:42Z</time>
      </trkpt>
      <trkpt lat="48.02287" lon="6.8147">
        <ele>630.2</ele>
        <time>2022-06-26T06:51:43Z</time>
      </trkpt>
      <trkpt lat="48.02288" lon="6.8147">
        <ele>630.2</ele>
        <time>2022-06-26T06:51:44Z</time>
      </trkpt>
      <trkpt lat="48.02287" lon="6.81476">
        <ele>630.2</ele>
        <time>2022-06-26T06:51:46Z</time>
      </trkpt>
      <trkpt lat="48.02287" lon="6.81479">
        <ele>630.2</ele>
        <time>2022-06-26T06:51:47Z</time>
      </trkpt>
      <trkpt lat="48.02288" lon="6.81481">
        <ele>630.4</ele>
        <time>2022-06-26T06:51:48Z</time>
      </trkpt>
      <trkpt lat="48.02288" lon="6.81485">
        <ele>630.4</ele>
        <time>2022-06-26T06:51:49Z</time>
      </trkpt>
      <trkpt lat="48.02288" lon="6.81494">
        <ele>630.6</ele>
        <time>2022-06-26T06:51:51Z</time>
      </trkpt>
      <trkpt lat="48.02289" lon="6.81496">
        <ele>631</ele>
        <time>2022-06-26T06:51:52Z</time>
      </trkpt>
      <trkpt lat="48.02293" lon="6.815">
        <ele>631.6</ele>
        <time>2022-06-26T06:51:54Z</time>
      </trkpt>
      <trkpt lat="48.02294" lon="6.81501">
        <ele>631.8</ele>
        <time>2022-06-26T06:51:55Z</time>
      </trkpt>
      <trkpt lat="48.02295" lon="6.81503">
        <ele>632.2</ele>
        <time>2022-06-26T06:51:56Z</time>
      </trkpt>
      <trkpt lat="48.02297" lon="6.81505">
        <ele>632.4</ele>
        <time>2022-06-26T06:51:57Z</time>
      </trkpt>
      <trkpt lat="48.02297" lon="6.81507">
        <ele>632.4</ele>
        <time>2022-06-26T06:51:58Z</time>
      </trkpt>
      <trkpt lat="48.02298" lon="6.81509">
        <ele>632.6</ele>
        <time>2022-06-26T06:51:59Z</time>
      </trkpt>
      <trkpt lat="48.02298" lon="6.81511">
        <ele>632.6</ele>
        <time>2022-06-26T06:52:00Z</time>
      </trkpt>
      <trkpt lat="48.02299" lon="6.81513">
        <ele>632.6</ele>
        <time>2022-06-26T06:52:01Z</time>
      </trkpt>
      <trkpt lat="48.02301" lon="6.81516">
        <ele>632.6</ele>
        <time>2022-06-26T06:52:02Z</time>
      </trkpt>
      <trkpt lat="48.02301" lon="6.81519">
        <ele>632.8</ele>
        <time>2022-06-26T06:52:04Z</time>
      </trkpt>
      <trkpt lat="48.02301" lon="6.81521">
        <ele>633</ele>
        <time>2022-06-26T06:52:05Z</time>
      </trkpt>
      <trkpt lat="48.023" lon="6.8153">
        <ele>633.6</ele>
        <time>2022-06-26T06:52:08Z</time>
      </trkpt>
      <trkpt lat="48.02299" lon="6.81533">
        <ele>633.8</ele>
        <time>2022-06-26T06:52:09Z</time>
      </trkpt>
      <trkpt lat="48.02299" lon="6.81546">
        <ele>634.2</ele>
        <time>2022-06-26T06:52:13Z</time>
      </trkpt>
      <trkpt lat="48.023" lon="6.81548">
        <ele>634.6</ele>
        <time>2022-06-26T06:52:14Z</time>
      </trkpt>
      <trkpt lat="48.02301" lon="6.81549">
        <ele>634.6</ele>
        <time>2022-06-26T06:52:15Z</time>
      </trkpt>
      <trkpt lat="48.02301" lon="6.8155">
        <ele>634.8</ele>
        <time>2022-06-26T06:52:16Z</time>
      </trkpt>
      <trkpt lat="48.02301" lon="6.81553">
        <ele>635</ele>
        <time>2022-06-26T06:52:17Z</time>
      </trkpt>
      <trkpt lat="48.023" lon="6.81556">
        <ele>635</ele>
        <time>2022-06-26T06:52:18Z</time>
      </trkpt>
      <trkpt lat="48.02299" lon="6.81559">
        <ele>635.2</ele>
        <time>2022-06-26T06:52:19Z</time>
      </trkpt>
      <trkpt lat="48.02299" lon="6.81562">
        <ele>635.2</ele>
        <time>2022-06-26T06:52:20Z</time>
      </trkpt>
      <trkpt lat="48.02299" lon="6.81565">
        <ele>635.2</ele>
        <time>2022-06-26T06:52:21Z</time>
      </trkpt>
      <trkpt lat="48.02298" lon="6.81568">
        <ele>635.2</ele>
        <time>2022-06-26T06:52:22Z</time>
      </trkpt>
      <trkpt lat="48.02299" lon="6.8157">
        <ele>635.4</ele>
        <time>2022-06-26T06:52:23Z</time>
      </trkpt>
      <trkpt lat="48.023" lon="6.81573">
        <ele>635.6</ele>
        <time>2022-06-26T06:52:24Z</time>
      </trkpt>
      <trkpt lat="48.02301" lon="6.81575">
        <ele>635.6</ele>
        <time>2022-06-26T06:52:25Z</time>
      </trkpt>
      <trkpt lat="48.023" lon="6.81578">
        <ele>636</ele>
        <time>2022-06-26T06:52:26Z</time>
      </trkpt>
      <trkpt lat="48.02299" lon="6.81582">
        <ele>636</ele>
        <time>2022-06-26T06:52:27Z</time>
      </trkpt>
      <trkpt lat="48.02297" lon="6.81586">
        <ele>636.2</ele>
        <time>2022-06-26T06:52:28Z</time>
      </trkpt>
      <trkpt lat="48.02296" lon="6.81589">
        <ele>636.4</ele>
        <time>2022-06-26T06:52:29Z</time>
      </trkpt>
      <trkpt lat="48.02296" lon="6.8159">
        <ele>636.6</ele>
        <time>2022-06-26T06:52:30Z</time>
      </trkpt>
      <trkpt lat="48.02297" lon="6.81593">
        <ele>636.8</ele>
        <time>2022-06-26T06:52:31Z</time>
      </trkpt>
      <trkpt lat="48.02297" lon="6.81595">
        <ele>637</ele>
        <time>2022-06-26T06:52:32Z</time>
      </trkpt>
      <trkpt lat="48.02296" lon="6.81597">
        <ele>637.2</ele>
        <time>2022-06-26T06:52:33Z</time>
      </trkpt>
      <trkpt lat="48.02296" lon="6.81599">
        <ele>637.4</ele>
        <time>2022-06-26T06:52:34Z</time>
      </trkpt>
      <trkpt lat="48.02295" lon="6.81602">
        <ele>637.6</ele>
        <time>2022-06-26T06:52:35Z</time>
      </trkpt>
      <trkpt lat="48.02296" lon="6.81605">
        <ele>637.6</ele>
        <time>2022-06-26T06:52:36Z</time>
      </trkpt>
      <trkpt lat="48.02296" lon="6.81608">
        <ele>637.8</ele>
        <time>2022-06-26T06:52:37Z</time>
      </trkpt>
      <trkpt lat="48.02294" lon="6.81611">
        <ele>638</ele>
        <time>2022-06-26T06:52:38Z</time>
      </trkpt>
      <trkpt lat="48.02293" lon="6.81615">
        <ele>638.2</ele>
        <time>2022-06-26T06:52:39Z</time>
      </trkpt>
      <trkpt lat="48.02291" lon="6.81618">
        <ele>638.4</ele>
        <time>2022-06-26T06:52:40Z</time>
      </trkpt>
      <trkpt lat="48.02289" lon="6.81622">
        <ele>638.6</ele>
        <time>2022-06-26T06:52:41Z</time>
      </trkpt>
      <trkpt lat="48.02288" lon="6.81625">
        <ele>638.8</ele>
        <time>2022-06-26T06:52:42Z</time>
      </trkpt>
      <trkpt lat="48.02289" lon="6.81627">
        <ele>638.8</ele>
        <time>2022-06-26T06:52:43Z</time>
      </trkpt>
      <trkpt lat="48.02288" lon="6.8163">
        <ele>639</ele>
        <time>2022-06-26T06:52:44Z</time>
      </trkpt>
      <trkpt lat="48.02285" lon="6.81633">
        <ele>639.2</ele>
        <time>2022-06-26T06:52:45Z</time>
      </trkpt>
      <trkpt lat="48.02286" lon="6.81636">
        <ele>639.2</ele>
        <time>2022-06-26T06:52:46Z</time>
      </trkpt>
      <trkpt lat="48.02288" lon="6.81639">
        <ele>639.2</ele>
        <time>2022-06-26T06:52:47Z</time>
      </trkpt>
      <trkpt lat="48.0229" lon="6.81642">
        <ele>639.4</ele>
        <time>2022-06-26T06:52:48Z</time>
      </trkpt>
      <trkpt lat="48.0229" lon="6.81643">
        <ele>639.4</ele>
        <time>2022-06-26T06:52:49Z</time>
      </trkpt>
      <trkpt lat="48.02292" lon="6.81645">
        <ele>639.4</ele>
        <time>2022-06-26T06:52:50Z</time>
      </trkpt>
      <trkpt lat="48.02294" lon="6.81646">
        <ele>639.8</ele>
        <time>2022-06-26T06:52:51Z</time>
      </trkpt>
      <trkpt lat="48.02297" lon="6.81647">
        <ele>640</ele>
        <time>2022-06-26T06:52:52Z</time>
      </trkpt>
      <trkpt lat="48.02298" lon="6.81649">
        <ele>640.2</ele>
        <time>2022-06-26T06:52:53Z</time>
      </trkpt>
      <trkpt lat="48.02297" lon="6.81652">
        <ele>640.2</ele>
        <time>2022-06-26T06:52:54Z</time>
      </trkpt>
      <trkpt lat="48.02292" lon="6.81655">
        <ele>640.4</ele>
        <time>2022-06-26T06:52:55Z</time>
      </trkpt>
      <trkpt lat="48.0229" lon="6.81659">
        <ele>640.4</ele>
        <time>2022-06-26T06:52:56Z</time>
      </trkpt>
      <trkpt lat="48.02287" lon="6.81662">
        <ele>640.8</ele>
        <time>2022-06-26T06:52:57Z</time>
      </trkpt>
      <trkpt lat="48.02288" lon="6.81664">
        <ele>641.2</ele>
        <time>2022-06-26T06:52:58Z</time>
      </trkpt>
      <trkpt lat="48.02288" lon="6.81665">
        <ele>641.2</ele>
        <time>2022-06-26T06:52:59Z</time>
      </trkpt>
      <trkpt lat="48.02289" lon="6.81666">
        <ele>641.4</ele>
        <time>2022-06-26T06:53:00Z</time>
      </trkpt>
      <trkpt lat="48.0229" lon="6.81668">
        <ele>641.4</ele>
        <time>2022-06-26T06:53:01Z</time>
      </trkpt>
      <trkpt lat="48.02292" lon="6.8167">
        <ele>641.6</ele>
        <time>2022-06-26T06:53:02Z</time>
      </trkpt>
      <trkpt lat="48.02294" lon="6.81672">
        <ele>641.8</ele>
        <time>2022-06-26T06:53:03Z</time>
      </trkpt>
      <trkpt lat="48.02295" lon="6.81674">
        <ele>641.8</ele>
        <time>2022-06-26T06:53:04Z</time>
      </trkpt>
      <trkpt lat="48.02294" lon="6.81676">
        <ele>642</ele>
        <time>2022-06-26T06:53:05Z</time>
      </trkpt>
      <trkpt lat="48.02294" lon="6.81678">
        <ele>642.4</ele>
        <time>2022-06-26T06:53:06Z</time>
      </trkpt>
      <trkpt lat="48.02294" lon="6.8168">
        <ele>642.6</ele>
        <time>2022-06-26T06:53:07Z</time>
      </trkpt>
      <trkpt lat="48.02294" lon="6.81682">
        <ele>642.6</ele>
        <time>2022-06-26T06:53:08Z</time>
      </trkpt>
      <trkpt lat="48.02294" lon="6.81683">
        <ele>643</ele>
        <time>2022-06-26T06:53:09Z</time>
      </trkpt>
      <trkpt lat="48.02293" lon="6.81686">
        <ele>643.2</ele>
        <time>2022-06-26T06:53:10Z</time>
      </trkpt>
      <trkpt lat="48.02293" lon="6.81687">
        <ele>643.4</ele>
        <time>2022-06-26T06:53:11Z</time>
      </trkpt>
      <trkpt lat="48.02293" lon="6.81689">
        <ele>643.4</ele>
        <time>2022-06-26T06:53:12Z</time>
      </trkpt>
      <trkpt lat="48.02294" lon="6.81691">
        <ele>643.6</ele>
        <time>2022-06-26T06:53:13Z</time>
      </trkpt>
      <trkpt lat="48.02294" lon="6.81692">
        <ele>643.8</ele>
        <time>2022-06-26T06:53:14Z</time>
      </trkpt>
      <trkpt lat="48.02294" lon="6.81692">
        <ele>644</ele>
        <time>2022-06-26T06:53:15Z</time>
      </trkpt>
      <trkpt lat="48.02295" lon="6.81694">
        <ele>644.2</ele>
        <time>2022-06-26T06:53:16Z</time>
      </trkpt>
      <trkpt lat="48.02295" lon="6.81697">
        <ele>644.2</ele>
        <time>2022-06-26T06:53:17Z</time>
      </trkpt>
      <trkpt lat="48.02296" lon="6.81697">
        <ele>644.6</ele>
        <time>2022-06-26T06:53:18Z</time>
      </trkpt>
      <trkpt lat="48.02295" lon="6.81699">
        <ele>644.8</ele>
        <time>2022-06-26T06:53:19Z</time>
      </trkpt>
      <trkpt lat="48.02296" lon="6.817">
        <ele>644.8</ele>
        <time>2022-06-26T06:53:20Z</time>
      </trkpt>
      <trkpt lat="48.02297" lon="6.81702">
        <ele>645</ele>
        <time>2022-06-26T06:53:21Z</time>
      </trkpt>
      <trkpt lat="48.02298" lon="6.81704">
        <ele>645.2</ele>
        <time>2022-06-26T06:53:22Z</time>
      </trkpt>
      <trkpt lat="48.02298" lon="6.81704">
        <ele>645.6</ele>
        <time>2022-06-26T06:53:23Z</time>
      </trkpt>
      <trkpt lat="48.02299" lon="6.81706">
        <ele>645.6</ele>
        <time>2022-06-26T06:53:24Z</time>
      </trkpt>
      <trkpt lat="48.023" lon="6.81707">
        <ele>645.8</ele>
        <time>2022-06-26T06:53:25Z</time>
      </trkpt>
      <trkpt lat="48.02301" lon="6.81709">
        <ele>645.8</ele>
        <time>2022-06-26T06:53:26Z</time>
      </trkpt>
      <trkpt lat="48.02302" lon="6.81711">
        <ele>646</ele>
        <time>2022-06-26T06:53:27Z</time>
      </trkpt>
      <trkpt lat="48.02304" lon="6.81713">
        <ele>646.2</ele>
        <time>2022-06-26T06:53:28Z</time>
      </trkpt>
      <trkpt lat="48.02305" lon="6.81715">
        <ele>646.4</ele>
        <time>2022-06-26T06:53:29Z</time>
      </trkpt>
      <trkpt lat="48.02305" lon="6.81719">
        <ele>646.6</ele>
        <time>2022-06-26T06:53:30Z</time>
      </trkpt>
      <trkpt lat="48.02305" lon="6.81721">
        <ele>646.8</ele>
        <time>2022-06-26T06:53:31Z</time>
      </trkpt>
      <trkpt lat="48.02305" lon="6.81725">
        <ele>647</ele>
        <time>2022-06-26T06:53:32Z</time>
      </trkpt>
      <trkpt lat="48.02305" lon="6.81728">
        <ele>647.2</ele>
        <time>2022-06-26T06:53:33Z</time>
      </trkpt>
      <trkpt lat="48.02305" lon="6.81731">
        <ele>647.4</ele>
        <time>2022-06-26T06:53:34Z</time>
      </trkpt>
      <trkpt lat="48.02305" lon="6.81734">
        <ele>647.6</ele>
        <time>2022-06-26T06:53:35Z</time>
      </trkpt>
      <trkpt lat="48.02305" lon="6.81736">
        <ele>647.6</ele>
        <time>2022-06-26T06:53:36Z</time>
      </trkpt>
      <trkpt lat="48.02304" lon="6.81739">
        <ele>647.8</ele>
        <time>2022-06-26T06:53:37Z</time>
      </trkpt>
      <trkpt lat="48.02303" lon="6.81742">
        <ele>648</ele>
        <time>2022-06-26T06:53:38Z</time>
      </trkpt>
      <trkpt lat="48.02303" lon="6.81745">
        <ele>648</ele>
        <time>2022-06-26T06:53:39Z</time>
      </trkpt>
      <trkpt lat="48.02303" lon="6.81747">
        <ele>648.2</ele>
        <time>2022-06-26T06:53:40Z</time>
      </trkpt>
      <trkpt lat="48.02303" lon="6.81749">
        <ele>648.4</ele>
        <time>2022-06-26T06:53:41Z</time>
      </trkpt>
      <trkpt lat="48.02304" lon="6.8175">
        <ele>648.6</ele>
        <time>2022-06-26T06:53:42Z</time>
      </trkpt>
      <trkpt lat="48.02303" lon="6.81752">
        <ele>649</ele>
        <time>2022-06-26T06:53:43Z</time>
      </trkpt>
      <trkpt lat="48.02301" lon="6.81757">
        <ele>649.2</ele>
        <time>2022-06-26T06:53:44Z</time>
      </trkpt>
      <trkpt lat="48.02302" lon="6.81761">
        <ele>649.4</ele>
        <time>2022-06-26T06:53:45Z</time>
      </trkpt>
      <trkpt lat="48.02303" lon="6.81764">
        <ele>649.4</ele>
        <time>2022-06-26T06:53:46Z</time>
      </trkpt>
      <trkpt lat="48.02306" lon="6.81767">
        <ele>649.6</ele>
        <time>2022-06-26T06:53:47Z</time>
      </trkpt>
      <trkpt lat="48.02307" lon="6.81768">
        <ele>649.8</ele>
        <time>2022-06-26T06:53:48Z</time>
      </trkpt>
      <trkpt lat="48.02309" lon="6.81769">
        <ele>650</ele>
        <time>2022-06-26T06:53:49Z</time>
      </trkpt>
      <trkpt lat="48.02309" lon="6.81771">
        <ele>650.2</ele>
        <time>2022-06-26T06:53:50Z</time>
      </trkpt>
      <trkpt lat="48.02307" lon="6.81773">
        <ele>650.4</ele>
        <time>2022-06-26T06:53:51Z</time>
      </trkpt>
      <trkpt lat="48.02308" lon="6.81776">
        <ele>650.4</ele>
        <time>2022-06-26T06:53:52Z</time>
      </trkpt>
      <trkpt lat="48.02311" lon="6.81779">
        <ele>650.4</ele>
        <time>2022-06-26T06:53:53Z</time>
      </trkpt>
      <trkpt lat="48.02312" lon="6.81781">
        <ele>650.6</ele>
        <time>2022-06-26T06:53:54Z</time>
      </trkpt>
      <trkpt lat="48.02313" lon="6.81783">
        <ele>650.8</ele>
        <time>2022-06-26T06:53:55Z</time>
      </trkpt>
      <trkpt lat="48.02312" lon="6.81785">
        <ele>651</ele>
        <time>2022-06-26T06:53:56Z</time>
      </trkpt>
      <trkpt lat="48.02311" lon="6.81786">
        <ele>651</ele>
        <time>2022-06-26T06:53:57Z</time>
      </trkpt>
      <trkpt lat="48.02312" lon="6.81788">
        <ele>651.2</ele>
        <time>2022-06-26T06:53:58Z</time>
      </trkpt>
      <trkpt lat="48.02312" lon="6.81789">
        <ele>651.6</ele>
        <time>2022-06-26T06:53:59Z</time>
      </trkpt>
      <trkpt lat="48.02312" lon="6.81791">
        <ele>651.8</ele>
        <time>2022-06-26T06:54:00Z</time>
      </trkpt>
      <trkpt lat="48.02313" lon="6.81793">
        <ele>652.2</ele>
        <time>2022-06-26T06:54:01Z</time>
      </trkpt>
      <trkpt lat="48.02313" lon="6.81795">
        <ele>652.2</ele>
        <time>2022-06-26T06:54:02Z</time>
      </trkpt>
      <trkpt lat="48.02313" lon="6.81795">
        <ele>652.4</ele>
        <time>2022-06-26T06:54:03Z</time>
      </trkpt>
      <trkpt lat="48.02313" lon="6.81796">
        <ele>652.4</ele>
        <time>2022-06-26T06:54:04Z</time>
      </trkpt>
      <trkpt lat="48.02312" lon="6.81798">
        <ele>652.6</ele>
        <time>2022-06-26T06:54:05Z</time>
      </trkpt>
      <trkpt lat="48.02312" lon="6.818">
        <ele>652.6</ele>
        <time>2022-06-26T06:54:06Z</time>
      </trkpt>
      <trkpt lat="48.02311" lon="6.81802">
        <ele>653</ele>
        <time>2022-06-26T06:54:07Z</time>
      </trkpt>
      <trkpt lat="48.0231" lon="6.81804">
        <ele>653.2</ele>
        <time>2022-06-26T06:54:08Z</time>
      </trkpt>
      <trkpt lat="48.02309" lon="6.81807">
        <ele>653.4</ele>
        <time>2022-06-26T06:54:09Z</time>
      </trkpt>
      <trkpt lat="48.02309" lon="6.81809">
        <ele>654</ele>
        <time>2022-06-26T06:54:10Z</time>
      </trkpt>
      <trkpt lat="48.02309" lon="6.81812">
        <ele>654.2</ele>
        <time>2022-06-26T06:54:11Z</time>
      </trkpt>
      <trkpt lat="48.0231" lon="6.81814">
        <ele>654.6</ele>
        <time>2022-06-26T06:54:12Z</time>
      </trkpt>
      <trkpt lat="48.02311" lon="6.81815">
        <ele>654.8</ele>
        <time>2022-06-26T06:54:13Z</time>
      </trkpt>
      <trkpt lat="48.02312" lon="6.81817">
        <ele>655</ele>
        <time>2022-06-26T06:54:14Z</time>
      </trkpt>
      <trkpt lat="48.02313" lon="6.81818">
        <ele>655.2</ele>
        <time>2022-06-26T06:54:15Z</time>
      </trkpt>
      <trkpt lat="48.02312" lon="6.81821">
        <ele>655.4</ele>
        <time>2022-06-26T06:54:16Z</time>
      </trkpt>
      <trkpt lat="48.02312" lon="6.81825">
        <ele>655.4</ele>
        <time>2022-06-26T06:54:17Z</time>
      </trkpt>
      <trkpt lat="48.02312" lon="6.81828">
        <ele>655.6</ele>
        <time>2022-06-26T06:54:18Z</time>
      </trkpt>
      <trkpt lat="48.02313" lon="6.8183">
        <ele>655.8</ele>
        <time>2022-06-26T06:54:19Z</time>
      </trkpt>
      <trkpt lat="48.02314" lon="6.81832">
        <ele>655.8</ele>
        <time>2022-06-26T06:54:20Z</time>
      </trkpt>
      <trkpt lat="48.02313" lon="6.81837">
        <ele>656</ele>
        <time>2022-06-26T06:54:21Z</time>
      </trkpt>
      <trkpt lat="48.02312" lon="6.81841">
        <ele>656</ele>
        <time>2022-06-26T06:54:22Z</time>
      </trkpt>
      <trkpt lat="48.02313" lon="6.81844">
        <ele>656</ele>
        <time>2022-06-26T06:54:23Z</time>
      </trkpt>
      <trkpt lat="48.02314" lon="6.81847">
        <ele>656.2</ele>
        <time>2022-06-26T06:54:24Z</time>
      </trkpt>
      <trkpt lat="48.02316" lon="6.81849">
        <ele>656.4</ele>
        <time>2022-06-26T06:54:25Z</time>
      </trkpt>
      <trkpt lat="48.02316" lon="6.81852">
        <ele>656.4</ele>
        <time>2022-06-26T06:54:26Z</time>
      </trkpt>
      <trkpt lat="48.02315" lon="6.81855">
        <ele>656.4</ele>
        <time>2022-06-26T06:54:27Z</time>
      </trkpt>
      <trkpt lat="48.02316" lon="6.8186">
        <ele>656.6</ele>
        <time>2022-06-26T06:54:28Z</time>
      </trkpt>
      <trkpt lat="48.02317" lon="6.81865">
        <ele>656.6</ele>
        <time>2022-06-26T06:54:29Z</time>
      </trkpt>
      <trkpt lat="48.02319" lon="6.81871">
        <ele>656.6</ele>
        <time>2022-06-26T06:54:30Z</time>
      </trkpt>
      <trkpt lat="48.02319" lon="6.81876">
        <ele>656.6</ele>
        <time>2022-06-26T06:54:31Z</time>
      </trkpt>
      <trkpt lat="48.0232" lon="6.81881">
        <ele>656.6</ele>
        <time>2022-06-26T06:54:32Z</time>
      </trkpt>
      <trkpt lat="48.02322" lon="6.81888">
        <ele>656.4</ele>
        <time>2022-06-26T06:54:33Z</time>
      </trkpt>
      <trkpt lat="48.02325" lon="6.81894">
        <ele>656.2</ele>
        <time>2022-06-26T06:54:34Z</time>
      </trkpt>
      <trkpt lat="48.02328" lon="6.81901">
        <ele>655.8</ele>
        <time>2022-06-26T06:54:35Z</time>
      </trkpt>
      <trkpt lat="48.02331" lon="6.81906">
        <ele>655.6</ele>
        <time>2022-06-26T06:54:36Z</time>
      </trkpt>
      <trkpt lat="48.02333" lon="6.81912">
        <ele>655.2</ele>
        <time>2022-06-26T06:54:37Z</time>
      </trkpt>
      <trkpt lat="48.02336" lon="6.81918">
        <ele>655</ele>
        <time>2022-06-26T06:54:38Z</time>
      </trkpt>
      <trkpt lat="48.02341" lon="6.81933">
        <ele>654.2</ele>
        <time>2022-06-26T06:54:40Z</time>
      </trkpt>
      <trkpt lat="48.02345" lon="6.81941">
        <ele>653.6</ele>
        <time>2022-06-26T06:54:41Z</time>
      </trkpt>
      <trkpt lat="48.02349" lon="6.81947">
        <ele>653.4</ele>
        <time>2022-06-26T06:54:42Z</time>
      </trkpt>
      <trkpt lat="48.02352" lon="6.81954">
        <ele>653</ele>
        <time>2022-06-26T06:54:43Z</time>
      </trkpt>
      <trkpt lat="48.02355" lon="6.81961">
        <ele>652.6</ele>
        <time>2022-06-26T06:54:44Z</time>
      </trkpt>
      <trkpt lat="48.02363" lon="6.81977">
        <ele>651.4</ele>
        <time>2022-06-26T06:54:46Z</time>
      </trkpt>
      <trkpt lat="48.02368" lon="6.81991">
        <ele>649</ele>
        <time>2022-06-26T06:54:48Z</time>
      </trkpt>
      <trkpt lat="48.0237" lon="6.81998">
        <ele>648.4</ele>
        <time>2022-06-26T06:54:49Z</time>
      </trkpt>
      <trkpt lat="48.02374" lon="6.82006">
        <ele>646.2</ele>
        <time>2022-06-26T06:54:50Z</time>
      </trkpt>
      <trkpt lat="48.02378" lon="6.82016">
        <ele>645.4</ele>
        <time>2022-06-26T06:54:51Z</time>
      </trkpt>
      <trkpt lat="48.02383" lon="6.82026">
        <ele>643.6</ele>
        <time>2022-06-26T06:54:52Z</time>
      </trkpt>
      <trkpt lat="48.02387" lon="6.82035">
        <ele>642.4</ele>
        <time>2022-06-26T06:54:53Z</time>
      </trkpt>
      <trkpt lat="48.02393" lon="6.82043">
        <ele>641.6</ele>
        <time>2022-06-26T06:54:54Z</time>
      </trkpt>
      <trkpt lat="48.02398" lon="6.82051">
        <ele>640.6</ele>
        <time>2022-06-26T06:54:55Z</time>
      </trkpt>
      <trkpt lat="48.02404" lon="6.82061">
        <ele>640.2</ele>
        <time>2022-06-26T06:54:56Z</time>
      </trkpt>
      <trkpt lat="48.02408" lon="6.82069">
        <ele>638.8</ele>
        <time>2022-06-26T06:54:57Z</time>
      </trkpt>
      <trkpt lat="48.02411" lon="6.82076">
        <ele>638.2</ele>
        <time>2022-06-26T06:54:58Z</time>
      </trkpt>
      <trkpt lat="48.02415" lon="6.82084">
        <ele>636.4</ele>
        <time>2022-06-26T06:54:59Z</time>
      </trkpt>
      <trkpt lat="48.02422" lon="6.82098">
        <ele>634.2</ele>
        <time>2022-06-26T06:55:01Z</time>
      </trkpt>
      <trkpt lat="48.02426" lon="6.82105">
        <ele>633</ele>
        <time>2022-06-26T06:55:02Z</time>
      </trkpt>
      <trkpt lat="48.0243" lon="6.82113">
        <ele>632.4</ele>
        <time>2022-06-26T06:55:03Z</time>
      </trkpt>
      <trkpt lat="48.02434" lon="6.82121">
        <ele>630.6</ele>
        <time>2022-06-26T06:55:04Z</time>
      </trkpt>
      <trkpt lat="48.02446" lon="6.82136">
        <ele>629</ele>
        <time>2022-06-26T06:55:06Z</time>
      </trkpt>
      <trkpt lat="48.02453" lon="6.82144">
        <ele>628.6</ele>
        <time>2022-06-26T06:55:07Z</time>
      </trkpt>
      <trkpt lat="48.02459" lon="6.82152">
        <ele>628</ele>
        <time>2022-06-26T06:55:08Z</time>
      </trkpt>
      <trkpt lat="48.02466" lon="6.8216">
        <ele>626.4</ele>
        <time>2022-06-26T06:55:09Z</time>
      </trkpt>
      <trkpt lat="48.02471" lon="6.82167">
        <ele>625.4</ele>
        <time>2022-06-26T06:55:10Z</time>
      </trkpt>
      <trkpt lat="48.02475" lon="6.82174">
        <ele>623.8</ele>
        <time>2022-06-26T06:55:11Z</time>
      </trkpt>
      <trkpt lat="48.02478" lon="6.82181">
        <ele>623.2</ele>
        <time>2022-06-26T06:55:12Z</time>
      </trkpt>
      <trkpt lat="48.0248" lon="6.82188">
        <ele>621</ele>
        <time>2022-06-26T06:55:13Z</time>
      </trkpt>
      <trkpt lat="48.0248" lon="6.82197">
        <ele>619.8</ele>
        <time>2022-06-26T06:55:14Z</time>
      </trkpt>
      <trkpt lat="48.02482" lon="6.82206">
        <ele>618.4</ele>
        <time>2022-06-26T06:55:15Z</time>
      </trkpt>
      <trkpt lat="48.02484" lon="6.82214">
        <ele>617</ele>
        <time>2022-06-26T06:55:16Z</time>
      </trkpt>
      <trkpt lat="48.02487" lon="6.82222">
        <ele>615.8</ele>
        <time>2022-06-26T06:55:17Z</time>
      </trkpt>
      <trkpt lat="48.02491" lon="6.82229">
        <ele>614.8</ele>
        <time>2022-06-26T06:55:18Z</time>
      </trkpt>
      <trkpt lat="48.02497" lon="6.82238">
        <ele>614.2</ele>
        <time>2022-06-26T06:55:19Z</time>
      </trkpt>
      <trkpt lat="48.02503" lon="6.82245">
        <ele>612.8</ele>
        <time>2022-06-26T06:55:20Z</time>
      </trkpt>
      <trkpt lat="48.0251" lon="6.82252">
        <ele>611.8</ele>
        <time>2022-06-26T06:55:21Z</time>
      </trkpt>
      <trkpt lat="48.02516" lon="6.82259">
        <ele>610.4</ele>
        <time>2022-06-26T06:55:22Z</time>
      </trkpt>
      <trkpt lat="48.02526" lon="6.82272">
        <ele>609</ele>
        <time>2022-06-26T06:55:24Z</time>
      </trkpt>
      <trkpt lat="48.02531" lon="6.82279">
        <ele>608</ele>
        <time>2022-06-26T06:55:25Z</time>
      </trkpt>
      <trkpt lat="48.02536" lon="6.82285">
        <ele>607</ele>
        <time>2022-06-26T06:55:26Z</time>
      </trkpt>
      <trkpt lat="48.02541" lon="6.8229">
        <ele>606.4</ele>
        <time>2022-06-26T06:55:27Z</time>
      </trkpt>
      <trkpt lat="48.02544" lon="6.82295">
        <ele>606.2</ele>
        <time>2022-06-26T06:55:28Z</time>
      </trkpt>
      <trkpt lat="48.02546" lon="6.82299">
        <ele>605.4</ele>
        <time>2022-06-26T06:55:29Z</time>
      </trkpt>
      <trkpt lat="48.02549" lon="6.82304">
        <ele>605</ele>
        <time>2022-06-26T06:55:30Z</time>
      </trkpt>
      <trkpt lat="48.02553" lon="6.82307">
        <ele>604</ele>
        <time>2022-06-26T06:55:31Z</time>
      </trkpt>
      <trkpt lat="48.02556" lon="6.82308">
        <ele>603.2</ele>
        <time>2022-06-26T06:55:32Z</time>
      </trkpt>
      <trkpt lat="48.02559" lon="6.82309">
        <ele>602.4</ele>
        <time>2022-06-26T06:55:33Z</time>
      </trkpt>
      <trkpt lat="48.02563" lon="6.82309">
        <ele>602</ele>
        <time>2022-06-26T06:55:34Z</time>
      </trkpt>
      <trkpt lat="48.02568" lon="6.82309">
        <ele>601.4</ele>
        <time>2022-06-26T06:55:35Z</time>
      </trkpt>
      <trkpt lat="48.02572" lon="6.82309">
        <ele>601.2</ele>
        <time>2022-06-26T06:55:36Z</time>
      </trkpt>
      <trkpt lat="48.02584" lon="6.8231">
        <ele>601</ele>
        <time>2022-06-26T06:55:38Z</time>
      </trkpt>
      <trkpt lat="48.02607" lon="6.82308">
        <ele>599.8</ele>
        <time>2022-06-26T06:55:42Z</time>
      </trkpt>
      <trkpt lat="48.0262" lon="6.82301">
        <ele>599.6</ele>
        <time>2022-06-26T06:55:44Z</time>
      </trkpt>
      <trkpt lat="48.02633" lon="6.82295">
        <ele>598.4</ele>
        <time>2022-06-26T06:55:46Z</time>
      </trkpt>
      <trkpt lat="48.02642" lon="6.8229">
        <ele>597</ele>
        <time>2022-06-26T06:55:48Z</time>
      </trkpt>
      <trkpt lat="48.02645" lon="6.82286">
        <ele>596</ele>
        <time>2022-06-26T06:55:49Z</time>
      </trkpt>
      <trkpt lat="48.02647" lon="6.82282">
        <ele>595.6</ele>
        <time>2022-06-26T06:55:50Z</time>
      </trkpt>
      <trkpt lat="48.02648" lon="6.82276">
        <ele>594.8</ele>
        <time>2022-06-26T06:55:51Z</time>
      </trkpt>
      <trkpt lat="48.02648" lon="6.82269">
        <ele>594.8</ele>
        <time>2022-06-26T06:55:52Z</time>
      </trkpt>
      <trkpt lat="48.02648" lon="6.82262">
        <ele>593.8</ele>
        <time>2022-06-26T06:55:53Z</time>
      </trkpt>
      <trkpt lat="48.0265" lon="6.82254">
        <ele>593.8</ele>
        <time>2022-06-26T06:55:54Z</time>
      </trkpt>
      <trkpt lat="48.02652" lon="6.82246">
        <ele>593.4</ele>
        <time>2022-06-26T06:55:55Z</time>
      </trkpt>
      <trkpt lat="48.02656" lon="6.82224">
        <ele>592.6</ele>
        <time>2022-06-26T06:55:58Z</time>
      </trkpt>
      <trkpt lat="48.02656" lon="6.82216">
        <ele>592.4</ele>
        <time>2022-06-26T06:55:59Z</time>
      </trkpt>
      <trkpt lat="48.02655" lon="6.82208">
        <ele>592</ele>
        <time>2022-06-26T06:56:00Z</time>
      </trkpt>
      <trkpt lat="48.02653" lon="6.82201">
        <ele>591.6</ele>
        <time>2022-06-26T06:56:01Z</time>
      </trkpt>
      <trkpt lat="48.02652" lon="6.82193">
        <ele>591.2</ele>
        <time>2022-06-26T06:56:02Z</time>
      </trkpt>
      <trkpt lat="48.02648" lon="6.82167">
        <ele>590.2</ele>
        <time>2022-06-26T06:56:05Z</time>
      </trkpt>
      <trkpt lat="48.02646" lon="6.82158">
        <ele>590</ele>
        <time>2022-06-26T06:56:06Z</time>
      </trkpt>
      <trkpt lat="48.02636" lon="6.82123">
        <ele>588.8</ele>
        <time>2022-06-26T06:56:10Z</time>
      </trkpt>
      <trkpt lat="48.0263" lon="6.82098">
        <ele>587.8</ele>
        <time>2022-06-26T06:56:13Z</time>
      </trkpt>
      <trkpt lat="48.02628" lon="6.82088">
        <ele>587.6</ele>
        <time>2022-06-26T06:56:14Z</time>
      </trkpt>
      <trkpt lat="48.02627" lon="6.82065">
        <ele>587.2</ele>
        <time>2022-06-26T06:56:16Z</time>
      </trkpt>
      <trkpt lat="48.02629" lon="6.82045">
        <ele>586.6</ele>
        <time>2022-06-26T06:56:18Z</time>
      </trkpt>
      <trkpt lat="48.02635" lon="6.82019">
        <ele>585.4</ele>
        <time>2022-06-26T06:56:21Z</time>
      </trkpt>
      <trkpt lat="48.02653" lon="6.81957">
        <ele>584</ele>
        <time>2022-06-26T06:56:27Z</time>
      </trkpt>
      <trkpt lat="48.02658" lon="6.81948">
        <ele>584</ele>
        <time>2022-06-26T06:56:28Z</time>
      </trkpt>
      <trkpt lat="48.02663" lon="6.8194">
        <ele>583.4</ele>
        <time>2022-06-26T06:56:29Z</time>
      </trkpt>
      <trkpt lat="48.02669" lon="6.81933">
        <ele>582.6</ele>
        <time>2022-06-26T06:56:30Z</time>
      </trkpt>
      <trkpt lat="48.02674" lon="6.81928">
        <ele>582.4</ele>
        <time>2022-06-26T06:56:31Z</time>
      </trkpt>
      <trkpt lat="48.02679" lon="6.81922">
        <ele>582</ele>
        <time>2022-06-26T06:56:32Z</time>
      </trkpt>
      <trkpt lat="48.02684" lon="6.81917">
        <ele>581.8</ele>
        <time>2022-06-26T06:56:33Z</time>
      </trkpt>
      <trkpt lat="48.02689" lon="6.81913">
        <ele>581.6</ele>
        <time>2022-06-26T06:56:34Z</time>
      </trkpt>
      <trkpt lat="48.02694" lon="6.81908">
        <ele>581.4</ele>
        <time>2022-06-26T06:56:35Z</time>
      </trkpt>
      <trkpt lat="48.02699" lon="6.81904">
        <ele>581.2</ele>
        <time>2022-06-26T06:56:36Z</time>
      </trkpt>
      <trkpt lat="48.02704" lon="6.819">
        <ele>581.2</ele>
        <time>2022-06-26T06:56:37Z</time>
      </trkpt>
      <trkpt lat="48.02708" lon="6.81896">
        <ele>581.2</ele>
        <time>2022-06-26T06:56:38Z</time>
      </trkpt>
      <trkpt lat="48.02713" lon="6.81894">
        <ele>581.2</ele>
        <time>2022-06-26T06:56:39Z</time>
      </trkpt>
      <trkpt lat="48.02718" lon="6.81893">
        <ele>581.2</ele>
        <time>2022-06-26T06:56:40Z</time>
      </trkpt>
      <trkpt lat="48.02724" lon="6.81893">
        <ele>581.4</ele>
        <time>2022-06-26T06:56:41Z</time>
      </trkpt>
      <trkpt lat="48.02729" lon="6.81893">
        <ele>581.4</ele>
        <time>2022-06-26T06:56:42Z</time>
      </trkpt>
      <trkpt lat="48.02734" lon="6.81893">
        <ele>581.4</ele>
        <time>2022-06-26T06:56:43Z</time>
      </trkpt>
      <trkpt lat="48.02745" lon="6.81887">
        <ele>581</ele>
        <time>2022-06-26T06:56:45Z</time>
      </trkpt>
      <trkpt lat="48.0275" lon="6.81883">
        <ele>581</ele>
        <time>2022-06-26T06:56:46Z</time>
      </trkpt>
      <trkpt lat="48.02754" lon="6.81878">
        <ele>580.8</ele>
        <time>2022-06-26T06:56:47Z</time>
      </trkpt>
      <trkpt lat="48.02758" lon="6.81874">
        <ele>580.8</ele>
        <time>2022-06-26T06:56:48Z</time>
      </trkpt>
      <trkpt lat="48.02762" lon="6.81869">
        <ele>580.6</ele>
        <time>2022-06-26T06:56:49Z</time>
      </trkpt>
      <trkpt lat="48.02766" lon="6.81864">
        <ele>580.6</ele>
        <time>2022-06-26T06:56:50Z</time>
      </trkpt>
      <trkpt lat="48.0277" lon="6.8186">
        <ele>580.4</ele>
        <time>2022-06-26T06:56:51Z</time>
      </trkpt>
      <trkpt lat="48.02778" lon="6.81853">
        <ele>580</ele>
        <time>2022-06-26T06:56:53Z</time>
      </trkpt>
      <trkpt lat="48.02782" lon="6.81849">
        <ele>579.8</ele>
        <time>2022-06-26T06:56:54Z</time>
      </trkpt>
      <trkpt lat="48.02786" lon="6.81844">
        <ele>579.4</ele>
        <time>2022-06-26T06:56:55Z</time>
      </trkpt>
      <trkpt lat="48.0279" lon="6.81841">
        <ele>579.4</ele>
        <time>2022-06-26T06:56:56Z</time>
      </trkpt>
      <trkpt lat="48.02794" lon="6.8184">
        <ele>579.2</ele>
        <time>2022-06-26T06:56:57Z</time>
      </trkpt>
      <trkpt lat="48.02798" lon="6.81841">
        <ele>579.2</ele>
        <time>2022-06-26T06:56:58Z</time>
      </trkpt>
      <trkpt lat="48.02802" lon="6.81844">
        <ele>579.2</ele>
        <time>2022-06-26T06:56:59Z</time>
      </trkpt>
      <trkpt lat="48.02807" lon="6.81847">
        <ele>579.2</ele>
        <time>2022-06-26T06:57:00Z</time>
      </trkpt>
      <trkpt lat="48.02811" lon="6.8185">
        <ele>579</ele>
        <time>2022-06-26T06:57:01Z</time>
      </trkpt>
      <trkpt lat="48.02815" lon="6.81852">
        <ele>579</ele>
        <time>2022-06-26T06:57:02Z</time>
      </trkpt>
      <trkpt lat="48.02819" lon="6.81854">
        <ele>579.2</ele>
        <time>2022-06-26T06:57:03Z</time>
      </trkpt>
      <trkpt lat="48.02823" lon="6.81856">
        <ele>579.2</ele>
        <time>2022-06-26T06:57:04Z</time>
      </trkpt>
      <trkpt lat="48.02827" lon="6.81858">
        <ele>579.2</ele>
        <time>2022-06-26T06:57:05Z</time>
      </trkpt>
      <trkpt lat="48.02832" lon="6.81861">
        <ele>579.2</ele>
        <time>2022-06-26T06:57:06Z</time>
      </trkpt>
      <trkpt lat="48.02835" lon="6.81863">
        <ele>579.2</ele>
        <time>2022-06-26T06:57:07Z</time>
      </trkpt>
      <trkpt lat="48.02843" lon="6.81867">
        <ele>579.4</ele>
        <time>2022-06-26T06:57:09Z</time>
      </trkpt>
      <trkpt lat="48.02846" lon="6.81869">
        <ele>579.8</ele>
        <time>2022-06-26T06:57:10Z</time>
      </trkpt>
      <trkpt lat="48.02849" lon="6.81871">
        <ele>579.8</ele>
        <time>2022-06-26T06:57:11Z</time>
      </trkpt>
      <trkpt lat="48.02853" lon="6.81873">
        <ele>580</ele>
        <time>2022-06-26T06:57:12Z</time>
      </trkpt>
      <trkpt lat="48.02856" lon="6.81876">
        <ele>580</ele>
        <time>2022-06-26T06:57:13Z</time>
      </trkpt>
      <trkpt lat="48.02859" lon="6.81879">
        <ele>580.2</ele>
        <time>2022-06-26T06:57:14Z</time>
      </trkpt>
      <trkpt lat="48.02863" lon="6.81881">
        <ele>580.2</ele>
        <time>2022-06-26T06:57:15Z</time>
      </trkpt>
      <trkpt lat="48.02866" lon="6.81884">
        <ele>580.2</ele>
        <time>2022-06-26T06:57:16Z</time>
      </trkpt>
      <trkpt lat="48.02869" lon="6.81887">
        <ele>580.4</ele>
        <time>2022-06-26T06:57:17Z</time>
      </trkpt>
      <trkpt lat="48.02872" lon="6.8189">
        <ele>580.4</ele>
        <time>2022-06-26T06:57:18Z</time>
      </trkpt>
      <trkpt lat="48.02877" lon="6.81898">
        <ele>580.6</ele>
        <time>2022-06-26T06:57:20Z</time>
      </trkpt>
      <trkpt lat="48.02881" lon="6.81908">
        <ele>580.8</ele>
        <time>2022-06-26T06:57:22Z</time>
      </trkpt>
      <trkpt lat="48.02882" lon="6.81913">
        <ele>580.8</ele>
        <time>2022-06-26T06:57:23Z</time>
      </trkpt>
      <trkpt lat="48.02883" lon="6.81919">
        <ele>581</ele>
        <time>2022-06-26T06:57:24Z</time>
      </trkpt>
      <trkpt lat="48.02884" lon="6.81925">
        <ele>581</ele>
        <time>2022-06-26T06:57:25Z</time>
      </trkpt>
      <trkpt lat="48.02883" lon="6.81938">
        <ele>581</ele>
        <time>2022-06-26T06:57:27Z</time>
      </trkpt>
      <trkpt lat="48.02882" lon="6.81958">
        <ele>581.2</ele>
        <time>2022-06-26T06:57:30Z</time>
      </trkpt>
      <trkpt lat="48.02884" lon="6.81971">
        <ele>581.2</ele>
        <time>2022-06-26T06:57:32Z</time>
      </trkpt>
      <trkpt lat="48.02886" lon="6.81976">
        <ele>581.2</ele>
        <time>2022-06-26T06:57:33Z</time>
      </trkpt>
      <trkpt lat="48.0289" lon="6.8198">
        <ele>581.2</ele>
        <time>2022-06-26T06:57:34Z</time>
      </trkpt>
      <trkpt lat="48.02898" lon="6.81985">
        <ele>581</ele>
        <time>2022-06-26T06:57:36Z</time>
      </trkpt>
      <trkpt lat="48.02902" lon="6.81985">
        <ele>581</ele>
        <time>2022-06-26T06:57:37Z</time>
      </trkpt>
      <trkpt lat="48.02905" lon="6.81983">
        <ele>580.8</ele>
        <time>2022-06-26T06:57:38Z</time>
      </trkpt>
      <trkpt lat="48.02914" lon="6.81974">
        <ele>580.8</ele>
        <time>2022-06-26T06:57:41Z</time>
      </trkpt>
      <trkpt lat="48.02917" lon="6.81971">
        <ele>580.6</ele>
        <time>2022-06-26T06:57:42Z</time>
      </trkpt>
      <trkpt lat="48.02919" lon="6.81969">
        <ele>580.8</ele>
        <time>2022-06-26T06:57:43Z</time>
      </trkpt>
      <trkpt lat="48.02922" lon="6.81967">
        <ele>580.8</ele>
        <time>2022-06-26T06:57:44Z</time>
      </trkpt>
      <trkpt lat="48.02924" lon="6.81965">
        <ele>580.8</ele>
        <time>2022-06-26T06:57:45Z</time>
      </trkpt>
      <trkpt lat="48.02926" lon="6.81963">
        <ele>581</ele>
        <time>2022-06-26T06:57:46Z</time>
      </trkpt>
      <trkpt lat="48.02927" lon="6.81962">
        <ele>581</ele>
        <time>2022-06-26T06:57:47Z</time>
      </trkpt>
      <trkpt lat="48.02928" lon="6.81962">
        <ele>581</ele>
        <time>2022-06-26T06:57:48Z</time>
      </trkpt>
      <trkpt lat="48.02928" lon="6.81962">
        <ele>581.2</ele>
        <time>2022-06-26T06:57:49Z</time>
      </trkpt>
      <trkpt lat="48.02928" lon="6.81962">
        <ele>581.2</ele>
        <time>2022-06-26T06:57:50Z</time>
      </trkpt>
      <trkpt lat="48.02928" lon="6.81962">
        <ele>581.2</ele>
        <time>2022-06-26T06:57:51Z</time>
      </trkpt>
      <trkpt lat="48.02928" lon="6.81962">
        <ele>581.4</ele>
        <time>2022-06-26T06:57:59Z</time>
      </trkpt>
      <trkpt lat="48.02932" lon="6.81961">
        <ele>581.6</ele>
        <time>2022-06-26T06:58:08Z</time>
      </trkpt>
      <trkpt lat="48.02934" lon="6.8196">
        <ele>581.6</ele>
        <time>2022-06-26T06:58:15Z</time>
      </trkpt>
      <trkpt lat="48.02934" lon="6.8196">
        <ele>581.6</ele>
        <time>2022-06-26T06:58:16Z</time>
      </trkpt>
      <trkpt lat="48.02934" lon="6.8196">
        <ele>581.2</ele>
        <time>2022-06-26T06:58:25Z</time>
      </trkpt>
      <trkpt lat="48.02934" lon="6.8196">
        <ele>581.2</ele>
        <time>2022-06-26T06:58:46Z</time>
      </trkpt>
      <trkpt lat="48.02934" lon="6.8196">
        <ele>581</ele>
        <time>2022-06-26T07:00:00Z</time>
      </trkpt>
      <trkpt lat="48.02934" lon="6.8196">
        <ele>580.8</ele>
        <time>2022-06-26T07:01:15Z</time>
      </trkpt>
      <trkpt lat="48.02934" lon="6.81958">
        <ele>581</ele>
        <time>2022-06-26T07:01:29Z</time>
      </trkpt>
      <trkpt lat="48.02935" lon="6.81957">
        <ele>581</ele>
        <time>2022-06-26T07:01:30Z</time>
      </trkpt>
      <trkpt lat="48.02935" lon="6.81956">
        <ele>581.2</ele>
        <time>2022-06-26T07:01:31Z</time>
      </trkpt>
      <trkpt lat="48.02938" lon="6.8195">
        <ele>581.8</ele>
        <time>2022-06-26T07:01:38Z</time>
      </trkpt>
      <trkpt lat="48.02939" lon="6.81949">
        <ele>581.8</ele>
        <time>2022-06-26T07:01:39Z</time>
      </trkpt>
      <trkpt lat="48.02943" lon="6.81949">
        <ele>582</ele>
        <time>2022-06-26T07:01:41Z</time>
      </trkpt>
      <trkpt lat="48.02945" lon="6.8195">
        <ele>582</ele>
        <time>2022-06-26T07:01:42Z</time>
      </trkpt>
      <trkpt lat="48.02947" lon="6.81955">
        <ele>582</ele>
        <time>2022-06-26T07:01:44Z</time>
      </trkpt>
      <trkpt lat="48.02947" lon="6.81959">
        <ele>582</ele>
        <time>2022-06-26T07:01:45Z</time>
      </trkpt>
      <trkpt lat="48.02947" lon="6.81963">
        <ele>582</ele>
        <time>2022-06-26T07:01:46Z</time>
      </trkpt>
      <trkpt lat="48.02948" lon="6.81968">
        <ele>582</ele>
        <time>2022-06-26T07:01:47Z</time>
      </trkpt>
      <trkpt lat="48.02949" lon="6.81972">
        <ele>582.2</ele>
        <time>2022-06-26T07:01:48Z</time>
      </trkpt>
      <trkpt lat="48.02954" lon="6.8199">
        <ele>582.6</ele>
        <time>2022-06-26T07:01:52Z</time>
      </trkpt>
      <trkpt lat="48.02955" lon="6.81995">
        <ele>582.6</ele>
        <time>2022-06-26T07:01:53Z</time>
      </trkpt>
      <trkpt lat="48.02957" lon="6.82005">
        <ele>582.8</ele>
        <time>2022-06-26T07:01:55Z</time>
      </trkpt>
      <trkpt lat="48.02963" lon="6.8203">
        <ele>583.4</ele>
        <time>2022-06-26T07:02:00Z</time>
      </trkpt>
      <trkpt lat="48.02974" lon="6.82077">
        <ele>583.6</ele>
        <time>2022-06-26T07:02:09Z</time>
      </trkpt>
      <trkpt lat="48.02983" lon="6.82107">
        <ele>583.8</ele>
        <time>2022-06-26T07:02:15Z</time>
      </trkpt>
      <trkpt lat="48.0299" lon="6.82127">
        <ele>584</ele>
        <time>2022-06-26T07:02:19Z</time>
      </trkpt>
      <trkpt lat="48.0301" lon="6.82179">
        <ele>584.2</ele>
        <time>2022-06-26T07:02:29Z</time>
      </trkpt>
      <trkpt lat="48.03016" lon="6.82201">
        <ele>584.4</ele>
        <time>2022-06-26T07:02:33Z</time>
      </trkpt>
      <trkpt lat="48.03014" lon="6.82206">
        <ele>584.4</ele>
        <time>2022-06-26T07:02:34Z</time>
      </trkpt>
      <trkpt lat="48.03011" lon="6.82209">
        <ele>584.6</ele>
        <time>2022-06-26T07:02:35Z</time>
      </trkpt>
      <trkpt lat="48.03004" lon="6.82214">
        <ele>584.6</ele>
        <time>2022-06-26T07:02:37Z</time>
      </trkpt>
      <trkpt lat="48.0299" lon="6.82222">
        <ele>584.8</ele>
        <time>2022-06-26T07:02:41Z</time>
      </trkpt>
      <trkpt lat="48.02986" lon="6.82224">
        <ele>584.8</ele>
        <time>2022-06-26T07:02:42Z</time>
      </trkpt>
      <trkpt lat="48.02983" lon="6.82227">
        <ele>584.8</ele>
        <time>2022-06-26T07:02:43Z</time>
      </trkpt>
      <trkpt lat="48.02979" lon="6.82229">
        <ele>585</ele>
        <time>2022-06-26T07:02:44Z</time>
      </trkpt>
      <trkpt lat="48.02975" lon="6.82232">
        <ele>585</ele>
        <time>2022-06-26T07:02:45Z</time>
      </trkpt>
      <trkpt lat="48.02951" lon="6.82246">
        <ele>584.8</ele>
        <time>2022-06-26T07:02:51Z</time>
      </trkpt>
      <trkpt lat="48.02944" lon="6.82251">
        <ele>584.8</ele>
        <time>2022-06-26T07:02:53Z</time>
      </trkpt>
      <trkpt lat="48.02922" lon="6.82267">
        <ele>584.8</ele>
        <time>2022-06-26T07:02:59Z</time>
      </trkpt>
      <trkpt lat="48.02918" lon="6.8227">
        <ele>585</ele>
        <time>2022-06-26T07:03:00Z</time>
      </trkpt>
      <trkpt lat="48.02914" lon="6.82273">
        <ele>585</ele>
        <time>2022-06-26T07:03:01Z</time>
      </trkpt>
      <trkpt lat="48.02911" lon="6.82276">
        <ele>585</ele>
        <time>2022-06-26T07:03:02Z</time>
      </trkpt>
      <trkpt lat="48.02908" lon="6.82279">
        <ele>585.2</ele>
        <time>2022-06-26T07:03:03Z</time>
      </trkpt>
      <trkpt lat="48.02898" lon="6.82288">
        <ele>585.2</ele>
        <time>2022-06-26T07:03:06Z</time>
      </trkpt>
      <trkpt lat="48.02895" lon="6.82292">
        <ele>585.2</ele>
        <time>2022-06-26T07:03:07Z</time>
      </trkpt>
      <trkpt lat="48.02893" lon="6.82297">
        <ele>585.4</ele>
        <time>2022-06-26T07:03:08Z</time>
      </trkpt>
      <trkpt lat="48.02891" lon="6.82301">
        <ele>585.6</ele>
        <time>2022-06-26T07:03:09Z</time>
      </trkpt>
      <trkpt lat="48.0289" lon="6.82306">
        <ele>585.8</ele>
        <time>2022-06-26T07:03:10Z</time>
      </trkpt>
      <trkpt lat="48.02889" lon="6.82312">
        <ele>585.8</ele>
        <time>2022-06-26T07:03:11Z</time>
      </trkpt>
      <trkpt lat="48.02888" lon="6.82317">
        <ele>586</ele>
        <time>2022-06-26T07:03:12Z</time>
      </trkpt>
      <trkpt lat="48.02887" lon="6.82322">
        <ele>585.8</ele>
        <time>2022-06-26T07:03:13Z</time>
      </trkpt>
      <trkpt lat="48.02886" lon="6.82327">
        <ele>586</ele>
        <time>2022-06-26T07:03:14Z</time>
      </trkpt>
      <trkpt lat="48.02876" lon="6.82366">
        <ele>586.4</ele>
        <time>2022-06-26T07:03:21Z</time>
      </trkpt>
      <trkpt lat="48.02861" lon="6.82414">
        <ele>586.8</ele>
        <time>2022-06-26T07:03:30Z</time>
      </trkpt>
      <trkpt lat="48.02857" lon="6.82423">
        <ele>587</ele>
        <time>2022-06-26T07:03:32Z</time>
      </trkpt>
      <trkpt lat="48.02855" lon="6.82428">
        <ele>587</ele>
        <time>2022-06-26T07:03:33Z</time>
      </trkpt>
      <trkpt lat="48.0285" lon="6.82444">
        <ele>587.4</ele>
        <time>2022-06-26T07:03:36Z</time>
      </trkpt>
      <trkpt lat="48.02848" lon="6.82459">
        <ele>587.6</ele>
        <time>2022-06-26T07:03:39Z</time>
      </trkpt>
      <trkpt lat="48.02846" lon="6.8248">
        <ele>588</ele>
        <time>2022-06-26T07:03:43Z</time>
      </trkpt>
      <trkpt lat="48.02846" lon="6.82485">
        <ele>588.2</ele>
        <time>2022-06-26T07:03:44Z</time>
      </trkpt>
      <trkpt lat="48.02846" lon="6.8249">
        <ele>588.2</ele>
        <time>2022-06-26T07:03:45Z</time>
      </trkpt>
      <trkpt lat="48.02845" lon="6.82494">
        <ele>588.4</ele>
        <time>2022-06-26T07:03:46Z</time>
      </trkpt>
      <trkpt lat="48.02845" lon="6.82499">
        <ele>588.4</ele>
        <time>2022-06-26T07:03:47Z</time>
      </trkpt>
      <trkpt lat="48.02845" lon="6.82504">
        <ele>588.4</ele>
        <time>2022-06-26T07:03:48Z</time>
      </trkpt>
      <trkpt lat="48.02845" lon="6.82508">
        <ele>588.6</ele>
        <time>2022-06-26T07:03:49Z</time>
      </trkpt>
      <trkpt lat="48.02844" lon="6.82513">
        <ele>588.8</ele>
        <time>2022-06-26T07:03:50Z</time>
      </trkpt>
      <trkpt lat="48.02844" lon="6.82519">
        <ele>588.8</ele>
        <time>2022-06-26T07:03:51Z</time>
      </trkpt>
      <trkpt lat="48.02843" lon="6.82529">
        <ele>589.2</ele>
        <time>2022-06-26T07:03:53Z</time>
      </trkpt>
      <trkpt lat="48.02841" lon="6.82549">
        <ele>589.4</ele>
        <time>2022-06-26T07:03:57Z</time>
      </trkpt>
      <trkpt lat="48.02835" lon="6.82581">
        <ele>589.8</ele>
        <time>2022-06-26T07:04:03Z</time>
      </trkpt>
      <trkpt lat="48.02829" lon="6.82605">
        <ele>590.2</ele>
        <time>2022-06-26T07:04:08Z</time>
      </trkpt>
      <trkpt lat="48.02825" lon="6.82626">
        <ele>590.4</ele>
        <time>2022-06-26T07:04:12Z</time>
      </trkpt>
      <trkpt lat="48.02824" lon="6.82662">
        <ele>590.8</ele>
        <time>2022-06-26T07:04:19Z</time>
      </trkpt>
      <trkpt lat="48.02828" lon="6.8268">
        <ele>591.2</ele>
        <time>2022-06-26T07:04:23Z</time>
      </trkpt>
      <trkpt lat="48.02829" lon="6.82685">
        <ele>591.4</ele>
        <time>2022-06-26T07:04:24Z</time>
      </trkpt>
      <trkpt lat="48.02831" lon="6.82689">
        <ele>591.4</ele>
        <time>2022-06-26T07:04:25Z</time>
      </trkpt>
      <trkpt lat="48.02832" lon="6.82694">
        <ele>591.6</ele>
        <time>2022-06-26T07:04:26Z</time>
      </trkpt>
      <trkpt lat="48.02835" lon="6.82707">
        <ele>591.8</ele>
        <time>2022-06-26T07:04:29Z</time>
      </trkpt>
      <trkpt lat="48.02836" lon="6.82712">
        <ele>591.8</ele>
        <time>2022-06-26T07:04:30Z</time>
      </trkpt>
      <trkpt lat="48.02837" lon="6.82716">
        <ele>591.8</ele>
        <time>2022-06-26T07:04:31Z</time>
      </trkpt>
      <trkpt lat="48.02839" lon="6.82721">
        <ele>591.8</ele>
        <time>2022-06-26T07:04:32Z</time>
      </trkpt>
      <trkpt lat="48.02841" lon="6.82725">
        <ele>592</ele>
        <time>2022-06-26T07:04:33Z</time>
      </trkpt>
      <trkpt lat="48.02842" lon="6.82729">
        <ele>592.2</ele>
        <time>2022-06-26T07:04:34Z</time>
      </trkpt>
      <trkpt lat="48.02845" lon="6.82737">
        <ele>592.6</ele>
        <time>2022-06-26T07:04:36Z</time>
      </trkpt>
      <trkpt lat="48.02847" lon="6.82743">
        <ele>593</ele>
        <time>2022-06-26T07:04:38Z</time>
      </trkpt>
      <trkpt lat="48.02849" lon="6.82748">
        <ele>593.2</ele>
        <time>2022-06-26T07:04:39Z</time>
      </trkpt>
      <trkpt lat="48.0285" lon="6.82752">
        <ele>593.4</ele>
        <time>2022-06-26T07:04:40Z</time>
      </trkpt>
      <trkpt lat="48.02851" lon="6.8276">
        <ele>593.6</ele>
        <time>2022-06-26T07:04:42Z</time>
      </trkpt>
      <trkpt lat="48.02853" lon="6.82765">
        <ele>593.8</ele>
        <time>2022-06-26T07:04:43Z</time>
      </trkpt>
      <trkpt lat="48.02855" lon="6.82769">
        <ele>593.8</ele>
        <time>2022-06-26T07:04:44Z</time>
      </trkpt>
      <trkpt lat="48.02857" lon="6.82775">
        <ele>594</ele>
        <time>2022-06-26T07:04:45Z</time>
      </trkpt>
      <trkpt lat="48.02858" lon="6.8278">
        <ele>594.2</ele>
        <time>2022-06-26T07:04:46Z</time>
      </trkpt>
      <trkpt lat="48.02857" lon="6.82785">
        <ele>594.2</ele>
        <time>2022-06-26T07:04:47Z</time>
      </trkpt>
      <trkpt lat="48.02857" lon="6.8279">
        <ele>594.4</ele>
        <time>2022-06-26T07:04:48Z</time>
      </trkpt>
      <trkpt lat="48.02858" lon="6.82796">
        <ele>594.4</ele>
        <time>2022-06-26T07:04:49Z</time>
      </trkpt>
      <trkpt lat="48.02859" lon="6.82801">
        <ele>594.4</ele>
        <time>2022-06-26T07:04:50Z</time>
      </trkpt>
      <trkpt lat="48.0286" lon="6.82806">
        <ele>594.6</ele>
        <time>2022-06-26T07:04:51Z</time>
      </trkpt>
      <trkpt lat="48.02861" lon="6.82811">
        <ele>594.6</ele>
        <time>2022-06-26T07:04:52Z</time>
      </trkpt>
      <trkpt lat="48.02861" lon="6.82815">
        <ele>594.6</ele>
        <time>2022-06-26T07:04:53Z</time>
      </trkpt>
      <trkpt lat="48.02862" lon="6.8282">
        <ele>594.6</ele>
        <time>2022-06-26T07:04:54Z</time>
      </trkpt>
      <trkpt lat="48.02862" lon="6.82825">
        <ele>594.8</ele>
        <time>2022-06-26T07:04:55Z</time>
      </trkpt>
      <trkpt lat="48.02863" lon="6.82829">
        <ele>595</ele>
        <time>2022-06-26T07:04:56Z</time>
      </trkpt>
      <trkpt lat="48.02864" lon="6.82834">
        <ele>595</ele>
        <time>2022-06-26T07:04:57Z</time>
      </trkpt>
      <trkpt lat="48.02864" lon="6.82839">
        <ele>595.2</ele>
        <time>2022-06-26T07:04:58Z</time>
      </trkpt>
      <trkpt lat="48.02865" lon="6.82844">
        <ele>595.2</ele>
        <time>2022-06-26T07:04:59Z</time>
      </trkpt>
      <trkpt lat="48.02866" lon="6.82849">
        <ele>595.4</ele>
        <time>2022-06-26T07:05:00Z</time>
      </trkpt>
      <trkpt lat="48.02867" lon="6.82854">
        <ele>595.4</ele>
        <time>2022-06-26T07:05:01Z</time>
      </trkpt>
      <trkpt lat="48.02868" lon="6.82859">
        <ele>595.6</ele>
        <time>2022-06-26T07:05:02Z</time>
      </trkpt>
      <trkpt lat="48.02869" lon="6.82864">
        <ele>595.6</ele>
        <time>2022-06-26T07:05:03Z</time>
      </trkpt>
      <trkpt lat="48.02869" lon="6.8287">
        <ele>595.6</ele>
        <time>2022-06-26T07:05:04Z</time>
      </trkpt>
      <trkpt lat="48.0287" lon="6.82875">
        <ele>595.8</ele>
        <time>2022-06-26T07:05:05Z</time>
      </trkpt>
      <trkpt lat="48.02871" lon="6.8288">
        <ele>595.8</ele>
        <time>2022-06-26T07:05:06Z</time>
      </trkpt>
      <trkpt lat="48.02872" lon="6.82886">
        <ele>596</ele>
        <time>2022-06-26T07:05:07Z</time>
      </trkpt>
      <trkpt lat="48.02872" lon="6.82891">
        <ele>596</ele>
        <time>2022-06-26T07:05:08Z</time>
      </trkpt>
      <trkpt lat="48.02873" lon="6.82896">
        <ele>596.2</ele>
        <time>2022-06-26T07:05:09Z</time>
      </trkpt>
      <trkpt lat="48.02878" lon="6.82926">
        <ele>596.6</ele>
        <time>2022-06-26T07:05:15Z</time>
      </trkpt>
      <trkpt lat="48.02879" lon="6.82931">
        <ele>596.6</ele>
        <time>2022-06-26T07:05:16Z</time>
      </trkpt>
      <trkpt lat="48.0288" lon="6.82936">
        <ele>596.8</ele>
        <time>2022-06-26T07:05:17Z</time>
      </trkpt>
      <trkpt lat="48.02884" lon="6.82954">
        <ele>596.8</ele>
        <time>2022-06-26T07:05:21Z</time>
      </trkpt>
      <trkpt lat="48.02884" lon="6.82959">
        <ele>597</ele>
        <time>2022-06-26T07:05:22Z</time>
      </trkpt>
      <trkpt lat="48.02885" lon="6.82963">
        <ele>597</ele>
        <time>2022-06-26T07:05:23Z</time>
      </trkpt>
      <trkpt lat="48.02886" lon="6.82967">
        <ele>597.2</ele>
        <time>2022-06-26T07:05:24Z</time>
      </trkpt>
      <trkpt lat="48.02887" lon="6.82971">
        <ele>597.4</ele>
        <time>2022-06-26T07:05:25Z</time>
      </trkpt>
      <trkpt lat="48.02888" lon="6.82989">
        <ele>597.6</ele>
        <time>2022-06-26T07:05:29Z</time>
      </trkpt>
      <trkpt lat="48.02889" lon="6.82994">
        <ele>597.6</ele>
        <time>2022-06-26T07:05:30Z</time>
      </trkpt>
      <trkpt lat="48.0289" lon="6.83">
        <ele>597.6</ele>
        <time>2022-06-26T07:05:31Z</time>
      </trkpt>
      <trkpt lat="48.02894" lon="6.8302">
        <ele>597.8</ele>
        <time>2022-06-26T07:05:35Z</time>
      </trkpt>
      <trkpt lat="48.02895" lon="6.8303">
        <ele>597.6</ele>
        <time>2022-06-26T07:05:37Z</time>
      </trkpt>
      <trkpt lat="48.02896" lon="6.83036">
        <ele>597.6</ele>
        <time>2022-06-26T07:05:38Z</time>
      </trkpt>
      <trkpt lat="48.02897" lon="6.83053">
        <ele>597.8</ele>
        <time>2022-06-26T07:05:41Z</time>
      </trkpt>
      <trkpt lat="48.02896" lon="6.83064">
        <ele>597.8</ele>
        <time>2022-06-26T07:05:43Z</time>
      </trkpt>
      <trkpt lat="48.02896" lon="6.83081">
        <ele>597.8</ele>
        <time>2022-06-26T07:05:46Z</time>
      </trkpt>
      <trkpt lat="48.02898" lon="6.83095">
        <ele>598</ele>
        <time>2022-06-26T07:05:48Z</time>
      </trkpt>
      <trkpt lat="48.02899" lon="6.8311">
        <ele>598</ele>
        <time>2022-06-26T07:05:50Z</time>
      </trkpt>
      <trkpt lat="48.029" lon="6.83117">
        <ele>598</ele>
        <time>2022-06-26T07:05:51Z</time>
      </trkpt>
      <trkpt lat="48.02901" lon="6.83124">
        <ele>597.8</ele>
        <time>2022-06-26T07:05:52Z</time>
      </trkpt>
      <trkpt lat="48.02903" lon="6.83131">
        <ele>597.8</ele>
        <time>2022-06-26T07:05:53Z</time>
      </trkpt>
      <trkpt lat="48.02908" lon="6.83149">
        <ele>597.6</ele>
        <time>2022-06-26T07:05:56Z</time>
      </trkpt>
      <trkpt lat="48.02912" lon="6.8316">
        <ele>597.4</ele>
        <time>2022-06-26T07:05:58Z</time>
      </trkpt>
      <trkpt lat="48.02914" lon="6.83166">
        <ele>597.4</ele>
        <time>2022-06-26T07:05:59Z</time>
      </trkpt>
      <trkpt lat="48.02915" lon="6.83172">
        <ele>597.4</ele>
        <time>2022-06-26T07:06:00Z</time>
      </trkpt>
      <trkpt lat="48.02917" lon="6.83178">
        <ele>597.4</ele>
        <time>2022-06-26T07:06:01Z</time>
      </trkpt>
      <trkpt lat="48.02922" lon="6.83188">
        <ele>597.4</ele>
        <time>2022-06-26T07:06:03Z</time>
      </trkpt>
      <trkpt lat="48.02924" lon="6.83194">
        <ele>597.4</ele>
        <time>2022-06-26T07:06:04Z</time>
      </trkpt>
      <trkpt lat="48.02927" lon="6.832">
        <ele>597.4</ele>
        <time>2022-06-26T07:06:05Z</time>
      </trkpt>
      <trkpt lat="48.02929" lon="6.83205">
        <ele>597.4</ele>
        <time>2022-06-26T07:06:06Z</time>
      </trkpt>
      <trkpt lat="48.02932" lon="6.8321">
        <ele>597.4</ele>
        <time>2022-06-26T07:06:07Z</time>
      </trkpt>
      <trkpt lat="48.02934" lon="6.83215">
        <ele>597.8</ele>
        <time>2022-06-26T07:06:08Z</time>
      </trkpt>
      <trkpt lat="48.02936" lon="6.83219">
        <ele>597.8</ele>
        <time>2022-06-26T07:06:09Z</time>
      </trkpt>
      <trkpt lat="48.02939" lon="6.83224">
        <ele>598</ele>
        <time>2022-06-26T07:06:10Z</time>
      </trkpt>
      <trkpt lat="48.02941" lon="6.83228">
        <ele>598</ele>
        <time>2022-06-26T07:06:11Z</time>
      </trkpt>
      <trkpt lat="48.02944" lon="6.83232">
        <ele>598</ele>
        <time>2022-06-26T07:06:12Z</time>
      </trkpt>
      <trkpt lat="48.02947" lon="6.83237">
        <ele>598.2</ele>
        <time>2022-06-26T07:06:13Z</time>
      </trkpt>
      <trkpt lat="48.02955" lon="6.83269">
        <ele>598.6</ele>
        <time>2022-06-26T07:06:19Z</time>
      </trkpt>
      <trkpt lat="48.02956" lon="6.83274">
        <ele>598.6</ele>
        <time>2022-06-26T07:06:20Z</time>
      </trkpt>
      <trkpt lat="48.02957" lon="6.83279">
        <ele>598.8</ele>
        <time>2022-06-26T07:06:21Z</time>
      </trkpt>
      <trkpt lat="48.02961" lon="6.83299">
        <ele>599</ele>
        <time>2022-06-26T07:06:25Z</time>
      </trkpt>
      <trkpt lat="48.02963" lon="6.83304">
        <ele>599</ele>
        <time>2022-06-26T07:06:26Z</time>
      </trkpt>
      <trkpt lat="48.02965" lon="6.83314">
        <ele>599.2</ele>
        <time>2022-06-26T07:06:28Z</time>
      </trkpt>
      <trkpt lat="48.02972" lon="6.83361">
        <ele>600.2</ele>
        <time>2022-06-26T07:06:37Z</time>
      </trkpt>
      <trkpt lat="48.02981" lon="6.83408">
        <ele>600.6</ele>
        <time>2022-06-26T07:06:46Z</time>
      </trkpt>
      <trkpt lat="48.0299" lon="6.83436">
        <ele>600.8</ele>
        <time>2022-06-26T07:06:52Z</time>
      </trkpt>
      <trkpt lat="48.02991" lon="6.8344">
        <ele>601</ele>
        <time>2022-06-26T07:06:53Z</time>
      </trkpt>
      <trkpt lat="48.02992" lon="6.83445">
        <ele>601.2</ele>
        <time>2022-06-26T07:06:54Z</time>
      </trkpt>
      <trkpt lat="48.02995" lon="6.83454">
        <ele>601.6</ele>
        <time>2022-06-26T07:06:56Z</time>
      </trkpt>
      <trkpt lat="48.03002" lon="6.83484">
        <ele>602.2</ele>
        <time>2022-06-26T07:07:02Z</time>
      </trkpt>
      <trkpt lat="48.03003" lon="6.83493">
        <ele>602.4</ele>
        <time>2022-06-26T07:07:04Z</time>
      </trkpt>
      <trkpt lat="48.03005" lon="6.83506">
        <ele>602.4</ele>
        <time>2022-06-26T07:07:07Z</time>
      </trkpt>
      <trkpt lat="48.03006" lon="6.8351">
        <ele>602.6</ele>
        <time>2022-06-26T07:07:08Z</time>
      </trkpt>
      <trkpt lat="48.03007" lon="6.83514">
        <ele>602.8</ele>
        <time>2022-06-26T07:07:09Z</time>
      </trkpt>
      <trkpt lat="48.03009" lon="6.83518">
        <ele>602.8</ele>
        <time>2022-06-26T07:07:10Z</time>
      </trkpt>
      <trkpt lat="48.0301" lon="6.83522">
        <ele>603</ele>
        <time>2022-06-26T07:07:11Z</time>
      </trkpt>
      <trkpt lat="48.03012" lon="6.83531">
        <ele>603</ele>
        <time>2022-06-26T07:07:13Z</time>
      </trkpt>
      <trkpt lat="48.03014" lon="6.83535">
        <ele>603</ele>
        <time>2022-06-26T07:07:14Z</time>
      </trkpt>
      <trkpt lat="48.03014" lon="6.8354">
        <ele>602.8</ele>
        <time>2022-06-26T07:07:15Z</time>
      </trkpt>
      <trkpt lat="48.03015" lon="6.83544">
        <ele>603</ele>
        <time>2022-06-26T07:07:16Z</time>
      </trkpt>
      <trkpt lat="48.03016" lon="6.83548">
        <ele>603</ele>
        <time>2022-06-26T07:07:17Z</time>
      </trkpt>
      <trkpt lat="48.03017" lon="6.83552">
        <ele>603.2</ele>
        <time>2022-06-26T07:07:18Z</time>
      </trkpt>
      <trkpt lat="48.03019" lon="6.83555">
        <ele>603.2</ele>
        <time>2022-06-26T07:07:19Z</time>
      </trkpt>
      <trkpt lat="48.0302" lon="6.8356">
        <ele>603.2</ele>
        <time>2022-06-26T07:07:20Z</time>
      </trkpt>
      <trkpt lat="48.03025" lon="6.83585">
        <ele>603.2</ele>
        <time>2022-06-26T07:07:25Z</time>
      </trkpt>
      <trkpt lat="48.0303" lon="6.83617">
        <ele>603.2</ele>
        <time>2022-06-26T07:07:30Z</time>
      </trkpt>
      <trkpt lat="48.03031" lon="6.83623">
        <ele>603.2</ele>
        <time>2022-06-26T07:07:31Z</time>
      </trkpt>
      <trkpt lat="48.03033" lon="6.83629">
        <ele>603</ele>
        <time>2022-06-26T07:07:32Z</time>
      </trkpt>
      <trkpt lat="48.03035" lon="6.83644">
        <ele>602.6</ele>
        <time>2022-06-26T07:07:34Z</time>
      </trkpt>
      <trkpt lat="48.03036" lon="6.83652">
        <ele>602.4</ele>
        <time>2022-06-26T07:07:35Z</time>
      </trkpt>
      <trkpt lat="48.03037" lon="6.83659">
        <ele>601.8</ele>
        <time>2022-06-26T07:07:36Z</time>
      </trkpt>
      <trkpt lat="48.0304" lon="6.83668">
        <ele>601.6</ele>
        <time>2022-06-26T07:07:37Z</time>
      </trkpt>
      <trkpt lat="48.03045" lon="6.83694">
        <ele>600.8</ele>
        <time>2022-06-26T07:07:40Z</time>
      </trkpt>
      <trkpt lat="48.03045" lon="6.83703">
        <ele>600.6</ele>
        <time>2022-06-26T07:07:41Z</time>
      </trkpt>
      <trkpt lat="48.03047" lon="6.83725">
        <ele>600</ele>
        <time>2022-06-26T07:07:43Z</time>
      </trkpt>
      <trkpt lat="48.0305" lon="6.83746">
        <ele>599.6</ele>
        <time>2022-06-26T07:07:45Z</time>
      </trkpt>
      <trkpt lat="48.03051" lon="6.8376">
        <ele>599.4</ele>
        <time>2022-06-26T07:07:47Z</time>
      </trkpt>
      <trkpt lat="48.03052" lon="6.83768">
        <ele>599.4</ele>
        <time>2022-06-26T07:07:48Z</time>
      </trkpt>
      <trkpt lat="48.03054" lon="6.83774">
        <ele>599.2</ele>
        <time>2022-06-26T07:07:49Z</time>
      </trkpt>
      <trkpt lat="48.03057" lon="6.8378">
        <ele>598.6</ele>
        <time>2022-06-26T07:07:50Z</time>
      </trkpt>
      <trkpt lat="48.03064" lon="6.83788">
        <ele>598.4</ele>
        <time>2022-06-26T07:07:51Z</time>
      </trkpt>
      <trkpt lat="48.03068" lon="6.83795">
        <ele>598</ele>
        <time>2022-06-26T07:07:52Z</time>
      </trkpt>
      <trkpt lat="48.03072" lon="6.83816">
        <ele>597.8</ele>
        <time>2022-06-26T07:07:54Z</time>
      </trkpt>
      <trkpt lat="48.03073" lon="6.83824">
        <ele>597.6</ele>
        <time>2022-06-26T07:07:55Z</time>
      </trkpt>
      <trkpt lat="48.03073" lon="6.8383">
        <ele>597.4</ele>
        <time>2022-06-26T07:07:56Z</time>
      </trkpt>
      <trkpt lat="48.03072" lon="6.83837">
        <ele>597.2</ele>
        <time>2022-06-26T07:07:57Z</time>
      </trkpt>
      <trkpt lat="48.03072" lon="6.83843">
        <ele>596.6</ele>
        <time>2022-06-26T07:07:58Z</time>
      </trkpt>
      <trkpt lat="48.03071" lon="6.83851">
        <ele>596.4</ele>
        <time>2022-06-26T07:07:59Z</time>
      </trkpt>
      <trkpt lat="48.03069" lon="6.83861">
        <ele>596.4</ele>
        <time>2022-06-26T07:08:00Z</time>
      </trkpt>
      <trkpt lat="48.03069" lon="6.83868">
        <ele>596.2</ele>
        <time>2022-06-26T07:08:01Z</time>
      </trkpt>
      <trkpt lat="48.0307" lon="6.83876">
        <ele>596.2</ele>
        <time>2022-06-26T07:08:02Z</time>
      </trkpt>
      <trkpt lat="48.0307" lon="6.83883">
        <ele>596</ele>
        <time>2022-06-26T07:08:03Z</time>
      </trkpt>
      <trkpt lat="48.03069" lon="6.83888">
        <ele>595.8</ele>
        <time>2022-06-26T07:08:04Z</time>
      </trkpt>
      <trkpt lat="48.03071" lon="6.83898">
        <ele>595.6</ele>
        <time>2022-06-26T07:08:05Z</time>
      </trkpt>
      <trkpt lat="48.03071" lon="6.83906">
        <ele>595.6</ele>
        <time>2022-06-26T07:08:06Z</time>
      </trkpt>
      <trkpt lat="48.03069" lon="6.83928">
        <ele>595.6</ele>
        <time>2022-06-26T07:08:09Z</time>
      </trkpt>
      <trkpt lat="48.03066" lon="6.83945">
        <ele>595.6</ele>
        <time>2022-06-26T07:08:12Z</time>
      </trkpt>
      <trkpt lat="48.03065" lon="6.8395">
        <ele>595.6</ele>
        <time>2022-06-26T07:08:13Z</time>
      </trkpt>
      <trkpt lat="48.03064" lon="6.83957">
        <ele>595.8</ele>
        <time>2022-06-26T07:08:14Z</time>
      </trkpt>
      <trkpt lat="48.03064" lon="6.83962">
        <ele>595.8</ele>
        <time>2022-06-26T07:08:15Z</time>
      </trkpt>
      <trkpt lat="48.03063" lon="6.83967">
        <ele>596.2</ele>
        <time>2022-06-26T07:08:16Z</time>
      </trkpt>
      <trkpt lat="48.03062" lon="6.83971">
        <ele>596.6</ele>
        <time>2022-06-26T07:08:17Z</time>
      </trkpt>
      <trkpt lat="48.0306" lon="6.83976">
        <ele>596.8</ele>
        <time>2022-06-26T07:08:18Z</time>
      </trkpt>
      <trkpt lat="48.03059" lon="6.83981">
        <ele>597.2</ele>
        <time>2022-06-26T07:08:19Z</time>
      </trkpt>
      <trkpt lat="48.03059" lon="6.83985">
        <ele>597.4</ele>
        <time>2022-06-26T07:08:20Z</time>
      </trkpt>
      <trkpt lat="48.0306" lon="6.83989">
        <ele>597.4</ele>
        <time>2022-06-26T07:08:21Z</time>
      </trkpt>
      <trkpt lat="48.03061" lon="6.83992">
        <ele>597.6</ele>
        <time>2022-06-26T07:08:22Z</time>
      </trkpt>
      <trkpt lat="48.03063" lon="6.83998">
        <ele>597.6</ele>
        <time>2022-06-26T07:08:23Z</time>
      </trkpt>
      <trkpt lat="48.03063" lon="6.84011">
        <ele>598.2</ele>
        <time>2022-06-26T07:08:26Z</time>
      </trkpt>
      <trkpt lat="48.03063" lon="6.84015">
        <ele>598.2</ele>
        <time>2022-06-26T07:08:27Z</time>
      </trkpt>
      <trkpt lat="48.03063" lon="6.84018">
        <ele>598.4</ele>
        <time>2022-06-26T07:08:28Z</time>
      </trkpt>
      <trkpt lat="48.03062" lon="6.84022">
        <ele>598.6</ele>
        <time>2022-06-26T07:08:29Z</time>
      </trkpt>
      <trkpt lat="48.03061" lon="6.84026">
        <ele>598.6</ele>
        <time>2022-06-26T07:08:30Z</time>
      </trkpt>
      <trkpt lat="48.0306" lon="6.84036">
        <ele>599.2</ele>
        <time>2022-06-26T07:08:33Z</time>
      </trkpt>
      <trkpt lat="48.03059" lon="6.84039">
        <ele>599.4</ele>
        <time>2022-06-26T07:08:34Z</time>
      </trkpt>
      <trkpt lat="48.03059" lon="6.84042">
        <ele>599.4</ele>
        <time>2022-06-26T07:08:35Z</time>
      </trkpt>
      <trkpt lat="48.03058" lon="6.84045">
        <ele>599.6</ele>
        <time>2022-06-26T07:08:36Z</time>
      </trkpt>
      <trkpt lat="48.03058" lon="6.84047">
        <ele>599.6</ele>
        <time>2022-06-26T07:08:37Z</time>
      </trkpt>
      <trkpt lat="48.03057" lon="6.8405">
        <ele>599.6</ele>
        <time>2022-06-26T07:08:38Z</time>
      </trkpt>
      <trkpt lat="48.03057" lon="6.84051">
        <ele>599.8</ele>
        <time>2022-06-26T07:08:39Z</time>
      </trkpt>
      <trkpt lat="48.03057" lon="6.84052">
        <ele>599.6</ele>
        <time>2022-06-26T07:08:40Z</time>
      </trkpt>
      <trkpt lat="48.03056" lon="6.84055">
        <ele>599.8</ele>
        <time>2022-06-26T07:08:41Z</time>
      </trkpt>
      <trkpt lat="48.03055" lon="6.84057">
        <ele>600</ele>
        <time>2022-06-26T07:08:42Z</time>
      </trkpt>
      <trkpt lat="48.03054" lon="6.8406">
        <ele>600.2</ele>
        <time>2022-06-26T07:08:43Z</time>
      </trkpt>
      <trkpt lat="48.03054" lon="6.84063">
        <ele>600.4</ele>
        <time>2022-06-26T07:08:44Z</time>
      </trkpt>
      <trkpt lat="48.03054" lon="6.84066">
        <ele>600.6</ele>
        <time>2022-06-26T07:08:45Z</time>
      </trkpt>
      <trkpt lat="48.03055" lon="6.84069">
        <ele>600.6</ele>
        <time>2022-06-26T07:08:46Z</time>
      </trkpt>
      <trkpt lat="48.03055" lon="6.84074">
        <ele>600.6</ele>
        <time>2022-06-26T07:08:47Z</time>
      </trkpt>
      <trkpt lat="48.03055" lon="6.84077">
        <ele>600.8</ele>
        <time>2022-06-26T07:08:48Z</time>
      </trkpt>
      <trkpt lat="48.03055" lon="6.8408">
        <ele>600.8</ele>
        <time>2022-06-26T07:08:49Z</time>
      </trkpt>
      <trkpt lat="48.03054" lon="6.84084">
        <ele>601</ele>
        <time>2022-06-26T07:08:50Z</time>
      </trkpt>
      <trkpt lat="48.03055" lon="6.84087">
        <ele>601</ele>
        <time>2022-06-26T07:08:51Z</time>
      </trkpt>
      <trkpt lat="48.03055" lon="6.8409">
        <ele>601</ele>
        <time>2022-06-26T07:08:52Z</time>
      </trkpt>
      <trkpt lat="48.03055" lon="6.84093">
        <ele>601.2</ele>
        <time>2022-06-26T07:08:53Z</time>
      </trkpt>
      <trkpt lat="48.03055" lon="6.84096">
        <ele>601.4</ele>
        <time>2022-06-26T07:08:54Z</time>
      </trkpt>
      <trkpt lat="48.03055" lon="6.84099">
        <ele>601.6</ele>
        <time>2022-06-26T07:08:55Z</time>
      </trkpt>
      <trkpt lat="48.03056" lon="6.84102">
        <ele>601.8</ele>
        <time>2022-06-26T07:08:56Z</time>
      </trkpt>
      <trkpt lat="48.03057" lon="6.84105">
        <ele>602</ele>
        <time>2022-06-26T07:08:57Z</time>
      </trkpt>
      <trkpt lat="48.03057" lon="6.84108">
        <ele>602.2</ele>
        <time>2022-06-26T07:08:58Z</time>
      </trkpt>
      <trkpt lat="48.03058" lon="6.84111">
        <ele>602.4</ele>
        <time>2022-06-26T07:08:59Z</time>
      </trkpt>
      <trkpt lat="48.03058" lon="6.84114">
        <ele>602.4</ele>
        <time>2022-06-26T07:09:00Z</time>
      </trkpt>
      <trkpt lat="48.03056" lon="6.8412">
        <ele>602.6</ele>
        <time>2022-06-26T07:09:01Z</time>
      </trkpt>
      <trkpt lat="48.03056" lon="6.84125">
        <ele>602.8</ele>
        <time>2022-06-26T07:09:02Z</time>
      </trkpt>
      <trkpt lat="48.03055" lon="6.84129">
        <ele>603</ele>
        <time>2022-06-26T07:09:03Z</time>
      </trkpt>
      <trkpt lat="48.03054" lon="6.84133">
        <ele>603.2</ele>
        <time>2022-06-26T07:09:04Z</time>
      </trkpt>
      <trkpt lat="48.03053" lon="6.84135">
        <ele>603.2</ele>
        <time>2022-06-26T07:09:05Z</time>
      </trkpt>
      <trkpt lat="48.03052" lon="6.84137">
        <ele>603.4</ele>
        <time>2022-06-26T07:09:06Z</time>
      </trkpt>
      <trkpt lat="48.03051" lon="6.8414">
        <ele>603.4</ele>
        <time>2022-06-26T07:09:07Z</time>
      </trkpt>
      <trkpt lat="48.0305" lon="6.84146">
        <ele>603.6</ele>
        <time>2022-06-26T07:09:08Z</time>
      </trkpt>
      <trkpt lat="48.03052" lon="6.84152">
        <ele>603.6</ele>
        <time>2022-06-26T07:09:09Z</time>
      </trkpt>
      <trkpt lat="48.03053" lon="6.84157">
        <ele>603.8</ele>
        <time>2022-06-26T07:09:10Z</time>
      </trkpt>
      <trkpt lat="48.03053" lon="6.84162">
        <ele>603.8</ele>
        <time>2022-06-26T07:09:11Z</time>
      </trkpt>
      <trkpt lat="48.03053" lon="6.84165">
        <ele>604</ele>
        <time>2022-06-26T07:09:12Z</time>
      </trkpt>
      <trkpt lat="48.03054" lon="6.84167">
        <ele>604.2</ele>
        <time>2022-06-26T07:09:13Z</time>
      </trkpt>
      <trkpt lat="48.03055" lon="6.84169">
        <ele>604.2</ele>
        <time>2022-06-26T07:09:14Z</time>
      </trkpt>
      <trkpt lat="48.03053" lon="6.84172">
        <ele>604.4</ele>
        <time>2022-06-26T07:09:15Z</time>
      </trkpt>
      <trkpt lat="48.03054" lon="6.84175">
        <ele>604.4</ele>
        <time>2022-06-26T07:09:16Z</time>
      </trkpt>
      <trkpt lat="48.03055" lon="6.8418">
        <ele>604.6</ele>
        <time>2022-06-26T07:09:17Z</time>
      </trkpt>
      <trkpt lat="48.03054" lon="6.84184">
        <ele>604.6</ele>
        <time>2022-06-26T07:09:18Z</time>
      </trkpt>
      <trkpt lat="48.03054" lon="6.84188">
        <ele>604.6</ele>
        <time>2022-06-26T07:09:19Z</time>
      </trkpt>
      <trkpt lat="48.03055" lon="6.84192">
        <ele>604.8</ele>
        <time>2022-06-26T07:09:20Z</time>
      </trkpt>
      <trkpt lat="48.03055" lon="6.842">
        <ele>605</ele>
        <time>2022-06-26T07:09:21Z</time>
      </trkpt>
      <trkpt lat="48.03055" lon="6.84206">
        <ele>605</ele>
        <time>2022-06-26T07:09:22Z</time>
      </trkpt>
      <trkpt lat="48.03053" lon="6.84209">
        <ele>605.2</ele>
        <time>2022-06-26T07:09:23Z</time>
      </trkpt>
      <trkpt lat="48.03054" lon="6.84211">
        <ele>605.2</ele>
        <time>2022-06-26T07:09:24Z</time>
      </trkpt>
      <trkpt lat="48.03055" lon="6.84217">
        <ele>605.4</ele>
        <time>2022-06-26T07:09:25Z</time>
      </trkpt>
      <trkpt lat="48.03055" lon="6.84221">
        <ele>605.4</ele>
        <time>2022-06-26T07:09:26Z</time>
      </trkpt>
      <trkpt lat="48.03055" lon="6.84222">
        <ele>605.6</ele>
        <time>2022-06-26T07:09:27Z</time>
      </trkpt>
      <trkpt lat="48.03055" lon="6.84223">
        <ele>605.6</ele>
        <time>2022-06-26T07:09:28Z</time>
      </trkpt>
      <trkpt lat="48.03055" lon="6.84225">
        <ele>605.8</ele>
        <time>2022-06-26T07:09:29Z</time>
      </trkpt>
      <trkpt lat="48.03056" lon="6.84228">
        <ele>606</ele>
        <time>2022-06-26T07:09:30Z</time>
      </trkpt>
      <trkpt lat="48.03057" lon="6.84231">
        <ele>606</ele>
        <time>2022-06-26T07:09:31Z</time>
      </trkpt>
      <trkpt lat="48.03057" lon="6.84233">
        <ele>606</ele>
        <time>2022-06-26T07:09:32Z</time>
      </trkpt>
      <trkpt lat="48.03057" lon="6.84235">
        <ele>606.4</ele>
        <time>2022-06-26T07:09:33Z</time>
      </trkpt>
      <trkpt lat="48.03057" lon="6.84237">
        <ele>606.4</ele>
        <time>2022-06-26T07:09:34Z</time>
      </trkpt>
      <trkpt lat="48.03056" lon="6.84238">
        <ele>606.4</ele>
        <time>2022-06-26T07:09:35Z</time>
      </trkpt>
      <trkpt lat="48.03055" lon="6.8424">
        <ele>606.8</ele>
        <time>2022-06-26T07:09:36Z</time>
      </trkpt>
      <trkpt lat="48.03054" lon="6.84244">
        <ele>606.8</ele>
        <time>2022-06-26T07:09:37Z</time>
      </trkpt>
      <trkpt lat="48.03055" lon="6.84247">
        <ele>607</ele>
        <time>2022-06-26T07:09:38Z</time>
      </trkpt>
      <trkpt lat="48.03055" lon="6.84249">
        <ele>607.2</ele>
        <time>2022-06-26T07:09:39Z</time>
      </trkpt>
      <trkpt lat="48.03055" lon="6.84252">
        <ele>607.4</ele>
        <time>2022-06-26T07:09:40Z</time>
      </trkpt>
      <trkpt lat="48.03055" lon="6.84256">
        <ele>607.6</ele>
        <time>2022-06-26T07:09:41Z</time>
      </trkpt>
      <trkpt lat="48.03056" lon="6.84258">
        <ele>607.8</ele>
        <time>2022-06-26T07:09:42Z</time>
      </trkpt>
      <trkpt lat="48.03056" lon="6.84261">
        <ele>608</ele>
        <time>2022-06-26T07:09:43Z</time>
      </trkpt>
      <trkpt lat="48.03056" lon="6.84263">
        <ele>608</ele>
        <time>2022-06-26T07:09:44Z</time>
      </trkpt>
      <trkpt lat="48.03055" lon="6.84266">
        <ele>608.2</ele>
        <time>2022-06-26T07:09:45Z</time>
      </trkpt>
      <trkpt lat="48.03055" lon="6.8427">
        <ele>608.4</ele>
        <time>2022-06-26T07:09:46Z</time>
      </trkpt>
      <trkpt lat="48.03055" lon="6.84273">
        <ele>608.6</ele>
        <time>2022-06-26T07:09:47Z</time>
      </trkpt>
      <trkpt lat="48.03054" lon="6.84275">
        <ele>608.8</ele>
        <time>2022-06-26T07:09:48Z</time>
      </trkpt>
      <trkpt lat="48.03054" lon="6.84278">
        <ele>608.8</ele>
        <time>2022-06-26T07:09:49Z</time>
      </trkpt>
      <trkpt lat="48.03053" lon="6.84281">
        <ele>609</ele>
        <time>2022-06-26T07:09:50Z</time>
      </trkpt>
      <trkpt lat="48.03051" lon="6.84286">
        <ele>609.2</ele>
        <time>2022-06-26T07:09:51Z</time>
      </trkpt>
      <trkpt lat="48.0305" lon="6.84291">
        <ele>609.2</ele>
        <time>2022-06-26T07:09:52Z</time>
      </trkpt>
      <trkpt lat="48.0305" lon="6.84294">
        <ele>609.2</ele>
        <time>2022-06-26T07:09:53Z</time>
      </trkpt>
      <trkpt lat="48.03051" lon="6.84298">
        <ele>609.4</ele>
        <time>2022-06-26T07:09:54Z</time>
      </trkpt>
      <trkpt lat="48.03052" lon="6.84302">
        <ele>609.4</ele>
        <time>2022-06-26T07:09:55Z</time>
      </trkpt>
      <trkpt lat="48.03051" lon="6.84307">
        <ele>609.6</ele>
        <time>2022-06-26T07:09:56Z</time>
      </trkpt>
      <trkpt lat="48.03053" lon="6.84312">
        <ele>609.6</ele>
        <time>2022-06-26T07:09:57Z</time>
      </trkpt>
      <trkpt lat="48.03054" lon="6.84315">
        <ele>609.8</ele>
        <time>2022-06-26T07:09:58Z</time>
      </trkpt>
      <trkpt lat="48.03055" lon="6.84318">
        <ele>610</ele>
        <time>2022-06-26T07:09:59Z</time>
      </trkpt>
      <trkpt lat="48.03057" lon="6.84321">
        <ele>610</ele>
        <time>2022-06-26T07:10:00Z</time>
      </trkpt>
      <trkpt lat="48.03059" lon="6.84324">
        <ele>610.2</ele>
        <time>2022-06-26T07:10:01Z</time>
      </trkpt>
      <trkpt lat="48.03059" lon="6.84328">
        <ele>610.2</ele>
        <time>2022-06-26T07:10:02Z</time>
      </trkpt>
      <trkpt lat="48.03059" lon="6.8433">
        <ele>610.2</ele>
        <time>2022-06-26T07:10:03Z</time>
      </trkpt>
      <trkpt lat="48.0306" lon="6.84333">
        <ele>610.4</ele>
        <time>2022-06-26T07:10:04Z</time>
      </trkpt>
      <trkpt lat="48.0306" lon="6.84337">
        <ele>610.6</ele>
        <time>2022-06-26T07:10:05Z</time>
      </trkpt>
      <trkpt lat="48.0306" lon="6.84339">
        <ele>610.6</ele>
        <time>2022-06-26T07:10:06Z</time>
      </trkpt>
      <trkpt lat="48.0306" lon="6.84341">
        <ele>610.8</ele>
        <time>2022-06-26T07:10:07Z</time>
      </trkpt>
      <trkpt lat="48.03061" lon="6.84344">
        <ele>611</ele>
        <time>2022-06-26T07:10:08Z</time>
      </trkpt>
      <trkpt lat="48.03061" lon="6.84347">
        <ele>611</ele>
        <time>2022-06-26T07:10:09Z</time>
      </trkpt>
      <trkpt lat="48.03061" lon="6.84349">
        <ele>611.2</ele>
        <time>2022-06-26T07:10:10Z</time>
      </trkpt>
      <trkpt lat="48.03062" lon="6.84351">
        <ele>611.2</ele>
        <time>2022-06-26T07:10:11Z</time>
      </trkpt>
      <trkpt lat="48.03062" lon="6.84353">
        <ele>611.6</ele>
        <time>2022-06-26T07:10:12Z</time>
      </trkpt>
      <trkpt lat="48.03063" lon="6.84355">
        <ele>611.8</ele>
        <time>2022-06-26T07:10:13Z</time>
      </trkpt>
      <trkpt lat="48.03064" lon="6.84357">
        <ele>612</ele>
        <time>2022-06-26T07:10:14Z</time>
      </trkpt>
      <trkpt lat="48.03064" lon="6.84359">
        <ele>612</ele>
        <time>2022-06-26T07:10:15Z</time>
      </trkpt>
      <trkpt lat="48.03065" lon="6.84361">
        <ele>612.4</ele>
        <time>2022-06-26T07:10:16Z</time>
      </trkpt>
      <trkpt lat="48.03066" lon="6.84363">
        <ele>612.6</ele>
        <time>2022-06-26T07:10:17Z</time>
      </trkpt>
      <trkpt lat="48.03067" lon="6.84365">
        <ele>612.4</ele>
        <time>2022-06-26T07:10:18Z</time>
      </trkpt>
      <trkpt lat="48.03067" lon="6.84367">
        <ele>612.8</ele>
        <time>2022-06-26T07:10:19Z</time>
      </trkpt>
      <trkpt lat="48.03068" lon="6.84369">
        <ele>612.8</ele>
        <time>2022-06-26T07:10:20Z</time>
      </trkpt>
      <trkpt lat="48.03069" lon="6.84371">
        <ele>613</ele>
        <time>2022-06-26T07:10:21Z</time>
      </trkpt>
      <trkpt lat="48.03069" lon="6.84372">
        <ele>613</ele>
        <time>2022-06-26T07:10:22Z</time>
      </trkpt>
      <trkpt lat="48.03069" lon="6.84374">
        <ele>613.2</ele>
        <time>2022-06-26T07:10:23Z</time>
      </trkpt>
      <trkpt lat="48.03069" lon="6.84376">
        <ele>613.2</ele>
        <time>2022-06-26T07:10:24Z</time>
      </trkpt>
      <trkpt lat="48.0307" lon="6.84378">
        <ele>613.4</ele>
        <time>2022-06-26T07:10:25Z</time>
      </trkpt>
      <trkpt lat="48.03071" lon="6.8438">
        <ele>613.6</ele>
        <time>2022-06-26T07:10:26Z</time>
      </trkpt>
      <trkpt lat="48.03072" lon="6.84381">
        <ele>614</ele>
        <time>2022-06-26T07:10:27Z</time>
      </trkpt>
      <trkpt lat="48.03071" lon="6.84384">
        <ele>614.2</ele>
        <time>2022-06-26T07:10:28Z</time>
      </trkpt>
      <trkpt lat="48.03071" lon="6.84386">
        <ele>614.2</ele>
        <time>2022-06-26T07:10:29Z</time>
      </trkpt>
      <trkpt lat="48.03072" lon="6.84388">
        <ele>614.4</ele>
        <time>2022-06-26T07:10:30Z</time>
      </trkpt>
      <trkpt lat="48.03073" lon="6.84391">
        <ele>614.6</ele>
        <time>2022-06-26T07:10:31Z</time>
      </trkpt>
      <trkpt lat="48.03074" lon="6.84394">
        <ele>614.8</ele>
        <time>2022-06-26T07:10:32Z</time>
      </trkpt>
      <trkpt lat="48.03075" lon="6.84396">
        <ele>615</ele>
        <time>2022-06-26T07:10:33Z</time>
      </trkpt>
      <trkpt lat="48.03075" lon="6.84398">
        <ele>615.2</ele>
        <time>2022-06-26T07:10:34Z</time>
      </trkpt>
      <trkpt lat="48.03076" lon="6.84401">
        <ele>615.4</ele>
        <time>2022-06-26T07:10:35Z</time>
      </trkpt>
      <trkpt lat="48.03076" lon="6.84403">
        <ele>615.6</ele>
        <time>2022-06-26T07:10:36Z</time>
      </trkpt>
      <trkpt lat="48.03077" lon="6.84405">
        <ele>615.8</ele>
        <time>2022-06-26T07:10:37Z</time>
      </trkpt>
      <trkpt lat="48.03077" lon="6.84407">
        <ele>616</ele>
        <time>2022-06-26T07:10:38Z</time>
      </trkpt>
      <trkpt lat="48.03078" lon="6.84409">
        <ele>616.2</ele>
        <time>2022-06-26T07:10:39Z</time>
      </trkpt>
      <trkpt lat="48.03079" lon="6.84411">
        <ele>616.4</ele>
        <time>2022-06-26T07:10:40Z</time>
      </trkpt>
      <trkpt lat="48.0308" lon="6.84414">
        <ele>616.6</ele>
        <time>2022-06-26T07:10:41Z</time>
      </trkpt>
      <trkpt lat="48.03081" lon="6.84417">
        <ele>616.8</ele>
        <time>2022-06-26T07:10:42Z</time>
      </trkpt>
      <trkpt lat="48.03081" lon="6.8442">
        <ele>616.8</ele>
        <time>2022-06-26T07:10:43Z</time>
      </trkpt>
      <trkpt lat="48.03081" lon="6.84422">
        <ele>617</ele>
        <time>2022-06-26T07:10:44Z</time>
      </trkpt>
      <trkpt lat="48.03081" lon="6.84426">
        <ele>617.2</ele>
        <time>2022-06-26T07:10:45Z</time>
      </trkpt>
      <trkpt lat="48.03082" lon="6.84428">
        <ele>617.4</ele>
        <time>2022-06-26T07:10:46Z</time>
      </trkpt>
      <trkpt lat="48.03082" lon="6.8443">
        <ele>617.4</ele>
        <time>2022-06-26T07:10:47Z</time>
      </trkpt>
      <trkpt lat="48.03083" lon="6.84433">
        <ele>617.8</ele>
        <time>2022-06-26T07:10:48Z</time>
      </trkpt>
      <trkpt lat="48.03084" lon="6.84434">
        <ele>617.8</ele>
        <time>2022-06-26T07:10:49Z</time>
      </trkpt>
      <trkpt lat="48.03084" lon="6.84436">
        <ele>618</ele>
        <time>2022-06-26T07:10:50Z</time>
      </trkpt>
      <trkpt lat="48.03084" lon="6.84438">
        <ele>618.2</ele>
        <time>2022-06-26T07:10:51Z</time>
      </trkpt>
      <trkpt lat="48.03084" lon="6.8444">
        <ele>618.4</ele>
        <time>2022-06-26T07:10:52Z</time>
      </trkpt>
      <trkpt lat="48.03085" lon="6.84442">
        <ele>618.6</ele>
        <time>2022-06-26T07:10:53Z</time>
      </trkpt>
      <trkpt lat="48.03085" lon="6.84445">
        <ele>618.6</ele>
        <time>2022-06-26T07:10:54Z</time>
      </trkpt>
      <trkpt lat="48.03085" lon="6.84447">
        <ele>618.8</ele>
        <time>2022-06-26T07:10:55Z</time>
      </trkpt>
      <trkpt lat="48.03084" lon="6.84448">
        <ele>618.8</ele>
        <time>2022-06-26T07:10:56Z</time>
      </trkpt>
      <trkpt lat="48.03084" lon="6.84449">
        <ele>619</ele>
        <time>2022-06-26T07:10:57Z</time>
      </trkpt>
      <trkpt lat="48.03084" lon="6.84451">
        <ele>619</ele>
        <time>2022-06-26T07:10:58Z</time>
      </trkpt>
      <trkpt lat="48.03084" lon="6.84453">
        <ele>619.4</ele>
        <time>2022-06-26T07:10:59Z</time>
      </trkpt>
      <trkpt lat="48.03084" lon="6.84455">
        <ele>619.4</ele>
        <time>2022-06-26T07:11:00Z</time>
      </trkpt>
      <trkpt lat="48.03084" lon="6.84457">
        <ele>619.6</ele>
        <time>2022-06-26T07:11:01Z</time>
      </trkpt>
      <trkpt lat="48.03084" lon="6.84459">
        <ele>619.8</ele>
        <time>2022-06-26T07:11:02Z</time>
      </trkpt>
      <trkpt lat="48.03083" lon="6.84462">
        <ele>619.8</ele>
        <time>2022-06-26T07:11:03Z</time>
      </trkpt>
      <trkpt lat="48.03083" lon="6.84463">
        <ele>620</ele>
        <time>2022-06-26T07:11:04Z</time>
      </trkpt>
      <trkpt lat="48.03083" lon="6.84465">
        <ele>620</ele>
        <time>2022-06-26T07:11:05Z</time>
      </trkpt>
      <trkpt lat="48.03083" lon="6.84469">
        <ele>620</ele>
        <time>2022-06-26T07:11:06Z</time>
      </trkpt>
      <trkpt lat="48.03082" lon="6.84472">
        <ele>620</ele>
        <time>2022-06-26T07:11:07Z</time>
      </trkpt>
      <trkpt lat="48.03081" lon="6.84475">
        <ele>620.2</ele>
        <time>2022-06-26T07:11:08Z</time>
      </trkpt>
      <trkpt lat="48.0308" lon="6.84478">
        <ele>620.4</ele>
        <time>2022-06-26T07:11:09Z</time>
      </trkpt>
      <trkpt lat="48.03078" lon="6.84482">
        <ele>620.4</ele>
        <time>2022-06-26T07:11:10Z</time>
      </trkpt>
      <trkpt lat="48.03076" lon="6.84484">
        <ele>620.6</ele>
        <time>2022-06-26T07:11:11Z</time>
      </trkpt>
      <trkpt lat="48.03076" lon="6.84487">
        <ele>620.8</ele>
        <time>2022-06-26T07:11:12Z</time>
      </trkpt>
      <trkpt lat="48.03076" lon="6.8449">
        <ele>621</ele>
        <time>2022-06-26T07:11:13Z</time>
      </trkpt>
      <trkpt lat="48.03075" lon="6.84492">
        <ele>621</ele>
        <time>2022-06-26T07:11:14Z</time>
      </trkpt>
      <trkpt lat="48.03075" lon="6.84494">
        <ele>621.2</ele>
        <time>2022-06-26T07:11:15Z</time>
      </trkpt>
      <trkpt lat="48.03075" lon="6.84496">
        <ele>621.2</ele>
        <time>2022-06-26T07:11:16Z</time>
      </trkpt>
      <trkpt lat="48.03076" lon="6.84498">
        <ele>621.4</ele>
        <time>2022-06-26T07:11:17Z</time>
      </trkpt>
      <trkpt lat="48.03076" lon="6.84499">
        <ele>621.4</ele>
        <time>2022-06-26T07:11:18Z</time>
      </trkpt>
      <trkpt lat="48.03076" lon="6.845">
        <ele>621.6</ele>
        <time>2022-06-26T07:11:19Z</time>
      </trkpt>
      <trkpt lat="48.03076" lon="6.84503">
        <ele>621.8</ele>
        <time>2022-06-26T07:11:20Z</time>
      </trkpt>
      <trkpt lat="48.03076" lon="6.84505">
        <ele>622</ele>
        <time>2022-06-26T07:11:21Z</time>
      </trkpt>
      <trkpt lat="48.03076" lon="6.84508">
        <ele>622.2</ele>
        <time>2022-06-26T07:11:22Z</time>
      </trkpt>
      <trkpt lat="48.03077" lon="6.84511">
        <ele>622.2</ele>
        <time>2022-06-26T07:11:23Z</time>
      </trkpt>
      <trkpt lat="48.03077" lon="6.84514">
        <ele>622.4</ele>
        <time>2022-06-26T07:11:24Z</time>
      </trkpt>
      <trkpt lat="48.03078" lon="6.84516">
        <ele>622.6</ele>
        <time>2022-06-26T07:11:25Z</time>
      </trkpt>
      <trkpt lat="48.03078" lon="6.84518">
        <ele>623</ele>
        <time>2022-06-26T07:11:26Z</time>
      </trkpt>
      <trkpt lat="48.03078" lon="6.8452">
        <ele>623</ele>
        <time>2022-06-26T07:11:27Z</time>
      </trkpt>
      <trkpt lat="48.03079" lon="6.84522">
        <ele>623</ele>
        <time>2022-06-26T07:11:28Z</time>
      </trkpt>
      <trkpt lat="48.03079" lon="6.84524">
        <ele>623.2</ele>
        <time>2022-06-26T07:11:29Z</time>
      </trkpt>
      <trkpt lat="48.03079" lon="6.84527">
        <ele>623.4</ele>
        <time>2022-06-26T07:11:30Z</time>
      </trkpt>
      <trkpt lat="48.03079" lon="6.84529">
        <ele>623.6</ele>
        <time>2022-06-26T07:11:31Z</time>
      </trkpt>
      <trkpt lat="48.0308" lon="6.84532">
        <ele>623.8</ele>
        <time>2022-06-26T07:11:32Z</time>
      </trkpt>
      <trkpt lat="48.03082" lon="6.84534">
        <ele>623.8</ele>
        <time>2022-06-26T07:11:33Z</time>
      </trkpt>
      <trkpt lat="48.03084" lon="6.84536">
        <ele>623.8</ele>
        <time>2022-06-26T07:11:34Z</time>
      </trkpt>
      <trkpt lat="48.03085" lon="6.84538">
        <ele>624.2</ele>
        <time>2022-06-26T07:11:35Z</time>
      </trkpt>
      <trkpt lat="48.03086" lon="6.8454">
        <ele>624.2</ele>
        <time>2022-06-26T07:11:36Z</time>
      </trkpt>
      <trkpt lat="48.03086" lon="6.84543">
        <ele>624.4</ele>
        <time>2022-06-26T07:11:37Z</time>
      </trkpt>
      <trkpt lat="48.03083" lon="6.84545">
        <ele>624.8</ele>
        <time>2022-06-26T07:11:38Z</time>
      </trkpt>
      <trkpt lat="48.03082" lon="6.8455">
        <ele>624.8</ele>
        <time>2022-06-26T07:11:39Z</time>
      </trkpt>
      <trkpt lat="48.03082" lon="6.84553">
        <ele>625</ele>
        <time>2022-06-26T07:11:40Z</time>
      </trkpt>
      <trkpt lat="48.0308" lon="6.84557">
        <ele>625</ele>
        <time>2022-06-26T07:11:41Z</time>
      </trkpt>
      <trkpt lat="48.0308" lon="6.8456">
        <ele>625</ele>
        <time>2022-06-26T07:11:42Z</time>
      </trkpt>
      <trkpt lat="48.03081" lon="6.84562">
        <ele>625</ele>
        <time>2022-06-26T07:11:43Z</time>
      </trkpt>
      <trkpt lat="48.03082" lon="6.84564">
        <ele>625.2</ele>
        <time>2022-06-26T07:11:44Z</time>
      </trkpt>
      <trkpt lat="48.03082" lon="6.84568">
        <ele>625.4</ele>
        <time>2022-06-26T07:11:45Z</time>
      </trkpt>
      <trkpt lat="48.03082" lon="6.84571">
        <ele>625.4</ele>
        <time>2022-06-26T07:11:46Z</time>
      </trkpt>
      <trkpt lat="48.03083" lon="6.84574">
        <ele>625.6</ele>
        <time>2022-06-26T07:11:47Z</time>
      </trkpt>
      <trkpt lat="48.03084" lon="6.84577">
        <ele>625.6</ele>
        <time>2022-06-26T07:11:48Z</time>
      </trkpt>
      <trkpt lat="48.03084" lon="6.84579">
        <ele>625.6</ele>
        <time>2022-06-26T07:11:49Z</time>
      </trkpt>
      <trkpt lat="48.03085" lon="6.84581">
        <ele>625.6</ele>
        <time>2022-06-26T07:11:50Z</time>
      </trkpt>
      <trkpt lat="48.03085" lon="6.84584">
        <ele>625.8</ele>
        <time>2022-06-26T07:11:51Z</time>
      </trkpt>
      <trkpt lat="48.03085" lon="6.84586">
        <ele>626</ele>
        <time>2022-06-26T07:11:52Z</time>
      </trkpt>
      <trkpt lat="48.03086" lon="6.84589">
        <ele>626.2</ele>
        <time>2022-06-26T07:11:53Z</time>
      </trkpt>
      <trkpt lat="48.03086" lon="6.84591">
        <ele>626.2</ele>
        <time>2022-06-26T07:11:54Z</time>
      </trkpt>
      <trkpt lat="48.03088" lon="6.84593">
        <ele>626.4</ele>
        <time>2022-06-26T07:11:55Z</time>
      </trkpt>
      <trkpt lat="48.03089" lon="6.84596">
        <ele>626.6</ele>
        <time>2022-06-26T07:11:56Z</time>
      </trkpt>
      <trkpt lat="48.0309" lon="6.84597">
        <ele>626.8</ele>
        <time>2022-06-26T07:11:57Z</time>
      </trkpt>
      <trkpt lat="48.03091" lon="6.846">
        <ele>627</ele>
        <time>2022-06-26T07:11:58Z</time>
      </trkpt>
      <trkpt lat="48.03092" lon="6.84601">
        <ele>627.2</ele>
        <time>2022-06-26T07:11:59Z</time>
      </trkpt>
      <trkpt lat="48.03093" lon="6.84603">
        <ele>627.4</ele>
        <time>2022-06-26T07:12:00Z</time>
      </trkpt>
      <trkpt lat="48.03094" lon="6.84605">
        <ele>627.4</ele>
        <time>2022-06-26T07:12:01Z</time>
      </trkpt>
      <trkpt lat="48.03094" lon="6.84607">
        <ele>627.6</ele>
        <time>2022-06-26T07:12:02Z</time>
      </trkpt>
      <trkpt lat="48.03095" lon="6.84609">
        <ele>627.8</ele>
        <time>2022-06-26T07:12:03Z</time>
      </trkpt>
      <trkpt lat="48.03096" lon="6.84611">
        <ele>628</ele>
        <time>2022-06-26T07:12:04Z</time>
      </trkpt>
      <trkpt lat="48.03097" lon="6.84614">
        <ele>628.2</ele>
        <time>2022-06-26T07:12:05Z</time>
      </trkpt>
      <trkpt lat="48.03098" lon="6.84616">
        <ele>628.2</ele>
        <time>2022-06-26T07:12:06Z</time>
      </trkpt>
      <trkpt lat="48.03098" lon="6.84618">
        <ele>628.4</ele>
        <time>2022-06-26T07:12:07Z</time>
      </trkpt>
      <trkpt lat="48.03099" lon="6.8462">
        <ele>628.6</ele>
        <time>2022-06-26T07:12:08Z</time>
      </trkpt>
      <trkpt lat="48.03099" lon="6.84623">
        <ele>628.6</ele>
        <time>2022-06-26T07:12:09Z</time>
      </trkpt>
      <trkpt lat="48.03101" lon="6.84625">
        <ele>628.6</ele>
        <time>2022-06-26T07:12:10Z</time>
      </trkpt>
      <trkpt lat="48.03102" lon="6.84627">
        <ele>628.8</ele>
        <time>2022-06-26T07:12:11Z</time>
      </trkpt>
      <trkpt lat="48.03102" lon="6.84629">
        <ele>629</ele>
        <time>2022-06-26T07:12:12Z</time>
      </trkpt>
      <trkpt lat="48.03103" lon="6.84632">
        <ele>629.2</ele>
        <time>2022-06-26T07:12:13Z</time>
      </trkpt>
      <trkpt lat="48.03104" lon="6.84635">
        <ele>629.2</ele>
        <time>2022-06-26T07:12:14Z</time>
      </trkpt>
      <trkpt lat="48.03104" lon="6.84637">
        <ele>629</ele>
        <time>2022-06-26T07:12:15Z</time>
      </trkpt>
      <trkpt lat="48.03105" lon="6.8464">
        <ele>629.2</ele>
        <time>2022-06-26T07:12:16Z</time>
      </trkpt>
      <trkpt lat="48.03105" lon="6.84642">
        <ele>629.4</ele>
        <time>2022-06-26T07:12:17Z</time>
      </trkpt>
      <trkpt lat="48.03106" lon="6.84645">
        <ele>629.4</ele>
        <time>2022-06-26T07:12:18Z</time>
      </trkpt>
      <trkpt lat="48.03107" lon="6.84647">
        <ele>629.4</ele>
        <time>2022-06-26T07:12:19Z</time>
      </trkpt>
      <trkpt lat="48.03108" lon="6.84649">
        <ele>629.6</ele>
        <time>2022-06-26T07:12:20Z</time>
      </trkpt>
      <trkpt lat="48.03109" lon="6.84651">
        <ele>629.8</ele>
        <time>2022-06-26T07:12:21Z</time>
      </trkpt>
      <trkpt lat="48.0311" lon="6.84654">
        <ele>629.8</ele>
        <time>2022-06-26T07:12:22Z</time>
      </trkpt>
      <trkpt lat="48.03111" lon="6.84656">
        <ele>630.2</ele>
        <time>2022-06-26T07:12:23Z</time>
      </trkpt>
      <trkpt lat="48.03111" lon="6.84658">
        <ele>630.4</ele>
        <time>2022-06-26T07:12:24Z</time>
      </trkpt>
      <trkpt lat="48.03112" lon="6.84661">
        <ele>630.6</ele>
        <time>2022-06-26T07:12:25Z</time>
      </trkpt>
      <trkpt lat="48.03113" lon="6.84663">
        <ele>630.6</ele>
        <time>2022-06-26T07:12:26Z</time>
      </trkpt>
      <trkpt lat="48.03114" lon="6.84665">
        <ele>631</ele>
        <time>2022-06-26T07:12:27Z</time>
      </trkpt>
      <trkpt lat="48.03115" lon="6.84667">
        <ele>631</ele>
        <time>2022-06-26T07:12:28Z</time>
      </trkpt>
      <trkpt lat="48.03116" lon="6.8467">
        <ele>631.2</ele>
        <time>2022-06-26T07:12:29Z</time>
      </trkpt>
      <trkpt lat="48.03117" lon="6.84672">
        <ele>631.4</ele>
        <time>2022-06-26T07:12:30Z</time>
      </trkpt>
      <trkpt lat="48.03117" lon="6.84673">
        <ele>631.4</ele>
        <time>2022-06-26T07:12:31Z</time>
      </trkpt>
      <trkpt lat="48.03117" lon="6.84675">
        <ele>631.4</ele>
        <time>2022-06-26T07:12:32Z</time>
      </trkpt>
      <trkpt lat="48.03118" lon="6.84677">
        <ele>631.6</ele>
        <time>2022-06-26T07:12:33Z</time>
      </trkpt>
      <trkpt lat="48.03119" lon="6.84679">
        <ele>631.8</ele>
        <time>2022-06-26T07:12:34Z</time>
      </trkpt>
      <trkpt lat="48.0312" lon="6.84682">
        <ele>631.8</ele>
        <time>2022-06-26T07:12:35Z</time>
      </trkpt>
      <trkpt lat="48.03122" lon="6.84684">
        <ele>632</ele>
        <time>2022-06-26T07:12:36Z</time>
      </trkpt>
      <trkpt lat="48.03123" lon="6.84687">
        <ele>632</ele>
        <time>2022-06-26T07:12:37Z</time>
      </trkpt>
      <trkpt lat="48.03125" lon="6.84689">
        <ele>632.2</ele>
        <time>2022-06-26T07:12:38Z</time>
      </trkpt>
      <trkpt lat="48.03126" lon="6.84691">
        <ele>632.2</ele>
        <time>2022-06-26T07:12:39Z</time>
      </trkpt>
      <trkpt lat="48.03127" lon="6.84693">
        <ele>632.2</ele>
        <time>2022-06-26T07:12:40Z</time>
      </trkpt>
      <trkpt lat="48.03129" lon="6.84696">
        <ele>632.6</ele>
        <time>2022-06-26T07:12:41Z</time>
      </trkpt>
      <trkpt lat="48.0313" lon="6.84698">
        <ele>632.6</ele>
        <time>2022-06-26T07:12:42Z</time>
      </trkpt>
      <trkpt lat="48.03131" lon="6.84699">
        <ele>632.8</ele>
        <time>2022-06-26T07:12:43Z</time>
      </trkpt>
      <trkpt lat="48.03132" lon="6.84701">
        <ele>632.8</ele>
        <time>2022-06-26T07:12:44Z</time>
      </trkpt>
      <trkpt lat="48.03132" lon="6.84703">
        <ele>633</ele>
        <time>2022-06-26T07:12:45Z</time>
      </trkpt>
      <trkpt lat="48.03134" lon="6.84705">
        <ele>633</ele>
        <time>2022-06-26T07:12:46Z</time>
      </trkpt>
      <trkpt lat="48.03135" lon="6.84707">
        <ele>633.2</ele>
        <time>2022-06-26T07:12:47Z</time>
      </trkpt>
      <trkpt lat="48.03136" lon="6.84708">
        <ele>633.6</ele>
        <time>2022-06-26T07:12:48Z</time>
      </trkpt>
      <trkpt lat="48.03137" lon="6.8471">
        <ele>633.6</ele>
        <time>2022-06-26T07:12:49Z</time>
      </trkpt>
      <trkpt lat="48.03138" lon="6.84711">
        <ele>633.8</ele>
        <time>2022-06-26T07:12:50Z</time>
      </trkpt>
      <trkpt lat="48.03139" lon="6.84712">
        <ele>633.8</ele>
        <time>2022-06-26T07:12:51Z</time>
      </trkpt>
      <trkpt lat="48.03139" lon="6.84713">
        <ele>634</ele>
        <time>2022-06-26T07:12:52Z</time>
      </trkpt>
      <trkpt lat="48.0314" lon="6.84714">
        <ele>634</ele>
        <time>2022-06-26T07:12:53Z</time>
      </trkpt>
      <trkpt lat="48.03141" lon="6.84715">
        <ele>634.2</ele>
        <time>2022-06-26T07:12:54Z</time>
      </trkpt>
      <trkpt lat="48.03141" lon="6.84715">
        <ele>634.2</ele>
        <time>2022-06-26T07:12:55Z</time>
      </trkpt>
      <trkpt lat="48.03141" lon="6.84716">
        <ele>634.4</ele>
        <time>2022-06-26T07:12:56Z</time>
      </trkpt>
      <trkpt lat="48.03142" lon="6.84717">
        <ele>634.6</ele>
        <time>2022-06-26T07:12:57Z</time>
      </trkpt>
      <trkpt lat="48.03143" lon="6.84718">
        <ele>634.6</ele>
        <time>2022-06-26T07:12:58Z</time>
      </trkpt>
      <trkpt lat="48.03144" lon="6.84718">
        <ele>634.8</ele>
        <time>2022-06-26T07:12:59Z</time>
      </trkpt>
      <trkpt lat="48.03144" lon="6.84718">
        <ele>634.8</ele>
        <time>2022-06-26T07:13:00Z</time>
      </trkpt>
      <trkpt lat="48.03145" lon="6.84719">
        <ele>635</ele>
        <time>2022-06-26T07:13:01Z</time>
      </trkpt>
      <trkpt lat="48.03146" lon="6.8472">
        <ele>635.2</ele>
        <time>2022-06-26T07:13:02Z</time>
      </trkpt>
      <trkpt lat="48.03148" lon="6.8472">
        <ele>635.8</ele>
        <time>2022-06-26T07:13:03Z</time>
      </trkpt>
      <trkpt lat="48.03149" lon="6.84721">
        <ele>636</ele>
        <time>2022-06-26T07:13:04Z</time>
      </trkpt>
      <trkpt lat="48.03151" lon="6.84723">
        <ele>636.2</ele>
        <time>2022-06-26T07:13:05Z</time>
      </trkpt>
      <trkpt lat="48.03153" lon="6.84724">
        <ele>636.4</ele>
        <time>2022-06-26T07:13:06Z</time>
      </trkpt>
      <trkpt lat="48.03155" lon="6.84726">
        <ele>636.4</ele>
        <time>2022-06-26T07:13:07Z</time>
      </trkpt>
      <trkpt lat="48.03157" lon="6.84727">
        <ele>636.6</ele>
        <time>2022-06-26T07:13:08Z</time>
      </trkpt>
      <trkpt lat="48.0316" lon="6.8473">
        <ele>636.6</ele>
        <time>2022-06-26T07:13:09Z</time>
      </trkpt>
      <trkpt lat="48.03161" lon="6.84731">
        <ele>637</ele>
        <time>2022-06-26T07:13:10Z</time>
      </trkpt>
      <trkpt lat="48.03163" lon="6.84733">
        <ele>637.2</ele>
        <time>2022-06-26T07:13:11Z</time>
      </trkpt>
      <trkpt lat="48.03165" lon="6.84734">
        <ele>637.4</ele>
        <time>2022-06-26T07:13:12Z</time>
      </trkpt>
      <trkpt lat="48.03167" lon="6.84735">
        <ele>637.4</ele>
        <time>2022-06-26T07:13:13Z</time>
      </trkpt>
      <trkpt lat="48.03169" lon="6.84737">
        <ele>637.6</ele>
        <time>2022-06-26T07:13:14Z</time>
      </trkpt>
      <trkpt lat="48.03171" lon="6.84738">
        <ele>637.8</ele>
        <time>2022-06-26T07:13:15Z</time>
      </trkpt>
      <trkpt lat="48.03173" lon="6.8474">
        <ele>637.8</ele>
        <time>2022-06-26T07:13:16Z</time>
      </trkpt>
      <trkpt lat="48.03175" lon="6.84742">
        <ele>638</ele>
        <time>2022-06-26T07:13:17Z</time>
      </trkpt>
      <trkpt lat="48.03176" lon="6.84744">
        <ele>638.2</ele>
        <time>2022-06-26T07:13:18Z</time>
      </trkpt>
      <trkpt lat="48.03178" lon="6.84745">
        <ele>638.2</ele>
        <time>2022-06-26T07:13:19Z</time>
      </trkpt>
      <trkpt lat="48.03179" lon="6.84747">
        <ele>638.2</ele>
        <time>2022-06-26T07:13:20Z</time>
      </trkpt>
      <trkpt lat="48.0318" lon="6.84748">
        <ele>638.6</ele>
        <time>2022-06-26T07:13:21Z</time>
      </trkpt>
      <trkpt lat="48.03182" lon="6.8475">
        <ele>638.6</ele>
        <time>2022-06-26T07:13:22Z</time>
      </trkpt>
      <trkpt lat="48.03184" lon="6.84753">
        <ele>639</ele>
        <time>2022-06-26T07:13:23Z</time>
      </trkpt>
      <trkpt lat="48.03185" lon="6.84755">
        <ele>639.2</ele>
        <time>2022-06-26T07:13:24Z</time>
      </trkpt>
      <trkpt lat="48.03186" lon="6.84756">
        <ele>639.2</ele>
        <time>2022-06-26T07:13:25Z</time>
      </trkpt>
      <trkpt lat="48.03187" lon="6.84758">
        <ele>639.6</ele>
        <time>2022-06-26T07:13:26Z</time>
      </trkpt>
      <trkpt lat="48.03189" lon="6.8476">
        <ele>639.6</ele>
        <time>2022-06-26T07:13:27Z</time>
      </trkpt>
      <trkpt lat="48.0319" lon="6.84762">
        <ele>639.8</ele>
        <time>2022-06-26T07:13:28Z</time>
      </trkpt>
      <trkpt lat="48.03191" lon="6.84763">
        <ele>639.8</ele>
        <time>2022-06-26T07:13:29Z</time>
      </trkpt>
      <trkpt lat="48.03192" lon="6.84765">
        <ele>640</ele>
        <time>2022-06-26T07:13:30Z</time>
      </trkpt>
      <trkpt lat="48.03194" lon="6.84767">
        <ele>640.2</ele>
        <time>2022-06-26T07:13:31Z</time>
      </trkpt>
      <trkpt lat="48.03195" lon="6.84768">
        <ele>640.2</ele>
        <time>2022-06-26T07:13:32Z</time>
      </trkpt>
      <trkpt lat="48.03196" lon="6.8477">
        <ele>640.4</ele>
        <time>2022-06-26T07:13:33Z</time>
      </trkpt>
      <trkpt lat="48.03197" lon="6.84772">
        <ele>640.4</ele>
        <time>2022-06-26T07:13:34Z</time>
      </trkpt>
      <trkpt lat="48.03198" lon="6.84774">
        <ele>640.8</ele>
        <time>2022-06-26T07:13:35Z</time>
      </trkpt>
      <trkpt lat="48.03199" lon="6.84775">
        <ele>640.8</ele>
        <time>2022-06-26T07:13:36Z</time>
      </trkpt>
      <trkpt lat="48.032" lon="6.84777">
        <ele>641</ele>
        <time>2022-06-26T07:13:37Z</time>
      </trkpt>
      <trkpt lat="48.03201" lon="6.84779">
        <ele>641</ele>
        <time>2022-06-26T07:13:38Z</time>
      </trkpt>
      <trkpt lat="48.03202" lon="6.8478">
        <ele>641.2</ele>
        <time>2022-06-26T07:13:39Z</time>
      </trkpt>
      <trkpt lat="48.03203" lon="6.84782">
        <ele>641.6</ele>
        <time>2022-06-26T07:13:40Z</time>
      </trkpt>
      <trkpt lat="48.03204" lon="6.84784">
        <ele>641.6</ele>
        <time>2022-06-26T07:13:41Z</time>
      </trkpt>
      <trkpt lat="48.03205" lon="6.84786">
        <ele>642</ele>
        <time>2022-06-26T07:13:42Z</time>
      </trkpt>
      <trkpt lat="48.03206" lon="6.84788">
        <ele>642</ele>
        <time>2022-06-26T07:13:43Z</time>
      </trkpt>
      <trkpt lat="48.03206" lon="6.84789">
        <ele>642.2</ele>
        <time>2022-06-26T07:13:44Z</time>
      </trkpt>
      <trkpt lat="48.03206" lon="6.84791">
        <ele>642.2</ele>
        <time>2022-06-26T07:13:45Z</time>
      </trkpt>
      <trkpt lat="48.03207" lon="6.84793">
        <ele>642.4</ele>
        <time>2022-06-26T07:13:46Z</time>
      </trkpt>
      <trkpt lat="48.03208" lon="6.84795">
        <ele>642.4</ele>
        <time>2022-06-26T07:13:47Z</time>
      </trkpt>
      <trkpt lat="48.03208" lon="6.84797">
        <ele>642.6</ele>
        <time>2022-06-26T07:13:48Z</time>
      </trkpt>
      <trkpt lat="48.03208" lon="6.84799">
        <ele>642.8</ele>
        <time>2022-06-26T07:13:49Z</time>
      </trkpt>
      <trkpt lat="48.03207" lon="6.84801">
        <ele>643</ele>
        <time>2022-06-26T07:13:50Z</time>
      </trkpt>
      <trkpt lat="48.03206" lon="6.84802">
        <ele>643.2</ele>
        <time>2022-06-26T07:13:51Z</time>
      </trkpt>
      <trkpt lat="48.03205" lon="6.84803">
        <ele>643.4</ele>
        <time>2022-06-26T07:13:52Z</time>
      </trkpt>
      <trkpt lat="48.03204" lon="6.84803">
        <ele>643.6</ele>
        <time>2022-06-26T07:13:53Z</time>
      </trkpt>
      <trkpt lat="48.03203" lon="6.84803">
        <ele>643.8</ele>
        <time>2022-06-26T07:13:54Z</time>
      </trkpt>
      <trkpt lat="48.03201" lon="6.84802">
        <ele>643.8</ele>
        <time>2022-06-26T07:13:55Z</time>
      </trkpt>
      <trkpt lat="48.032" lon="6.84801">
        <ele>644</ele>
        <time>2022-06-26T07:13:56Z</time>
      </trkpt>
      <trkpt lat="48.03198" lon="6.848">
        <ele>644.2</ele>
        <time>2022-06-26T07:13:57Z</time>
      </trkpt>
      <trkpt lat="48.03197" lon="6.848">
        <ele>644.4</ele>
        <time>2022-06-26T07:13:58Z</time>
      </trkpt>
      <trkpt lat="48.03196" lon="6.84799">
        <ele>644.6</ele>
        <time>2022-06-26T07:13:59Z</time>
      </trkpt>
      <trkpt lat="48.03194" lon="6.84799">
        <ele>645</ele>
        <time>2022-06-26T07:14:00Z</time>
      </trkpt>
      <trkpt lat="48.03193" lon="6.84799">
        <ele>645.2</ele>
        <time>2022-06-26T07:14:01Z</time>
      </trkpt>
      <trkpt lat="48.03192" lon="6.84798">
        <ele>645.6</ele>
        <time>2022-06-26T07:14:02Z</time>
      </trkpt>
      <trkpt lat="48.0319" lon="6.84798">
        <ele>645.8</ele>
        <time>2022-06-26T07:14:03Z</time>
      </trkpt>
      <trkpt lat="48.03189" lon="6.84797">
        <ele>646.2</ele>
        <time>2022-06-26T07:14:04Z</time>
      </trkpt>
      <trkpt lat="48.03187" lon="6.84796">
        <ele>646.2</ele>
        <time>2022-06-26T07:14:05Z</time>
      </trkpt>
      <trkpt lat="48.03185" lon="6.84795">
        <ele>646.4</ele>
        <time>2022-06-26T07:14:06Z</time>
      </trkpt>
      <trkpt lat="48.03184" lon="6.84794">
        <ele>646.4</ele>
        <time>2022-06-26T07:14:07Z</time>
      </trkpt>
      <trkpt lat="48.03183" lon="6.84794">
        <ele>646.6</ele>
        <time>2022-06-26T07:14:08Z</time>
      </trkpt>
      <trkpt lat="48.03183" lon="6.84794">
        <ele>646.8</ele>
        <time>2022-06-26T07:14:09Z</time>
      </trkpt>
      <trkpt lat="48.03181" lon="6.84794">
        <ele>647</ele>
        <time>2022-06-26T07:14:10Z</time>
      </trkpt>
      <trkpt lat="48.0318" lon="6.84794">
        <ele>647.2</ele>
        <time>2022-06-26T07:14:11Z</time>
      </trkpt>
      <trkpt lat="48.03179" lon="6.84795">
        <ele>647.4</ele>
        <time>2022-06-26T07:14:12Z</time>
      </trkpt>
      <trkpt lat="48.03178" lon="6.84795">
        <ele>647.6</ele>
        <time>2022-06-26T07:14:13Z</time>
      </trkpt>
      <trkpt lat="48.03177" lon="6.84796">
        <ele>647.6</ele>
        <time>2022-06-26T07:14:14Z</time>
      </trkpt>
      <trkpt lat="48.03176" lon="6.84797">
        <ele>647.8</ele>
        <time>2022-06-26T07:14:15Z</time>
      </trkpt>
      <trkpt lat="48.03175" lon="6.84798">
        <ele>648.2</ele>
        <time>2022-06-26T07:14:16Z</time>
      </trkpt>
      <trkpt lat="48.03175" lon="6.84799">
        <ele>648.4</ele>
        <time>2022-06-26T07:14:17Z</time>
      </trkpt>
      <trkpt lat="48.03174" lon="6.848">
        <ele>648.6</ele>
        <time>2022-06-26T07:14:18Z</time>
      </trkpt>
      <trkpt lat="48.03173" lon="6.848">
        <ele>648.8</ele>
        <time>2022-06-26T07:14:19Z</time>
      </trkpt>
      <trkpt lat="48.03172" lon="6.84801">
        <ele>649</ele>
        <time>2022-06-26T07:14:20Z</time>
      </trkpt>
      <trkpt lat="48.03171" lon="6.84802">
        <ele>649.2</ele>
        <time>2022-06-26T07:14:21Z</time>
      </trkpt>
      <trkpt lat="48.0317" lon="6.84804">
        <ele>649.6</ele>
        <time>2022-06-26T07:14:22Z</time>
      </trkpt>
      <trkpt lat="48.0317" lon="6.84805">
        <ele>649.8</ele>
        <time>2022-06-26T07:14:23Z</time>
      </trkpt>
      <trkpt lat="48.03169" lon="6.84807">
        <ele>650</ele>
        <time>2022-06-26T07:14:24Z</time>
      </trkpt>
      <trkpt lat="48.03169" lon="6.84808">
        <ele>650.4</ele>
        <time>2022-06-26T07:14:25Z</time>
      </trkpt>
      <trkpt lat="48.03169" lon="6.8481">
        <ele>650.4</ele>
        <time>2022-06-26T07:14:26Z</time>
      </trkpt>
      <trkpt lat="48.03169" lon="6.84812">
        <ele>650.6</ele>
        <time>2022-06-26T07:14:27Z</time>
      </trkpt>
      <trkpt lat="48.03169" lon="6.84814">
        <ele>650.6</ele>
        <time>2022-06-26T07:14:28Z</time>
      </trkpt>
      <trkpt lat="48.03169" lon="6.84816">
        <ele>650.8</ele>
        <time>2022-06-26T07:14:29Z</time>
      </trkpt>
      <trkpt lat="48.03169" lon="6.84818">
        <ele>651</ele>
        <time>2022-06-26T07:14:30Z</time>
      </trkpt>
      <trkpt lat="48.0317" lon="6.84819">
        <ele>651.4</ele>
        <time>2022-06-26T07:14:31Z</time>
      </trkpt>
      <trkpt lat="48.0317" lon="6.84821">
        <ele>651.6</ele>
        <time>2022-06-26T07:14:32Z</time>
      </trkpt>
      <trkpt lat="48.0317" lon="6.84822">
        <ele>652</ele>
        <time>2022-06-26T07:14:33Z</time>
      </trkpt>
      <trkpt lat="48.03171" lon="6.84824">
        <ele>652.2</ele>
        <time>2022-06-26T07:14:34Z</time>
      </trkpt>
      <trkpt lat="48.03172" lon="6.84826">
        <ele>652.4</ele>
        <time>2022-06-26T07:14:35Z</time>
      </trkpt>
      <trkpt lat="48.03172" lon="6.84827">
        <ele>652.4</ele>
        <time>2022-06-26T07:14:36Z</time>
      </trkpt>
      <trkpt lat="48.03173" lon="6.84828">
        <ele>652.6</ele>
        <time>2022-06-26T07:14:37Z</time>
      </trkpt>
      <trkpt lat="48.03174" lon="6.84829">
        <ele>652.6</ele>
        <time>2022-06-26T07:14:38Z</time>
      </trkpt>
      <trkpt lat="48.03175" lon="6.84831">
        <ele>652.8</ele>
        <time>2022-06-26T07:14:39Z</time>
      </trkpt>
      <trkpt lat="48.03176" lon="6.84832">
        <ele>653</ele>
        <time>2022-06-26T07:14:40Z</time>
      </trkpt>
      <trkpt lat="48.03177" lon="6.84833">
        <ele>653</ele>
        <time>2022-06-26T07:14:41Z</time>
      </trkpt>
      <trkpt lat="48.03177" lon="6.84834">
        <ele>653.2</ele>
        <time>2022-06-26T07:14:42Z</time>
      </trkpt>
      <trkpt lat="48.03178" lon="6.84835">
        <ele>653.6</ele>
        <time>2022-06-26T07:14:43Z</time>
      </trkpt>
      <trkpt lat="48.03179" lon="6.84836">
        <ele>653.8</ele>
        <time>2022-06-26T07:14:44Z</time>
      </trkpt>
      <trkpt lat="48.0318" lon="6.84837">
        <ele>654</ele>
        <time>2022-06-26T07:14:45Z</time>
      </trkpt>
      <trkpt lat="48.03181" lon="6.84839">
        <ele>654</ele>
        <time>2022-06-26T07:14:46Z</time>
      </trkpt>
      <trkpt lat="48.03181" lon="6.8484">
        <ele>654.4</ele>
        <time>2022-06-26T07:14:47Z</time>
      </trkpt>
      <trkpt lat="48.03182" lon="6.8484">
        <ele>654.4</ele>
        <time>2022-06-26T07:14:48Z</time>
      </trkpt>
      <trkpt lat="48.03183" lon="6.84842">
        <ele>654.6</ele>
        <time>2022-06-26T07:14:49Z</time>
      </trkpt>
      <trkpt lat="48.03184" lon="6.84843">
        <ele>654.8</ele>
        <time>2022-06-26T07:14:50Z</time>
      </trkpt>
      <trkpt lat="48.03184" lon="6.84844">
        <ele>655</ele>
        <time>2022-06-26T07:14:51Z</time>
      </trkpt>
      <trkpt lat="48.03184" lon="6.84845">
        <ele>655</ele>
        <time>2022-06-26T07:14:52Z</time>
      </trkpt>
      <trkpt lat="48.03185" lon="6.84846">
        <ele>655.2</ele>
        <time>2022-06-26T07:14:53Z</time>
      </trkpt>
      <trkpt lat="48.03186" lon="6.84848">
        <ele>655.4</ele>
        <time>2022-06-26T07:14:54Z</time>
      </trkpt>
      <trkpt lat="48.03187" lon="6.8485">
        <ele>655.4</ele>
        <time>2022-06-26T07:14:55Z</time>
      </trkpt>
      <trkpt lat="48.03187" lon="6.84851">
        <ele>655.6</ele>
        <time>2022-06-26T07:14:56Z</time>
      </trkpt>
      <trkpt lat="48.03188" lon="6.84852">
        <ele>655.6</ele>
        <time>2022-06-26T07:14:57Z</time>
      </trkpt>
      <trkpt lat="48.03188" lon="6.84853">
        <ele>656</ele>
        <time>2022-06-26T07:14:58Z</time>
      </trkpt>
      <trkpt lat="48.03188" lon="6.84854">
        <ele>656.2</ele>
        <time>2022-06-26T07:14:59Z</time>
      </trkpt>
      <trkpt lat="48.03189" lon="6.84855">
        <ele>656.4</ele>
        <time>2022-06-26T07:15:00Z</time>
      </trkpt>
      <trkpt lat="48.0319" lon="6.84857">
        <ele>656.8</ele>
        <time>2022-06-26T07:15:01Z</time>
      </trkpt>
      <trkpt lat="48.0319" lon="6.84858">
        <ele>656.8</ele>
        <time>2022-06-26T07:15:02Z</time>
      </trkpt>
      <trkpt lat="48.03191" lon="6.84859">
        <ele>657</ele>
        <time>2022-06-26T07:15:03Z</time>
      </trkpt>
      <trkpt lat="48.03191" lon="6.8486">
        <ele>657.4</ele>
        <time>2022-06-26T07:15:04Z</time>
      </trkpt>
      <trkpt lat="48.03192" lon="6.84861">
        <ele>657.6</ele>
        <time>2022-06-26T07:15:05Z</time>
      </trkpt>
      <trkpt lat="48.03193" lon="6.84863">
        <ele>657.8</ele>
        <time>2022-06-26T07:15:06Z</time>
      </trkpt>
      <trkpt lat="48.03193" lon="6.84864">
        <ele>657.8</ele>
        <time>2022-06-26T07:15:07Z</time>
      </trkpt>
      <trkpt lat="48.03194" lon="6.84865">
        <ele>658</ele>
        <time>2022-06-26T07:15:08Z</time>
      </trkpt>
      <trkpt lat="48.03195" lon="6.84867">
        <ele>658</ele>
        <time>2022-06-26T07:15:09Z</time>
      </trkpt>
      <trkpt lat="48.03195" lon="6.84868">
        <ele>658.4</ele>
        <time>2022-06-26T07:15:10Z</time>
      </trkpt>
      <trkpt lat="48.03196" lon="6.8487">
        <ele>658.6</ele>
        <time>2022-06-26T07:15:11Z</time>
      </trkpt>
      <trkpt lat="48.03196" lon="6.84871">
        <ele>658.8</ele>
        <time>2022-06-26T07:15:12Z</time>
      </trkpt>
      <trkpt lat="48.03196" lon="6.84872">
        <ele>658.8</ele>
        <time>2022-06-26T07:15:13Z</time>
      </trkpt>
      <trkpt lat="48.03197" lon="6.84873">
        <ele>659</ele>
        <time>2022-06-26T07:15:14Z</time>
      </trkpt>
      <trkpt lat="48.03197" lon="6.84875">
        <ele>659.2</ele>
        <time>2022-06-26T07:15:15Z</time>
      </trkpt>
      <trkpt lat="48.03197" lon="6.84876">
        <ele>659.4</ele>
        <time>2022-06-26T07:15:16Z</time>
      </trkpt>
      <trkpt lat="48.03197" lon="6.84878">
        <ele>659.4</ele>
        <time>2022-06-26T07:15:17Z</time>
      </trkpt>
      <trkpt lat="48.03198" lon="6.84879">
        <ele>659.6</ele>
        <time>2022-06-26T07:15:18Z</time>
      </trkpt>
      <trkpt lat="48.03198" lon="6.8488">
        <ele>659.8</ele>
        <time>2022-06-26T07:15:19Z</time>
      </trkpt>
      <trkpt lat="48.03198" lon="6.84881">
        <ele>659.8</ele>
        <time>2022-06-26T07:15:20Z</time>
      </trkpt>
      <trkpt lat="48.03199" lon="6.84883">
        <ele>660.2</ele>
        <time>2022-06-26T07:15:21Z</time>
      </trkpt>
      <trkpt lat="48.03199" lon="6.84884">
        <ele>660.2</ele>
        <time>2022-06-26T07:15:22Z</time>
      </trkpt>
      <trkpt lat="48.03199" lon="6.84886">
        <ele>660.4</ele>
        <time>2022-06-26T07:15:23Z</time>
      </trkpt>
      <trkpt lat="48.03199" lon="6.84888">
        <ele>660.6</ele>
        <time>2022-06-26T07:15:24Z</time>
      </trkpt>
      <trkpt lat="48.03199" lon="6.8489">
        <ele>661</ele>
        <time>2022-06-26T07:15:25Z</time>
      </trkpt>
      <trkpt lat="48.032" lon="6.84891">
        <ele>661.2</ele>
        <time>2022-06-26T07:15:26Z</time>
      </trkpt>
      <trkpt lat="48.032" lon="6.84892">
        <ele>661.6</ele>
        <time>2022-06-26T07:15:27Z</time>
      </trkpt>
      <trkpt lat="48.032" lon="6.84893">
        <ele>661.8</ele>
        <time>2022-06-26T07:15:28Z</time>
      </trkpt>
      <trkpt lat="48.032" lon="6.84895">
        <ele>662</ele>
        <time>2022-06-26T07:15:29Z</time>
      </trkpt>
      <trkpt lat="48.03201" lon="6.84897">
        <ele>662.2</ele>
        <time>2022-06-26T07:15:30Z</time>
      </trkpt>
      <trkpt lat="48.03201" lon="6.84898">
        <ele>662.2</ele>
        <time>2022-06-26T07:15:31Z</time>
      </trkpt>
      <trkpt lat="48.03201" lon="6.849">
        <ele>662.4</ele>
        <time>2022-06-26T07:15:32Z</time>
      </trkpt>
      <trkpt lat="48.03201" lon="6.84901">
        <ele>662.6</ele>
        <time>2022-06-26T07:15:33Z</time>
      </trkpt>
      <trkpt lat="48.032" lon="6.84903">
        <ele>662.8</ele>
        <time>2022-06-26T07:15:34Z</time>
      </trkpt>
      <trkpt lat="48.03201" lon="6.84904">
        <ele>662.8</ele>
        <time>2022-06-26T07:15:35Z</time>
      </trkpt>
      <trkpt lat="48.03201" lon="6.84905">
        <ele>663.2</ele>
        <time>2022-06-26T07:15:36Z</time>
      </trkpt>
      <trkpt lat="48.03201" lon="6.84906">
        <ele>663.4</ele>
        <time>2022-06-26T07:15:37Z</time>
      </trkpt>
      <trkpt lat="48.03201" lon="6.84907">
        <ele>663.4</ele>
        <time>2022-06-26T07:15:38Z</time>
      </trkpt>
      <trkpt lat="48.03201" lon="6.84907">
        <ele>663.6</ele>
        <time>2022-06-26T07:15:39Z</time>
      </trkpt>
      <trkpt lat="48.03201" lon="6.84907">
        <ele>663.8</ele>
        <time>2022-06-26T07:15:40Z</time>
      </trkpt>
      <trkpt lat="48.03202" lon="6.84907">
        <ele>664</ele>
        <time>2022-06-26T07:15:41Z</time>
      </trkpt>
      <trkpt lat="48.03203" lon="6.84908">
        <ele>664.2</ele>
        <time>2022-06-26T07:15:42Z</time>
      </trkpt>
      <trkpt lat="48.03203" lon="6.8491">
        <ele>664.4</ele>
        <time>2022-06-26T07:15:43Z</time>
      </trkpt>
      <trkpt lat="48.03203" lon="6.84912">
        <ele>664.6</ele>
        <time>2022-06-26T07:15:44Z</time>
      </trkpt>
      <trkpt lat="48.03203" lon="6.84913">
        <ele>664.8</ele>
        <time>2022-06-26T07:15:45Z</time>
      </trkpt>
      <trkpt lat="48.03203" lon="6.84913">
        <ele>665</ele>
        <time>2022-06-26T07:15:46Z</time>
      </trkpt>
      <trkpt lat="48.03203" lon="6.84915">
        <ele>665.2</ele>
        <time>2022-06-26T07:15:47Z</time>
      </trkpt>
      <trkpt lat="48.03203" lon="6.84917">
        <ele>665.4</ele>
        <time>2022-06-26T07:15:48Z</time>
      </trkpt>
      <trkpt lat="48.03202" lon="6.84919">
        <ele>665.4</ele>
        <time>2022-06-26T07:15:49Z</time>
      </trkpt>
      <trkpt lat="48.03203" lon="6.84919">
        <ele>665.8</ele>
        <time>2022-06-26T07:15:50Z</time>
      </trkpt>
      <trkpt lat="48.03203" lon="6.8492">
        <ele>666</ele>
        <time>2022-06-26T07:15:51Z</time>
      </trkpt>
      <trkpt lat="48.03204" lon="6.84922">
        <ele>666.2</ele>
        <time>2022-06-26T07:15:52Z</time>
      </trkpt>
      <trkpt lat="48.03204" lon="6.84922">
        <ele>666.4</ele>
        <time>2022-06-26T07:15:53Z</time>
      </trkpt>
      <trkpt lat="48.03204" lon="6.84922">
        <ele>666.4</ele>
        <time>2022-06-26T07:15:54Z</time>
      </trkpt>
      <trkpt lat="48.03204" lon="6.84923">
        <ele>666.6</ele>
        <time>2022-06-26T07:15:55Z</time>
      </trkpt>
      <trkpt lat="48.03205" lon="6.84926">
        <ele>666.8</ele>
        <time>2022-06-26T07:15:56Z</time>
      </trkpt>
      <trkpt lat="48.03205" lon="6.84928">
        <ele>667</ele>
        <time>2022-06-26T07:15:57Z</time>
      </trkpt>
      <trkpt lat="48.03205" lon="6.8493">
        <ele>667.2</ele>
        <time>2022-06-26T07:15:58Z</time>
      </trkpt>
      <trkpt lat="48.03206" lon="6.84932">
        <ele>667.4</ele>
        <time>2022-06-26T07:15:59Z</time>
      </trkpt>
      <trkpt lat="48.03206" lon="6.84933">
        <ele>667.6</ele>
        <time>2022-06-26T07:16:00Z</time>
      </trkpt>
      <trkpt lat="48.03207" lon="6.84934">
        <ele>667.8</ele>
        <time>2022-06-26T07:16:01Z</time>
      </trkpt>
      <trkpt lat="48.03207" lon="6.84935">
        <ele>667.8</ele>
        <time>2022-06-26T07:16:02Z</time>
      </trkpt>
      <trkpt lat="48.03207" lon="6.84937">
        <ele>668</ele>
        <time>2022-06-26T07:16:03Z</time>
      </trkpt>
      <trkpt lat="48.03208" lon="6.84938">
        <ele>668.2</ele>
        <time>2022-06-26T07:16:04Z</time>
      </trkpt>
      <trkpt lat="48.03209" lon="6.84939">
        <ele>668.4</ele>
        <time>2022-06-26T07:16:05Z</time>
      </trkpt>
      <trkpt lat="48.0321" lon="6.84942">
        <ele>668.6</ele>
        <time>2022-06-26T07:16:06Z</time>
      </trkpt>
      <trkpt lat="48.03211" lon="6.84944">
        <ele>668.6</ele>
        <time>2022-06-26T07:16:07Z</time>
      </trkpt>
      <trkpt lat="48.03212" lon="6.84946">
        <ele>668.8</ele>
        <time>2022-06-26T07:16:08Z</time>
      </trkpt>
      <trkpt lat="48.03213" lon="6.84947">
        <ele>669</ele>
        <time>2022-06-26T07:16:09Z</time>
      </trkpt>
      <trkpt lat="48.03215" lon="6.84949">
        <ele>669.2</ele>
        <time>2022-06-26T07:16:10Z</time>
      </trkpt>
      <trkpt lat="48.03217" lon="6.84949">
        <ele>669.2</ele>
        <time>2022-06-26T07:16:11Z</time>
      </trkpt>
      <trkpt lat="48.03218" lon="6.8495">
        <ele>669.6</ele>
        <time>2022-06-26T07:16:12Z</time>
      </trkpt>
      <trkpt lat="48.03219" lon="6.84951">
        <ele>669.8</ele>
        <time>2022-06-26T07:16:13Z</time>
      </trkpt>
      <trkpt lat="48.0322" lon="6.84953">
        <ele>669.8</ele>
        <time>2022-06-26T07:16:14Z</time>
      </trkpt>
      <trkpt lat="48.03221" lon="6.84954">
        <ele>670</ele>
        <time>2022-06-26T07:16:15Z</time>
      </trkpt>
      <trkpt lat="48.03222" lon="6.84955">
        <ele>670.2</ele>
        <time>2022-06-26T07:16:16Z</time>
      </trkpt>
      <trkpt lat="48.03223" lon="6.84956">
        <ele>670</ele>
        <time>2022-06-26T07:16:17Z</time>
      </trkpt>
      <trkpt lat="48.03224" lon="6.84958">
        <ele>670</ele>
        <time>2022-06-26T07:16:18Z</time>
      </trkpt>
      <trkpt lat="48.03225" lon="6.8496">
        <ele>670.2</ele>
        <time>2022-06-26T07:16:19Z</time>
      </trkpt>
      <trkpt lat="48.03226" lon="6.84961">
        <ele>670.2</ele>
        <time>2022-06-26T07:16:20Z</time>
      </trkpt>
      <trkpt lat="48.03227" lon="6.84963">
        <ele>670.2</ele>
        <time>2022-06-26T07:16:21Z</time>
      </trkpt>
      <trkpt lat="48.03227" lon="6.84964">
        <ele>670.4</ele>
        <time>2022-06-26T07:16:22Z</time>
      </trkpt>
      <trkpt lat="48.03228" lon="6.84966">
        <ele>670.4</ele>
        <time>2022-06-26T07:16:23Z</time>
      </trkpt>
      <trkpt lat="48.03229" lon="6.84968">
        <ele>670.8</ele>
        <time>2022-06-26T07:16:24Z</time>
      </trkpt>
      <trkpt lat="48.03229" lon="6.84969">
        <ele>671</ele>
        <time>2022-06-26T07:16:25Z</time>
      </trkpt>
      <trkpt lat="48.03231" lon="6.84971">
        <ele>671.4</ele>
        <time>2022-06-26T07:16:26Z</time>
      </trkpt>
      <trkpt lat="48.03231" lon="6.84972">
        <ele>671.4</ele>
        <time>2022-06-26T07:16:27Z</time>
      </trkpt>
      <trkpt lat="48.03232" lon="6.84973">
        <ele>671.6</ele>
        <time>2022-06-26T07:16:28Z</time>
      </trkpt>
      <trkpt lat="48.03233" lon="6.84975">
        <ele>671.8</ele>
        <time>2022-06-26T07:16:29Z</time>
      </trkpt>
      <trkpt lat="48.03233" lon="6.84975">
        <ele>672</ele>
        <time>2022-06-26T07:16:30Z</time>
      </trkpt>
      <trkpt lat="48.03234" lon="6.84975">
        <ele>672.2</ele>
        <time>2022-06-26T07:16:31Z</time>
      </trkpt>
      <trkpt lat="48.03235" lon="6.84977">
        <ele>672.4</ele>
        <time>2022-06-26T07:16:32Z</time>
      </trkpt>
      <trkpt lat="48.03235" lon="6.84977">
        <ele>672.4</ele>
        <time>2022-06-26T07:16:33Z</time>
      </trkpt>
      <trkpt lat="48.03235" lon="6.84978">
        <ele>672.6</ele>
        <time>2022-06-26T07:16:34Z</time>
      </trkpt>
      <trkpt lat="48.03236" lon="6.84981">
        <ele>672.8</ele>
        <time>2022-06-26T07:16:35Z</time>
      </trkpt>
      <trkpt lat="48.03237" lon="6.84983">
        <ele>673</ele>
        <time>2022-06-26T07:16:36Z</time>
      </trkpt>
      <trkpt lat="48.03237" lon="6.84984">
        <ele>673.2</ele>
        <time>2022-06-26T07:16:37Z</time>
      </trkpt>
      <trkpt lat="48.03238" lon="6.84986">
        <ele>673.4</ele>
        <time>2022-06-26T07:16:38Z</time>
      </trkpt>
      <trkpt lat="48.03239" lon="6.84988">
        <ele>673.6</ele>
        <time>2022-06-26T07:16:39Z</time>
      </trkpt>
      <trkpt lat="48.0324" lon="6.8499">
        <ele>673.6</ele>
        <time>2022-06-26T07:16:40Z</time>
      </trkpt>
      <trkpt lat="48.0324" lon="6.84993">
        <ele>673.8</ele>
        <time>2022-06-26T07:16:41Z</time>
      </trkpt>
      <trkpt lat="48.03241" lon="6.84995">
        <ele>674</ele>
        <time>2022-06-26T07:16:42Z</time>
      </trkpt>
      <trkpt lat="48.03241" lon="6.84997">
        <ele>674</ele>
        <time>2022-06-26T07:16:43Z</time>
      </trkpt>
      <trkpt lat="48.03243" lon="6.85">
        <ele>674.2</ele>
        <time>2022-06-26T07:16:44Z</time>
      </trkpt>
      <trkpt lat="48.03244" lon="6.85002">
        <ele>674.4</ele>
        <time>2022-06-26T07:16:45Z</time>
      </trkpt>
      <trkpt lat="48.03245" lon="6.85004">
        <ele>674.4</ele>
        <time>2022-06-26T07:16:46Z</time>
      </trkpt>
      <trkpt lat="48.03245" lon="6.85006">
        <ele>674.6</ele>
        <time>2022-06-26T07:16:47Z</time>
      </trkpt>
      <trkpt lat="48.03245" lon="6.85008">
        <ele>674.6</ele>
        <time>2022-06-26T07:16:48Z</time>
      </trkpt>
      <trkpt lat="48.03246" lon="6.85009">
        <ele>674.8</ele>
        <time>2022-06-26T07:16:49Z</time>
      </trkpt>
      <trkpt lat="48.03246" lon="6.8501">
        <ele>675</ele>
        <time>2022-06-26T07:16:50Z</time>
      </trkpt>
      <trkpt lat="48.03246" lon="6.85013">
        <ele>675.2</ele>
        <time>2022-06-26T07:16:51Z</time>
      </trkpt>
      <trkpt lat="48.03247" lon="6.85014">
        <ele>675.2</ele>
        <time>2022-06-26T07:16:52Z</time>
      </trkpt>
      <trkpt lat="48.03248" lon="6.85016">
        <ele>675.4</ele>
        <time>2022-06-26T07:16:53Z</time>
      </trkpt>
      <trkpt lat="48.03249" lon="6.85018">
        <ele>675.4</ele>
        <time>2022-06-26T07:16:54Z</time>
      </trkpt>
      <trkpt lat="48.0325" lon="6.85019">
        <ele>675.8</ele>
        <time>2022-06-26T07:16:55Z</time>
      </trkpt>
      <trkpt lat="48.0325" lon="6.85021">
        <ele>676.2</ele>
        <time>2022-06-26T07:16:56Z</time>
      </trkpt>
      <trkpt lat="48.03251" lon="6.85023">
        <ele>676.2</ele>
        <time>2022-06-26T07:16:57Z</time>
      </trkpt>
      <trkpt lat="48.03251" lon="6.85024">
        <ele>676.4</ele>
        <time>2022-06-26T07:16:58Z</time>
      </trkpt>
      <trkpt lat="48.03252" lon="6.85026">
        <ele>676.4</ele>
        <time>2022-06-26T07:16:59Z</time>
      </trkpt>
      <trkpt lat="48.03252" lon="6.85028">
        <ele>676.6</ele>
        <time>2022-06-26T07:17:00Z</time>
      </trkpt>
      <trkpt lat="48.03253" lon="6.85029">
        <ele>676.8</ele>
        <time>2022-06-26T07:17:01Z</time>
      </trkpt>
      <trkpt lat="48.03253" lon="6.85031">
        <ele>677</ele>
        <time>2022-06-26T07:17:02Z</time>
      </trkpt>
      <trkpt lat="48.03254" lon="6.85033">
        <ele>677</ele>
        <time>2022-06-26T07:17:03Z</time>
      </trkpt>
      <trkpt lat="48.03255" lon="6.85034">
        <ele>677.2</ele>
        <time>2022-06-26T07:17:04Z</time>
      </trkpt>
      <trkpt lat="48.03255" lon="6.85035">
        <ele>677.2</ele>
        <time>2022-06-26T07:17:05Z</time>
      </trkpt>
      <trkpt lat="48.03255" lon="6.85036">
        <ele>677.2</ele>
        <time>2022-06-26T07:17:06Z</time>
      </trkpt>
      <trkpt lat="48.03256" lon="6.85038">
        <ele>677.4</ele>
        <time>2022-06-26T07:17:07Z</time>
      </trkpt>
      <trkpt lat="48.03256" lon="6.85039">
        <ele>677.4</ele>
        <time>2022-06-26T07:17:08Z</time>
      </trkpt>
      <trkpt lat="48.03257" lon="6.8504">
        <ele>677.6</ele>
        <time>2022-06-26T07:17:09Z</time>
      </trkpt>
      <trkpt lat="48.03257" lon="6.85042">
        <ele>677.8</ele>
        <time>2022-06-26T07:17:10Z</time>
      </trkpt>
      <trkpt lat="48.03258" lon="6.85043">
        <ele>678</ele>
        <time>2022-06-26T07:17:11Z</time>
      </trkpt>
      <trkpt lat="48.03259" lon="6.85045">
        <ele>678.2</ele>
        <time>2022-06-26T07:17:12Z</time>
      </trkpt>
      <trkpt lat="48.0326" lon="6.85047">
        <ele>678.4</ele>
        <time>2022-06-26T07:17:13Z</time>
      </trkpt>
      <trkpt lat="48.03261" lon="6.85049">
        <ele>678.6</ele>
        <time>2022-06-26T07:17:14Z</time>
      </trkpt>
      <trkpt lat="48.03262" lon="6.85051">
        <ele>678.6</ele>
        <time>2022-06-26T07:17:15Z</time>
      </trkpt>
      <trkpt lat="48.03263" lon="6.85053">
        <ele>678.6</ele>
        <time>2022-06-26T07:17:16Z</time>
      </trkpt>
      <trkpt lat="48.03264" lon="6.85055">
        <ele>678.8</ele>
        <time>2022-06-26T07:17:17Z</time>
      </trkpt>
      <trkpt lat="48.03264" lon="6.85056">
        <ele>679</ele>
        <time>2022-06-26T07:17:18Z</time>
      </trkpt>
      <trkpt lat="48.03265" lon="6.85058">
        <ele>679.2</ele>
        <time>2022-06-26T07:17:19Z</time>
      </trkpt>
      <trkpt lat="48.03265" lon="6.8506">
        <ele>679.4</ele>
        <time>2022-06-26T07:17:20Z</time>
      </trkpt>
      <trkpt lat="48.03266" lon="6.85062">
        <ele>679.6</ele>
        <time>2022-06-26T07:17:21Z</time>
      </trkpt>
      <trkpt lat="48.03266" lon="6.85064">
        <ele>679.8</ele>
        <time>2022-06-26T07:17:22Z</time>
      </trkpt>
      <trkpt lat="48.03267" lon="6.85065">
        <ele>680</ele>
        <time>2022-06-26T07:17:23Z</time>
      </trkpt>
      <trkpt lat="48.03268" lon="6.85067">
        <ele>680</ele>
        <time>2022-06-26T07:17:24Z</time>
      </trkpt>
      <trkpt lat="48.03269" lon="6.85067">
        <ele>680.2</ele>
        <time>2022-06-26T07:17:25Z</time>
      </trkpt>
      <trkpt lat="48.03269" lon="6.85068">
        <ele>680.4</ele>
        <time>2022-06-26T07:17:26Z</time>
      </trkpt>
      <trkpt lat="48.03269" lon="6.8507">
        <ele>680.6</ele>
        <time>2022-06-26T07:17:27Z</time>
      </trkpt>
      <trkpt lat="48.03268" lon="6.85072">
        <ele>680.8</ele>
        <time>2022-06-26T07:17:28Z</time>
      </trkpt>
      <trkpt lat="48.03269" lon="6.85073">
        <ele>681</ele>
        <time>2022-06-26T07:17:29Z</time>
      </trkpt>
      <trkpt lat="48.03269" lon="6.85074">
        <ele>681.2</ele>
        <time>2022-06-26T07:17:30Z</time>
      </trkpt>
      <trkpt lat="48.03269" lon="6.85075">
        <ele>681.6</ele>
        <time>2022-06-26T07:17:31Z</time>
      </trkpt>
      <trkpt lat="48.0327" lon="6.85078">
        <ele>681.8</ele>
        <time>2022-06-26T07:17:32Z</time>
      </trkpt>
      <trkpt lat="48.03271" lon="6.8508">
        <ele>682</ele>
        <time>2022-06-26T07:17:33Z</time>
      </trkpt>
      <trkpt lat="48.03272" lon="6.85082">
        <ele>682.2</ele>
        <time>2022-06-26T07:17:34Z</time>
      </trkpt>
      <trkpt lat="48.03273" lon="6.85083">
        <ele>682.2</ele>
        <time>2022-06-26T07:17:35Z</time>
      </trkpt>
      <trkpt lat="48.03274" lon="6.85085">
        <ele>682.4</ele>
        <time>2022-06-26T07:17:36Z</time>
      </trkpt>
      <trkpt lat="48.03276" lon="6.85087">
        <ele>682.6</ele>
        <time>2022-06-26T07:17:37Z</time>
      </trkpt>
      <trkpt lat="48.03277" lon="6.85088">
        <ele>682.8</ele>
        <time>2022-06-26T07:17:38Z</time>
      </trkpt>
      <trkpt lat="48.03278" lon="6.8509">
        <ele>682.8</ele>
        <time>2022-06-26T07:17:39Z</time>
      </trkpt>
      <trkpt lat="48.03278" lon="6.85091">
        <ele>683.2</ele>
        <time>2022-06-26T07:17:40Z</time>
      </trkpt>
      <trkpt lat="48.03278" lon="6.85094">
        <ele>683.2</ele>
        <time>2022-06-26T07:17:41Z</time>
      </trkpt>
      <trkpt lat="48.03278" lon="6.85096">
        <ele>683.4</ele>
        <time>2022-06-26T07:17:42Z</time>
      </trkpt>
      <trkpt lat="48.03278" lon="6.85099">
        <ele>683.6</ele>
        <time>2022-06-26T07:17:43Z</time>
      </trkpt>
      <trkpt lat="48.03278" lon="6.85102">
        <ele>683.6</ele>
        <time>2022-06-26T07:17:44Z</time>
      </trkpt>
      <trkpt lat="48.03279" lon="6.85104">
        <ele>683.8</ele>
        <time>2022-06-26T07:17:45Z</time>
      </trkpt>
      <trkpt lat="48.03279" lon="6.85107">
        <ele>683.8</ele>
        <time>2022-06-26T07:17:46Z</time>
      </trkpt>
      <trkpt lat="48.0328" lon="6.85109">
        <ele>684</ele>
        <time>2022-06-26T07:17:47Z</time>
      </trkpt>
      <trkpt lat="48.0328" lon="6.85111">
        <ele>684.2</ele>
        <time>2022-06-26T07:17:48Z</time>
      </trkpt>
      <trkpt lat="48.03281" lon="6.85112">
        <ele>684.2</ele>
        <time>2022-06-26T07:17:49Z</time>
      </trkpt>
      <trkpt lat="48.03282" lon="6.85114">
        <ele>684.4</ele>
        <time>2022-06-26T07:17:50Z</time>
      </trkpt>
      <trkpt lat="48.03282" lon="6.85116">
        <ele>684.4</ele>
        <time>2022-06-26T07:17:51Z</time>
      </trkpt>
      <trkpt lat="48.03282" lon="6.85119">
        <ele>684.6</ele>
        <time>2022-06-26T07:17:52Z</time>
      </trkpt>
      <trkpt lat="48.03283" lon="6.85121">
        <ele>684.8</ele>
        <time>2022-06-26T07:17:53Z</time>
      </trkpt>
      <trkpt lat="48.03284" lon="6.85123">
        <ele>685.2</ele>
        <time>2022-06-26T07:17:54Z</time>
      </trkpt>
      <trkpt lat="48.03284" lon="6.85125">
        <ele>685.2</ele>
        <time>2022-06-26T07:17:55Z</time>
      </trkpt>
      <trkpt lat="48.03285" lon="6.85126">
        <ele>685.4</ele>
        <time>2022-06-26T07:17:56Z</time>
      </trkpt>
      <trkpt lat="48.03285" lon="6.85128">
        <ele>685.4</ele>
        <time>2022-06-26T07:17:57Z</time>
      </trkpt>
      <trkpt lat="48.03286" lon="6.85129">
        <ele>685.6</ele>
        <time>2022-06-26T07:17:58Z</time>
      </trkpt>
      <trkpt lat="48.03286" lon="6.85131">
        <ele>685.8</ele>
        <time>2022-06-26T07:17:59Z</time>
      </trkpt>
      <trkpt lat="48.03287" lon="6.85133">
        <ele>685.8</ele>
        <time>2022-06-26T07:18:00Z</time>
      </trkpt>
      <trkpt lat="48.03287" lon="6.85134">
        <ele>686</ele>
        <time>2022-06-26T07:18:01Z</time>
      </trkpt>
      <trkpt lat="48.03288" lon="6.85135">
        <ele>686.2</ele>
        <time>2022-06-26T07:18:02Z</time>
      </trkpt>
      <trkpt lat="48.03289" lon="6.85136">
        <ele>686.6</ele>
        <time>2022-06-26T07:18:03Z</time>
      </trkpt>
      <trkpt lat="48.0329" lon="6.85137">
        <ele>686.6</ele>
        <time>2022-06-26T07:18:04Z</time>
      </trkpt>
      <trkpt lat="48.03291" lon="6.85139">
        <ele>686.8</ele>
        <time>2022-06-26T07:18:05Z</time>
      </trkpt>
      <trkpt lat="48.03292" lon="6.85141">
        <ele>687</ele>
        <time>2022-06-26T07:18:06Z</time>
      </trkpt>
      <trkpt lat="48.03293" lon="6.85143">
        <ele>687.2</ele>
        <time>2022-06-26T07:18:07Z</time>
      </trkpt>
      <trkpt lat="48.03294" lon="6.85144">
        <ele>687.4</ele>
        <time>2022-06-26T07:18:08Z</time>
      </trkpt>
      <trkpt lat="48.03295" lon="6.85146">
        <ele>687.6</ele>
        <time>2022-06-26T07:18:09Z</time>
      </trkpt>
      <trkpt lat="48.03296" lon="6.85147">
        <ele>687.8</ele>
        <time>2022-06-26T07:18:10Z</time>
      </trkpt>
      <trkpt lat="48.03297" lon="6.85149">
        <ele>688</ele>
        <time>2022-06-26T07:18:11Z</time>
      </trkpt>
      <trkpt lat="48.03299" lon="6.8515">
        <ele>688.2</ele>
        <time>2022-06-26T07:18:12Z</time>
      </trkpt>
      <trkpt lat="48.033" lon="6.85152">
        <ele>688</ele>
        <time>2022-06-26T07:18:13Z</time>
      </trkpt>
      <trkpt lat="48.03301" lon="6.85154">
        <ele>688.2</ele>
        <time>2022-06-26T07:18:14Z</time>
      </trkpt>
      <trkpt lat="48.03301" lon="6.85157">
        <ele>688.2</ele>
        <time>2022-06-26T07:18:15Z</time>
      </trkpt>
      <trkpt lat="48.03302" lon="6.85159">
        <ele>688.4</ele>
        <time>2022-06-26T07:18:16Z</time>
      </trkpt>
      <trkpt lat="48.03303" lon="6.85161">
        <ele>688.6</ele>
        <time>2022-06-26T07:18:17Z</time>
      </trkpt>
      <trkpt lat="48.03304" lon="6.85163">
        <ele>688.8</ele>
        <time>2022-06-26T07:18:18Z</time>
      </trkpt>
      <trkpt lat="48.03304" lon="6.85164">
        <ele>689</ele>
        <time>2022-06-26T07:18:19Z</time>
      </trkpt>
      <trkpt lat="48.03305" lon="6.85165">
        <ele>689</ele>
        <time>2022-06-26T07:18:20Z</time>
      </trkpt>
      <trkpt lat="48.03306" lon="6.85167">
        <ele>689.2</ele>
        <time>2022-06-26T07:18:21Z</time>
      </trkpt>
      <trkpt lat="48.03307" lon="6.85169">
        <ele>689.4</ele>
        <time>2022-06-26T07:18:22Z</time>
      </trkpt>
      <trkpt lat="48.03307" lon="6.8517">
        <ele>689.6</ele>
        <time>2022-06-26T07:18:23Z</time>
      </trkpt>
      <trkpt lat="48.03308" lon="6.85171">
        <ele>689.8</ele>
        <time>2022-06-26T07:18:24Z</time>
      </trkpt>
      <trkpt lat="48.03309" lon="6.85173">
        <ele>690</ele>
        <time>2022-06-26T07:18:25Z</time>
      </trkpt>
      <trkpt lat="48.0331" lon="6.85174">
        <ele>690</ele>
        <time>2022-06-26T07:18:26Z</time>
      </trkpt>
      <trkpt lat="48.03311" lon="6.85176">
        <ele>690.2</ele>
        <time>2022-06-26T07:18:27Z</time>
      </trkpt>
      <trkpt lat="48.03312" lon="6.85177">
        <ele>690.2</ele>
        <time>2022-06-26T07:18:28Z</time>
      </trkpt>
      <trkpt lat="48.03312" lon="6.85178">
        <ele>690.4</ele>
        <time>2022-06-26T07:18:29Z</time>
      </trkpt>
      <trkpt lat="48.03313" lon="6.85179">
        <ele>690.6</ele>
        <time>2022-06-26T07:18:30Z</time>
      </trkpt>
      <trkpt lat="48.03314" lon="6.8518">
        <ele>690.8</ele>
        <time>2022-06-26T07:18:31Z</time>
      </trkpt>
      <trkpt lat="48.03315" lon="6.85182">
        <ele>690.8</ele>
        <time>2022-06-26T07:18:32Z</time>
      </trkpt>
      <trkpt lat="48.03315" lon="6.85183">
        <ele>691.2</ele>
        <time>2022-06-26T07:18:33Z</time>
      </trkpt>
      <trkpt lat="48.03316" lon="6.85185">
        <ele>691.2</ele>
        <time>2022-06-26T07:18:34Z</time>
      </trkpt>
      <trkpt lat="48.03318" lon="6.85185">
        <ele>691.6</ele>
        <time>2022-06-26T07:18:35Z</time>
      </trkpt>
      <trkpt lat="48.03318" lon="6.85186">
        <ele>691.6</ele>
        <time>2022-06-26T07:18:36Z</time>
      </trkpt>
      <trkpt lat="48.03318" lon="6.85186">
        <ele>691.8</ele>
        <time>2022-06-26T07:18:37Z</time>
      </trkpt>
      <trkpt lat="48.03318" lon="6.85186">
        <ele>691.8</ele>
        <time>2022-06-26T07:18:38Z</time>
      </trkpt>
      <trkpt lat="48.03319" lon="6.85187">
        <ele>692.2</ele>
        <time>2022-06-26T07:18:39Z</time>
      </trkpt>
      <trkpt lat="48.0332" lon="6.85188">
        <ele>692.4</ele>
        <time>2022-06-26T07:18:40Z</time>
      </trkpt>
      <trkpt lat="48.03321" lon="6.85189">
        <ele>692.6</ele>
        <time>2022-06-26T07:18:41Z</time>
      </trkpt>
      <trkpt lat="48.03322" lon="6.85191">
        <ele>692.8</ele>
        <time>2022-06-26T07:18:42Z</time>
      </trkpt>
      <trkpt lat="48.03324" lon="6.85192">
        <ele>692.8</ele>
        <time>2022-06-26T07:18:43Z</time>
      </trkpt>
      <trkpt lat="48.03324" lon="6.85194">
        <ele>693</ele>
        <time>2022-06-26T07:18:44Z</time>
      </trkpt>
      <trkpt lat="48.03326" lon="6.85196">
        <ele>693.2</ele>
        <time>2022-06-26T07:18:45Z</time>
      </trkpt>
      <trkpt lat="48.03327" lon="6.85197">
        <ele>693.4</ele>
        <time>2022-06-26T07:18:46Z</time>
      </trkpt>
      <trkpt lat="48.03328" lon="6.85199">
        <ele>693.4</ele>
        <time>2022-06-26T07:18:47Z</time>
      </trkpt>
      <trkpt lat="48.0333" lon="6.852">
        <ele>693.8</ele>
        <time>2022-06-26T07:18:48Z</time>
      </trkpt>
      <trkpt lat="48.03332" lon="6.85201">
        <ele>693.8</ele>
        <time>2022-06-26T07:18:49Z</time>
      </trkpt>
      <trkpt lat="48.03334" lon="6.85203">
        <ele>694</ele>
        <time>2022-06-26T07:18:50Z</time>
      </trkpt>
      <trkpt lat="48.03335" lon="6.85204">
        <ele>694.2</ele>
        <time>2022-06-26T07:18:51Z</time>
      </trkpt>
      <trkpt lat="48.03337" lon="6.85206">
        <ele>694.2</ele>
        <time>2022-06-26T07:18:52Z</time>
      </trkpt>
      <trkpt lat="48.03338" lon="6.85208">
        <ele>694.4</ele>
        <time>2022-06-26T07:18:53Z</time>
      </trkpt>
      <trkpt lat="48.0334" lon="6.85209">
        <ele>694.4</ele>
        <time>2022-06-26T07:18:54Z</time>
      </trkpt>
      <trkpt lat="48.03341" lon="6.8521">
        <ele>694.6</ele>
        <time>2022-06-26T07:18:55Z</time>
      </trkpt>
      <trkpt lat="48.03342" lon="6.85212">
        <ele>694.8</ele>
        <time>2022-06-26T07:18:56Z</time>
      </trkpt>
      <trkpt lat="48.03344" lon="6.85213">
        <ele>695</ele>
        <time>2022-06-26T07:18:57Z</time>
      </trkpt>
      <trkpt lat="48.03345" lon="6.85215">
        <ele>695</ele>
        <time>2022-06-26T07:18:58Z</time>
      </trkpt>
      <trkpt lat="48.03346" lon="6.85217">
        <ele>695.4</ele>
        <time>2022-06-26T07:18:59Z</time>
      </trkpt>
      <trkpt lat="48.03346" lon="6.85218">
        <ele>695.6</ele>
        <time>2022-06-26T07:19:00Z</time>
      </trkpt>
      <trkpt lat="48.03347" lon="6.85221">
        <ele>695.6</ele>
        <time>2022-06-26T07:19:01Z</time>
      </trkpt>
      <trkpt lat="48.03347" lon="6.85223">
        <ele>695.8</ele>
        <time>2022-06-26T07:19:02Z</time>
      </trkpt>
      <trkpt lat="48.03347" lon="6.85225">
        <ele>696</ele>
        <time>2022-06-26T07:19:03Z</time>
      </trkpt>
      <trkpt lat="48.03347" lon="6.85227">
        <ele>696.2</ele>
        <time>2022-06-26T07:19:04Z</time>
      </trkpt>
      <trkpt lat="48.03348" lon="6.85229">
        <ele>696.2</ele>
        <time>2022-06-26T07:19:05Z</time>
      </trkpt>
      <trkpt lat="48.03348" lon="6.85232">
        <ele>696.4</ele>
        <time>2022-06-26T07:19:06Z</time>
      </trkpt>
      <trkpt lat="48.03349" lon="6.85234">
        <ele>696.6</ele>
        <time>2022-06-26T07:19:07Z</time>
      </trkpt>
      <trkpt lat="48.0335" lon="6.85235">
        <ele>697</ele>
        <time>2022-06-26T07:19:08Z</time>
      </trkpt>
      <trkpt lat="48.03351" lon="6.85237">
        <ele>697.4</ele>
        <time>2022-06-26T07:19:09Z</time>
      </trkpt>
      <trkpt lat="48.03351" lon="6.85239">
        <ele>697.4</ele>
        <time>2022-06-26T07:19:10Z</time>
      </trkpt>
      <trkpt lat="48.03349" lon="6.8524">
        <ele>697.6</ele>
        <time>2022-06-26T07:19:11Z</time>
      </trkpt>
      <trkpt lat="48.03348" lon="6.8524">
        <ele>697.8</ele>
        <time>2022-06-26T07:19:12Z</time>
      </trkpt>
      <trkpt lat="48.03348" lon="6.85241">
        <ele>698</ele>
        <time>2022-06-26T07:19:13Z</time>
      </trkpt>
      <trkpt lat="48.03349" lon="6.85242">
        <ele>698</ele>
        <time>2022-06-26T07:19:14Z</time>
      </trkpt>
      <trkpt lat="48.0335" lon="6.85242">
        <ele>698.2</ele>
        <time>2022-06-26T07:19:15Z</time>
      </trkpt>
      <trkpt lat="48.03349" lon="6.85243">
        <ele>698.2</ele>
        <time>2022-06-26T07:19:16Z</time>
      </trkpt>
      <trkpt lat="48.0335" lon="6.85245">
        <ele>698.4</ele>
        <time>2022-06-26T07:19:17Z</time>
      </trkpt>
      <trkpt lat="48.03352" lon="6.85247">
        <ele>698.4</ele>
        <time>2022-06-26T07:19:18Z</time>
      </trkpt>
      <trkpt lat="48.03353" lon="6.85249">
        <ele>698.4</ele>
        <time>2022-06-26T07:19:19Z</time>
      </trkpt>
      <trkpt lat="48.03354" lon="6.85252">
        <ele>698.8</ele>
        <time>2022-06-26T07:19:20Z</time>
      </trkpt>
      <trkpt lat="48.03355" lon="6.85254">
        <ele>699</ele>
        <time>2022-06-26T07:19:21Z</time>
      </trkpt>
      <trkpt lat="48.03356" lon="6.85256">
        <ele>699.2</ele>
        <time>2022-06-26T07:19:22Z</time>
      </trkpt>
      <trkpt lat="48.03356" lon="6.85258">
        <ele>699.2</ele>
        <time>2022-06-26T07:19:23Z</time>
      </trkpt>
      <trkpt lat="48.03357" lon="6.8526">
        <ele>699.6</ele>
        <time>2022-06-26T07:19:24Z</time>
      </trkpt>
      <trkpt lat="48.03357" lon="6.85262">
        <ele>699.6</ele>
        <time>2022-06-26T07:19:25Z</time>
      </trkpt>
      <trkpt lat="48.03357" lon="6.85264">
        <ele>699.8</ele>
        <time>2022-06-26T07:19:26Z</time>
      </trkpt>
      <trkpt lat="48.03358" lon="6.85267">
        <ele>700.2</ele>
        <time>2022-06-26T07:19:27Z</time>
      </trkpt>
      <trkpt lat="48.03358" lon="6.85268">
        <ele>700.4</ele>
        <time>2022-06-26T07:19:28Z</time>
      </trkpt>
      <trkpt lat="48.03358" lon="6.8527">
        <ele>700.6</ele>
        <time>2022-06-26T07:19:29Z</time>
      </trkpt>
      <trkpt lat="48.03359" lon="6.85272">
        <ele>700.6</ele>
        <time>2022-06-26T07:19:30Z</time>
      </trkpt>
      <trkpt lat="48.0336" lon="6.85274">
        <ele>700.8</ele>
        <time>2022-06-26T07:19:31Z</time>
      </trkpt>
      <trkpt lat="48.03361" lon="6.85276">
        <ele>701</ele>
        <time>2022-06-26T07:19:32Z</time>
      </trkpt>
      <trkpt lat="48.03362" lon="6.85278">
        <ele>701.2</ele>
        <time>2022-06-26T07:19:33Z</time>
      </trkpt>
      <trkpt lat="48.03362" lon="6.85279">
        <ele>701.4</ele>
        <time>2022-06-26T07:19:34Z</time>
      </trkpt>
      <trkpt lat="48.03363" lon="6.85281">
        <ele>701.6</ele>
        <time>2022-06-26T07:19:35Z</time>
      </trkpt>
      <trkpt lat="48.03364" lon="6.85283">
        <ele>702</ele>
        <time>2022-06-26T07:19:36Z</time>
      </trkpt>
      <trkpt lat="48.03364" lon="6.85284">
        <ele>702</ele>
        <time>2022-06-26T07:19:37Z</time>
      </trkpt>
      <trkpt lat="48.03365" lon="6.85285">
        <ele>702.4</ele>
        <time>2022-06-26T07:19:38Z</time>
      </trkpt>
      <trkpt lat="48.03366" lon="6.85286">
        <ele>702.4</ele>
        <time>2022-06-26T07:19:39Z</time>
      </trkpt>
      <trkpt lat="48.03366" lon="6.85288">
        <ele>702.6</ele>
        <time>2022-06-26T07:19:40Z</time>
      </trkpt>
      <trkpt lat="48.03367" lon="6.8529">
        <ele>702.8</ele>
        <time>2022-06-26T07:19:41Z</time>
      </trkpt>
      <trkpt lat="48.03368" lon="6.85291">
        <ele>703</ele>
        <time>2022-06-26T07:19:42Z</time>
      </trkpt>
      <trkpt lat="48.03368" lon="6.85293">
        <ele>703</ele>
        <time>2022-06-26T07:19:43Z</time>
      </trkpt>
      <trkpt lat="48.03368" lon="6.85295">
        <ele>703.4</ele>
        <time>2022-06-26T07:19:44Z</time>
      </trkpt>
      <trkpt lat="48.03368" lon="6.85296">
        <ele>703.6</ele>
        <time>2022-06-26T07:19:45Z</time>
      </trkpt>
      <trkpt lat="48.03369" lon="6.85298">
        <ele>703.8</ele>
        <time>2022-06-26T07:19:46Z</time>
      </trkpt>
      <trkpt lat="48.03369" lon="6.853">
        <ele>704</ele>
        <time>2022-06-26T07:19:47Z</time>
      </trkpt>
      <trkpt lat="48.0337" lon="6.85301">
        <ele>704</ele>
        <time>2022-06-26T07:19:48Z</time>
      </trkpt>
      <trkpt lat="48.0337" lon="6.85303">
        <ele>704.4</ele>
        <time>2022-06-26T07:19:49Z</time>
      </trkpt>
      <trkpt lat="48.03371" lon="6.85304">
        <ele>704.6</ele>
        <time>2022-06-26T07:19:50Z</time>
      </trkpt>
      <trkpt lat="48.03371" lon="6.85306">
        <ele>704.6</ele>
        <time>2022-06-26T07:19:51Z</time>
      </trkpt>
      <trkpt lat="48.03372" lon="6.85307">
        <ele>704.8</ele>
        <time>2022-06-26T07:19:52Z</time>
      </trkpt>
      <trkpt lat="48.03373" lon="6.85309">
        <ele>704.8</ele>
        <time>2022-06-26T07:19:53Z</time>
      </trkpt>
      <trkpt lat="48.03373" lon="6.85311">
        <ele>705.2</ele>
        <time>2022-06-26T07:19:54Z</time>
      </trkpt>
      <trkpt lat="48.03374" lon="6.85313">
        <ele>705.2</ele>
        <time>2022-06-26T07:19:55Z</time>
      </trkpt>
      <trkpt lat="48.03374" lon="6.85315">
        <ele>705.6</ele>
        <time>2022-06-26T07:19:56Z</time>
      </trkpt>
      <trkpt lat="48.03375" lon="6.85317">
        <ele>705.8</ele>
        <time>2022-06-26T07:19:57Z</time>
      </trkpt>
      <trkpt lat="48.03375" lon="6.85319">
        <ele>706</ele>
        <time>2022-06-26T07:19:58Z</time>
      </trkpt>
      <trkpt lat="48.03375" lon="6.85321">
        <ele>706</ele>
        <time>2022-06-26T07:19:59Z</time>
      </trkpt>
      <trkpt lat="48.03375" lon="6.85323">
        <ele>706.2</ele>
        <time>2022-06-26T07:20:00Z</time>
      </trkpt>
      <trkpt lat="48.03375" lon="6.85324">
        <ele>706.4</ele>
        <time>2022-06-26T07:20:01Z</time>
      </trkpt>
      <trkpt lat="48.03376" lon="6.85327">
        <ele>706.6</ele>
        <time>2022-06-26T07:20:02Z</time>
      </trkpt>
      <trkpt lat="48.03376" lon="6.85329">
        <ele>706.6</ele>
        <time>2022-06-26T07:20:03Z</time>
      </trkpt>
      <trkpt lat="48.03376" lon="6.85331">
        <ele>706.8</ele>
        <time>2022-06-26T07:20:04Z</time>
      </trkpt>
      <trkpt lat="48.03376" lon="6.85333">
        <ele>707.2</ele>
        <time>2022-06-26T07:20:05Z</time>
      </trkpt>
      <trkpt lat="48.03377" lon="6.85335">
        <ele>707.4</ele>
        <time>2022-06-26T07:20:06Z</time>
      </trkpt>
      <trkpt lat="48.03377" lon="6.85337">
        <ele>707.6</ele>
        <time>2022-06-26T07:20:07Z</time>
      </trkpt>
      <trkpt lat="48.03377" lon="6.85338">
        <ele>707.6</ele>
        <time>2022-06-26T07:20:08Z</time>
      </trkpt>
      <trkpt lat="48.03377" lon="6.8534">
        <ele>707.8</ele>
        <time>2022-06-26T07:20:09Z</time>
      </trkpt>
      <trkpt lat="48.03377" lon="6.85342">
        <ele>708</ele>
        <time>2022-06-26T07:20:10Z</time>
      </trkpt>
      <trkpt lat="48.03377" lon="6.85343">
        <ele>708.4</ele>
        <time>2022-06-26T07:20:11Z</time>
      </trkpt>
      <trkpt lat="48.03377" lon="6.85345">
        <ele>708.6</ele>
        <time>2022-06-26T07:20:12Z</time>
      </trkpt>
      <trkpt lat="48.03378" lon="6.85346">
        <ele>708.6</ele>
        <time>2022-06-26T07:20:13Z</time>
      </trkpt>
      <trkpt lat="48.03377" lon="6.85348">
        <ele>708.8</ele>
        <time>2022-06-26T07:20:14Z</time>
      </trkpt>
      <trkpt lat="48.03377" lon="6.8535">
        <ele>708.8</ele>
        <time>2022-06-26T07:20:15Z</time>
      </trkpt>
      <trkpt lat="48.03377" lon="6.85351">
        <ele>709</ele>
        <time>2022-06-26T07:20:16Z</time>
      </trkpt>
      <trkpt lat="48.03377" lon="6.85353">
        <ele>709.4</ele>
        <time>2022-06-26T07:20:17Z</time>
      </trkpt>
      <trkpt lat="48.03376" lon="6.85354">
        <ele>709.6</ele>
        <time>2022-06-26T07:20:18Z</time>
      </trkpt>
      <trkpt lat="48.03375" lon="6.85356">
        <ele>709.8</ele>
        <time>2022-06-26T07:20:19Z</time>
      </trkpt>
      <trkpt lat="48.03374" lon="6.85358">
        <ele>710</ele>
        <time>2022-06-26T07:20:20Z</time>
      </trkpt>
      <trkpt lat="48.03374" lon="6.85359">
        <ele>710.4</ele>
        <time>2022-06-26T07:20:21Z</time>
      </trkpt>
      <trkpt lat="48.03373" lon="6.8536">
        <ele>710.4</ele>
        <time>2022-06-26T07:20:22Z</time>
      </trkpt>
      <trkpt lat="48.03371" lon="6.85361">
        <ele>710.8</ele>
        <time>2022-06-26T07:20:23Z</time>
      </trkpt>
      <trkpt lat="48.03371" lon="6.85363">
        <ele>710.8</ele>
        <time>2022-06-26T07:20:24Z</time>
      </trkpt>
      <trkpt lat="48.0337" lon="6.85365">
        <ele>711</ele>
        <time>2022-06-26T07:20:25Z</time>
      </trkpt>
      <trkpt lat="48.03369" lon="6.85366">
        <ele>711.2</ele>
        <time>2022-06-26T07:20:26Z</time>
      </trkpt>
      <trkpt lat="48.03366" lon="6.85367">
        <ele>711.6</ele>
        <time>2022-06-26T07:20:27Z</time>
      </trkpt>
      <trkpt lat="48.03365" lon="6.85368">
        <ele>711.6</ele>
        <time>2022-06-26T07:20:28Z</time>
      </trkpt>
      <trkpt lat="48.03364" lon="6.8537">
        <ele>711.8</ele>
        <time>2022-06-26T07:20:29Z</time>
      </trkpt>
      <trkpt lat="48.03364" lon="6.85372">
        <ele>711.8</ele>
        <time>2022-06-26T07:20:30Z</time>
      </trkpt>
      <trkpt lat="48.03363" lon="6.85373">
        <ele>712</ele>
        <time>2022-06-26T07:20:31Z</time>
      </trkpt>
      <trkpt lat="48.03363" lon="6.85375">
        <ele>712.2</ele>
        <time>2022-06-26T07:20:32Z</time>
      </trkpt>
      <trkpt lat="48.03363" lon="6.85379">
        <ele>712.2</ele>
        <time>2022-06-26T07:20:33Z</time>
      </trkpt>
      <trkpt lat="48.03362" lon="6.85382">
        <ele>712.6</ele>
        <time>2022-06-26T07:20:34Z</time>
      </trkpt>
      <trkpt lat="48.0336" lon="6.85384">
        <ele>712.6</ele>
        <time>2022-06-26T07:20:35Z</time>
      </trkpt>
      <trkpt lat="48.0336" lon="6.85384">
        <ele>713</ele>
        <time>2022-06-26T07:20:36Z</time>
      </trkpt>
      <trkpt lat="48.0336" lon="6.85386">
        <ele>713</ele>
        <time>2022-06-26T07:20:37Z</time>
      </trkpt>
      <trkpt lat="48.03359" lon="6.85387">
        <ele>713.2</ele>
        <time>2022-06-26T07:20:38Z</time>
      </trkpt>
      <trkpt lat="48.03359" lon="6.85388">
        <ele>713.2</ele>
        <time>2022-06-26T07:20:39Z</time>
      </trkpt>
      <trkpt lat="48.03359" lon="6.85389">
        <ele>713.4</ele>
        <time>2022-06-26T07:20:40Z</time>
      </trkpt>
      <trkpt lat="48.03359" lon="6.8539">
        <ele>713.4</ele>
        <time>2022-06-26T07:20:41Z</time>
      </trkpt>
      <trkpt lat="48.03359" lon="6.85392">
        <ele>713.6</ele>
        <time>2022-06-26T07:20:42Z</time>
      </trkpt>
      <trkpt lat="48.03359" lon="6.85393">
        <ele>713.8</ele>
        <time>2022-06-26T07:20:43Z</time>
      </trkpt>
      <trkpt lat="48.03359" lon="6.85396">
        <ele>713.8</ele>
        <time>2022-06-26T07:20:44Z</time>
      </trkpt>
      <trkpt lat="48.03359" lon="6.85399">
        <ele>714.2</ele>
        <time>2022-06-26T07:20:45Z</time>
      </trkpt>
      <trkpt lat="48.03359" lon="6.854">
        <ele>714.2</ele>
        <time>2022-06-26T07:20:46Z</time>
      </trkpt>
      <trkpt lat="48.0336" lon="6.85402">
        <ele>714.6</ele>
        <time>2022-06-26T07:20:47Z</time>
      </trkpt>
      <trkpt lat="48.03361" lon="6.85405">
        <ele>714.8</ele>
        <time>2022-06-26T07:20:48Z</time>
      </trkpt>
      <trkpt lat="48.03361" lon="6.85407">
        <ele>714.8</ele>
        <time>2022-06-26T07:20:49Z</time>
      </trkpt>
      <trkpt lat="48.03362" lon="6.85409">
        <ele>715.2</ele>
        <time>2022-06-26T07:20:50Z</time>
      </trkpt>
      <trkpt lat="48.03362" lon="6.8541">
        <ele>715.2</ele>
        <time>2022-06-26T07:20:51Z</time>
      </trkpt>
      <trkpt lat="48.03364" lon="6.85412">
        <ele>715.6</ele>
        <time>2022-06-26T07:20:52Z</time>
      </trkpt>
      <trkpt lat="48.03365" lon="6.85414">
        <ele>715.6</ele>
        <time>2022-06-26T07:20:53Z</time>
      </trkpt>
      <trkpt lat="48.03366" lon="6.85415">
        <ele>715.8</ele>
        <time>2022-06-26T07:20:54Z</time>
      </trkpt>
      <trkpt lat="48.03366" lon="6.85416">
        <ele>716</ele>
        <time>2022-06-26T07:20:55Z</time>
      </trkpt>
      <trkpt lat="48.03367" lon="6.85418">
        <ele>716.2</ele>
        <time>2022-06-26T07:20:56Z</time>
      </trkpt>
      <trkpt lat="48.03368" lon="6.8542">
        <ele>716.6</ele>
        <time>2022-06-26T07:20:57Z</time>
      </trkpt>
      <trkpt lat="48.03369" lon="6.85422">
        <ele>716.4</ele>
        <time>2022-06-26T07:20:58Z</time>
      </trkpt>
      <trkpt lat="48.0337" lon="6.85424">
        <ele>716.6</ele>
        <time>2022-06-26T07:20:59Z</time>
      </trkpt>
      <trkpt lat="48.03372" lon="6.85426">
        <ele>716.6</ele>
        <time>2022-06-26T07:21:00Z</time>
      </trkpt>
      <trkpt lat="48.03373" lon="6.85428">
        <ele>717</ele>
        <time>2022-06-26T07:21:01Z</time>
      </trkpt>
      <trkpt lat="48.03374" lon="6.85429">
        <ele>717.2</ele>
        <time>2022-06-26T07:21:02Z</time>
      </trkpt>
      <trkpt lat="48.03375" lon="6.85431">
        <ele>717.4</ele>
        <time>2022-06-26T07:21:03Z</time>
      </trkpt>
      <trkpt lat="48.03376" lon="6.85433">
        <ele>717.4</ele>
        <time>2022-06-26T07:21:04Z</time>
      </trkpt>
      <trkpt lat="48.03378" lon="6.85435">
        <ele>717.8</ele>
        <time>2022-06-26T07:21:05Z</time>
      </trkpt>
      <trkpt lat="48.03379" lon="6.85437">
        <ele>717.8</ele>
        <time>2022-06-26T07:21:06Z</time>
      </trkpt>
      <trkpt lat="48.03379" lon="6.85438">
        <ele>718</ele>
        <time>2022-06-26T07:21:07Z</time>
      </trkpt>
      <trkpt lat="48.0338" lon="6.85439">
        <ele>718.4</ele>
        <time>2022-06-26T07:21:08Z</time>
      </trkpt>
      <trkpt lat="48.03381" lon="6.85441">
        <ele>718.4</ele>
        <time>2022-06-26T07:21:09Z</time>
      </trkpt>
      <trkpt lat="48.03381" lon="6.85442">
        <ele>718.8</ele>
        <time>2022-06-26T07:21:10Z</time>
      </trkpt>
      <trkpt lat="48.03383" lon="6.85444">
        <ele>718.8</ele>
        <time>2022-06-26T07:21:11Z</time>
      </trkpt>
      <trkpt lat="48.03384" lon="6.85445">
        <ele>719</ele>
        <time>2022-06-26T07:21:12Z</time>
      </trkpt>
      <trkpt lat="48.03385" lon="6.85446">
        <ele>719</ele>
        <time>2022-06-26T07:21:13Z</time>
      </trkpt>
      <trkpt lat="48.03386" lon="6.85448">
        <ele>719.2</ele>
        <time>2022-06-26T07:21:14Z</time>
      </trkpt>
      <trkpt lat="48.03388" lon="6.8545">
        <ele>719.4</ele>
        <time>2022-06-26T07:21:15Z</time>
      </trkpt>
      <trkpt lat="48.03388" lon="6.85452">
        <ele>719.6</ele>
        <time>2022-06-26T07:21:16Z</time>
      </trkpt>
      <trkpt lat="48.03389" lon="6.85454">
        <ele>719.8</ele>
        <time>2022-06-26T07:21:17Z</time>
      </trkpt>
      <trkpt lat="48.03389" lon="6.85456">
        <ele>720</ele>
        <time>2022-06-26T07:21:18Z</time>
      </trkpt>
      <trkpt lat="48.0339" lon="6.85458">
        <ele>720.4</ele>
        <time>2022-06-26T07:21:19Z</time>
      </trkpt>
      <trkpt lat="48.03391" lon="6.8546">
        <ele>720.4</ele>
        <time>2022-06-26T07:21:20Z</time>
      </trkpt>
      <trkpt lat="48.03391" lon="6.85461">
        <ele>720.6</ele>
        <time>2022-06-26T07:21:21Z</time>
      </trkpt>
      <trkpt lat="48.03392" lon="6.85463">
        <ele>720.6</ele>
        <time>2022-06-26T07:21:22Z</time>
      </trkpt>
      <trkpt lat="48.03393" lon="6.85465">
        <ele>721</ele>
        <time>2022-06-26T07:21:23Z</time>
      </trkpt>
      <trkpt lat="48.03395" lon="6.85467">
        <ele>721.2</ele>
        <time>2022-06-26T07:21:24Z</time>
      </trkpt>
      <trkpt lat="48.03395" lon="6.85468">
        <ele>721.4</ele>
        <time>2022-06-26T07:21:25Z</time>
      </trkpt>
      <trkpt lat="48.03396" lon="6.8547">
        <ele>721.6</ele>
        <time>2022-06-26T07:21:26Z</time>
      </trkpt>
      <trkpt lat="48.03398" lon="6.85473">
        <ele>721.8</ele>
        <time>2022-06-26T07:21:27Z</time>
      </trkpt>
      <trkpt lat="48.03399" lon="6.85475">
        <ele>722</ele>
        <time>2022-06-26T07:21:28Z</time>
      </trkpt>
      <trkpt lat="48.034" lon="6.85476">
        <ele>722.2</ele>
        <time>2022-06-26T07:21:29Z</time>
      </trkpt>
      <trkpt lat="48.03401" lon="6.85478">
        <ele>722.4</ele>
        <time>2022-06-26T07:21:30Z</time>
      </trkpt>
      <trkpt lat="48.03402" lon="6.8548">
        <ele>722.4</ele>
        <time>2022-06-26T07:21:31Z</time>
      </trkpt>
      <trkpt lat="48.03402" lon="6.85482">
        <ele>722.4</ele>
        <time>2022-06-26T07:21:32Z</time>
      </trkpt>
      <trkpt lat="48.03402" lon="6.85484">
        <ele>722.8</ele>
        <time>2022-06-26T07:21:33Z</time>
      </trkpt>
      <trkpt lat="48.03403" lon="6.85486">
        <ele>722.8</ele>
        <time>2022-06-26T07:21:34Z</time>
      </trkpt>
      <trkpt lat="48.03404" lon="6.85487">
        <ele>723</ele>
        <time>2022-06-26T07:21:35Z</time>
      </trkpt>
      <trkpt lat="48.03405" lon="6.85489">
        <ele>723.2</ele>
        <time>2022-06-26T07:21:36Z</time>
      </trkpt>
      <trkpt lat="48.03406" lon="6.85491">
        <ele>723.4</ele>
        <time>2022-06-26T07:21:37Z</time>
      </trkpt>
      <trkpt lat="48.03406" lon="6.85494">
        <ele>723.4</ele>
        <time>2022-06-26T07:21:38Z</time>
      </trkpt>
      <trkpt lat="48.03407" lon="6.85496">
        <ele>723.6</ele>
        <time>2022-06-26T07:21:39Z</time>
      </trkpt>
      <trkpt lat="48.03408" lon="6.85498">
        <ele>723.8</ele>
        <time>2022-06-26T07:21:40Z</time>
      </trkpt>
      <trkpt lat="48.03408" lon="6.85501">
        <ele>724</ele>
        <time>2022-06-26T07:21:41Z</time>
      </trkpt>
      <trkpt lat="48.03409" lon="6.85503">
        <ele>723.8</ele>
        <time>2022-06-26T07:21:42Z</time>
      </trkpt>
      <trkpt lat="48.03409" lon="6.85505">
        <ele>723.8</ele>
        <time>2022-06-26T07:21:43Z</time>
      </trkpt>
      <trkpt lat="48.0341" lon="6.85507">
        <ele>724.2</ele>
        <time>2022-06-26T07:21:44Z</time>
      </trkpt>
      <trkpt lat="48.03411" lon="6.85509">
        <ele>724.4</ele>
        <time>2022-06-26T07:21:45Z</time>
      </trkpt>
      <trkpt lat="48.03412" lon="6.85512">
        <ele>724.6</ele>
        <time>2022-06-26T07:21:46Z</time>
      </trkpt>
      <trkpt lat="48.03413" lon="6.85514">
        <ele>724.6</ele>
        <time>2022-06-26T07:21:47Z</time>
      </trkpt>
      <trkpt lat="48.03414" lon="6.85516">
        <ele>724.6</ele>
        <time>2022-06-26T07:21:48Z</time>
      </trkpt>
      <trkpt lat="48.03414" lon="6.85518">
        <ele>724.8</ele>
        <time>2022-06-26T07:21:49Z</time>
      </trkpt>
      <trkpt lat="48.03415" lon="6.8552">
        <ele>725</ele>
        <time>2022-06-26T07:21:50Z</time>
      </trkpt>
      <trkpt lat="48.03416" lon="6.85522">
        <ele>725.2</ele>
        <time>2022-06-26T07:21:51Z</time>
      </trkpt>
      <trkpt lat="48.03417" lon="6.85524">
        <ele>725.2</ele>
        <time>2022-06-26T07:21:52Z</time>
      </trkpt>
      <trkpt lat="48.03418" lon="6.85526">
        <ele>725.4</ele>
        <time>2022-06-26T07:21:53Z</time>
      </trkpt>
      <trkpt lat="48.03419" lon="6.85528">
        <ele>725.6</ele>
        <time>2022-06-26T07:21:54Z</time>
      </trkpt>
      <trkpt lat="48.03419" lon="6.8553">
        <ele>725.8</ele>
        <time>2022-06-26T07:21:55Z</time>
      </trkpt>
      <trkpt lat="48.0342" lon="6.85532">
        <ele>726</ele>
        <time>2022-06-26T07:21:56Z</time>
      </trkpt>
      <trkpt lat="48.0342" lon="6.85533">
        <ele>726.2</ele>
        <time>2022-06-26T07:21:57Z</time>
      </trkpt>
      <trkpt lat="48.03421" lon="6.85535">
        <ele>726.4</ele>
        <time>2022-06-26T07:21:58Z</time>
      </trkpt>
      <trkpt lat="48.03422" lon="6.85537">
        <ele>726.4</ele>
        <time>2022-06-26T07:21:59Z</time>
      </trkpt>
      <trkpt lat="48.03424" lon="6.85539">
        <ele>726.6</ele>
        <time>2022-06-26T07:22:00Z</time>
      </trkpt>
      <trkpt lat="48.03425" lon="6.85541">
        <ele>726.8</ele>
        <time>2022-06-26T07:22:01Z</time>
      </trkpt>
      <trkpt lat="48.03426" lon="6.85543">
        <ele>727</ele>
        <time>2022-06-26T07:22:02Z</time>
      </trkpt>
      <trkpt lat="48.03427" lon="6.85545">
        <ele>726.8</ele>
        <time>2022-06-26T07:22:03Z</time>
      </trkpt>
      <trkpt lat="48.03427" lon="6.85547">
        <ele>727</ele>
        <time>2022-06-26T07:22:04Z</time>
      </trkpt>
      <trkpt lat="48.03428" lon="6.85548">
        <ele>727.2</ele>
        <time>2022-06-26T07:22:05Z</time>
      </trkpt>
      <trkpt lat="48.03429" lon="6.8555">
        <ele>727.4</ele>
        <time>2022-06-26T07:22:06Z</time>
      </trkpt>
      <trkpt lat="48.0343" lon="6.85551">
        <ele>727.6</ele>
        <time>2022-06-26T07:22:07Z</time>
      </trkpt>
      <trkpt lat="48.03431" lon="6.85553">
        <ele>727.8</ele>
        <time>2022-06-26T07:22:08Z</time>
      </trkpt>
      <trkpt lat="48.03431" lon="6.85555">
        <ele>728</ele>
        <time>2022-06-26T07:22:09Z</time>
      </trkpt>
      <trkpt lat="48.03432" lon="6.85556">
        <ele>728.2</ele>
        <time>2022-06-26T07:22:10Z</time>
      </trkpt>
      <trkpt lat="48.03432" lon="6.85558">
        <ele>728.4</ele>
        <time>2022-06-26T07:22:11Z</time>
      </trkpt>
      <trkpt lat="48.03433" lon="6.8556">
        <ele>728.6</ele>
        <time>2022-06-26T07:22:12Z</time>
      </trkpt>
      <trkpt lat="48.03433" lon="6.85563">
        <ele>728.8</ele>
        <time>2022-06-26T07:22:13Z</time>
      </trkpt>
      <trkpt lat="48.03433" lon="6.85565">
        <ele>729</ele>
        <time>2022-06-26T07:22:14Z</time>
      </trkpt>
      <trkpt lat="48.03433" lon="6.85567">
        <ele>729.2</ele>
        <time>2022-06-26T07:22:15Z</time>
      </trkpt>
      <trkpt lat="48.03434" lon="6.8557">
        <ele>729.4</ele>
        <time>2022-06-26T07:22:16Z</time>
      </trkpt>
      <trkpt lat="48.03435" lon="6.85572">
        <ele>729.4</ele>
        <time>2022-06-26T07:22:17Z</time>
      </trkpt>
      <trkpt lat="48.03436" lon="6.85574">
        <ele>729.6</ele>
        <time>2022-06-26T07:22:18Z</time>
      </trkpt>
      <trkpt lat="48.03437" lon="6.85576">
        <ele>729.6</ele>
        <time>2022-06-26T07:22:19Z</time>
      </trkpt>
      <trkpt lat="48.03437" lon="6.85577">
        <ele>729.8</ele>
        <time>2022-06-26T07:22:20Z</time>
      </trkpt>
      <trkpt lat="48.03438" lon="6.85579">
        <ele>730</ele>
        <time>2022-06-26T07:22:21Z</time>
      </trkpt>
      <trkpt lat="48.03439" lon="6.8558">
        <ele>730.2</ele>
        <time>2022-06-26T07:22:22Z</time>
      </trkpt>
      <trkpt lat="48.0344" lon="6.85582">
        <ele>730.2</ele>
        <time>2022-06-26T07:22:23Z</time>
      </trkpt>
      <trkpt lat="48.03442" lon="6.85584">
        <ele>730.4</ele>
        <time>2022-06-26T07:22:24Z</time>
      </trkpt>
      <trkpt lat="48.03443" lon="6.85586">
        <ele>730.2</ele>
        <time>2022-06-26T07:22:25Z</time>
      </trkpt>
      <trkpt lat="48.03443" lon="6.85588">
        <ele>730.4</ele>
        <time>2022-06-26T07:22:26Z</time>
      </trkpt>
      <trkpt lat="48.03444" lon="6.8559">
        <ele>730.8</ele>
        <time>2022-06-26T07:22:27Z</time>
      </trkpt>
      <trkpt lat="48.03445" lon="6.85591">
        <ele>731</ele>
        <time>2022-06-26T07:22:28Z</time>
      </trkpt>
      <trkpt lat="48.03446" lon="6.85592">
        <ele>731.2</ele>
        <time>2022-06-26T07:22:29Z</time>
      </trkpt>
      <trkpt lat="48.03446" lon="6.85594">
        <ele>731.2</ele>
        <time>2022-06-26T07:22:30Z</time>
      </trkpt>
      <trkpt lat="48.03447" lon="6.85596">
        <ele>731.6</ele>
        <time>2022-06-26T07:22:31Z</time>
      </trkpt>
      <trkpt lat="48.03448" lon="6.85598">
        <ele>731.6</ele>
        <time>2022-06-26T07:22:32Z</time>
      </trkpt>
      <trkpt lat="48.03449" lon="6.856">
        <ele>731.8</ele>
        <time>2022-06-26T07:22:33Z</time>
      </trkpt>
      <trkpt lat="48.03451" lon="6.85602">
        <ele>731.6</ele>
        <time>2022-06-26T07:22:34Z</time>
      </trkpt>
      <trkpt lat="48.03451" lon="6.85605">
        <ele>731.8</ele>
        <time>2022-06-26T07:22:35Z</time>
      </trkpt>
      <trkpt lat="48.03452" lon="6.85607">
        <ele>732</ele>
        <time>2022-06-26T07:22:36Z</time>
      </trkpt>
      <trkpt lat="48.03453" lon="6.85609">
        <ele>732.2</ele>
        <time>2022-06-26T07:22:37Z</time>
      </trkpt>
      <trkpt lat="48.03454" lon="6.85611">
        <ele>732.4</ele>
        <time>2022-06-26T07:22:38Z</time>
      </trkpt>
      <trkpt lat="48.03454" lon="6.85613">
        <ele>732.6</ele>
        <time>2022-06-26T07:22:39Z</time>
      </trkpt>
      <trkpt lat="48.03455" lon="6.85615">
        <ele>732.8</ele>
        <time>2022-06-26T07:22:40Z</time>
      </trkpt>
      <trkpt lat="48.03456" lon="6.85618">
        <ele>733</ele>
        <time>2022-06-26T07:22:41Z</time>
      </trkpt>
      <trkpt lat="48.03458" lon="6.8562">
        <ele>733.2</ele>
        <time>2022-06-26T07:22:42Z</time>
      </trkpt>
      <trkpt lat="48.03459" lon="6.85622">
        <ele>733.2</ele>
        <time>2022-06-26T07:22:43Z</time>
      </trkpt>
      <trkpt lat="48.03459" lon="6.85623">
        <ele>733.6</ele>
        <time>2022-06-26T07:22:44Z</time>
      </trkpt>
      <trkpt lat="48.0346" lon="6.85625">
        <ele>733.8</ele>
        <time>2022-06-26T07:22:45Z</time>
      </trkpt>
      <trkpt lat="48.03461" lon="6.85627">
        <ele>734</ele>
        <time>2022-06-26T07:22:46Z</time>
      </trkpt>
      <trkpt lat="48.03463" lon="6.85629">
        <ele>734.2</ele>
        <time>2022-06-26T07:22:47Z</time>
      </trkpt>
      <trkpt lat="48.03463" lon="6.85631">
        <ele>734.2</ele>
        <time>2022-06-26T07:22:48Z</time>
      </trkpt>
      <trkpt lat="48.03464" lon="6.85633">
        <ele>734.4</ele>
        <time>2022-06-26T07:22:49Z</time>
      </trkpt>
      <trkpt lat="48.03465" lon="6.85635">
        <ele>734.4</ele>
        <time>2022-06-26T07:22:50Z</time>
      </trkpt>
      <trkpt lat="48.03466" lon="6.85637">
        <ele>734.8</ele>
        <time>2022-06-26T07:22:51Z</time>
      </trkpt>
      <trkpt lat="48.03467" lon="6.85639">
        <ele>734.8</ele>
        <time>2022-06-26T07:22:52Z</time>
      </trkpt>
      <trkpt lat="48.03468" lon="6.85641">
        <ele>735</ele>
        <time>2022-06-26T07:22:53Z</time>
      </trkpt>
      <trkpt lat="48.03469" lon="6.85643">
        <ele>735.4</ele>
        <time>2022-06-26T07:22:54Z</time>
      </trkpt>
      <trkpt lat="48.0347" lon="6.85645">
        <ele>735.6</ele>
        <time>2022-06-26T07:22:55Z</time>
      </trkpt>
      <trkpt lat="48.03471" lon="6.85646">
        <ele>735.6</ele>
        <time>2022-06-26T07:22:56Z</time>
      </trkpt>
      <trkpt lat="48.03472" lon="6.85648">
        <ele>735.8</ele>
        <time>2022-06-26T07:22:57Z</time>
      </trkpt>
      <trkpt lat="48.03474" lon="6.85649">
        <ele>736</ele>
        <time>2022-06-26T07:22:58Z</time>
      </trkpt>
      <trkpt lat="48.03475" lon="6.85651">
        <ele>736</ele>
        <time>2022-06-26T07:22:59Z</time>
      </trkpt>
      <trkpt lat="48.03476" lon="6.85652">
        <ele>736.2</ele>
        <time>2022-06-26T07:23:00Z</time>
      </trkpt>
      <trkpt lat="48.03476" lon="6.85654">
        <ele>736.4</ele>
        <time>2022-06-26T07:23:01Z</time>
      </trkpt>
      <trkpt lat="48.03477" lon="6.85656">
        <ele>736.8</ele>
        <time>2022-06-26T07:23:02Z</time>
      </trkpt>
      <trkpt lat="48.03478" lon="6.85657">
        <ele>736.8</ele>
        <time>2022-06-26T07:23:03Z</time>
      </trkpt>
      <trkpt lat="48.03479" lon="6.85659">
        <ele>737.2</ele>
        <time>2022-06-26T07:23:04Z</time>
      </trkpt>
      <trkpt lat="48.0348" lon="6.8566">
        <ele>737.4</ele>
        <time>2022-06-26T07:23:05Z</time>
      </trkpt>
      <trkpt lat="48.03481" lon="6.85662">
        <ele>737.6</ele>
        <time>2022-06-26T07:23:06Z</time>
      </trkpt>
      <trkpt lat="48.03482" lon="6.85663">
        <ele>737.8</ele>
        <time>2022-06-26T07:23:07Z</time>
      </trkpt>
      <trkpt lat="48.03483" lon="6.85664">
        <ele>737.8</ele>
        <time>2022-06-26T07:23:08Z</time>
      </trkpt>
      <trkpt lat="48.03483" lon="6.85666">
        <ele>738</ele>
        <time>2022-06-26T07:23:09Z</time>
      </trkpt>
      <trkpt lat="48.03484" lon="6.85668">
        <ele>738</ele>
        <time>2022-06-26T07:23:10Z</time>
      </trkpt>
      <trkpt lat="48.03484" lon="6.8567">
        <ele>738.2</ele>
        <time>2022-06-26T07:23:11Z</time>
      </trkpt>
      <trkpt lat="48.03485" lon="6.85672">
        <ele>738.4</ele>
        <time>2022-06-26T07:23:12Z</time>
      </trkpt>
      <trkpt lat="48.03485" lon="6.85673">
        <ele>738.6</ele>
        <time>2022-06-26T07:23:13Z</time>
      </trkpt>
      <trkpt lat="48.03486" lon="6.85675">
        <ele>738.8</ele>
        <time>2022-06-26T07:23:14Z</time>
      </trkpt>
      <trkpt lat="48.03487" lon="6.85676">
        <ele>739</ele>
        <time>2022-06-26T07:23:15Z</time>
      </trkpt>
      <trkpt lat="48.03488" lon="6.85677">
        <ele>739.4</ele>
        <time>2022-06-26T07:23:16Z</time>
      </trkpt>
      <trkpt lat="48.03488" lon="6.85679">
        <ele>739.4</ele>
        <time>2022-06-26T07:23:17Z</time>
      </trkpt>
      <trkpt lat="48.03489" lon="6.85679">
        <ele>739.6</ele>
        <time>2022-06-26T07:23:18Z</time>
      </trkpt>
      <trkpt lat="48.03489" lon="6.8568">
        <ele>739.8</ele>
        <time>2022-06-26T07:23:19Z</time>
      </trkpt>
      <trkpt lat="48.0349" lon="6.85682">
        <ele>740</ele>
        <time>2022-06-26T07:23:20Z</time>
      </trkpt>
      <trkpt lat="48.0349" lon="6.85684">
        <ele>740.2</ele>
        <time>2022-06-26T07:23:21Z</time>
      </trkpt>
      <trkpt lat="48.03491" lon="6.85685">
        <ele>740.6</ele>
        <time>2022-06-26T07:23:22Z</time>
      </trkpt>
      <trkpt lat="48.03491" lon="6.85686">
        <ele>740.6</ele>
        <time>2022-06-26T07:23:23Z</time>
      </trkpt>
      <trkpt lat="48.03491" lon="6.85688">
        <ele>740.8</ele>
        <time>2022-06-26T07:23:24Z</time>
      </trkpt>
      <trkpt lat="48.03492" lon="6.85689">
        <ele>741.2</ele>
        <time>2022-06-26T07:23:25Z</time>
      </trkpt>
      <trkpt lat="48.03493" lon="6.85691">
        <ele>741.2</ele>
        <time>2022-06-26T07:23:26Z</time>
      </trkpt>
      <trkpt lat="48.03493" lon="6.85693">
        <ele>741.6</ele>
        <time>2022-06-26T07:23:27Z</time>
      </trkpt>
      <trkpt lat="48.03494" lon="6.85695">
        <ele>741.6</ele>
        <time>2022-06-26T07:23:28Z</time>
      </trkpt>
      <trkpt lat="48.03494" lon="6.85697">
        <ele>741.8</ele>
        <time>2022-06-26T07:23:29Z</time>
      </trkpt>
      <trkpt lat="48.03494" lon="6.85698">
        <ele>742</ele>
        <time>2022-06-26T07:23:30Z</time>
      </trkpt>
      <trkpt lat="48.03493" lon="6.857">
        <ele>742.2</ele>
        <time>2022-06-26T07:23:31Z</time>
      </trkpt>
      <trkpt lat="48.03493" lon="6.85702">
        <ele>742.6</ele>
        <time>2022-06-26T07:23:32Z</time>
      </trkpt>
      <trkpt lat="48.03493" lon="6.85702">
        <ele>742.8</ele>
        <time>2022-06-26T07:23:33Z</time>
      </trkpt>
      <trkpt lat="48.03492" lon="6.85703">
        <ele>743</ele>
        <time>2022-06-26T07:23:34Z</time>
      </trkpt>
      <trkpt lat="48.03492" lon="6.85704">
        <ele>743</ele>
        <time>2022-06-26T07:23:35Z</time>
      </trkpt>
      <trkpt lat="48.03492" lon="6.85706">
        <ele>743.2</ele>
        <time>2022-06-26T07:23:36Z</time>
      </trkpt>
      <trkpt lat="48.03492" lon="6.85707">
        <ele>743.2</ele>
        <time>2022-06-26T07:23:37Z</time>
      </trkpt>
      <trkpt lat="48.03491" lon="6.85709">
        <ele>743.4</ele>
        <time>2022-06-26T07:23:38Z</time>
      </trkpt>
      <trkpt lat="48.03489" lon="6.85711">
        <ele>743.6</ele>
        <time>2022-06-26T07:23:39Z</time>
      </trkpt>
      <trkpt lat="48.03488" lon="6.85713">
        <ele>743.8</ele>
        <time>2022-06-26T07:23:40Z</time>
      </trkpt>
      <trkpt lat="48.03488" lon="6.85714">
        <ele>744</ele>
        <time>2022-06-26T07:23:41Z</time>
      </trkpt>
      <trkpt lat="48.03487" lon="6.85716">
        <ele>744.2</ele>
        <time>2022-06-26T07:23:42Z</time>
      </trkpt>
      <trkpt lat="48.03486" lon="6.85717">
        <ele>744.4</ele>
        <time>2022-06-26T07:23:43Z</time>
      </trkpt>
      <trkpt lat="48.03485" lon="6.85718">
        <ele>744.8</ele>
        <time>2022-06-26T07:23:44Z</time>
      </trkpt>
      <trkpt lat="48.03484" lon="6.85719">
        <ele>745</ele>
        <time>2022-06-26T07:23:45Z</time>
      </trkpt>
      <trkpt lat="48.03483" lon="6.85721">
        <ele>745</ele>
        <time>2022-06-26T07:23:46Z</time>
      </trkpt>
      <trkpt lat="48.03482" lon="6.85723">
        <ele>745.2</ele>
        <time>2022-06-26T07:23:47Z</time>
      </trkpt>
      <trkpt lat="48.0348" lon="6.85725">
        <ele>745.2</ele>
        <time>2022-06-26T07:23:48Z</time>
      </trkpt>
      <trkpt lat="48.03479" lon="6.85726">
        <ele>745.4</ele>
        <time>2022-06-26T07:23:49Z</time>
      </trkpt>
      <trkpt lat="48.03478" lon="6.85728">
        <ele>745.8</ele>
        <time>2022-06-26T07:23:50Z</time>
      </trkpt>
      <trkpt lat="48.03477" lon="6.85729">
        <ele>745.8</ele>
        <time>2022-06-26T07:23:51Z</time>
      </trkpt>
      <trkpt lat="48.03476" lon="6.85731">
        <ele>745.8</ele>
        <time>2022-06-26T07:23:52Z</time>
      </trkpt>
      <trkpt lat="48.03473" lon="6.85733">
        <ele>745.8</ele>
        <time>2022-06-26T07:23:53Z</time>
      </trkpt>
      <trkpt lat="48.03472" lon="6.85734">
        <ele>746</ele>
        <time>2022-06-26T07:23:54Z</time>
      </trkpt>
      <trkpt lat="48.0347" lon="6.85735">
        <ele>746.2</ele>
        <time>2022-06-26T07:23:55Z</time>
      </trkpt>
      <trkpt lat="48.03469" lon="6.85737">
        <ele>746.2</ele>
        <time>2022-06-26T07:23:56Z</time>
      </trkpt>
      <trkpt lat="48.03466" lon="6.85739">
        <ele>746.4</ele>
        <time>2022-06-26T07:23:57Z</time>
      </trkpt>
      <trkpt lat="48.03465" lon="6.85741">
        <ele>746.8</ele>
        <time>2022-06-26T07:23:58Z</time>
      </trkpt>
      <trkpt lat="48.03463" lon="6.85742">
        <ele>747</ele>
        <time>2022-06-26T07:23:59Z</time>
      </trkpt>
      <trkpt lat="48.03461" lon="6.85743">
        <ele>747</ele>
        <time>2022-06-26T07:24:00Z</time>
      </trkpt>
      <trkpt lat="48.03459" lon="6.85745">
        <ele>747.2</ele>
        <time>2022-06-26T07:24:01Z</time>
      </trkpt>
      <trkpt lat="48.03457" lon="6.85746">
        <ele>747.2</ele>
        <time>2022-06-26T07:24:02Z</time>
      </trkpt>
      <trkpt lat="48.03456" lon="6.85747">
        <ele>747.4</ele>
        <time>2022-06-26T07:24:03Z</time>
      </trkpt>
      <trkpt lat="48.03454" lon="6.85748">
        <ele>747.4</ele>
        <time>2022-06-26T07:24:04Z</time>
      </trkpt>
      <trkpt lat="48.03453" lon="6.85749">
        <ele>747.6</ele>
        <time>2022-06-26T07:24:05Z</time>
      </trkpt>
      <trkpt lat="48.03451" lon="6.85752">
        <ele>747.6</ele>
        <time>2022-06-26T07:24:06Z</time>
      </trkpt>
      <trkpt lat="48.0345" lon="6.85753">
        <ele>747.8</ele>
        <time>2022-06-26T07:24:07Z</time>
      </trkpt>
      <trkpt lat="48.03449" lon="6.85754">
        <ele>748.2</ele>
        <time>2022-06-26T07:24:08Z</time>
      </trkpt>
      <trkpt lat="48.03447" lon="6.85753">
        <ele>748.2</ele>
        <time>2022-06-26T07:24:09Z</time>
      </trkpt>
      <trkpt lat="48.03445" lon="6.85754">
        <ele>748.4</ele>
        <time>2022-06-26T07:24:10Z</time>
      </trkpt>
      <trkpt lat="48.03444" lon="6.85755">
        <ele>748.6</ele>
        <time>2022-06-26T07:24:11Z</time>
      </trkpt>
      <trkpt lat="48.03443" lon="6.85756">
        <ele>748.8</ele>
        <time>2022-06-26T07:24:12Z</time>
      </trkpt>
      <trkpt lat="48.03441" lon="6.85756">
        <ele>749</ele>
        <time>2022-06-26T07:24:13Z</time>
      </trkpt>
      <trkpt lat="48.0344" lon="6.85756">
        <ele>749</ele>
        <time>2022-06-26T07:24:14Z</time>
      </trkpt>
      <trkpt lat="48.03439" lon="6.85756">
        <ele>749.4</ele>
        <time>2022-06-26T07:24:15Z</time>
      </trkpt>
      <trkpt lat="48.03438" lon="6.85756">
        <ele>749.6</ele>
        <time>2022-06-26T07:24:16Z</time>
      </trkpt>
      <trkpt lat="48.03436" lon="6.85756">
        <ele>749.8</ele>
        <time>2022-06-26T07:24:17Z</time>
      </trkpt>
      <trkpt lat="48.03436" lon="6.85756">
        <ele>749.8</ele>
        <time>2022-06-26T07:24:18Z</time>
      </trkpt>
      <trkpt lat="48.03435" lon="6.85756">
        <ele>750</ele>
        <time>2022-06-26T07:24:19Z</time>
      </trkpt>
      <trkpt lat="48.03434" lon="6.85756">
        <ele>750.2</ele>
        <time>2022-06-26T07:24:20Z</time>
      </trkpt>
      <trkpt lat="48.03433" lon="6.85756">
        <ele>750.2</ele>
        <time>2022-06-26T07:24:21Z</time>
      </trkpt>
      <trkpt lat="48.03432" lon="6.85757">
        <ele>750.4</ele>
        <time>2022-06-26T07:24:22Z</time>
      </trkpt>
      <trkpt lat="48.03431" lon="6.85757">
        <ele>750.6</ele>
        <time>2022-06-26T07:24:23Z</time>
      </trkpt>
      <trkpt lat="48.03429" lon="6.85757">
        <ele>750.6</ele>
        <time>2022-06-26T07:24:24Z</time>
      </trkpt>
      <trkpt lat="48.03428" lon="6.85757">
        <ele>751</ele>
        <time>2022-06-26T07:24:25Z</time>
      </trkpt>
      <trkpt lat="48.03426" lon="6.85757">
        <ele>751.2</ele>
        <time>2022-06-26T07:24:26Z</time>
      </trkpt>
      <trkpt lat="48.03425" lon="6.85757">
        <ele>751.4</ele>
        <time>2022-06-26T07:24:27Z</time>
      </trkpt>
      <trkpt lat="48.03424" lon="6.85757">
        <ele>751.8</ele>
        <time>2022-06-26T07:24:28Z</time>
      </trkpt>
      <trkpt lat="48.03424" lon="6.85757">
        <ele>751.8</ele>
        <time>2022-06-26T07:24:29Z</time>
      </trkpt>
      <trkpt lat="48.03423" lon="6.85757">
        <ele>752</ele>
        <time>2022-06-26T07:24:30Z</time>
      </trkpt>
      <trkpt lat="48.03421" lon="6.85757">
        <ele>752.2</ele>
        <time>2022-06-26T07:24:31Z</time>
      </trkpt>
      <trkpt lat="48.0342" lon="6.85757">
        <ele>752.6</ele>
        <time>2022-06-26T07:24:32Z</time>
      </trkpt>
      <trkpt lat="48.03419" lon="6.85758">
        <ele>752.6</ele>
        <time>2022-06-26T07:24:33Z</time>
      </trkpt>
      <trkpt lat="48.03418" lon="6.85758">
        <ele>752.8</ele>
        <time>2022-06-26T07:24:34Z</time>
      </trkpt>
      <trkpt lat="48.03417" lon="6.85758">
        <ele>753.2</ele>
        <time>2022-06-26T07:24:35Z</time>
      </trkpt>
      <trkpt lat="48.03415" lon="6.85758">
        <ele>753.2</ele>
        <time>2022-06-26T07:24:36Z</time>
      </trkpt>
      <trkpt lat="48.03414" lon="6.85758">
        <ele>753.6</ele>
        <time>2022-06-26T07:24:37Z</time>
      </trkpt>
      <trkpt lat="48.03413" lon="6.85758">
        <ele>753.8</ele>
        <time>2022-06-26T07:24:38Z</time>
      </trkpt>
      <trkpt lat="48.03412" lon="6.85758">
        <ele>754</ele>
        <time>2022-06-26T07:24:39Z</time>
      </trkpt>
      <trkpt lat="48.03411" lon="6.85758">
        <ele>754.2</ele>
        <time>2022-06-26T07:24:40Z</time>
      </trkpt>
      <trkpt lat="48.0341" lon="6.85758">
        <ele>754.4</ele>
        <time>2022-06-26T07:24:41Z</time>
      </trkpt>
      <trkpt lat="48.03409" lon="6.85758">
        <ele>754.6</ele>
        <time>2022-06-26T07:24:42Z</time>
      </trkpt>
      <trkpt lat="48.03408" lon="6.85758">
        <ele>754.8</ele>
        <time>2022-06-26T07:24:43Z</time>
      </trkpt>
      <trkpt lat="48.03407" lon="6.85758">
        <ele>755.2</ele>
        <time>2022-06-26T07:24:44Z</time>
      </trkpt>
      <trkpt lat="48.03405" lon="6.85758">
        <ele>755.4</ele>
        <time>2022-06-26T07:24:45Z</time>
      </trkpt>
      <trkpt lat="48.03404" lon="6.85759">
        <ele>755.4</ele>
        <time>2022-06-26T07:24:46Z</time>
      </trkpt>
      <trkpt lat="48.03403" lon="6.85759">
        <ele>755.6</ele>
        <time>2022-06-26T07:24:47Z</time>
      </trkpt>
      <trkpt lat="48.03402" lon="6.85759">
        <ele>755.8</ele>
        <time>2022-06-26T07:24:48Z</time>
      </trkpt>
      <trkpt lat="48.03401" lon="6.85759">
        <ele>755.8</ele>
        <time>2022-06-26T07:24:49Z</time>
      </trkpt>
      <trkpt lat="48.034" lon="6.8576">
        <ele>756</ele>
        <time>2022-06-26T07:24:50Z</time>
      </trkpt>
      <trkpt lat="48.03399" lon="6.85761">
        <ele>756.2</ele>
        <time>2022-06-26T07:24:51Z</time>
      </trkpt>
      <trkpt lat="48.03398" lon="6.85761">
        <ele>756.4</ele>
        <time>2022-06-26T07:24:52Z</time>
      </trkpt>
      <trkpt lat="48.03398" lon="6.85762">
        <ele>756.6</ele>
        <time>2022-06-26T07:24:53Z</time>
      </trkpt>
      <trkpt lat="48.03397" lon="6.85762">
        <ele>756.8</ele>
        <time>2022-06-26T07:24:54Z</time>
      </trkpt>
      <trkpt lat="48.03396" lon="6.85763">
        <ele>757.2</ele>
        <time>2022-06-26T07:24:55Z</time>
      </trkpt>
      <trkpt lat="48.03395" lon="6.85763">
        <ele>757.4</ele>
        <time>2022-06-26T07:24:56Z</time>
      </trkpt>
      <trkpt lat="48.03394" lon="6.85764">
        <ele>757.6</ele>
        <time>2022-06-26T07:24:57Z</time>
      </trkpt>
      <trkpt lat="48.03393" lon="6.85765">
        <ele>757.8</ele>
        <time>2022-06-26T07:24:58Z</time>
      </trkpt>
      <trkpt lat="48.03393" lon="6.85766">
        <ele>758</ele>
        <time>2022-06-26T07:24:59Z</time>
      </trkpt>
      <trkpt lat="48.03392" lon="6.85766">
        <ele>758</ele>
        <time>2022-06-26T07:25:00Z</time>
      </trkpt>
      <trkpt lat="48.03391" lon="6.85767">
        <ele>758.2</ele>
        <time>2022-06-26T07:25:01Z</time>
      </trkpt>
      <trkpt lat="48.03391" lon="6.85768">
        <ele>758.6</ele>
        <time>2022-06-26T07:25:02Z</time>
      </trkpt>
      <trkpt lat="48.0339" lon="6.85768">
        <ele>758.8</ele>
        <time>2022-06-26T07:25:03Z</time>
      </trkpt>
      <trkpt lat="48.03389" lon="6.85769">
        <ele>759.2</ele>
        <time>2022-06-26T07:25:04Z</time>
      </trkpt>
      <trkpt lat="48.03388" lon="6.8577">
        <ele>759.4</ele>
        <time>2022-06-26T07:25:05Z</time>
      </trkpt>
      <trkpt lat="48.03388" lon="6.85771">
        <ele>759.8</ele>
        <time>2022-06-26T07:25:06Z</time>
      </trkpt>
      <trkpt lat="48.03387" lon="6.85772">
        <ele>759.8</ele>
        <time>2022-06-26T07:25:07Z</time>
      </trkpt>
      <trkpt lat="48.03387" lon="6.85773">
        <ele>760</ele>
        <time>2022-06-26T07:25:08Z</time>
      </trkpt>
      <trkpt lat="48.03385" lon="6.85774">
        <ele>760.2</ele>
        <time>2022-06-26T07:25:09Z</time>
      </trkpt>
      <trkpt lat="48.03384" lon="6.85775">
        <ele>760.6</ele>
        <time>2022-06-26T07:25:10Z</time>
      </trkpt>
      <trkpt lat="48.03383" lon="6.85776">
        <ele>760.8</ele>
        <time>2022-06-26T07:25:11Z</time>
      </trkpt>
      <trkpt lat="48.03383" lon="6.85777">
        <ele>761</ele>
        <time>2022-06-26T07:25:12Z</time>
      </trkpt>
      <trkpt lat="48.03381" lon="6.85778">
        <ele>761.2</ele>
        <time>2022-06-26T07:25:13Z</time>
      </trkpt>
      <trkpt lat="48.0338" lon="6.8578">
        <ele>761.4</ele>
        <time>2022-06-26T07:25:14Z</time>
      </trkpt>
      <trkpt lat="48.0338" lon="6.85782">
        <ele>761.6</ele>
        <time>2022-06-26T07:25:15Z</time>
      </trkpt>
      <trkpt lat="48.03379" lon="6.85783">
        <ele>761.8</ele>
        <time>2022-06-26T07:25:16Z</time>
      </trkpt>
      <trkpt lat="48.03378" lon="6.85784">
        <ele>762</ele>
        <time>2022-06-26T07:25:17Z</time>
      </trkpt>
      <trkpt lat="48.03378" lon="6.85786">
        <ele>762.2</ele>
        <time>2022-06-26T07:25:18Z</time>
      </trkpt>
      <trkpt lat="48.03377" lon="6.85787">
        <ele>762.4</ele>
        <time>2022-06-26T07:25:19Z</time>
      </trkpt>
      <trkpt lat="48.03377" lon="6.85789">
        <ele>762.8</ele>
        <time>2022-06-26T07:25:20Z</time>
      </trkpt>
      <trkpt lat="48.03376" lon="6.8579">
        <ele>762.8</ele>
        <time>2022-06-26T07:25:21Z</time>
      </trkpt>
      <trkpt lat="48.03375" lon="6.85793">
        <ele>763</ele>
        <time>2022-06-26T07:25:22Z</time>
      </trkpt>
      <trkpt lat="48.03375" lon="6.85796">
        <ele>763</ele>
        <time>2022-06-26T07:25:23Z</time>
      </trkpt>
      <trkpt lat="48.03374" lon="6.85798">
        <ele>763.2</ele>
        <time>2022-06-26T07:25:24Z</time>
      </trkpt>
      <trkpt lat="48.03374" lon="6.85799">
        <ele>763.4</ele>
        <time>2022-06-26T07:25:25Z</time>
      </trkpt>
      <trkpt lat="48.03373" lon="6.85802">
        <ele>763.6</ele>
        <time>2022-06-26T07:25:26Z</time>
      </trkpt>
      <trkpt lat="48.03372" lon="6.85804">
        <ele>763.8</ele>
        <time>2022-06-26T07:25:27Z</time>
      </trkpt>
      <trkpt lat="48.03372" lon="6.85806">
        <ele>764</ele>
        <time>2022-06-26T07:25:28Z</time>
      </trkpt>
      <trkpt lat="48.03371" lon="6.85809">
        <ele>764.4</ele>
        <time>2022-06-26T07:25:29Z</time>
      </trkpt>
      <trkpt lat="48.03371" lon="6.85811">
        <ele>764.4</ele>
        <time>2022-06-26T07:25:30Z</time>
      </trkpt>
      <trkpt lat="48.03371" lon="6.85813">
        <ele>764.6</ele>
        <time>2022-06-26T07:25:31Z</time>
      </trkpt>
      <trkpt lat="48.03371" lon="6.85814">
        <ele>764.8</ele>
        <time>2022-06-26T07:25:32Z</time>
      </trkpt>
      <trkpt lat="48.03372" lon="6.85816">
        <ele>765</ele>
        <time>2022-06-26T07:25:33Z</time>
      </trkpt>
      <trkpt lat="48.03372" lon="6.85817">
        <ele>765.2</ele>
        <time>2022-06-26T07:25:34Z</time>
      </trkpt>
      <trkpt lat="48.03372" lon="6.85819">
        <ele>765.4</ele>
        <time>2022-06-26T07:25:35Z</time>
      </trkpt>
      <trkpt lat="48.03371" lon="6.85821">
        <ele>765.6</ele>
        <time>2022-06-26T07:25:36Z</time>
      </trkpt>
      <trkpt lat="48.03371" lon="6.85822">
        <ele>765.8</ele>
        <time>2022-06-26T07:25:37Z</time>
      </trkpt>
      <trkpt lat="48.03371" lon="6.85824">
        <ele>766</ele>
        <time>2022-06-26T07:25:38Z</time>
      </trkpt>
      <trkpt lat="48.03371" lon="6.85826">
        <ele>766.2</ele>
        <time>2022-06-26T07:25:39Z</time>
      </trkpt>
      <trkpt lat="48.03371" lon="6.85827">
        <ele>766.4</ele>
        <time>2022-06-26T07:25:40Z</time>
      </trkpt>
      <trkpt lat="48.03371" lon="6.85829">
        <ele>766.4</ele>
        <time>2022-06-26T07:25:41Z</time>
      </trkpt>
      <trkpt lat="48.03372" lon="6.85831">
        <ele>766.6</ele>
        <time>2022-06-26T07:25:42Z</time>
      </trkpt>
      <trkpt lat="48.03371" lon="6.85832">
        <ele>766.8</ele>
        <time>2022-06-26T07:25:43Z</time>
      </trkpt>
      <trkpt lat="48.03371" lon="6.85834">
        <ele>767.2</ele>
        <time>2022-06-26T07:25:44Z</time>
      </trkpt>
      <trkpt lat="48.03371" lon="6.85836">
        <ele>767.4</ele>
        <time>2022-06-26T07:25:45Z</time>
      </trkpt>
      <trkpt lat="48.03371" lon="6.85838">
        <ele>767.6</ele>
        <time>2022-06-26T07:25:46Z</time>
      </trkpt>
      <trkpt lat="48.03371" lon="6.85839">
        <ele>768</ele>
        <time>2022-06-26T07:25:47Z</time>
      </trkpt>
      <trkpt lat="48.0337" lon="6.85841">
        <ele>768.2</ele>
        <time>2022-06-26T07:25:48Z</time>
      </trkpt>
      <trkpt lat="48.03371" lon="6.85843">
        <ele>768.4</ele>
        <time>2022-06-26T07:25:49Z</time>
      </trkpt>
      <trkpt lat="48.0337" lon="6.85844">
        <ele>768.4</ele>
        <time>2022-06-26T07:25:50Z</time>
      </trkpt>
      <trkpt lat="48.0337" lon="6.85846">
        <ele>768.8</ele>
        <time>2022-06-26T07:25:51Z</time>
      </trkpt>
      <trkpt lat="48.03369" lon="6.85847">
        <ele>769</ele>
        <time>2022-06-26T07:25:52Z</time>
      </trkpt>
      <trkpt lat="48.03369" lon="6.85849">
        <ele>769.4</ele>
        <time>2022-06-26T07:25:53Z</time>
      </trkpt>
      <trkpt lat="48.03369" lon="6.8585">
        <ele>769.4</ele>
        <time>2022-06-26T07:25:54Z</time>
      </trkpt>
      <trkpt lat="48.03369" lon="6.85852">
        <ele>769.8</ele>
        <time>2022-06-26T07:25:55Z</time>
      </trkpt>
      <trkpt lat="48.03368" lon="6.85854">
        <ele>770</ele>
        <time>2022-06-26T07:25:56Z</time>
      </trkpt>
      <trkpt lat="48.03367" lon="6.85856">
        <ele>770.2</ele>
        <time>2022-06-26T07:25:57Z</time>
      </trkpt>
      <trkpt lat="48.03366" lon="6.85858">
        <ele>770.4</ele>
        <time>2022-06-26T07:25:58Z</time>
      </trkpt>
      <trkpt lat="48.03365" lon="6.85859">
        <ele>770.6</ele>
        <time>2022-06-26T07:25:59Z</time>
      </trkpt>
      <trkpt lat="48.03364" lon="6.85861">
        <ele>770.8</ele>
        <time>2022-06-26T07:26:00Z</time>
      </trkpt>
      <trkpt lat="48.03363" lon="6.85863">
        <ele>770.8</ele>
        <time>2022-06-26T07:26:01Z</time>
      </trkpt>
      <trkpt lat="48.03363" lon="6.85865">
        <ele>771</ele>
        <time>2022-06-26T07:26:02Z</time>
      </trkpt>
      <trkpt lat="48.03363" lon="6.85867">
        <ele>771.2</ele>
        <time>2022-06-26T07:26:03Z</time>
      </trkpt>
      <trkpt lat="48.03363" lon="6.85868">
        <ele>771.4</ele>
        <time>2022-06-26T07:26:04Z</time>
      </trkpt>
      <trkpt lat="48.03362" lon="6.8587">
        <ele>771.6</ele>
        <time>2022-06-26T07:26:05Z</time>
      </trkpt>
      <trkpt lat="48.03361" lon="6.85871">
        <ele>771.8</ele>
        <time>2022-06-26T07:26:06Z</time>
      </trkpt>
      <trkpt lat="48.0336" lon="6.85873">
        <ele>772</ele>
        <time>2022-06-26T07:26:07Z</time>
      </trkpt>
      <trkpt lat="48.0336" lon="6.85874">
        <ele>772</ele>
        <time>2022-06-26T07:26:08Z</time>
      </trkpt>
      <trkpt lat="48.03359" lon="6.85876">
        <ele>772.2</ele>
        <time>2022-06-26T07:26:09Z</time>
      </trkpt>
      <trkpt lat="48.03358" lon="6.85877">
        <ele>772.4</ele>
        <time>2022-06-26T07:26:10Z</time>
      </trkpt>
      <trkpt lat="48.03357" lon="6.85879">
        <ele>772.6</ele>
        <time>2022-06-26T07:26:11Z</time>
      </trkpt>
      <trkpt lat="48.03355" lon="6.85881">
        <ele>772.8</ele>
        <time>2022-06-26T07:26:12Z</time>
      </trkpt>
      <trkpt lat="48.03354" lon="6.85883">
        <ele>773</ele>
        <time>2022-06-26T07:26:13Z</time>
      </trkpt>
      <trkpt lat="48.03353" lon="6.85886">
        <ele>773.2</ele>
        <time>2022-06-26T07:26:14Z</time>
      </trkpt>
      <trkpt lat="48.03351" lon="6.85888">
        <ele>773.2</ele>
        <time>2022-06-26T07:26:15Z</time>
      </trkpt>
      <trkpt lat="48.0335" lon="6.85889">
        <ele>773.4</ele>
        <time>2022-06-26T07:26:16Z</time>
      </trkpt>
      <trkpt lat="48.03349" lon="6.85891">
        <ele>773.4</ele>
        <time>2022-06-26T07:26:17Z</time>
      </trkpt>
      <trkpt lat="48.03348" lon="6.85893">
        <ele>773.6</ele>
        <time>2022-06-26T07:26:18Z</time>
      </trkpt>
      <trkpt lat="48.03347" lon="6.85894">
        <ele>773.8</ele>
        <time>2022-06-26T07:26:19Z</time>
      </trkpt>
      <trkpt lat="48.03346" lon="6.85896">
        <ele>774</ele>
        <time>2022-06-26T07:26:20Z</time>
      </trkpt>
      <trkpt lat="48.03344" lon="6.85898">
        <ele>774.2</ele>
        <time>2022-06-26T07:26:21Z</time>
      </trkpt>
      <trkpt lat="48.03343" lon="6.859">
        <ele>774.2</ele>
        <time>2022-06-26T07:26:22Z</time>
      </trkpt>
      <trkpt lat="48.03342" lon="6.85901">
        <ele>774.4</ele>
        <time>2022-06-26T07:26:23Z</time>
      </trkpt>
      <trkpt lat="48.03341" lon="6.85903">
        <ele>774.4</ele>
        <time>2022-06-26T07:26:24Z</time>
      </trkpt>
      <trkpt lat="48.0334" lon="6.85904">
        <ele>774.6</ele>
        <time>2022-06-26T07:26:25Z</time>
      </trkpt>
      <trkpt lat="48.03339" lon="6.85905">
        <ele>774.6</ele>
        <time>2022-06-26T07:26:26Z</time>
      </trkpt>
      <trkpt lat="48.03338" lon="6.85906">
        <ele>774.6</ele>
        <time>2022-06-26T07:26:27Z</time>
      </trkpt>
      <trkpt lat="48.03337" lon="6.85908">
        <ele>774.8</ele>
        <time>2022-06-26T07:26:28Z</time>
      </trkpt>
      <trkpt lat="48.03335" lon="6.8591">
        <ele>775</ele>
        <time>2022-06-26T07:26:29Z</time>
      </trkpt>
      <trkpt lat="48.03333" lon="6.85912">
        <ele>774.8</ele>
        <time>2022-06-26T07:26:30Z</time>
      </trkpt>
      <trkpt lat="48.03332" lon="6.85914">
        <ele>775</ele>
        <time>2022-06-26T07:26:31Z</time>
      </trkpt>
      <trkpt lat="48.0333" lon="6.85916">
        <ele>775</ele>
        <time>2022-06-26T07:26:32Z</time>
      </trkpt>
      <trkpt lat="48.03329" lon="6.85918">
        <ele>775.2</ele>
        <time>2022-06-26T07:26:33Z</time>
      </trkpt>
      <trkpt lat="48.03327" lon="6.8592">
        <ele>775.2</ele>
        <time>2022-06-26T07:26:34Z</time>
      </trkpt>
      <trkpt lat="48.03326" lon="6.85922">
        <ele>775.2</ele>
        <time>2022-06-26T07:26:35Z</time>
      </trkpt>
      <trkpt lat="48.03325" lon="6.85924">
        <ele>775.4</ele>
        <time>2022-06-26T07:26:36Z</time>
      </trkpt>
      <trkpt lat="48.03324" lon="6.85926">
        <ele>775.6</ele>
        <time>2022-06-26T07:26:37Z</time>
      </trkpt>
      <trkpt lat="48.03323" lon="6.85929">
        <ele>775.6</ele>
        <time>2022-06-26T07:26:38Z</time>
      </trkpt>
      <trkpt lat="48.03321" lon="6.85931">
        <ele>775.8</ele>
        <time>2022-06-26T07:26:39Z</time>
      </trkpt>
      <trkpt lat="48.0332" lon="6.85933">
        <ele>775.8</ele>
        <time>2022-06-26T07:26:40Z</time>
      </trkpt>
      <trkpt lat="48.03319" lon="6.85934">
        <ele>776</ele>
        <time>2022-06-26T07:26:41Z</time>
      </trkpt>
      <trkpt lat="48.03317" lon="6.85936">
        <ele>776.2</ele>
        <time>2022-06-26T07:26:42Z</time>
      </trkpt>
      <trkpt lat="48.03316" lon="6.85938">
        <ele>776.4</ele>
        <time>2022-06-26T07:26:43Z</time>
      </trkpt>
      <trkpt lat="48.03315" lon="6.85939">
        <ele>776.4</ele>
        <time>2022-06-26T07:26:44Z</time>
      </trkpt>
      <trkpt lat="48.03313" lon="6.85941">
        <ele>776.6</ele>
        <time>2022-06-26T07:26:45Z</time>
      </trkpt>
      <trkpt lat="48.03311" lon="6.85945">
        <ele>776.6</ele>
        <time>2022-06-26T07:26:46Z</time>
      </trkpt>
      <trkpt lat="48.03309" lon="6.85947">
        <ele>777</ele>
        <time>2022-06-26T07:26:47Z</time>
      </trkpt>
      <trkpt lat="48.03307" lon="6.85948">
        <ele>777</ele>
        <time>2022-06-26T07:26:48Z</time>
      </trkpt>
      <trkpt lat="48.03304" lon="6.85951">
        <ele>777</ele>
        <time>2022-06-26T07:26:49Z</time>
      </trkpt>
      <trkpt lat="48.03302" lon="6.85955">
        <ele>777.2</ele>
        <time>2022-06-26T07:26:50Z</time>
      </trkpt>
      <trkpt lat="48.033" lon="6.85958">
        <ele>777.2</ele>
        <time>2022-06-26T07:26:51Z</time>
      </trkpt>
      <trkpt lat="48.03298" lon="6.8596">
        <ele>777.4</ele>
        <time>2022-06-26T07:26:52Z</time>
      </trkpt>
      <trkpt lat="48.03295" lon="6.85963">
        <ele>777.4</ele>
        <time>2022-06-26T07:26:53Z</time>
      </trkpt>
      <trkpt lat="48.03294" lon="6.85966">
        <ele>777.8</ele>
        <time>2022-06-26T07:26:54Z</time>
      </trkpt>
      <trkpt lat="48.03291" lon="6.85969">
        <ele>777.8</ele>
        <time>2022-06-26T07:26:55Z</time>
      </trkpt>
      <trkpt lat="48.03289" lon="6.85971">
        <ele>778</ele>
        <time>2022-06-26T07:26:56Z</time>
      </trkpt>
      <trkpt lat="48.03288" lon="6.85973">
        <ele>778</ele>
        <time>2022-06-26T07:26:57Z</time>
      </trkpt>
      <trkpt lat="48.03286" lon="6.85975">
        <ele>778.2</ele>
        <time>2022-06-26T07:26:58Z</time>
      </trkpt>
      <trkpt lat="48.03284" lon="6.85977">
        <ele>778.4</ele>
        <time>2022-06-26T07:26:59Z</time>
      </trkpt>
      <trkpt lat="48.03281" lon="6.8598">
        <ele>778.8</ele>
        <time>2022-06-26T07:27:00Z</time>
      </trkpt>
      <trkpt lat="48.0328" lon="6.85982">
        <ele>779</ele>
        <time>2022-06-26T07:27:01Z</time>
      </trkpt>
      <trkpt lat="48.03279" lon="6.85983">
        <ele>779.2</ele>
        <time>2022-06-26T07:27:02Z</time>
      </trkpt>
      <trkpt lat="48.03278" lon="6.85984">
        <ele>779.4</ele>
        <time>2022-06-26T07:27:03Z</time>
      </trkpt>
      <trkpt lat="48.03277" lon="6.85985">
        <ele>779.4</ele>
        <time>2022-06-26T07:27:04Z</time>
      </trkpt>
      <trkpt lat="48.03278" lon="6.85986">
        <ele>779.6</ele>
        <time>2022-06-26T07:27:05Z</time>
      </trkpt>
      <trkpt lat="48.03278" lon="6.85988">
        <ele>779.6</ele>
        <time>2022-06-26T07:27:06Z</time>
      </trkpt>
      <trkpt lat="48.03277" lon="6.85989">
        <ele>779.8</ele>
        <time>2022-06-26T07:27:07Z</time>
      </trkpt>
      <trkpt lat="48.03276" lon="6.8599">
        <ele>780</ele>
        <time>2022-06-26T07:27:08Z</time>
      </trkpt>
      <trkpt lat="48.03275" lon="6.85992">
        <ele>780.4</ele>
        <time>2022-06-26T07:27:09Z</time>
      </trkpt>
      <trkpt lat="48.03274" lon="6.85993">
        <ele>780.6</ele>
        <time>2022-06-26T07:27:10Z</time>
      </trkpt>
      <trkpt lat="48.03273" lon="6.85994">
        <ele>780.8</ele>
        <time>2022-06-26T07:27:11Z</time>
      </trkpt>
      <trkpt lat="48.03271" lon="6.85995">
        <ele>781</ele>
        <time>2022-06-26T07:27:12Z</time>
      </trkpt>
      <trkpt lat="48.0327" lon="6.85996">
        <ele>781.2</ele>
        <time>2022-06-26T07:27:13Z</time>
      </trkpt>
      <trkpt lat="48.03268" lon="6.85997">
        <ele>781.2</ele>
        <time>2022-06-26T07:27:14Z</time>
      </trkpt>
      <trkpt lat="48.03265" lon="6.85998">
        <ele>781.4</ele>
        <time>2022-06-26T07:27:15Z</time>
      </trkpt>
      <trkpt lat="48.03263" lon="6.86">
        <ele>781.6</ele>
        <time>2022-06-26T07:27:16Z</time>
      </trkpt>
      <trkpt lat="48.0326" lon="6.86003">
        <ele>781.8</ele>
        <time>2022-06-26T07:27:17Z</time>
      </trkpt>
      <trkpt lat="48.03258" lon="6.86004">
        <ele>782</ele>
        <time>2022-06-26T07:27:18Z</time>
      </trkpt>
      <trkpt lat="48.03257" lon="6.86006">
        <ele>782.4</ele>
        <time>2022-06-26T07:27:19Z</time>
      </trkpt>
      <trkpt lat="48.03255" lon="6.86008">
        <ele>782.6</ele>
        <time>2022-06-26T07:27:20Z</time>
      </trkpt>
      <trkpt lat="48.03254" lon="6.86009">
        <ele>783</ele>
        <time>2022-06-26T07:27:21Z</time>
      </trkpt>
      <trkpt lat="48.03252" lon="6.86011">
        <ele>783.2</ele>
        <time>2022-06-26T07:27:22Z</time>
      </trkpt>
      <trkpt lat="48.0325" lon="6.86015">
        <ele>783.4</ele>
        <time>2022-06-26T07:27:23Z</time>
      </trkpt>
      <trkpt lat="48.03247" lon="6.86017">
        <ele>783.6</ele>
        <time>2022-06-26T07:27:24Z</time>
      </trkpt>
      <trkpt lat="48.03245" lon="6.86019">
        <ele>783.8</ele>
        <time>2022-06-26T07:27:25Z</time>
      </trkpt>
      <trkpt lat="48.03244" lon="6.86021">
        <ele>784</ele>
        <time>2022-06-26T07:27:26Z</time>
      </trkpt>
      <trkpt lat="48.03242" lon="6.86022">
        <ele>784.2</ele>
        <time>2022-06-26T07:27:27Z</time>
      </trkpt>
      <trkpt lat="48.03239" lon="6.86024">
        <ele>784.6</ele>
        <time>2022-06-26T07:27:28Z</time>
      </trkpt>
      <trkpt lat="48.03237" lon="6.86025">
        <ele>784.8</ele>
        <time>2022-06-26T07:27:29Z</time>
      </trkpt>
      <trkpt lat="48.03234" lon="6.86027">
        <ele>785</ele>
        <time>2022-06-26T07:27:30Z</time>
      </trkpt>
      <trkpt lat="48.03232" lon="6.86028">
        <ele>785</ele>
        <time>2022-06-26T07:27:31Z</time>
      </trkpt>
      <trkpt lat="48.0323" lon="6.86028">
        <ele>785</ele>
        <time>2022-06-26T07:27:32Z</time>
      </trkpt>
      <trkpt lat="48.03228" lon="6.86029">
        <ele>785.2</ele>
        <time>2022-06-26T07:27:33Z</time>
      </trkpt>
      <trkpt lat="48.03225" lon="6.86032">
        <ele>785.2</ele>
        <time>2022-06-26T07:27:34Z</time>
      </trkpt>
      <trkpt lat="48.03224" lon="6.86032">
        <ele>785.2</ele>
        <time>2022-06-26T07:27:35Z</time>
      </trkpt>
      <trkpt lat="48.03222" lon="6.86032">
        <ele>785.2</ele>
        <time>2022-06-26T07:27:36Z</time>
      </trkpt>
      <trkpt lat="48.03221" lon="6.86032">
        <ele>785.4</ele>
        <time>2022-06-26T07:27:37Z</time>
      </trkpt>
      <trkpt lat="48.03219" lon="6.86033">
        <ele>785.4</ele>
        <time>2022-06-26T07:27:38Z</time>
      </trkpt>
      <trkpt lat="48.03218" lon="6.86034">
        <ele>785.6</ele>
        <time>2022-06-26T07:27:39Z</time>
      </trkpt>
      <trkpt lat="48.03216" lon="6.86036">
        <ele>785.8</ele>
        <time>2022-06-26T07:27:40Z</time>
      </trkpt>
      <trkpt lat="48.03214" lon="6.86037">
        <ele>785.8</ele>
        <time>2022-06-26T07:27:41Z</time>
      </trkpt>
      <trkpt lat="48.03212" lon="6.86039">
        <ele>785.8</ele>
        <time>2022-06-26T07:27:42Z</time>
      </trkpt>
      <trkpt lat="48.03211" lon="6.8604">
        <ele>786</ele>
        <time>2022-06-26T07:27:43Z</time>
      </trkpt>
      <trkpt lat="48.03209" lon="6.86042">
        <ele>786</ele>
        <time>2022-06-26T07:27:44Z</time>
      </trkpt>
      <trkpt lat="48.03207" lon="6.86045">
        <ele>786</ele>
        <time>2022-06-26T07:27:45Z</time>
      </trkpt>
      <trkpt lat="48.03205" lon="6.86046">
        <ele>786.2</ele>
        <time>2022-06-26T07:27:46Z</time>
      </trkpt>
      <trkpt lat="48.03203" lon="6.86048">
        <ele>786.2</ele>
        <time>2022-06-26T07:27:47Z</time>
      </trkpt>
      <trkpt lat="48.032" lon="6.8605">
        <ele>786</ele>
        <time>2022-06-26T07:27:48Z</time>
      </trkpt>
      <trkpt lat="48.03197" lon="6.86052">
        <ele>786.2</ele>
        <time>2022-06-26T07:27:49Z</time>
      </trkpt>
      <trkpt lat="48.03195" lon="6.86054">
        <ele>786.4</ele>
        <time>2022-06-26T07:27:50Z</time>
      </trkpt>
      <trkpt lat="48.03192" lon="6.86056">
        <ele>786.2</ele>
        <time>2022-06-26T07:27:51Z</time>
      </trkpt>
      <trkpt lat="48.03189" lon="6.86058">
        <ele>786.4</ele>
        <time>2022-06-26T07:27:52Z</time>
      </trkpt>
      <trkpt lat="48.03187" lon="6.86059">
        <ele>786.4</ele>
        <time>2022-06-26T07:27:53Z</time>
      </trkpt>
      <trkpt lat="48.03185" lon="6.8606">
        <ele>786.6</ele>
        <time>2022-06-26T07:27:54Z</time>
      </trkpt>
      <trkpt lat="48.03183" lon="6.86061">
        <ele>787</ele>
        <time>2022-06-26T07:27:55Z</time>
      </trkpt>
      <trkpt lat="48.03182" lon="6.86062">
        <ele>787</ele>
        <time>2022-06-26T07:27:56Z</time>
      </trkpt>
      <trkpt lat="48.0318" lon="6.86062">
        <ele>787.2</ele>
        <time>2022-06-26T07:27:57Z</time>
      </trkpt>
      <trkpt lat="48.03178" lon="6.86063">
        <ele>787.2</ele>
        <time>2022-06-26T07:27:58Z</time>
      </trkpt>
      <trkpt lat="48.03176" lon="6.86064">
        <ele>787.4</ele>
        <time>2022-06-26T07:27:59Z</time>
      </trkpt>
      <trkpt lat="48.03175" lon="6.86065">
        <ele>787.4</ele>
        <time>2022-06-26T07:28:00Z</time>
      </trkpt>
      <trkpt lat="48.03172" lon="6.86066">
        <ele>787.6</ele>
        <time>2022-06-26T07:28:01Z</time>
      </trkpt>
      <trkpt lat="48.03168" lon="6.86069">
        <ele>787.8</ele>
        <time>2022-06-26T07:28:02Z</time>
      </trkpt>
      <trkpt lat="48.03165" lon="6.86072">
        <ele>787.8</ele>
        <time>2022-06-26T07:28:03Z</time>
      </trkpt>
      <trkpt lat="48.03162" lon="6.86072">
        <ele>788</ele>
        <time>2022-06-26T07:28:04Z</time>
      </trkpt>
      <trkpt lat="48.0316" lon="6.86072">
        <ele>788</ele>
        <time>2022-06-26T07:28:05Z</time>
      </trkpt>
      <trkpt lat="48.03158" lon="6.86073">
        <ele>788.2</ele>
        <time>2022-06-26T07:28:06Z</time>
      </trkpt>
      <trkpt lat="48.03157" lon="6.86073">
        <ele>788.2</ele>
        <time>2022-06-26T07:28:07Z</time>
      </trkpt>
      <trkpt lat="48.03155" lon="6.86073">
        <ele>788.4</ele>
        <time>2022-06-26T07:28:08Z</time>
      </trkpt>
      <trkpt lat="48.03153" lon="6.86073">
        <ele>788.4</ele>
        <time>2022-06-26T07:28:09Z</time>
      </trkpt>
      <trkpt lat="48.03152" lon="6.86075">
        <ele>788.6</ele>
        <time>2022-06-26T07:28:10Z</time>
      </trkpt>
      <trkpt lat="48.03149" lon="6.86076">
        <ele>788.6</ele>
        <time>2022-06-26T07:28:11Z</time>
      </trkpt>
      <trkpt lat="48.03147" lon="6.86078">
        <ele>788.8</ele>
        <time>2022-06-26T07:28:12Z</time>
      </trkpt>
      <trkpt lat="48.03145" lon="6.86079">
        <ele>788.8</ele>
        <time>2022-06-26T07:28:13Z</time>
      </trkpt>
      <trkpt lat="48.03144" lon="6.8608">
        <ele>789</ele>
        <time>2022-06-26T07:28:14Z</time>
      </trkpt>
      <trkpt lat="48.03141" lon="6.86082">
        <ele>789.2</ele>
        <time>2022-06-26T07:28:15Z</time>
      </trkpt>
      <trkpt lat="48.03139" lon="6.86085">
        <ele>789.4</ele>
        <time>2022-06-26T07:28:16Z</time>
      </trkpt>
      <trkpt lat="48.03137" lon="6.86088">
        <ele>789.6</ele>
        <time>2022-06-26T07:28:17Z</time>
      </trkpt>
      <trkpt lat="48.03135" lon="6.8609">
        <ele>789.4</ele>
        <time>2022-06-26T07:28:18Z</time>
      </trkpt>
      <trkpt lat="48.03133" lon="6.86093">
        <ele>789.6</ele>
        <time>2022-06-26T07:28:19Z</time>
      </trkpt>
      <trkpt lat="48.03132" lon="6.86097">
        <ele>789.6</ele>
        <time>2022-06-26T07:28:20Z</time>
      </trkpt>
      <trkpt lat="48.0313" lon="6.861">
        <ele>789.6</ele>
        <time>2022-06-26T07:28:21Z</time>
      </trkpt>
      <trkpt lat="48.03129" lon="6.86104">
        <ele>789.8</ele>
        <time>2022-06-26T07:28:22Z</time>
      </trkpt>
      <trkpt lat="48.03128" lon="6.86107">
        <ele>790</ele>
        <time>2022-06-26T07:28:23Z</time>
      </trkpt>
      <trkpt lat="48.03127" lon="6.86109">
        <ele>790</ele>
        <time>2022-06-26T07:28:24Z</time>
      </trkpt>
      <trkpt lat="48.03126" lon="6.86112">
        <ele>790</ele>
        <time>2022-06-26T07:28:25Z</time>
      </trkpt>
      <trkpt lat="48.03125" lon="6.86114">
        <ele>790.2</ele>
        <time>2022-06-26T07:28:26Z</time>
      </trkpt>
      <trkpt lat="48.03124" lon="6.86116">
        <ele>790.2</ele>
        <time>2022-06-26T07:28:27Z</time>
      </trkpt>
      <trkpt lat="48.03123" lon="6.86118">
        <ele>790.4</ele>
        <time>2022-06-26T07:28:28Z</time>
      </trkpt>
      <trkpt lat="48.03122" lon="6.86121">
        <ele>790.8</ele>
        <time>2022-06-26T07:28:29Z</time>
      </trkpt>
      <trkpt lat="48.0312" lon="6.86124">
        <ele>791</ele>
        <time>2022-06-26T07:28:30Z</time>
      </trkpt>
      <trkpt lat="48.03119" lon="6.86127">
        <ele>791.2</ele>
        <time>2022-06-26T07:28:31Z</time>
      </trkpt>
      <trkpt lat="48.03118" lon="6.8613">
        <ele>791.2</ele>
        <time>2022-06-26T07:28:32Z</time>
      </trkpt>
      <trkpt lat="48.03116" lon="6.86132">
        <ele>791.4</ele>
        <time>2022-06-26T07:28:33Z</time>
      </trkpt>
      <trkpt lat="48.03115" lon="6.86134">
        <ele>791.4</ele>
        <time>2022-06-26T07:28:34Z</time>
      </trkpt>
      <trkpt lat="48.03115" lon="6.86136">
        <ele>791.6</ele>
        <time>2022-06-26T07:28:35Z</time>
      </trkpt>
      <trkpt lat="48.03114" lon="6.86138">
        <ele>791.8</ele>
        <time>2022-06-26T07:28:36Z</time>
      </trkpt>
      <trkpt lat="48.03112" lon="6.86141">
        <ele>792</ele>
        <time>2022-06-26T07:28:37Z</time>
      </trkpt>
      <trkpt lat="48.0311" lon="6.86146">
        <ele>792.2</ele>
        <time>2022-06-26T07:28:38Z</time>
      </trkpt>
      <trkpt lat="48.03108" lon="6.86149">
        <ele>792.2</ele>
        <time>2022-06-26T07:28:39Z</time>
      </trkpt>
      <trkpt lat="48.03107" lon="6.86151">
        <ele>792.4</ele>
        <time>2022-06-26T07:28:40Z</time>
      </trkpt>
      <trkpt lat="48.03106" lon="6.86154">
        <ele>792.6</ele>
        <time>2022-06-26T07:28:41Z</time>
      </trkpt>
      <trkpt lat="48.03104" lon="6.86157">
        <ele>792.6</ele>
        <time>2022-06-26T07:28:42Z</time>
      </trkpt>
      <trkpt lat="48.03102" lon="6.86159">
        <ele>792.8</ele>
        <time>2022-06-26T07:28:43Z</time>
      </trkpt>
      <trkpt lat="48.031" lon="6.86162">
        <ele>793</ele>
        <time>2022-06-26T07:28:44Z</time>
      </trkpt>
      <trkpt lat="48.03098" lon="6.86165">
        <ele>793.2</ele>
        <time>2022-06-26T07:28:45Z</time>
      </trkpt>
      <trkpt lat="48.03097" lon="6.86168">
        <ele>793.4</ele>
        <time>2022-06-26T07:28:46Z</time>
      </trkpt>
      <trkpt lat="48.03095" lon="6.86171">
        <ele>793.6</ele>
        <time>2022-06-26T07:28:47Z</time>
      </trkpt>
      <trkpt lat="48.03093" lon="6.86174">
        <ele>793.6</ele>
        <time>2022-06-26T07:28:48Z</time>
      </trkpt>
      <trkpt lat="48.03092" lon="6.86177">
        <ele>793.8</ele>
        <time>2022-06-26T07:28:49Z</time>
      </trkpt>
      <trkpt lat="48.03091" lon="6.8618">
        <ele>793.8</ele>
        <time>2022-06-26T07:28:50Z</time>
      </trkpt>
      <trkpt lat="48.03089" lon="6.86184">
        <ele>793.8</ele>
        <time>2022-06-26T07:28:51Z</time>
      </trkpt>
      <trkpt lat="48.03087" lon="6.86189">
        <ele>793.8</ele>
        <time>2022-06-26T07:28:52Z</time>
      </trkpt>
      <trkpt lat="48.03084" lon="6.86192">
        <ele>793.8</ele>
        <time>2022-06-26T07:28:53Z</time>
      </trkpt>
      <trkpt lat="48.03082" lon="6.86195">
        <ele>793.8</ele>
        <time>2022-06-26T07:28:54Z</time>
      </trkpt>
      <trkpt lat="48.0308" lon="6.86198">
        <ele>794</ele>
        <time>2022-06-26T07:28:55Z</time>
      </trkpt>
      <trkpt lat="48.03077" lon="6.86202">
        <ele>794.2</ele>
        <time>2022-06-26T07:28:56Z</time>
      </trkpt>
      <trkpt lat="48.03076" lon="6.86206">
        <ele>794.2</ele>
        <time>2022-06-26T07:28:57Z</time>
      </trkpt>
      <trkpt lat="48.03074" lon="6.86212">
        <ele>793.8</ele>
        <time>2022-06-26T07:28:58Z</time>
      </trkpt>
      <trkpt lat="48.03073" lon="6.86217">
        <ele>793.8</ele>
        <time>2022-06-26T07:28:59Z</time>
      </trkpt>
      <trkpt lat="48.0307" lon="6.86221">
        <ele>794</ele>
        <time>2022-06-26T07:29:00Z</time>
      </trkpt>
      <trkpt lat="48.03068" lon="6.86225">
        <ele>794</ele>
        <time>2022-06-26T07:29:01Z</time>
      </trkpt>
      <trkpt lat="48.03066" lon="6.86229">
        <ele>794</ele>
        <time>2022-06-26T07:29:02Z</time>
      </trkpt>
      <trkpt lat="48.03065" lon="6.86232">
        <ele>794</ele>
        <time>2022-06-26T07:29:03Z</time>
      </trkpt>
      <trkpt lat="48.03064" lon="6.86235">
        <ele>794</ele>
        <time>2022-06-26T07:29:04Z</time>
      </trkpt>
      <trkpt lat="48.03061" lon="6.86241">
        <ele>794.2</ele>
        <time>2022-06-26T07:29:07Z</time>
      </trkpt>
      <trkpt lat="48.03061" lon="6.86243">
        <ele>794.4</ele>
        <time>2022-06-26T07:29:08Z</time>
      </trkpt>
      <trkpt lat="48.0306" lon="6.86245">
        <ele>794.6</ele>
        <time>2022-06-26T07:29:09Z</time>
      </trkpt>
      <trkpt lat="48.03059" lon="6.86247">
        <ele>794.8</ele>
        <time>2022-06-26T07:29:10Z</time>
      </trkpt>
      <trkpt lat="48.03058" lon="6.86249">
        <ele>795</ele>
        <time>2022-06-26T07:29:11Z</time>
      </trkpt>
      <trkpt lat="48.03058" lon="6.86251">
        <ele>795.2</ele>
        <time>2022-06-26T07:29:12Z</time>
      </trkpt>
      <trkpt lat="48.03057" lon="6.86252">
        <ele>795.4</ele>
        <time>2022-06-26T07:29:13Z</time>
      </trkpt>
      <trkpt lat="48.03056" lon="6.86254">
        <ele>795.6</ele>
        <time>2022-06-26T07:29:14Z</time>
      </trkpt>
      <trkpt lat="48.03055" lon="6.86256">
        <ele>795.6</ele>
        <time>2022-06-26T07:29:15Z</time>
      </trkpt>
      <trkpt lat="48.03054" lon="6.86258">
        <ele>795.6</ele>
        <time>2022-06-26T07:29:16Z</time>
      </trkpt>
      <trkpt lat="48.03052" lon="6.86259">
        <ele>795.8</ele>
        <time>2022-06-26T07:29:17Z</time>
      </trkpt>
      <trkpt lat="48.03048" lon="6.86264">
        <ele>796</ele>
        <time>2022-06-26T07:29:20Z</time>
      </trkpt>
      <trkpt lat="48.03047" lon="6.86266">
        <ele>796</ele>
        <time>2022-06-26T07:29:21Z</time>
      </trkpt>
      <trkpt lat="48.03045" lon="6.86268">
        <ele>796.2</ele>
        <time>2022-06-26T07:29:22Z</time>
      </trkpt>
      <trkpt lat="48.03044" lon="6.86269">
        <ele>796.4</ele>
        <time>2022-06-26T07:29:23Z</time>
      </trkpt>
      <trkpt lat="48.03042" lon="6.86271">
        <ele>796.6</ele>
        <time>2022-06-26T07:29:24Z</time>
      </trkpt>
      <trkpt lat="48.0304" lon="6.86273">
        <ele>796.8</ele>
        <time>2022-06-26T07:29:25Z</time>
      </trkpt>
      <trkpt lat="48.03038" lon="6.86275">
        <ele>797</ele>
        <time>2022-06-26T07:29:26Z</time>
      </trkpt>
      <trkpt lat="48.03037" lon="6.86277">
        <ele>797.2</ele>
        <time>2022-06-26T07:29:27Z</time>
      </trkpt>
      <trkpt lat="48.03035" lon="6.86278">
        <ele>797.4</ele>
        <time>2022-06-26T07:29:28Z</time>
      </trkpt>
      <trkpt lat="48.03033" lon="6.8628">
        <ele>797.4</ele>
        <time>2022-06-26T07:29:29Z</time>
      </trkpt>
      <trkpt lat="48.03032" lon="6.86283">
        <ele>797.4</ele>
        <time>2022-06-26T07:29:30Z</time>
      </trkpt>
      <trkpt lat="48.03031" lon="6.86286">
        <ele>797.8</ele>
        <time>2022-06-26T07:29:31Z</time>
      </trkpt>
      <trkpt lat="48.03029" lon="6.86287">
        <ele>798</ele>
        <time>2022-06-26T07:29:32Z</time>
      </trkpt>
      <trkpt lat="48.03027" lon="6.8629">
        <ele>798</ele>
        <time>2022-06-26T07:29:33Z</time>
      </trkpt>
      <trkpt lat="48.03025" lon="6.86294">
        <ele>798.4</ele>
        <time>2022-06-26T07:29:34Z</time>
      </trkpt>
      <trkpt lat="48.03022" lon="6.86296">
        <ele>798.4</ele>
        <time>2022-06-26T07:29:35Z</time>
      </trkpt>
      <trkpt lat="48.0302" lon="6.86298">
        <ele>798.6</ele>
        <time>2022-06-26T07:29:36Z</time>
      </trkpt>
      <trkpt lat="48.03018" lon="6.863">
        <ele>798.6</ele>
        <time>2022-06-26T07:29:37Z</time>
      </trkpt>
      <trkpt lat="48.03017" lon="6.86302">
        <ele>798.8</ele>
        <time>2022-06-26T07:29:38Z</time>
      </trkpt>
      <trkpt lat="48.03015" lon="6.86304">
        <ele>798.8</ele>
        <time>2022-06-26T07:29:39Z</time>
      </trkpt>
      <trkpt lat="48.03012" lon="6.86306">
        <ele>799</ele>
        <time>2022-06-26T07:29:40Z</time>
      </trkpt>
      <trkpt lat="48.03009" lon="6.86308">
        <ele>799.2</ele>
        <time>2022-06-26T07:29:41Z</time>
      </trkpt>
      <trkpt lat="48.03007" lon="6.86309">
        <ele>799.4</ele>
        <time>2022-06-26T07:29:42Z</time>
      </trkpt>
      <trkpt lat="48.03004" lon="6.86311">
        <ele>799.6</ele>
        <time>2022-06-26T07:29:43Z</time>
      </trkpt>
      <trkpt lat="48.03003" lon="6.86312">
        <ele>799.6</ele>
        <time>2022-06-26T07:29:44Z</time>
      </trkpt>
      <trkpt lat="48.03001" lon="6.86313">
        <ele>799.8</ele>
        <time>2022-06-26T07:29:45Z</time>
      </trkpt>
      <trkpt lat="48.03" lon="6.86312">
        <ele>799.8</ele>
        <time>2022-06-26T07:29:46Z</time>
      </trkpt>
      <trkpt lat="48.02998" lon="6.86312">
        <ele>800</ele>
        <time>2022-06-26T07:29:47Z</time>
      </trkpt>
      <trkpt lat="48.02996" lon="6.86314">
        <ele>800.2</ele>
        <time>2022-06-26T07:29:48Z</time>
      </trkpt>
      <trkpt lat="48.02994" lon="6.86316">
        <ele>800.4</ele>
        <time>2022-06-26T07:29:49Z</time>
      </trkpt>
      <trkpt lat="48.02992" lon="6.86316">
        <ele>800.6</ele>
        <time>2022-06-26T07:29:50Z</time>
      </trkpt>
      <trkpt lat="48.0299" lon="6.86318">
        <ele>800.6</ele>
        <time>2022-06-26T07:29:51Z</time>
      </trkpt>
      <trkpt lat="48.02987" lon="6.8632">
        <ele>800.6</ele>
        <time>2022-06-26T07:29:52Z</time>
      </trkpt>
      <trkpt lat="48.02984" lon="6.86319">
        <ele>800.8</ele>
        <time>2022-06-26T07:29:53Z</time>
      </trkpt>
      <trkpt lat="48.02981" lon="6.86321">
        <ele>800.8</ele>
        <time>2022-06-26T07:29:54Z</time>
      </trkpt>
      <trkpt lat="48.02978" lon="6.8632">
        <ele>801</ele>
        <time>2022-06-26T07:29:55Z</time>
      </trkpt>
      <trkpt lat="48.02975" lon="6.8632">
        <ele>801</ele>
        <time>2022-06-26T07:29:56Z</time>
      </trkpt>
      <trkpt lat="48.02972" lon="6.86319">
        <ele>801.2</ele>
        <time>2022-06-26T07:29:57Z</time>
      </trkpt>
      <trkpt lat="48.02969" lon="6.86319">
        <ele>801.4</ele>
        <time>2022-06-26T07:29:58Z</time>
      </trkpt>
      <trkpt lat="48.02966" lon="6.86319">
        <ele>801.4</ele>
        <time>2022-06-26T07:29:59Z</time>
      </trkpt>
      <trkpt lat="48.02964" lon="6.8632">
        <ele>801.4</ele>
        <time>2022-06-26T07:30:00Z</time>
      </trkpt>
      <trkpt lat="48.02961" lon="6.8632">
        <ele>801.4</ele>
        <time>2022-06-26T07:30:01Z</time>
      </trkpt>
      <trkpt lat="48.02959" lon="6.8632">
        <ele>801.4</ele>
        <time>2022-06-26T07:30:02Z</time>
      </trkpt>
      <trkpt lat="48.02957" lon="6.86321">
        <ele>801.6</ele>
        <time>2022-06-26T07:30:03Z</time>
      </trkpt>
      <trkpt lat="48.02954" lon="6.86322">
        <ele>801.6</ele>
        <time>2022-06-26T07:30:04Z</time>
      </trkpt>
      <trkpt lat="48.02952" lon="6.86322">
        <ele>801.6</ele>
        <time>2022-06-26T07:30:05Z</time>
      </trkpt>
      <trkpt lat="48.0295" lon="6.86322">
        <ele>801.6</ele>
        <time>2022-06-26T07:30:06Z</time>
      </trkpt>
      <trkpt lat="48.02948" lon="6.86323">
        <ele>801.8</ele>
        <time>2022-06-26T07:30:07Z</time>
      </trkpt>
      <trkpt lat="48.02945" lon="6.86325">
        <ele>801.8</ele>
        <time>2022-06-26T07:30:08Z</time>
      </trkpt>
      <trkpt lat="48.02943" lon="6.86326">
        <ele>802</ele>
        <time>2022-06-26T07:30:09Z</time>
      </trkpt>
      <trkpt lat="48.02941" lon="6.86327">
        <ele>802</ele>
        <time>2022-06-26T07:30:10Z</time>
      </trkpt>
      <trkpt lat="48.02938" lon="6.86328">
        <ele>802.2</ele>
        <time>2022-06-26T07:30:11Z</time>
      </trkpt>
      <trkpt lat="48.02936" lon="6.86329">
        <ele>802.2</ele>
        <time>2022-06-26T07:30:12Z</time>
      </trkpt>
      <trkpt lat="48.02933" lon="6.8633">
        <ele>802.2</ele>
        <time>2022-06-26T07:30:13Z</time>
      </trkpt>
      <trkpt lat="48.0293" lon="6.8633">
        <ele>802.4</ele>
        <time>2022-06-26T07:30:14Z</time>
      </trkpt>
      <trkpt lat="48.02925" lon="6.86332">
        <ele>802.4</ele>
        <time>2022-06-26T07:30:16Z</time>
      </trkpt>
      <trkpt lat="48.02916" lon="6.86335">
        <ele>802.6</ele>
        <time>2022-06-26T07:30:19Z</time>
      </trkpt>
      <trkpt lat="48.02908" lon="6.86338">
        <ele>802.8</ele>
        <time>2022-06-26T07:30:22Z</time>
      </trkpt>
      <trkpt lat="48.02901" lon="6.86342">
        <ele>803.2</ele>
        <time>2022-06-26T07:30:25Z</time>
      </trkpt>
      <trkpt lat="48.02898" lon="6.86343">
        <ele>803.2</ele>
        <time>2022-06-26T07:30:26Z</time>
      </trkpt>
      <trkpt lat="48.02897" lon="6.86345">
        <ele>803.2</ele>
        <time>2022-06-26T07:30:27Z</time>
      </trkpt>
      <trkpt lat="48.02895" lon="6.86346">
        <ele>803.4</ele>
        <time>2022-06-26T07:30:28Z</time>
      </trkpt>
      <trkpt lat="48.02893" lon="6.86347">
        <ele>803.4</ele>
        <time>2022-06-26T07:30:29Z</time>
      </trkpt>
      <trkpt lat="48.02892" lon="6.86348">
        <ele>803.6</ele>
        <time>2022-06-26T07:30:30Z</time>
      </trkpt>
      <trkpt lat="48.02892" lon="6.86349">
        <ele>803.6</ele>
        <time>2022-06-26T07:30:31Z</time>
      </trkpt>
      <trkpt lat="48.0289" lon="6.86351">
        <ele>803.6</ele>
        <time>2022-06-26T07:30:32Z</time>
      </trkpt>
      <trkpt lat="48.02889" lon="6.86352">
        <ele>803.4</ele>
        <time>2022-06-26T07:30:33Z</time>
      </trkpt>
      <trkpt lat="48.02887" lon="6.86354">
        <ele>803.8</ele>
        <time>2022-06-26T07:30:34Z</time>
      </trkpt>
      <trkpt lat="48.02883" lon="6.86356">
        <ele>803.8</ele>
        <time>2022-06-26T07:30:35Z</time>
      </trkpt>
      <trkpt lat="48.02874" lon="6.86373">
        <ele>804.2</ele>
        <time>2022-06-26T07:30:38Z</time>
      </trkpt>
      <trkpt lat="48.02872" lon="6.86376">
        <ele>804.4</ele>
        <time>2022-06-26T07:30:39Z</time>
      </trkpt>
      <trkpt lat="48.0287" lon="6.86379">
        <ele>804.6</ele>
        <time>2022-06-26T07:30:40Z</time>
      </trkpt>
      <trkpt lat="48.0286" lon="6.86396">
        <ele>804.8</ele>
        <time>2022-06-26T07:30:45Z</time>
      </trkpt>
      <trkpt lat="48.02859" lon="6.86396">
        <ele>805</ele>
        <time>2022-06-26T07:30:46Z</time>
      </trkpt>
      <trkpt lat="48.02858" lon="6.86398">
        <ele>805.2</ele>
        <time>2022-06-26T07:30:47Z</time>
      </trkpt>
      <trkpt lat="48.02856" lon="6.86399">
        <ele>805.2</ele>
        <time>2022-06-26T07:30:48Z</time>
      </trkpt>
      <trkpt lat="48.02855" lon="6.86401">
        <ele>805.4</ele>
        <time>2022-06-26T07:30:49Z</time>
      </trkpt>
      <trkpt lat="48.02853" lon="6.86404">
        <ele>805.4</ele>
        <time>2022-06-26T07:30:50Z</time>
      </trkpt>
      <trkpt lat="48.02852" lon="6.86406">
        <ele>805.6</ele>
        <time>2022-06-26T07:30:51Z</time>
      </trkpt>
      <trkpt lat="48.0285" lon="6.86409">
        <ele>805.6</ele>
        <time>2022-06-26T07:30:52Z</time>
      </trkpt>
      <trkpt lat="48.02847" lon="6.86413">
        <ele>805.8</ele>
        <time>2022-06-26T07:30:54Z</time>
      </trkpt>
      <trkpt lat="48.02845" lon="6.86415">
        <ele>806</ele>
        <time>2022-06-26T07:30:55Z</time>
      </trkpt>
      <trkpt lat="48.02844" lon="6.86417">
        <ele>806</ele>
        <time>2022-06-26T07:30:56Z</time>
      </trkpt>
      <trkpt lat="48.02842" lon="6.86419">
        <ele>806.2</ele>
        <time>2022-06-26T07:30:57Z</time>
      </trkpt>
      <trkpt lat="48.02841" lon="6.86422">
        <ele>806.2</ele>
        <time>2022-06-26T07:30:58Z</time>
      </trkpt>
      <trkpt lat="48.0284" lon="6.86424">
        <ele>806</ele>
        <time>2022-06-26T07:30:59Z</time>
      </trkpt>
      <trkpt lat="48.02839" lon="6.86427">
        <ele>806.2</ele>
        <time>2022-06-26T07:31:00Z</time>
      </trkpt>
      <trkpt lat="48.02838" lon="6.8643">
        <ele>806.4</ele>
        <time>2022-06-26T07:31:01Z</time>
      </trkpt>
      <trkpt lat="48.02829" lon="6.86445">
        <ele>807</ele>
        <time>2022-06-26T07:31:06Z</time>
      </trkpt>
      <trkpt lat="48.02827" lon="6.86448">
        <ele>807.2</ele>
        <time>2022-06-26T07:31:07Z</time>
      </trkpt>
      <trkpt lat="48.02825" lon="6.86452">
        <ele>807.6</ele>
        <time>2022-06-26T07:31:08Z</time>
      </trkpt>
      <trkpt lat="48.02823" lon="6.86456">
        <ele>807.6</ele>
        <time>2022-06-26T07:31:09Z</time>
      </trkpt>
      <trkpt lat="48.02821" lon="6.8646">
        <ele>807.6</ele>
        <time>2022-06-26T07:31:10Z</time>
      </trkpt>
      <trkpt lat="48.02819" lon="6.86465">
        <ele>807.6</ele>
        <time>2022-06-26T07:31:11Z</time>
      </trkpt>
      <trkpt lat="48.02818" lon="6.8647">
        <ele>807.6</ele>
        <time>2022-06-26T07:31:12Z</time>
      </trkpt>
      <trkpt lat="48.02816" lon="6.86473">
        <ele>808</ele>
        <time>2022-06-26T07:31:13Z</time>
      </trkpt>
      <trkpt lat="48.02814" lon="6.86477">
        <ele>808</ele>
        <time>2022-06-26T07:31:14Z</time>
      </trkpt>
      <trkpt lat="48.02812" lon="6.86481">
        <ele>808</ele>
        <time>2022-06-26T07:31:15Z</time>
      </trkpt>
      <trkpt lat="48.0281" lon="6.86486">
        <ele>808</ele>
        <time>2022-06-26T07:31:16Z</time>
      </trkpt>
      <trkpt lat="48.02808" lon="6.86488">
        <ele>808</ele>
        <time>2022-06-26T07:31:17Z</time>
      </trkpt>
      <trkpt lat="48.02807" lon="6.86492">
        <ele>808.2</ele>
        <time>2022-06-26T07:31:18Z</time>
      </trkpt>
      <trkpt lat="48.02805" lon="6.86496">
        <ele>808</ele>
        <time>2022-06-26T07:31:19Z</time>
      </trkpt>
      <trkpt lat="48.02804" lon="6.865">
        <ele>808.2</ele>
        <time>2022-06-26T07:31:20Z</time>
      </trkpt>
      <trkpt lat="48.02803" lon="6.86503">
        <ele>808.2</ele>
        <time>2022-06-26T07:31:21Z</time>
      </trkpt>
      <trkpt lat="48.02802" lon="6.86507">
        <ele>808.4</ele>
        <time>2022-06-26T07:31:22Z</time>
      </trkpt>
      <trkpt lat="48.028" lon="6.8651">
        <ele>808.4</ele>
        <time>2022-06-26T07:31:23Z</time>
      </trkpt>
      <trkpt lat="48.02798" lon="6.86515">
        <ele>808.6</ele>
        <time>2022-06-26T07:31:24Z</time>
      </trkpt>
      <trkpt lat="48.02797" lon="6.86519">
        <ele>808.6</ele>
        <time>2022-06-26T07:31:25Z</time>
      </trkpt>
      <trkpt lat="48.02797" lon="6.86523">
        <ele>808.6</ele>
        <time>2022-06-26T07:31:26Z</time>
      </trkpt>
      <trkpt lat="48.02796" lon="6.86527">
        <ele>808.8</ele>
        <time>2022-06-26T07:31:27Z</time>
      </trkpt>
      <trkpt lat="48.02794" lon="6.86531">
        <ele>808.8</ele>
        <time>2022-06-26T07:31:28Z</time>
      </trkpt>
      <trkpt lat="48.02789" lon="6.86545">
        <ele>808.8</ele>
        <time>2022-06-26T07:31:31Z</time>
      </trkpt>
      <trkpt lat="48.02784" lon="6.86561">
        <ele>808.8</ele>
        <time>2022-06-26T07:31:35Z</time>
      </trkpt>
      <trkpt lat="48.02783" lon="6.86564">
        <ele>809</ele>
        <time>2022-06-26T07:31:36Z</time>
      </trkpt>
      <trkpt lat="48.02773" lon="6.86591">
        <ele>809.6</ele>
        <time>2022-06-26T07:31:42Z</time>
      </trkpt>
      <trkpt lat="48.02772" lon="6.86596">
        <ele>809.6</ele>
        <time>2022-06-26T07:31:43Z</time>
      </trkpt>
      <trkpt lat="48.02768" lon="6.86612">
        <ele>809.8</ele>
        <time>2022-06-26T07:31:46Z</time>
      </trkpt>
      <trkpt lat="48.02766" lon="6.86623">
        <ele>809.8</ele>
        <time>2022-06-26T07:31:48Z</time>
      </trkpt>
      <trkpt lat="48.02766" lon="6.86628">
        <ele>809.8</ele>
        <time>2022-06-26T07:31:49Z</time>
      </trkpt>
      <trkpt lat="48.02766" lon="6.86632">
        <ele>809.8</ele>
        <time>2022-06-26T07:31:50Z</time>
      </trkpt>
      <trkpt lat="48.02766" lon="6.86639">
        <ele>809.8</ele>
        <time>2022-06-26T07:31:52Z</time>
      </trkpt>
      <trkpt lat="48.02766" lon="6.86642">
        <ele>810</ele>
        <time>2022-06-26T07:31:53Z</time>
      </trkpt>
      <trkpt lat="48.02766" lon="6.86646">
        <ele>810</ele>
        <time>2022-06-26T07:31:54Z</time>
      </trkpt>
      <trkpt lat="48.02766" lon="6.86649">
        <ele>810</ele>
        <time>2022-06-26T07:31:55Z</time>
      </trkpt>
      <trkpt lat="48.02766" lon="6.86654">
        <ele>810</ele>
        <time>2022-06-26T07:31:56Z</time>
      </trkpt>
      <trkpt lat="48.02765" lon="6.86673">
        <ele>810.4</ele>
        <time>2022-06-26T07:32:00Z</time>
      </trkpt>
      <trkpt lat="48.02768" lon="6.86692">
        <ele>810.8</ele>
        <time>2022-06-26T07:32:04Z</time>
      </trkpt>
      <trkpt lat="48.02767" lon="6.86697">
        <ele>811</ele>
        <time>2022-06-26T07:32:05Z</time>
      </trkpt>
      <trkpt lat="48.02767" lon="6.86707">
        <ele>811.4</ele>
        <time>2022-06-26T07:32:07Z</time>
      </trkpt>
      <trkpt lat="48.02768" lon="6.86712">
        <ele>811.6</ele>
        <time>2022-06-26T07:32:08Z</time>
      </trkpt>
      <trkpt lat="48.02768" lon="6.86717">
        <ele>811.8</ele>
        <time>2022-06-26T07:32:09Z</time>
      </trkpt>
      <trkpt lat="48.02768" lon="6.86722">
        <ele>811.8</ele>
        <time>2022-06-26T07:32:10Z</time>
      </trkpt>
      <trkpt lat="48.02768" lon="6.86727">
        <ele>812</ele>
        <time>2022-06-26T07:32:11Z</time>
      </trkpt>
      <trkpt lat="48.02774" lon="6.86747">
        <ele>812.4</ele>
        <time>2022-06-26T07:32:16Z</time>
      </trkpt>
      <trkpt lat="48.02774" lon="6.86752">
        <ele>812.4</ele>
        <time>2022-06-26T07:32:17Z</time>
      </trkpt>
      <trkpt lat="48.02774" lon="6.86758">
        <ele>812.4</ele>
        <time>2022-06-26T07:32:18Z</time>
      </trkpt>
      <trkpt lat="48.02775" lon="6.86761">
        <ele>812.6</ele>
        <time>2022-06-26T07:32:19Z</time>
      </trkpt>
      <trkpt lat="48.02776" lon="6.86763">
        <ele>812.6</ele>
        <time>2022-06-26T07:32:20Z</time>
      </trkpt>
      <trkpt lat="48.02776" lon="6.86766">
        <ele>812.8</ele>
        <time>2022-06-26T07:32:21Z</time>
      </trkpt>
      <trkpt lat="48.02777" lon="6.86768">
        <ele>812.8</ele>
        <time>2022-06-26T07:32:22Z</time>
      </trkpt>
      <trkpt lat="48.02778" lon="6.86771">
        <ele>813</ele>
        <time>2022-06-26T07:32:23Z</time>
      </trkpt>
      <trkpt lat="48.02779" lon="6.86774">
        <ele>813.2</ele>
        <time>2022-06-26T07:32:24Z</time>
      </trkpt>
      <trkpt lat="48.0278" lon="6.86778">
        <ele>813.2</ele>
        <time>2022-06-26T07:32:25Z</time>
      </trkpt>
      <trkpt lat="48.0278" lon="6.86781">
        <ele>813.4</ele>
        <time>2022-06-26T07:32:26Z</time>
      </trkpt>
      <trkpt lat="48.02781" lon="6.86783">
        <ele>813.6</ele>
        <time>2022-06-26T07:32:27Z</time>
      </trkpt>
      <trkpt lat="48.02782" lon="6.86786">
        <ele>813.6</ele>
        <time>2022-06-26T07:32:28Z</time>
      </trkpt>
      <trkpt lat="48.02782" lon="6.86789">
        <ele>813.8</ele>
        <time>2022-06-26T07:32:29Z</time>
      </trkpt>
      <trkpt lat="48.02783" lon="6.86792">
        <ele>813.8</ele>
        <time>2022-06-26T07:32:30Z</time>
      </trkpt>
      <trkpt lat="48.02784" lon="6.86795">
        <ele>814</ele>
        <time>2022-06-26T07:32:31Z</time>
      </trkpt>
      <trkpt lat="48.02784" lon="6.86798">
        <ele>814</ele>
        <time>2022-06-26T07:32:32Z</time>
      </trkpt>
      <trkpt lat="48.02785" lon="6.86801">
        <ele>814.2</ele>
        <time>2022-06-26T07:32:33Z</time>
      </trkpt>
      <trkpt lat="48.02786" lon="6.86804">
        <ele>814.4</ele>
        <time>2022-06-26T07:32:34Z</time>
      </trkpt>
      <trkpt lat="48.02787" lon="6.86806">
        <ele>814.4</ele>
        <time>2022-06-26T07:32:35Z</time>
      </trkpt>
      <trkpt lat="48.02788" lon="6.86809">
        <ele>814.6</ele>
        <time>2022-06-26T07:32:36Z</time>
      </trkpt>
      <trkpt lat="48.02788" lon="6.86811">
        <ele>814.6</ele>
        <time>2022-06-26T07:32:37Z</time>
      </trkpt>
      <trkpt lat="48.02789" lon="6.86814">
        <ele>814.8</ele>
        <time>2022-06-26T07:32:38Z</time>
      </trkpt>
      <trkpt lat="48.0279" lon="6.86817">
        <ele>814.8</ele>
        <time>2022-06-26T07:32:39Z</time>
      </trkpt>
      <trkpt lat="48.0279" lon="6.86819">
        <ele>815</ele>
        <time>2022-06-26T07:32:40Z</time>
      </trkpt>
      <trkpt lat="48.02791" lon="6.86821">
        <ele>815.2</ele>
        <time>2022-06-26T07:32:41Z</time>
      </trkpt>
      <trkpt lat="48.02791" lon="6.86824">
        <ele>815.4</ele>
        <time>2022-06-26T07:32:42Z</time>
      </trkpt>
      <trkpt lat="48.02792" lon="6.86826">
        <ele>815.6</ele>
        <time>2022-06-26T07:32:43Z</time>
      </trkpt>
      <trkpt lat="48.02793" lon="6.86828">
        <ele>815.6</ele>
        <time>2022-06-26T07:32:44Z</time>
      </trkpt>
      <trkpt lat="48.02794" lon="6.8683">
        <ele>815.8</ele>
        <time>2022-06-26T07:32:45Z</time>
      </trkpt>
      <trkpt lat="48.02794" lon="6.86832">
        <ele>816</ele>
        <time>2022-06-26T07:32:46Z</time>
      </trkpt>
      <trkpt lat="48.02795" lon="6.86833">
        <ele>816.2</ele>
        <time>2022-06-26T07:32:47Z</time>
      </trkpt>
      <trkpt lat="48.02795" lon="6.86835">
        <ele>816.6</ele>
        <time>2022-06-26T07:32:48Z</time>
      </trkpt>
      <trkpt lat="48.02796" lon="6.86836">
        <ele>816.6</ele>
        <time>2022-06-26T07:32:49Z</time>
      </trkpt>
      <trkpt lat="48.02796" lon="6.86838">
        <ele>816.8</ele>
        <time>2022-06-26T07:32:50Z</time>
      </trkpt>
      <trkpt lat="48.02796" lon="6.8684">
        <ele>816.8</ele>
        <time>2022-06-26T07:32:51Z</time>
      </trkpt>
      <trkpt lat="48.02796" lon="6.86841">
        <ele>817.2</ele>
        <time>2022-06-26T07:32:52Z</time>
      </trkpt>
      <trkpt lat="48.02797" lon="6.86843">
        <ele>817.4</ele>
        <time>2022-06-26T07:32:53Z</time>
      </trkpt>
      <trkpt lat="48.02797" lon="6.86844">
        <ele>817.4</ele>
        <time>2022-06-26T07:32:54Z</time>
      </trkpt>
      <trkpt lat="48.02797" lon="6.86846">
        <ele>817.8</ele>
        <time>2022-06-26T07:32:55Z</time>
      </trkpt>
      <trkpt lat="48.02798" lon="6.86848">
        <ele>818.2</ele>
        <time>2022-06-26T07:32:56Z</time>
      </trkpt>
      <trkpt lat="48.02798" lon="6.8685">
        <ele>818.6</ele>
        <time>2022-06-26T07:32:57Z</time>
      </trkpt>
      <trkpt lat="48.02799" lon="6.86853">
        <ele>818.6</ele>
        <time>2022-06-26T07:32:58Z</time>
      </trkpt>
      <trkpt lat="48.028" lon="6.86856">
        <ele>818.8</ele>
        <time>2022-06-26T07:32:59Z</time>
      </trkpt>
      <trkpt lat="48.028" lon="6.86858">
        <ele>818.8</ele>
        <time>2022-06-26T07:33:00Z</time>
      </trkpt>
      <trkpt lat="48.028" lon="6.86861">
        <ele>819</ele>
        <time>2022-06-26T07:33:01Z</time>
      </trkpt>
      <trkpt lat="48.02801" lon="6.86863">
        <ele>819</ele>
        <time>2022-06-26T07:33:02Z</time>
      </trkpt>
      <trkpt lat="48.02802" lon="6.86865">
        <ele>819.2</ele>
        <time>2022-06-26T07:33:03Z</time>
      </trkpt>
      <trkpt lat="48.02802" lon="6.86867">
        <ele>819.4</ele>
        <time>2022-06-26T07:33:04Z</time>
      </trkpt>
      <trkpt lat="48.02803" lon="6.86869">
        <ele>819.4</ele>
        <time>2022-06-26T07:33:05Z</time>
      </trkpt>
      <trkpt lat="48.02803" lon="6.86871">
        <ele>819.6</ele>
        <time>2022-06-26T07:33:06Z</time>
      </trkpt>
      <trkpt lat="48.02804" lon="6.86873">
        <ele>819.6</ele>
        <time>2022-06-26T07:33:07Z</time>
      </trkpt>
      <trkpt lat="48.02805" lon="6.86875">
        <ele>819.8</ele>
        <time>2022-06-26T07:33:08Z</time>
      </trkpt>
      <trkpt lat="48.02806" lon="6.86879">
        <ele>819.8</ele>
        <time>2022-06-26T07:33:09Z</time>
      </trkpt>
      <trkpt lat="48.02807" lon="6.86882">
        <ele>820</ele>
        <time>2022-06-26T07:33:10Z</time>
      </trkpt>
      <trkpt lat="48.02807" lon="6.86885">
        <ele>820.2</ele>
        <time>2022-06-26T07:33:11Z</time>
      </trkpt>
      <trkpt lat="48.02807" lon="6.86887">
        <ele>820.2</ele>
        <time>2022-06-26T07:33:12Z</time>
      </trkpt>
      <trkpt lat="48.02807" lon="6.8689">
        <ele>820.2</ele>
        <time>2022-06-26T07:33:13Z</time>
      </trkpt>
      <trkpt lat="48.02808" lon="6.86892">
        <ele>820.4</ele>
        <time>2022-06-26T07:33:14Z</time>
      </trkpt>
      <trkpt lat="48.02809" lon="6.86894">
        <ele>820.6</ele>
        <time>2022-06-26T07:33:15Z</time>
      </trkpt>
      <trkpt lat="48.0281" lon="6.86897">
        <ele>820.8</ele>
        <time>2022-06-26T07:33:16Z</time>
      </trkpt>
      <trkpt lat="48.02811" lon="6.86898">
        <ele>821</ele>
        <time>2022-06-26T07:33:17Z</time>
      </trkpt>
      <trkpt lat="48.02812" lon="6.86899">
        <ele>821.2</ele>
        <time>2022-06-26T07:33:18Z</time>
      </trkpt>
      <trkpt lat="48.02813" lon="6.86901">
        <ele>821.2</ele>
        <time>2022-06-26T07:33:19Z</time>
      </trkpt>
      <trkpt lat="48.02813" lon="6.86903">
        <ele>821.2</ele>
        <time>2022-06-26T07:33:20Z</time>
      </trkpt>
      <trkpt lat="48.02814" lon="6.86905">
        <ele>821.4</ele>
        <time>2022-06-26T07:33:21Z</time>
      </trkpt>
      <trkpt lat="48.02816" lon="6.86907">
        <ele>821.4</ele>
        <time>2022-06-26T07:33:22Z</time>
      </trkpt>
      <trkpt lat="48.02817" lon="6.86909">
        <ele>821.6</ele>
        <time>2022-06-26T07:33:23Z</time>
      </trkpt>
      <trkpt lat="48.02817" lon="6.86912">
        <ele>821.8</ele>
        <time>2022-06-26T07:33:24Z</time>
      </trkpt>
      <trkpt lat="48.02817" lon="6.86915">
        <ele>821.8</ele>
        <time>2022-06-26T07:33:25Z</time>
      </trkpt>
      <trkpt lat="48.02817" lon="6.86917">
        <ele>822</ele>
        <time>2022-06-26T07:33:26Z</time>
      </trkpt>
      <trkpt lat="48.02817" lon="6.86919">
        <ele>822</ele>
        <time>2022-06-26T07:33:27Z</time>
      </trkpt>
      <trkpt lat="48.02818" lon="6.86921">
        <ele>822.2</ele>
        <time>2022-06-26T07:33:28Z</time>
      </trkpt>
      <trkpt lat="48.02818" lon="6.86923">
        <ele>822.2</ele>
        <time>2022-06-26T07:33:29Z</time>
      </trkpt>
      <trkpt lat="48.02819" lon="6.86926">
        <ele>822.4</ele>
        <time>2022-06-26T07:33:30Z</time>
      </trkpt>
      <trkpt lat="48.02819" lon="6.86928">
        <ele>822.6</ele>
        <time>2022-06-26T07:33:31Z</time>
      </trkpt>
      <trkpt lat="48.02819" lon="6.8693">
        <ele>822.8</ele>
        <time>2022-06-26T07:33:32Z</time>
      </trkpt>
      <trkpt lat="48.0282" lon="6.86932">
        <ele>823</ele>
        <time>2022-06-26T07:33:33Z</time>
      </trkpt>
      <trkpt lat="48.0282" lon="6.86934">
        <ele>823</ele>
        <time>2022-06-26T07:33:34Z</time>
      </trkpt>
      <trkpt lat="48.02821" lon="6.86936">
        <ele>823.2</ele>
        <time>2022-06-26T07:33:35Z</time>
      </trkpt>
      <trkpt lat="48.02821" lon="6.86939">
        <ele>823.4</ele>
        <time>2022-06-26T07:33:36Z</time>
      </trkpt>
      <trkpt lat="48.02821" lon="6.86942">
        <ele>823.6</ele>
        <time>2022-06-26T07:33:37Z</time>
      </trkpt>
      <trkpt lat="48.02822" lon="6.86945">
        <ele>823.6</ele>
        <time>2022-06-26T07:33:38Z</time>
      </trkpt>
      <trkpt lat="48.02822" lon="6.86948">
        <ele>823.8</ele>
        <time>2022-06-26T07:33:39Z</time>
      </trkpt>
      <trkpt lat="48.02822" lon="6.8695">
        <ele>824</ele>
        <time>2022-06-26T07:33:40Z</time>
      </trkpt>
      <trkpt lat="48.02824" lon="6.86953">
        <ele>824</ele>
        <time>2022-06-26T07:33:41Z</time>
      </trkpt>
      <trkpt lat="48.02825" lon="6.86955">
        <ele>824.2</ele>
        <time>2022-06-26T07:33:42Z</time>
      </trkpt>
      <trkpt lat="48.02825" lon="6.86956">
        <ele>824.4</ele>
        <time>2022-06-26T07:33:43Z</time>
      </trkpt>
      <trkpt lat="48.02825" lon="6.86957">
        <ele>824.4</ele>
        <time>2022-06-26T07:33:44Z</time>
      </trkpt>
      <trkpt lat="48.02825" lon="6.86959">
        <ele>824.6</ele>
        <time>2022-06-26T07:33:45Z</time>
      </trkpt>
      <trkpt lat="48.02826" lon="6.86961">
        <ele>824.8</ele>
        <time>2022-06-26T07:33:46Z</time>
      </trkpt>
      <trkpt lat="48.02827" lon="6.86963">
        <ele>825</ele>
        <time>2022-06-26T07:33:47Z</time>
      </trkpt>
      <trkpt lat="48.02828" lon="6.86966">
        <ele>825.2</ele>
        <time>2022-06-26T07:33:48Z</time>
      </trkpt>
      <trkpt lat="48.02829" lon="6.86969">
        <ele>825.4</ele>
        <time>2022-06-26T07:33:49Z</time>
      </trkpt>
      <trkpt lat="48.0283" lon="6.86971">
        <ele>825.4</ele>
        <time>2022-06-26T07:33:50Z</time>
      </trkpt>
      <trkpt lat="48.0283" lon="6.86973">
        <ele>825.4</ele>
        <time>2022-06-26T07:33:51Z</time>
      </trkpt>
      <trkpt lat="48.02831" lon="6.86976">
        <ele>825.6</ele>
        <time>2022-06-26T07:33:52Z</time>
      </trkpt>
      <trkpt lat="48.02833" lon="6.86977">
        <ele>826</ele>
        <time>2022-06-26T07:33:53Z</time>
      </trkpt>
      <trkpt lat="48.02835" lon="6.86979">
        <ele>826</ele>
        <time>2022-06-26T07:33:54Z</time>
      </trkpt>
      <trkpt lat="48.02836" lon="6.86981">
        <ele>826.4</ele>
        <time>2022-06-26T07:33:55Z</time>
      </trkpt>
      <trkpt lat="48.02837" lon="6.86982">
        <ele>826.6</ele>
        <time>2022-06-26T07:33:56Z</time>
      </trkpt>
      <trkpt lat="48.02837" lon="6.86982">
        <ele>826.8</ele>
        <time>2022-06-26T07:33:57Z</time>
      </trkpt>
      <trkpt lat="48.02838" lon="6.86982">
        <ele>827</ele>
        <time>2022-06-26T07:33:58Z</time>
      </trkpt>
      <trkpt lat="48.02839" lon="6.86982">
        <ele>827</ele>
        <time>2022-06-26T07:33:59Z</time>
      </trkpt>
      <trkpt lat="48.02841" lon="6.86984">
        <ele>827</ele>
        <time>2022-06-26T07:34:00Z</time>
      </trkpt>
      <trkpt lat="48.02843" lon="6.86986">
        <ele>827</ele>
        <time>2022-06-26T07:34:01Z</time>
      </trkpt>
      <trkpt lat="48.02845" lon="6.86988">
        <ele>827</ele>
        <time>2022-06-26T07:34:02Z</time>
      </trkpt>
      <trkpt lat="48.02846" lon="6.86991">
        <ele>827</ele>
        <time>2022-06-26T07:34:03Z</time>
      </trkpt>
      <trkpt lat="48.02848" lon="6.86993">
        <ele>827</ele>
        <time>2022-06-26T07:34:04Z</time>
      </trkpt>
      <trkpt lat="48.0285" lon="6.86996">
        <ele>826.6</ele>
        <time>2022-06-26T07:34:05Z</time>
      </trkpt>
      <trkpt lat="48.02852" lon="6.86999">
        <ele>826</ele>
        <time>2022-06-26T07:34:06Z</time>
      </trkpt>
      <trkpt lat="48.02852" lon="6.86999">
        <ele>825.6</ele>
        <time>2022-06-26T07:34:07Z</time>
      </trkpt>
      <trkpt lat="48.02854" lon="6.87">
        <ele>825.4</ele>
        <time>2022-06-26T07:34:08Z</time>
      </trkpt>
      <trkpt lat="48.02855" lon="6.87">
        <ele>824.6</ele>
        <time>2022-06-26T07:34:09Z</time>
      </trkpt>
      <trkpt lat="48.02857" lon="6.87">
        <ele>824.2</ele>
        <time>2022-06-26T07:34:10Z</time>
      </trkpt>
      <trkpt lat="48.02858" lon="6.86998">
        <ele>823.4</ele>
        <time>2022-06-26T07:34:11Z</time>
      </trkpt>
      <trkpt lat="48.0286" lon="6.86995">
        <ele>823.2</ele>
        <time>2022-06-26T07:34:13Z</time>
      </trkpt>
      <trkpt lat="48.02861" lon="6.86994">
        <ele>823.2</ele>
        <time>2022-06-26T07:34:14Z</time>
      </trkpt>
      <trkpt lat="48.02863" lon="6.86993">
        <ele>823</ele>
        <time>2022-06-26T07:34:15Z</time>
      </trkpt>
      <trkpt lat="48.02865" lon="6.86991">
        <ele>823</ele>
        <time>2022-06-26T07:34:16Z</time>
      </trkpt>
      <trkpt lat="48.02867" lon="6.86989">
        <ele>823</ele>
        <time>2022-06-26T07:34:17Z</time>
      </trkpt>
      <trkpt lat="48.02867" lon="6.86988">
        <ele>823.2</ele>
        <time>2022-06-26T07:34:18Z</time>
      </trkpt>
      <trkpt lat="48.02868" lon="6.86988">
        <ele>823.2</ele>
        <time>2022-06-26T07:34:19Z</time>
      </trkpt>
      <trkpt lat="48.02869" lon="6.86988">
        <ele>823.4</ele>
        <time>2022-06-26T07:34:20Z</time>
      </trkpt>
      <trkpt lat="48.02872" lon="6.86987">
        <ele>823.4</ele>
        <time>2022-06-26T07:34:21Z</time>
      </trkpt>
      <trkpt lat="48.02875" lon="6.86986">
        <ele>823.4</ele>
        <time>2022-06-26T07:34:22Z</time>
      </trkpt>
      <trkpt lat="48.02876" lon="6.86984">
        <ele>823.6</ele>
        <time>2022-06-26T07:34:23Z</time>
      </trkpt>
      <trkpt lat="48.02879" lon="6.86977">
        <ele>823.8</ele>
        <time>2022-06-26T07:34:26Z</time>
      </trkpt>
      <trkpt lat="48.02879" lon="6.86973">
        <ele>823.8</ele>
        <time>2022-06-26T07:34:27Z</time>
      </trkpt>
      <trkpt lat="48.02882" lon="6.86965">
        <ele>824</ele>
        <time>2022-06-26T07:34:30Z</time>
      </trkpt>
      <trkpt lat="48.02884" lon="6.86964">
        <ele>824</ele>
        <time>2022-06-26T07:34:31Z</time>
      </trkpt>
      <trkpt lat="48.02888" lon="6.86962">
        <ele>824</ele>
        <time>2022-06-26T07:34:32Z</time>
      </trkpt>
      <trkpt lat="48.0289" lon="6.8696">
        <ele>824</ele>
        <time>2022-06-26T07:34:33Z</time>
      </trkpt>
      <trkpt lat="48.02894" lon="6.86959">
        <ele>824</ele>
        <time>2022-06-26T07:34:34Z</time>
      </trkpt>
      <trkpt lat="48.02897" lon="6.86958">
        <ele>824.2</ele>
        <time>2022-06-26T07:34:35Z</time>
      </trkpt>
      <trkpt lat="48.02899" lon="6.86959">
        <ele>824.2</ele>
        <time>2022-06-26T07:34:36Z</time>
      </trkpt>
      <trkpt lat="48.02902" lon="6.8696">
        <ele>824.2</ele>
        <time>2022-06-26T07:34:37Z</time>
      </trkpt>
      <trkpt lat="48.02904" lon="6.86961">
        <ele>824.2</ele>
        <time>2022-06-26T07:34:38Z</time>
      </trkpt>
      <trkpt lat="48.02907" lon="6.86961">
        <ele>824.2</ele>
        <time>2022-06-26T07:34:39Z</time>
      </trkpt>
      <trkpt lat="48.02909" lon="6.86961">
        <ele>824.4</ele>
        <time>2022-06-26T07:34:40Z</time>
      </trkpt>
      <trkpt lat="48.02912" lon="6.8696">
        <ele>824.4</ele>
        <time>2022-06-26T07:34:41Z</time>
      </trkpt>
      <trkpt lat="48.02914" lon="6.86958">
        <ele>824.4</ele>
        <time>2022-06-26T07:34:42Z</time>
      </trkpt>
      <trkpt lat="48.02916" lon="6.86956">
        <ele>824.8</ele>
        <time>2022-06-26T07:34:43Z</time>
      </trkpt>
      <trkpt lat="48.02921" lon="6.86951">
        <ele>825</ele>
        <time>2022-06-26T07:34:45Z</time>
      </trkpt>
      <trkpt lat="48.02923" lon="6.86947">
        <ele>825</ele>
        <time>2022-06-26T07:34:46Z</time>
      </trkpt>
      <trkpt lat="48.02926" lon="6.86943">
        <ele>825</ele>
        <time>2022-06-26T07:34:47Z</time>
      </trkpt>
      <trkpt lat="48.02938" lon="6.86928">
        <ele>825.2</ele>
        <time>2022-06-26T07:34:52Z</time>
      </trkpt>
      <trkpt lat="48.02939" lon="6.86927">
        <ele>825.4</ele>
        <time>2022-06-26T07:34:53Z</time>
      </trkpt>
      <trkpt lat="48.02941" lon="6.86926">
        <ele>825.4</ele>
        <time>2022-06-26T07:34:54Z</time>
      </trkpt>
      <trkpt lat="48.02943" lon="6.86924">
        <ele>825.4</ele>
        <time>2022-06-26T07:34:55Z</time>
      </trkpt>
      <trkpt lat="48.02944" lon="6.86923">
        <ele>825.4</ele>
        <time>2022-06-26T07:34:56Z</time>
      </trkpt>
      <trkpt lat="48.02945" lon="6.86922">
        <ele>825.6</ele>
        <time>2022-06-26T07:34:57Z</time>
      </trkpt>
      <trkpt lat="48.02946" lon="6.86922">
        <ele>825.8</ele>
        <time>2022-06-26T07:34:58Z</time>
      </trkpt>
      <trkpt lat="48.02947" lon="6.86921">
        <ele>825.8</ele>
        <time>2022-06-26T07:34:59Z</time>
      </trkpt>
      <trkpt lat="48.02948" lon="6.8692">
        <ele>826</ele>
        <time>2022-06-26T07:35:00Z</time>
      </trkpt>
      <trkpt lat="48.02952" lon="6.86917">
        <ele>826.6</ele>
        <time>2022-06-26T07:35:03Z</time>
      </trkpt>
      <trkpt lat="48.02953" lon="6.86916">
        <ele>826.6</ele>
        <time>2022-06-26T07:35:04Z</time>
      </trkpt>
      <trkpt lat="48.02954" lon="6.86916">
        <ele>826.8</ele>
        <time>2022-06-26T07:35:05Z</time>
      </trkpt>
      <trkpt lat="48.02955" lon="6.86914">
        <ele>827</ele>
        <time>2022-06-26T07:35:06Z</time>
      </trkpt>
      <trkpt lat="48.02956" lon="6.86914">
        <ele>827.4</ele>
        <time>2022-06-26T07:35:07Z</time>
      </trkpt>
      <trkpt lat="48.02957" lon="6.86913">
        <ele>827.4</ele>
        <time>2022-06-26T07:35:08Z</time>
      </trkpt>
      <trkpt lat="48.02957" lon="6.86912">
        <ele>827.8</ele>
        <time>2022-06-26T07:35:09Z</time>
      </trkpt>
      <trkpt lat="48.02958" lon="6.8691">
        <ele>828.2</ele>
        <time>2022-06-26T07:35:10Z</time>
      </trkpt>
      <trkpt lat="48.0296" lon="6.86909">
        <ele>828.4</ele>
        <time>2022-06-26T07:35:11Z</time>
      </trkpt>
      <trkpt lat="48.02961" lon="6.86908">
        <ele>828.6</ele>
        <time>2022-06-26T07:35:12Z</time>
      </trkpt>
      <trkpt lat="48.02962" lon="6.86907">
        <ele>828.8</ele>
        <time>2022-06-26T07:35:13Z</time>
      </trkpt>
      <trkpt lat="48.02963" lon="6.86907">
        <ele>829</ele>
        <time>2022-06-26T07:35:14Z</time>
      </trkpt>
      <trkpt lat="48.02964" lon="6.86907">
        <ele>829.2</ele>
        <time>2022-06-26T07:35:15Z</time>
      </trkpt>
      <trkpt lat="48.02966" lon="6.86906">
        <ele>829.6</ele>
        <time>2022-06-26T07:35:16Z</time>
      </trkpt>
      <trkpt lat="48.02967" lon="6.86904">
        <ele>829.8</ele>
        <time>2022-06-26T07:35:17Z</time>
      </trkpt>
      <trkpt lat="48.02968" lon="6.86903">
        <ele>830</ele>
        <time>2022-06-26T07:35:18Z</time>
      </trkpt>
      <trkpt lat="48.02969" lon="6.86902">
        <ele>830.2</ele>
        <time>2022-06-26T07:35:19Z</time>
      </trkpt>
      <trkpt lat="48.0297" lon="6.86902">
        <ele>830.2</ele>
        <time>2022-06-26T07:35:20Z</time>
      </trkpt>
      <trkpt lat="48.02971" lon="6.86901">
        <ele>830.4</ele>
        <time>2022-06-26T07:35:21Z</time>
      </trkpt>
      <trkpt lat="48.02971" lon="6.86901">
        <ele>830.6</ele>
        <time>2022-06-26T07:35:22Z</time>
      </trkpt>
      <trkpt lat="48.02973" lon="6.869">
        <ele>830.8</ele>
        <time>2022-06-26T07:35:23Z</time>
      </trkpt>
      <trkpt lat="48.02974" lon="6.86898">
        <ele>831</ele>
        <time>2022-06-26T07:35:24Z</time>
      </trkpt>
      <trkpt lat="48.02975" lon="6.86897">
        <ele>831.2</ele>
        <time>2022-06-26T07:35:25Z</time>
      </trkpt>
      <trkpt lat="48.02976" lon="6.86895">
        <ele>831.2</ele>
        <time>2022-06-26T07:35:26Z</time>
      </trkpt>
      <trkpt lat="48.02978" lon="6.86893">
        <ele>831.4</ele>
        <time>2022-06-26T07:35:27Z</time>
      </trkpt>
      <trkpt lat="48.02979" lon="6.86892">
        <ele>831.6</ele>
        <time>2022-06-26T07:35:28Z</time>
      </trkpt>
      <trkpt lat="48.0298" lon="6.86891">
        <ele>831.6</ele>
        <time>2022-06-26T07:35:29Z</time>
      </trkpt>
      <trkpt lat="48.02981" lon="6.8689">
        <ele>832</ele>
        <time>2022-06-26T07:35:30Z</time>
      </trkpt>
      <trkpt lat="48.02982" lon="6.86889">
        <ele>832.2</ele>
        <time>2022-06-26T07:35:31Z</time>
      </trkpt>
      <trkpt lat="48.02983" lon="6.86888">
        <ele>832.4</ele>
        <time>2022-06-26T07:35:32Z</time>
      </trkpt>
      <trkpt lat="48.02983" lon="6.86886">
        <ele>832.6</ele>
        <time>2022-06-26T07:35:33Z</time>
      </trkpt>
      <trkpt lat="48.02984" lon="6.86886">
        <ele>832.8</ele>
        <time>2022-06-26T07:35:34Z</time>
      </trkpt>
      <trkpt lat="48.02985" lon="6.86884">
        <ele>833</ele>
        <time>2022-06-26T07:35:35Z</time>
      </trkpt>
      <trkpt lat="48.02986" lon="6.86883">
        <ele>833.2</ele>
        <time>2022-06-26T07:35:36Z</time>
      </trkpt>
      <trkpt lat="48.02987" lon="6.86882">
        <ele>833.4</ele>
        <time>2022-06-26T07:35:37Z</time>
      </trkpt>
      <trkpt lat="48.02987" lon="6.86882">
        <ele>833.6</ele>
        <time>2022-06-26T07:35:38Z</time>
      </trkpt>
      <trkpt lat="48.02988" lon="6.8688">
        <ele>833.8</ele>
        <time>2022-06-26T07:35:39Z</time>
      </trkpt>
      <trkpt lat="48.02989" lon="6.86879">
        <ele>834</ele>
        <time>2022-06-26T07:35:40Z</time>
      </trkpt>
      <trkpt lat="48.0299" lon="6.86877">
        <ele>834.2</ele>
        <time>2022-06-26T07:35:41Z</time>
      </trkpt>
      <trkpt lat="48.0299" lon="6.86877">
        <ele>834.4</ele>
        <time>2022-06-26T07:35:42Z</time>
      </trkpt>
      <trkpt lat="48.02991" lon="6.86877">
        <ele>834.6</ele>
        <time>2022-06-26T07:35:43Z</time>
      </trkpt>
      <trkpt lat="48.02992" lon="6.86876">
        <ele>834.8</ele>
        <time>2022-06-26T07:35:44Z</time>
      </trkpt>
      <trkpt lat="48.02993" lon="6.86874">
        <ele>835</ele>
        <time>2022-06-26T07:35:45Z</time>
      </trkpt>
      <trkpt lat="48.02994" lon="6.86873">
        <ele>835.2</ele>
        <time>2022-06-26T07:35:46Z</time>
      </trkpt>
      <trkpt lat="48.02995" lon="6.86872">
        <ele>835.4</ele>
        <time>2022-06-26T07:35:47Z</time>
      </trkpt>
      <trkpt lat="48.02995" lon="6.86872">
        <ele>835.8</ele>
        <time>2022-06-26T07:35:48Z</time>
      </trkpt>
      <trkpt lat="48.02996" lon="6.86871">
        <ele>835.8</ele>
        <time>2022-06-26T07:35:49Z</time>
      </trkpt>
      <trkpt lat="48.02996" lon="6.8687">
        <ele>836.2</ele>
        <time>2022-06-26T07:35:50Z</time>
      </trkpt>
      <trkpt lat="48.02998" lon="6.8687">
        <ele>836.2</ele>
        <time>2022-06-26T07:35:51Z</time>
      </trkpt>
      <trkpt lat="48.02999" lon="6.86869">
        <ele>836.6</ele>
        <time>2022-06-26T07:35:52Z</time>
      </trkpt>
      <trkpt lat="48.03" lon="6.86867">
        <ele>836.6</ele>
        <time>2022-06-26T07:35:53Z</time>
      </trkpt>
      <trkpt lat="48.03" lon="6.86867">
        <ele>837</ele>
        <time>2022-06-26T07:35:54Z</time>
      </trkpt>
      <trkpt lat="48.03001" lon="6.86867">
        <ele>837.2</ele>
        <time>2022-06-26T07:35:55Z</time>
      </trkpt>
      <trkpt lat="48.03001" lon="6.86866">
        <ele>837.6</ele>
        <time>2022-06-26T07:35:56Z</time>
      </trkpt>
      <trkpt lat="48.03002" lon="6.86865">
        <ele>838</ele>
        <time>2022-06-26T07:35:57Z</time>
      </trkpt>
      <trkpt lat="48.03003" lon="6.86864">
        <ele>838.2</ele>
        <time>2022-06-26T07:35:58Z</time>
      </trkpt>
      <trkpt lat="48.03003" lon="6.86863">
        <ele>838.4</ele>
        <time>2022-06-26T07:35:59Z</time>
      </trkpt>
      <trkpt lat="48.03004" lon="6.86862">
        <ele>838.4</ele>
        <time>2022-06-26T07:36:00Z</time>
      </trkpt>
      <trkpt lat="48.03006" lon="6.86861">
        <ele>838.8</ele>
        <time>2022-06-26T07:36:01Z</time>
      </trkpt>
      <trkpt lat="48.03006" lon="6.86861">
        <ele>838.8</ele>
        <time>2022-06-26T07:36:02Z</time>
      </trkpt>
      <trkpt lat="48.03007" lon="6.8686">
        <ele>839.2</ele>
        <time>2022-06-26T07:36:03Z</time>
      </trkpt>
      <trkpt lat="48.03008" lon="6.8686">
        <ele>839.4</ele>
        <time>2022-06-26T07:36:04Z</time>
      </trkpt>
      <trkpt lat="48.0301" lon="6.86859">
        <ele>839.6</ele>
        <time>2022-06-26T07:36:05Z</time>
      </trkpt>
      <trkpt lat="48.0301" lon="6.86858">
        <ele>839.8</ele>
        <time>2022-06-26T07:36:06Z</time>
      </trkpt>
      <trkpt lat="48.03012" lon="6.86856">
        <ele>840</ele>
        <time>2022-06-26T07:36:07Z</time>
      </trkpt>
      <trkpt lat="48.03013" lon="6.86855">
        <ele>840.4</ele>
        <time>2022-06-26T07:36:08Z</time>
      </trkpt>
      <trkpt lat="48.03014" lon="6.86854">
        <ele>840.6</ele>
        <time>2022-06-26T07:36:09Z</time>
      </trkpt>
      <trkpt lat="48.03016" lon="6.86854">
        <ele>840.8</ele>
        <time>2022-06-26T07:36:10Z</time>
      </trkpt>
      <trkpt lat="48.03017" lon="6.86853">
        <ele>841</ele>
        <time>2022-06-26T07:36:11Z</time>
      </trkpt>
      <trkpt lat="48.03018" lon="6.8685">
        <ele>841.2</ele>
        <time>2022-06-26T07:36:12Z</time>
      </trkpt>
      <trkpt lat="48.03019" lon="6.86849">
        <ele>841.4</ele>
        <time>2022-06-26T07:36:13Z</time>
      </trkpt>
      <trkpt lat="48.0302" lon="6.86847">
        <ele>841.6</ele>
        <time>2022-06-26T07:36:14Z</time>
      </trkpt>
      <trkpt lat="48.0302" lon="6.86846">
        <ele>841.8</ele>
        <time>2022-06-26T07:36:15Z</time>
      </trkpt>
      <trkpt lat="48.0302" lon="6.86846">
        <ele>842</ele>
        <time>2022-06-26T07:36:16Z</time>
      </trkpt>
      <trkpt lat="48.03022" lon="6.86845">
        <ele>842.2</ele>
        <time>2022-06-26T07:36:17Z</time>
      </trkpt>
      <trkpt lat="48.03023" lon="6.86844">
        <ele>842.2</ele>
        <time>2022-06-26T07:36:18Z</time>
      </trkpt>
      <trkpt lat="48.03024" lon="6.86843">
        <ele>842.4</ele>
        <time>2022-06-26T07:36:19Z</time>
      </trkpt>
      <trkpt lat="48.03025" lon="6.86842">
        <ele>842.6</ele>
        <time>2022-06-26T07:36:20Z</time>
      </trkpt>
      <trkpt lat="48.03026" lon="6.8684">
        <ele>842.8</ele>
        <time>2022-06-26T07:36:21Z</time>
      </trkpt>
      <trkpt lat="48.03026" lon="6.8684">
        <ele>843</ele>
        <time>2022-06-26T07:36:22Z</time>
      </trkpt>
      <trkpt lat="48.03026" lon="6.8684">
        <ele>843.2</ele>
        <time>2022-06-26T07:36:23Z</time>
      </trkpt>
      <trkpt lat="48.03027" lon="6.86839">
        <ele>843.6</ele>
        <time>2022-06-26T07:36:24Z</time>
      </trkpt>
      <trkpt lat="48.03027" lon="6.86839">
        <ele>843.6</ele>
        <time>2022-06-26T07:36:25Z</time>
      </trkpt>
      <trkpt lat="48.03028" lon="6.86837">
        <ele>843.8</ele>
        <time>2022-06-26T07:36:26Z</time>
      </trkpt>
      <trkpt lat="48.03029" lon="6.86835">
        <ele>843.8</ele>
        <time>2022-06-26T07:36:27Z</time>
      </trkpt>
      <trkpt lat="48.0303" lon="6.86833">
        <ele>844</ele>
        <time>2022-06-26T07:36:28Z</time>
      </trkpt>
      <trkpt lat="48.03031" lon="6.86833">
        <ele>844.4</ele>
        <time>2022-06-26T07:36:29Z</time>
      </trkpt>
      <trkpt lat="48.03032" lon="6.86831">
        <ele>844.6</ele>
        <time>2022-06-26T07:36:30Z</time>
      </trkpt>
      <trkpt lat="48.03034" lon="6.86829">
        <ele>844.8</ele>
        <time>2022-06-26T07:36:31Z</time>
      </trkpt>
      <trkpt lat="48.03035" lon="6.86827">
        <ele>844.8</ele>
        <time>2022-06-26T07:36:32Z</time>
      </trkpt>
      <trkpt lat="48.03035" lon="6.86826">
        <ele>845</ele>
        <time>2022-06-26T07:36:33Z</time>
      </trkpt>
      <trkpt lat="48.03036" lon="6.86824">
        <ele>845.2</ele>
        <time>2022-06-26T07:36:34Z</time>
      </trkpt>
      <trkpt lat="48.03037" lon="6.86822">
        <ele>845.6</ele>
        <time>2022-06-26T07:36:35Z</time>
      </trkpt>
      <trkpt lat="48.03038" lon="6.86821">
        <ele>845.6</ele>
        <time>2022-06-26T07:36:36Z</time>
      </trkpt>
      <trkpt lat="48.0304" lon="6.86819">
        <ele>845.8</ele>
        <time>2022-06-26T07:36:37Z</time>
      </trkpt>
      <trkpt lat="48.03041" lon="6.86818">
        <ele>846.2</ele>
        <time>2022-06-26T07:36:38Z</time>
      </trkpt>
      <trkpt lat="48.03043" lon="6.86816">
        <ele>846.2</ele>
        <time>2022-06-26T07:36:39Z</time>
      </trkpt>
      <trkpt lat="48.03044" lon="6.86813">
        <ele>846.6</ele>
        <time>2022-06-26T07:36:40Z</time>
      </trkpt>
      <trkpt lat="48.03046" lon="6.8681">
        <ele>846.6</ele>
        <time>2022-06-26T07:36:41Z</time>
      </trkpt>
      <trkpt lat="48.03047" lon="6.86808">
        <ele>847</ele>
        <time>2022-06-26T07:36:42Z</time>
      </trkpt>
      <trkpt lat="48.03047" lon="6.86808">
        <ele>847</ele>
        <time>2022-06-26T07:36:43Z</time>
      </trkpt>
      <trkpt lat="48.03048" lon="6.86807">
        <ele>847.2</ele>
        <time>2022-06-26T07:36:44Z</time>
      </trkpt>
      <trkpt lat="48.03048" lon="6.86807">
        <ele>847.2</ele>
        <time>2022-06-26T07:36:45Z</time>
      </trkpt>
      <trkpt lat="48.03048" lon="6.86806">
        <ele>847.4</ele>
        <time>2022-06-26T07:36:46Z</time>
      </trkpt>
      <trkpt lat="48.03049" lon="6.86805">
        <ele>847.6</ele>
        <time>2022-06-26T07:36:47Z</time>
      </trkpt>
      <trkpt lat="48.03049" lon="6.86804">
        <ele>847.8</ele>
        <time>2022-06-26T07:36:48Z</time>
      </trkpt>
      <trkpt lat="48.0305" lon="6.86803">
        <ele>848</ele>
        <time>2022-06-26T07:36:49Z</time>
      </trkpt>
      <trkpt lat="48.03053" lon="6.868">
        <ele>848</ele>
        <time>2022-06-26T07:36:50Z</time>
      </trkpt>
      <trkpt lat="48.03054" lon="6.86798">
        <ele>848.2</ele>
        <time>2022-06-26T07:36:51Z</time>
      </trkpt>
      <trkpt lat="48.03055" lon="6.86797">
        <ele>848.4</ele>
        <time>2022-06-26T07:36:52Z</time>
      </trkpt>
      <trkpt lat="48.03057" lon="6.86796">
        <ele>848.6</ele>
        <time>2022-06-26T07:36:53Z</time>
      </trkpt>
      <trkpt lat="48.03058" lon="6.86795">
        <ele>848.6</ele>
        <time>2022-06-26T07:36:54Z</time>
      </trkpt>
      <trkpt lat="48.03059" lon="6.86794">
        <ele>848.8</ele>
        <time>2022-06-26T07:36:55Z</time>
      </trkpt>
      <trkpt lat="48.0306" lon="6.86792">
        <ele>849</ele>
        <time>2022-06-26T07:36:56Z</time>
      </trkpt>
      <trkpt lat="48.03061" lon="6.86791">
        <ele>849.2</ele>
        <time>2022-06-26T07:36:57Z</time>
      </trkpt>
      <trkpt lat="48.03062" lon="6.86789">
        <ele>849.6</ele>
        <time>2022-06-26T07:36:58Z</time>
      </trkpt>
      <trkpt lat="48.03063" lon="6.86788">
        <ele>849.6</ele>
        <time>2022-06-26T07:36:59Z</time>
      </trkpt>
      <trkpt lat="48.03064" lon="6.86786">
        <ele>849.8</ele>
        <time>2022-06-26T07:37:00Z</time>
      </trkpt>
      <trkpt lat="48.03065" lon="6.86785">
        <ele>849.8</ele>
        <time>2022-06-26T07:37:01Z</time>
      </trkpt>
      <trkpt lat="48.03066" lon="6.86783">
        <ele>850</ele>
        <time>2022-06-26T07:37:02Z</time>
      </trkpt>
      <trkpt lat="48.03067" lon="6.86782">
        <ele>850</ele>
        <time>2022-06-26T07:37:03Z</time>
      </trkpt>
      <trkpt lat="48.03067" lon="6.8678">
        <ele>850.4</ele>
        <time>2022-06-26T07:37:04Z</time>
      </trkpt>
      <trkpt lat="48.03068" lon="6.86779">
        <ele>850.6</ele>
        <time>2022-06-26T07:37:05Z</time>
      </trkpt>
      <trkpt lat="48.0307" lon="6.8678">
        <ele>850.6</ele>
        <time>2022-06-26T07:37:06Z</time>
      </trkpt>
      <trkpt lat="48.0307" lon="6.86779">
        <ele>851</ele>
        <time>2022-06-26T07:37:07Z</time>
      </trkpt>
      <trkpt lat="48.03071" lon="6.86778">
        <ele>851</ele>
        <time>2022-06-26T07:37:08Z</time>
      </trkpt>
      <trkpt lat="48.03072" lon="6.86776">
        <ele>851.2</ele>
        <time>2022-06-26T07:37:09Z</time>
      </trkpt>
      <trkpt lat="48.03073" lon="6.86775">
        <ele>851.2</ele>
        <time>2022-06-26T07:37:10Z</time>
      </trkpt>
      <trkpt lat="48.03074" lon="6.86774">
        <ele>851.6</ele>
        <time>2022-06-26T07:37:11Z</time>
      </trkpt>
      <trkpt lat="48.03074" lon="6.86772">
        <ele>851.8</ele>
        <time>2022-06-26T07:37:12Z</time>
      </trkpt>
      <trkpt lat="48.03075" lon="6.86771">
        <ele>852.4</ele>
        <time>2022-06-26T07:37:13Z</time>
      </trkpt>
      <trkpt lat="48.03076" lon="6.8677">
        <ele>852.8</ele>
        <time>2022-06-26T07:37:14Z</time>
      </trkpt>
      <trkpt lat="48.03077" lon="6.86769">
        <ele>852.8</ele>
        <time>2022-06-26T07:37:15Z</time>
      </trkpt>
      <trkpt lat="48.03078" lon="6.86768">
        <ele>853</ele>
        <time>2022-06-26T07:37:16Z</time>
      </trkpt>
      <trkpt lat="48.03079" lon="6.86768">
        <ele>853.2</ele>
        <time>2022-06-26T07:37:17Z</time>
      </trkpt>
      <trkpt lat="48.0308" lon="6.86767">
        <ele>853.4</ele>
        <time>2022-06-26T07:37:18Z</time>
      </trkpt>
      <trkpt lat="48.03081" lon="6.86765">
        <ele>853.4</ele>
        <time>2022-06-26T07:37:19Z</time>
      </trkpt>
      <trkpt lat="48.03082" lon="6.86764">
        <ele>853.6</ele>
        <time>2022-06-26T07:37:20Z</time>
      </trkpt>
      <trkpt lat="48.03083" lon="6.86763">
        <ele>853.8</ele>
        <time>2022-06-26T07:37:21Z</time>
      </trkpt>
      <trkpt lat="48.03084" lon="6.86762">
        <ele>854.4</ele>
        <time>2022-06-26T07:37:22Z</time>
      </trkpt>
      <trkpt lat="48.03085" lon="6.86761">
        <ele>854.6</ele>
        <time>2022-06-26T07:37:23Z</time>
      </trkpt>
      <trkpt lat="48.03085" lon="6.8676">
        <ele>854.8</ele>
        <time>2022-06-26T07:37:24Z</time>
      </trkpt>
      <trkpt lat="48.03086" lon="6.8676">
        <ele>854.8</ele>
        <time>2022-06-26T07:37:25Z</time>
      </trkpt>
      <trkpt lat="48.03086" lon="6.86759">
        <ele>855</ele>
        <time>2022-06-26T07:37:26Z</time>
      </trkpt>
      <trkpt lat="48.03087" lon="6.86758">
        <ele>855.2</ele>
        <time>2022-06-26T07:37:27Z</time>
      </trkpt>
      <trkpt lat="48.03087" lon="6.86756">
        <ele>855.4</ele>
        <time>2022-06-26T07:37:28Z</time>
      </trkpt>
      <trkpt lat="48.03088" lon="6.86755">
        <ele>855.8</ele>
        <time>2022-06-26T07:37:29Z</time>
      </trkpt>
      <trkpt lat="48.03089" lon="6.86754">
        <ele>856</ele>
        <time>2022-06-26T07:37:30Z</time>
      </trkpt>
      <trkpt lat="48.03091" lon="6.86752">
        <ele>856.2</ele>
        <time>2022-06-26T07:37:31Z</time>
      </trkpt>
      <trkpt lat="48.03092" lon="6.86751">
        <ele>856.4</ele>
        <time>2022-06-26T07:37:32Z</time>
      </trkpt>
      <trkpt lat="48.03094" lon="6.8675">
        <ele>856.6</ele>
        <time>2022-06-26T07:37:33Z</time>
      </trkpt>
      <trkpt lat="48.03096" lon="6.86749">
        <ele>856.8</ele>
        <time>2022-06-26T07:37:34Z</time>
      </trkpt>
      <trkpt lat="48.03097" lon="6.86747">
        <ele>856.8</ele>
        <time>2022-06-26T07:37:35Z</time>
      </trkpt>
      <trkpt lat="48.03099" lon="6.86745">
        <ele>857</ele>
        <time>2022-06-26T07:37:36Z</time>
      </trkpt>
      <trkpt lat="48.031" lon="6.86743">
        <ele>857.2</ele>
        <time>2022-06-26T07:37:37Z</time>
      </trkpt>
      <trkpt lat="48.03102" lon="6.86742">
        <ele>857.4</ele>
        <time>2022-06-26T07:37:38Z</time>
      </trkpt>
      <trkpt lat="48.03104" lon="6.86741">
        <ele>857.6</ele>
        <time>2022-06-26T07:37:39Z</time>
      </trkpt>
      <trkpt lat="48.03105" lon="6.8674">
        <ele>857.6</ele>
        <time>2022-06-26T07:37:40Z</time>
      </trkpt>
      <trkpt lat="48.03107" lon="6.8674">
        <ele>857.8</ele>
        <time>2022-06-26T07:37:41Z</time>
      </trkpt>
      <trkpt lat="48.03108" lon="6.86738">
        <ele>857.8</ele>
        <time>2022-06-26T07:37:42Z</time>
      </trkpt>
      <trkpt lat="48.03109" lon="6.86737">
        <ele>858</ele>
        <time>2022-06-26T07:37:43Z</time>
      </trkpt>
      <trkpt lat="48.03111" lon="6.86736">
        <ele>858</ele>
        <time>2022-06-26T07:37:44Z</time>
      </trkpt>
      <trkpt lat="48.03112" lon="6.86735">
        <ele>858.2</ele>
        <time>2022-06-26T07:37:45Z</time>
      </trkpt>
      <trkpt lat="48.03113" lon="6.86734">
        <ele>858.2</ele>
        <time>2022-06-26T07:37:46Z</time>
      </trkpt>
      <trkpt lat="48.03114" lon="6.86733">
        <ele>858.4</ele>
        <time>2022-06-26T07:37:47Z</time>
      </trkpt>
      <trkpt lat="48.03116" lon="6.86732">
        <ele>858.6</ele>
        <time>2022-06-26T07:37:48Z</time>
      </trkpt>
      <trkpt lat="48.03117" lon="6.86731">
        <ele>858.8</ele>
        <time>2022-06-26T07:37:49Z</time>
      </trkpt>
      <trkpt lat="48.03118" lon="6.86731">
        <ele>859</ele>
        <time>2022-06-26T07:37:50Z</time>
      </trkpt>
      <trkpt lat="48.03119" lon="6.8673">
        <ele>859</ele>
        <time>2022-06-26T07:37:51Z</time>
      </trkpt>
      <trkpt lat="48.0312" lon="6.86729">
        <ele>859.2</ele>
        <time>2022-06-26T07:37:52Z</time>
      </trkpt>
      <trkpt lat="48.03121" lon="6.86728">
        <ele>859.4</ele>
        <time>2022-06-26T07:37:53Z</time>
      </trkpt>
      <trkpt lat="48.03123" lon="6.86727">
        <ele>859.6</ele>
        <time>2022-06-26T07:37:54Z</time>
      </trkpt>
      <trkpt lat="48.03124" lon="6.86727">
        <ele>859.6</ele>
        <time>2022-06-26T07:37:55Z</time>
      </trkpt>
      <trkpt lat="48.03125" lon="6.86725">
        <ele>859.8</ele>
        <time>2022-06-26T07:37:56Z</time>
      </trkpt>
      <trkpt lat="48.03126" lon="6.86724">
        <ele>860</ele>
        <time>2022-06-26T07:37:57Z</time>
      </trkpt>
      <trkpt lat="48.03127" lon="6.86723">
        <ele>860.2</ele>
        <time>2022-06-26T07:37:58Z</time>
      </trkpt>
      <trkpt lat="48.03129" lon="6.86722">
        <ele>860.6</ele>
        <time>2022-06-26T07:37:59Z</time>
      </trkpt>
      <trkpt lat="48.0313" lon="6.86721">
        <ele>860.6</ele>
        <time>2022-06-26T07:38:00Z</time>
      </trkpt>
      <trkpt lat="48.03131" lon="6.8672">
        <ele>860.8</ele>
        <time>2022-06-26T07:38:01Z</time>
      </trkpt>
      <trkpt lat="48.03132" lon="6.8672">
        <ele>861</ele>
        <time>2022-06-26T07:38:02Z</time>
      </trkpt>
      <trkpt lat="48.03133" lon="6.86719">
        <ele>861.2</ele>
        <time>2022-06-26T07:38:03Z</time>
      </trkpt>
      <trkpt lat="48.03134" lon="6.86719">
        <ele>861.2</ele>
        <time>2022-06-26T07:38:04Z</time>
      </trkpt>
      <trkpt lat="48.03136" lon="6.86718">
        <ele>861.6</ele>
        <time>2022-06-26T07:38:05Z</time>
      </trkpt>
      <trkpt lat="48.03138" lon="6.86717">
        <ele>861.6</ele>
        <time>2022-06-26T07:38:06Z</time>
      </trkpt>
      <trkpt lat="48.03139" lon="6.86716">
        <ele>861.8</ele>
        <time>2022-06-26T07:38:07Z</time>
      </trkpt>
      <trkpt lat="48.03141" lon="6.86716">
        <ele>862</ele>
        <time>2022-06-26T07:38:08Z</time>
      </trkpt>
      <trkpt lat="48.03142" lon="6.86716">
        <ele>862</ele>
        <time>2022-06-26T07:38:09Z</time>
      </trkpt>
      <trkpt lat="48.03143" lon="6.86716">
        <ele>862.2</ele>
        <time>2022-06-26T07:38:10Z</time>
      </trkpt>
      <trkpt lat="48.03145" lon="6.86715">
        <ele>862.4</ele>
        <time>2022-06-26T07:38:11Z</time>
      </trkpt>
      <trkpt lat="48.03146" lon="6.86714">
        <ele>862.6</ele>
        <time>2022-06-26T07:38:12Z</time>
      </trkpt>
      <trkpt lat="48.03148" lon="6.86713">
        <ele>862.6</ele>
        <time>2022-06-26T07:38:13Z</time>
      </trkpt>
      <trkpt lat="48.03149" lon="6.86713">
        <ele>862.8</ele>
        <time>2022-06-26T07:38:14Z</time>
      </trkpt>
      <trkpt lat="48.03151" lon="6.86712">
        <ele>863</ele>
        <time>2022-06-26T07:38:15Z</time>
      </trkpt>
      <trkpt lat="48.03152" lon="6.86711">
        <ele>863.2</ele>
        <time>2022-06-26T07:38:16Z</time>
      </trkpt>
      <trkpt lat="48.03153" lon="6.86711">
        <ele>863.4</ele>
        <time>2022-06-26T07:38:17Z</time>
      </trkpt>
      <trkpt lat="48.03154" lon="6.86711">
        <ele>863.6</ele>
        <time>2022-06-26T07:38:18Z</time>
      </trkpt>
      <trkpt lat="48.03156" lon="6.8671">
        <ele>864</ele>
        <time>2022-06-26T07:38:19Z</time>
      </trkpt>
      <trkpt lat="48.03157" lon="6.8671">
        <ele>864</ele>
        <time>2022-06-26T07:38:20Z</time>
      </trkpt>
      <trkpt lat="48.03158" lon="6.86709">
        <ele>864.4</ele>
        <time>2022-06-26T07:38:21Z</time>
      </trkpt>
      <trkpt lat="48.03159" lon="6.86708">
        <ele>864.4</ele>
        <time>2022-06-26T07:38:22Z</time>
      </trkpt>
      <trkpt lat="48.03161" lon="6.86707">
        <ele>864.8</ele>
        <time>2022-06-26T07:38:23Z</time>
      </trkpt>
      <trkpt lat="48.03163" lon="6.86705">
        <ele>865</ele>
        <time>2022-06-26T07:38:24Z</time>
      </trkpt>
      <trkpt lat="48.03164" lon="6.86704">
        <ele>865</ele>
        <time>2022-06-26T07:38:25Z</time>
      </trkpt>
      <trkpt lat="48.03165" lon="6.86703">
        <ele>865.4</ele>
        <time>2022-06-26T07:38:26Z</time>
      </trkpt>
      <trkpt lat="48.03166" lon="6.86702">
        <ele>865.6</ele>
        <time>2022-06-26T07:38:27Z</time>
      </trkpt>
      <trkpt lat="48.03168" lon="6.86701">
        <ele>865.8</ele>
        <time>2022-06-26T07:38:28Z</time>
      </trkpt>
      <trkpt lat="48.03169" lon="6.867">
        <ele>866</ele>
        <time>2022-06-26T07:38:29Z</time>
      </trkpt>
      <trkpt lat="48.0317" lon="6.867">
        <ele>866.2</ele>
        <time>2022-06-26T07:38:30Z</time>
      </trkpt>
      <trkpt lat="48.03171" lon="6.86699">
        <ele>866.4</ele>
        <time>2022-06-26T07:38:31Z</time>
      </trkpt>
      <trkpt lat="48.03172" lon="6.86698">
        <ele>866.6</ele>
        <time>2022-06-26T07:38:32Z</time>
      </trkpt>
      <trkpt lat="48.03174" lon="6.86697">
        <ele>867</ele>
        <time>2022-06-26T07:38:33Z</time>
      </trkpt>
      <trkpt lat="48.03175" lon="6.86696">
        <ele>867.2</ele>
        <time>2022-06-26T07:38:34Z</time>
      </trkpt>
      <trkpt lat="48.03177" lon="6.86695">
        <ele>867.2</ele>
        <time>2022-06-26T07:38:35Z</time>
      </trkpt>
      <trkpt lat="48.03178" lon="6.86693">
        <ele>867.4</ele>
        <time>2022-06-26T07:38:36Z</time>
      </trkpt>
      <trkpt lat="48.0318" lon="6.86691">
        <ele>867.8</ele>
        <time>2022-06-26T07:38:37Z</time>
      </trkpt>
      <trkpt lat="48.03182" lon="6.86688">
        <ele>867.8</ele>
        <time>2022-06-26T07:38:38Z</time>
      </trkpt>
      <trkpt lat="48.03184" lon="6.86686">
        <ele>868</ele>
        <time>2022-06-26T07:38:39Z</time>
      </trkpt>
      <trkpt lat="48.03185" lon="6.86683">
        <ele>868</ele>
        <time>2022-06-26T07:38:40Z</time>
      </trkpt>
      <trkpt lat="48.03187" lon="6.8668">
        <ele>868.2</ele>
        <time>2022-06-26T07:38:41Z</time>
      </trkpt>
      <trkpt lat="48.0319" lon="6.86676">
        <ele>868.2</ele>
        <time>2022-06-26T07:38:42Z</time>
      </trkpt>
      <trkpt lat="48.03193" lon="6.8667">
        <ele>868.2</ele>
        <time>2022-06-26T07:38:43Z</time>
      </trkpt>
      <trkpt lat="48.03196" lon="6.86664">
        <ele>868.2</ele>
        <time>2022-06-26T07:38:44Z</time>
      </trkpt>
      <trkpt lat="48.03199" lon="6.86658">
        <ele>868.2</ele>
        <time>2022-06-26T07:38:45Z</time>
      </trkpt>
      <trkpt lat="48.03203" lon="6.86651">
        <ele>868</ele>
        <time>2022-06-26T07:38:46Z</time>
      </trkpt>
      <trkpt lat="48.03207" lon="6.86644">
        <ele>868</ele>
        <time>2022-06-26T07:38:47Z</time>
      </trkpt>
      <trkpt lat="48.03211" lon="6.86638">
        <ele>867.8</ele>
        <time>2022-06-26T07:38:48Z</time>
      </trkpt>
      <trkpt lat="48.03216" lon="6.86632">
        <ele>867.4</ele>
        <time>2022-06-26T07:38:49Z</time>
      </trkpt>
      <trkpt lat="48.03221" lon="6.86626">
        <ele>867</ele>
        <time>2022-06-26T07:38:50Z</time>
      </trkpt>
      <trkpt lat="48.03225" lon="6.86621">
        <ele>866.4</ele>
        <time>2022-06-26T07:38:51Z</time>
      </trkpt>
      <trkpt lat="48.03231" lon="6.86616">
        <ele>866.2</ele>
        <time>2022-06-26T07:38:52Z</time>
      </trkpt>
      <trkpt lat="48.03236" lon="6.8661">
        <ele>865.6</ele>
        <time>2022-06-26T07:38:53Z</time>
      </trkpt>
      <trkpt lat="48.03242" lon="6.86604">
        <ele>865.4</ele>
        <time>2022-06-26T07:38:54Z</time>
      </trkpt>
      <trkpt lat="48.03261" lon="6.86586">
        <ele>864.4</ele>
        <time>2022-06-26T07:38:57Z</time>
      </trkpt>
      <trkpt lat="48.03273" lon="6.86571">
        <ele>863.4</ele>
        <time>2022-06-26T07:38:59Z</time>
      </trkpt>
      <trkpt lat="48.03279" lon="6.86563">
        <ele>862.8</ele>
        <time>2022-06-26T07:39:00Z</time>
      </trkpt>
      <trkpt lat="48.03298" lon="6.86538">
        <ele>861.6</ele>
        <time>2022-06-26T07:39:03Z</time>
      </trkpt>
      <trkpt lat="48.03305" lon="6.86531">
        <ele>860.8</ele>
        <time>2022-06-26T07:39:04Z</time>
      </trkpt>
      <trkpt lat="48.0331" lon="6.86525">
        <ele>860.6</ele>
        <time>2022-06-26T07:39:05Z</time>
      </trkpt>
      <trkpt lat="48.03315" lon="6.86521">
        <ele>860</ele>
        <time>2022-06-26T07:39:06Z</time>
      </trkpt>
      <trkpt lat="48.03317" lon="6.86518">
        <ele>859.8</ele>
        <time>2022-06-26T07:39:07Z</time>
      </trkpt>
      <trkpt lat="48.03319" lon="6.86516">
        <ele>859</ele>
        <time>2022-06-26T07:39:08Z</time>
      </trkpt>
      <trkpt lat="48.03321" lon="6.86516">
        <ele>858.2</ele>
        <time>2022-06-26T07:39:09Z</time>
      </trkpt>
      <trkpt lat="48.03324" lon="6.86516">
        <ele>858</ele>
        <time>2022-06-26T07:39:10Z</time>
      </trkpt>
      <trkpt lat="48.03326" lon="6.86517">
        <ele>857.4</ele>
        <time>2022-06-26T07:39:11Z</time>
      </trkpt>
      <trkpt lat="48.03328" lon="6.86518">
        <ele>857.2</ele>
        <time>2022-06-26T07:39:12Z</time>
      </trkpt>
      <trkpt lat="48.0333" lon="6.86518">
        <ele>857</ele>
        <time>2022-06-26T07:39:13Z</time>
      </trkpt>
      <trkpt lat="48.03331" lon="6.86518">
        <ele>856.8</ele>
        <time>2022-06-26T07:39:14Z</time>
      </trkpt>
      <trkpt lat="48.03332" lon="6.86517">
        <ele>856.8</ele>
        <time>2022-06-26T07:39:15Z</time>
      </trkpt>
      <trkpt lat="48.03334" lon="6.86517">
        <ele>856.8</ele>
        <time>2022-06-26T07:39:16Z</time>
      </trkpt>
      <trkpt lat="48.03335" lon="6.86516">
        <ele>856.8</ele>
        <time>2022-06-26T07:39:17Z</time>
      </trkpt>
      <trkpt lat="48.03335" lon="6.86515">
        <ele>857</ele>
        <time>2022-06-26T07:39:18Z</time>
      </trkpt>
      <trkpt lat="48.03337" lon="6.86513">
        <ele>857.2</ele>
        <time>2022-06-26T07:39:19Z</time>
      </trkpt>
      <trkpt lat="48.03338" lon="6.86511">
        <ele>857.4</ele>
        <time>2022-06-26T07:39:20Z</time>
      </trkpt>
      <trkpt lat="48.03341" lon="6.86508">
        <ele>857.4</ele>
        <time>2022-06-26T07:39:22Z</time>
      </trkpt>
      <trkpt lat="48.03342" lon="6.86506">
        <ele>857.6</ele>
        <time>2022-06-26T07:39:23Z</time>
      </trkpt>
      <trkpt lat="48.03346" lon="6.86501">
        <ele>858.2</ele>
        <time>2022-06-26T07:39:27Z</time>
      </trkpt>
      <trkpt lat="48.03346" lon="6.865">
        <ele>858.4</ele>
        <time>2022-06-26T07:39:28Z</time>
      </trkpt>
      <trkpt lat="48.03347" lon="6.86498">
        <ele>858.6</ele>
        <time>2022-06-26T07:39:29Z</time>
      </trkpt>
      <trkpt lat="48.03349" lon="6.86496">
        <ele>858.8</ele>
        <time>2022-06-26T07:39:31Z</time>
      </trkpt>
      <trkpt lat="48.0335" lon="6.86496">
        <ele>858.8</ele>
        <time>2022-06-26T07:39:32Z</time>
      </trkpt>
      <trkpt lat="48.03352" lon="6.86494">
        <ele>859</ele>
        <time>2022-06-26T07:39:33Z</time>
      </trkpt>
      <trkpt lat="48.03353" lon="6.86492">
        <ele>859.2</ele>
        <time>2022-06-26T07:39:34Z</time>
      </trkpt>
      <trkpt lat="48.03354" lon="6.8649">
        <ele>859.4</ele>
        <time>2022-06-26T07:39:35Z</time>
      </trkpt>
      <trkpt lat="48.03355" lon="6.86488">
        <ele>859.4</ele>
        <time>2022-06-26T07:39:36Z</time>
      </trkpt>
      <trkpt lat="48.03357" lon="6.86486">
        <ele>859.4</ele>
        <time>2022-06-26T07:39:37Z</time>
      </trkpt>
      <trkpt lat="48.03359" lon="6.86482">
        <ele>859.8</ele>
        <time>2022-06-26T07:39:39Z</time>
      </trkpt>
      <trkpt lat="48.0336" lon="6.86481">
        <ele>859.8</ele>
        <time>2022-06-26T07:39:40Z</time>
      </trkpt>
      <trkpt lat="48.0336" lon="6.8648">
        <ele>859.8</ele>
        <time>2022-06-26T07:39:41Z</time>
      </trkpt>
      <trkpt lat="48.03361" lon="6.8648">
        <ele>860</ele>
        <time>2022-06-26T07:39:42Z</time>
      </trkpt>
      <trkpt lat="48.03362" lon="6.86479">
        <ele>860.2</ele>
        <time>2022-06-26T07:39:43Z</time>
      </trkpt>
      <trkpt lat="48.03363" lon="6.86477">
        <ele>860.4</ele>
        <time>2022-06-26T07:39:44Z</time>
      </trkpt>
      <trkpt lat="48.03365" lon="6.86475">
        <ele>860.6</ele>
        <time>2022-06-26T07:39:45Z</time>
      </trkpt>
      <trkpt lat="48.03367" lon="6.86473">
        <ele>860.8</ele>
        <time>2022-06-26T07:39:46Z</time>
      </trkpt>
      <trkpt lat="48.03368" lon="6.86469">
        <ele>860.8</ele>
        <time>2022-06-26T07:39:48Z</time>
      </trkpt>
      <trkpt lat="48.03369" lon="6.86467">
        <ele>860.8</ele>
        <time>2022-06-26T07:39:49Z</time>
      </trkpt>
      <trkpt lat="48.0337" lon="6.86465">
        <ele>860.8</ele>
        <time>2022-06-26T07:39:50Z</time>
      </trkpt>
      <trkpt lat="48.03373" lon="6.86462">
        <ele>861</ele>
        <time>2022-06-26T07:39:51Z</time>
      </trkpt>
      <trkpt lat="48.03375" lon="6.86459">
        <ele>861</ele>
        <time>2022-06-26T07:39:52Z</time>
      </trkpt>
      <trkpt lat="48.03376" lon="6.86457">
        <ele>861</ele>
        <time>2022-06-26T07:39:53Z</time>
      </trkpt>
      <trkpt lat="48.03379" lon="6.86456">
        <ele>861.2</ele>
        <time>2022-06-26T07:39:54Z</time>
      </trkpt>
      <trkpt lat="48.03381" lon="6.86454">
        <ele>861.2</ele>
        <time>2022-06-26T07:39:55Z</time>
      </trkpt>
      <trkpt lat="48.03383" lon="6.86453">
        <ele>861.2</ele>
        <time>2022-06-26T07:39:56Z</time>
      </trkpt>
      <trkpt lat="48.03384" lon="6.86452">
        <ele>861.4</ele>
        <time>2022-06-26T07:39:57Z</time>
      </trkpt>
      <trkpt lat="48.03386" lon="6.86451">
        <ele>861.8</ele>
        <time>2022-06-26T07:39:58Z</time>
      </trkpt>
      <trkpt lat="48.0339" lon="6.86449">
        <ele>862</ele>
        <time>2022-06-26T07:40:00Z</time>
      </trkpt>
      <trkpt lat="48.03393" lon="6.86446">
        <ele>862.2</ele>
        <time>2022-06-26T07:40:02Z</time>
      </trkpt>
      <trkpt lat="48.03396" lon="6.86444">
        <ele>862.4</ele>
        <time>2022-06-26T07:40:03Z</time>
      </trkpt>
      <trkpt lat="48.03398" lon="6.86443">
        <ele>862.4</ele>
        <time>2022-06-26T07:40:04Z</time>
      </trkpt>
      <trkpt lat="48.03401" lon="6.86441">
        <ele>862.6</ele>
        <time>2022-06-26T07:40:05Z</time>
      </trkpt>
      <trkpt lat="48.03403" lon="6.86442">
        <ele>862.6</ele>
        <time>2022-06-26T07:40:06Z</time>
      </trkpt>
      <trkpt lat="48.03405" lon="6.86443">
        <ele>862.8</ele>
        <time>2022-06-26T07:40:07Z</time>
      </trkpt>
      <trkpt lat="48.03406" lon="6.86443">
        <ele>862.8</ele>
        <time>2022-06-26T07:40:08Z</time>
      </trkpt>
      <trkpt lat="48.03407" lon="6.86443">
        <ele>863</ele>
        <time>2022-06-26T07:40:09Z</time>
      </trkpt>
      <trkpt lat="48.03408" lon="6.86443">
        <ele>863</ele>
        <time>2022-06-26T07:40:10Z</time>
      </trkpt>
      <trkpt lat="48.03411" lon="6.86441">
        <ele>863.2</ele>
        <time>2022-06-26T07:40:11Z</time>
      </trkpt>
      <trkpt lat="48.03412" lon="6.8644">
        <ele>863.4</ele>
        <time>2022-06-26T07:40:12Z</time>
      </trkpt>
      <trkpt lat="48.03414" lon="6.8644">
        <ele>863.4</ele>
        <time>2022-06-26T07:40:13Z</time>
      </trkpt>
      <trkpt lat="48.03415" lon="6.8644">
        <ele>863.6</ele>
        <time>2022-06-26T07:40:14Z</time>
      </trkpt>
      <trkpt lat="48.03417" lon="6.86441">
        <ele>863.8</ele>
        <time>2022-06-26T07:40:15Z</time>
      </trkpt>
      <trkpt lat="48.03418" lon="6.8644">
        <ele>864</ele>
        <time>2022-06-26T07:40:16Z</time>
      </trkpt>
      <trkpt lat="48.0342" lon="6.8644">
        <ele>864</ele>
        <time>2022-06-26T07:40:17Z</time>
      </trkpt>
      <trkpt lat="48.03421" lon="6.8644">
        <ele>864.2</ele>
        <time>2022-06-26T07:40:18Z</time>
      </trkpt>
      <trkpt lat="48.03422" lon="6.8644">
        <ele>864.4</ele>
        <time>2022-06-26T07:40:19Z</time>
      </trkpt>
      <trkpt lat="48.03423" lon="6.8644">
        <ele>864.4</ele>
        <time>2022-06-26T07:40:20Z</time>
      </trkpt>
      <trkpt lat="48.03424" lon="6.8644">
        <ele>864.8</ele>
        <time>2022-06-26T07:40:21Z</time>
      </trkpt>
      <trkpt lat="48.03426" lon="6.8644">
        <ele>864.8</ele>
        <time>2022-06-26T07:40:22Z</time>
      </trkpt>
      <trkpt lat="48.03427" lon="6.8644">
        <ele>865.2</ele>
        <time>2022-06-26T07:40:23Z</time>
      </trkpt>
      <trkpt lat="48.03428" lon="6.86439">
        <ele>865.2</ele>
        <time>2022-06-26T07:40:24Z</time>
      </trkpt>
      <trkpt lat="48.0343" lon="6.86439">
        <ele>865.4</ele>
        <time>2022-06-26T07:40:25Z</time>
      </trkpt>
      <trkpt lat="48.03431" lon="6.86438">
        <ele>865.6</ele>
        <time>2022-06-26T07:40:26Z</time>
      </trkpt>
      <trkpt lat="48.03433" lon="6.86436">
        <ele>865.6</ele>
        <time>2022-06-26T07:40:27Z</time>
      </trkpt>
      <trkpt lat="48.03435" lon="6.86435">
        <ele>865.8</ele>
        <time>2022-06-26T07:40:28Z</time>
      </trkpt>
      <trkpt lat="48.03437" lon="6.86435">
        <ele>866</ele>
        <time>2022-06-26T07:40:29Z</time>
      </trkpt>
      <trkpt lat="48.03438" lon="6.86435">
        <ele>866.2</ele>
        <time>2022-06-26T07:40:30Z</time>
      </trkpt>
      <trkpt lat="48.0344" lon="6.86436">
        <ele>866.4</ele>
        <time>2022-06-26T07:40:31Z</time>
      </trkpt>
      <trkpt lat="48.03441" lon="6.86435">
        <ele>866.6</ele>
        <time>2022-06-26T07:40:32Z</time>
      </trkpt>
      <trkpt lat="48.03443" lon="6.86435">
        <ele>866.6</ele>
        <time>2022-06-26T07:40:33Z</time>
      </trkpt>
      <trkpt lat="48.03444" lon="6.86434">
        <ele>866.8</ele>
        <time>2022-06-26T07:40:34Z</time>
      </trkpt>
      <trkpt lat="48.03445" lon="6.86434">
        <ele>867</ele>
        <time>2022-06-26T07:40:35Z</time>
      </trkpt>
      <trkpt lat="48.03447" lon="6.86432">
        <ele>867.2</ele>
        <time>2022-06-26T07:40:36Z</time>
      </trkpt>
      <trkpt lat="48.03448" lon="6.86431">
        <ele>867.2</ele>
        <time>2022-06-26T07:40:37Z</time>
      </trkpt>
      <trkpt lat="48.0345" lon="6.86431">
        <ele>867.4</ele>
        <time>2022-06-26T07:40:38Z</time>
      </trkpt>
      <trkpt lat="48.03451" lon="6.86431">
        <ele>867.6</ele>
        <time>2022-06-26T07:40:39Z</time>
      </trkpt>
      <trkpt lat="48.03452" lon="6.86431">
        <ele>867.8</ele>
        <time>2022-06-26T07:40:40Z</time>
      </trkpt>
      <trkpt lat="48.03453" lon="6.8643">
        <ele>867.8</ele>
        <time>2022-06-26T07:40:41Z</time>
      </trkpt>
      <trkpt lat="48.03454" lon="6.86428">
        <ele>868</ele>
        <time>2022-06-26T07:40:42Z</time>
      </trkpt>
      <trkpt lat="48.03455" lon="6.86427">
        <ele>868.2</ele>
        <time>2022-06-26T07:40:43Z</time>
      </trkpt>
      <trkpt lat="48.03456" lon="6.86427">
        <ele>868.4</ele>
        <time>2022-06-26T07:40:44Z</time>
      </trkpt>
      <trkpt lat="48.03458" lon="6.86425">
        <ele>868.6</ele>
        <time>2022-06-26T07:40:45Z</time>
      </trkpt>
      <trkpt lat="48.03459" lon="6.86425">
        <ele>868.8</ele>
        <time>2022-06-26T07:40:46Z</time>
      </trkpt>
      <trkpt lat="48.0346" lon="6.86425">
        <ele>869</ele>
        <time>2022-06-26T07:40:47Z</time>
      </trkpt>
      <trkpt lat="48.03462" lon="6.86424">
        <ele>869</ele>
        <time>2022-06-26T07:40:48Z</time>
      </trkpt>
      <trkpt lat="48.03463" lon="6.86423">
        <ele>869.2</ele>
        <time>2022-06-26T07:40:49Z</time>
      </trkpt>
      <trkpt lat="48.03464" lon="6.86422">
        <ele>869.2</ele>
        <time>2022-06-26T07:40:50Z</time>
      </trkpt>
      <trkpt lat="48.03465" lon="6.86422">
        <ele>869.2</ele>
        <time>2022-06-26T07:40:51Z</time>
      </trkpt>
      <trkpt lat="48.03466" lon="6.86422">
        <ele>869.4</ele>
        <time>2022-06-26T07:40:52Z</time>
      </trkpt>
      <trkpt lat="48.03468" lon="6.86422">
        <ele>869.6</ele>
        <time>2022-06-26T07:40:53Z</time>
      </trkpt>
      <trkpt lat="48.0347" lon="6.86422">
        <ele>869.6</ele>
        <time>2022-06-26T07:40:54Z</time>
      </trkpt>
      <trkpt lat="48.03472" lon="6.86421">
        <ele>869.8</ele>
        <time>2022-06-26T07:40:55Z</time>
      </trkpt>
      <trkpt lat="48.03473" lon="6.86421">
        <ele>870</ele>
        <time>2022-06-26T07:40:56Z</time>
      </trkpt>
      <trkpt lat="48.03473" lon="6.8642">
        <ele>870.2</ele>
        <time>2022-06-26T07:40:57Z</time>
      </trkpt>
      <trkpt lat="48.03473" lon="6.8642">
        <ele>870.2</ele>
        <time>2022-06-26T07:40:58Z</time>
      </trkpt>
      <trkpt lat="48.03475" lon="6.86418">
        <ele>870.2</ele>
        <time>2022-06-26T07:40:59Z</time>
      </trkpt>
      <trkpt lat="48.03477" lon="6.86417">
        <ele>870.2</ele>
        <time>2022-06-26T07:41:00Z</time>
      </trkpt>
      <trkpt lat="48.03479" lon="6.86415">
        <ele>870.6</ele>
        <time>2022-06-26T07:41:01Z</time>
      </trkpt>
      <trkpt lat="48.03481" lon="6.86415">
        <ele>870.6</ele>
        <time>2022-06-26T07:41:02Z</time>
      </trkpt>
      <trkpt lat="48.03483" lon="6.86414">
        <ele>870.8</ele>
        <time>2022-06-26T07:41:03Z</time>
      </trkpt>
      <trkpt lat="48.03485" lon="6.86413">
        <ele>871</ele>
        <time>2022-06-26T07:41:04Z</time>
      </trkpt>
      <trkpt lat="48.03487" lon="6.86412">
        <ele>871</ele>
        <time>2022-06-26T07:41:05Z</time>
      </trkpt>
      <trkpt lat="48.03488" lon="6.86412">
        <ele>871.2</ele>
        <time>2022-06-26T07:41:06Z</time>
      </trkpt>
      <trkpt lat="48.03489" lon="6.86411">
        <ele>871.2</ele>
        <time>2022-06-26T07:41:07Z</time>
      </trkpt>
      <trkpt lat="48.0349" lon="6.86409">
        <ele>871.2</ele>
        <time>2022-06-26T07:41:08Z</time>
      </trkpt>
      <trkpt lat="48.03491" lon="6.86408">
        <ele>871.2</ele>
        <time>2022-06-26T07:41:09Z</time>
      </trkpt>
      <trkpt lat="48.03492" lon="6.86408">
        <ele>871.4</ele>
        <time>2022-06-26T07:41:10Z</time>
      </trkpt>
      <trkpt lat="48.03493" lon="6.86408">
        <ele>871.4</ele>
        <time>2022-06-26T07:41:11Z</time>
      </trkpt>
      <trkpt lat="48.03495" lon="6.86407">
        <ele>871.4</ele>
        <time>2022-06-26T07:41:12Z</time>
      </trkpt>
      <trkpt lat="48.03498" lon="6.86406">
        <ele>871.6</ele>
        <time>2022-06-26T07:41:13Z</time>
      </trkpt>
      <trkpt lat="48.03501" lon="6.86405">
        <ele>871.8</ele>
        <time>2022-06-26T07:41:14Z</time>
      </trkpt>
      <trkpt lat="48.03503" lon="6.86406">
        <ele>871.8</ele>
        <time>2022-06-26T07:41:15Z</time>
      </trkpt>
      <trkpt lat="48.03504" lon="6.86406">
        <ele>872</ele>
        <time>2022-06-26T07:41:16Z</time>
      </trkpt>
      <trkpt lat="48.03504" lon="6.86406">
        <ele>872</ele>
        <time>2022-06-26T07:41:17Z</time>
      </trkpt>
      <trkpt lat="48.03505" lon="6.86405">
        <ele>872</ele>
        <time>2022-06-26T07:41:18Z</time>
      </trkpt>
      <trkpt lat="48.03506" lon="6.86404">
        <ele>872.4</ele>
        <time>2022-06-26T07:41:19Z</time>
      </trkpt>
      <trkpt lat="48.03507" lon="6.86402">
        <ele>872.4</ele>
        <time>2022-06-26T07:41:20Z</time>
      </trkpt>
      <trkpt lat="48.03511" lon="6.86401">
        <ele>872.6</ele>
        <time>2022-06-26T07:41:21Z</time>
      </trkpt>
      <trkpt lat="48.03513" lon="6.864">
        <ele>873</ele>
        <time>2022-06-26T07:41:22Z</time>
      </trkpt>
      <trkpt lat="48.03515" lon="6.86398">
        <ele>873</ele>
        <time>2022-06-26T07:41:23Z</time>
      </trkpt>
      <trkpt lat="48.03516" lon="6.86397">
        <ele>873.2</ele>
        <time>2022-06-26T07:41:24Z</time>
      </trkpt>
      <trkpt lat="48.03517" lon="6.86396">
        <ele>873.2</ele>
        <time>2022-06-26T07:41:25Z</time>
      </trkpt>
      <trkpt lat="48.03517" lon="6.86396">
        <ele>873.4</ele>
        <time>2022-06-26T07:41:26Z</time>
      </trkpt>
      <trkpt lat="48.03518" lon="6.86396">
        <ele>873.4</ele>
        <time>2022-06-26T07:41:27Z</time>
      </trkpt>
      <trkpt lat="48.03518" lon="6.86396">
        <ele>873.6</ele>
        <time>2022-06-26T07:41:28Z</time>
      </trkpt>
      <trkpt lat="48.03519" lon="6.86396">
        <ele>873.6</ele>
        <time>2022-06-26T07:41:29Z</time>
      </trkpt>
      <trkpt lat="48.03521" lon="6.86397">
        <ele>873.6</ele>
        <time>2022-06-26T07:41:30Z</time>
      </trkpt>
      <trkpt lat="48.03523" lon="6.86397">
        <ele>873.8</ele>
        <time>2022-06-26T07:41:31Z</time>
      </trkpt>
      <trkpt lat="48.03524" lon="6.86397">
        <ele>873.8</ele>
        <time>2022-06-26T07:41:32Z</time>
      </trkpt>
      <trkpt lat="48.03527" lon="6.86396">
        <ele>874</ele>
        <time>2022-06-26T07:41:33Z</time>
      </trkpt>
      <trkpt lat="48.03529" lon="6.86396">
        <ele>874.2</ele>
        <time>2022-06-26T07:41:34Z</time>
      </trkpt>
      <trkpt lat="48.0353" lon="6.86396">
        <ele>874.4</ele>
        <time>2022-06-26T07:41:35Z</time>
      </trkpt>
      <trkpt lat="48.03532" lon="6.86396">
        <ele>874.4</ele>
        <time>2022-06-26T07:41:36Z</time>
      </trkpt>
      <trkpt lat="48.03533" lon="6.86395">
        <ele>874.4</ele>
        <time>2022-06-26T07:41:37Z</time>
      </trkpt>
      <trkpt lat="48.03535" lon="6.86395">
        <ele>874.6</ele>
        <time>2022-06-26T07:41:38Z</time>
      </trkpt>
      <trkpt lat="48.03535" lon="6.86395">
        <ele>874.8</ele>
        <time>2022-06-26T07:41:39Z</time>
      </trkpt>
      <trkpt lat="48.03535" lon="6.86395">
        <ele>874.8</ele>
        <time>2022-06-26T07:41:40Z</time>
      </trkpt>
      <trkpt lat="48.03536" lon="6.86396">
        <ele>875</ele>
        <time>2022-06-26T07:41:41Z</time>
      </trkpt>
      <trkpt lat="48.03538" lon="6.86395">
        <ele>875</ele>
        <time>2022-06-26T07:41:42Z</time>
      </trkpt>
      <trkpt lat="48.0354" lon="6.86395">
        <ele>875.2</ele>
        <time>2022-06-26T07:41:43Z</time>
      </trkpt>
      <trkpt lat="48.03542" lon="6.86395">
        <ele>875.2</ele>
        <time>2022-06-26T07:41:44Z</time>
      </trkpt>
      <trkpt lat="48.03544" lon="6.86395">
        <ele>875.4</ele>
        <time>2022-06-26T07:41:45Z</time>
      </trkpt>
      <trkpt lat="48.03546" lon="6.86394">
        <ele>875.6</ele>
        <time>2022-06-26T07:41:46Z</time>
      </trkpt>
      <trkpt lat="48.03548" lon="6.86394">
        <ele>875.6</ele>
        <time>2022-06-26T07:41:47Z</time>
      </trkpt>
      <trkpt lat="48.03548" lon="6.86392">
        <ele>875.8</ele>
        <time>2022-06-26T07:41:48Z</time>
      </trkpt>
      <trkpt lat="48.0355" lon="6.86391">
        <ele>876</ele>
        <time>2022-06-26T07:41:49Z</time>
      </trkpt>
      <trkpt lat="48.0355" lon="6.8639">
        <ele>876</ele>
        <time>2022-06-26T07:41:50Z</time>
      </trkpt>
      <trkpt lat="48.03551" lon="6.86391">
        <ele>876.4</ele>
        <time>2022-06-26T07:41:51Z</time>
      </trkpt>
      <trkpt lat="48.03552" lon="6.86392">
        <ele>876.4</ele>
        <time>2022-06-26T07:41:52Z</time>
      </trkpt>
      <trkpt lat="48.03554" lon="6.86393">
        <ele>876.8</ele>
        <time>2022-06-26T07:41:53Z</time>
      </trkpt>
      <trkpt lat="48.03556" lon="6.86393">
        <ele>876.8</ele>
        <time>2022-06-26T07:41:54Z</time>
      </trkpt>
      <trkpt lat="48.03558" lon="6.86393">
        <ele>877</ele>
        <time>2022-06-26T07:41:55Z</time>
      </trkpt>
      <trkpt lat="48.0356" lon="6.86393">
        <ele>877</ele>
        <time>2022-06-26T07:41:56Z</time>
      </trkpt>
      <trkpt lat="48.03562" lon="6.86393">
        <ele>877.2</ele>
        <time>2022-06-26T07:41:57Z</time>
      </trkpt>
      <trkpt lat="48.03564" lon="6.86392">
        <ele>877.4</ele>
        <time>2022-06-26T07:41:58Z</time>
      </trkpt>
      <trkpt lat="48.03565" lon="6.86391">
        <ele>877.4</ele>
        <time>2022-06-26T07:41:59Z</time>
      </trkpt>
      <trkpt lat="48.03567" lon="6.8639">
        <ele>877.6</ele>
        <time>2022-06-26T07:42:00Z</time>
      </trkpt>
      <trkpt lat="48.03569" lon="6.86389">
        <ele>877.8</ele>
        <time>2022-06-26T07:42:01Z</time>
      </trkpt>
      <trkpt lat="48.03571" lon="6.86388">
        <ele>878</ele>
        <time>2022-06-26T07:42:02Z</time>
      </trkpt>
      <trkpt lat="48.03572" lon="6.86388">
        <ele>878.2</ele>
        <time>2022-06-26T07:42:03Z</time>
      </trkpt>
      <trkpt lat="48.03575" lon="6.86388">
        <ele>878.2</ele>
        <time>2022-06-26T07:42:04Z</time>
      </trkpt>
      <trkpt lat="48.03577" lon="6.86389">
        <ele>878.4</ele>
        <time>2022-06-26T07:42:05Z</time>
      </trkpt>
      <trkpt lat="48.03579" lon="6.8639">
        <ele>878.4</ele>
        <time>2022-06-26T07:42:06Z</time>
      </trkpt>
      <trkpt lat="48.03581" lon="6.86389">
        <ele>878.4</ele>
        <time>2022-06-26T07:42:07Z</time>
      </trkpt>
      <trkpt lat="48.03583" lon="6.86389">
        <ele>878.6</ele>
        <time>2022-06-26T07:42:08Z</time>
      </trkpt>
      <trkpt lat="48.03585" lon="6.86388">
        <ele>878.6</ele>
        <time>2022-06-26T07:42:09Z</time>
      </trkpt>
      <trkpt lat="48.03586" lon="6.86388">
        <ele>878.8</ele>
        <time>2022-06-26T07:42:10Z</time>
      </trkpt>
      <trkpt lat="48.03588" lon="6.86387">
        <ele>879</ele>
        <time>2022-06-26T07:42:11Z</time>
      </trkpt>
      <trkpt lat="48.03589" lon="6.86387">
        <ele>879.2</ele>
        <time>2022-06-26T07:42:12Z</time>
      </trkpt>
      <trkpt lat="48.03591" lon="6.86386">
        <ele>879.6</ele>
        <time>2022-06-26T07:42:13Z</time>
      </trkpt>
      <trkpt lat="48.03592" lon="6.86386">
        <ele>879.8</ele>
        <time>2022-06-26T07:42:14Z</time>
      </trkpt>
      <trkpt lat="48.03595" lon="6.86385">
        <ele>879.8</ele>
        <time>2022-06-26T07:42:15Z</time>
      </trkpt>
      <trkpt lat="48.03598" lon="6.86385">
        <ele>880</ele>
        <time>2022-06-26T07:42:16Z</time>
      </trkpt>
      <trkpt lat="48.036" lon="6.86384">
        <ele>880</ele>
        <time>2022-06-26T07:42:17Z</time>
      </trkpt>
      <trkpt lat="48.03602" lon="6.86382">
        <ele>880.2</ele>
        <time>2022-06-26T07:42:18Z</time>
      </trkpt>
      <trkpt lat="48.03605" lon="6.86381">
        <ele>880.2</ele>
        <time>2022-06-26T07:42:19Z</time>
      </trkpt>
      <trkpt lat="48.03606" lon="6.86381">
        <ele>880.2</ele>
        <time>2022-06-26T07:42:20Z</time>
      </trkpt>
      <trkpt lat="48.03606" lon="6.86381">
        <ele>880.2</ele>
        <time>2022-06-26T07:42:21Z</time>
      </trkpt>
      <trkpt lat="48.03606" lon="6.86381">
        <ele>880.6</ele>
        <time>2022-06-26T07:42:22Z</time>
      </trkpt>
      <trkpt lat="48.03607" lon="6.8638">
        <ele>880.8</ele>
        <time>2022-06-26T07:42:23Z</time>
      </trkpt>
      <trkpt lat="48.03609" lon="6.8638">
        <ele>880.8</ele>
        <time>2022-06-26T07:42:24Z</time>
      </trkpt>
      <trkpt lat="48.0361" lon="6.8638">
        <ele>881</ele>
        <time>2022-06-26T07:42:25Z</time>
      </trkpt>
      <trkpt lat="48.03611" lon="6.8638">
        <ele>881.2</ele>
        <time>2022-06-26T07:42:26Z</time>
      </trkpt>
      <trkpt lat="48.03612" lon="6.86381">
        <ele>881.2</ele>
        <time>2022-06-26T07:42:27Z</time>
      </trkpt>
      <trkpt lat="48.03613" lon="6.86382">
        <ele>881.4</ele>
        <time>2022-06-26T07:42:28Z</time>
      </trkpt>
      <trkpt lat="48.03613" lon="6.86382">
        <ele>881.4</ele>
        <time>2022-06-26T07:42:29Z</time>
      </trkpt>
      <trkpt lat="48.03614" lon="6.86382">
        <ele>881.4</ele>
        <time>2022-06-26T07:42:30Z</time>
      </trkpt>
      <trkpt lat="48.03615" lon="6.86382">
        <ele>881.8</ele>
        <time>2022-06-26T07:42:31Z</time>
      </trkpt>
      <trkpt lat="48.03617" lon="6.86383">
        <ele>882</ele>
        <time>2022-06-26T07:42:32Z</time>
      </trkpt>
      <trkpt lat="48.03619" lon="6.86382">
        <ele>882.2</ele>
        <time>2022-06-26T07:42:33Z</time>
      </trkpt>
      <trkpt lat="48.0362" lon="6.86383">
        <ele>882.4</ele>
        <time>2022-06-26T07:42:34Z</time>
      </trkpt>
      <trkpt lat="48.03622" lon="6.86383">
        <ele>882.4</ele>
        <time>2022-06-26T07:42:35Z</time>
      </trkpt>
      <trkpt lat="48.03624" lon="6.86383">
        <ele>882.4</ele>
        <time>2022-06-26T07:42:36Z</time>
      </trkpt>
      <trkpt lat="48.03625" lon="6.86383">
        <ele>882.4</ele>
        <time>2022-06-26T07:42:37Z</time>
      </trkpt>
      <trkpt lat="48.03627" lon="6.86382">
        <ele>882.6</ele>
        <time>2022-06-26T07:42:38Z</time>
      </trkpt>
      <trkpt lat="48.03628" lon="6.86383">
        <ele>882.8</ele>
        <time>2022-06-26T07:42:39Z</time>
      </trkpt>
      <trkpt lat="48.03629" lon="6.86383">
        <ele>883</ele>
        <time>2022-06-26T07:42:40Z</time>
      </trkpt>
      <trkpt lat="48.03632" lon="6.86382">
        <ele>883.2</ele>
        <time>2022-06-26T07:42:41Z</time>
      </trkpt>
      <trkpt lat="48.03634" lon="6.86382">
        <ele>883.2</ele>
        <time>2022-06-26T07:42:42Z</time>
      </trkpt>
      <trkpt lat="48.03636" lon="6.86381">
        <ele>883.4</ele>
        <time>2022-06-26T07:42:43Z</time>
      </trkpt>
      <trkpt lat="48.03638" lon="6.86381">
        <ele>883.6</ele>
        <time>2022-06-26T07:42:44Z</time>
      </trkpt>
      <trkpt lat="48.03641" lon="6.8638">
        <ele>883.8</ele>
        <time>2022-06-26T07:42:45Z</time>
      </trkpt>
      <trkpt lat="48.03643" lon="6.86379">
        <ele>883.8</ele>
        <time>2022-06-26T07:42:46Z</time>
      </trkpt>
      <trkpt lat="48.03644" lon="6.86379">
        <ele>884</ele>
        <time>2022-06-26T07:42:47Z</time>
      </trkpt>
      <trkpt lat="48.03646" lon="6.8638">
        <ele>884</ele>
        <time>2022-06-26T07:42:48Z</time>
      </trkpt>
      <trkpt lat="48.03648" lon="6.8638">
        <ele>884.2</ele>
        <time>2022-06-26T07:42:49Z</time>
      </trkpt>
      <trkpt lat="48.03649" lon="6.8638">
        <ele>884.2</ele>
        <time>2022-06-26T07:42:50Z</time>
      </trkpt>
      <trkpt lat="48.0365" lon="6.8638">
        <ele>884.2</ele>
        <time>2022-06-26T07:42:51Z</time>
      </trkpt>
      <trkpt lat="48.03652" lon="6.8638">
        <ele>884.4</ele>
        <time>2022-06-26T07:42:52Z</time>
      </trkpt>
      <trkpt lat="48.03654" lon="6.86379">
        <ele>884.4</ele>
        <time>2022-06-26T07:42:53Z</time>
      </trkpt>
      <trkpt lat="48.03655" lon="6.86378">
        <ele>884.6</ele>
        <time>2022-06-26T07:42:54Z</time>
      </trkpt>
      <trkpt lat="48.03655" lon="6.86379">
        <ele>884.8</ele>
        <time>2022-06-26T07:42:55Z</time>
      </trkpt>
      <trkpt lat="48.03655" lon="6.86379">
        <ele>885</ele>
        <time>2022-06-26T07:42:56Z</time>
      </trkpt>
      <trkpt lat="48.03656" lon="6.8638">
        <ele>885</ele>
        <time>2022-06-26T07:42:57Z</time>
      </trkpt>
      <trkpt lat="48.03657" lon="6.8638">
        <ele>885.2</ele>
        <time>2022-06-26T07:42:58Z</time>
      </trkpt>
      <trkpt lat="48.03657" lon="6.86382">
        <ele>885.4</ele>
        <time>2022-06-26T07:42:59Z</time>
      </trkpt>
      <trkpt lat="48.03657" lon="6.86382">
        <ele>885.4</ele>
        <time>2022-06-26T07:43:00Z</time>
      </trkpt>
      <trkpt lat="48.03657" lon="6.86383">
        <ele>885.6</ele>
        <time>2022-06-26T07:43:01Z</time>
      </trkpt>
      <trkpt lat="48.03658" lon="6.86385">
        <ele>885.8</ele>
        <time>2022-06-26T07:43:02Z</time>
      </trkpt>
      <trkpt lat="48.0366" lon="6.86387">
        <ele>886</ele>
        <time>2022-06-26T07:43:03Z</time>
      </trkpt>
      <trkpt lat="48.03661" lon="6.86389">
        <ele>886</ele>
        <time>2022-06-26T07:43:04Z</time>
      </trkpt>
      <trkpt lat="48.03662" lon="6.86392">
        <ele>886.2</ele>
        <time>2022-06-26T07:43:05Z</time>
      </trkpt>
      <trkpt lat="48.03663" lon="6.86394">
        <ele>886.2</ele>
        <time>2022-06-26T07:43:06Z</time>
      </trkpt>
      <trkpt lat="48.03664" lon="6.86398">
        <ele>886.4</ele>
        <time>2022-06-26T07:43:07Z</time>
      </trkpt>
      <trkpt lat="48.03665" lon="6.86401">
        <ele>886.4</ele>
        <time>2022-06-26T07:43:08Z</time>
      </trkpt>
      <trkpt lat="48.03666" lon="6.86403">
        <ele>886.6</ele>
        <time>2022-06-26T07:43:09Z</time>
      </trkpt>
      <trkpt lat="48.03667" lon="6.86405">
        <ele>886.8</ele>
        <time>2022-06-26T07:43:10Z</time>
      </trkpt>
      <trkpt lat="48.03668" lon="6.86407">
        <ele>887</ele>
        <time>2022-06-26T07:43:11Z</time>
      </trkpt>
      <trkpt lat="48.03669" lon="6.86407">
        <ele>887</ele>
        <time>2022-06-26T07:43:12Z</time>
      </trkpt>
      <trkpt lat="48.03669" lon="6.86408">
        <ele>887.2</ele>
        <time>2022-06-26T07:43:14Z</time>
      </trkpt>
      <trkpt lat="48.03669" lon="6.86408">
        <ele>887.2</ele>
        <time>2022-06-26T07:43:15Z</time>
      </trkpt>
      <trkpt lat="48.03669" lon="6.86408">
        <ele>887.4</ele>
        <time>2022-06-26T07:43:16Z</time>
      </trkpt>
      <trkpt lat="48.0367" lon="6.86409">
        <ele>887.4</ele>
        <time>2022-06-26T07:43:17Z</time>
      </trkpt>
      <trkpt lat="48.03671" lon="6.86411">
        <ele>887.8</ele>
        <time>2022-06-26T07:43:18Z</time>
      </trkpt>
      <trkpt lat="48.03672" lon="6.86412">
        <ele>887.8</ele>
        <time>2022-06-26T07:43:19Z</time>
      </trkpt>
      <trkpt lat="48.03672" lon="6.86412">
        <ele>888</ele>
        <time>2022-06-26T07:43:20Z</time>
      </trkpt>
      <trkpt lat="48.03672" lon="6.86412">
        <ele>888.2</ele>
        <time>2022-06-26T07:43:21Z</time>
      </trkpt>
      <trkpt lat="48.03672" lon="6.86412">
        <ele>888.4</ele>
        <time>2022-06-26T07:43:22Z</time>
      </trkpt>
      <trkpt lat="48.03672" lon="6.86412">
        <ele>888.6</ele>
        <time>2022-06-26T07:43:23Z</time>
      </trkpt>
      <trkpt lat="48.03672" lon="6.86412">
        <ele>888.8</ele>
        <time>2022-06-26T07:43:24Z</time>
      </trkpt>
      <trkpt lat="48.03672" lon="6.86412">
        <ele>889</ele>
        <time>2022-06-26T07:43:26Z</time>
      </trkpt>
      <trkpt lat="48.03674" lon="6.86415">
        <ele>889.2</ele>
        <time>2022-06-26T07:43:27Z</time>
      </trkpt>
      <trkpt lat="48.03676" lon="6.86416">
        <ele>889.2</ele>
        <time>2022-06-26T07:43:28Z</time>
      </trkpt>
      <trkpt lat="48.03677" lon="6.86417">
        <ele>889.6</ele>
        <time>2022-06-26T07:43:29Z</time>
      </trkpt>
      <trkpt lat="48.03679" lon="6.86418">
        <ele>889.6</ele>
        <time>2022-06-26T07:43:30Z</time>
      </trkpt>
      <trkpt lat="48.0368" lon="6.86419">
        <ele>889.8</ele>
        <time>2022-06-26T07:43:31Z</time>
      </trkpt>
      <trkpt lat="48.03681" lon="6.86422">
        <ele>889.8</ele>
        <time>2022-06-26T07:43:32Z</time>
      </trkpt>
      <trkpt lat="48.03682" lon="6.86423">
        <ele>889.8</ele>
        <time>2022-06-26T07:43:33Z</time>
      </trkpt>
      <trkpt lat="48.03684" lon="6.86425">
        <ele>890</ele>
        <time>2022-06-26T07:43:34Z</time>
      </trkpt>
      <trkpt lat="48.03686" lon="6.86428">
        <ele>890</ele>
        <time>2022-06-26T07:43:35Z</time>
      </trkpt>
      <trkpt lat="48.03689" lon="6.86432">
        <ele>890.2</ele>
        <time>2022-06-26T07:43:36Z</time>
      </trkpt>
      <trkpt lat="48.03691" lon="6.86434">
        <ele>890.2</ele>
        <time>2022-06-26T07:43:37Z</time>
      </trkpt>
      <trkpt lat="48.03693" lon="6.86436">
        <ele>890.4</ele>
        <time>2022-06-26T07:43:38Z</time>
      </trkpt>
      <trkpt lat="48.03695" lon="6.86437">
        <ele>890.4</ele>
        <time>2022-06-26T07:43:39Z</time>
      </trkpt>
      <trkpt lat="48.03697" lon="6.86439">
        <ele>890.6</ele>
        <time>2022-06-26T07:43:40Z</time>
      </trkpt>
      <trkpt lat="48.03698" lon="6.86441">
        <ele>890.6</ele>
        <time>2022-06-26T07:43:41Z</time>
      </trkpt>
      <trkpt lat="48.03699" lon="6.86444">
        <ele>890.8</ele>
        <time>2022-06-26T07:43:42Z</time>
      </trkpt>
      <trkpt lat="48.037" lon="6.86445">
        <ele>891</ele>
        <time>2022-06-26T07:43:43Z</time>
      </trkpt>
      <trkpt lat="48.03702" lon="6.86446">
        <ele>891.2</ele>
        <time>2022-06-26T07:43:44Z</time>
      </trkpt>
      <trkpt lat="48.03702" lon="6.86448">
        <ele>891.4</ele>
        <time>2022-06-26T07:43:45Z</time>
      </trkpt>
      <trkpt lat="48.03704" lon="6.86449">
        <ele>891.6</ele>
        <time>2022-06-26T07:43:46Z</time>
      </trkpt>
      <trkpt lat="48.03705" lon="6.86451">
        <ele>891.8</ele>
        <time>2022-06-26T07:43:47Z</time>
      </trkpt>
      <trkpt lat="48.03705" lon="6.86451">
        <ele>892</ele>
        <time>2022-06-26T07:43:48Z</time>
      </trkpt>
      <trkpt lat="48.03706" lon="6.86453">
        <ele>892</ele>
        <time>2022-06-26T07:43:49Z</time>
      </trkpt>
      <trkpt lat="48.03708" lon="6.86455">
        <ele>892.2</ele>
        <time>2022-06-26T07:43:50Z</time>
      </trkpt>
      <trkpt lat="48.03709" lon="6.86457">
        <ele>892.2</ele>
        <time>2022-06-26T07:43:51Z</time>
      </trkpt>
      <trkpt lat="48.03711" lon="6.86457">
        <ele>892.4</ele>
        <time>2022-06-26T07:43:52Z</time>
      </trkpt>
      <trkpt lat="48.03711" lon="6.86458">
        <ele>892.4</ele>
        <time>2022-06-26T07:43:53Z</time>
      </trkpt>
      <trkpt lat="48.03711" lon="6.86458">
        <ele>892.6</ele>
        <time>2022-06-26T07:43:54Z</time>
      </trkpt>
      <trkpt lat="48.03711" lon="6.86459">
        <ele>892.8</ele>
        <time>2022-06-26T07:43:55Z</time>
      </trkpt>
      <trkpt lat="48.03712" lon="6.86459">
        <ele>893</ele>
        <time>2022-06-26T07:43:56Z</time>
      </trkpt>
      <trkpt lat="48.03712" lon="6.86459">
        <ele>893.2</ele>
        <time>2022-06-26T07:43:57Z</time>
      </trkpt>
      <trkpt lat="48.03713" lon="6.86459">
        <ele>893.4</ele>
        <time>2022-06-26T07:43:58Z</time>
      </trkpt>
      <trkpt lat="48.03713" lon="6.86459">
        <ele>893.4</ele>
        <time>2022-06-26T07:43:59Z</time>
      </trkpt>
      <trkpt lat="48.03713" lon="6.8646">
        <ele>893.6</ele>
        <time>2022-06-26T07:44:00Z</time>
      </trkpt>
      <trkpt lat="48.03715" lon="6.86462">
        <ele>893.6</ele>
        <time>2022-06-26T07:44:01Z</time>
      </trkpt>
      <trkpt lat="48.03717" lon="6.86464">
        <ele>893.8</ele>
        <time>2022-06-26T07:44:02Z</time>
      </trkpt>
      <trkpt lat="48.03717" lon="6.86464">
        <ele>894</ele>
        <time>2022-06-26T07:44:03Z</time>
      </trkpt>
      <trkpt lat="48.03718" lon="6.86465">
        <ele>894</ele>
        <time>2022-06-26T07:44:04Z</time>
      </trkpt>
      <trkpt lat="48.03718" lon="6.86466">
        <ele>894.4</ele>
        <time>2022-06-26T07:44:05Z</time>
      </trkpt>
      <trkpt lat="48.03719" lon="6.86467">
        <ele>894.4</ele>
        <time>2022-06-26T07:44:06Z</time>
      </trkpt>
      <trkpt lat="48.0372" lon="6.86469">
        <ele>894.4</ele>
        <time>2022-06-26T07:44:07Z</time>
      </trkpt>
      <trkpt lat="48.0372" lon="6.86469">
        <ele>894.6</ele>
        <time>2022-06-26T07:44:08Z</time>
      </trkpt>
      <trkpt lat="48.03721" lon="6.8647">
        <ele>895</ele>
        <time>2022-06-26T07:44:09Z</time>
      </trkpt>
      <trkpt lat="48.03722" lon="6.86472">
        <ele>895.2</ele>
        <time>2022-06-26T07:44:10Z</time>
      </trkpt>
      <trkpt lat="48.03723" lon="6.86473">
        <ele>895.2</ele>
        <time>2022-06-26T07:44:11Z</time>
      </trkpt>
      <trkpt lat="48.03723" lon="6.86475">
        <ele>895.4</ele>
        <time>2022-06-26T07:44:12Z</time>
      </trkpt>
      <trkpt lat="48.03724" lon="6.86478">
        <ele>895.6</ele>
        <time>2022-06-26T07:44:13Z</time>
      </trkpt>
      <trkpt lat="48.03726" lon="6.86479">
        <ele>895.8</ele>
        <time>2022-06-26T07:44:14Z</time>
      </trkpt>
      <trkpt lat="48.03728" lon="6.8648">
        <ele>896</ele>
        <time>2022-06-26T07:44:15Z</time>
      </trkpt>
      <trkpt lat="48.03729" lon="6.86482">
        <ele>896.2</ele>
        <time>2022-06-26T07:44:16Z</time>
      </trkpt>
      <trkpt lat="48.03731" lon="6.86485">
        <ele>896.2</ele>
        <time>2022-06-26T07:44:17Z</time>
      </trkpt>
      <trkpt lat="48.03733" lon="6.86488">
        <ele>896.2</ele>
        <time>2022-06-26T07:44:18Z</time>
      </trkpt>
      <trkpt lat="48.03736" lon="6.86491">
        <ele>896.4</ele>
        <time>2022-06-26T07:44:19Z</time>
      </trkpt>
      <trkpt lat="48.03737" lon="6.86495">
        <ele>896.4</ele>
        <time>2022-06-26T07:44:20Z</time>
      </trkpt>
      <trkpt lat="48.03739" lon="6.86496">
        <ele>896.4</ele>
        <time>2022-06-26T07:44:21Z</time>
      </trkpt>
      <trkpt lat="48.0374" lon="6.86497">
        <ele>896.4</ele>
        <time>2022-06-26T07:44:22Z</time>
      </trkpt>
      <trkpt lat="48.03742" lon="6.86499">
        <ele>896.6</ele>
        <time>2022-06-26T07:44:23Z</time>
      </trkpt>
      <trkpt lat="48.03743" lon="6.865">
        <ele>896.6</ele>
        <time>2022-06-26T07:44:24Z</time>
      </trkpt>
      <trkpt lat="48.03745" lon="6.86502">
        <ele>896.8</ele>
        <time>2022-06-26T07:44:25Z</time>
      </trkpt>
      <trkpt lat="48.03746" lon="6.86504">
        <ele>897</ele>
        <time>2022-06-26T07:44:26Z</time>
      </trkpt>
      <trkpt lat="48.03746" lon="6.86507">
        <ele>897.2</ele>
        <time>2022-06-26T07:44:27Z</time>
      </trkpt>
      <trkpt lat="48.03747" lon="6.8651">
        <ele>897.4</ele>
        <time>2022-06-26T07:44:28Z</time>
      </trkpt>
      <trkpt lat="48.03748" lon="6.86512">
        <ele>897.6</ele>
        <time>2022-06-26T07:44:29Z</time>
      </trkpt>
      <trkpt lat="48.03749" lon="6.86515">
        <ele>898</ele>
        <time>2022-06-26T07:44:30Z</time>
      </trkpt>
      <trkpt lat="48.03749" lon="6.86518">
        <ele>898</ele>
        <time>2022-06-26T07:44:31Z</time>
      </trkpt>
      <trkpt lat="48.03748" lon="6.8652">
        <ele>898.4</ele>
        <time>2022-06-26T07:44:32Z</time>
      </trkpt>
      <trkpt lat="48.03748" lon="6.86522">
        <ele>898.4</ele>
        <time>2022-06-26T07:44:33Z</time>
      </trkpt>
      <trkpt lat="48.03748" lon="6.86524">
        <ele>898.6</ele>
        <time>2022-06-26T07:44:34Z</time>
      </trkpt>
      <trkpt lat="48.03749" lon="6.86525">
        <ele>898.6</ele>
        <time>2022-06-26T07:44:35Z</time>
      </trkpt>
      <trkpt lat="48.0375" lon="6.86526">
        <ele>898.8</ele>
        <time>2022-06-26T07:44:36Z</time>
      </trkpt>
      <trkpt lat="48.0375" lon="6.86527">
        <ele>899</ele>
        <time>2022-06-26T07:44:37Z</time>
      </trkpt>
      <trkpt lat="48.03751" lon="6.8653">
        <ele>899.2</ele>
        <time>2022-06-26T07:44:38Z</time>
      </trkpt>
      <trkpt lat="48.03752" lon="6.86533">
        <ele>899.4</ele>
        <time>2022-06-26T07:44:39Z</time>
      </trkpt>
      <trkpt lat="48.03751" lon="6.86536">
        <ele>899.4</ele>
        <time>2022-06-26T07:44:40Z</time>
      </trkpt>
      <trkpt lat="48.03751" lon="6.86538">
        <ele>899.6</ele>
        <time>2022-06-26T07:44:41Z</time>
      </trkpt>
      <trkpt lat="48.03751" lon="6.86541">
        <ele>899.6</ele>
        <time>2022-06-26T07:44:42Z</time>
      </trkpt>
      <trkpt lat="48.03751" lon="6.86544">
        <ele>899.8</ele>
        <time>2022-06-26T07:44:43Z</time>
      </trkpt>
      <trkpt lat="48.03751" lon="6.86547">
        <ele>900</ele>
        <time>2022-06-26T07:44:44Z</time>
      </trkpt>
      <trkpt lat="48.03752" lon="6.86549">
        <ele>900.2</ele>
        <time>2022-06-26T07:44:45Z</time>
      </trkpt>
      <trkpt lat="48.03752" lon="6.86552">
        <ele>900.4</ele>
        <time>2022-06-26T07:44:46Z</time>
      </trkpt>
      <trkpt lat="48.03752" lon="6.86554">
        <ele>900.4</ele>
        <time>2022-06-26T07:44:47Z</time>
      </trkpt>
      <trkpt lat="48.03752" lon="6.86557">
        <ele>900.6</ele>
        <time>2022-06-26T07:44:48Z</time>
      </trkpt>
      <trkpt lat="48.03752" lon="6.86559">
        <ele>900.8</ele>
        <time>2022-06-26T07:44:49Z</time>
      </trkpt>
      <trkpt lat="48.03755" lon="6.86563">
        <ele>901</ele>
        <time>2022-06-26T07:44:50Z</time>
      </trkpt>
      <trkpt lat="48.03757" lon="6.86567">
        <ele>901</ele>
        <time>2022-06-26T07:44:51Z</time>
      </trkpt>
      <trkpt lat="48.03758" lon="6.8657">
        <ele>901.2</ele>
        <time>2022-06-26T07:44:52Z</time>
      </trkpt>
      <trkpt lat="48.0376" lon="6.86573">
        <ele>901.4</ele>
        <time>2022-06-26T07:44:53Z</time>
      </trkpt>
      <trkpt lat="48.03759" lon="6.86575">
        <ele>901.4</ele>
        <time>2022-06-26T07:44:54Z</time>
      </trkpt>
      <trkpt lat="48.03758" lon="6.86578">
        <ele>901.6</ele>
        <time>2022-06-26T07:44:55Z</time>
      </trkpt>
      <trkpt lat="48.03759" lon="6.86581">
        <ele>901.6</ele>
        <time>2022-06-26T07:44:56Z</time>
      </trkpt>
      <trkpt lat="48.03759" lon="6.86584">
        <ele>901.8</ele>
        <time>2022-06-26T07:44:57Z</time>
      </trkpt>
      <trkpt lat="48.03757" lon="6.86583">
        <ele>901.8</ele>
        <time>2022-06-26T07:44:58Z</time>
      </trkpt>
      <trkpt lat="48.03757" lon="6.86584">
        <ele>902</ele>
        <time>2022-06-26T07:44:59Z</time>
      </trkpt>
      <trkpt lat="48.03757" lon="6.86584">
        <ele>902</ele>
        <time>2022-06-26T07:45:00Z</time>
      </trkpt>
      <trkpt lat="48.03759" lon="6.86585">
        <ele>902.2</ele>
        <time>2022-06-26T07:45:01Z</time>
      </trkpt>
      <trkpt lat="48.03759" lon="6.86586">
        <ele>902.2</ele>
        <time>2022-06-26T07:45:02Z</time>
      </trkpt>
      <trkpt lat="48.03759" lon="6.86586">
        <ele>902.2</ele>
        <time>2022-06-26T07:45:03Z</time>
      </trkpt>
      <trkpt lat="48.0376" lon="6.86587">
        <ele>902.4</ele>
        <time>2022-06-26T07:45:04Z</time>
      </trkpt>
      <trkpt lat="48.03762" lon="6.86588">
        <ele>902.6</ele>
        <time>2022-06-26T07:45:05Z</time>
      </trkpt>
      <trkpt lat="48.03763" lon="6.8659">
        <ele>902.6</ele>
        <time>2022-06-26T07:45:06Z</time>
      </trkpt>
      <trkpt lat="48.03765" lon="6.86592">
        <ele>902.6</ele>
        <time>2022-06-26T07:45:07Z</time>
      </trkpt>
      <trkpt lat="48.03766" lon="6.86593">
        <ele>902.8</ele>
        <time>2022-06-26T07:45:08Z</time>
      </trkpt>
      <trkpt lat="48.03768" lon="6.86595">
        <ele>902.8</ele>
        <time>2022-06-26T07:45:09Z</time>
      </trkpt>
      <trkpt lat="48.03769" lon="6.86596">
        <ele>902.8</ele>
        <time>2022-06-26T07:45:10Z</time>
      </trkpt>
      <trkpt lat="48.0377" lon="6.86597">
        <ele>902.6</ele>
        <time>2022-06-26T07:45:11Z</time>
      </trkpt>
      <trkpt lat="48.03771" lon="6.86598">
        <ele>902.8</ele>
        <time>2022-06-26T07:45:12Z</time>
      </trkpt>
      <trkpt lat="48.03772" lon="6.866">
        <ele>903</ele>
        <time>2022-06-26T07:45:13Z</time>
      </trkpt>
      <trkpt lat="48.03774" lon="6.86601">
        <ele>903</ele>
        <time>2022-06-26T07:45:14Z</time>
      </trkpt>
      <trkpt lat="48.03775" lon="6.86601">
        <ele>903.2</ele>
        <time>2022-06-26T07:45:15Z</time>
      </trkpt>
      <trkpt lat="48.03776" lon="6.86602">
        <ele>903.2</ele>
        <time>2022-06-26T07:45:16Z</time>
      </trkpt>
      <trkpt lat="48.03777" lon="6.86603">
        <ele>903.4</ele>
        <time>2022-06-26T07:45:17Z</time>
      </trkpt>
      <trkpt lat="48.03779" lon="6.86605">
        <ele>903.4</ele>
        <time>2022-06-26T07:45:18Z</time>
      </trkpt>
      <trkpt lat="48.0378" lon="6.86607">
        <ele>903.6</ele>
        <time>2022-06-26T07:45:19Z</time>
      </trkpt>
      <trkpt lat="48.03782" lon="6.86609">
        <ele>903.8</ele>
        <time>2022-06-26T07:45:20Z</time>
      </trkpt>
      <trkpt lat="48.03783" lon="6.8661">
        <ele>903.8</ele>
        <time>2022-06-26T07:45:21Z</time>
      </trkpt>
      <trkpt lat="48.03785" lon="6.86614">
        <ele>904.2</ele>
        <time>2022-06-26T07:45:23Z</time>
      </trkpt>
      <trkpt lat="48.03787" lon="6.86617">
        <ele>904.4</ele>
        <time>2022-06-26T07:45:24Z</time>
      </trkpt>
      <trkpt lat="48.03788" lon="6.86619">
        <ele>904.6</ele>
        <time>2022-06-26T07:45:25Z</time>
      </trkpt>
      <trkpt lat="48.03789" lon="6.86621">
        <ele>904.6</ele>
        <time>2022-06-26T07:45:26Z</time>
      </trkpt>
      <trkpt lat="48.0379" lon="6.86623">
        <ele>904.6</ele>
        <time>2022-06-26T07:45:27Z</time>
      </trkpt>
      <trkpt lat="48.0379" lon="6.86625">
        <ele>904.8</ele>
        <time>2022-06-26T07:45:28Z</time>
      </trkpt>
      <trkpt lat="48.03791" lon="6.86626">
        <ele>904.8</ele>
        <time>2022-06-26T07:45:29Z</time>
      </trkpt>
      <trkpt lat="48.03791" lon="6.86627">
        <ele>904.8</ele>
        <time>2022-06-26T07:45:30Z</time>
      </trkpt>
      <trkpt lat="48.03791" lon="6.86629">
        <ele>905</ele>
        <time>2022-06-26T07:45:31Z</time>
      </trkpt>
      <trkpt lat="48.03791" lon="6.8663">
        <ele>905</ele>
        <time>2022-06-26T07:45:32Z</time>
      </trkpt>
      <trkpt lat="48.03792" lon="6.86633">
        <ele>905.2</ele>
        <time>2022-06-26T07:45:33Z</time>
      </trkpt>
      <trkpt lat="48.03792" lon="6.86635">
        <ele>905.2</ele>
        <time>2022-06-26T07:45:34Z</time>
      </trkpt>
      <trkpt lat="48.03793" lon="6.86639">
        <ele>905.6</ele>
        <time>2022-06-26T07:45:35Z</time>
      </trkpt>
      <trkpt lat="48.03794" lon="6.86642">
        <ele>905.6</ele>
        <time>2022-06-26T07:45:36Z</time>
      </trkpt>
      <trkpt lat="48.03793" lon="6.86645">
        <ele>905.8</ele>
        <time>2022-06-26T07:45:37Z</time>
      </trkpt>
      <trkpt lat="48.03792" lon="6.86647">
        <ele>906</ele>
        <time>2022-06-26T07:45:38Z</time>
      </trkpt>
      <trkpt lat="48.03792" lon="6.8665">
        <ele>906.2</ele>
        <time>2022-06-26T07:45:39Z</time>
      </trkpt>
      <trkpt lat="48.03792" lon="6.86654">
        <ele>906.2</ele>
        <time>2022-06-26T07:45:40Z</time>
      </trkpt>
      <trkpt lat="48.03792" lon="6.86658">
        <ele>906.4</ele>
        <time>2022-06-26T07:45:41Z</time>
      </trkpt>
      <trkpt lat="48.03791" lon="6.86663">
        <ele>906.4</ele>
        <time>2022-06-26T07:45:42Z</time>
      </trkpt>
      <trkpt lat="48.0379" lon="6.86666">
        <ele>906.6</ele>
        <time>2022-06-26T07:45:43Z</time>
      </trkpt>
      <trkpt lat="48.0379" lon="6.86669">
        <ele>906.8</ele>
        <time>2022-06-26T07:45:44Z</time>
      </trkpt>
      <trkpt lat="48.0379" lon="6.86673">
        <ele>906.8</ele>
        <time>2022-06-26T07:45:45Z</time>
      </trkpt>
      <trkpt lat="48.03789" lon="6.86676">
        <ele>907.2</ele>
        <time>2022-06-26T07:45:46Z</time>
      </trkpt>
      <trkpt lat="48.03789" lon="6.8668">
        <ele>907.2</ele>
        <time>2022-06-26T07:45:47Z</time>
      </trkpt>
      <trkpt lat="48.03788" lon="6.86684">
        <ele>907.2</ele>
        <time>2022-06-26T07:45:48Z</time>
      </trkpt>
      <trkpt lat="48.03788" lon="6.86688">
        <ele>907.6</ele>
        <time>2022-06-26T07:45:49Z</time>
      </trkpt>
      <trkpt lat="48.03788" lon="6.86692">
        <ele>907.8</ele>
        <time>2022-06-26T07:45:50Z</time>
      </trkpt>
      <trkpt lat="48.03788" lon="6.86695">
        <ele>908</ele>
        <time>2022-06-26T07:45:51Z</time>
      </trkpt>
      <trkpt lat="48.03788" lon="6.86698">
        <ele>908</ele>
        <time>2022-06-26T07:45:52Z</time>
      </trkpt>
      <trkpt lat="48.03789" lon="6.867">
        <ele>908.2</ele>
        <time>2022-06-26T07:45:53Z</time>
      </trkpt>
      <trkpt lat="48.0379" lon="6.86702">
        <ele>908.2</ele>
        <time>2022-06-26T07:45:54Z</time>
      </trkpt>
      <trkpt lat="48.03791" lon="6.86705">
        <ele>908.2</ele>
        <time>2022-06-26T07:45:55Z</time>
      </trkpt>
      <trkpt lat="48.03791" lon="6.86708">
        <ele>908.4</ele>
        <time>2022-06-26T07:45:56Z</time>
      </trkpt>
      <trkpt lat="48.03792" lon="6.8671">
        <ele>908.4</ele>
        <time>2022-06-26T07:45:57Z</time>
      </trkpt>
      <trkpt lat="48.03792" lon="6.86712">
        <ele>908.6</ele>
        <time>2022-06-26T07:45:58Z</time>
      </trkpt>
      <trkpt lat="48.03793" lon="6.86715">
        <ele>908.6</ele>
        <time>2022-06-26T07:45:59Z</time>
      </trkpt>
      <trkpt lat="48.03793" lon="6.86717">
        <ele>908.8</ele>
        <time>2022-06-26T07:46:00Z</time>
      </trkpt>
      <trkpt lat="48.03794" lon="6.8672">
        <ele>908.8</ele>
        <time>2022-06-26T07:46:01Z</time>
      </trkpt>
      <trkpt lat="48.03794" lon="6.86722">
        <ele>909</ele>
        <time>2022-06-26T07:46:02Z</time>
      </trkpt>
      <trkpt lat="48.03795" lon="6.86724">
        <ele>909.2</ele>
        <time>2022-06-26T07:46:03Z</time>
      </trkpt>
      <trkpt lat="48.03795" lon="6.86727">
        <ele>909.2</ele>
        <time>2022-06-26T07:46:04Z</time>
      </trkpt>
      <trkpt lat="48.03795" lon="6.86729">
        <ele>909.2</ele>
        <time>2022-06-26T07:46:05Z</time>
      </trkpt>
      <trkpt lat="48.03796" lon="6.86732">
        <ele>909.4</ele>
        <time>2022-06-26T07:46:06Z</time>
      </trkpt>
      <trkpt lat="48.03796" lon="6.86734">
        <ele>909.4</ele>
        <time>2022-06-26T07:46:07Z</time>
      </trkpt>
      <trkpt lat="48.03796" lon="6.86736">
        <ele>909.6</ele>
        <time>2022-06-26T07:46:08Z</time>
      </trkpt>
      <trkpt lat="48.03796" lon="6.86739">
        <ele>910</ele>
        <time>2022-06-26T07:46:09Z</time>
      </trkpt>
      <trkpt lat="48.03796" lon="6.86742">
        <ele>910</ele>
        <time>2022-06-26T07:46:10Z</time>
      </trkpt>
      <trkpt lat="48.03796" lon="6.86744">
        <ele>910.2</ele>
        <time>2022-06-26T07:46:11Z</time>
      </trkpt>
      <trkpt lat="48.03796" lon="6.86747">
        <ele>910.4</ele>
        <time>2022-06-26T07:46:12Z</time>
      </trkpt>
      <trkpt lat="48.03796" lon="6.86749">
        <ele>910.6</ele>
        <time>2022-06-26T07:46:13Z</time>
      </trkpt>
      <trkpt lat="48.03796" lon="6.86752">
        <ele>910.8</ele>
        <time>2022-06-26T07:46:14Z</time>
      </trkpt>
      <trkpt lat="48.03795" lon="6.86755">
        <ele>910.8</ele>
        <time>2022-06-26T07:46:15Z</time>
      </trkpt>
      <trkpt lat="48.03795" lon="6.86757">
        <ele>911</ele>
        <time>2022-06-26T07:46:16Z</time>
      </trkpt>
      <trkpt lat="48.03794" lon="6.86759">
        <ele>911</ele>
        <time>2022-06-26T07:46:17Z</time>
      </trkpt>
      <trkpt lat="48.03793" lon="6.86761">
        <ele>911</ele>
        <time>2022-06-26T07:46:18Z</time>
      </trkpt>
      <trkpt lat="48.03792" lon="6.86763">
        <ele>911.2</ele>
        <time>2022-06-26T07:46:19Z</time>
      </trkpt>
      <trkpt lat="48.03791" lon="6.86765">
        <ele>911.2</ele>
        <time>2022-06-26T07:46:20Z</time>
      </trkpt>
      <trkpt lat="48.0379" lon="6.86767">
        <ele>911.6</ele>
        <time>2022-06-26T07:46:21Z</time>
      </trkpt>
      <trkpt lat="48.03789" lon="6.86769">
        <ele>911.6</ele>
        <time>2022-06-26T07:46:22Z</time>
      </trkpt>
      <trkpt lat="48.03788" lon="6.86771">
        <ele>911.8</ele>
        <time>2022-06-26T07:46:23Z</time>
      </trkpt>
      <trkpt lat="48.03787" lon="6.86773">
        <ele>911.8</ele>
        <time>2022-06-26T07:46:24Z</time>
      </trkpt>
      <trkpt lat="48.03785" lon="6.86774">
        <ele>911.8</ele>
        <time>2022-06-26T07:46:25Z</time>
      </trkpt>
      <trkpt lat="48.03784" lon="6.86776">
        <ele>912</ele>
        <time>2022-06-26T07:46:26Z</time>
      </trkpt>
      <trkpt lat="48.03782" lon="6.86778">
        <ele>912</ele>
        <time>2022-06-26T07:46:27Z</time>
      </trkpt>
      <trkpt lat="48.03781" lon="6.86779">
        <ele>912.2</ele>
        <time>2022-06-26T07:46:28Z</time>
      </trkpt>
      <trkpt lat="48.0378" lon="6.8678">
        <ele>912.2</ele>
        <time>2022-06-26T07:46:29Z</time>
      </trkpt>
      <trkpt lat="48.03778" lon="6.86781">
        <ele>912.6</ele>
        <time>2022-06-26T07:46:30Z</time>
      </trkpt>
      <trkpt lat="48.03777" lon="6.86782">
        <ele>912.6</ele>
        <time>2022-06-26T07:46:31Z</time>
      </trkpt>
      <trkpt lat="48.03776" lon="6.86784">
        <ele>912.8</ele>
        <time>2022-06-26T07:46:32Z</time>
      </trkpt>
      <trkpt lat="48.03775" lon="6.86785">
        <ele>912.8</ele>
        <time>2022-06-26T07:46:33Z</time>
      </trkpt>
      <trkpt lat="48.03773" lon="6.86786">
        <ele>913</ele>
        <time>2022-06-26T07:46:34Z</time>
      </trkpt>
      <trkpt lat="48.03772" lon="6.86788">
        <ele>913.2</ele>
        <time>2022-06-26T07:46:35Z</time>
      </trkpt>
      <trkpt lat="48.0377" lon="6.86789">
        <ele>913.4</ele>
        <time>2022-06-26T07:46:36Z</time>
      </trkpt>
      <trkpt lat="48.03769" lon="6.8679">
        <ele>913.4</ele>
        <time>2022-06-26T07:46:37Z</time>
      </trkpt>
      <trkpt lat="48.03767" lon="6.86791">
        <ele>913.6</ele>
        <time>2022-06-26T07:46:38Z</time>
      </trkpt>
      <trkpt lat="48.03766" lon="6.86792">
        <ele>913.8</ele>
        <time>2022-06-26T07:46:39Z</time>
      </trkpt>
      <trkpt lat="48.03764" lon="6.86794">
        <ele>913.8</ele>
        <time>2022-06-26T07:46:40Z</time>
      </trkpt>
      <trkpt lat="48.03763" lon="6.86795">
        <ele>914</ele>
        <time>2022-06-26T07:46:41Z</time>
      </trkpt>
      <trkpt lat="48.03761" lon="6.86796">
        <ele>914</ele>
        <time>2022-06-26T07:46:42Z</time>
      </trkpt>
      <trkpt lat="48.0376" lon="6.86797">
        <ele>914.2</ele>
        <time>2022-06-26T07:46:43Z</time>
      </trkpt>
      <trkpt lat="48.03758" lon="6.86798">
        <ele>914.2</ele>
        <time>2022-06-26T07:46:44Z</time>
      </trkpt>
      <trkpt lat="48.03757" lon="6.86799">
        <ele>914.4</ele>
        <time>2022-06-26T07:46:45Z</time>
      </trkpt>
      <trkpt lat="48.03755" lon="6.86801">
        <ele>914.4</ele>
        <time>2022-06-26T07:46:46Z</time>
      </trkpt>
      <trkpt lat="48.03754" lon="6.86803">
        <ele>914.6</ele>
        <time>2022-06-26T07:46:47Z</time>
      </trkpt>
      <trkpt lat="48.03753" lon="6.86804">
        <ele>914.6</ele>
        <time>2022-06-26T07:46:48Z</time>
      </trkpt>
      <trkpt lat="48.03752" lon="6.86806">
        <ele>914.8</ele>
        <time>2022-06-26T07:46:49Z</time>
      </trkpt>
      <trkpt lat="48.03751" lon="6.86808">
        <ele>915</ele>
        <time>2022-06-26T07:46:50Z</time>
      </trkpt>
      <trkpt lat="48.0375" lon="6.8681">
        <ele>915</ele>
        <time>2022-06-26T07:46:51Z</time>
      </trkpt>
      <trkpt lat="48.03749" lon="6.86812">
        <ele>915.2</ele>
        <time>2022-06-26T07:46:52Z</time>
      </trkpt>
      <trkpt lat="48.03748" lon="6.86813">
        <ele>915</ele>
        <time>2022-06-26T07:46:53Z</time>
      </trkpt>
      <trkpt lat="48.03747" lon="6.86814">
        <ele>915.2</ele>
        <time>2022-06-26T07:46:54Z</time>
      </trkpt>
      <trkpt lat="48.03746" lon="6.86815">
        <ele>915.2</ele>
        <time>2022-06-26T07:46:55Z</time>
      </trkpt>
      <trkpt lat="48.03745" lon="6.86816">
        <ele>915.4</ele>
        <time>2022-06-26T07:46:56Z</time>
      </trkpt>
      <trkpt lat="48.03744" lon="6.86817">
        <ele>915.6</ele>
        <time>2022-06-26T07:46:57Z</time>
      </trkpt>
      <trkpt lat="48.03743" lon="6.86818">
        <ele>915.8</ele>
        <time>2022-06-26T07:46:58Z</time>
      </trkpt>
      <trkpt lat="48.03742" lon="6.86818">
        <ele>916</ele>
        <time>2022-06-26T07:46:59Z</time>
      </trkpt>
      <trkpt lat="48.03742" lon="6.86818">
        <ele>916</ele>
        <time>2022-06-26T07:47:00Z</time>
      </trkpt>
      <trkpt lat="48.03742" lon="6.86818">
        <ele>916.2</ele>
        <time>2022-06-26T07:47:01Z</time>
      </trkpt>
      <trkpt lat="48.03742" lon="6.86818">
        <ele>916.2</ele>
        <time>2022-06-26T07:47:02Z</time>
      </trkpt>
      <trkpt lat="48.03742" lon="6.86819">
        <ele>916.4</ele>
        <time>2022-06-26T07:47:03Z</time>
      </trkpt>
      <trkpt lat="48.03741" lon="6.86819">
        <ele>916.6</ele>
        <time>2022-06-26T07:47:04Z</time>
      </trkpt>
      <trkpt lat="48.0374" lon="6.8682">
        <ele>916.8</ele>
        <time>2022-06-26T07:47:05Z</time>
      </trkpt>
      <trkpt lat="48.03739" lon="6.8682">
        <ele>917</ele>
        <time>2022-06-26T07:47:06Z</time>
      </trkpt>
      <trkpt lat="48.03738" lon="6.86821">
        <ele>917</ele>
        <time>2022-06-26T07:47:07Z</time>
      </trkpt>
      <trkpt lat="48.03737" lon="6.86821">
        <ele>917.2</ele>
        <time>2022-06-26T07:47:08Z</time>
      </trkpt>
      <trkpt lat="48.03735" lon="6.86822">
        <ele>917.4</ele>
        <time>2022-06-26T07:47:09Z</time>
      </trkpt>
      <trkpt lat="48.03734" lon="6.86824">
        <ele>917.4</ele>
        <time>2022-06-26T07:47:10Z</time>
      </trkpt>
      <trkpt lat="48.03733" lon="6.86825">
        <ele>917.4</ele>
        <time>2022-06-26T07:47:11Z</time>
      </trkpt>
      <trkpt lat="48.03732" lon="6.86826">
        <ele>917.6</ele>
        <time>2022-06-26T07:47:12Z</time>
      </trkpt>
      <trkpt lat="48.0373" lon="6.86829">
        <ele>917.8</ele>
        <time>2022-06-26T07:47:13Z</time>
      </trkpt>
      <trkpt lat="48.03729" lon="6.86831">
        <ele>917.8</ele>
        <time>2022-06-26T07:47:14Z</time>
      </trkpt>
      <trkpt lat="48.03728" lon="6.86833">
        <ele>917.8</ele>
        <time>2022-06-26T07:47:15Z</time>
      </trkpt>
      <trkpt lat="48.03727" lon="6.86835">
        <ele>917.8</ele>
        <time>2022-06-26T07:47:16Z</time>
      </trkpt>
      <trkpt lat="48.03726" lon="6.86838">
        <ele>918</ele>
        <time>2022-06-26T07:47:17Z</time>
      </trkpt>
      <trkpt lat="48.03725" lon="6.86841">
        <ele>918.2</ele>
        <time>2022-06-26T07:47:18Z</time>
      </trkpt>
      <trkpt lat="48.03723" lon="6.86844">
        <ele>918.4</ele>
        <time>2022-06-26T07:47:19Z</time>
      </trkpt>
      <trkpt lat="48.03722" lon="6.86847">
        <ele>918.4</ele>
        <time>2022-06-26T07:47:20Z</time>
      </trkpt>
      <trkpt lat="48.03721" lon="6.8685">
        <ele>918.4</ele>
        <time>2022-06-26T07:47:21Z</time>
      </trkpt>
      <trkpt lat="48.0372" lon="6.86852">
        <ele>918.6</ele>
        <time>2022-06-26T07:47:22Z</time>
      </trkpt>
      <trkpt lat="48.0372" lon="6.86854">
        <ele>918.6</ele>
        <time>2022-06-26T07:47:23Z</time>
      </trkpt>
      <trkpt lat="48.03719" lon="6.86857">
        <ele>918.8</ele>
        <time>2022-06-26T07:47:24Z</time>
      </trkpt>
      <trkpt lat="48.03717" lon="6.86859">
        <ele>919</ele>
        <time>2022-06-26T07:47:25Z</time>
      </trkpt>
      <trkpt lat="48.03716" lon="6.86862">
        <ele>919.2</ele>
        <time>2022-06-26T07:47:26Z</time>
      </trkpt>
      <trkpt lat="48.03716" lon="6.86864">
        <ele>919.4</ele>
        <time>2022-06-26T07:47:27Z</time>
      </trkpt>
      <trkpt lat="48.03715" lon="6.86866">
        <ele>919.6</ele>
        <time>2022-06-26T07:47:28Z</time>
      </trkpt>
      <trkpt lat="48.03714" lon="6.86868">
        <ele>919.6</ele>
        <time>2022-06-26T07:47:29Z</time>
      </trkpt>
      <trkpt lat="48.03715" lon="6.86871">
        <ele>919.8</ele>
        <time>2022-06-26T07:47:30Z</time>
      </trkpt>
      <trkpt lat="48.03713" lon="6.86875">
        <ele>920</ele>
        <time>2022-06-26T07:47:31Z</time>
      </trkpt>
      <trkpt lat="48.03711" lon="6.86879">
        <ele>920.2</ele>
        <time>2022-06-26T07:47:32Z</time>
      </trkpt>
      <trkpt lat="48.0371" lon="6.86882">
        <ele>920.2</ele>
        <time>2022-06-26T07:47:33Z</time>
      </trkpt>
      <trkpt lat="48.03708" lon="6.86885">
        <ele>920.2</ele>
        <time>2022-06-26T07:47:34Z</time>
      </trkpt>
      <trkpt lat="48.03707" lon="6.86887">
        <ele>920.4</ele>
        <time>2022-06-26T07:47:35Z</time>
      </trkpt>
      <trkpt lat="48.03705" lon="6.86889">
        <ele>920.4</ele>
        <time>2022-06-26T07:47:36Z</time>
      </trkpt>
      <trkpt lat="48.03705" lon="6.8689">
        <ele>920.4</ele>
        <time>2022-06-26T07:47:37Z</time>
      </trkpt>
      <trkpt lat="48.03704" lon="6.86893">
        <ele>920.6</ele>
        <time>2022-06-26T07:47:38Z</time>
      </trkpt>
      <trkpt lat="48.03703" lon="6.86894">
        <ele>920.6</ele>
        <time>2022-06-26T07:47:39Z</time>
      </trkpt>
      <trkpt lat="48.03701" lon="6.86896">
        <ele>920.8</ele>
        <time>2022-06-26T07:47:40Z</time>
      </trkpt>
      <trkpt lat="48.037" lon="6.86898">
        <ele>920.8</ele>
        <time>2022-06-26T07:47:41Z</time>
      </trkpt>
      <trkpt lat="48.03699" lon="6.86899">
        <ele>921</ele>
        <time>2022-06-26T07:47:42Z</time>
      </trkpt>
      <trkpt lat="48.03698" lon="6.869">
        <ele>921</ele>
        <time>2022-06-26T07:47:43Z</time>
      </trkpt>
      <trkpt lat="48.03696" lon="6.86901">
        <ele>921</ele>
        <time>2022-06-26T07:47:44Z</time>
      </trkpt>
      <trkpt lat="48.03694" lon="6.86902">
        <ele>921</ele>
        <time>2022-06-26T07:47:45Z</time>
      </trkpt>
      <trkpt lat="48.03692" lon="6.86903">
        <ele>921.2</ele>
        <time>2022-06-26T07:47:46Z</time>
      </trkpt>
      <trkpt lat="48.03691" lon="6.86904">
        <ele>921.2</ele>
        <time>2022-06-26T07:47:47Z</time>
      </trkpt>
      <trkpt lat="48.03689" lon="6.86905">
        <ele>921.4</ele>
        <time>2022-06-26T07:47:48Z</time>
      </trkpt>
      <trkpt lat="48.03688" lon="6.86906">
        <ele>921.4</ele>
        <time>2022-06-26T07:47:49Z</time>
      </trkpt>
      <trkpt lat="48.03686" lon="6.86907">
        <ele>921.6</ele>
        <time>2022-06-26T07:47:50Z</time>
      </trkpt>
      <trkpt lat="48.03685" lon="6.86907">
        <ele>921.8</ele>
        <time>2022-06-26T07:47:51Z</time>
      </trkpt>
      <trkpt lat="48.03683" lon="6.86908">
        <ele>921.8</ele>
        <time>2022-06-26T07:47:52Z</time>
      </trkpt>
      <trkpt lat="48.03681" lon="6.86908">
        <ele>922.2</ele>
        <time>2022-06-26T07:47:53Z</time>
      </trkpt>
      <trkpt lat="48.0368" lon="6.86909">
        <ele>922.4</ele>
        <time>2022-06-26T07:47:54Z</time>
      </trkpt>
      <trkpt lat="48.03678" lon="6.8691">
        <ele>922.6</ele>
        <time>2022-06-26T07:47:55Z</time>
      </trkpt>
      <trkpt lat="48.03677" lon="6.86911">
        <ele>922.8</ele>
        <time>2022-06-26T07:47:56Z</time>
      </trkpt>
      <trkpt lat="48.03676" lon="6.86912">
        <ele>922.8</ele>
        <time>2022-06-26T07:47:57Z</time>
      </trkpt>
      <trkpt lat="48.03674" lon="6.86914">
        <ele>923</ele>
        <time>2022-06-26T07:47:58Z</time>
      </trkpt>
      <trkpt lat="48.03673" lon="6.86915">
        <ele>923</ele>
        <time>2022-06-26T07:47:59Z</time>
      </trkpt>
      <trkpt lat="48.03671" lon="6.86917">
        <ele>923.4</ele>
        <time>2022-06-26T07:48:00Z</time>
      </trkpt>
      <trkpt lat="48.03669" lon="6.86919">
        <ele>923.4</ele>
        <time>2022-06-26T07:48:01Z</time>
      </trkpt>
      <trkpt lat="48.03668" lon="6.8692">
        <ele>923.6</ele>
        <time>2022-06-26T07:48:02Z</time>
      </trkpt>
      <trkpt lat="48.03666" lon="6.86921">
        <ele>923.6</ele>
        <time>2022-06-26T07:48:03Z</time>
      </trkpt>
      <trkpt lat="48.03664" lon="6.86922">
        <ele>923.8</ele>
        <time>2022-06-26T07:48:04Z</time>
      </trkpt>
      <trkpt lat="48.03663" lon="6.86923">
        <ele>923.8</ele>
        <time>2022-06-26T07:48:05Z</time>
      </trkpt>
      <trkpt lat="48.03661" lon="6.86924">
        <ele>923.8</ele>
        <time>2022-06-26T07:48:06Z</time>
      </trkpt>
      <trkpt lat="48.0366" lon="6.86925">
        <ele>924</ele>
        <time>2022-06-26T07:48:07Z</time>
      </trkpt>
      <trkpt lat="48.03659" lon="6.86926">
        <ele>924</ele>
        <time>2022-06-26T07:48:08Z</time>
      </trkpt>
      <trkpt lat="48.03658" lon="6.86926">
        <ele>924</ele>
        <time>2022-06-26T07:48:09Z</time>
      </trkpt>
      <trkpt lat="48.03658" lon="6.86927">
        <ele>924.2</ele>
        <time>2022-06-26T07:48:10Z</time>
      </trkpt>
      <trkpt lat="48.03657" lon="6.86928">
        <ele>924.4</ele>
        <time>2022-06-26T07:48:11Z</time>
      </trkpt>
      <trkpt lat="48.03656" lon="6.8693">
        <ele>924.6</ele>
        <time>2022-06-26T07:48:12Z</time>
      </trkpt>
      <trkpt lat="48.03654" lon="6.86931">
        <ele>924.6</ele>
        <time>2022-06-26T07:48:13Z</time>
      </trkpt>
      <trkpt lat="48.03653" lon="6.86932">
        <ele>924.8</ele>
        <time>2022-06-26T07:48:14Z</time>
      </trkpt>
      <trkpt lat="48.03652" lon="6.86934">
        <ele>925</ele>
        <time>2022-06-26T07:48:15Z</time>
      </trkpt>
      <trkpt lat="48.03651" lon="6.86935">
        <ele>925.2</ele>
        <time>2022-06-26T07:48:16Z</time>
      </trkpt>
      <trkpt lat="48.0365" lon="6.86937">
        <ele>925.4</ele>
        <time>2022-06-26T07:48:17Z</time>
      </trkpt>
      <trkpt lat="48.03649" lon="6.86939">
        <ele>925.6</ele>
        <time>2022-06-26T07:48:18Z</time>
      </trkpt>
      <trkpt lat="48.03648" lon="6.8694">
        <ele>925.6</ele>
        <time>2022-06-26T07:48:19Z</time>
      </trkpt>
      <trkpt lat="48.03647" lon="6.86942">
        <ele>925.8</ele>
        <time>2022-06-26T07:48:20Z</time>
      </trkpt>
      <trkpt lat="48.03646" lon="6.86944">
        <ele>926</ele>
        <time>2022-06-26T07:48:21Z</time>
      </trkpt>
      <trkpt lat="48.03644" lon="6.86946">
        <ele>926.2</ele>
        <time>2022-06-26T07:48:22Z</time>
      </trkpt>
      <trkpt lat="48.03644" lon="6.86948">
        <ele>926.4</ele>
        <time>2022-06-26T07:48:23Z</time>
      </trkpt>
      <trkpt lat="48.03643" lon="6.8695">
        <ele>926.4</ele>
        <time>2022-06-26T07:48:24Z</time>
      </trkpt>
      <trkpt lat="48.03642" lon="6.86952">
        <ele>926.6</ele>
        <time>2022-06-26T07:48:25Z</time>
      </trkpt>
      <trkpt lat="48.03641" lon="6.86955">
        <ele>926.6</ele>
        <time>2022-06-26T07:48:26Z</time>
      </trkpt>
      <trkpt lat="48.03641" lon="6.86958">
        <ele>926.8</ele>
        <time>2022-06-26T07:48:27Z</time>
      </trkpt>
      <trkpt lat="48.0364" lon="6.8696">
        <ele>926.8</ele>
        <time>2022-06-26T07:48:28Z</time>
      </trkpt>
      <trkpt lat="48.03639" lon="6.86963">
        <ele>927</ele>
        <time>2022-06-26T07:48:29Z</time>
      </trkpt>
      <trkpt lat="48.03639" lon="6.86964">
        <ele>927.2</ele>
        <time>2022-06-26T07:48:30Z</time>
      </trkpt>
      <trkpt lat="48.03638" lon="6.86967">
        <ele>927.4</ele>
        <time>2022-06-26T07:48:31Z</time>
      </trkpt>
      <trkpt lat="48.03637" lon="6.86969">
        <ele>927.4</ele>
        <time>2022-06-26T07:48:32Z</time>
      </trkpt>
      <trkpt lat="48.03637" lon="6.8697">
        <ele>927.4</ele>
        <time>2022-06-26T07:48:33Z</time>
      </trkpt>
      <trkpt lat="48.03637" lon="6.86972">
        <ele>927.6</ele>
        <time>2022-06-26T07:48:34Z</time>
      </trkpt>
      <trkpt lat="48.03636" lon="6.86972">
        <ele>927.4</ele>
        <time>2022-06-26T07:48:35Z</time>
      </trkpt>
      <trkpt lat="48.03636" lon="6.86973">
        <ele>927.6</ele>
        <time>2022-06-26T07:48:36Z</time>
      </trkpt>
      <trkpt lat="48.03637" lon="6.86973">
        <ele>927.6</ele>
        <time>2022-06-26T07:48:37Z</time>
      </trkpt>
      <trkpt lat="48.03637" lon="6.86975">
        <ele>927.8</ele>
        <time>2022-06-26T07:48:38Z</time>
      </trkpt>
      <trkpt lat="48.03637" lon="6.86977">
        <ele>927.8</ele>
        <time>2022-06-26T07:48:39Z</time>
      </trkpt>
      <trkpt lat="48.03637" lon="6.86979">
        <ele>928</ele>
        <time>2022-06-26T07:48:40Z</time>
      </trkpt>
      <trkpt lat="48.03637" lon="6.86981">
        <ele>928.2</ele>
        <time>2022-06-26T07:48:41Z</time>
      </trkpt>
      <trkpt lat="48.03637" lon="6.86984">
        <ele>928.2</ele>
        <time>2022-06-26T07:48:42Z</time>
      </trkpt>
      <trkpt lat="48.03637" lon="6.86986">
        <ele>928.4</ele>
        <time>2022-06-26T07:48:43Z</time>
      </trkpt>
      <trkpt lat="48.03637" lon="6.86988">
        <ele>928.4</ele>
        <time>2022-06-26T07:48:44Z</time>
      </trkpt>
      <trkpt lat="48.03637" lon="6.8699">
        <ele>928.4</ele>
        <time>2022-06-26T07:48:45Z</time>
      </trkpt>
      <trkpt lat="48.03638" lon="6.86992">
        <ele>928.6</ele>
        <time>2022-06-26T07:48:46Z</time>
      </trkpt>
      <trkpt lat="48.03638" lon="6.86994">
        <ele>928.8</ele>
        <time>2022-06-26T07:48:47Z</time>
      </trkpt>
      <trkpt lat="48.03638" lon="6.86997">
        <ele>928.8</ele>
        <time>2022-06-26T07:48:48Z</time>
      </trkpt>
      <trkpt lat="48.03638" lon="6.87">
        <ele>929</ele>
        <time>2022-06-26T07:48:49Z</time>
      </trkpt>
      <trkpt lat="48.03638" lon="6.87003">
        <ele>929</ele>
        <time>2022-06-26T07:48:50Z</time>
      </trkpt>
      <trkpt lat="48.03638" lon="6.87005">
        <ele>929.2</ele>
        <time>2022-06-26T07:48:51Z</time>
      </trkpt>
      <trkpt lat="48.03639" lon="6.87008">
        <ele>929.4</ele>
        <time>2022-06-26T07:48:52Z</time>
      </trkpt>
      <trkpt lat="48.0364" lon="6.87011">
        <ele>929.4</ele>
        <time>2022-06-26T07:48:53Z</time>
      </trkpt>
      <trkpt lat="48.0364" lon="6.87014">
        <ele>929.6</ele>
        <time>2022-06-26T07:48:54Z</time>
      </trkpt>
      <trkpt lat="48.0364" lon="6.87016">
        <ele>929.6</ele>
        <time>2022-06-26T07:48:55Z</time>
      </trkpt>
      <trkpt lat="48.0364" lon="6.8702">
        <ele>929.8</ele>
        <time>2022-06-26T07:48:56Z</time>
      </trkpt>
      <trkpt lat="48.0364" lon="6.87023">
        <ele>929.8</ele>
        <time>2022-06-26T07:48:57Z</time>
      </trkpt>
      <trkpt lat="48.0364" lon="6.87027">
        <ele>930</ele>
        <time>2022-06-26T07:48:58Z</time>
      </trkpt>
      <trkpt lat="48.0364" lon="6.87029">
        <ele>930</ele>
        <time>2022-06-26T07:48:59Z</time>
      </trkpt>
      <trkpt lat="48.03639" lon="6.87032">
        <ele>930</ele>
        <time>2022-06-26T07:49:00Z</time>
      </trkpt>
      <trkpt lat="48.03639" lon="6.87034">
        <ele>930.2</ele>
        <time>2022-06-26T07:49:01Z</time>
      </trkpt>
      <trkpt lat="48.03639" lon="6.87037">
        <ele>930.2</ele>
        <time>2022-06-26T07:49:02Z</time>
      </trkpt>
      <trkpt lat="48.03638" lon="6.87039">
        <ele>930.4</ele>
        <time>2022-06-26T07:49:03Z</time>
      </trkpt>
      <trkpt lat="48.03638" lon="6.87041">
        <ele>930.6</ele>
        <time>2022-06-26T07:49:04Z</time>
      </trkpt>
      <trkpt lat="48.03637" lon="6.87042">
        <ele>930.8</ele>
        <time>2022-06-26T07:49:05Z</time>
      </trkpt>
      <trkpt lat="48.03636" lon="6.87044">
        <ele>930.8</ele>
        <time>2022-06-26T07:49:06Z</time>
      </trkpt>
      <trkpt lat="48.03634" lon="6.87046">
        <ele>931</ele>
        <time>2022-06-26T07:49:07Z</time>
      </trkpt>
      <trkpt lat="48.03633" lon="6.87048">
        <ele>931</ele>
        <time>2022-06-26T07:49:08Z</time>
      </trkpt>
      <trkpt lat="48.0363" lon="6.8705">
        <ele>931</ele>
        <time>2022-06-26T07:49:09Z</time>
      </trkpt>
      <trkpt lat="48.03629" lon="6.87052">
        <ele>931.2</ele>
        <time>2022-06-26T07:49:10Z</time>
      </trkpt>
      <trkpt lat="48.03628" lon="6.87055">
        <ele>931.2</ele>
        <time>2022-06-26T07:49:11Z</time>
      </trkpt>
      <trkpt lat="48.03627" lon="6.87057">
        <ele>931.2</ele>
        <time>2022-06-26T07:49:12Z</time>
      </trkpt>
      <trkpt lat="48.03627" lon="6.87059">
        <ele>931.2</ele>
        <time>2022-06-26T07:49:13Z</time>
      </trkpt>
      <trkpt lat="48.03626" lon="6.87061">
        <ele>931.4</ele>
        <time>2022-06-26T07:49:14Z</time>
      </trkpt>
      <trkpt lat="48.03625" lon="6.87063">
        <ele>931.4</ele>
        <time>2022-06-26T07:49:15Z</time>
      </trkpt>
      <trkpt lat="48.03625" lon="6.87064">
        <ele>931.6</ele>
        <time>2022-06-26T07:49:16Z</time>
      </trkpt>
      <trkpt lat="48.03625" lon="6.87066">
        <ele>931.8</ele>
        <time>2022-06-26T07:49:17Z</time>
      </trkpt>
      <trkpt lat="48.03624" lon="6.87069">
        <ele>932</ele>
        <time>2022-06-26T07:49:18Z</time>
      </trkpt>
      <trkpt lat="48.03624" lon="6.87071">
        <ele>932.2</ele>
        <time>2022-06-26T07:49:19Z</time>
      </trkpt>
      <trkpt lat="48.03625" lon="6.87072">
        <ele>932.4</ele>
        <time>2022-06-26T07:49:20Z</time>
      </trkpt>
      <trkpt lat="48.03625" lon="6.87074">
        <ele>932.6</ele>
        <time>2022-06-26T07:49:21Z</time>
      </trkpt>
      <trkpt lat="48.03623" lon="6.87076">
        <ele>932.6</ele>
        <time>2022-06-26T07:49:22Z</time>
      </trkpt>
      <trkpt lat="48.03623" lon="6.87077">
        <ele>932.8</ele>
        <time>2022-06-26T07:49:23Z</time>
      </trkpt>
      <trkpt lat="48.03622" lon="6.87079">
        <ele>932.8</ele>
        <time>2022-06-26T07:49:24Z</time>
      </trkpt>
      <trkpt lat="48.03623" lon="6.87081">
        <ele>933</ele>
        <time>2022-06-26T07:49:25Z</time>
      </trkpt>
      <trkpt lat="48.03623" lon="6.87082">
        <ele>933</ele>
        <time>2022-06-26T07:49:26Z</time>
      </trkpt>
      <trkpt lat="48.03622" lon="6.87085">
        <ele>933.2</ele>
        <time>2022-06-26T07:49:27Z</time>
      </trkpt>
      <trkpt lat="48.03622" lon="6.87085">
        <ele>933.2</ele>
        <time>2022-06-26T07:49:28Z</time>
      </trkpt>
      <trkpt lat="48.03623" lon="6.87087">
        <ele>933.4</ele>
        <time>2022-06-26T07:49:29Z</time>
      </trkpt>
      <trkpt lat="48.03623" lon="6.8709">
        <ele>933.4</ele>
        <time>2022-06-26T07:49:30Z</time>
      </trkpt>
      <trkpt lat="48.03624" lon="6.87093">
        <ele>933.6</ele>
        <time>2022-06-26T07:49:31Z</time>
      </trkpt>
      <trkpt lat="48.03624" lon="6.87095">
        <ele>933.6</ele>
        <time>2022-06-26T07:49:32Z</time>
      </trkpt>
      <trkpt lat="48.03625" lon="6.87097">
        <ele>933.6</ele>
        <time>2022-06-26T07:49:33Z</time>
      </trkpt>
      <trkpt lat="48.03626" lon="6.871">
        <ele>934</ele>
        <time>2022-06-26T07:49:34Z</time>
      </trkpt>
      <trkpt lat="48.03626" lon="6.87102">
        <ele>934.2</ele>
        <time>2022-06-26T07:49:35Z</time>
      </trkpt>
      <trkpt lat="48.03626" lon="6.87104">
        <ele>934.2</ele>
        <time>2022-06-26T07:49:36Z</time>
      </trkpt>
      <trkpt lat="48.03626" lon="6.87105">
        <ele>934.6</ele>
        <time>2022-06-26T07:49:37Z</time>
      </trkpt>
      <trkpt lat="48.03626" lon="6.87106">
        <ele>934.8</ele>
        <time>2022-06-26T07:49:38Z</time>
      </trkpt>
      <trkpt lat="48.03627" lon="6.87108">
        <ele>935</ele>
        <time>2022-06-26T07:49:39Z</time>
      </trkpt>
      <trkpt lat="48.03627" lon="6.8711">
        <ele>934.8</ele>
        <time>2022-06-26T07:49:40Z</time>
      </trkpt>
      <trkpt lat="48.03628" lon="6.87112">
        <ele>935</ele>
        <time>2022-06-26T07:49:41Z</time>
      </trkpt>
      <trkpt lat="48.03628" lon="6.87113">
        <ele>935</ele>
        <time>2022-06-26T07:49:42Z</time>
      </trkpt>
      <trkpt lat="48.03628" lon="6.87114">
        <ele>935.2</ele>
        <time>2022-06-26T07:49:43Z</time>
      </trkpt>
      <trkpt lat="48.03628" lon="6.87115">
        <ele>935.6</ele>
        <time>2022-06-26T07:49:44Z</time>
      </trkpt>
      <trkpt lat="48.03628" lon="6.87117">
        <ele>935.4</ele>
        <time>2022-06-26T07:49:45Z</time>
      </trkpt>
      <trkpt lat="48.03629" lon="6.87119">
        <ele>935.6</ele>
        <time>2022-06-26T07:49:46Z</time>
      </trkpt>
      <trkpt lat="48.03629" lon="6.87121">
        <ele>935.6</ele>
        <time>2022-06-26T07:49:47Z</time>
      </trkpt>
      <trkpt lat="48.03628" lon="6.87122">
        <ele>935.8</ele>
        <time>2022-06-26T07:49:48Z</time>
      </trkpt>
      <trkpt lat="48.03627" lon="6.87125">
        <ele>936</ele>
        <time>2022-06-26T07:49:49Z</time>
      </trkpt>
      <trkpt lat="48.03627" lon="6.87128">
        <ele>936.2</ele>
        <time>2022-06-26T07:49:50Z</time>
      </trkpt>
      <trkpt lat="48.03627" lon="6.8713">
        <ele>936.4</ele>
        <time>2022-06-26T07:49:51Z</time>
      </trkpt>
      <trkpt lat="48.03626" lon="6.87132">
        <ele>936.6</ele>
        <time>2022-06-26T07:49:52Z</time>
      </trkpt>
      <trkpt lat="48.03626" lon="6.87134">
        <ele>936.6</ele>
        <time>2022-06-26T07:49:53Z</time>
      </trkpt>
      <trkpt lat="48.03626" lon="6.87136">
        <ele>936.8</ele>
        <time>2022-06-26T07:49:54Z</time>
      </trkpt>
      <trkpt lat="48.03625" lon="6.87138">
        <ele>936.8</ele>
        <time>2022-06-26T07:49:55Z</time>
      </trkpt>
      <trkpt lat="48.03626" lon="6.87141">
        <ele>937</ele>
        <time>2022-06-26T07:49:56Z</time>
      </trkpt>
      <trkpt lat="48.03626" lon="6.87141">
        <ele>937.4</ele>
        <time>2022-06-26T07:49:57Z</time>
      </trkpt>
      <trkpt lat="48.03626" lon="6.87142">
        <ele>937.4</ele>
        <time>2022-06-26T07:49:58Z</time>
      </trkpt>
      <trkpt lat="48.03627" lon="6.87144">
        <ele>937.6</ele>
        <time>2022-06-26T07:49:59Z</time>
      </trkpt>
      <trkpt lat="48.03627" lon="6.87145">
        <ele>937.6</ele>
        <time>2022-06-26T07:50:00Z</time>
      </trkpt>
      <trkpt lat="48.03627" lon="6.87145">
        <ele>937.8</ele>
        <time>2022-06-26T07:50:01Z</time>
      </trkpt>
      <trkpt lat="48.03628" lon="6.87148">
        <ele>937.8</ele>
        <time>2022-06-26T07:50:02Z</time>
      </trkpt>
      <trkpt lat="48.03628" lon="6.87152">
        <ele>937.8</ele>
        <time>2022-06-26T07:50:03Z</time>
      </trkpt>
      <trkpt lat="48.03629" lon="6.87155">
        <ele>938</ele>
        <time>2022-06-26T07:50:04Z</time>
      </trkpt>
      <trkpt lat="48.0363" lon="6.87162">
        <ele>938</ele>
        <time>2022-06-26T07:50:05Z</time>
      </trkpt>
      <trkpt lat="48.0363" lon="6.87164">
        <ele>938</ele>
        <time>2022-06-26T07:50:06Z</time>
      </trkpt>
      <trkpt lat="48.0363" lon="6.87167">
        <ele>938.2</ele>
        <time>2022-06-26T07:50:07Z</time>
      </trkpt>
      <trkpt lat="48.03631" lon="6.8717">
        <ele>938.4</ele>
        <time>2022-06-26T07:50:08Z</time>
      </trkpt>
      <trkpt lat="48.03631" lon="6.87172">
        <ele>938.2</ele>
        <time>2022-06-26T07:50:09Z</time>
      </trkpt>
      <trkpt lat="48.03632" lon="6.87175">
        <ele>938.4</ele>
        <time>2022-06-26T07:50:10Z</time>
      </trkpt>
      <trkpt lat="48.03633" lon="6.87178">
        <ele>938.4</ele>
        <time>2022-06-26T07:50:11Z</time>
      </trkpt>
      <trkpt lat="48.03633" lon="6.87182">
        <ele>938.6</ele>
        <time>2022-06-26T07:50:12Z</time>
      </trkpt>
      <trkpt lat="48.03634" lon="6.87184">
        <ele>938.6</ele>
        <time>2022-06-26T07:50:13Z</time>
      </trkpt>
      <trkpt lat="48.03635" lon="6.87186">
        <ele>938.6</ele>
        <time>2022-06-26T07:50:14Z</time>
      </trkpt>
      <trkpt lat="48.03636" lon="6.87188">
        <ele>938.8</ele>
        <time>2022-06-26T07:50:15Z</time>
      </trkpt>
      <trkpt lat="48.03636" lon="6.87191">
        <ele>938.8</ele>
        <time>2022-06-26T07:50:16Z</time>
      </trkpt>
      <trkpt lat="48.03637" lon="6.87194">
        <ele>939.2</ele>
        <time>2022-06-26T07:50:17Z</time>
      </trkpt>
      <trkpt lat="48.03638" lon="6.87197">
        <ele>939.2</ele>
        <time>2022-06-26T07:50:18Z</time>
      </trkpt>
      <trkpt lat="48.0364" lon="6.872">
        <ele>939.4</ele>
        <time>2022-06-26T07:50:19Z</time>
      </trkpt>
      <trkpt lat="48.03641" lon="6.87202">
        <ele>939.6</ele>
        <time>2022-06-26T07:50:20Z</time>
      </trkpt>
      <trkpt lat="48.03641" lon="6.87204">
        <ele>939.6</ele>
        <time>2022-06-26T07:50:21Z</time>
      </trkpt>
      <trkpt lat="48.03642" lon="6.87206">
        <ele>939.8</ele>
        <time>2022-06-26T07:50:22Z</time>
      </trkpt>
      <trkpt lat="48.03643" lon="6.87209">
        <ele>940</ele>
        <time>2022-06-26T07:50:23Z</time>
      </trkpt>
      <trkpt lat="48.03645" lon="6.87211">
        <ele>940.2</ele>
        <time>2022-06-26T07:50:24Z</time>
      </trkpt>
      <trkpt lat="48.03645" lon="6.87213">
        <ele>940.4</ele>
        <time>2022-06-26T07:50:25Z</time>
      </trkpt>
      <trkpt lat="48.03646" lon="6.87214">
        <ele>940.6</ele>
        <time>2022-06-26T07:50:26Z</time>
      </trkpt>
      <trkpt lat="48.03646" lon="6.87216">
        <ele>940.6</ele>
        <time>2022-06-26T07:50:27Z</time>
      </trkpt>
      <trkpt lat="48.03646" lon="6.87218">
        <ele>940.8</ele>
        <time>2022-06-26T07:50:28Z</time>
      </trkpt>
      <trkpt lat="48.03648" lon="6.87222">
        <ele>941</ele>
        <time>2022-06-26T07:50:29Z</time>
      </trkpt>
      <trkpt lat="48.03649" lon="6.87226">
        <ele>941</ele>
        <time>2022-06-26T07:50:30Z</time>
      </trkpt>
      <trkpt lat="48.03648" lon="6.8723">
        <ele>941.2</ele>
        <time>2022-06-26T07:50:31Z</time>
      </trkpt>
      <trkpt lat="48.0365" lon="6.87237">
        <ele>941.2</ele>
        <time>2022-06-26T07:50:32Z</time>
      </trkpt>
      <trkpt lat="48.0365" lon="6.8724">
        <ele>941.4</ele>
        <time>2022-06-26T07:50:33Z</time>
      </trkpt>
      <trkpt lat="48.03652" lon="6.87243">
        <ele>941.6</ele>
        <time>2022-06-26T07:50:34Z</time>
      </trkpt>
      <trkpt lat="48.03653" lon="6.87246">
        <ele>941.8</ele>
        <time>2022-06-26T07:50:35Z</time>
      </trkpt>
      <trkpt lat="48.03655" lon="6.87249">
        <ele>941.8</ele>
        <time>2022-06-26T07:50:36Z</time>
      </trkpt>
      <trkpt lat="48.03657" lon="6.87251">
        <ele>942</ele>
        <time>2022-06-26T07:50:37Z</time>
      </trkpt>
      <trkpt lat="48.03657" lon="6.87251">
        <ele>942.2</ele>
        <time>2022-06-26T07:50:38Z</time>
      </trkpt>
      <trkpt lat="48.03656" lon="6.87252">
        <ele>942.4</ele>
        <time>2022-06-26T07:50:39Z</time>
      </trkpt>
      <trkpt lat="48.03657" lon="6.87254">
        <ele>942.6</ele>
        <time>2022-06-26T07:50:40Z</time>
      </trkpt>
      <trkpt lat="48.03659" lon="6.87255">
        <ele>942.6</ele>
        <time>2022-06-26T07:50:41Z</time>
      </trkpt>
      <trkpt lat="48.03659" lon="6.87257">
        <ele>942.8</ele>
        <time>2022-06-26T07:50:42Z</time>
      </trkpt>
      <trkpt lat="48.0366" lon="6.87258">
        <ele>942.8</ele>
        <time>2022-06-26T07:50:43Z</time>
      </trkpt>
      <trkpt lat="48.03661" lon="6.8726">
        <ele>943</ele>
        <time>2022-06-26T07:50:44Z</time>
      </trkpt>
      <trkpt lat="48.03661" lon="6.87262">
        <ele>943.2</ele>
        <time>2022-06-26T07:50:45Z</time>
      </trkpt>
      <trkpt lat="48.03661" lon="6.87263">
        <ele>943.2</ele>
        <time>2022-06-26T07:50:46Z</time>
      </trkpt>
      <trkpt lat="48.03661" lon="6.87264">
        <ele>943.4</ele>
        <time>2022-06-26T07:50:47Z</time>
      </trkpt>
      <trkpt lat="48.0366" lon="6.87265">
        <ele>943.4</ele>
        <time>2022-06-26T07:50:48Z</time>
      </trkpt>
      <trkpt lat="48.0366" lon="6.87267">
        <ele>943.6</ele>
        <time>2022-06-26T07:50:49Z</time>
      </trkpt>
      <trkpt lat="48.03659" lon="6.87268">
        <ele>943.8</ele>
        <time>2022-06-26T07:50:50Z</time>
      </trkpt>
      <trkpt lat="48.03659" lon="6.87269">
        <ele>944</ele>
        <time>2022-06-26T07:50:51Z</time>
      </trkpt>
      <trkpt lat="48.03659" lon="6.87271">
        <ele>944</ele>
        <time>2022-06-26T07:50:52Z</time>
      </trkpt>
      <trkpt lat="48.0366" lon="6.87273">
        <ele>944.2</ele>
        <time>2022-06-26T07:50:53Z</time>
      </trkpt>
      <trkpt lat="48.03661" lon="6.87276">
        <ele>944.4</ele>
        <time>2022-06-26T07:50:54Z</time>
      </trkpt>
      <trkpt lat="48.03661" lon="6.87277">
        <ele>944.4</ele>
        <time>2022-06-26T07:50:55Z</time>
      </trkpt>
      <trkpt lat="48.03661" lon="6.87278">
        <ele>944.6</ele>
        <time>2022-06-26T07:50:56Z</time>
      </trkpt>
      <trkpt lat="48.0366" lon="6.87279">
        <ele>944.8</ele>
        <time>2022-06-26T07:50:57Z</time>
      </trkpt>
      <trkpt lat="48.03661" lon="6.87281">
        <ele>945</ele>
        <time>2022-06-26T07:50:58Z</time>
      </trkpt>
      <trkpt lat="48.0366" lon="6.87283">
        <ele>945</ele>
        <time>2022-06-26T07:50:59Z</time>
      </trkpt>
      <trkpt lat="48.03659" lon="6.87285">
        <ele>945.4</ele>
        <time>2022-06-26T07:51:00Z</time>
      </trkpt>
      <trkpt lat="48.03659" lon="6.87287">
        <ele>945.4</ele>
        <time>2022-06-26T07:51:01Z</time>
      </trkpt>
      <trkpt lat="48.03658" lon="6.87289">
        <ele>945.6</ele>
        <time>2022-06-26T07:51:02Z</time>
      </trkpt>
      <trkpt lat="48.03657" lon="6.87292">
        <ele>945.8</ele>
        <time>2022-06-26T07:51:03Z</time>
      </trkpt>
      <trkpt lat="48.03656" lon="6.87293">
        <ele>945.8</ele>
        <time>2022-06-26T07:51:04Z</time>
      </trkpt>
      <trkpt lat="48.03657" lon="6.87296">
        <ele>946</ele>
        <time>2022-06-26T07:51:05Z</time>
      </trkpt>
      <trkpt lat="48.03657" lon="6.87299">
        <ele>946</ele>
        <time>2022-06-26T07:51:06Z</time>
      </trkpt>
      <trkpt lat="48.03657" lon="6.87302">
        <ele>946.2</ele>
        <time>2022-06-26T07:51:07Z</time>
      </trkpt>
      <trkpt lat="48.03657" lon="6.87304">
        <ele>946.4</ele>
        <time>2022-06-26T07:51:08Z</time>
      </trkpt>
      <trkpt lat="48.03657" lon="6.87306">
        <ele>946.6</ele>
        <time>2022-06-26T07:51:09Z</time>
      </trkpt>
      <trkpt lat="48.03656" lon="6.87308">
        <ele>946.8</ele>
        <time>2022-06-26T07:51:10Z</time>
      </trkpt>
      <trkpt lat="48.03656" lon="6.8731">
        <ele>947</ele>
        <time>2022-06-26T07:51:11Z</time>
      </trkpt>
      <trkpt lat="48.03655" lon="6.87313">
        <ele>947.2</ele>
        <time>2022-06-26T07:51:12Z</time>
      </trkpt>
      <trkpt lat="48.03653" lon="6.87316">
        <ele>947.4</ele>
        <time>2022-06-26T07:51:13Z</time>
      </trkpt>
      <trkpt lat="48.03653" lon="6.87318">
        <ele>947.4</ele>
        <time>2022-06-26T07:51:14Z</time>
      </trkpt>
      <trkpt lat="48.03652" lon="6.8732">
        <ele>947.6</ele>
        <time>2022-06-26T07:51:15Z</time>
      </trkpt>
      <trkpt lat="48.03651" lon="6.87323">
        <ele>947.8</ele>
        <time>2022-06-26T07:51:16Z</time>
      </trkpt>
      <trkpt lat="48.03651" lon="6.87325">
        <ele>947.8</ele>
        <time>2022-06-26T07:51:17Z</time>
      </trkpt>
      <trkpt lat="48.03651" lon="6.87327">
        <ele>948.2</ele>
        <time>2022-06-26T07:51:18Z</time>
      </trkpt>
      <trkpt lat="48.03652" lon="6.87329">
        <ele>948.2</ele>
        <time>2022-06-26T07:51:19Z</time>
      </trkpt>
      <trkpt lat="48.03651" lon="6.87332">
        <ele>948.4</ele>
        <time>2022-06-26T07:51:20Z</time>
      </trkpt>
      <trkpt lat="48.03651" lon="6.87335">
        <ele>948.4</ele>
        <time>2022-06-26T07:51:21Z</time>
      </trkpt>
      <trkpt lat="48.0365" lon="6.87337">
        <ele>948.6</ele>
        <time>2022-06-26T07:51:22Z</time>
      </trkpt>
      <trkpt lat="48.0365" lon="6.87339">
        <ele>948.6</ele>
        <time>2022-06-26T07:51:23Z</time>
      </trkpt>
      <trkpt lat="48.03649" lon="6.87341">
        <ele>948.8</ele>
        <time>2022-06-26T07:51:24Z</time>
      </trkpt>
      <trkpt lat="48.03649" lon="6.87343">
        <ele>948.8</ele>
        <time>2022-06-26T07:51:25Z</time>
      </trkpt>
      <trkpt lat="48.03648" lon="6.87345">
        <ele>949</ele>
        <time>2022-06-26T07:51:26Z</time>
      </trkpt>
      <trkpt lat="48.03647" lon="6.87347">
        <ele>949</ele>
        <time>2022-06-26T07:51:27Z</time>
      </trkpt>
      <trkpt lat="48.03647" lon="6.87349">
        <ele>949.2</ele>
        <time>2022-06-26T07:51:28Z</time>
      </trkpt>
      <trkpt lat="48.03646" lon="6.87351">
        <ele>949.2</ele>
        <time>2022-06-26T07:51:29Z</time>
      </trkpt>
      <trkpt lat="48.03646" lon="6.87353">
        <ele>949.4</ele>
        <time>2022-06-26T07:51:30Z</time>
      </trkpt>
      <trkpt lat="48.03645" lon="6.87355">
        <ele>949.6</ele>
        <time>2022-06-26T07:51:31Z</time>
      </trkpt>
      <trkpt lat="48.03645" lon="6.87357">
        <ele>949.4</ele>
        <time>2022-06-26T07:51:32Z</time>
      </trkpt>
      <trkpt lat="48.03644" lon="6.87359">
        <ele>949.6</ele>
        <time>2022-06-26T07:51:33Z</time>
      </trkpt>
      <trkpt lat="48.03644" lon="6.87361">
        <ele>949.6</ele>
        <time>2022-06-26T07:51:34Z</time>
      </trkpt>
      <trkpt lat="48.03643" lon="6.87363">
        <ele>949.8</ele>
        <time>2022-06-26T07:51:35Z</time>
      </trkpt>
      <trkpt lat="48.03643" lon="6.87365">
        <ele>949.8</ele>
        <time>2022-06-26T07:51:36Z</time>
      </trkpt>
      <trkpt lat="48.03642" lon="6.87367">
        <ele>950</ele>
        <time>2022-06-26T07:51:37Z</time>
      </trkpt>
      <trkpt lat="48.03641" lon="6.87368">
        <ele>950.2</ele>
        <time>2022-06-26T07:51:38Z</time>
      </trkpt>
      <trkpt lat="48.0364" lon="6.8737">
        <ele>950.4</ele>
        <time>2022-06-26T07:51:39Z</time>
      </trkpt>
      <trkpt lat="48.03639" lon="6.87371">
        <ele>950.4</ele>
        <time>2022-06-26T07:51:40Z</time>
      </trkpt>
      <trkpt lat="48.03637" lon="6.87372">
        <ele>950.6</ele>
        <time>2022-06-26T07:51:41Z</time>
      </trkpt>
      <trkpt lat="48.03636" lon="6.87374">
        <ele>950.8</ele>
        <time>2022-06-26T07:51:42Z</time>
      </trkpt>
      <trkpt lat="48.03635" lon="6.87376">
        <ele>951.2</ele>
        <time>2022-06-26T07:51:43Z</time>
      </trkpt>
      <trkpt lat="48.03635" lon="6.87378">
        <ele>951.2</ele>
        <time>2022-06-26T07:51:44Z</time>
      </trkpt>
      <trkpt lat="48.03634" lon="6.8738">
        <ele>951.4</ele>
        <time>2022-06-26T07:51:45Z</time>
      </trkpt>
      <trkpt lat="48.03634" lon="6.87381">
        <ele>951.6</ele>
        <time>2022-06-26T07:51:46Z</time>
      </trkpt>
      <trkpt lat="48.03633" lon="6.87382">
        <ele>951.8</ele>
        <time>2022-06-26T07:51:47Z</time>
      </trkpt>
      <trkpt lat="48.03632" lon="6.87383">
        <ele>952</ele>
        <time>2022-06-26T07:51:48Z</time>
      </trkpt>
      <trkpt lat="48.03631" lon="6.87384">
        <ele>952</ele>
        <time>2022-06-26T07:51:49Z</time>
      </trkpt>
      <trkpt lat="48.0363" lon="6.87385">
        <ele>952.4</ele>
        <time>2022-06-26T07:51:50Z</time>
      </trkpt>
      <trkpt lat="48.03629" lon="6.87387">
        <ele>952.6</ele>
        <time>2022-06-26T07:51:51Z</time>
      </trkpt>
      <trkpt lat="48.03629" lon="6.87388">
        <ele>952.8</ele>
        <time>2022-06-26T07:51:52Z</time>
      </trkpt>
      <trkpt lat="48.03628" lon="6.87389">
        <ele>953</ele>
        <time>2022-06-26T07:51:53Z</time>
      </trkpt>
      <trkpt lat="48.03626" lon="6.8739">
        <ele>953.4</ele>
        <time>2022-06-26T07:51:54Z</time>
      </trkpt>
      <trkpt lat="48.03625" lon="6.8739">
        <ele>953.6</ele>
        <time>2022-06-26T07:51:55Z</time>
      </trkpt>
      <trkpt lat="48.03624" lon="6.87391">
        <ele>954</ele>
        <time>2022-06-26T07:51:56Z</time>
      </trkpt>
      <trkpt lat="48.03623" lon="6.87392">
        <ele>954.2</ele>
        <time>2022-06-26T07:51:57Z</time>
      </trkpt>
      <trkpt lat="48.03622" lon="6.87393">
        <ele>954.2</ele>
        <time>2022-06-26T07:51:58Z</time>
      </trkpt>
      <trkpt lat="48.03621" lon="6.87394">
        <ele>954.4</ele>
        <time>2022-06-26T07:51:59Z</time>
      </trkpt>
      <trkpt lat="48.0362" lon="6.87395">
        <ele>954.4</ele>
        <time>2022-06-26T07:52:00Z</time>
      </trkpt>
      <trkpt lat="48.03619" lon="6.87396">
        <ele>954.6</ele>
        <time>2022-06-26T07:52:01Z</time>
      </trkpt>
      <trkpt lat="48.03617" lon="6.87396">
        <ele>954.6</ele>
        <time>2022-06-26T07:52:02Z</time>
      </trkpt>
      <trkpt lat="48.03616" lon="6.87397">
        <ele>954.8</ele>
        <time>2022-06-26T07:52:03Z</time>
      </trkpt>
      <trkpt lat="48.03615" lon="6.87397">
        <ele>954.8</ele>
        <time>2022-06-26T07:52:04Z</time>
      </trkpt>
      <trkpt lat="48.03614" lon="6.87398">
        <ele>955</ele>
        <time>2022-06-26T07:52:05Z</time>
      </trkpt>
      <trkpt lat="48.03613" lon="6.87399">
        <ele>955.2</ele>
        <time>2022-06-26T07:52:06Z</time>
      </trkpt>
      <trkpt lat="48.03612" lon="6.87399">
        <ele>955.2</ele>
        <time>2022-06-26T07:52:07Z</time>
      </trkpt>
      <trkpt lat="48.03611" lon="6.87399">
        <ele>955.6</ele>
        <time>2022-06-26T07:52:08Z</time>
      </trkpt>
      <trkpt lat="48.0361" lon="6.874">
        <ele>955.6</ele>
        <time>2022-06-26T07:52:09Z</time>
      </trkpt>
      <trkpt lat="48.03609" lon="6.874">
        <ele>955.8</ele>
        <time>2022-06-26T07:52:10Z</time>
      </trkpt>
      <trkpt lat="48.03607" lon="6.87401">
        <ele>956</ele>
        <time>2022-06-26T07:52:11Z</time>
      </trkpt>
      <trkpt lat="48.03606" lon="6.87401">
        <ele>956.6</ele>
        <time>2022-06-26T07:52:12Z</time>
      </trkpt>
      <trkpt lat="48.03605" lon="6.87401">
        <ele>956.6</ele>
        <time>2022-06-26T07:52:13Z</time>
      </trkpt>
      <trkpt lat="48.03604" lon="6.87401">
        <ele>956.8</ele>
        <time>2022-06-26T07:52:14Z</time>
      </trkpt>
      <trkpt lat="48.03602" lon="6.87401">
        <ele>957</ele>
        <time>2022-06-26T07:52:15Z</time>
      </trkpt>
      <trkpt lat="48.03601" lon="6.87401">
        <ele>957.4</ele>
        <time>2022-06-26T07:52:16Z</time>
      </trkpt>
      <trkpt lat="48.036" lon="6.87402">
        <ele>957.4</ele>
        <time>2022-06-26T07:52:17Z</time>
      </trkpt>
      <trkpt lat="48.03598" lon="6.87401">
        <ele>957.4</ele>
        <time>2022-06-26T07:52:18Z</time>
      </trkpt>
      <trkpt lat="48.03597" lon="6.87401">
        <ele>957.6</ele>
        <time>2022-06-26T07:52:19Z</time>
      </trkpt>
      <trkpt lat="48.03596" lon="6.87401">
        <ele>957.6</ele>
        <time>2022-06-26T07:52:20Z</time>
      </trkpt>
      <trkpt lat="48.03595" lon="6.874">
        <ele>957.8</ele>
        <time>2022-06-26T07:52:21Z</time>
      </trkpt>
      <trkpt lat="48.03594" lon="6.874">
        <ele>958</ele>
        <time>2022-06-26T07:52:22Z</time>
      </trkpt>
      <trkpt lat="48.03593" lon="6.874">
        <ele>958.4</ele>
        <time>2022-06-26T07:52:23Z</time>
      </trkpt>
      <trkpt lat="48.03591" lon="6.874">
        <ele>958.6</ele>
        <time>2022-06-26T07:52:24Z</time>
      </trkpt>
      <trkpt lat="48.03591" lon="6.87399">
        <ele>958.8</ele>
        <time>2022-06-26T07:52:25Z</time>
      </trkpt>
      <trkpt lat="48.0359" lon="6.874">
        <ele>959</ele>
        <time>2022-06-26T07:52:26Z</time>
      </trkpt>
      <trkpt lat="48.03589" lon="6.87399">
        <ele>959</ele>
        <time>2022-06-26T07:52:27Z</time>
      </trkpt>
      <trkpt lat="48.03587" lon="6.87399">
        <ele>959.2</ele>
        <time>2022-06-26T07:52:28Z</time>
      </trkpt>
      <trkpt lat="48.03586" lon="6.87399">
        <ele>959.2</ele>
        <time>2022-06-26T07:52:29Z</time>
      </trkpt>
      <trkpt lat="48.03585" lon="6.874">
        <ele>959.4</ele>
        <time>2022-06-26T07:52:30Z</time>
      </trkpt>
      <trkpt lat="48.03584" lon="6.874">
        <ele>959.6</ele>
        <time>2022-06-26T07:52:31Z</time>
      </trkpt>
      <trkpt lat="48.03584" lon="6.87399">
        <ele>959.8</ele>
        <time>2022-06-26T07:52:32Z</time>
      </trkpt>
      <trkpt lat="48.03583" lon="6.87399">
        <ele>960</ele>
        <time>2022-06-26T07:52:33Z</time>
      </trkpt>
      <trkpt lat="48.03582" lon="6.87399">
        <ele>960.2</ele>
        <time>2022-06-26T07:52:34Z</time>
      </trkpt>
      <trkpt lat="48.03582" lon="6.87399">
        <ele>960.4</ele>
        <time>2022-06-26T07:52:35Z</time>
      </trkpt>
      <trkpt lat="48.03581" lon="6.87398">
        <ele>960.4</ele>
        <time>2022-06-26T07:52:36Z</time>
      </trkpt>
      <trkpt lat="48.0358" lon="6.87398">
        <ele>960.8</ele>
        <time>2022-06-26T07:52:37Z</time>
      </trkpt>
      <trkpt lat="48.03579" lon="6.87397">
        <ele>960.8</ele>
        <time>2022-06-26T07:52:38Z</time>
      </trkpt>
      <trkpt lat="48.03577" lon="6.87397">
        <ele>961</ele>
        <time>2022-06-26T07:52:39Z</time>
      </trkpt>
      <trkpt lat="48.03576" lon="6.87397">
        <ele>961.2</ele>
        <time>2022-06-26T07:52:40Z</time>
      </trkpt>
      <trkpt lat="48.03575" lon="6.87397">
        <ele>961.6</ele>
        <time>2022-06-26T07:52:41Z</time>
      </trkpt>
      <trkpt lat="48.03573" lon="6.87397">
        <ele>961.6</ele>
        <time>2022-06-26T07:52:42Z</time>
      </trkpt>
      <trkpt lat="48.03572" lon="6.87397">
        <ele>962</ele>
        <time>2022-06-26T07:52:43Z</time>
      </trkpt>
      <trkpt lat="48.0357" lon="6.87397">
        <ele>962.2</ele>
        <time>2022-06-26T07:52:44Z</time>
      </trkpt>
      <trkpt lat="48.03568" lon="6.87396">
        <ele>962.2</ele>
        <time>2022-06-26T07:52:45Z</time>
      </trkpt>
      <trkpt lat="48.03567" lon="6.87397">
        <ele>962.2</ele>
        <time>2022-06-26T07:52:46Z</time>
      </trkpt>
      <trkpt lat="48.03566" lon="6.87397">
        <ele>962.4</ele>
        <time>2022-06-26T07:52:47Z</time>
      </trkpt>
      <trkpt lat="48.03564" lon="6.87397">
        <ele>962.4</ele>
        <time>2022-06-26T07:52:48Z</time>
      </trkpt>
      <trkpt lat="48.03563" lon="6.87397">
        <ele>962.6</ele>
        <time>2022-06-26T07:52:49Z</time>
      </trkpt>
      <trkpt lat="48.03562" lon="6.87397">
        <ele>962.8</ele>
        <time>2022-06-26T07:52:50Z</time>
      </trkpt>
      <trkpt lat="48.0356" lon="6.87397">
        <ele>963</ele>
        <time>2022-06-26T07:52:51Z</time>
      </trkpt>
      <trkpt lat="48.03559" lon="6.87397">
        <ele>963.2</ele>
        <time>2022-06-26T07:52:52Z</time>
      </trkpt>
      <trkpt lat="48.03557" lon="6.87396">
        <ele>963.4</ele>
        <time>2022-06-26T07:52:53Z</time>
      </trkpt>
      <trkpt lat="48.03555" lon="6.87397">
        <ele>963.4</ele>
        <time>2022-06-26T07:52:54Z</time>
      </trkpt>
      <trkpt lat="48.03554" lon="6.87397">
        <ele>963.8</ele>
        <time>2022-06-26T07:52:55Z</time>
      </trkpt>
      <trkpt lat="48.03553" lon="6.87397">
        <ele>963.8</ele>
        <time>2022-06-26T07:52:56Z</time>
      </trkpt>
      <trkpt lat="48.03551" lon="6.87398">
        <ele>964</ele>
        <time>2022-06-26T07:52:57Z</time>
      </trkpt>
      <trkpt lat="48.0355" lon="6.87399">
        <ele>964</ele>
        <time>2022-06-26T07:52:58Z</time>
      </trkpt>
      <trkpt lat="48.03548" lon="6.87399">
        <ele>964.4</ele>
        <time>2022-06-26T07:52:59Z</time>
      </trkpt>
      <trkpt lat="48.03547" lon="6.874">
        <ele>964.4</ele>
        <time>2022-06-26T07:53:00Z</time>
      </trkpt>
      <trkpt lat="48.03545" lon="6.874">
        <ele>964.6</ele>
        <time>2022-06-26T07:53:01Z</time>
      </trkpt>
      <trkpt lat="48.03544" lon="6.874">
        <ele>964.6</ele>
        <time>2022-06-26T07:53:02Z</time>
      </trkpt>
      <trkpt lat="48.03543" lon="6.87401">
        <ele>964.8</ele>
        <time>2022-06-26T07:53:03Z</time>
      </trkpt>
      <trkpt lat="48.03542" lon="6.87401">
        <ele>965</ele>
        <time>2022-06-26T07:53:04Z</time>
      </trkpt>
      <trkpt lat="48.03541" lon="6.87402">
        <ele>965</ele>
        <time>2022-06-26T07:53:05Z</time>
      </trkpt>
      <trkpt lat="48.0354" lon="6.87402">
        <ele>965.2</ele>
        <time>2022-06-26T07:53:06Z</time>
      </trkpt>
      <trkpt lat="48.03538" lon="6.87402">
        <ele>965.2</ele>
        <time>2022-06-26T07:53:07Z</time>
      </trkpt>
      <trkpt lat="48.03537" lon="6.87403">
        <ele>965.4</ele>
        <time>2022-06-26T07:53:08Z</time>
      </trkpt>
      <trkpt lat="48.03536" lon="6.87404">
        <ele>965.4</ele>
        <time>2022-06-26T07:53:09Z</time>
      </trkpt>
      <trkpt lat="48.03536" lon="6.87405">
        <ele>965.8</ele>
        <time>2022-06-26T07:53:10Z</time>
      </trkpt>
      <trkpt lat="48.03535" lon="6.87406">
        <ele>965.8</ele>
        <time>2022-06-26T07:53:11Z</time>
      </trkpt>
      <trkpt lat="48.03534" lon="6.87406">
        <ele>966</ele>
        <time>2022-06-26T07:53:12Z</time>
      </trkpt>
      <trkpt lat="48.03533" lon="6.87407">
        <ele>966.2</ele>
        <time>2022-06-26T07:53:13Z</time>
      </trkpt>
      <trkpt lat="48.03532" lon="6.87407">
        <ele>966.2</ele>
        <time>2022-06-26T07:53:14Z</time>
      </trkpt>
      <trkpt lat="48.03532" lon="6.87407">
        <ele>966.4</ele>
        <time>2022-06-26T07:53:15Z</time>
      </trkpt>
      <trkpt lat="48.03531" lon="6.87407">
        <ele>967</ele>
        <time>2022-06-26T07:53:18Z</time>
      </trkpt>
      <trkpt lat="48.03531" lon="6.87408">
        <ele>967.2</ele>
        <time>2022-06-26T07:53:19Z</time>
      </trkpt>
      <trkpt lat="48.0353" lon="6.87408">
        <ele>967.4</ele>
        <time>2022-06-26T07:53:20Z</time>
      </trkpt>
      <trkpt lat="48.03529" lon="6.87408">
        <ele>967.6</ele>
        <time>2022-06-26T07:53:21Z</time>
      </trkpt>
      <trkpt lat="48.03528" lon="6.87408">
        <ele>967.6</ele>
        <time>2022-06-26T07:53:22Z</time>
      </trkpt>
      <trkpt lat="48.03528" lon="6.87408">
        <ele>967.8</ele>
        <time>2022-06-26T07:53:23Z</time>
      </trkpt>
      <trkpt lat="48.03526" lon="6.87408">
        <ele>968</ele>
        <time>2022-06-26T07:53:24Z</time>
      </trkpt>
      <trkpt lat="48.03525" lon="6.87409">
        <ele>968</ele>
        <time>2022-06-26T07:53:25Z</time>
      </trkpt>
      <trkpt lat="48.03524" lon="6.87409">
        <ele>968.4</ele>
        <time>2022-06-26T07:53:26Z</time>
      </trkpt>
      <trkpt lat="48.03523" lon="6.87408">
        <ele>968.6</ele>
        <time>2022-06-26T07:53:27Z</time>
      </trkpt>
      <trkpt lat="48.03523" lon="6.87409">
        <ele>968.8</ele>
        <time>2022-06-26T07:53:28Z</time>
      </trkpt>
      <trkpt lat="48.03523" lon="6.87408">
        <ele>969.2</ele>
        <time>2022-06-26T07:53:29Z</time>
      </trkpt>
      <trkpt lat="48.03521" lon="6.87408">
        <ele>969.2</ele>
        <time>2022-06-26T07:53:30Z</time>
      </trkpt>
      <trkpt lat="48.0352" lon="6.87408">
        <ele>969.6</ele>
        <time>2022-06-26T07:53:31Z</time>
      </trkpt>
      <trkpt lat="48.03519" lon="6.87409">
        <ele>969.6</ele>
        <time>2022-06-26T07:53:32Z</time>
      </trkpt>
      <trkpt lat="48.03518" lon="6.8741">
        <ele>969.8</ele>
        <time>2022-06-26T07:53:33Z</time>
      </trkpt>
      <trkpt lat="48.03517" lon="6.87411">
        <ele>969.8</ele>
        <time>2022-06-26T07:53:34Z</time>
      </trkpt>
      <trkpt lat="48.03516" lon="6.87413">
        <ele>970</ele>
        <time>2022-06-26T07:53:35Z</time>
      </trkpt>
      <trkpt lat="48.03514" lon="6.87416">
        <ele>970.2</ele>
        <time>2022-06-26T07:53:36Z</time>
      </trkpt>
      <trkpt lat="48.03513" lon="6.87418">
        <ele>970.2</ele>
        <time>2022-06-26T07:53:37Z</time>
      </trkpt>
      <trkpt lat="48.03512" lon="6.8742">
        <ele>970.4</ele>
        <time>2022-06-26T07:53:38Z</time>
      </trkpt>
      <trkpt lat="48.03511" lon="6.87422">
        <ele>970.4</ele>
        <time>2022-06-26T07:53:39Z</time>
      </trkpt>
      <trkpt lat="48.0351" lon="6.87424">
        <ele>970.6</ele>
        <time>2022-06-26T07:53:40Z</time>
      </trkpt>
      <trkpt lat="48.03509" lon="6.87425">
        <ele>970.6</ele>
        <time>2022-06-26T07:53:41Z</time>
      </trkpt>
      <trkpt lat="48.03508" lon="6.87426">
        <ele>970.6</ele>
        <time>2022-06-26T07:53:42Z</time>
      </trkpt>
      <trkpt lat="48.03507" lon="6.87427">
        <ele>970.8</ele>
        <time>2022-06-26T07:53:43Z</time>
      </trkpt>
      <trkpt lat="48.03506" lon="6.87429">
        <ele>970.8</ele>
        <time>2022-06-26T07:53:44Z</time>
      </trkpt>
      <trkpt lat="48.03505" lon="6.87431">
        <ele>971</ele>
        <time>2022-06-26T07:53:45Z</time>
      </trkpt>
      <trkpt lat="48.03504" lon="6.87434">
        <ele>971</ele>
        <time>2022-06-26T07:53:46Z</time>
      </trkpt>
      <trkpt lat="48.03504" lon="6.87437">
        <ele>971.2</ele>
        <time>2022-06-26T07:53:47Z</time>
      </trkpt>
      <trkpt lat="48.03503" lon="6.8744">
        <ele>971.2</ele>
        <time>2022-06-26T07:53:48Z</time>
      </trkpt>
      <trkpt lat="48.03502" lon="6.87442">
        <ele>971.4</ele>
        <time>2022-06-26T07:53:49Z</time>
      </trkpt>
      <trkpt lat="48.03502" lon="6.87444">
        <ele>971.4</ele>
        <time>2022-06-26T07:53:50Z</time>
      </trkpt>
      <trkpt lat="48.035" lon="6.87446">
        <ele>971.6</ele>
        <time>2022-06-26T07:53:51Z</time>
      </trkpt>
      <trkpt lat="48.035" lon="6.87449">
        <ele>971.6</ele>
        <time>2022-06-26T07:53:52Z</time>
      </trkpt>
      <trkpt lat="48.03499" lon="6.87452">
        <ele>971.6</ele>
        <time>2022-06-26T07:53:53Z</time>
      </trkpt>
      <trkpt lat="48.03498" lon="6.87454">
        <ele>971.8</ele>
        <time>2022-06-26T07:53:54Z</time>
      </trkpt>
      <trkpt lat="48.03497" lon="6.87457">
        <ele>971.8</ele>
        <time>2022-06-26T07:53:55Z</time>
      </trkpt>
      <trkpt lat="48.03496" lon="6.87459">
        <ele>971.8</ele>
        <time>2022-06-26T07:53:56Z</time>
      </trkpt>
      <trkpt lat="48.03495" lon="6.87462">
        <ele>972</ele>
        <time>2022-06-26T07:53:57Z</time>
      </trkpt>
      <trkpt lat="48.03494" lon="6.87464">
        <ele>972</ele>
        <time>2022-06-26T07:53:58Z</time>
      </trkpt>
      <trkpt lat="48.03494" lon="6.87467">
        <ele>972</ele>
        <time>2022-06-26T07:53:59Z</time>
      </trkpt>
      <trkpt lat="48.03493" lon="6.8747">
        <ele>972.2</ele>
        <time>2022-06-26T07:54:00Z</time>
      </trkpt>
      <trkpt lat="48.03491" lon="6.87472">
        <ele>972.2</ele>
        <time>2022-06-26T07:54:01Z</time>
      </trkpt>
      <trkpt lat="48.0349" lon="6.87475">
        <ele>972.2</ele>
        <time>2022-06-26T07:54:02Z</time>
      </trkpt>
      <trkpt lat="48.03488" lon="6.87477">
        <ele>972.2</ele>
        <time>2022-06-26T07:54:03Z</time>
      </trkpt>
      <trkpt lat="48.03485" lon="6.87482">
        <ele>972.4</ele>
        <time>2022-06-26T07:54:05Z</time>
      </trkpt>
      <trkpt lat="48.03476" lon="6.87493">
        <ele>972.8</ele>
        <time>2022-06-26T07:54:10Z</time>
      </trkpt>
      <trkpt lat="48.03463" lon="6.87505">
        <ele>973.4</ele>
        <time>2022-06-26T07:54:17Z</time>
      </trkpt>
      <trkpt lat="48.03461" lon="6.87506">
        <ele>973.6</ele>
        <time>2022-06-26T07:54:18Z</time>
      </trkpt>
      <trkpt lat="48.03454" lon="6.8751">
        <ele>974</ele>
        <time>2022-06-26T07:54:22Z</time>
      </trkpt>
      <trkpt lat="48.03446" lon="6.87516">
        <ele>974</ele>
        <time>2022-06-26T07:54:25Z</time>
      </trkpt>
      <trkpt lat="48.03426" lon="6.87528">
        <ele>974.4</ele>
        <time>2022-06-26T07:54:33Z</time>
      </trkpt>
      <trkpt lat="48.03412" lon="6.87538">
        <ele>974.6</ele>
        <time>2022-06-26T07:54:38Z</time>
      </trkpt>
      <trkpt lat="48.0341" lon="6.87539">
        <ele>974.6</ele>
        <time>2022-06-26T07:54:39Z</time>
      </trkpt>
      <trkpt lat="48.03405" lon="6.87542">
        <ele>974.6</ele>
        <time>2022-06-26T07:54:41Z</time>
      </trkpt>
      <trkpt lat="48.03403" lon="6.87543">
        <ele>974.6</ele>
        <time>2022-06-26T07:54:42Z</time>
      </trkpt>
      <trkpt lat="48.034" lon="6.87544">
        <ele>974.6</ele>
        <time>2022-06-26T07:54:43Z</time>
      </trkpt>
      <trkpt lat="48.03397" lon="6.87547">
        <ele>974.6</ele>
        <time>2022-06-26T07:54:44Z</time>
      </trkpt>
      <trkpt lat="48.03392" lon="6.8755">
        <ele>974.8</ele>
        <time>2022-06-26T07:54:46Z</time>
      </trkpt>
      <trkpt lat="48.03376" lon="6.87556">
        <ele>974.8</ele>
        <time>2022-06-26T07:54:51Z</time>
      </trkpt>
      <trkpt lat="48.03367" lon="6.87562">
        <ele>974.8</ele>
        <time>2022-06-26T07:54:54Z</time>
      </trkpt>
      <trkpt lat="48.03365" lon="6.87564">
        <ele>975</ele>
        <time>2022-06-26T07:54:55Z</time>
      </trkpt>
      <trkpt lat="48.03361" lon="6.87569">
        <ele>975.2</ele>
        <time>2022-06-26T07:54:57Z</time>
      </trkpt>
      <trkpt lat="48.0335" lon="6.87589">
        <ele>975.4</ele>
        <time>2022-06-26T07:55:04Z</time>
      </trkpt>
      <trkpt lat="48.03348" lon="6.87591">
        <ele>975.4</ele>
        <time>2022-06-26T07:55:05Z</time>
      </trkpt>
      <trkpt lat="48.03347" lon="6.87594">
        <ele>975.6</ele>
        <time>2022-06-26T07:55:06Z</time>
      </trkpt>
      <trkpt lat="48.03345" lon="6.87597">
        <ele>975.6</ele>
        <time>2022-06-26T07:55:07Z</time>
      </trkpt>
      <trkpt lat="48.03344" lon="6.87599">
        <ele>975.6</ele>
        <time>2022-06-26T07:55:08Z</time>
      </trkpt>
      <trkpt lat="48.03342" lon="6.87603">
        <ele>975.8</ele>
        <time>2022-06-26T07:55:09Z</time>
      </trkpt>
      <trkpt lat="48.0334" lon="6.87605">
        <ele>976.2</ele>
        <time>2022-06-26T07:55:10Z</time>
      </trkpt>
      <trkpt lat="48.03338" lon="6.87608">
        <ele>976.4</ele>
        <time>2022-06-26T07:55:11Z</time>
      </trkpt>
      <trkpt lat="48.03337" lon="6.87611">
        <ele>976.8</ele>
        <time>2022-06-26T07:55:12Z</time>
      </trkpt>
      <trkpt lat="48.03335" lon="6.87618">
        <ele>977.2</ele>
        <time>2022-06-26T07:55:14Z</time>
      </trkpt>
      <trkpt lat="48.03333" lon="6.87636">
        <ele>977.4</ele>
        <time>2022-06-26T07:55:19Z</time>
      </trkpt>
      <trkpt lat="48.03333" lon="6.8764">
        <ele>977.4</ele>
        <time>2022-06-26T07:55:20Z</time>
      </trkpt>
      <trkpt lat="48.03334" lon="6.87644">
        <ele>977.6</ele>
        <time>2022-06-26T07:55:21Z</time>
      </trkpt>
      <trkpt lat="48.03335" lon="6.87647">
        <ele>977.6</ele>
        <time>2022-06-26T07:55:22Z</time>
      </trkpt>
      <trkpt lat="48.03336" lon="6.87651">
        <ele>977.6</ele>
        <time>2022-06-26T07:55:23Z</time>
      </trkpt>
      <trkpt lat="48.03337" lon="6.87654">
        <ele>977.6</ele>
        <time>2022-06-26T07:55:24Z</time>
      </trkpt>
      <trkpt lat="48.03338" lon="6.87657">
        <ele>977.8</ele>
        <time>2022-06-26T07:55:25Z</time>
      </trkpt>
      <trkpt lat="48.03339" lon="6.8766">
        <ele>977.8</ele>
        <time>2022-06-26T07:55:26Z</time>
      </trkpt>
      <trkpt lat="48.0334" lon="6.87663">
        <ele>978</ele>
        <time>2022-06-26T07:55:27Z</time>
      </trkpt>
      <trkpt lat="48.03341" lon="6.87666">
        <ele>978</ele>
        <time>2022-06-26T07:55:28Z</time>
      </trkpt>
      <trkpt lat="48.03341" lon="6.87668">
        <ele>978.2</ele>
        <time>2022-06-26T07:55:29Z</time>
      </trkpt>
      <trkpt lat="48.03341" lon="6.87671">
        <ele>978.4</ele>
        <time>2022-06-26T07:55:30Z</time>
      </trkpt>
      <trkpt lat="48.03342" lon="6.87673">
        <ele>978.6</ele>
        <time>2022-06-26T07:55:31Z</time>
      </trkpt>
      <trkpt lat="48.03342" lon="6.87676">
        <ele>978.6</ele>
        <time>2022-06-26T07:55:32Z</time>
      </trkpt>
      <trkpt lat="48.03342" lon="6.87679">
        <ele>978.8</ele>
        <time>2022-06-26T07:55:33Z</time>
      </trkpt>
      <trkpt lat="48.03342" lon="6.87682">
        <ele>978.8</ele>
        <time>2022-06-26T07:55:34Z</time>
      </trkpt>
      <trkpt lat="48.03342" lon="6.87684">
        <ele>979.2</ele>
        <time>2022-06-26T07:55:35Z</time>
      </trkpt>
      <trkpt lat="48.03341" lon="6.87687">
        <ele>979.4</ele>
        <time>2022-06-26T07:55:36Z</time>
      </trkpt>
      <trkpt lat="48.03341" lon="6.8769">
        <ele>979.4</ele>
        <time>2022-06-26T07:55:37Z</time>
      </trkpt>
      <trkpt lat="48.03341" lon="6.87692">
        <ele>979.6</ele>
        <time>2022-06-26T07:55:38Z</time>
      </trkpt>
      <trkpt lat="48.0334" lon="6.87694">
        <ele>979.6</ele>
        <time>2022-06-26T07:55:39Z</time>
      </trkpt>
      <trkpt lat="48.03339" lon="6.87697">
        <ele>979.6</ele>
        <time>2022-06-26T07:55:40Z</time>
      </trkpt>
      <trkpt lat="48.03338" lon="6.87699">
        <ele>980</ele>
        <time>2022-06-26T07:55:41Z</time>
      </trkpt>
      <trkpt lat="48.03337" lon="6.87702">
        <ele>980</ele>
        <time>2022-06-26T07:55:42Z</time>
      </trkpt>
      <trkpt lat="48.03335" lon="6.87704">
        <ele>980.2</ele>
        <time>2022-06-26T07:55:43Z</time>
      </trkpt>
      <trkpt lat="48.03334" lon="6.87707">
        <ele>980.4</ele>
        <time>2022-06-26T07:55:44Z</time>
      </trkpt>
      <trkpt lat="48.03333" lon="6.8771">
        <ele>980.4</ele>
        <time>2022-06-26T07:55:45Z</time>
      </trkpt>
      <trkpt lat="48.03332" lon="6.87713">
        <ele>980.6</ele>
        <time>2022-06-26T07:55:46Z</time>
      </trkpt>
      <trkpt lat="48.03332" lon="6.87716">
        <ele>980.6</ele>
        <time>2022-06-26T07:55:47Z</time>
      </trkpt>
      <trkpt lat="48.03332" lon="6.87719">
        <ele>980.8</ele>
        <time>2022-06-26T07:55:48Z</time>
      </trkpt>
      <trkpt lat="48.03331" lon="6.87721">
        <ele>981</ele>
        <time>2022-06-26T07:55:49Z</time>
      </trkpt>
      <trkpt lat="48.0333" lon="6.87724">
        <ele>981</ele>
        <time>2022-06-26T07:55:50Z</time>
      </trkpt>
      <trkpt lat="48.03329" lon="6.87727">
        <ele>981.2</ele>
        <time>2022-06-26T07:55:51Z</time>
      </trkpt>
      <trkpt lat="48.03328" lon="6.8773">
        <ele>981.4</ele>
        <time>2022-06-26T07:55:52Z</time>
      </trkpt>
      <trkpt lat="48.03328" lon="6.87732">
        <ele>981.6</ele>
        <time>2022-06-26T07:55:53Z</time>
      </trkpt>
      <trkpt lat="48.03326" lon="6.87734">
        <ele>981.6</ele>
        <time>2022-06-26T07:55:54Z</time>
      </trkpt>
      <trkpt lat="48.03325" lon="6.87736">
        <ele>981.8</ele>
        <time>2022-06-26T07:55:55Z</time>
      </trkpt>
      <trkpt lat="48.03325" lon="6.87738">
        <ele>981.8</ele>
        <time>2022-06-26T07:55:56Z</time>
      </trkpt>
      <trkpt lat="48.03324" lon="6.87741">
        <ele>981.8</ele>
        <time>2022-06-26T07:55:57Z</time>
      </trkpt>
      <trkpt lat="48.03323" lon="6.87743">
        <ele>982</ele>
        <time>2022-06-26T07:55:58Z</time>
      </trkpt>
      <trkpt lat="48.03323" lon="6.87746">
        <ele>982.2</ele>
        <time>2022-06-26T07:55:59Z</time>
      </trkpt>
      <trkpt lat="48.03322" lon="6.87748">
        <ele>982.4</ele>
        <time>2022-06-26T07:56:00Z</time>
      </trkpt>
      <trkpt lat="48.03321" lon="6.87751">
        <ele>982.4</ele>
        <time>2022-06-26T07:56:01Z</time>
      </trkpt>
      <trkpt lat="48.03321" lon="6.87753">
        <ele>982.6</ele>
        <time>2022-06-26T07:56:02Z</time>
      </trkpt>
      <trkpt lat="48.0332" lon="6.87756">
        <ele>982.6</ele>
        <time>2022-06-26T07:56:03Z</time>
      </trkpt>
      <trkpt lat="48.03319" lon="6.87758">
        <ele>982.4</ele>
        <time>2022-06-26T07:56:04Z</time>
      </trkpt>
      <trkpt lat="48.03318" lon="6.87759">
        <ele>982.6</ele>
        <time>2022-06-26T07:56:05Z</time>
      </trkpt>
      <trkpt lat="48.03317" lon="6.87761">
        <ele>982.6</ele>
        <time>2022-06-26T07:56:06Z</time>
      </trkpt>
      <trkpt lat="48.03316" lon="6.87763">
        <ele>982.8</ele>
        <time>2022-06-26T07:56:07Z</time>
      </trkpt>
      <trkpt lat="48.03316" lon="6.87764">
        <ele>982.8</ele>
        <time>2022-06-26T07:56:08Z</time>
      </trkpt>
      <trkpt lat="48.03315" lon="6.87766">
        <ele>983</ele>
        <time>2022-06-26T07:56:09Z</time>
      </trkpt>
      <trkpt lat="48.03315" lon="6.87768">
        <ele>983.2</ele>
        <time>2022-06-26T07:56:10Z</time>
      </trkpt>
      <trkpt lat="48.03314" lon="6.87771">
        <ele>983.4</ele>
        <time>2022-06-26T07:56:11Z</time>
      </trkpt>
      <trkpt lat="48.03314" lon="6.87775">
        <ele>983.4</ele>
        <time>2022-06-26T07:56:12Z</time>
      </trkpt>
      <trkpt lat="48.03314" lon="6.87778">
        <ele>983.4</ele>
        <time>2022-06-26T07:56:13Z</time>
      </trkpt>
      <trkpt lat="48.03313" lon="6.87779">
        <ele>983.6</ele>
        <time>2022-06-26T07:56:14Z</time>
      </trkpt>
      <trkpt lat="48.03312" lon="6.87781">
        <ele>983.6</ele>
        <time>2022-06-26T07:56:15Z</time>
      </trkpt>
      <trkpt lat="48.03311" lon="6.87784">
        <ele>983.8</ele>
        <time>2022-06-26T07:56:16Z</time>
      </trkpt>
      <trkpt lat="48.0331" lon="6.87786">
        <ele>983.8</ele>
        <time>2022-06-26T07:56:17Z</time>
      </trkpt>
      <trkpt lat="48.03309" lon="6.87788">
        <ele>983.8</ele>
        <time>2022-06-26T07:56:18Z</time>
      </trkpt>
      <trkpt lat="48.03308" lon="6.8779">
        <ele>984</ele>
        <time>2022-06-26T07:56:19Z</time>
      </trkpt>
      <trkpt lat="48.03307" lon="6.87793">
        <ele>984.2</ele>
        <time>2022-06-26T07:56:20Z</time>
      </trkpt>
      <trkpt lat="48.03307" lon="6.87795">
        <ele>984.4</ele>
        <time>2022-06-26T07:56:21Z</time>
      </trkpt>
      <trkpt lat="48.03306" lon="6.87799">
        <ele>984.6</ele>
        <time>2022-06-26T07:56:22Z</time>
      </trkpt>
      <trkpt lat="48.03305" lon="6.87802">
        <ele>984.8</ele>
        <time>2022-06-26T07:56:23Z</time>
      </trkpt>
      <trkpt lat="48.03304" lon="6.87804">
        <ele>985</ele>
        <time>2022-06-26T07:56:24Z</time>
      </trkpt>
      <trkpt lat="48.03304" lon="6.87806">
        <ele>985.2</ele>
        <time>2022-06-26T07:56:25Z</time>
      </trkpt>
      <trkpt lat="48.03303" lon="6.87807">
        <ele>985.2</ele>
        <time>2022-06-26T07:56:26Z</time>
      </trkpt>
      <trkpt lat="48.03302" lon="6.8781">
        <ele>985.2</ele>
        <time>2022-06-26T07:56:27Z</time>
      </trkpt>
      <trkpt lat="48.03302" lon="6.87813">
        <ele>985.4</ele>
        <time>2022-06-26T07:56:28Z</time>
      </trkpt>
      <trkpt lat="48.03301" lon="6.87817">
        <ele>985.4</ele>
        <time>2022-06-26T07:56:29Z</time>
      </trkpt>
      <trkpt lat="48.033" lon="6.8782">
        <ele>985.6</ele>
        <time>2022-06-26T07:56:30Z</time>
      </trkpt>
      <trkpt lat="48.033" lon="6.87823">
        <ele>985.6</ele>
        <time>2022-06-26T07:56:31Z</time>
      </trkpt>
      <trkpt lat="48.03298" lon="6.87825">
        <ele>985.8</ele>
        <time>2022-06-26T07:56:32Z</time>
      </trkpt>
      <trkpt lat="48.03297" lon="6.87827">
        <ele>985.8</ele>
        <time>2022-06-26T07:56:33Z</time>
      </trkpt>
      <trkpt lat="48.03296" lon="6.87829">
        <ele>986</ele>
        <time>2022-06-26T07:56:34Z</time>
      </trkpt>
      <trkpt lat="48.03295" lon="6.87832">
        <ele>986</ele>
        <time>2022-06-26T07:56:35Z</time>
      </trkpt>
      <trkpt lat="48.03294" lon="6.87834">
        <ele>986</ele>
        <time>2022-06-26T07:56:36Z</time>
      </trkpt>
      <trkpt lat="48.03292" lon="6.87836">
        <ele>986.2</ele>
        <time>2022-06-26T07:56:37Z</time>
      </trkpt>
      <trkpt lat="48.03291" lon="6.87839">
        <ele>986</ele>
        <time>2022-06-26T07:56:38Z</time>
      </trkpt>
      <trkpt lat="48.0329" lon="6.87841">
        <ele>986.2</ele>
        <time>2022-06-26T07:56:39Z</time>
      </trkpt>
      <trkpt lat="48.03288" lon="6.87843">
        <ele>986.2</ele>
        <time>2022-06-26T07:56:40Z</time>
      </trkpt>
      <trkpt lat="48.03287" lon="6.87845">
        <ele>986.4</ele>
        <time>2022-06-26T07:56:41Z</time>
      </trkpt>
      <trkpt lat="48.03285" lon="6.87846">
        <ele>986.4</ele>
        <time>2022-06-26T07:56:42Z</time>
      </trkpt>
      <trkpt lat="48.03284" lon="6.87847">
        <ele>986.6</ele>
        <time>2022-06-26T07:56:43Z</time>
      </trkpt>
      <trkpt lat="48.03282" lon="6.87849">
        <ele>986.8</ele>
        <time>2022-06-26T07:56:44Z</time>
      </trkpt>
      <trkpt lat="48.0328" lon="6.8785">
        <ele>987</ele>
        <time>2022-06-26T07:56:45Z</time>
      </trkpt>
      <trkpt lat="48.03279" lon="6.87852">
        <ele>987</ele>
        <time>2022-06-26T07:56:46Z</time>
      </trkpt>
      <trkpt lat="48.03277" lon="6.87854">
        <ele>987.2</ele>
        <time>2022-06-26T07:56:47Z</time>
      </trkpt>
      <trkpt lat="48.03276" lon="6.87856">
        <ele>987.4</ele>
        <time>2022-06-26T07:56:48Z</time>
      </trkpt>
      <trkpt lat="48.03274" lon="6.87858">
        <ele>987.4</ele>
        <time>2022-06-26T07:56:49Z</time>
      </trkpt>
      <trkpt lat="48.03273" lon="6.87861">
        <ele>987.6</ele>
        <time>2022-06-26T07:56:50Z</time>
      </trkpt>
      <trkpt lat="48.03273" lon="6.87864">
        <ele>987.6</ele>
        <time>2022-06-26T07:56:51Z</time>
      </trkpt>
      <trkpt lat="48.03272" lon="6.87867">
        <ele>987.8</ele>
        <time>2022-06-26T07:56:52Z</time>
      </trkpt>
      <trkpt lat="48.03271" lon="6.87869">
        <ele>987.8</ele>
        <time>2022-06-26T07:56:53Z</time>
      </trkpt>
      <trkpt lat="48.03269" lon="6.87872">
        <ele>988</ele>
        <time>2022-06-26T07:56:54Z</time>
      </trkpt>
      <trkpt lat="48.03268" lon="6.87873">
        <ele>988</ele>
        <time>2022-06-26T07:56:55Z</time>
      </trkpt>
      <trkpt lat="48.03267" lon="6.87876">
        <ele>988</ele>
        <time>2022-06-26T07:56:56Z</time>
      </trkpt>
      <trkpt lat="48.03266" lon="6.87879">
        <ele>988.2</ele>
        <time>2022-06-26T07:56:57Z</time>
      </trkpt>
      <trkpt lat="48.03265" lon="6.87881">
        <ele>988.4</ele>
        <time>2022-06-26T07:56:58Z</time>
      </trkpt>
      <trkpt lat="48.03264" lon="6.87884">
        <ele>988.6</ele>
        <time>2022-06-26T07:56:59Z</time>
      </trkpt>
      <trkpt lat="48.03263" lon="6.87886">
        <ele>988.6</ele>
        <time>2022-06-26T07:57:00Z</time>
      </trkpt>
      <trkpt lat="48.03261" lon="6.87888">
        <ele>988.8</ele>
        <time>2022-06-26T07:57:01Z</time>
      </trkpt>
      <trkpt lat="48.03261" lon="6.8789">
        <ele>988.8</ele>
        <time>2022-06-26T07:57:02Z</time>
      </trkpt>
      <trkpt lat="48.0326" lon="6.87891">
        <ele>988.8</ele>
        <time>2022-06-26T07:57:03Z</time>
      </trkpt>
      <trkpt lat="48.03259" lon="6.87893">
        <ele>989</ele>
        <time>2022-06-26T07:57:04Z</time>
      </trkpt>
      <trkpt lat="48.03259" lon="6.87895">
        <ele>989</ele>
        <time>2022-06-26T07:57:05Z</time>
      </trkpt>
      <trkpt lat="48.03258" lon="6.87898">
        <ele>989</ele>
        <time>2022-06-26T07:57:06Z</time>
      </trkpt>
      <trkpt lat="48.03257" lon="6.879">
        <ele>989</ele>
        <time>2022-06-26T07:57:07Z</time>
      </trkpt>
      <trkpt lat="48.03256" lon="6.87903">
        <ele>989.2</ele>
        <time>2022-06-26T07:57:08Z</time>
      </trkpt>
      <trkpt lat="48.03255" lon="6.87905">
        <ele>989.4</ele>
        <time>2022-06-26T07:57:09Z</time>
      </trkpt>
      <trkpt lat="48.03254" lon="6.87907">
        <ele>989.8</ele>
        <time>2022-06-26T07:57:10Z</time>
      </trkpt>
      <trkpt lat="48.03254" lon="6.8791">
        <ele>989.8</ele>
        <time>2022-06-26T07:57:11Z</time>
      </trkpt>
      <trkpt lat="48.03253" lon="6.87913">
        <ele>990</ele>
        <time>2022-06-26T07:57:12Z</time>
      </trkpt>
      <trkpt lat="48.03252" lon="6.87915">
        <ele>990.2</ele>
        <time>2022-06-26T07:57:13Z</time>
      </trkpt>
      <trkpt lat="48.03251" lon="6.87918">
        <ele>990.2</ele>
        <time>2022-06-26T07:57:14Z</time>
      </trkpt>
      <trkpt lat="48.0325" lon="6.8792">
        <ele>990.4</ele>
        <time>2022-06-26T07:57:15Z</time>
      </trkpt>
      <trkpt lat="48.03249" lon="6.87922">
        <ele>990.4</ele>
        <time>2022-06-26T07:57:16Z</time>
      </trkpt>
      <trkpt lat="48.03248" lon="6.87924">
        <ele>990.6</ele>
        <time>2022-06-26T07:57:17Z</time>
      </trkpt>
      <trkpt lat="48.03248" lon="6.87927">
        <ele>990.8</ele>
        <time>2022-06-26T07:57:18Z</time>
      </trkpt>
      <trkpt lat="48.03248" lon="6.8793">
        <ele>991</ele>
        <time>2022-06-26T07:57:19Z</time>
      </trkpt>
      <trkpt lat="48.03247" lon="6.87932">
        <ele>991</ele>
        <time>2022-06-26T07:57:20Z</time>
      </trkpt>
      <trkpt lat="48.03247" lon="6.87935">
        <ele>991.4</ele>
        <time>2022-06-26T07:57:21Z</time>
      </trkpt>
      <trkpt lat="48.03246" lon="6.87938">
        <ele>991.4</ele>
        <time>2022-06-26T07:57:22Z</time>
      </trkpt>
      <trkpt lat="48.03245" lon="6.87941">
        <ele>991.8</ele>
        <time>2022-06-26T07:57:23Z</time>
      </trkpt>
      <trkpt lat="48.03244" lon="6.87943">
        <ele>992.2</ele>
        <time>2022-06-26T07:57:24Z</time>
      </trkpt>
      <trkpt lat="48.03243" lon="6.87946">
        <ele>992.2</ele>
        <time>2022-06-26T07:57:25Z</time>
      </trkpt>
      <trkpt lat="48.03242" lon="6.87949">
        <ele>992.4</ele>
        <time>2022-06-26T07:57:26Z</time>
      </trkpt>
      <trkpt lat="48.03241" lon="6.87952">
        <ele>992.4</ele>
        <time>2022-06-26T07:57:27Z</time>
      </trkpt>
      <trkpt lat="48.0324" lon="6.87954">
        <ele>992.6</ele>
        <time>2022-06-26T07:57:28Z</time>
      </trkpt>
      <trkpt lat="48.03239" lon="6.87957">
        <ele>992.6</ele>
        <time>2022-06-26T07:57:29Z</time>
      </trkpt>
      <trkpt lat="48.03238" lon="6.87959">
        <ele>992.6</ele>
        <time>2022-06-26T07:57:30Z</time>
      </trkpt>
      <trkpt lat="48.03236" lon="6.87961">
        <ele>992.8</ele>
        <time>2022-06-26T07:57:31Z</time>
      </trkpt>
      <trkpt lat="48.03234" lon="6.87964">
        <ele>993</ele>
        <time>2022-06-26T07:57:32Z</time>
      </trkpt>
      <trkpt lat="48.03233" lon="6.87967">
        <ele>993</ele>
        <time>2022-06-26T07:57:33Z</time>
      </trkpt>
      <trkpt lat="48.03231" lon="6.8797">
        <ele>993.2</ele>
        <time>2022-06-26T07:57:34Z</time>
      </trkpt>
      <trkpt lat="48.0323" lon="6.87973">
        <ele>993.2</ele>
        <time>2022-06-26T07:57:35Z</time>
      </trkpt>
      <trkpt lat="48.03229" lon="6.87975">
        <ele>993</ele>
        <time>2022-06-26T07:57:36Z</time>
      </trkpt>
      <trkpt lat="48.03227" lon="6.87978">
        <ele>993.2</ele>
        <time>2022-06-26T07:57:37Z</time>
      </trkpt>
      <trkpt lat="48.03226" lon="6.87981">
        <ele>993</ele>
        <time>2022-06-26T07:57:38Z</time>
      </trkpt>
      <trkpt lat="48.03225" lon="6.87984">
        <ele>993</ele>
        <time>2022-06-26T07:57:39Z</time>
      </trkpt>
      <trkpt lat="48.03223" lon="6.87987">
        <ele>993</ele>
        <time>2022-06-26T07:57:40Z</time>
      </trkpt>
      <trkpt lat="48.03222" lon="6.8799">
        <ele>993.2</ele>
        <time>2022-06-26T07:57:41Z</time>
      </trkpt>
      <trkpt lat="48.03221" lon="6.87995">
        <ele>993.2</ele>
        <time>2022-06-26T07:57:42Z</time>
      </trkpt>
      <trkpt lat="48.03219" lon="6.87999">
        <ele>993.2</ele>
        <time>2022-06-26T07:57:43Z</time>
      </trkpt>
      <trkpt lat="48.03218" lon="6.88003">
        <ele>993.2</ele>
        <time>2022-06-26T07:57:44Z</time>
      </trkpt>
      <trkpt lat="48.03218" lon="6.88009">
        <ele>993.2</ele>
        <time>2022-06-26T07:57:45Z</time>
      </trkpt>
      <trkpt lat="48.03218" lon="6.88015">
        <ele>993.2</ele>
        <time>2022-06-26T07:57:46Z</time>
      </trkpt>
      <trkpt lat="48.0322" lon="6.88041">
        <ele>992.8</ele>
        <time>2022-06-26T07:57:50Z</time>
      </trkpt>
      <trkpt lat="48.03224" lon="6.88062">
        <ele>991.8</ele>
        <time>2022-06-26T07:57:53Z</time>
      </trkpt>
      <trkpt lat="48.03224" lon="6.88068">
        <ele>991.8</ele>
        <time>2022-06-26T07:57:54Z</time>
      </trkpt>
      <trkpt lat="48.03224" lon="6.88074">
        <ele>991.4</ele>
        <time>2022-06-26T07:57:55Z</time>
      </trkpt>
      <trkpt lat="48.03222" lon="6.8808">
        <ele>991.2</ele>
        <time>2022-06-26T07:57:56Z</time>
      </trkpt>
      <trkpt lat="48.03221" lon="6.88085">
        <ele>991</ele>
        <time>2022-06-26T07:57:57Z</time>
      </trkpt>
      <trkpt lat="48.0322" lon="6.8809">
        <ele>990.8</ele>
        <time>2022-06-26T07:57:58Z</time>
      </trkpt>
      <trkpt lat="48.03219" lon="6.88096">
        <ele>990.4</ele>
        <time>2022-06-26T07:57:59Z</time>
      </trkpt>
      <trkpt lat="48.03217" lon="6.88101">
        <ele>990</ele>
        <time>2022-06-26T07:58:00Z</time>
      </trkpt>
      <trkpt lat="48.03205" lon="6.88126">
        <ele>988.6</ele>
        <time>2022-06-26T07:58:04Z</time>
      </trkpt>
      <trkpt lat="48.03192" lon="6.88145">
        <ele>988</ele>
        <time>2022-06-26T07:58:07Z</time>
      </trkpt>
      <trkpt lat="48.03186" lon="6.8815">
        <ele>987.2</ele>
        <time>2022-06-26T07:58:08Z</time>
      </trkpt>
      <trkpt lat="48.03182" lon="6.88156">
        <ele>986.6</ele>
        <time>2022-06-26T07:58:09Z</time>
      </trkpt>
      <trkpt lat="48.03177" lon="6.88161">
        <ele>986.2</ele>
        <time>2022-06-26T07:58:10Z</time>
      </trkpt>
      <trkpt lat="48.03173" lon="6.88167">
        <ele>985.8</ele>
        <time>2022-06-26T07:58:11Z</time>
      </trkpt>
      <trkpt lat="48.03169" lon="6.88174">
        <ele>985.8</ele>
        <time>2022-06-26T07:58:12Z</time>
      </trkpt>
      <trkpt lat="48.03167" lon="6.88181">
        <ele>985.2</ele>
        <time>2022-06-26T07:58:13Z</time>
      </trkpt>
      <trkpt lat="48.03165" lon="6.8819">
        <ele>985</ele>
        <time>2022-06-26T07:58:14Z</time>
      </trkpt>
      <trkpt lat="48.03164" lon="6.88197">
        <ele>984.2</ele>
        <time>2022-06-26T07:58:15Z</time>
      </trkpt>
      <trkpt lat="48.03163" lon="6.88205">
        <ele>984</ele>
        <time>2022-06-26T07:58:16Z</time>
      </trkpt>
      <trkpt lat="48.03164" lon="6.88212">
        <ele>983.8</ele>
        <time>2022-06-26T07:58:17Z</time>
      </trkpt>
      <trkpt lat="48.03164" lon="6.8822">
        <ele>983.8</ele>
        <time>2022-06-26T07:58:18Z</time>
      </trkpt>
      <trkpt lat="48.03164" lon="6.88226">
        <ele>983.6</ele>
        <time>2022-06-26T07:58:19Z</time>
      </trkpt>
      <trkpt lat="48.03163" lon="6.88231">
        <ele>983.6</ele>
        <time>2022-06-26T07:58:20Z</time>
      </trkpt>
      <trkpt lat="48.03163" lon="6.88236">
        <ele>983.6</ele>
        <time>2022-06-26T07:58:21Z</time>
      </trkpt>
      <trkpt lat="48.03163" lon="6.88241">
        <ele>983.6</ele>
        <time>2022-06-26T07:58:22Z</time>
      </trkpt>
      <trkpt lat="48.03163" lon="6.88246">
        <ele>983.6</ele>
        <time>2022-06-26T07:58:23Z</time>
      </trkpt>
      <trkpt lat="48.03164" lon="6.8825">
        <ele>983.8</ele>
        <time>2022-06-26T07:58:24Z</time>
      </trkpt>
      <trkpt lat="48.03164" lon="6.88254">
        <ele>983.8</ele>
        <time>2022-06-26T07:58:25Z</time>
      </trkpt>
      <trkpt lat="48.03161" lon="6.8826">
        <ele>984.2</ele>
        <time>2022-06-26T07:58:27Z</time>
      </trkpt>
      <trkpt lat="48.0316" lon="6.88265">
        <ele>984.4</ele>
        <time>2022-06-26T07:58:28Z</time>
      </trkpt>
      <trkpt lat="48.03159" lon="6.88269">
        <ele>984.6</ele>
        <time>2022-06-26T07:58:29Z</time>
      </trkpt>
      <trkpt lat="48.03159" lon="6.88274">
        <ele>984.6</ele>
        <time>2022-06-26T07:58:30Z</time>
      </trkpt>
      <trkpt lat="48.03159" lon="6.88277">
        <ele>984.8</ele>
        <time>2022-06-26T07:58:31Z</time>
      </trkpt>
      <trkpt lat="48.03159" lon="6.8828">
        <ele>984.8</ele>
        <time>2022-06-26T07:58:32Z</time>
      </trkpt>
      <trkpt lat="48.03158" lon="6.88283">
        <ele>985</ele>
        <time>2022-06-26T07:58:33Z</time>
      </trkpt>
      <trkpt lat="48.03157" lon="6.88285">
        <ele>985</ele>
        <time>2022-06-26T07:58:34Z</time>
      </trkpt>
      <trkpt lat="48.03157" lon="6.88288">
        <ele>985.2</ele>
        <time>2022-06-26T07:58:35Z</time>
      </trkpt>
      <trkpt lat="48.03156" lon="6.88289">
        <ele>985.4</ele>
        <time>2022-06-26T07:58:36Z</time>
      </trkpt>
      <trkpt lat="48.03155" lon="6.88292">
        <ele>985.4</ele>
        <time>2022-06-26T07:58:37Z</time>
      </trkpt>
      <trkpt lat="48.03155" lon="6.88295">
        <ele>985.4</ele>
        <time>2022-06-26T07:58:38Z</time>
      </trkpt>
      <trkpt lat="48.03158" lon="6.88309">
        <ele>986</ele>
        <time>2022-06-26T07:58:42Z</time>
      </trkpt>
      <trkpt lat="48.03159" lon="6.88312">
        <ele>986</ele>
        <time>2022-06-26T07:58:43Z</time>
      </trkpt>
      <trkpt lat="48.03165" lon="6.88328">
        <ele>986.6</ele>
        <time>2022-06-26T07:58:47Z</time>
      </trkpt>
      <trkpt lat="48.03174" lon="6.88349">
        <ele>987</ele>
        <time>2022-06-26T07:58:53Z</time>
      </trkpt>
      <trkpt lat="48.03176" lon="6.88353">
        <ele>987</ele>
        <time>2022-06-26T07:58:54Z</time>
      </trkpt>
      <trkpt lat="48.03181" lon="6.88366">
        <ele>987.8</ele>
        <time>2022-06-26T07:58:58Z</time>
      </trkpt>
      <trkpt lat="48.03183" lon="6.88371">
        <ele>987.8</ele>
        <time>2022-06-26T07:58:59Z</time>
      </trkpt>
      <trkpt lat="48.03185" lon="6.88375">
        <ele>988</ele>
        <time>2022-06-26T07:59:00Z</time>
      </trkpt>
      <trkpt lat="48.03186" lon="6.88377">
        <ele>988</ele>
        <time>2022-06-26T07:59:01Z</time>
      </trkpt>
      <trkpt lat="48.03187" lon="6.88378">
        <ele>988</ele>
        <time>2022-06-26T07:59:02Z</time>
      </trkpt>
      <trkpt lat="48.03187" lon="6.88381">
        <ele>988</ele>
        <time>2022-06-26T07:59:03Z</time>
      </trkpt>
      <trkpt lat="48.03189" lon="6.88385">
        <ele>988</ele>
        <time>2022-06-26T07:59:04Z</time>
      </trkpt>
      <trkpt lat="48.03191" lon="6.88388">
        <ele>988.2</ele>
        <time>2022-06-26T07:59:05Z</time>
      </trkpt>
      <trkpt lat="48.03193" lon="6.88391">
        <ele>988.4</ele>
        <time>2022-06-26T07:59:06Z</time>
      </trkpt>
      <trkpt lat="48.03195" lon="6.88393">
        <ele>988.4</ele>
        <time>2022-06-26T07:59:07Z</time>
      </trkpt>
      <trkpt lat="48.03197" lon="6.88395">
        <ele>988.4</ele>
        <time>2022-06-26T07:59:08Z</time>
      </trkpt>
      <trkpt lat="48.03199" lon="6.88397">
        <ele>988.6</ele>
        <time>2022-06-26T07:59:09Z</time>
      </trkpt>
      <trkpt lat="48.03201" lon="6.88399">
        <ele>988.8</ele>
        <time>2022-06-26T07:59:10Z</time>
      </trkpt>
      <trkpt lat="48.03202" lon="6.88402">
        <ele>988.8</ele>
        <time>2022-06-26T07:59:11Z</time>
      </trkpt>
      <trkpt lat="48.03203" lon="6.88404">
        <ele>989</ele>
        <time>2022-06-26T07:59:12Z</time>
      </trkpt>
      <trkpt lat="48.03204" lon="6.88407">
        <ele>989</ele>
        <time>2022-06-26T07:59:13Z</time>
      </trkpt>
      <trkpt lat="48.03205" lon="6.8841">
        <ele>989.4</ele>
        <time>2022-06-26T07:59:14Z</time>
      </trkpt>
      <trkpt lat="48.03207" lon="6.88413">
        <ele>989.4</ele>
        <time>2022-06-26T07:59:15Z</time>
      </trkpt>
      <trkpt lat="48.03208" lon="6.88416">
        <ele>989.6</ele>
        <time>2022-06-26T07:59:16Z</time>
      </trkpt>
      <trkpt lat="48.03208" lon="6.88419">
        <ele>989.8</ele>
        <time>2022-06-26T07:59:17Z</time>
      </trkpt>
      <trkpt lat="48.03208" lon="6.88422">
        <ele>990</ele>
        <time>2022-06-26T07:59:18Z</time>
      </trkpt>
      <trkpt lat="48.03209" lon="6.88424">
        <ele>990.2</ele>
        <time>2022-06-26T07:59:19Z</time>
      </trkpt>
      <trkpt lat="48.03209" lon="6.88426">
        <ele>990.2</ele>
        <time>2022-06-26T07:59:20Z</time>
      </trkpt>
      <trkpt lat="48.03208" lon="6.88429">
        <ele>990.4</ele>
        <time>2022-06-26T07:59:21Z</time>
      </trkpt>
      <trkpt lat="48.03207" lon="6.88432">
        <ele>990.4</ele>
        <time>2022-06-26T07:59:22Z</time>
      </trkpt>
      <trkpt lat="48.03207" lon="6.88436">
        <ele>990.4</ele>
        <time>2022-06-26T07:59:23Z</time>
      </trkpt>
      <trkpt lat="48.03207" lon="6.88439">
        <ele>990.4</ele>
        <time>2022-06-26T07:59:24Z</time>
      </trkpt>
      <trkpt lat="48.03208" lon="6.88442">
        <ele>990.4</ele>
        <time>2022-06-26T07:59:25Z</time>
      </trkpt>
      <trkpt lat="48.03207" lon="6.88445">
        <ele>990.4</ele>
        <time>2022-06-26T07:59:26Z</time>
      </trkpt>
      <trkpt lat="48.03206" lon="6.88447">
        <ele>990.6</ele>
        <time>2022-06-26T07:59:27Z</time>
      </trkpt>
      <trkpt lat="48.03206" lon="6.88451">
        <ele>990.6</ele>
        <time>2022-06-26T07:59:28Z</time>
      </trkpt>
      <trkpt lat="48.03206" lon="6.88454">
        <ele>990.8</ele>
        <time>2022-06-26T07:59:29Z</time>
      </trkpt>
      <trkpt lat="48.03205" lon="6.88457">
        <ele>990.8</ele>
        <time>2022-06-26T07:59:30Z</time>
      </trkpt>
      <trkpt lat="48.03204" lon="6.8846">
        <ele>991</ele>
        <time>2022-06-26T07:59:31Z</time>
      </trkpt>
      <trkpt lat="48.03204" lon="6.88464">
        <ele>991</ele>
        <time>2022-06-26T07:59:32Z</time>
      </trkpt>
      <trkpt lat="48.03204" lon="6.88467">
        <ele>991.2</ele>
        <time>2022-06-26T07:59:33Z</time>
      </trkpt>
      <trkpt lat="48.03205" lon="6.88471">
        <ele>991.2</ele>
        <time>2022-06-26T07:59:34Z</time>
      </trkpt>
      <trkpt lat="48.03205" lon="6.88475">
        <ele>991.2</ele>
        <time>2022-06-26T07:59:35Z</time>
      </trkpt>
      <trkpt lat="48.03206" lon="6.88479">
        <ele>991.4</ele>
        <time>2022-06-26T07:59:36Z</time>
      </trkpt>
      <trkpt lat="48.03206" lon="6.88482">
        <ele>991.2</ele>
        <time>2022-06-26T07:59:37Z</time>
      </trkpt>
      <trkpt lat="48.03208" lon="6.88488">
        <ele>991.4</ele>
        <time>2022-06-26T07:59:38Z</time>
      </trkpt>
      <trkpt lat="48.03219" lon="6.88512">
        <ele>991.8</ele>
        <time>2022-06-26T07:59:43Z</time>
      </trkpt>
      <trkpt lat="48.03232" lon="6.88534">
        <ele>991.8</ele>
        <time>2022-06-26T07:59:49Z</time>
      </trkpt>
      <trkpt lat="48.03246" lon="6.88547">
        <ele>991.8</ele>
        <time>2022-06-26T07:59:54Z</time>
      </trkpt>
      <trkpt lat="48.03249" lon="6.88549">
        <ele>992</ele>
        <time>2022-06-26T07:59:55Z</time>
      </trkpt>
      <trkpt lat="48.03252" lon="6.88551">
        <ele>992</ele>
        <time>2022-06-26T07:59:56Z</time>
      </trkpt>
      <trkpt lat="48.03265" lon="6.88555">
        <ele>992</ele>
        <time>2022-06-26T08:00:01Z</time>
      </trkpt>
      <trkpt lat="48.03266" lon="6.88556">
        <ele>992</ele>
        <time>2022-06-26T08:00:02Z</time>
      </trkpt>
      <trkpt lat="48.03268" lon="6.88556">
        <ele>992</ele>
        <time>2022-06-26T08:00:03Z</time>
      </trkpt>
      <trkpt lat="48.03269" lon="6.88557">
        <ele>992</ele>
        <time>2022-06-26T08:00:04Z</time>
      </trkpt>
      <trkpt lat="48.03271" lon="6.88557">
        <ele>992.2</ele>
        <time>2022-06-26T08:00:05Z</time>
      </trkpt>
      <trkpt lat="48.03271" lon="6.88557">
        <ele>992.4</ele>
        <time>2022-06-26T08:00:06Z</time>
      </trkpt>
      <trkpt lat="48.03273" lon="6.88558">
        <ele>993</ele>
        <time>2022-06-26T08:00:08Z</time>
      </trkpt>
      <trkpt lat="48.03275" lon="6.88558">
        <ele>993.2</ele>
        <time>2022-06-26T08:00:09Z</time>
      </trkpt>
      <trkpt lat="48.03276" lon="6.88558">
        <ele>993.4</ele>
        <time>2022-06-26T08:00:10Z</time>
      </trkpt>
      <trkpt lat="48.03276" lon="6.88558">
        <ele>993.6</ele>
        <time>2022-06-26T08:00:11Z</time>
      </trkpt>
      <trkpt lat="48.03278" lon="6.88557">
        <ele>994</ele>
        <time>2022-06-26T08:00:13Z</time>
      </trkpt>
      <trkpt lat="48.0328" lon="6.88557">
        <ele>994</ele>
        <time>2022-06-26T08:00:14Z</time>
      </trkpt>
      <trkpt lat="48.03281" lon="6.88557">
        <ele>994.2</ele>
        <time>2022-06-26T08:00:15Z</time>
      </trkpt>
      <trkpt lat="48.03285" lon="6.88557">
        <ele>994.8</ele>
        <time>2022-06-26T08:00:17Z</time>
      </trkpt>
      <trkpt lat="48.03289" lon="6.88558">
        <ele>995.2</ele>
        <time>2022-06-26T08:00:19Z</time>
      </trkpt>
      <trkpt lat="48.03291" lon="6.88558">
        <ele>995.4</ele>
        <time>2022-06-26T08:00:20Z</time>
      </trkpt>
      <trkpt lat="48.03293" lon="6.88559">
        <ele>995.4</ele>
        <time>2022-06-26T08:00:21Z</time>
      </trkpt>
      <trkpt lat="48.03295" lon="6.88559">
        <ele>995.6</ele>
        <time>2022-06-26T08:00:22Z</time>
      </trkpt>
      <trkpt lat="48.03297" lon="6.8856">
        <ele>995.6</ele>
        <time>2022-06-26T08:00:23Z</time>
      </trkpt>
      <trkpt lat="48.033" lon="6.88563">
        <ele>996</ele>
        <time>2022-06-26T08:00:24Z</time>
      </trkpt>
      <trkpt lat="48.03302" lon="6.88565">
        <ele>996</ele>
        <time>2022-06-26T08:00:25Z</time>
      </trkpt>
      <trkpt lat="48.03304" lon="6.88568">
        <ele>996.2</ele>
        <time>2022-06-26T08:00:26Z</time>
      </trkpt>
      <trkpt lat="48.03306" lon="6.88571">
        <ele>996.2</ele>
        <time>2022-06-26T08:00:27Z</time>
      </trkpt>
      <trkpt lat="48.03308" lon="6.88574">
        <ele>996.4</ele>
        <time>2022-06-26T08:00:28Z</time>
      </trkpt>
      <trkpt lat="48.03312" lon="6.88577">
        <ele>996.4</ele>
        <time>2022-06-26T08:00:29Z</time>
      </trkpt>
      <trkpt lat="48.03314" lon="6.8858">
        <ele>996.4</ele>
        <time>2022-06-26T08:00:30Z</time>
      </trkpt>
      <trkpt lat="48.03316" lon="6.88584">
        <ele>996.6</ele>
        <time>2022-06-26T08:00:31Z</time>
      </trkpt>
      <trkpt lat="48.03317" lon="6.88588">
        <ele>996.6</ele>
        <time>2022-06-26T08:00:32Z</time>
      </trkpt>
      <trkpt lat="48.03318" lon="6.88592">
        <ele>996.6</ele>
        <time>2022-06-26T08:00:33Z</time>
      </trkpt>
      <trkpt lat="48.03321" lon="6.88595">
        <ele>996.6</ele>
        <time>2022-06-26T08:00:34Z</time>
      </trkpt>
      <trkpt lat="48.03322" lon="6.88599">
        <ele>996.6</ele>
        <time>2022-06-26T08:00:35Z</time>
      </trkpt>
      <trkpt lat="48.03323" lon="6.88601">
        <ele>996.6</ele>
        <time>2022-06-26T08:00:36Z</time>
      </trkpt>
      <trkpt lat="48.03325" lon="6.88604">
        <ele>996.6</ele>
        <time>2022-06-26T08:00:37Z</time>
      </trkpt>
      <trkpt lat="48.03327" lon="6.88608">
        <ele>996.6</ele>
        <time>2022-06-26T08:00:38Z</time>
      </trkpt>
      <trkpt lat="48.0333" lon="6.88612">
        <ele>996.8</ele>
        <time>2022-06-26T08:00:39Z</time>
      </trkpt>
      <trkpt lat="48.03334" lon="6.88616">
        <ele>996.8</ele>
        <time>2022-06-26T08:00:40Z</time>
      </trkpt>
      <trkpt lat="48.03335" lon="6.88618">
        <ele>996.8</ele>
        <time>2022-06-26T08:00:41Z</time>
      </trkpt>
      <trkpt lat="48.03338" lon="6.88619">
        <ele>996.8</ele>
        <time>2022-06-26T08:00:42Z</time>
      </trkpt>
      <trkpt lat="48.0334" lon="6.88619">
        <ele>996.8</ele>
        <time>2022-06-26T08:00:43Z</time>
      </trkpt>
      <trkpt lat="48.03341" lon="6.88619">
        <ele>996.8</ele>
        <time>2022-06-26T08:00:44Z</time>
      </trkpt>
      <trkpt lat="48.03345" lon="6.88622">
        <ele>996.8</ele>
        <time>2022-06-26T08:00:45Z</time>
      </trkpt>
      <trkpt lat="48.03346" lon="6.88624">
        <ele>996.8</ele>
        <time>2022-06-26T08:00:46Z</time>
      </trkpt>
      <trkpt lat="48.03348" lon="6.88626">
        <ele>997</ele>
        <time>2022-06-26T08:00:47Z</time>
      </trkpt>
      <trkpt lat="48.03349" lon="6.88627">
        <ele>997</ele>
        <time>2022-06-26T08:00:48Z</time>
      </trkpt>
      <trkpt lat="48.0335" lon="6.88629">
        <ele>997.2</ele>
        <time>2022-06-26T08:00:49Z</time>
      </trkpt>
      <trkpt lat="48.03352" lon="6.88631">
        <ele>997.4</ele>
        <time>2022-06-26T08:00:50Z</time>
      </trkpt>
      <trkpt lat="48.03354" lon="6.88636">
        <ele>997.8</ele>
        <time>2022-06-26T08:00:52Z</time>
      </trkpt>
      <trkpt lat="48.03355" lon="6.88638">
        <ele>998</ele>
        <time>2022-06-26T08:00:53Z</time>
      </trkpt>
      <trkpt lat="48.03356" lon="6.8864">
        <ele>998.2</ele>
        <time>2022-06-26T08:00:54Z</time>
      </trkpt>
      <trkpt lat="48.03357" lon="6.88643">
        <ele>998.4</ele>
        <time>2022-06-26T08:00:55Z</time>
      </trkpt>
      <trkpt lat="48.03358" lon="6.88646">
        <ele>998.6</ele>
        <time>2022-06-26T08:00:56Z</time>
      </trkpt>
      <trkpt lat="48.03366" lon="6.88661">
        <ele>999</ele>
        <time>2022-06-26T08:01:02Z</time>
      </trkpt>
      <trkpt lat="48.03367" lon="6.88663">
        <ele>999.2</ele>
        <time>2022-06-26T08:01:03Z</time>
      </trkpt>
      <trkpt lat="48.03368" lon="6.88666">
        <ele>999.2</ele>
        <time>2022-06-26T08:01:04Z</time>
      </trkpt>
      <trkpt lat="48.0337" lon="6.88668">
        <ele>999.2</ele>
        <time>2022-06-26T08:01:05Z</time>
      </trkpt>
      <trkpt lat="48.03371" lon="6.88671">
        <ele>999.4</ele>
        <time>2022-06-26T08:01:06Z</time>
      </trkpt>
      <trkpt lat="48.03371" lon="6.88673">
        <ele>999.6</ele>
        <time>2022-06-26T08:01:07Z</time>
      </trkpt>
      <trkpt lat="48.03372" lon="6.88676">
        <ele>999.6</ele>
        <time>2022-06-26T08:01:08Z</time>
      </trkpt>
      <trkpt lat="48.03373" lon="6.88679">
        <ele>999.6</ele>
        <time>2022-06-26T08:01:09Z</time>
      </trkpt>
      <trkpt lat="48.03374" lon="6.88682">
        <ele>999.8</ele>
        <time>2022-06-26T08:01:10Z</time>
      </trkpt>
      <trkpt lat="48.03374" lon="6.88685">
        <ele>999.8</ele>
        <time>2022-06-26T08:01:11Z</time>
      </trkpt>
      <trkpt lat="48.03376" lon="6.88688">
        <ele>1000</ele>
        <time>2022-06-26T08:01:12Z</time>
      </trkpt>
      <trkpt lat="48.03377" lon="6.8869">
        <ele>1000.2</ele>
        <time>2022-06-26T08:01:13Z</time>
      </trkpt>
      <trkpt lat="48.03378" lon="6.88694">
        <ele>1000.4</ele>
        <time>2022-06-26T08:01:14Z</time>
      </trkpt>
      <trkpt lat="48.03379" lon="6.88696">
        <ele>1000.4</ele>
        <time>2022-06-26T08:01:15Z</time>
      </trkpt>
      <trkpt lat="48.0338" lon="6.88699">
        <ele>1000.6</ele>
        <time>2022-06-26T08:01:16Z</time>
      </trkpt>
      <trkpt lat="48.0338" lon="6.88701">
        <ele>1000.6</ele>
        <time>2022-06-26T08:01:17Z</time>
      </trkpt>
      <trkpt lat="48.0338" lon="6.88703">
        <ele>1000.8</ele>
        <time>2022-06-26T08:01:18Z</time>
      </trkpt>
      <trkpt lat="48.03381" lon="6.88706">
        <ele>1000.8</ele>
        <time>2022-06-26T08:01:19Z</time>
      </trkpt>
      <trkpt lat="48.03381" lon="6.88709">
        <ele>1001.2</ele>
        <time>2022-06-26T08:01:20Z</time>
      </trkpt>
      <trkpt lat="48.03382" lon="6.88712">
        <ele>1001.6</ele>
        <time>2022-06-26T08:01:21Z</time>
      </trkpt>
      <trkpt lat="48.03383" lon="6.88714">
        <ele>1001.8</ele>
        <time>2022-06-26T08:01:22Z</time>
      </trkpt>
      <trkpt lat="48.03383" lon="6.88716">
        <ele>1002</ele>
        <time>2022-06-26T08:01:23Z</time>
      </trkpt>
      <trkpt lat="48.03384" lon="6.88719">
        <ele>1002.2</ele>
        <time>2022-06-26T08:01:24Z</time>
      </trkpt>
      <trkpt lat="48.03384" lon="6.88722">
        <ele>1002.4</ele>
        <time>2022-06-26T08:01:25Z</time>
      </trkpt>
      <trkpt lat="48.03385" lon="6.88725">
        <ele>1002.6</ele>
        <time>2022-06-26T08:01:26Z</time>
      </trkpt>
      <trkpt lat="48.03386" lon="6.88728">
        <ele>1002.8</ele>
        <time>2022-06-26T08:01:27Z</time>
      </trkpt>
      <trkpt lat="48.03386" lon="6.8873">
        <ele>1002.8</ele>
        <time>2022-06-26T08:01:28Z</time>
      </trkpt>
      <trkpt lat="48.03387" lon="6.88734">
        <ele>1003</ele>
        <time>2022-06-26T08:01:29Z</time>
      </trkpt>
      <trkpt lat="48.03387" lon="6.88737">
        <ele>1003.2</ele>
        <time>2022-06-26T08:01:30Z</time>
      </trkpt>
      <trkpt lat="48.03389" lon="6.8874">
        <ele>1003.2</ele>
        <time>2022-06-26T08:01:31Z</time>
      </trkpt>
      <trkpt lat="48.0339" lon="6.88742">
        <ele>1003.2</ele>
        <time>2022-06-26T08:01:32Z</time>
      </trkpt>
      <trkpt lat="48.03392" lon="6.88745">
        <ele>1003.4</ele>
        <time>2022-06-26T08:01:33Z</time>
      </trkpt>
      <trkpt lat="48.03393" lon="6.88748">
        <ele>1003.6</ele>
        <time>2022-06-26T08:01:34Z</time>
      </trkpt>
      <trkpt lat="48.03395" lon="6.88751">
        <ele>1003.8</ele>
        <time>2022-06-26T08:01:35Z</time>
      </trkpt>
      <trkpt lat="48.03396" lon="6.88754">
        <ele>1004</ele>
        <time>2022-06-26T08:01:36Z</time>
      </trkpt>
      <trkpt lat="48.03398" lon="6.88756">
        <ele>1004</ele>
        <time>2022-06-26T08:01:37Z</time>
      </trkpt>
      <trkpt lat="48.03399" lon="6.88759">
        <ele>1004</ele>
        <time>2022-06-26T08:01:38Z</time>
      </trkpt>
      <trkpt lat="48.03402" lon="6.88762">
        <ele>1004</ele>
        <time>2022-06-26T08:01:39Z</time>
      </trkpt>
      <trkpt lat="48.03404" lon="6.88765">
        <ele>1004</ele>
        <time>2022-06-26T08:01:40Z</time>
      </trkpt>
      <trkpt lat="48.03405" lon="6.88767">
        <ele>1004</ele>
        <time>2022-06-26T08:01:41Z</time>
      </trkpt>
      <trkpt lat="48.03408" lon="6.8877">
        <ele>1004</ele>
        <time>2022-06-26T08:01:42Z</time>
      </trkpt>
      <trkpt lat="48.0341" lon="6.88772">
        <ele>1004</ele>
        <time>2022-06-26T08:01:43Z</time>
      </trkpt>
      <trkpt lat="48.03412" lon="6.88774">
        <ele>1004</ele>
        <time>2022-06-26T08:01:44Z</time>
      </trkpt>
      <trkpt lat="48.03414" lon="6.88775">
        <ele>1004</ele>
        <time>2022-06-26T08:01:45Z</time>
      </trkpt>
      <trkpt lat="48.03416" lon="6.88775">
        <ele>1004</ele>
        <time>2022-06-26T08:01:46Z</time>
      </trkpt>
      <trkpt lat="48.03418" lon="6.88776">
        <ele>1004.2</ele>
        <time>2022-06-26T08:01:47Z</time>
      </trkpt>
      <trkpt lat="48.03422" lon="6.88778">
        <ele>1004.2</ele>
        <time>2022-06-26T08:01:48Z</time>
      </trkpt>
      <trkpt lat="48.03423" lon="6.88778">
        <ele>1004.2</ele>
        <time>2022-06-26T08:01:49Z</time>
      </trkpt>
      <trkpt lat="48.03425" lon="6.88779">
        <ele>1004.2</ele>
        <time>2022-06-26T08:01:50Z</time>
      </trkpt>
      <trkpt lat="48.03426" lon="6.8878">
        <ele>1004.2</ele>
        <time>2022-06-26T08:01:51Z</time>
      </trkpt>
      <trkpt lat="48.03428" lon="6.8878">
        <ele>1004.4</ele>
        <time>2022-06-26T08:01:52Z</time>
      </trkpt>
      <trkpt lat="48.03429" lon="6.88781">
        <ele>1004.4</ele>
        <time>2022-06-26T08:01:53Z</time>
      </trkpt>
      <trkpt lat="48.03431" lon="6.88782">
        <ele>1004.4</ele>
        <time>2022-06-26T08:01:54Z</time>
      </trkpt>
      <trkpt lat="48.03433" lon="6.88782">
        <ele>1004.6</ele>
        <time>2022-06-26T08:01:55Z</time>
      </trkpt>
      <trkpt lat="48.03434" lon="6.88783">
        <ele>1004.6</ele>
        <time>2022-06-26T08:01:56Z</time>
      </trkpt>
      <trkpt lat="48.03436" lon="6.88785">
        <ele>1004.8</ele>
        <time>2022-06-26T08:01:57Z</time>
      </trkpt>
      <trkpt lat="48.03439" lon="6.88786">
        <ele>1004.8</ele>
        <time>2022-06-26T08:01:58Z</time>
      </trkpt>
      <trkpt lat="48.03442" lon="6.88788">
        <ele>1004.8</ele>
        <time>2022-06-26T08:01:59Z</time>
      </trkpt>
      <trkpt lat="48.03444" lon="6.8879">
        <ele>1004.8</ele>
        <time>2022-06-26T08:02:00Z</time>
      </trkpt>
      <trkpt lat="48.03449" lon="6.88793">
        <ele>1005</ele>
        <time>2022-06-26T08:02:02Z</time>
      </trkpt>
      <trkpt lat="48.03462" lon="6.88804">
        <ele>1005.4</ele>
        <time>2022-06-26T08:02:06Z</time>
      </trkpt>
      <trkpt lat="48.03483" lon="6.88825">
        <ele>1005.4</ele>
        <time>2022-06-26T08:02:13Z</time>
      </trkpt>
      <trkpt lat="48.03501" lon="6.88844">
        <ele>1005.8</ele>
        <time>2022-06-26T08:02:19Z</time>
      </trkpt>
      <trkpt lat="48.03506" lon="6.88851">
        <ele>1006</ele>
        <time>2022-06-26T08:02:22Z</time>
      </trkpt>
      <trkpt lat="48.03519" lon="6.88861">
        <ele>1006.4</ele>
        <time>2022-06-26T08:02:26Z</time>
      </trkpt>
      <trkpt lat="48.03521" lon="6.88864">
        <ele>1006.6</ele>
        <time>2022-06-26T08:02:27Z</time>
      </trkpt>
      <trkpt lat="48.03524" lon="6.88866">
        <ele>1006.6</ele>
        <time>2022-06-26T08:02:28Z</time>
      </trkpt>
      <trkpt lat="48.03528" lon="6.88871">
        <ele>1007</ele>
        <time>2022-06-26T08:02:30Z</time>
      </trkpt>
      <trkpt lat="48.03534" lon="6.88877">
        <ele>1007.4</ele>
        <time>2022-06-26T08:02:32Z</time>
      </trkpt>
      <trkpt lat="48.03547" lon="6.88896">
        <ele>1007.8</ele>
        <time>2022-06-26T08:02:38Z</time>
      </trkpt>
      <trkpt lat="48.0355" lon="6.88904">
        <ele>1008</ele>
        <time>2022-06-26T08:02:40Z</time>
      </trkpt>
      <trkpt lat="48.03552" lon="6.8892">
        <ele>1008.2</ele>
        <time>2022-06-26T08:02:44Z</time>
      </trkpt>
      <trkpt lat="48.03552" lon="6.88924">
        <ele>1008.2</ele>
        <time>2022-06-26T08:02:45Z</time>
      </trkpt>
      <trkpt lat="48.03551" lon="6.88928">
        <ele>1008.4</ele>
        <time>2022-06-26T08:02:46Z</time>
      </trkpt>
      <trkpt lat="48.03549" lon="6.88946">
        <ele>1008.4</ele>
        <time>2022-06-26T08:02:50Z</time>
      </trkpt>
      <trkpt lat="48.03548" lon="6.88951">
        <ele>1008.4</ele>
        <time>2022-06-26T08:02:51Z</time>
      </trkpt>
      <trkpt lat="48.03546" lon="6.88959">
        <ele>1008.6</ele>
        <time>2022-06-26T08:02:53Z</time>
      </trkpt>
      <trkpt lat="48.03542" lon="6.8897">
        <ele>1008.8</ele>
        <time>2022-06-26T08:02:56Z</time>
      </trkpt>
      <trkpt lat="48.0354" lon="6.88974">
        <ele>1009</ele>
        <time>2022-06-26T08:02:57Z</time>
      </trkpt>
      <trkpt lat="48.03529" lon="6.88999">
        <ele>1009.6</ele>
        <time>2022-06-26T08:03:03Z</time>
      </trkpt>
      <trkpt lat="48.03513" lon="6.89028">
        <ele>1010</ele>
        <time>2022-06-26T08:03:11Z</time>
      </trkpt>
      <trkpt lat="48.03504" lon="6.89043">
        <ele>1010.2</ele>
        <time>2022-06-26T08:03:15Z</time>
      </trkpt>
      <trkpt lat="48.03501" lon="6.89053">
        <ele>1010.2</ele>
        <time>2022-06-26T08:03:17Z</time>
      </trkpt>
      <trkpt lat="48.03493" lon="6.89088">
        <ele>1010.4</ele>
        <time>2022-06-26T08:03:24Z</time>
      </trkpt>
      <trkpt lat="48.0349" lon="6.89102">
        <ele>1010.4</ele>
        <time>2022-06-26T08:03:27Z</time>
      </trkpt>
      <trkpt lat="48.0349" lon="6.89106">
        <ele>1010.4</ele>
        <time>2022-06-26T08:03:28Z</time>
      </trkpt>
      <trkpt lat="48.03491" lon="6.89111">
        <ele>1010.4</ele>
        <time>2022-06-26T08:03:29Z</time>
      </trkpt>
      <trkpt lat="48.03491" lon="6.89115">
        <ele>1010.8</ele>
        <time>2022-06-26T08:03:30Z</time>
      </trkpt>
      <trkpt lat="48.03492" lon="6.89119">
        <ele>1010.8</ele>
        <time>2022-06-26T08:03:31Z</time>
      </trkpt>
      <trkpt lat="48.03494" lon="6.89124">
        <ele>1011</ele>
        <time>2022-06-26T08:03:32Z</time>
      </trkpt>
      <trkpt lat="48.03496" lon="6.89127">
        <ele>1011.2</ele>
        <time>2022-06-26T08:03:33Z</time>
      </trkpt>
      <trkpt lat="48.03498" lon="6.89129">
        <ele>1011.2</ele>
        <time>2022-06-26T08:03:34Z</time>
      </trkpt>
      <trkpt lat="48.03501" lon="6.89132">
        <ele>1011.4</ele>
        <time>2022-06-26T08:03:35Z</time>
      </trkpt>
      <trkpt lat="48.03505" lon="6.89134">
        <ele>1011.4</ele>
        <time>2022-06-26T08:03:36Z</time>
      </trkpt>
      <trkpt lat="48.03509" lon="6.89137">
        <ele>1011.4</ele>
        <time>2022-06-26T08:03:37Z</time>
      </trkpt>
      <trkpt lat="48.03512" lon="6.89141">
        <ele>1011.6</ele>
        <time>2022-06-26T08:03:38Z</time>
      </trkpt>
      <trkpt lat="48.03515" lon="6.89146">
        <ele>1011.6</ele>
        <time>2022-06-26T08:03:39Z</time>
      </trkpt>
      <trkpt lat="48.03519" lon="6.89156">
        <ele>1011.8</ele>
        <time>2022-06-26T08:03:41Z</time>
      </trkpt>
      <trkpt lat="48.0352" lon="6.89161">
        <ele>1011.8</ele>
        <time>2022-06-26T08:03:42Z</time>
      </trkpt>
      <trkpt lat="48.03521" lon="6.89172">
        <ele>1011.8</ele>
        <time>2022-06-26T08:03:44Z</time>
      </trkpt>
      <trkpt lat="48.03521" lon="6.89178">
        <ele>1011.8</ele>
        <time>2022-06-26T08:03:45Z</time>
      </trkpt>
      <trkpt lat="48.03521" lon="6.89184">
        <ele>1011.8</ele>
        <time>2022-06-26T08:03:46Z</time>
      </trkpt>
      <trkpt lat="48.03522" lon="6.8919">
        <ele>1011.8</ele>
        <time>2022-06-26T08:03:47Z</time>
      </trkpt>
      <trkpt lat="48.03524" lon="6.89197">
        <ele>1011.6</ele>
        <time>2022-06-26T08:03:48Z</time>
      </trkpt>
      <trkpt lat="48.03524" lon="6.89204">
        <ele>1011.6</ele>
        <time>2022-06-26T08:03:49Z</time>
      </trkpt>
      <trkpt lat="48.03523" lon="6.89211">
        <ele>1011.6</ele>
        <time>2022-06-26T08:03:50Z</time>
      </trkpt>
      <trkpt lat="48.03521" lon="6.89227">
        <ele>1011.4</ele>
        <time>2022-06-26T08:03:52Z</time>
      </trkpt>
      <trkpt lat="48.03519" lon="6.89232">
        <ele>1011.4</ele>
        <time>2022-06-26T08:03:53Z</time>
      </trkpt>
      <trkpt lat="48.03518" lon="6.89238">
        <ele>1011.2</ele>
        <time>2022-06-26T08:03:54Z</time>
      </trkpt>
      <trkpt lat="48.03516" lon="6.89249">
        <ele>1011.2</ele>
        <time>2022-06-26T08:03:56Z</time>
      </trkpt>
      <trkpt lat="48.03516" lon="6.89261">
        <ele>1010.8</ele>
        <time>2022-06-26T08:03:58Z</time>
      </trkpt>
      <trkpt lat="48.03517" lon="6.89267">
        <ele>1010.8</ele>
        <time>2022-06-26T08:03:59Z</time>
      </trkpt>
      <trkpt lat="48.03517" lon="6.89273">
        <ele>1010.8</ele>
        <time>2022-06-26T08:04:00Z</time>
      </trkpt>
      <trkpt lat="48.03517" lon="6.89278">
        <ele>1011</ele>
        <time>2022-06-26T08:04:01Z</time>
      </trkpt>
      <trkpt lat="48.03516" lon="6.89283">
        <ele>1011</ele>
        <time>2022-06-26T08:04:02Z</time>
      </trkpt>
      <trkpt lat="48.03515" lon="6.89288">
        <ele>1011.2</ele>
        <time>2022-06-26T08:04:03Z</time>
      </trkpt>
      <trkpt lat="48.03514" lon="6.89293">
        <ele>1011</ele>
        <time>2022-06-26T08:04:04Z</time>
      </trkpt>
      <trkpt lat="48.03514" lon="6.89298">
        <ele>1011.2</ele>
        <time>2022-06-26T08:04:05Z</time>
      </trkpt>
      <trkpt lat="48.03514" lon="6.89305">
        <ele>1011.2</ele>
        <time>2022-06-26T08:04:07Z</time>
      </trkpt>
      <trkpt lat="48.03515" lon="6.89308">
        <ele>1011.4</ele>
        <time>2022-06-26T08:04:08Z</time>
      </trkpt>
      <trkpt lat="48.03518" lon="6.89311">
        <ele>1011.4</ele>
        <time>2022-06-26T08:04:09Z</time>
      </trkpt>
      <trkpt lat="48.03521" lon="6.89313">
        <ele>1011.6</ele>
        <time>2022-06-26T08:04:10Z</time>
      </trkpt>
      <trkpt lat="48.03524" lon="6.89314">
        <ele>1011.8</ele>
        <time>2022-06-26T08:04:11Z</time>
      </trkpt>
      <trkpt lat="48.03526" lon="6.89314">
        <ele>1011.8</ele>
        <time>2022-06-26T08:04:12Z</time>
      </trkpt>
      <trkpt lat="48.03533" lon="6.89313">
        <ele>1012</ele>
        <time>2022-06-26T08:04:14Z</time>
      </trkpt>
      <trkpt lat="48.03551" lon="6.89309">
        <ele>1012.4</ele>
        <time>2022-06-26T08:04:19Z</time>
      </trkpt>
      <trkpt lat="48.03566" lon="6.89308">
        <ele>1012.6</ele>
        <time>2022-06-26T08:04:23Z</time>
      </trkpt>
      <trkpt lat="48.03576" lon="6.89305">
        <ele>1012.6</ele>
        <time>2022-06-26T08:04:25Z</time>
      </trkpt>
      <trkpt lat="48.03579" lon="6.89305">
        <ele>1012.6</ele>
        <time>2022-06-26T08:04:26Z</time>
      </trkpt>
      <trkpt lat="48.03583" lon="6.89304">
        <ele>1012.6</ele>
        <time>2022-06-26T08:04:27Z</time>
      </trkpt>
      <trkpt lat="48.03586" lon="6.89303">
        <ele>1012.6</ele>
        <time>2022-06-26T08:04:28Z</time>
      </trkpt>
      <trkpt lat="48.03589" lon="6.893">
        <ele>1012.6</ele>
        <time>2022-06-26T08:04:29Z</time>
      </trkpt>
      <trkpt lat="48.03619" lon="6.89289">
        <ele>1012.6</ele>
        <time>2022-06-26T08:04:36Z</time>
      </trkpt>
      <trkpt lat="48.03636" lon="6.89284">
        <ele>1012.6</ele>
        <time>2022-06-26T08:04:41Z</time>
      </trkpt>
      <trkpt lat="48.03646" lon="6.89283">
        <ele>1012.6</ele>
        <time>2022-06-26T08:04:44Z</time>
      </trkpt>
      <trkpt lat="48.03654" lon="6.89283">
        <ele>1012.8</ele>
        <time>2022-06-26T08:04:46Z</time>
      </trkpt>
      <trkpt lat="48.03667" lon="6.89287">
        <ele>1012.8</ele>
        <time>2022-06-26T08:04:50Z</time>
      </trkpt>
      <trkpt lat="48.0367" lon="6.89288">
        <ele>1012.8</ele>
        <time>2022-06-26T08:04:51Z</time>
      </trkpt>
      <trkpt lat="48.03694" lon="6.89296">
        <ele>1012.4</ele>
        <time>2022-06-26T08:04:57Z</time>
      </trkpt>
      <trkpt lat="48.037" lon="6.89297">
        <ele>1012.4</ele>
        <time>2022-06-26T08:04:59Z</time>
      </trkpt>
      <trkpt lat="48.03702" lon="6.89296">
        <ele>1012.4</ele>
        <time>2022-06-26T08:05:00Z</time>
      </trkpt>
      <trkpt lat="48.03706" lon="6.89297">
        <ele>1012.4</ele>
        <time>2022-06-26T08:05:01Z</time>
      </trkpt>
      <trkpt lat="48.03709" lon="6.89298">
        <ele>1012.4</ele>
        <time>2022-06-26T08:05:02Z</time>
      </trkpt>
      <trkpt lat="48.03713" lon="6.89301">
        <ele>1012.4</ele>
        <time>2022-06-26T08:05:03Z</time>
      </trkpt>
      <trkpt lat="48.03727" lon="6.89312">
        <ele>1012.2</ele>
        <time>2022-06-26T08:05:06Z</time>
      </trkpt>
      <trkpt lat="48.0374" lon="6.89322">
        <ele>1012.4</ele>
        <time>2022-06-26T08:05:10Z</time>
      </trkpt>
      <trkpt lat="48.03743" lon="6.89325">
        <ele>1012.4</ele>
        <time>2022-06-26T08:05:11Z</time>
      </trkpt>
      <trkpt lat="48.03769" lon="6.8934">
        <ele>1012.2</ele>
        <time>2022-06-26T08:05:17Z</time>
      </trkpt>
      <trkpt lat="48.03774" lon="6.89342">
        <ele>1012</ele>
        <time>2022-06-26T08:05:18Z</time>
      </trkpt>
      <trkpt lat="48.03779" lon="6.89344">
        <ele>1012</ele>
        <time>2022-06-26T08:05:19Z</time>
      </trkpt>
      <trkpt lat="48.038" lon="6.89353">
        <ele>1012</ele>
        <time>2022-06-26T08:05:24Z</time>
      </trkpt>
      <trkpt lat="48.0381" lon="6.89352">
        <ele>1012</ele>
        <time>2022-06-26T08:05:27Z</time>
      </trkpt>
      <trkpt lat="48.03812" lon="6.89353">
        <ele>1012</ele>
        <time>2022-06-26T08:05:28Z</time>
      </trkpt>
      <trkpt lat="48.03815" lon="6.89354">
        <ele>1012</ele>
        <time>2022-06-26T08:05:29Z</time>
      </trkpt>
      <trkpt lat="48.03818" lon="6.89358">
        <ele>1012.2</ele>
        <time>2022-06-26T08:05:30Z</time>
      </trkpt>
      <trkpt lat="48.03826" lon="6.89369">
        <ele>1012.4</ele>
        <time>2022-06-26T08:05:33Z</time>
      </trkpt>
      <trkpt lat="48.03827" lon="6.89373">
        <ele>1012.4</ele>
        <time>2022-06-26T08:05:34Z</time>
      </trkpt>
      <trkpt lat="48.03828" lon="6.8938">
        <ele>1012.6</ele>
        <time>2022-06-26T08:05:35Z</time>
      </trkpt>
      <trkpt lat="48.03827" lon="6.89391">
        <ele>1012.6</ele>
        <time>2022-06-26T08:05:37Z</time>
      </trkpt>
      <trkpt lat="48.03826" lon="6.89396">
        <ele>1012.8</ele>
        <time>2022-06-26T08:05:38Z</time>
      </trkpt>
      <trkpt lat="48.03824" lon="6.894">
        <ele>1012.8</ele>
        <time>2022-06-26T08:05:39Z</time>
      </trkpt>
      <trkpt lat="48.03817" lon="6.89417">
        <ele>1012.8</ele>
        <time>2022-06-26T08:05:43Z</time>
      </trkpt>
      <trkpt lat="48.03816" lon="6.89421">
        <ele>1013</ele>
        <time>2022-06-26T08:05:44Z</time>
      </trkpt>
      <trkpt lat="48.03811" lon="6.89431">
        <ele>1013.4</ele>
        <time>2022-06-26T08:05:47Z</time>
      </trkpt>
      <trkpt lat="48.0381" lon="6.89434">
        <ele>1013.4</ele>
        <time>2022-06-26T08:05:48Z</time>
      </trkpt>
      <trkpt lat="48.03808" lon="6.89438">
        <ele>1013.6</ele>
        <time>2022-06-26T08:05:49Z</time>
      </trkpt>
      <trkpt lat="48.03807" lon="6.89442">
        <ele>1013.8</ele>
        <time>2022-06-26T08:05:50Z</time>
      </trkpt>
      <trkpt lat="48.03806" lon="6.89447">
        <ele>1013.8</ele>
        <time>2022-06-26T08:05:51Z</time>
      </trkpt>
      <trkpt lat="48.03805" lon="6.89451">
        <ele>1014</ele>
        <time>2022-06-26T08:05:52Z</time>
      </trkpt>
      <trkpt lat="48.03804" lon="6.89455">
        <ele>1014.2</ele>
        <time>2022-06-26T08:05:53Z</time>
      </trkpt>
      <trkpt lat="48.03803" lon="6.89459">
        <ele>1014.2</ele>
        <time>2022-06-26T08:05:54Z</time>
      </trkpt>
      <trkpt lat="48.03801" lon="6.89462">
        <ele>1014.2</ele>
        <time>2022-06-26T08:05:55Z</time>
      </trkpt>
      <trkpt lat="48.03799" lon="6.89466">
        <ele>1014.2</ele>
        <time>2022-06-26T08:05:56Z</time>
      </trkpt>
      <trkpt lat="48.0379" lon="6.89482">
        <ele>1014.6</ele>
        <time>2022-06-26T08:06:01Z</time>
      </trkpt>
      <trkpt lat="48.03788" lon="6.89485">
        <ele>1014.6</ele>
        <time>2022-06-26T08:06:02Z</time>
      </trkpt>
      <trkpt lat="48.03786" lon="6.89487">
        <ele>1014.8</ele>
        <time>2022-06-26T08:06:03Z</time>
      </trkpt>
      <trkpt lat="48.03783" lon="6.89492">
        <ele>1014.8</ele>
        <time>2022-06-26T08:06:05Z</time>
      </trkpt>
      <trkpt lat="48.03781" lon="6.89494">
        <ele>1015</ele>
        <time>2022-06-26T08:06:06Z</time>
      </trkpt>
      <trkpt lat="48.03779" lon="6.89496">
        <ele>1015.2</ele>
        <time>2022-06-26T08:06:07Z</time>
      </trkpt>
      <trkpt lat="48.03777" lon="6.89498">
        <ele>1015.2</ele>
        <time>2022-06-26T08:06:08Z</time>
      </trkpt>
      <trkpt lat="48.03776" lon="6.895">
        <ele>1015.2</ele>
        <time>2022-06-26T08:06:09Z</time>
      </trkpt>
      <trkpt lat="48.03774" lon="6.89502">
        <ele>1015.2</ele>
        <time>2022-06-26T08:06:10Z</time>
      </trkpt>
      <trkpt lat="48.03772" lon="6.89505">
        <ele>1015.4</ele>
        <time>2022-06-26T08:06:11Z</time>
      </trkpt>
      <trkpt lat="48.0377" lon="6.89509">
        <ele>1015.4</ele>
        <time>2022-06-26T08:06:12Z</time>
      </trkpt>
      <trkpt lat="48.03766" lon="6.89517">
        <ele>1015.6</ele>
        <time>2022-06-26T08:06:14Z</time>
      </trkpt>
      <trkpt lat="48.03761" lon="6.89523">
        <ele>1015.8</ele>
        <time>2022-06-26T08:06:16Z</time>
      </trkpt>
      <trkpt lat="48.03759" lon="6.89526">
        <ele>1016</ele>
        <time>2022-06-26T08:06:17Z</time>
      </trkpt>
      <trkpt lat="48.03758" lon="6.8953">
        <ele>1016.2</ele>
        <time>2022-06-26T08:06:18Z</time>
      </trkpt>
      <trkpt lat="48.03758" lon="6.89534">
        <ele>1016.2</ele>
        <time>2022-06-26T08:06:19Z</time>
      </trkpt>
      <trkpt lat="48.03757" lon="6.89538">
        <ele>1016.4</ele>
        <time>2022-06-26T08:06:20Z</time>
      </trkpt>
      <trkpt lat="48.03755" lon="6.89542">
        <ele>1016.6</ele>
        <time>2022-06-26T08:06:21Z</time>
      </trkpt>
      <trkpt lat="48.03753" lon="6.89546">
        <ele>1016.6</ele>
        <time>2022-06-26T08:06:22Z</time>
      </trkpt>
      <trkpt lat="48.03751" lon="6.8955">
        <ele>1016.8</ele>
        <time>2022-06-26T08:06:23Z</time>
      </trkpt>
      <trkpt lat="48.0375" lon="6.89554">
        <ele>1016.8</ele>
        <time>2022-06-26T08:06:24Z</time>
      </trkpt>
      <trkpt lat="48.03748" lon="6.89557">
        <ele>1016.8</ele>
        <time>2022-06-26T08:06:25Z</time>
      </trkpt>
      <trkpt lat="48.03747" lon="6.89562">
        <ele>1017</ele>
        <time>2022-06-26T08:06:26Z</time>
      </trkpt>
      <trkpt lat="48.03746" lon="6.89567">
        <ele>1017</ele>
        <time>2022-06-26T08:06:27Z</time>
      </trkpt>
      <trkpt lat="48.03741" lon="6.89579">
        <ele>1017</ele>
        <time>2022-06-26T08:06:30Z</time>
      </trkpt>
      <trkpt lat="48.03737" lon="6.89587">
        <ele>1016.8</ele>
        <time>2022-06-26T08:06:32Z</time>
      </trkpt>
      <trkpt lat="48.03734" lon="6.8959">
        <ele>1016.8</ele>
        <time>2022-06-26T08:06:33Z</time>
      </trkpt>
      <trkpt lat="48.03727" lon="6.89609">
        <ele>1017</ele>
        <time>2022-06-26T08:06:37Z</time>
      </trkpt>
      <trkpt lat="48.03725" lon="6.89614">
        <ele>1017</ele>
        <time>2022-06-26T08:06:38Z</time>
      </trkpt>
      <trkpt lat="48.03723" lon="6.89618">
        <ele>1017</ele>
        <time>2022-06-26T08:06:39Z</time>
      </trkpt>
      <trkpt lat="48.03715" lon="6.89632">
        <ele>1017.4</ele>
        <time>2022-06-26T08:06:43Z</time>
      </trkpt>
      <trkpt lat="48.03701" lon="6.89658">
        <ele>1017.6</ele>
        <time>2022-06-26T08:06:50Z</time>
      </trkpt>
      <trkpt lat="48.037" lon="6.89662">
        <ele>1017.6</ele>
        <time>2022-06-26T08:06:51Z</time>
      </trkpt>
      <trkpt lat="48.03699" lon="6.89666">
        <ele>1017.8</ele>
        <time>2022-06-26T08:06:52Z</time>
      </trkpt>
      <trkpt lat="48.03696" lon="6.89679">
        <ele>1018.6</ele>
        <time>2022-06-26T08:06:55Z</time>
      </trkpt>
      <trkpt lat="48.03696" lon="6.89684">
        <ele>1018.6</ele>
        <time>2022-06-26T08:06:56Z</time>
      </trkpt>
      <trkpt lat="48.03697" lon="6.89688">
        <ele>1018.6</ele>
        <time>2022-06-26T08:06:57Z</time>
      </trkpt>
      <trkpt lat="48.03698" lon="6.89691">
        <ele>1018.6</ele>
        <time>2022-06-26T08:06:58Z</time>
      </trkpt>
      <trkpt lat="48.037" lon="6.89694">
        <ele>1018.6</ele>
        <time>2022-06-26T08:06:59Z</time>
      </trkpt>
      <trkpt lat="48.03701" lon="6.89697">
        <ele>1018.6</ele>
        <time>2022-06-26T08:07:00Z</time>
      </trkpt>
      <trkpt lat="48.03702" lon="6.89699">
        <ele>1018.6</ele>
        <time>2022-06-26T08:07:01Z</time>
      </trkpt>
      <trkpt lat="48.03703" lon="6.89702">
        <ele>1018.6</ele>
        <time>2022-06-26T08:07:02Z</time>
      </trkpt>
      <trkpt lat="48.03703" lon="6.89704">
        <ele>1018.6</ele>
        <time>2022-06-26T08:07:03Z</time>
      </trkpt>
      <trkpt lat="48.03703" lon="6.89706">
        <ele>1018.6</ele>
        <time>2022-06-26T08:07:04Z</time>
      </trkpt>
      <trkpt lat="48.03703" lon="6.89707">
        <ele>1018.6</ele>
        <time>2022-06-26T08:07:05Z</time>
      </trkpt>
      <trkpt lat="48.03703" lon="6.89707">
        <ele>1018.6</ele>
        <time>2022-06-26T08:07:06Z</time>
      </trkpt>
      <trkpt lat="48.03703" lon="6.89707">
        <ele>1018.6</ele>
        <time>2022-06-26T08:07:07Z</time>
      </trkpt>
      <trkpt lat="48.03701" lon="6.89707">
        <ele>1018.6</ele>
        <time>2022-06-26T08:07:14Z</time>
      </trkpt>
      <trkpt lat="48.03701" lon="6.89707">
        <ele>1018.6</ele>
        <time>2022-06-26T08:07:15Z</time>
      </trkpt>
      <trkpt lat="48.03701" lon="6.89707">
        <ele>1018</ele>
        <time>2022-06-26T08:07:29Z</time>
      </trkpt>
      <trkpt lat="48.03701" lon="6.89707">
        <ele>1016.8</ele>
        <time>2022-06-26T08:09:01Z</time>
      </trkpt>
      <trkpt lat="48.03701" lon="6.89707">
        <ele>1015.6</ele>
        <time>2022-06-26T08:09:19Z</time>
      </trkpt>
      <trkpt lat="48.03701" lon="6.89707">
        <ele>1014.8</ele>
        <time>2022-06-26T08:09:32Z</time>
      </trkpt>
      <trkpt lat="48.03701" lon="6.89707">
        <ele>1014.6</ele>
        <time>2022-06-26T08:09:36Z</time>
      </trkpt>
      <trkpt lat="48.03701" lon="6.89707">
        <ele>1013.6</ele>
        <time>2022-06-26T08:09:56Z</time>
      </trkpt>
      <trkpt lat="48.03701" lon="6.89707">
        <ele>1012.6</ele>
        <time>2022-06-26T08:10:16Z</time>
      </trkpt>
      <trkpt lat="48.03701" lon="6.89707">
        <ele>1011.6</ele>
        <time>2022-06-26T08:10:43Z</time>
      </trkpt>
      <trkpt lat="48.03701" lon="6.89707">
        <ele>1010.2</ele>
        <time>2022-06-26T08:11:18Z</time>
      </trkpt>
      <trkpt lat="48.03699" lon="6.89709">
        <ele>1009.8</ele>
        <time>2022-06-26T08:11:33Z</time>
      </trkpt>
      <trkpt lat="48.03698" lon="6.8971">
        <ele>1009.8</ele>
        <time>2022-06-26T08:11:34Z</time>
      </trkpt>
      <trkpt lat="48.03697" lon="6.89712">
        <ele>1009.8</ele>
        <time>2022-06-26T08:11:35Z</time>
      </trkpt>
      <trkpt lat="48.03686" lon="6.89724">
        <ele>1009.6</ele>
        <time>2022-06-26T08:11:41Z</time>
      </trkpt>
      <trkpt lat="48.03682" lon="6.89728">
        <ele>1009.4</ele>
        <time>2022-06-26T08:11:43Z</time>
      </trkpt>
      <trkpt lat="48.0368" lon="6.8973">
        <ele>1009.6</ele>
        <time>2022-06-26T08:11:44Z</time>
      </trkpt>
      <trkpt lat="48.03671" lon="6.89736">
        <ele>1009.8</ele>
        <time>2022-06-26T08:11:47Z</time>
      </trkpt>
      <trkpt lat="48.03658" lon="6.89745">
        <ele>1009.8</ele>
        <time>2022-06-26T08:11:51Z</time>
      </trkpt>
      <trkpt lat="48.03656" lon="6.89748">
        <ele>1010</ele>
        <time>2022-06-26T08:11:52Z</time>
      </trkpt>
      <trkpt lat="48.03654" lon="6.89751">
        <ele>1011.8</ele>
        <time>2022-06-26T08:11:53Z</time>
      </trkpt>
      <trkpt lat="48.03652" lon="6.89754">
        <ele>1013</ele>
        <time>2022-06-26T08:11:54Z</time>
      </trkpt>
      <trkpt lat="48.03649" lon="6.89758">
        <ele>1014.8</ele>
        <time>2022-06-26T08:11:55Z</time>
      </trkpt>
      <trkpt lat="48.03645" lon="6.89765">
        <ele>1016.2</ele>
        <time>2022-06-26T08:11:57Z</time>
      </trkpt>
      <trkpt lat="48.03644" lon="6.89769">
        <ele>1016.4</ele>
        <time>2022-06-26T08:11:58Z</time>
      </trkpt>
      <trkpt lat="48.03644" lon="6.89773">
        <ele>1017</ele>
        <time>2022-06-26T08:11:59Z</time>
      </trkpt>
      <trkpt lat="48.03645" lon="6.89777">
        <ele>1017.2</ele>
        <time>2022-06-26T08:12:00Z</time>
      </trkpt>
      <trkpt lat="48.03647" lon="6.89781">
        <ele>1017.4</ele>
        <time>2022-06-26T08:12:01Z</time>
      </trkpt>
      <trkpt lat="48.03648" lon="6.89785">
        <ele>1017.4</ele>
        <time>2022-06-26T08:12:02Z</time>
      </trkpt>
      <trkpt lat="48.03651" lon="6.89788">
        <ele>1017.4</ele>
        <time>2022-06-26T08:12:03Z</time>
      </trkpt>
      <trkpt lat="48.03654" lon="6.89791">
        <ele>1017.4</ele>
        <time>2022-06-26T08:12:04Z</time>
      </trkpt>
      <trkpt lat="48.03656" lon="6.89795">
        <ele>1017.4</ele>
        <time>2022-06-26T08:12:05Z</time>
      </trkpt>
      <trkpt lat="48.0366" lon="6.898">
        <ele>1017.4</ele>
        <time>2022-06-26T08:12:06Z</time>
      </trkpt>
      <trkpt lat="48.03664" lon="6.89805">
        <ele>1017.4</ele>
        <time>2022-06-26T08:12:07Z</time>
      </trkpt>
      <trkpt lat="48.03668" lon="6.8981">
        <ele>1017.2</ele>
        <time>2022-06-26T08:12:08Z</time>
      </trkpt>
      <trkpt lat="48.03672" lon="6.89816">
        <ele>1017.2</ele>
        <time>2022-06-26T08:12:09Z</time>
      </trkpt>
      <trkpt lat="48.03676" lon="6.89821">
        <ele>1016.8</ele>
        <time>2022-06-26T08:12:10Z</time>
      </trkpt>
      <trkpt lat="48.0368" lon="6.89827">
        <ele>1015.8</ele>
        <time>2022-06-26T08:12:11Z</time>
      </trkpt>
      <trkpt lat="48.03685" lon="6.89832">
        <ele>1015.4</ele>
        <time>2022-06-26T08:12:12Z</time>
      </trkpt>
      <trkpt lat="48.03689" lon="6.89839">
        <ele>1014.8</ele>
        <time>2022-06-26T08:12:13Z</time>
      </trkpt>
      <trkpt lat="48.03693" lon="6.89847">
        <ele>1014.4</ele>
        <time>2022-06-26T08:12:14Z</time>
      </trkpt>
      <trkpt lat="48.03697" lon="6.89853">
        <ele>1014.2</ele>
        <time>2022-06-26T08:12:15Z</time>
      </trkpt>
      <trkpt lat="48.03702" lon="6.89862">
        <ele>1014</ele>
        <time>2022-06-26T08:12:16Z</time>
      </trkpt>
      <trkpt lat="48.03707" lon="6.89869">
        <ele>1013.8</ele>
        <time>2022-06-26T08:12:17Z</time>
      </trkpt>
      <trkpt lat="48.03712" lon="6.89874">
        <ele>1013.6</ele>
        <time>2022-06-26T08:12:18Z</time>
      </trkpt>
      <trkpt lat="48.03718" lon="6.89877">
        <ele>1013.4</ele>
        <time>2022-06-26T08:12:19Z</time>
      </trkpt>
      <trkpt lat="48.03725" lon="6.89882">
        <ele>1012.8</ele>
        <time>2022-06-26T08:12:20Z</time>
      </trkpt>
      <trkpt lat="48.03732" lon="6.89886">
        <ele>1012.8</ele>
        <time>2022-06-26T08:12:21Z</time>
      </trkpt>
      <trkpt lat="48.0374" lon="6.89891">
        <ele>1011.4</ele>
        <time>2022-06-26T08:12:22Z</time>
      </trkpt>
      <trkpt lat="48.03757" lon="6.89904">
        <ele>1010.4</ele>
        <time>2022-06-26T08:12:24Z</time>
      </trkpt>
      <trkpt lat="48.03774" lon="6.89922">
        <ele>1009.4</ele>
        <time>2022-06-26T08:12:26Z</time>
      </trkpt>
      <trkpt lat="48.03782" lon="6.89932">
        <ele>1008.8</ele>
        <time>2022-06-26T08:12:27Z</time>
      </trkpt>
      <trkpt lat="48.0379" lon="6.89942">
        <ele>1007.6</ele>
        <time>2022-06-26T08:12:28Z</time>
      </trkpt>
      <trkpt lat="48.03805" lon="6.89965">
        <ele>1006.2</ele>
        <time>2022-06-26T08:12:30Z</time>
      </trkpt>
      <trkpt lat="48.03819" lon="6.89987">
        <ele>1005</ele>
        <time>2022-06-26T08:12:32Z</time>
      </trkpt>
      <trkpt lat="48.03828" lon="6.89998">
        <ele>1004</ele>
        <time>2022-06-26T08:12:33Z</time>
      </trkpt>
      <trkpt lat="48.03836" lon="6.90009">
        <ele>1002.8</ele>
        <time>2022-06-26T08:12:34Z</time>
      </trkpt>
      <trkpt lat="48.03847" lon="6.90018">
        <ele>1000.8</ele>
        <time>2022-06-26T08:12:35Z</time>
      </trkpt>
      <trkpt lat="48.03856" lon="6.90029">
        <ele>1000.4</ele>
        <time>2022-06-26T08:12:36Z</time>
      </trkpt>
      <trkpt lat="48.03864" lon="6.90039">
        <ele>999.8</ele>
        <time>2022-06-26T08:12:37Z</time>
      </trkpt>
      <trkpt lat="48.03877" lon="6.9006">
        <ele>998.8</ele>
        <time>2022-06-26T08:12:39Z</time>
      </trkpt>
      <trkpt lat="48.03884" lon="6.90064">
        <ele>997.6</ele>
        <time>2022-06-26T08:12:40Z</time>
      </trkpt>
      <trkpt lat="48.03891" lon="6.90066">
        <ele>996.4</ele>
        <time>2022-06-26T08:12:41Z</time>
      </trkpt>
      <trkpt lat="48.03898" lon="6.90067">
        <ele>994.8</ele>
        <time>2022-06-26T08:12:42Z</time>
      </trkpt>
      <trkpt lat="48.03905" lon="6.90068">
        <ele>994.2</ele>
        <time>2022-06-26T08:12:43Z</time>
      </trkpt>
      <trkpt lat="48.03909" lon="6.90072">
        <ele>992.8</ele>
        <time>2022-06-26T08:12:44Z</time>
      </trkpt>
      <trkpt lat="48.03913" lon="6.90076">
        <ele>991.8</ele>
        <time>2022-06-26T08:12:45Z</time>
      </trkpt>
      <trkpt lat="48.03915" lon="6.9008">
        <ele>991.6</ele>
        <time>2022-06-26T08:12:46Z</time>
      </trkpt>
      <trkpt lat="48.03917" lon="6.90087">
        <ele>991</ele>
        <time>2022-06-26T08:12:47Z</time>
      </trkpt>
      <trkpt lat="48.03916" lon="6.90094">
        <ele>991</ele>
        <time>2022-06-26T08:12:48Z</time>
      </trkpt>
      <trkpt lat="48.03914" lon="6.90104">
        <ele>990.8</ele>
        <time>2022-06-26T08:12:49Z</time>
      </trkpt>
      <trkpt lat="48.03912" lon="6.9011">
        <ele>990.6</ele>
        <time>2022-06-26T08:12:50Z</time>
      </trkpt>
      <trkpt lat="48.03908" lon="6.90121">
        <ele>990.8</ele>
        <time>2022-06-26T08:12:52Z</time>
      </trkpt>
      <trkpt lat="48.03905" lon="6.90125">
        <ele>990.8</ele>
        <time>2022-06-26T08:12:53Z</time>
      </trkpt>
      <trkpt lat="48.03903" lon="6.90128">
        <ele>991</ele>
        <time>2022-06-26T08:12:54Z</time>
      </trkpt>
      <trkpt lat="48.03901" lon="6.90131">
        <ele>991</ele>
        <time>2022-06-26T08:12:55Z</time>
      </trkpt>
      <trkpt lat="48.03899" lon="6.90135">
        <ele>991.2</ele>
        <time>2022-06-26T08:12:56Z</time>
      </trkpt>
      <trkpt lat="48.03897" lon="6.90138">
        <ele>991.4</ele>
        <time>2022-06-26T08:12:57Z</time>
      </trkpt>
      <trkpt lat="48.03895" lon="6.90141">
        <ele>992</ele>
        <time>2022-06-26T08:12:58Z</time>
      </trkpt>
      <trkpt lat="48.03893" lon="6.90144">
        <ele>992.2</ele>
        <time>2022-06-26T08:12:59Z</time>
      </trkpt>
      <trkpt lat="48.03889" lon="6.90151">
        <ele>992.6</ele>
        <time>2022-06-26T08:13:01Z</time>
      </trkpt>
      <trkpt lat="48.03888" lon="6.90154">
        <ele>993</ele>
        <time>2022-06-26T08:13:02Z</time>
      </trkpt>
      <trkpt lat="48.03888" lon="6.90159">
        <ele>993.2</ele>
        <time>2022-06-26T08:13:03Z</time>
      </trkpt>
      <trkpt lat="48.03888" lon="6.90164">
        <ele>993.4</ele>
        <time>2022-06-26T08:13:04Z</time>
      </trkpt>
      <trkpt lat="48.03888" lon="6.90168">
        <ele>993.6</ele>
        <time>2022-06-26T08:13:05Z</time>
      </trkpt>
      <trkpt lat="48.03888" lon="6.90171">
        <ele>993.8</ele>
        <time>2022-06-26T08:13:06Z</time>
      </trkpt>
      <trkpt lat="48.03888" lon="6.90174">
        <ele>994</ele>
        <time>2022-06-26T08:13:07Z</time>
      </trkpt>
      <trkpt lat="48.03889" lon="6.90179">
        <ele>994.2</ele>
        <time>2022-06-26T08:13:08Z</time>
      </trkpt>
      <trkpt lat="48.03891" lon="6.90183">
        <ele>994.4</ele>
        <time>2022-06-26T08:13:09Z</time>
      </trkpt>
      <trkpt lat="48.03892" lon="6.90188">
        <ele>994.6</ele>
        <time>2022-06-26T08:13:10Z</time>
      </trkpt>
      <trkpt lat="48.03893" lon="6.90193">
        <ele>994.6</ele>
        <time>2022-06-26T08:13:11Z</time>
      </trkpt>
      <trkpt lat="48.03896" lon="6.90197">
        <ele>994.8</ele>
        <time>2022-06-26T08:13:12Z</time>
      </trkpt>
      <trkpt lat="48.03897" lon="6.902">
        <ele>995</ele>
        <time>2022-06-26T08:13:13Z</time>
      </trkpt>
      <trkpt lat="48.03897" lon="6.90203">
        <ele>995.2</ele>
        <time>2022-06-26T08:13:14Z</time>
      </trkpt>
      <trkpt lat="48.03897" lon="6.90207">
        <ele>995.4</ele>
        <time>2022-06-26T08:13:15Z</time>
      </trkpt>
      <trkpt lat="48.03897" lon="6.9021">
        <ele>995.6</ele>
        <time>2022-06-26T08:13:16Z</time>
      </trkpt>
      <trkpt lat="48.03898" lon="6.90214">
        <ele>995.6</ele>
        <time>2022-06-26T08:13:17Z</time>
      </trkpt>
      <trkpt lat="48.03898" lon="6.90217">
        <ele>995.8</ele>
        <time>2022-06-26T08:13:18Z</time>
      </trkpt>
      <trkpt lat="48.03897" lon="6.9022">
        <ele>996</ele>
        <time>2022-06-26T08:13:19Z</time>
      </trkpt>
      <trkpt lat="48.03897" lon="6.90224">
        <ele>996</ele>
        <time>2022-06-26T08:13:20Z</time>
      </trkpt>
      <trkpt lat="48.03898" lon="6.90227">
        <ele>996.2</ele>
        <time>2022-06-26T08:13:21Z</time>
      </trkpt>
      <trkpt lat="48.039" lon="6.9023">
        <ele>996.2</ele>
        <time>2022-06-26T08:13:22Z</time>
      </trkpt>
      <trkpt lat="48.03901" lon="6.90233">
        <ele>996.4</ele>
        <time>2022-06-26T08:13:23Z</time>
      </trkpt>
      <trkpt lat="48.03901" lon="6.90236">
        <ele>996.6</ele>
        <time>2022-06-26T08:13:24Z</time>
      </trkpt>
      <trkpt lat="48.03902" lon="6.9024">
        <ele>997</ele>
        <time>2022-06-26T08:13:25Z</time>
      </trkpt>
      <trkpt lat="48.03903" lon="6.90243">
        <ele>997.2</ele>
        <time>2022-06-26T08:13:26Z</time>
      </trkpt>
      <trkpt lat="48.03904" lon="6.90245">
        <ele>997.6</ele>
        <time>2022-06-26T08:13:27Z</time>
      </trkpt>
      <trkpt lat="48.03905" lon="6.90246">
        <ele>997.6</ele>
        <time>2022-06-26T08:13:28Z</time>
      </trkpt>
      <trkpt lat="48.03905" lon="6.90249">
        <ele>997.8</ele>
        <time>2022-06-26T08:13:29Z</time>
      </trkpt>
      <trkpt lat="48.03906" lon="6.90254">
        <ele>998.2</ele>
        <time>2022-06-26T08:13:30Z</time>
      </trkpt>
      <trkpt lat="48.03906" lon="6.90257">
        <ele>998.2</ele>
        <time>2022-06-26T08:13:31Z</time>
      </trkpt>
      <trkpt lat="48.03908" lon="6.9026">
        <ele>998.4</ele>
        <time>2022-06-26T08:13:32Z</time>
      </trkpt>
      <trkpt lat="48.03909" lon="6.90263">
        <ele>998.6</ele>
        <time>2022-06-26T08:13:33Z</time>
      </trkpt>
      <trkpt lat="48.0391" lon="6.90266">
        <ele>998.6</ele>
        <time>2022-06-26T08:13:34Z</time>
      </trkpt>
      <trkpt lat="48.0391" lon="6.90269">
        <ele>998.8</ele>
        <time>2022-06-26T08:13:35Z</time>
      </trkpt>
      <trkpt lat="48.03909" lon="6.90272">
        <ele>998.8</ele>
        <time>2022-06-26T08:13:36Z</time>
      </trkpt>
      <trkpt lat="48.03909" lon="6.90275">
        <ele>999</ele>
        <time>2022-06-26T08:13:37Z</time>
      </trkpt>
      <trkpt lat="48.03908" lon="6.90278">
        <ele>999.2</ele>
        <time>2022-06-26T08:13:38Z</time>
      </trkpt>
      <trkpt lat="48.03907" lon="6.90281">
        <ele>999.4</ele>
        <time>2022-06-26T08:13:39Z</time>
      </trkpt>
      <trkpt lat="48.03906" lon="6.90284">
        <ele>999.4</ele>
        <time>2022-06-26T08:13:40Z</time>
      </trkpt>
      <trkpt lat="48.03905" lon="6.90288">
        <ele>999.4</ele>
        <time>2022-06-26T08:13:41Z</time>
      </trkpt>
      <trkpt lat="48.03904" lon="6.90292">
        <ele>999.4</ele>
        <time>2022-06-26T08:13:42Z</time>
      </trkpt>
      <trkpt lat="48.03904" lon="6.90297">
        <ele>999.4</ele>
        <time>2022-06-26T08:13:43Z</time>
      </trkpt>
      <trkpt lat="48.03904" lon="6.90302">
        <ele>999.4</ele>
        <time>2022-06-26T08:13:44Z</time>
      </trkpt>
      <trkpt lat="48.03904" lon="6.9031">
        <ele>999.4</ele>
        <time>2022-06-26T08:13:45Z</time>
      </trkpt>
      <trkpt lat="48.03905" lon="6.90318">
        <ele>999.4</ele>
        <time>2022-06-26T08:13:46Z</time>
      </trkpt>
      <trkpt lat="48.03905" lon="6.90326">
        <ele>999.2</ele>
        <time>2022-06-26T08:13:47Z</time>
      </trkpt>
      <trkpt lat="48.03907" lon="6.90336">
        <ele>998.6</ele>
        <time>2022-06-26T08:13:48Z</time>
      </trkpt>
      <trkpt lat="48.0391" lon="6.90346">
        <ele>998.4</ele>
        <time>2022-06-26T08:13:49Z</time>
      </trkpt>
      <trkpt lat="48.03914" lon="6.90356">
        <ele>998</ele>
        <time>2022-06-26T08:13:50Z</time>
      </trkpt>
      <trkpt lat="48.03917" lon="6.90363">
        <ele>997.6</ele>
        <time>2022-06-26T08:13:51Z</time>
      </trkpt>
      <trkpt lat="48.03923" lon="6.90374">
        <ele>996.8</ele>
        <time>2022-06-26T08:13:52Z</time>
      </trkpt>
      <trkpt lat="48.03929" lon="6.90382">
        <ele>996.6</ele>
        <time>2022-06-26T08:13:53Z</time>
      </trkpt>
      <trkpt lat="48.03935" lon="6.90388">
        <ele>996.2</ele>
        <time>2022-06-26T08:13:54Z</time>
      </trkpt>
      <trkpt lat="48.03942" lon="6.9039">
        <ele>996</ele>
        <time>2022-06-26T08:13:55Z</time>
      </trkpt>
      <trkpt lat="48.0395" lon="6.90389">
        <ele>995.6</ele>
        <time>2022-06-26T08:13:56Z</time>
      </trkpt>
      <trkpt lat="48.03959" lon="6.90386">
        <ele>994.4</ele>
        <time>2022-06-26T08:13:57Z</time>
      </trkpt>
      <trkpt lat="48.03968" lon="6.90381">
        <ele>994</ele>
        <time>2022-06-26T08:13:58Z</time>
      </trkpt>
      <trkpt lat="48.03976" lon="6.90375">
        <ele>993.6</ele>
        <time>2022-06-26T08:13:59Z</time>
      </trkpt>
      <trkpt lat="48.03984" lon="6.90369">
        <ele>993.4</ele>
        <time>2022-06-26T08:14:00Z</time>
      </trkpt>
      <trkpt lat="48.03994" lon="6.90361">
        <ele>992.6</ele>
        <time>2022-06-26T08:14:02Z</time>
      </trkpt>
      <trkpt lat="48.03998" lon="6.9036">
        <ele>991.8</ele>
        <time>2022-06-26T08:14:03Z</time>
      </trkpt>
      <trkpt lat="48.04001" lon="6.90361">
        <ele>991.2</ele>
        <time>2022-06-26T08:14:04Z</time>
      </trkpt>
      <trkpt lat="48.04003" lon="6.90365">
        <ele>991</ele>
        <time>2022-06-26T08:14:05Z</time>
      </trkpt>
      <trkpt lat="48.04002" lon="6.90371">
        <ele>990.6</ele>
        <time>2022-06-26T08:14:06Z</time>
      </trkpt>
      <trkpt lat="48.04001" lon="6.90378">
        <ele>990.2</ele>
        <time>2022-06-26T08:14:07Z</time>
      </trkpt>
      <trkpt lat="48.03998" lon="6.90385">
        <ele>989.8</ele>
        <time>2022-06-26T08:14:08Z</time>
      </trkpt>
      <trkpt lat="48.03995" lon="6.90391">
        <ele>989.6</ele>
        <time>2022-06-26T08:14:09Z</time>
      </trkpt>
      <trkpt lat="48.03988" lon="6.90403">
        <ele>989.2</ele>
        <time>2022-06-26T08:14:11Z</time>
      </trkpt>
      <trkpt lat="48.03982" lon="6.9042">
        <ele>988.6</ele>
        <time>2022-06-26T08:14:13Z</time>
      </trkpt>
      <trkpt lat="48.03977" lon="6.90438">
        <ele>987.6</ele>
        <time>2022-06-26T08:14:15Z</time>
      </trkpt>
      <trkpt lat="48.03974" lon="6.90449">
        <ele>987.2</ele>
        <time>2022-06-26T08:14:16Z</time>
      </trkpt>
      <trkpt lat="48.03971" lon="6.90472">
        <ele>986.6</ele>
        <time>2022-06-26T08:14:18Z</time>
      </trkpt>
      <trkpt lat="48.03968" lon="6.90484">
        <ele>985.4</ele>
        <time>2022-06-26T08:14:19Z</time>
      </trkpt>
      <trkpt lat="48.03963" lon="6.90513">
        <ele>983.8</ele>
        <time>2022-06-26T08:14:21Z</time>
      </trkpt>
      <trkpt lat="48.03961" lon="6.90524">
        <ele>982.8</ele>
        <time>2022-06-26T08:14:22Z</time>
      </trkpt>
      <trkpt lat="48.03957" lon="6.90537">
        <ele>982.2</ele>
        <time>2022-06-26T08:14:23Z</time>
      </trkpt>
      <trkpt lat="48.03953" lon="6.90549">
        <ele>981.6</ele>
        <time>2022-06-26T08:14:24Z</time>
      </trkpt>
      <trkpt lat="48.03944" lon="6.90578">
        <ele>980.2</ele>
        <time>2022-06-26T08:14:26Z</time>
      </trkpt>
      <trkpt lat="48.0394" lon="6.90591">
        <ele>979.6</ele>
        <time>2022-06-26T08:14:27Z</time>
      </trkpt>
      <trkpt lat="48.03936" lon="6.90605">
        <ele>978.2</ele>
        <time>2022-06-26T08:14:28Z</time>
      </trkpt>
      <trkpt lat="48.03927" lon="6.90632">
        <ele>976.6</ele>
        <time>2022-06-26T08:14:30Z</time>
      </trkpt>
      <trkpt lat="48.0392" lon="6.90659">
        <ele>975.4</ele>
        <time>2022-06-26T08:14:32Z</time>
      </trkpt>
      <trkpt lat="48.03918" lon="6.90672">
        <ele>974.2</ele>
        <time>2022-06-26T08:14:33Z</time>
      </trkpt>
      <trkpt lat="48.03918" lon="6.90684">
        <ele>973.6</ele>
        <time>2022-06-26T08:14:34Z</time>
      </trkpt>
      <trkpt lat="48.03921" lon="6.90695">
        <ele>973.2</ele>
        <time>2022-06-26T08:14:35Z</time>
      </trkpt>
      <trkpt lat="48.03923" lon="6.90705">
        <ele>973</ele>
        <time>2022-06-26T08:14:36Z</time>
      </trkpt>
      <trkpt lat="48.03926" lon="6.90712">
        <ele>973</ele>
        <time>2022-06-26T08:14:37Z</time>
      </trkpt>
      <trkpt lat="48.03928" lon="6.90718">
        <ele>973</ele>
        <time>2022-06-26T08:14:38Z</time>
      </trkpt>
      <trkpt lat="48.0393" lon="6.90723">
        <ele>973</ele>
        <time>2022-06-26T08:14:39Z</time>
      </trkpt>
      <trkpt lat="48.03931" lon="6.90727">
        <ele>973</ele>
        <time>2022-06-26T08:14:40Z</time>
      </trkpt>
      <trkpt lat="48.03934" lon="6.90731">
        <ele>973.2</ele>
        <time>2022-06-26T08:14:41Z</time>
      </trkpt>
      <trkpt lat="48.03935" lon="6.90735">
        <ele>973.8</ele>
        <time>2022-06-26T08:14:42Z</time>
      </trkpt>
      <trkpt lat="48.03936" lon="6.90738">
        <ele>974.2</ele>
        <time>2022-06-26T08:14:43Z</time>
      </trkpt>
      <trkpt lat="48.03938" lon="6.90742">
        <ele>974.6</ele>
        <time>2022-06-26T08:14:44Z</time>
      </trkpt>
      <trkpt lat="48.03939" lon="6.90745">
        <ele>974.8</ele>
        <time>2022-06-26T08:14:45Z</time>
      </trkpt>
      <trkpt lat="48.03939" lon="6.90748">
        <ele>975.2</ele>
        <time>2022-06-26T08:14:46Z</time>
      </trkpt>
      <trkpt lat="48.03939" lon="6.90751">
        <ele>975.6</ele>
        <time>2022-06-26T08:14:47Z</time>
      </trkpt>
      <trkpt lat="48.0394" lon="6.90754">
        <ele>976.2</ele>
        <time>2022-06-26T08:14:48Z</time>
      </trkpt>
      <trkpt lat="48.03946" lon="6.9076">
        <ele>976.8</ele>
        <time>2022-06-26T08:14:50Z</time>
      </trkpt>
      <trkpt lat="48.03948" lon="6.90764">
        <ele>977</ele>
        <time>2022-06-26T08:14:51Z</time>
      </trkpt>
      <trkpt lat="48.03953" lon="6.9077">
        <ele>977.4</ele>
        <time>2022-06-26T08:14:53Z</time>
      </trkpt>
      <trkpt lat="48.03959" lon="6.90784">
        <ele>977.8</ele>
        <time>2022-06-26T08:14:56Z</time>
      </trkpt>
      <trkpt lat="48.03962" lon="6.90795">
        <ele>978</ele>
        <time>2022-06-26T08:14:58Z</time>
      </trkpt>
      <trkpt lat="48.03964" lon="6.90799">
        <ele>978</ele>
        <time>2022-06-26T08:14:59Z</time>
      </trkpt>
      <trkpt lat="48.03966" lon="6.9081">
        <ele>978</ele>
        <time>2022-06-26T08:15:01Z</time>
      </trkpt>
      <trkpt lat="48.03969" lon="6.90833">
        <ele>978</ele>
        <time>2022-06-26T08:15:06Z</time>
      </trkpt>
      <trkpt lat="48.03975" lon="6.90844">
        <ele>978</ele>
        <time>2022-06-26T08:15:09Z</time>
      </trkpt>
      <trkpt lat="48.03978" lon="6.90846">
        <ele>978</ele>
        <time>2022-06-26T08:15:10Z</time>
      </trkpt>
      <trkpt lat="48.03981" lon="6.90847">
        <ele>978</ele>
        <time>2022-06-26T08:15:11Z</time>
      </trkpt>
      <trkpt lat="48.03984" lon="6.90849">
        <ele>978</ele>
        <time>2022-06-26T08:15:12Z</time>
      </trkpt>
      <trkpt lat="48.03988" lon="6.9085">
        <ele>978</ele>
        <time>2022-06-26T08:15:13Z</time>
      </trkpt>
      <trkpt lat="48.04" lon="6.90848">
        <ele>978</ele>
        <time>2022-06-26T08:15:17Z</time>
      </trkpt>
      <trkpt lat="48.04004" lon="6.90847">
        <ele>978</ele>
        <time>2022-06-26T08:15:18Z</time>
      </trkpt>
      <trkpt lat="48.04007" lon="6.90846">
        <ele>978</ele>
        <time>2022-06-26T08:15:19Z</time>
      </trkpt>
      <trkpt lat="48.0401" lon="6.90845">
        <ele>978</ele>
        <time>2022-06-26T08:15:20Z</time>
      </trkpt>
      <trkpt lat="48.04021" lon="6.90843">
        <ele>978</ele>
        <time>2022-06-26T08:15:23Z</time>
      </trkpt>
      <trkpt lat="48.04026" lon="6.90845">
        <ele>977.8</ele>
        <time>2022-06-26T08:15:24Z</time>
      </trkpt>
      <trkpt lat="48.04038" lon="6.90849">
        <ele>977.6</ele>
        <time>2022-06-26T08:15:26Z</time>
      </trkpt>
      <trkpt lat="48.04044" lon="6.90852">
        <ele>976.8</ele>
        <time>2022-06-26T08:15:27Z</time>
      </trkpt>
      <trkpt lat="48.0405" lon="6.90855">
        <ele>976.4</ele>
        <time>2022-06-26T08:15:28Z</time>
      </trkpt>
      <trkpt lat="48.04056" lon="6.90857">
        <ele>975.6</ele>
        <time>2022-06-26T08:15:29Z</time>
      </trkpt>
      <trkpt lat="48.04062" lon="6.90859">
        <ele>975.2</ele>
        <time>2022-06-26T08:15:30Z</time>
      </trkpt>
      <trkpt lat="48.04068" lon="6.90859">
        <ele>974.6</ele>
        <time>2022-06-26T08:15:31Z</time>
      </trkpt>
      <trkpt lat="48.04073" lon="6.90858">
        <ele>974.2</ele>
        <time>2022-06-26T08:15:32Z</time>
      </trkpt>
      <trkpt lat="48.04079" lon="6.90858">
        <ele>974</ele>
        <time>2022-06-26T08:15:33Z</time>
      </trkpt>
      <trkpt lat="48.04092" lon="6.90858">
        <ele>973.6</ele>
        <time>2022-06-26T08:15:35Z</time>
      </trkpt>
      <trkpt lat="48.04105" lon="6.90854">
        <ele>973.2</ele>
        <time>2022-06-26T08:15:37Z</time>
      </trkpt>
      <trkpt lat="48.04111" lon="6.90852">
        <ele>972.8</ele>
        <time>2022-06-26T08:15:38Z</time>
      </trkpt>
      <trkpt lat="48.04116" lon="6.90848">
        <ele>972.6</ele>
        <time>2022-06-26T08:15:39Z</time>
      </trkpt>
      <trkpt lat="48.04121" lon="6.90844">
        <ele>972.4</ele>
        <time>2022-06-26T08:15:40Z</time>
      </trkpt>
      <trkpt lat="48.04125" lon="6.9084">
        <ele>972.2</ele>
        <time>2022-06-26T08:15:41Z</time>
      </trkpt>
      <trkpt lat="48.0413" lon="6.90837">
        <ele>972.2</ele>
        <time>2022-06-26T08:15:42Z</time>
      </trkpt>
      <trkpt lat="48.04138" lon="6.90831">
        <ele>972.2</ele>
        <time>2022-06-26T08:15:44Z</time>
      </trkpt>
      <trkpt lat="48.04142" lon="6.90828">
        <ele>972.2</ele>
        <time>2022-06-26T08:15:45Z</time>
      </trkpt>
      <trkpt lat="48.04146" lon="6.90827">
        <ele>972.2</ele>
        <time>2022-06-26T08:15:46Z</time>
      </trkpt>
      <trkpt lat="48.0415" lon="6.90826">
        <ele>972.2</ele>
        <time>2022-06-26T08:15:47Z</time>
      </trkpt>
      <trkpt lat="48.04164" lon="6.9082">
        <ele>972.6</ele>
        <time>2022-06-26T08:15:51Z</time>
      </trkpt>
      <trkpt lat="48.04167" lon="6.90819">
        <ele>972.6</ele>
        <time>2022-06-26T08:15:52Z</time>
      </trkpt>
      <trkpt lat="48.0417" lon="6.90818">
        <ele>972.6</ele>
        <time>2022-06-26T08:15:53Z</time>
      </trkpt>
      <trkpt lat="48.04173" lon="6.90818">
        <ele>972.6</ele>
        <time>2022-06-26T08:15:54Z</time>
      </trkpt>
      <trkpt lat="48.04176" lon="6.90817">
        <ele>972.6</ele>
        <time>2022-06-26T08:15:55Z</time>
      </trkpt>
      <trkpt lat="48.04179" lon="6.90816">
        <ele>972.8</ele>
        <time>2022-06-26T08:15:56Z</time>
      </trkpt>
      <trkpt lat="48.0419" lon="6.9081">
        <ele>973.2</ele>
        <time>2022-06-26T08:16:00Z</time>
      </trkpt>
      <trkpt lat="48.04193" lon="6.90808">
        <ele>973.4</ele>
        <time>2022-06-26T08:16:01Z</time>
      </trkpt>
      <trkpt lat="48.04196" lon="6.90807">
        <ele>973.6</ele>
        <time>2022-06-26T08:16:02Z</time>
      </trkpt>
      <trkpt lat="48.04202" lon="6.90804">
        <ele>973.8</ele>
        <time>2022-06-26T08:16:04Z</time>
      </trkpt>
      <trkpt lat="48.04205" lon="6.90802">
        <ele>974</ele>
        <time>2022-06-26T08:16:05Z</time>
      </trkpt>
      <trkpt lat="48.04215" lon="6.90795">
        <ele>974.6</ele>
        <time>2022-06-26T08:16:08Z</time>
      </trkpt>
      <trkpt lat="48.04225" lon="6.90789">
        <ele>974.8</ele>
        <time>2022-06-26T08:16:11Z</time>
      </trkpt>
      <trkpt lat="48.04234" lon="6.90783">
        <ele>975.2</ele>
        <time>2022-06-26T08:16:14Z</time>
      </trkpt>
      <trkpt lat="48.04253" lon="6.90774">
        <ele>975.8</ele>
        <time>2022-06-26T08:16:20Z</time>
      </trkpt>
      <trkpt lat="48.04256" lon="6.9077">
        <ele>976</ele>
        <time>2022-06-26T08:16:21Z</time>
      </trkpt>
      <trkpt lat="48.04258" lon="6.90767">
        <ele>976</ele>
        <time>2022-06-26T08:16:22Z</time>
      </trkpt>
      <trkpt lat="48.0426" lon="6.90764">
        <ele>976.2</ele>
        <time>2022-06-26T08:16:23Z</time>
      </trkpt>
      <trkpt lat="48.04263" lon="6.90761">
        <ele>976.4</ele>
        <time>2022-06-26T08:16:24Z</time>
      </trkpt>
      <trkpt lat="48.04266" lon="6.90758">
        <ele>976.6</ele>
        <time>2022-06-26T08:16:25Z</time>
      </trkpt>
      <trkpt lat="48.04268" lon="6.90755">
        <ele>976.6</ele>
        <time>2022-06-26T08:16:26Z</time>
      </trkpt>
      <trkpt lat="48.0427" lon="6.90752">
        <ele>976.6</ele>
        <time>2022-06-26T08:16:27Z</time>
      </trkpt>
      <trkpt lat="48.04272" lon="6.90748">
        <ele>976.8</ele>
        <time>2022-06-26T08:16:28Z</time>
      </trkpt>
      <trkpt lat="48.04274" lon="6.90744">
        <ele>976.8</ele>
        <time>2022-06-26T08:16:29Z</time>
      </trkpt>
      <trkpt lat="48.04276" lon="6.90739">
        <ele>977</ele>
        <time>2022-06-26T08:16:30Z</time>
      </trkpt>
      <trkpt lat="48.04278" lon="6.90735">
        <ele>977</ele>
        <time>2022-06-26T08:16:31Z</time>
      </trkpt>
      <trkpt lat="48.04279" lon="6.9073">
        <ele>977</ele>
        <time>2022-06-26T08:16:32Z</time>
      </trkpt>
      <trkpt lat="48.04281" lon="6.90725">
        <ele>977.2</ele>
        <time>2022-06-26T08:16:33Z</time>
      </trkpt>
      <trkpt lat="48.04283" lon="6.9072">
        <ele>977.2</ele>
        <time>2022-06-26T08:16:34Z</time>
      </trkpt>
      <trkpt lat="48.04284" lon="6.90715">
        <ele>977.2</ele>
        <time>2022-06-26T08:16:35Z</time>
      </trkpt>
      <trkpt lat="48.04286" lon="6.90709">
        <ele>977.2</ele>
        <time>2022-06-26T08:16:36Z</time>
      </trkpt>
      <trkpt lat="48.04288" lon="6.90704">
        <ele>977.2</ele>
        <time>2022-06-26T08:16:37Z</time>
      </trkpt>
      <trkpt lat="48.04293" lon="6.90681">
        <ele>976.8</ele>
        <time>2022-06-26T08:16:41Z</time>
      </trkpt>
      <trkpt lat="48.04294" lon="6.90675">
        <ele>976.8</ele>
        <time>2022-06-26T08:16:42Z</time>
      </trkpt>
      <trkpt lat="48.04296" lon="6.90647">
        <ele>976.6</ele>
        <time>2022-06-26T08:16:46Z</time>
      </trkpt>
      <trkpt lat="48.04295" lon="6.90626">
        <ele>976</ele>
        <time>2022-06-26T08:16:49Z</time>
      </trkpt>
      <trkpt lat="48.04293" lon="6.90598">
        <ele>975.2</ele>
        <time>2022-06-26T08:16:53Z</time>
      </trkpt>
      <trkpt lat="48.0429" lon="6.90556">
        <ele>974.8</ele>
        <time>2022-06-26T08:16:59Z</time>
      </trkpt>
      <trkpt lat="48.04288" lon="6.90541">
        <ele>974.4</ele>
        <time>2022-06-26T08:17:01Z</time>
      </trkpt>
      <trkpt lat="48.04285" lon="6.90514">
        <ele>973.4</ele>
        <time>2022-06-26T08:17:04Z</time>
      </trkpt>
      <trkpt lat="48.04285" lon="6.90504">
        <ele>973.2</ele>
        <time>2022-06-26T08:17:05Z</time>
      </trkpt>
      <trkpt lat="48.04286" lon="6.90494">
        <ele>972.6</ele>
        <time>2022-06-26T08:17:06Z</time>
      </trkpt>
      <trkpt lat="48.04288" lon="6.90473">
        <ele>972</ele>
        <time>2022-06-26T08:17:08Z</time>
      </trkpt>
      <trkpt lat="48.0429" lon="6.90463">
        <ele>971.2</ele>
        <time>2022-06-26T08:17:09Z</time>
      </trkpt>
      <trkpt lat="48.04291" lon="6.90454">
        <ele>970.8</ele>
        <time>2022-06-26T08:17:10Z</time>
      </trkpt>
      <trkpt lat="48.04292" lon="6.90445">
        <ele>970</ele>
        <time>2022-06-26T08:17:11Z</time>
      </trkpt>
      <trkpt lat="48.04293" lon="6.90436">
        <ele>969.8</ele>
        <time>2022-06-26T08:17:12Z</time>
      </trkpt>
      <trkpt lat="48.04294" lon="6.90428">
        <ele>969.6</ele>
        <time>2022-06-26T08:17:13Z</time>
      </trkpt>
      <trkpt lat="48.04295" lon="6.90421">
        <ele>969.4</ele>
        <time>2022-06-26T08:17:14Z</time>
      </trkpt>
      <trkpt lat="48.04296" lon="6.90413">
        <ele>969</ele>
        <time>2022-06-26T08:17:15Z</time>
      </trkpt>
      <trkpt lat="48.04297" lon="6.90405">
        <ele>969</ele>
        <time>2022-06-26T08:17:16Z</time>
      </trkpt>
      <trkpt lat="48.04307" lon="6.90366">
        <ele>969</ele>
        <time>2022-06-26T08:17:21Z</time>
      </trkpt>
      <trkpt lat="48.0431" lon="6.90357">
        <ele>969</ele>
        <time>2022-06-26T08:17:22Z</time>
      </trkpt>
      <trkpt lat="48.04319" lon="6.90335">
        <ele>968.8</ele>
        <time>2022-06-26T08:17:25Z</time>
      </trkpt>
      <trkpt lat="48.04323" lon="6.90327">
        <ele>968.4</ele>
        <time>2022-06-26T08:17:26Z</time>
      </trkpt>
      <trkpt lat="48.04328" lon="6.90312">
        <ele>967.8</ele>
        <time>2022-06-26T08:17:28Z</time>
      </trkpt>
      <trkpt lat="48.0433" lon="6.90306">
        <ele>967.4</ele>
        <time>2022-06-26T08:17:29Z</time>
      </trkpt>
      <trkpt lat="48.04331" lon="6.903">
        <ele>967.4</ele>
        <time>2022-06-26T08:17:30Z</time>
      </trkpt>
      <trkpt lat="48.04332" lon="6.90295">
        <ele>967.2</ele>
        <time>2022-06-26T08:17:31Z</time>
      </trkpt>
      <trkpt lat="48.04333" lon="6.90289">
        <ele>967.2</ele>
        <time>2022-06-26T08:17:32Z</time>
      </trkpt>
      <trkpt lat="48.04335" lon="6.90283">
        <ele>967.2</ele>
        <time>2022-06-26T08:17:33Z</time>
      </trkpt>
      <trkpt lat="48.04336" lon="6.90278">
        <ele>967.4</ele>
        <time>2022-06-26T08:17:34Z</time>
      </trkpt>
      <trkpt lat="48.04339" lon="6.90273">
        <ele>967.2</ele>
        <time>2022-06-26T08:17:35Z</time>
      </trkpt>
      <trkpt lat="48.04342" lon="6.90268">
        <ele>967.2</ele>
        <time>2022-06-26T08:17:36Z</time>
      </trkpt>
      <trkpt lat="48.04345" lon="6.90263">
        <ele>967.2</ele>
        <time>2022-06-26T08:17:37Z</time>
      </trkpt>
      <trkpt lat="48.04349" lon="6.90258">
        <ele>967.6</ele>
        <time>2022-06-26T08:17:38Z</time>
      </trkpt>
      <trkpt lat="48.04353" lon="6.90253">
        <ele>967.6</ele>
        <time>2022-06-26T08:17:39Z</time>
      </trkpt>
      <trkpt lat="48.04358" lon="6.90247">
        <ele>967.6</ele>
        <time>2022-06-26T08:17:40Z</time>
      </trkpt>
      <trkpt lat="48.04362" lon="6.9024">
        <ele>967.4</ele>
        <time>2022-06-26T08:17:41Z</time>
      </trkpt>
      <trkpt lat="48.04369" lon="6.90226">
        <ele>967.2</ele>
        <time>2022-06-26T08:17:43Z</time>
      </trkpt>
      <trkpt lat="48.04373" lon="6.90219">
        <ele>966.8</ele>
        <time>2022-06-26T08:17:44Z</time>
      </trkpt>
      <trkpt lat="48.04376" lon="6.90212">
        <ele>966.6</ele>
        <time>2022-06-26T08:17:45Z</time>
      </trkpt>
      <trkpt lat="48.04379" lon="6.90205">
        <ele>966.2</ele>
        <time>2022-06-26T08:17:46Z</time>
      </trkpt>
      <trkpt lat="48.04388" lon="6.9018">
        <ele>965.8</ele>
        <time>2022-06-26T08:17:49Z</time>
      </trkpt>
      <trkpt lat="48.04392" lon="6.90174">
        <ele>965.6</ele>
        <time>2022-06-26T08:17:50Z</time>
      </trkpt>
      <trkpt lat="48.04396" lon="6.90168">
        <ele>965.2</ele>
        <time>2022-06-26T08:17:51Z</time>
      </trkpt>
      <trkpt lat="48.04405" lon="6.90158">
        <ele>964.4</ele>
        <time>2022-06-26T08:17:53Z</time>
      </trkpt>
      <trkpt lat="48.04409" lon="6.90156">
        <ele>964.2</ele>
        <time>2022-06-26T08:17:54Z</time>
      </trkpt>
      <trkpt lat="48.04412" lon="6.90153">
        <ele>964</ele>
        <time>2022-06-26T08:17:55Z</time>
      </trkpt>
      <trkpt lat="48.04414" lon="6.90149">
        <ele>963.8</ele>
        <time>2022-06-26T08:17:56Z</time>
      </trkpt>
      <trkpt lat="48.04417" lon="6.90146">
        <ele>963.8</ele>
        <time>2022-06-26T08:17:57Z</time>
      </trkpt>
      <trkpt lat="48.04419" lon="6.90144">
        <ele>963.8</ele>
        <time>2022-06-26T08:17:58Z</time>
      </trkpt>
      <trkpt lat="48.04421" lon="6.90142">
        <ele>963.8</ele>
        <time>2022-06-26T08:17:59Z</time>
      </trkpt>
      <trkpt lat="48.04423" lon="6.9014">
        <ele>963.8</ele>
        <time>2022-06-26T08:18:00Z</time>
      </trkpt>
      <trkpt lat="48.04425" lon="6.90137">
        <ele>963.8</ele>
        <time>2022-06-26T08:18:01Z</time>
      </trkpt>
      <trkpt lat="48.04427" lon="6.90134">
        <ele>964</ele>
        <time>2022-06-26T08:18:02Z</time>
      </trkpt>
      <trkpt lat="48.04434" lon="6.90127">
        <ele>964.6</ele>
        <time>2022-06-26T08:18:05Z</time>
      </trkpt>
      <trkpt lat="48.04439" lon="6.90124">
        <ele>964.8</ele>
        <time>2022-06-26T08:18:07Z</time>
      </trkpt>
      <trkpt lat="48.04441" lon="6.90122">
        <ele>965</ele>
        <time>2022-06-26T08:18:08Z</time>
      </trkpt>
      <trkpt lat="48.04446" lon="6.90117">
        <ele>965.4</ele>
        <time>2022-06-26T08:18:10Z</time>
      </trkpt>
      <trkpt lat="48.04448" lon="6.90115">
        <ele>965.4</ele>
        <time>2022-06-26T08:18:11Z</time>
      </trkpt>
      <trkpt lat="48.04462" lon="6.90101">
        <ele>966</ele>
        <time>2022-06-26T08:18:16Z</time>
      </trkpt>
      <trkpt lat="48.04474" lon="6.90086">
        <ele>966.2</ele>
        <time>2022-06-26T08:18:20Z</time>
      </trkpt>
      <trkpt lat="48.0448" lon="6.90075">
        <ele>966.2</ele>
        <time>2022-06-26T08:18:22Z</time>
      </trkpt>
      <trkpt lat="48.04488" lon="6.90062">
        <ele>966</ele>
        <time>2022-06-26T08:18:25Z</time>
      </trkpt>
      <trkpt lat="48.04491" lon="6.90059">
        <ele>966</ele>
        <time>2022-06-26T08:18:26Z</time>
      </trkpt>
      <trkpt lat="48.04493" lon="6.90056">
        <ele>966</ele>
        <time>2022-06-26T08:18:27Z</time>
      </trkpt>
      <trkpt lat="48.04495" lon="6.90053">
        <ele>966</ele>
        <time>2022-06-26T08:18:28Z</time>
      </trkpt>
      <trkpt lat="48.04497" lon="6.9005">
        <ele>965.8</ele>
        <time>2022-06-26T08:18:29Z</time>
      </trkpt>
      <trkpt lat="48.04499" lon="6.90047">
        <ele>965.8</ele>
        <time>2022-06-26T08:18:30Z</time>
      </trkpt>
      <trkpt lat="48.04511" lon="6.90026">
        <ele>966.2</ele>
        <time>2022-06-26T08:18:35Z</time>
      </trkpt>
      <trkpt lat="48.04518" lon="6.90013">
        <ele>966.6</ele>
        <time>2022-06-26T08:18:38Z</time>
      </trkpt>
      <trkpt lat="48.04525" lon="6.9">
        <ele>966.6</ele>
        <time>2022-06-26T08:18:41Z</time>
      </trkpt>
      <trkpt lat="48.04541" lon="6.89978">
        <ele>966.6</ele>
        <time>2022-06-26T08:18:47Z</time>
      </trkpt>
      <trkpt lat="48.04567" lon="6.89962">
        <ele>966.6</ele>
        <time>2022-06-26T08:18:54Z</time>
      </trkpt>
      <trkpt lat="48.04587" lon="6.89943">
        <ele>966.6</ele>
        <time>2022-06-26T08:19:00Z</time>
      </trkpt>
      <trkpt lat="48.0459" lon="6.8994">
        <ele>966.6</ele>
        <time>2022-06-26T08:19:01Z</time>
      </trkpt>
      <trkpt lat="48.04592" lon="6.89937">
        <ele>966.8</ele>
        <time>2022-06-26T08:19:02Z</time>
      </trkpt>
      <trkpt lat="48.04593" lon="6.89933">
        <ele>966.8</ele>
        <time>2022-06-26T08:19:03Z</time>
      </trkpt>
      <trkpt lat="48.04596" lon="6.8993">
        <ele>967</ele>
        <time>2022-06-26T08:19:04Z</time>
      </trkpt>
      <trkpt lat="48.04598" lon="6.89927">
        <ele>967</ele>
        <time>2022-06-26T08:19:05Z</time>
      </trkpt>
      <trkpt lat="48.04603" lon="6.89921">
        <ele>967.2</ele>
        <time>2022-06-26T08:19:07Z</time>
      </trkpt>
      <trkpt lat="48.04606" lon="6.89918">
        <ele>967.2</ele>
        <time>2022-06-26T08:19:08Z</time>
      </trkpt>
      <trkpt lat="48.04608" lon="6.89915">
        <ele>967.4</ele>
        <time>2022-06-26T08:19:09Z</time>
      </trkpt>
      <trkpt lat="48.0461" lon="6.89912">
        <ele>967.6</ele>
        <time>2022-06-26T08:19:10Z</time>
      </trkpt>
      <trkpt lat="48.04613" lon="6.89908">
        <ele>967.8</ele>
        <time>2022-06-26T08:19:11Z</time>
      </trkpt>
      <trkpt lat="48.04615" lon="6.89906">
        <ele>967.8</ele>
        <time>2022-06-26T08:19:12Z</time>
      </trkpt>
      <trkpt lat="48.04622" lon="6.89898">
        <ele>968</ele>
        <time>2022-06-26T08:19:15Z</time>
      </trkpt>
      <trkpt lat="48.04625" lon="6.89896">
        <ele>968</ele>
        <time>2022-06-26T08:19:16Z</time>
      </trkpt>
      <trkpt lat="48.04627" lon="6.89894">
        <ele>968.2</ele>
        <time>2022-06-26T08:19:17Z</time>
      </trkpt>
      <trkpt lat="48.04629" lon="6.89892">
        <ele>968.2</ele>
        <time>2022-06-26T08:19:18Z</time>
      </trkpt>
      <trkpt lat="48.04631" lon="6.89889">
        <ele>968.2</ele>
        <time>2022-06-26T08:19:19Z</time>
      </trkpt>
      <trkpt lat="48.04636" lon="6.89885">
        <ele>968.6</ele>
        <time>2022-06-26T08:19:21Z</time>
      </trkpt>
      <trkpt lat="48.04639" lon="6.89884">
        <ele>968.6</ele>
        <time>2022-06-26T08:19:22Z</time>
      </trkpt>
      <trkpt lat="48.04641" lon="6.89882">
        <ele>968.8</ele>
        <time>2022-06-26T08:19:23Z</time>
      </trkpt>
      <trkpt lat="48.04644" lon="6.8988">
        <ele>968.8</ele>
        <time>2022-06-26T08:19:24Z</time>
      </trkpt>
      <trkpt lat="48.04647" lon="6.89879">
        <ele>969</ele>
        <time>2022-06-26T08:19:25Z</time>
      </trkpt>
      <trkpt lat="48.0465" lon="6.89877">
        <ele>969.4</ele>
        <time>2022-06-26T08:19:26Z</time>
      </trkpt>
      <trkpt lat="48.04653" lon="6.89876">
        <ele>969.4</ele>
        <time>2022-06-26T08:19:27Z</time>
      </trkpt>
      <trkpt lat="48.0466" lon="6.89872">
        <ele>969.8</ele>
        <time>2022-06-26T08:19:29Z</time>
      </trkpt>
      <trkpt lat="48.04664" lon="6.8987">
        <ele>970</ele>
        <time>2022-06-26T08:19:30Z</time>
      </trkpt>
      <trkpt lat="48.0467" lon="6.89865">
        <ele>970.2</ele>
        <time>2022-06-26T08:19:32Z</time>
      </trkpt>
      <trkpt lat="48.04673" lon="6.89862">
        <ele>970.4</ele>
        <time>2022-06-26T08:19:33Z</time>
      </trkpt>
      <trkpt lat="48.04675" lon="6.89859">
        <ele>970.4</ele>
        <time>2022-06-26T08:19:34Z</time>
      </trkpt>
      <trkpt lat="48.04678" lon="6.89854">
        <ele>970.6</ele>
        <time>2022-06-26T08:19:35Z</time>
      </trkpt>
      <trkpt lat="48.0468" lon="6.8985">
        <ele>970.6</ele>
        <time>2022-06-26T08:19:36Z</time>
      </trkpt>
      <trkpt lat="48.04683" lon="6.89847">
        <ele>970.6</ele>
        <time>2022-06-26T08:19:37Z</time>
      </trkpt>
      <trkpt lat="48.04685" lon="6.89845">
        <ele>970.6</ele>
        <time>2022-06-26T08:19:38Z</time>
      </trkpt>
      <trkpt lat="48.04688" lon="6.89843">
        <ele>971</ele>
        <time>2022-06-26T08:19:39Z</time>
      </trkpt>
      <trkpt lat="48.04692" lon="6.89841">
        <ele>971</ele>
        <time>2022-06-26T08:19:40Z</time>
      </trkpt>
      <trkpt lat="48.04695" lon="6.8984">
        <ele>971</ele>
        <time>2022-06-26T08:19:41Z</time>
      </trkpt>
      <trkpt lat="48.04698" lon="6.89839">
        <ele>970.8</ele>
        <time>2022-06-26T08:19:42Z</time>
      </trkpt>
      <trkpt lat="48.04701" lon="6.89837">
        <ele>970.8</ele>
        <time>2022-06-26T08:19:43Z</time>
      </trkpt>
      <trkpt lat="48.04704" lon="6.89836">
        <ele>970.8</ele>
        <time>2022-06-26T08:19:44Z</time>
      </trkpt>
      <trkpt lat="48.04706" lon="6.89835">
        <ele>971</ele>
        <time>2022-06-26T08:19:45Z</time>
      </trkpt>
      <trkpt lat="48.04708" lon="6.89834">
        <ele>971.2</ele>
        <time>2022-06-26T08:19:46Z</time>
      </trkpt>
      <trkpt lat="48.0471" lon="6.89833">
        <ele>971.2</ele>
        <time>2022-06-26T08:19:47Z</time>
      </trkpt>
      <trkpt lat="48.04711" lon="6.89833">
        <ele>971.2</ele>
        <time>2022-06-26T08:19:48Z</time>
      </trkpt>
      <trkpt lat="48.04713" lon="6.89832">
        <ele>971.4</ele>
        <time>2022-06-26T08:19:49Z</time>
      </trkpt>
      <trkpt lat="48.04714" lon="6.89832">
        <ele>971.4</ele>
        <time>2022-06-26T08:19:50Z</time>
      </trkpt>
      <trkpt lat="48.04715" lon="6.89832">
        <ele>971.6</ele>
        <time>2022-06-26T08:19:51Z</time>
      </trkpt>
      <trkpt lat="48.04717" lon="6.89831">
        <ele>971.6</ele>
        <time>2022-06-26T08:19:52Z</time>
      </trkpt>
      <trkpt lat="48.04718" lon="6.89829">
        <ele>971.8</ele>
        <time>2022-06-26T08:19:53Z</time>
      </trkpt>
      <trkpt lat="48.0472" lon="6.89825">
        <ele>972.4</ele>
        <time>2022-06-26T08:19:56Z</time>
      </trkpt>
      <trkpt lat="48.04723" lon="6.89821">
        <ele>973</ele>
        <time>2022-06-26T08:19:58Z</time>
      </trkpt>
      <trkpt lat="48.04725" lon="6.89818">
        <ele>973.4</ele>
        <time>2022-06-26T08:20:00Z</time>
      </trkpt>
      <trkpt lat="48.04727" lon="6.89818">
        <ele>973.6</ele>
        <time>2022-06-26T08:20:01Z</time>
      </trkpt>
      <trkpt lat="48.04728" lon="6.89818">
        <ele>973.8</ele>
        <time>2022-06-26T08:20:02Z</time>
      </trkpt>
      <trkpt lat="48.0473" lon="6.89818">
        <ele>974</ele>
        <time>2022-06-26T08:20:03Z</time>
      </trkpt>
      <trkpt lat="48.04731" lon="6.89817">
        <ele>974.2</ele>
        <time>2022-06-26T08:20:04Z</time>
      </trkpt>
      <trkpt lat="48.04732" lon="6.89816">
        <ele>974.2</ele>
        <time>2022-06-26T08:20:05Z</time>
      </trkpt>
      <trkpt lat="48.04733" lon="6.89815">
        <ele>974.4</ele>
        <time>2022-06-26T08:20:06Z</time>
      </trkpt>
      <trkpt lat="48.04733" lon="6.89815">
        <ele>974.6</ele>
        <time>2022-06-26T08:20:07Z</time>
      </trkpt>
      <trkpt lat="48.04735" lon="6.89814">
        <ele>975</ele>
        <time>2022-06-26T08:20:08Z</time>
      </trkpt>
      <trkpt lat="48.04738" lon="6.89812">
        <ele>975.2</ele>
        <time>2022-06-26T08:20:09Z</time>
      </trkpt>
      <trkpt lat="48.04741" lon="6.89811">
        <ele>975.4</ele>
        <time>2022-06-26T08:20:10Z</time>
      </trkpt>
      <trkpt lat="48.04744" lon="6.89809">
        <ele>975.6</ele>
        <time>2022-06-26T08:20:11Z</time>
      </trkpt>
      <trkpt lat="48.04746" lon="6.89806">
        <ele>975.6</ele>
        <time>2022-06-26T08:20:12Z</time>
      </trkpt>
      <trkpt lat="48.04748" lon="6.89804">
        <ele>975.6</ele>
        <time>2022-06-26T08:20:13Z</time>
      </trkpt>
      <trkpt lat="48.04749" lon="6.89801">
        <ele>975.6</ele>
        <time>2022-06-26T08:20:14Z</time>
      </trkpt>
      <trkpt lat="48.04751" lon="6.89799">
        <ele>975.8</ele>
        <time>2022-06-26T08:20:15Z</time>
      </trkpt>
      <trkpt lat="48.04752" lon="6.89797">
        <ele>975.8</ele>
        <time>2022-06-26T08:20:16Z</time>
      </trkpt>
      <trkpt lat="48.04754" lon="6.89795">
        <ele>975.8</ele>
        <time>2022-06-26T08:20:17Z</time>
      </trkpt>
      <trkpt lat="48.04756" lon="6.89794">
        <ele>975.8</ele>
        <time>2022-06-26T08:20:18Z</time>
      </trkpt>
      <trkpt lat="48.04757" lon="6.89793">
        <ele>976</ele>
        <time>2022-06-26T08:20:19Z</time>
      </trkpt>
      <trkpt lat="48.04759" lon="6.8979">
        <ele>976</ele>
        <time>2022-06-26T08:20:20Z</time>
      </trkpt>
      <trkpt lat="48.04761" lon="6.89788">
        <ele>976</ele>
        <time>2022-06-26T08:20:21Z</time>
      </trkpt>
      <trkpt lat="48.04762" lon="6.89786">
        <ele>976.2</ele>
        <time>2022-06-26T08:20:22Z</time>
      </trkpt>
      <trkpt lat="48.04764" lon="6.89784">
        <ele>976.4</ele>
        <time>2022-06-26T08:20:23Z</time>
      </trkpt>
      <trkpt lat="48.04766" lon="6.8978">
        <ele>976.4</ele>
        <time>2022-06-26T08:20:24Z</time>
      </trkpt>
      <trkpt lat="48.04768" lon="6.89777">
        <ele>976.6</ele>
        <time>2022-06-26T08:20:25Z</time>
      </trkpt>
      <trkpt lat="48.04769" lon="6.89775">
        <ele>976.8</ele>
        <time>2022-06-26T08:20:26Z</time>
      </trkpt>
      <trkpt lat="48.0477" lon="6.89772">
        <ele>977</ele>
        <time>2022-06-26T08:20:27Z</time>
      </trkpt>
      <trkpt lat="48.0477" lon="6.89769">
        <ele>977.2</ele>
        <time>2022-06-26T08:20:28Z</time>
      </trkpt>
      <trkpt lat="48.04771" lon="6.89767">
        <ele>977.2</ele>
        <time>2022-06-26T08:20:29Z</time>
      </trkpt>
      <trkpt lat="48.04772" lon="6.89764">
        <ele>977.4</ele>
        <time>2022-06-26T08:20:30Z</time>
      </trkpt>
      <trkpt lat="48.04772" lon="6.89761">
        <ele>977.4</ele>
        <time>2022-06-26T08:20:31Z</time>
      </trkpt>
      <trkpt lat="48.04772" lon="6.89757">
        <ele>977.4</ele>
        <time>2022-06-26T08:20:32Z</time>
      </trkpt>
      <trkpt lat="48.04771" lon="6.89753">
        <ele>977.6</ele>
        <time>2022-06-26T08:20:33Z</time>
      </trkpt>
      <trkpt lat="48.04772" lon="6.8975">
        <ele>977.8</ele>
        <time>2022-06-26T08:20:34Z</time>
      </trkpt>
      <trkpt lat="48.04773" lon="6.89747">
        <ele>977.8</ele>
        <time>2022-06-26T08:20:35Z</time>
      </trkpt>
      <trkpt lat="48.04774" lon="6.89744">
        <ele>978</ele>
        <time>2022-06-26T08:20:36Z</time>
      </trkpt>
      <trkpt lat="48.04775" lon="6.89741">
        <ele>978</ele>
        <time>2022-06-26T08:20:37Z</time>
      </trkpt>
      <trkpt lat="48.04776" lon="6.89738">
        <ele>978</ele>
        <time>2022-06-26T08:20:38Z</time>
      </trkpt>
      <trkpt lat="48.04777" lon="6.89735">
        <ele>978</ele>
        <time>2022-06-26T08:20:39Z</time>
      </trkpt>
      <trkpt lat="48.04777" lon="6.89732">
        <ele>978.2</ele>
        <time>2022-06-26T08:20:40Z</time>
      </trkpt>
      <trkpt lat="48.04777" lon="6.8973">
        <ele>978.2</ele>
        <time>2022-06-26T08:20:41Z</time>
      </trkpt>
      <trkpt lat="48.04775" lon="6.89727">
        <ele>978.2</ele>
        <time>2022-06-26T08:20:42Z</time>
      </trkpt>
      <trkpt lat="48.04774" lon="6.89722">
        <ele>978.2</ele>
        <time>2022-06-26T08:20:43Z</time>
      </trkpt>
      <trkpt lat="48.04774" lon="6.89716">
        <ele>978.2</ele>
        <time>2022-06-26T08:20:44Z</time>
      </trkpt>
      <trkpt lat="48.04773" lon="6.89709">
        <ele>978.2</ele>
        <time>2022-06-26T08:20:45Z</time>
      </trkpt>
      <trkpt lat="48.04774" lon="6.897">
        <ele>978.2</ele>
        <time>2022-06-26T08:20:46Z</time>
      </trkpt>
      <trkpt lat="48.04776" lon="6.89692">
        <ele>978</ele>
        <time>2022-06-26T08:20:47Z</time>
      </trkpt>
      <trkpt lat="48.04778" lon="6.89685">
        <ele>978</ele>
        <time>2022-06-26T08:20:48Z</time>
      </trkpt>
      <trkpt lat="48.04778" lon="6.89678">
        <ele>978</ele>
        <time>2022-06-26T08:20:49Z</time>
      </trkpt>
      <trkpt lat="48.04779" lon="6.89667">
        <ele>977.2</ele>
        <time>2022-06-26T08:20:51Z</time>
      </trkpt>
      <trkpt lat="48.0478" lon="6.89663">
        <ele>976.8</ele>
        <time>2022-06-26T08:20:52Z</time>
      </trkpt>
      <trkpt lat="48.0478" lon="6.89658">
        <ele>976.8</ele>
        <time>2022-06-26T08:20:53Z</time>
      </trkpt>
      <trkpt lat="48.04781" lon="6.89654">
        <ele>976.6</ele>
        <time>2022-06-26T08:20:54Z</time>
      </trkpt>
      <trkpt lat="48.04781" lon="6.89651">
        <ele>976.6</ele>
        <time>2022-06-26T08:20:55Z</time>
      </trkpt>
      <trkpt lat="48.04781" lon="6.89648">
        <ele>976.6</ele>
        <time>2022-06-26T08:20:56Z</time>
      </trkpt>
      <trkpt lat="48.04781" lon="6.89643">
        <ele>976.6</ele>
        <time>2022-06-26T08:20:57Z</time>
      </trkpt>
      <trkpt lat="48.04784" lon="6.8963">
        <ele>976.8</ele>
        <time>2022-06-26T08:21:00Z</time>
      </trkpt>
      <trkpt lat="48.04785" lon="6.89626">
        <ele>977</ele>
        <time>2022-06-26T08:21:01Z</time>
      </trkpt>
      <trkpt lat="48.04785" lon="6.8962">
        <ele>977.2</ele>
        <time>2022-06-26T08:21:02Z</time>
      </trkpt>
      <trkpt lat="48.04786" lon="6.89615">
        <ele>977.4</ele>
        <time>2022-06-26T08:21:03Z</time>
      </trkpt>
      <trkpt lat="48.04785" lon="6.89612">
        <ele>977.4</ele>
        <time>2022-06-26T08:21:04Z</time>
      </trkpt>
      <trkpt lat="48.04785" lon="6.89608">
        <ele>977.4</ele>
        <time>2022-06-26T08:21:05Z</time>
      </trkpt>
      <trkpt lat="48.04787" lon="6.89603">
        <ele>977.4</ele>
        <time>2022-06-26T08:21:06Z</time>
      </trkpt>
      <trkpt lat="48.04788" lon="6.89597">
        <ele>977.6</ele>
        <time>2022-06-26T08:21:07Z</time>
      </trkpt>
      <trkpt lat="48.04791" lon="6.89561">
        <ele>977</ele>
        <time>2022-06-26T08:21:11Z</time>
      </trkpt>
      <trkpt lat="48.04793" lon="6.89553">
        <ele>976.6</ele>
        <time>2022-06-26T08:21:12Z</time>
      </trkpt>
      <trkpt lat="48.04795" lon="6.89548">
        <ele>976.4</ele>
        <time>2022-06-26T08:21:13Z</time>
      </trkpt>
      <trkpt lat="48.04798" lon="6.89545">
        <ele>976</ele>
        <time>2022-06-26T08:21:14Z</time>
      </trkpt>
      <trkpt lat="48.04797" lon="6.8954">
        <ele>976</ele>
        <time>2022-06-26T08:21:15Z</time>
      </trkpt>
      <trkpt lat="48.04798" lon="6.89537">
        <ele>975.8</ele>
        <time>2022-06-26T08:21:16Z</time>
      </trkpt>
      <trkpt lat="48.048" lon="6.89534">
        <ele>975.8</ele>
        <time>2022-06-26T08:21:17Z</time>
      </trkpt>
      <trkpt lat="48.04802" lon="6.8953">
        <ele>975.8</ele>
        <time>2022-06-26T08:21:18Z</time>
      </trkpt>
      <trkpt lat="48.04804" lon="6.89524">
        <ele>976</ele>
        <time>2022-06-26T08:21:20Z</time>
      </trkpt>
      <trkpt lat="48.04805" lon="6.8952">
        <ele>976</ele>
        <time>2022-06-26T08:21:21Z</time>
      </trkpt>
      <trkpt lat="48.04806" lon="6.89518">
        <ele>976.2</ele>
        <time>2022-06-26T08:21:22Z</time>
      </trkpt>
      <trkpt lat="48.04807" lon="6.89514">
        <ele>976.6</ele>
        <time>2022-06-26T08:21:23Z</time>
      </trkpt>
      <trkpt lat="48.04809" lon="6.89512">
        <ele>976.6</ele>
        <time>2022-06-26T08:21:24Z</time>
      </trkpt>
      <trkpt lat="48.04816" lon="6.89496">
        <ele>977.2</ele>
        <time>2022-06-26T08:21:29Z</time>
      </trkpt>
      <trkpt lat="48.04817" lon="6.89493">
        <ele>977.6</ele>
        <time>2022-06-26T08:21:30Z</time>
      </trkpt>
      <trkpt lat="48.04819" lon="6.89489">
        <ele>977.6</ele>
        <time>2022-06-26T08:21:31Z</time>
      </trkpt>
      <trkpt lat="48.04828" lon="6.89462">
        <ele>978.6</ele>
        <time>2022-06-26T08:21:38Z</time>
      </trkpt>
      <trkpt lat="48.04829" lon="6.89454">
        <ele>978.6</ele>
        <time>2022-06-26T08:21:40Z</time>
      </trkpt>
      <trkpt lat="48.0483" lon="6.8945">
        <ele>978.8</ele>
        <time>2022-06-26T08:21:41Z</time>
      </trkpt>
      <trkpt lat="48.0483" lon="6.89447">
        <ele>979</ele>
        <time>2022-06-26T08:21:42Z</time>
      </trkpt>
      <trkpt lat="48.0483" lon="6.89443">
        <ele>979.2</ele>
        <time>2022-06-26T08:21:43Z</time>
      </trkpt>
      <trkpt lat="48.04834" lon="6.8943">
        <ele>979.8</ele>
        <time>2022-06-26T08:21:46Z</time>
      </trkpt>
      <trkpt lat="48.04835" lon="6.89422">
        <ele>979.8</ele>
        <time>2022-06-26T08:21:47Z</time>
      </trkpt>
      <trkpt lat="48.04836" lon="6.89417">
        <ele>980</ele>
        <time>2022-06-26T08:21:48Z</time>
      </trkpt>
      <trkpt lat="48.04838" lon="6.89413">
        <ele>980</ele>
        <time>2022-06-26T08:21:49Z</time>
      </trkpt>
      <trkpt lat="48.04839" lon="6.89409">
        <ele>980.2</ele>
        <time>2022-06-26T08:21:50Z</time>
      </trkpt>
      <trkpt lat="48.0484" lon="6.89406">
        <ele>980.2</ele>
        <time>2022-06-26T08:21:51Z</time>
      </trkpt>
      <trkpt lat="48.0484" lon="6.89403">
        <ele>980.2</ele>
        <time>2022-06-26T08:21:52Z</time>
      </trkpt>
      <trkpt lat="48.04842" lon="6.89401">
        <ele>980.4</ele>
        <time>2022-06-26T08:21:53Z</time>
      </trkpt>
      <trkpt lat="48.04843" lon="6.89398">
        <ele>980.6</ele>
        <time>2022-06-26T08:21:54Z</time>
      </trkpt>
      <trkpt lat="48.04845" lon="6.89394">
        <ele>980.6</ele>
        <time>2022-06-26T08:21:55Z</time>
      </trkpt>
      <trkpt lat="48.04847" lon="6.89391">
        <ele>980.6</ele>
        <time>2022-06-26T08:21:56Z</time>
      </trkpt>
      <trkpt lat="48.0485" lon="6.89388">
        <ele>980.8</ele>
        <time>2022-06-26T08:21:57Z</time>
      </trkpt>
      <trkpt lat="48.04851" lon="6.89385">
        <ele>980.8</ele>
        <time>2022-06-26T08:21:58Z</time>
      </trkpt>
      <trkpt lat="48.04853" lon="6.89383">
        <ele>981</ele>
        <time>2022-06-26T08:21:59Z</time>
      </trkpt>
      <trkpt lat="48.04855" lon="6.89381">
        <ele>981</ele>
        <time>2022-06-26T08:22:00Z</time>
      </trkpt>
      <trkpt lat="48.04857" lon="6.89378">
        <ele>981.2</ele>
        <time>2022-06-26T08:22:01Z</time>
      </trkpt>
      <trkpt lat="48.0486" lon="6.89376">
        <ele>981.2</ele>
        <time>2022-06-26T08:22:02Z</time>
      </trkpt>
      <trkpt lat="48.04862" lon="6.89373">
        <ele>981.2</ele>
        <time>2022-06-26T08:22:03Z</time>
      </trkpt>
      <trkpt lat="48.04865" lon="6.89369">
        <ele>981.4</ele>
        <time>2022-06-26T08:22:04Z</time>
      </trkpt>
      <trkpt lat="48.04868" lon="6.89364">
        <ele>981.4</ele>
        <time>2022-06-26T08:22:05Z</time>
      </trkpt>
      <trkpt lat="48.04872" lon="6.89357">
        <ele>981.4</ele>
        <time>2022-06-26T08:22:06Z</time>
      </trkpt>
      <trkpt lat="48.04875" lon="6.89349">
        <ele>981.4</ele>
        <time>2022-06-26T08:22:07Z</time>
      </trkpt>
      <trkpt lat="48.04879" lon="6.89341">
        <ele>981.2</ele>
        <time>2022-06-26T08:22:08Z</time>
      </trkpt>
      <trkpt lat="48.04883" lon="6.89331">
        <ele>980.8</ele>
        <time>2022-06-26T08:22:09Z</time>
      </trkpt>
      <trkpt lat="48.04887" lon="6.89321">
        <ele>980</ele>
        <time>2022-06-26T08:22:10Z</time>
      </trkpt>
      <trkpt lat="48.04892" lon="6.89311">
        <ele>979.6</ele>
        <time>2022-06-26T08:22:11Z</time>
      </trkpt>
      <trkpt lat="48.04897" lon="6.89303">
        <ele>979</ele>
        <time>2022-06-26T08:22:12Z</time>
      </trkpt>
      <trkpt lat="48.04903" lon="6.89295">
        <ele>978.2</ele>
        <time>2022-06-26T08:22:13Z</time>
      </trkpt>
      <trkpt lat="48.04913" lon="6.89281">
        <ele>976.8</ele>
        <time>2022-06-26T08:22:15Z</time>
      </trkpt>
      <trkpt lat="48.04919" lon="6.89276">
        <ele>976.4</ele>
        <time>2022-06-26T08:22:16Z</time>
      </trkpt>
      <trkpt lat="48.04926" lon="6.89271">
        <ele>975.6</ele>
        <time>2022-06-26T08:22:17Z</time>
      </trkpt>
      <trkpt lat="48.0494" lon="6.89263">
        <ele>974.6</ele>
        <time>2022-06-26T08:22:19Z</time>
      </trkpt>
      <trkpt lat="48.04948" lon="6.8926">
        <ele>974.6</ele>
        <time>2022-06-26T08:22:20Z</time>
      </trkpt>
      <trkpt lat="48.04956" lon="6.89258">
        <ele>974</ele>
        <time>2022-06-26T08:22:21Z</time>
      </trkpt>
      <trkpt lat="48.04965" lon="6.89256">
        <ele>973.8</ele>
        <time>2022-06-26T08:22:22Z</time>
      </trkpt>
      <trkpt lat="48.04972" lon="6.89254">
        <ele>973.6</ele>
        <time>2022-06-26T08:22:23Z</time>
      </trkpt>
      <trkpt lat="48.04979" lon="6.89255">
        <ele>972.4</ele>
        <time>2022-06-26T08:22:24Z</time>
      </trkpt>
      <trkpt lat="48.04996" lon="6.89258">
        <ele>970.6</ele>
        <time>2022-06-26T08:22:26Z</time>
      </trkpt>
      <trkpt lat="48.05002" lon="6.89259">
        <ele>970.4</ele>
        <time>2022-06-26T08:22:27Z</time>
      </trkpt>
      <trkpt lat="48.05007" lon="6.89259">
        <ele>969.8</ele>
        <time>2022-06-26T08:22:28Z</time>
      </trkpt>
      <trkpt lat="48.05011" lon="6.8926">
        <ele>969.8</ele>
        <time>2022-06-26T08:22:29Z</time>
      </trkpt>
      <trkpt lat="48.05016" lon="6.89261">
        <ele>969.6</ele>
        <time>2022-06-26T08:22:30Z</time>
      </trkpt>
      <trkpt lat="48.05022" lon="6.89261">
        <ele>969.6</ele>
        <time>2022-06-26T08:22:31Z</time>
      </trkpt>
      <trkpt lat="48.05043" lon="6.89266">
        <ele>969.6</ele>
        <time>2022-06-26T08:22:34Z</time>
      </trkpt>
      <trkpt lat="48.05058" lon="6.8927">
        <ele>969.6</ele>
        <time>2022-06-26T08:22:37Z</time>
      </trkpt>
      <trkpt lat="48.05071" lon="6.89271">
        <ele>969.6</ele>
        <time>2022-06-26T08:22:39Z</time>
      </trkpt>
      <trkpt lat="48.05075" lon="6.89271">
        <ele>969.6</ele>
        <time>2022-06-26T08:22:40Z</time>
      </trkpt>
      <trkpt lat="48.0508" lon="6.89267">
        <ele>969.6</ele>
        <time>2022-06-26T08:22:41Z</time>
      </trkpt>
      <trkpt lat="48.05085" lon="6.89264">
        <ele>969.6</ele>
        <time>2022-06-26T08:22:42Z</time>
      </trkpt>
      <trkpt lat="48.05088" lon="6.89261">
        <ele>969.6</ele>
        <time>2022-06-26T08:22:43Z</time>
      </trkpt>
      <trkpt lat="48.05092" lon="6.89259">
        <ele>969.6</ele>
        <time>2022-06-26T08:22:44Z</time>
      </trkpt>
      <trkpt lat="48.05096" lon="6.89256">
        <ele>969.6</ele>
        <time>2022-06-26T08:22:45Z</time>
      </trkpt>
      <trkpt lat="48.05099" lon="6.89253">
        <ele>969.8</ele>
        <time>2022-06-26T08:22:46Z</time>
      </trkpt>
      <trkpt lat="48.05102" lon="6.89251">
        <ele>970</ele>
        <time>2022-06-26T08:22:47Z</time>
      </trkpt>
      <trkpt lat="48.05103" lon="6.89248">
        <ele>970.4</ele>
        <time>2022-06-26T08:22:48Z</time>
      </trkpt>
      <trkpt lat="48.05106" lon="6.89245">
        <ele>970.6</ele>
        <time>2022-06-26T08:22:49Z</time>
      </trkpt>
      <trkpt lat="48.05108" lon="6.89245">
        <ele>970.6</ele>
        <time>2022-06-26T08:22:50Z</time>
      </trkpt>
      <trkpt lat="48.0511" lon="6.89242">
        <ele>971</ele>
        <time>2022-06-26T08:22:51Z</time>
      </trkpt>
      <trkpt lat="48.05118" lon="6.89231">
        <ele>971.6</ele>
        <time>2022-06-26T08:22:55Z</time>
      </trkpt>
      <trkpt lat="48.0512" lon="6.89228">
        <ele>971.8</ele>
        <time>2022-06-26T08:22:56Z</time>
      </trkpt>
      <trkpt lat="48.05122" lon="6.89225">
        <ele>971.8</ele>
        <time>2022-06-26T08:22:57Z</time>
      </trkpt>
      <trkpt lat="48.05124" lon="6.89222">
        <ele>972</ele>
        <time>2022-06-26T08:22:58Z</time>
      </trkpt>
      <trkpt lat="48.05126" lon="6.89219">
        <ele>972</ele>
        <time>2022-06-26T08:22:59Z</time>
      </trkpt>
      <trkpt lat="48.05127" lon="6.89217">
        <ele>972.2</ele>
        <time>2022-06-26T08:23:00Z</time>
      </trkpt>
      <trkpt lat="48.05129" lon="6.89215">
        <ele>972.2</ele>
        <time>2022-06-26T08:23:01Z</time>
      </trkpt>
      <trkpt lat="48.05131" lon="6.89213">
        <ele>972.2</ele>
        <time>2022-06-26T08:23:02Z</time>
      </trkpt>
      <trkpt lat="48.05134" lon="6.89213">
        <ele>972.4</ele>
        <time>2022-06-26T08:23:03Z</time>
      </trkpt>
      <trkpt lat="48.05136" lon="6.89211">
        <ele>972.8</ele>
        <time>2022-06-26T08:23:04Z</time>
      </trkpt>
      <trkpt lat="48.05137" lon="6.89209">
        <ele>973</ele>
        <time>2022-06-26T08:23:05Z</time>
      </trkpt>
      <trkpt lat="48.0514" lon="6.89207">
        <ele>973.2</ele>
        <time>2022-06-26T08:23:06Z</time>
      </trkpt>
      <trkpt lat="48.05141" lon="6.89204">
        <ele>973.4</ele>
        <time>2022-06-26T08:23:07Z</time>
      </trkpt>
      <trkpt lat="48.05143" lon="6.89202">
        <ele>973.4</ele>
        <time>2022-06-26T08:23:08Z</time>
      </trkpt>
      <trkpt lat="48.05144" lon="6.892">
        <ele>973.6</ele>
        <time>2022-06-26T08:23:09Z</time>
      </trkpt>
      <trkpt lat="48.05146" lon="6.89199">
        <ele>973.8</ele>
        <time>2022-06-26T08:23:10Z</time>
      </trkpt>
      <trkpt lat="48.05147" lon="6.89196">
        <ele>973.8</ele>
        <time>2022-06-26T08:23:11Z</time>
      </trkpt>
      <trkpt lat="48.05149" lon="6.89194">
        <ele>974</ele>
        <time>2022-06-26T08:23:12Z</time>
      </trkpt>
      <trkpt lat="48.0515" lon="6.89192">
        <ele>974.4</ele>
        <time>2022-06-26T08:23:13Z</time>
      </trkpt>
      <trkpt lat="48.05151" lon="6.8919">
        <ele>974.6</ele>
        <time>2022-06-26T08:23:14Z</time>
      </trkpt>
      <trkpt lat="48.05152" lon="6.89188">
        <ele>974.8</ele>
        <time>2022-06-26T08:23:15Z</time>
      </trkpt>
      <trkpt lat="48.05153" lon="6.89186">
        <ele>974.8</ele>
        <time>2022-06-26T08:23:16Z</time>
      </trkpt>
      <trkpt lat="48.05155" lon="6.89184">
        <ele>975</ele>
        <time>2022-06-26T08:23:17Z</time>
      </trkpt>
      <trkpt lat="48.05156" lon="6.89182">
        <ele>975</ele>
        <time>2022-06-26T08:23:18Z</time>
      </trkpt>
      <trkpt lat="48.05157" lon="6.8918">
        <ele>975.2</ele>
        <time>2022-06-26T08:23:19Z</time>
      </trkpt>
      <trkpt lat="48.05158" lon="6.89177">
        <ele>975.4</ele>
        <time>2022-06-26T08:23:20Z</time>
      </trkpt>
      <trkpt lat="48.0516" lon="6.89175">
        <ele>975.6</ele>
        <time>2022-06-26T08:23:21Z</time>
      </trkpt>
      <trkpt lat="48.05161" lon="6.89173">
        <ele>975.8</ele>
        <time>2022-06-26T08:23:22Z</time>
      </trkpt>
      <trkpt lat="48.05163" lon="6.89171">
        <ele>975.8</ele>
        <time>2022-06-26T08:23:23Z</time>
      </trkpt>
      <trkpt lat="48.05165" lon="6.89169">
        <ele>976</ele>
        <time>2022-06-26T08:23:24Z</time>
      </trkpt>
      <trkpt lat="48.05167" lon="6.89167">
        <ele>976.2</ele>
        <time>2022-06-26T08:23:25Z</time>
      </trkpt>
      <trkpt lat="48.05169" lon="6.89166">
        <ele>976.2</ele>
        <time>2022-06-26T08:23:26Z</time>
      </trkpt>
      <trkpt lat="48.0517" lon="6.89165">
        <ele>976.4</ele>
        <time>2022-06-26T08:23:27Z</time>
      </trkpt>
      <trkpt lat="48.05172" lon="6.89163">
        <ele>976.4</ele>
        <time>2022-06-26T08:23:28Z</time>
      </trkpt>
      <trkpt lat="48.05174" lon="6.89162">
        <ele>976.6</ele>
        <time>2022-06-26T08:23:29Z</time>
      </trkpt>
      <trkpt lat="48.05175" lon="6.89161">
        <ele>976.6</ele>
        <time>2022-06-26T08:23:30Z</time>
      </trkpt>
      <trkpt lat="48.05177" lon="6.8916">
        <ele>976.8</ele>
        <time>2022-06-26T08:23:31Z</time>
      </trkpt>
      <trkpt lat="48.05179" lon="6.89159">
        <ele>977</ele>
        <time>2022-06-26T08:23:32Z</time>
      </trkpt>
      <trkpt lat="48.0518" lon="6.89158">
        <ele>977.2</ele>
        <time>2022-06-26T08:23:33Z</time>
      </trkpt>
      <trkpt lat="48.05182" lon="6.89157">
        <ele>977.4</ele>
        <time>2022-06-26T08:23:34Z</time>
      </trkpt>
      <trkpt lat="48.05183" lon="6.89156">
        <ele>977.6</ele>
        <time>2022-06-26T08:23:35Z</time>
      </trkpt>
      <trkpt lat="48.05184" lon="6.89154">
        <ele>977.8</ele>
        <time>2022-06-26T08:23:36Z</time>
      </trkpt>
      <trkpt lat="48.05186" lon="6.89153">
        <ele>977.8</ele>
        <time>2022-06-26T08:23:37Z</time>
      </trkpt>
      <trkpt lat="48.05187" lon="6.89152">
        <ele>978.2</ele>
        <time>2022-06-26T08:23:38Z</time>
      </trkpt>
      <trkpt lat="48.05188" lon="6.8915">
        <ele>978.4</ele>
        <time>2022-06-26T08:23:39Z</time>
      </trkpt>
      <trkpt lat="48.0519" lon="6.89149">
        <ele>978.8</ele>
        <time>2022-06-26T08:23:40Z</time>
      </trkpt>
      <trkpt lat="48.05191" lon="6.89148">
        <ele>979</ele>
        <time>2022-06-26T08:23:41Z</time>
      </trkpt>
      <trkpt lat="48.05193" lon="6.89148">
        <ele>979.2</ele>
        <time>2022-06-26T08:23:42Z</time>
      </trkpt>
      <trkpt lat="48.05194" lon="6.89147">
        <ele>979.4</ele>
        <time>2022-06-26T08:23:43Z</time>
      </trkpt>
      <trkpt lat="48.05195" lon="6.89146">
        <ele>979.6</ele>
        <time>2022-06-26T08:23:44Z</time>
      </trkpt>
      <trkpt lat="48.05196" lon="6.89144">
        <ele>979.6</ele>
        <time>2022-06-26T08:23:45Z</time>
      </trkpt>
      <trkpt lat="48.05198" lon="6.89143">
        <ele>979.6</ele>
        <time>2022-06-26T08:23:46Z</time>
      </trkpt>
      <trkpt lat="48.05199" lon="6.89141">
        <ele>979.8</ele>
        <time>2022-06-26T08:23:47Z</time>
      </trkpt>
      <trkpt lat="48.052" lon="6.8914">
        <ele>980</ele>
        <time>2022-06-26T08:23:48Z</time>
      </trkpt>
      <trkpt lat="48.05201" lon="6.89139">
        <ele>980</ele>
        <time>2022-06-26T08:23:49Z</time>
      </trkpt>
      <trkpt lat="48.05202" lon="6.89138">
        <ele>980.2</ele>
        <time>2022-06-26T08:23:50Z</time>
      </trkpt>
      <trkpt lat="48.05204" lon="6.89137">
        <ele>980.4</ele>
        <time>2022-06-26T08:23:51Z</time>
      </trkpt>
      <trkpt lat="48.05205" lon="6.89136">
        <ele>980.6</ele>
        <time>2022-06-26T08:23:52Z</time>
      </trkpt>
      <trkpt lat="48.05205" lon="6.89136">
        <ele>980.6</ele>
        <time>2022-06-26T08:23:53Z</time>
      </trkpt>
      <trkpt lat="48.05207" lon="6.89135">
        <ele>980.8</ele>
        <time>2022-06-26T08:23:54Z</time>
      </trkpt>
      <trkpt lat="48.05208" lon="6.89133">
        <ele>981</ele>
        <time>2022-06-26T08:23:55Z</time>
      </trkpt>
      <trkpt lat="48.05209" lon="6.89132">
        <ele>981</ele>
        <time>2022-06-26T08:23:56Z</time>
      </trkpt>
      <trkpt lat="48.0521" lon="6.89131">
        <ele>981.2</ele>
        <time>2022-06-26T08:23:57Z</time>
      </trkpt>
      <trkpt lat="48.05211" lon="6.8913">
        <ele>981.2</ele>
        <time>2022-06-26T08:23:58Z</time>
      </trkpt>
      <trkpt lat="48.05211" lon="6.89129">
        <ele>981.4</ele>
        <time>2022-06-26T08:23:59Z</time>
      </trkpt>
      <trkpt lat="48.05212" lon="6.89128">
        <ele>981.6</ele>
        <time>2022-06-26T08:24:00Z</time>
      </trkpt>
      <trkpt lat="48.05213" lon="6.89125">
        <ele>981.8</ele>
        <time>2022-06-26T08:24:01Z</time>
      </trkpt>
      <trkpt lat="48.05214" lon="6.89124">
        <ele>982</ele>
        <time>2022-06-26T08:24:02Z</time>
      </trkpt>
      <trkpt lat="48.05215" lon="6.89122">
        <ele>982.2</ele>
        <time>2022-06-26T08:24:03Z</time>
      </trkpt>
      <trkpt lat="48.05216" lon="6.89121">
        <ele>982.4</ele>
        <time>2022-06-26T08:24:04Z</time>
      </trkpt>
      <trkpt lat="48.05217" lon="6.8912">
        <ele>982.6</ele>
        <time>2022-06-26T08:24:05Z</time>
      </trkpt>
      <trkpt lat="48.05218" lon="6.89118">
        <ele>982.8</ele>
        <time>2022-06-26T08:24:06Z</time>
      </trkpt>
      <trkpt lat="48.05219" lon="6.89117">
        <ele>983</ele>
        <time>2022-06-26T08:24:07Z</time>
      </trkpt>
      <trkpt lat="48.05221" lon="6.89116">
        <ele>983</ele>
        <time>2022-06-26T08:24:08Z</time>
      </trkpt>
      <trkpt lat="48.05222" lon="6.89114">
        <ele>983.4</ele>
        <time>2022-06-26T08:24:09Z</time>
      </trkpt>
      <trkpt lat="48.05223" lon="6.89113">
        <ele>983.6</ele>
        <time>2022-06-26T08:24:10Z</time>
      </trkpt>
      <trkpt lat="48.05224" lon="6.8911">
        <ele>983.6</ele>
        <time>2022-06-26T08:24:11Z</time>
      </trkpt>
      <trkpt lat="48.05225" lon="6.89108">
        <ele>983.8</ele>
        <time>2022-06-26T08:24:12Z</time>
      </trkpt>
      <trkpt lat="48.05226" lon="6.89105">
        <ele>983.8</ele>
        <time>2022-06-26T08:24:13Z</time>
      </trkpt>
      <trkpt lat="48.05227" lon="6.89104">
        <ele>984</ele>
        <time>2022-06-26T08:24:14Z</time>
      </trkpt>
      <trkpt lat="48.05228" lon="6.89102">
        <ele>984.2</ele>
        <time>2022-06-26T08:24:15Z</time>
      </trkpt>
      <trkpt lat="48.05229" lon="6.891">
        <ele>984.4</ele>
        <time>2022-06-26T08:24:16Z</time>
      </trkpt>
      <trkpt lat="48.05231" lon="6.89097">
        <ele>984.6</ele>
        <time>2022-06-26T08:24:17Z</time>
      </trkpt>
      <trkpt lat="48.05232" lon="6.89095">
        <ele>984.8</ele>
        <time>2022-06-26T08:24:18Z</time>
      </trkpt>
      <trkpt lat="48.05233" lon="6.89091">
        <ele>985</ele>
        <time>2022-06-26T08:24:19Z</time>
      </trkpt>
      <trkpt lat="48.05234" lon="6.89089">
        <ele>985</ele>
        <time>2022-06-26T08:24:20Z</time>
      </trkpt>
      <trkpt lat="48.05236" lon="6.89086">
        <ele>985.4</ele>
        <time>2022-06-26T08:24:21Z</time>
      </trkpt>
      <trkpt lat="48.05237" lon="6.89084">
        <ele>985.6</ele>
        <time>2022-06-26T08:24:22Z</time>
      </trkpt>
      <trkpt lat="48.05238" lon="6.89082">
        <ele>985.6</ele>
        <time>2022-06-26T08:24:23Z</time>
      </trkpt>
      <trkpt lat="48.05239" lon="6.8908">
        <ele>985.8</ele>
        <time>2022-06-26T08:24:24Z</time>
      </trkpt>
      <trkpt lat="48.05241" lon="6.89078">
        <ele>985.8</ele>
        <time>2022-06-26T08:24:25Z</time>
      </trkpt>
      <trkpt lat="48.05242" lon="6.89076">
        <ele>985.8</ele>
        <time>2022-06-26T08:24:26Z</time>
      </trkpt>
      <trkpt lat="48.05243" lon="6.89074">
        <ele>986</ele>
        <time>2022-06-26T08:24:27Z</time>
      </trkpt>
      <trkpt lat="48.05245" lon="6.89072">
        <ele>986.2</ele>
        <time>2022-06-26T08:24:28Z</time>
      </trkpt>
      <trkpt lat="48.05246" lon="6.8907">
        <ele>986.2</ele>
        <time>2022-06-26T08:24:29Z</time>
      </trkpt>
      <trkpt lat="48.05246" lon="6.89068">
        <ele>986.6</ele>
        <time>2022-06-26T08:24:30Z</time>
      </trkpt>
      <trkpt lat="48.05247" lon="6.89065">
        <ele>986.8</ele>
        <time>2022-06-26T08:24:31Z</time>
      </trkpt>
      <trkpt lat="48.05248" lon="6.89063">
        <ele>987.2</ele>
        <time>2022-06-26T08:24:32Z</time>
      </trkpt>
      <trkpt lat="48.05249" lon="6.89061">
        <ele>987.2</ele>
        <time>2022-06-26T08:24:33Z</time>
      </trkpt>
      <trkpt lat="48.0525" lon="6.89059">
        <ele>987.4</ele>
        <time>2022-06-26T08:24:34Z</time>
      </trkpt>
      <trkpt lat="48.05251" lon="6.89057">
        <ele>987.6</ele>
        <time>2022-06-26T08:24:35Z</time>
      </trkpt>
      <trkpt lat="48.05251" lon="6.89055">
        <ele>987.6</ele>
        <time>2022-06-26T08:24:36Z</time>
      </trkpt>
      <trkpt lat="48.05252" lon="6.89053">
        <ele>988</ele>
        <time>2022-06-26T08:24:37Z</time>
      </trkpt>
      <trkpt lat="48.05253" lon="6.89051">
        <ele>988</ele>
        <time>2022-06-26T08:24:38Z</time>
      </trkpt>
      <trkpt lat="48.05254" lon="6.89049">
        <ele>988.2</ele>
        <time>2022-06-26T08:24:39Z</time>
      </trkpt>
      <trkpt lat="48.05255" lon="6.89047">
        <ele>988.4</ele>
        <time>2022-06-26T08:24:40Z</time>
      </trkpt>
      <trkpt lat="48.05255" lon="6.89044">
        <ele>988.6</ele>
        <time>2022-06-26T08:24:41Z</time>
      </trkpt>
      <trkpt lat="48.05256" lon="6.89041">
        <ele>988.6</ele>
        <time>2022-06-26T08:24:42Z</time>
      </trkpt>
      <trkpt lat="48.05257" lon="6.89039">
        <ele>988.8</ele>
        <time>2022-06-26T08:24:43Z</time>
      </trkpt>
      <trkpt lat="48.05258" lon="6.89037">
        <ele>988.8</ele>
        <time>2022-06-26T08:24:44Z</time>
      </trkpt>
      <trkpt lat="48.05259" lon="6.89035">
        <ele>989</ele>
        <time>2022-06-26T08:24:45Z</time>
      </trkpt>
      <trkpt lat="48.0526" lon="6.89033">
        <ele>989.2</ele>
        <time>2022-06-26T08:24:46Z</time>
      </trkpt>
      <trkpt lat="48.05261" lon="6.89031">
        <ele>989.2</ele>
        <time>2022-06-26T08:24:47Z</time>
      </trkpt>
      <trkpt lat="48.05262" lon="6.89029">
        <ele>989.4</ele>
        <time>2022-06-26T08:24:48Z</time>
      </trkpt>
      <trkpt lat="48.05263" lon="6.89027">
        <ele>989.4</ele>
        <time>2022-06-26T08:24:49Z</time>
      </trkpt>
      <trkpt lat="48.05265" lon="6.89025">
        <ele>989.6</ele>
        <time>2022-06-26T08:24:50Z</time>
      </trkpt>
      <trkpt lat="48.05266" lon="6.89024">
        <ele>989.6</ele>
        <time>2022-06-26T08:24:51Z</time>
      </trkpt>
      <trkpt lat="48.05267" lon="6.89022">
        <ele>989.8</ele>
        <time>2022-06-26T08:24:52Z</time>
      </trkpt>
      <trkpt lat="48.05268" lon="6.8902">
        <ele>989.8</ele>
        <time>2022-06-26T08:24:53Z</time>
      </trkpt>
      <trkpt lat="48.05269" lon="6.89018">
        <ele>990</ele>
        <time>2022-06-26T08:24:54Z</time>
      </trkpt>
      <trkpt lat="48.0527" lon="6.89016">
        <ele>990.2</ele>
        <time>2022-06-26T08:24:55Z</time>
      </trkpt>
      <trkpt lat="48.05271" lon="6.89013">
        <ele>990.2</ele>
        <time>2022-06-26T08:24:56Z</time>
      </trkpt>
      <trkpt lat="48.05272" lon="6.8901">
        <ele>990.4</ele>
        <time>2022-06-26T08:24:57Z</time>
      </trkpt>
      <trkpt lat="48.05273" lon="6.89009">
        <ele>990.6</ele>
        <time>2022-06-26T08:24:58Z</time>
      </trkpt>
      <trkpt lat="48.05275" lon="6.89007">
        <ele>991</ele>
        <time>2022-06-26T08:24:59Z</time>
      </trkpt>
      <trkpt lat="48.05276" lon="6.89005">
        <ele>991</ele>
        <time>2022-06-26T08:25:00Z</time>
      </trkpt>
      <trkpt lat="48.05278" lon="6.89003">
        <ele>991.2</ele>
        <time>2022-06-26T08:25:01Z</time>
      </trkpt>
      <trkpt lat="48.0528" lon="6.89001">
        <ele>991.4</ele>
        <time>2022-06-26T08:25:02Z</time>
      </trkpt>
      <trkpt lat="48.05281" lon="6.88998">
        <ele>991.6</ele>
        <time>2022-06-26T08:25:03Z</time>
      </trkpt>
      <trkpt lat="48.05282" lon="6.88996">
        <ele>991.8</ele>
        <time>2022-06-26T08:25:04Z</time>
      </trkpt>
      <trkpt lat="48.05284" lon="6.88994">
        <ele>991.8</ele>
        <time>2022-06-26T08:25:05Z</time>
      </trkpt>
      <trkpt lat="48.05284" lon="6.88992">
        <ele>992</ele>
        <time>2022-06-26T08:25:06Z</time>
      </trkpt>
      <trkpt lat="48.05286" lon="6.8899">
        <ele>992</ele>
        <time>2022-06-26T08:25:07Z</time>
      </trkpt>
      <trkpt lat="48.05287" lon="6.88988">
        <ele>992.2</ele>
        <time>2022-06-26T08:25:08Z</time>
      </trkpt>
      <trkpt lat="48.05288" lon="6.88986">
        <ele>992.2</ele>
        <time>2022-06-26T08:25:09Z</time>
      </trkpt>
      <trkpt lat="48.0529" lon="6.88984">
        <ele>992.4</ele>
        <time>2022-06-26T08:25:10Z</time>
      </trkpt>
      <trkpt lat="48.05291" lon="6.88983">
        <ele>992.4</ele>
        <time>2022-06-26T08:25:11Z</time>
      </trkpt>
      <trkpt lat="48.05291" lon="6.88983">
        <ele>992.6</ele>
        <time>2022-06-26T08:25:12Z</time>
      </trkpt>
      <trkpt lat="48.05291" lon="6.88983">
        <ele>992.8</ele>
        <time>2022-06-26T08:25:14Z</time>
      </trkpt>
      <trkpt lat="48.05291" lon="6.88983">
        <ele>993.2</ele>
        <time>2022-06-26T08:25:19Z</time>
      </trkpt>
      <trkpt lat="48.05292" lon="6.88981">
        <ele>993.4</ele>
        <time>2022-06-26T08:25:38Z</time>
      </trkpt>
      <trkpt lat="48.05293" lon="6.88974">
        <ele>993.4</ele>
        <time>2022-06-26T08:25:41Z</time>
      </trkpt>
      <trkpt lat="48.05297" lon="6.88955">
        <ele>993.4</ele>
        <time>2022-06-26T08:25:46Z</time>
      </trkpt>
      <trkpt lat="48.05297" lon="6.88951">
        <ele>993.4</ele>
        <time>2022-06-26T08:25:47Z</time>
      </trkpt>
      <trkpt lat="48.053" lon="6.88933">
        <ele>993</ele>
        <time>2022-06-26T08:25:50Z</time>
      </trkpt>
      <trkpt lat="48.053" lon="6.88927">
        <ele>992.6</ele>
        <time>2022-06-26T08:25:51Z</time>
      </trkpt>
      <trkpt lat="48.053" lon="6.88919">
        <ele>992.6</ele>
        <time>2022-06-26T08:25:52Z</time>
      </trkpt>
      <trkpt lat="48.05299" lon="6.88903">
        <ele>992.2</ele>
        <time>2022-06-26T08:25:54Z</time>
      </trkpt>
      <trkpt lat="48.05299" lon="6.88894">
        <ele>992</ele>
        <time>2022-06-26T08:25:55Z</time>
      </trkpt>
      <trkpt lat="48.05299" lon="6.88887">
        <ele>992</ele>
        <time>2022-06-26T08:25:56Z</time>
      </trkpt>
      <trkpt lat="48.05298" lon="6.88871">
        <ele>991.8</ele>
        <time>2022-06-26T08:25:58Z</time>
      </trkpt>
      <trkpt lat="48.05297" lon="6.88854">
        <ele>991</ele>
        <time>2022-06-26T08:26:00Z</time>
      </trkpt>
      <trkpt lat="48.05296" lon="6.88846">
        <ele>990.8</ele>
        <time>2022-06-26T08:26:01Z</time>
      </trkpt>
      <trkpt lat="48.05296" lon="6.88838">
        <ele>990.4</ele>
        <time>2022-06-26T08:26:02Z</time>
      </trkpt>
      <trkpt lat="48.05293" lon="6.88821">
        <ele>989.8</ele>
        <time>2022-06-26T08:26:04Z</time>
      </trkpt>
      <trkpt lat="48.05291" lon="6.88813">
        <ele>989.6</ele>
        <time>2022-06-26T08:26:05Z</time>
      </trkpt>
      <trkpt lat="48.05288" lon="6.88796">
        <ele>988.8</ele>
        <time>2022-06-26T08:26:07Z</time>
      </trkpt>
      <trkpt lat="48.05281" lon="6.88769">
        <ele>988.2</ele>
        <time>2022-06-26T08:26:10Z</time>
      </trkpt>
      <trkpt lat="48.05275" lon="6.88743">
        <ele>987.4</ele>
        <time>2022-06-26T08:26:13Z</time>
      </trkpt>
      <trkpt lat="48.05267" lon="6.88718">
        <ele>986.2</ele>
        <time>2022-06-26T08:26:16Z</time>
      </trkpt>
      <trkpt lat="48.05265" lon="6.88711">
        <ele>986</ele>
        <time>2022-06-26T08:26:17Z</time>
      </trkpt>
      <trkpt lat="48.05262" lon="6.88704">
        <ele>985.8</ele>
        <time>2022-06-26T08:26:18Z</time>
      </trkpt>
      <trkpt lat="48.05261" lon="6.88696">
        <ele>985.8</ele>
        <time>2022-06-26T08:26:19Z</time>
      </trkpt>
      <trkpt lat="48.05257" lon="6.88672">
        <ele>985.6</ele>
        <time>2022-06-26T08:26:22Z</time>
      </trkpt>
      <trkpt lat="48.05256" lon="6.88663">
        <ele>985.6</ele>
        <time>2022-06-26T08:26:23Z</time>
      </trkpt>
      <trkpt lat="48.05253" lon="6.88656">
        <ele>985</ele>
        <time>2022-06-26T08:26:24Z</time>
      </trkpt>
      <trkpt lat="48.05248" lon="6.88642">
        <ele>984.4</ele>
        <time>2022-06-26T08:26:26Z</time>
      </trkpt>
      <trkpt lat="48.05244" lon="6.88635">
        <ele>984</ele>
        <time>2022-06-26T08:26:27Z</time>
      </trkpt>
      <trkpt lat="48.0523" lon="6.88607">
        <ele>982.8</ele>
        <time>2022-06-26T08:26:31Z</time>
      </trkpt>
      <trkpt lat="48.05219" lon="6.88584">
        <ele>981.8</ele>
        <time>2022-06-26T08:26:34Z</time>
      </trkpt>
      <trkpt lat="48.05216" lon="6.88578">
        <ele>981.4</ele>
        <time>2022-06-26T08:26:35Z</time>
      </trkpt>
      <trkpt lat="48.05214" lon="6.88574">
        <ele>980.6</ele>
        <time>2022-06-26T08:26:36Z</time>
      </trkpt>
      <trkpt lat="48.05211" lon="6.88569">
        <ele>980</ele>
        <time>2022-06-26T08:26:37Z</time>
      </trkpt>
      <trkpt lat="48.05209" lon="6.88563">
        <ele>979.4</ele>
        <time>2022-06-26T08:26:38Z</time>
      </trkpt>
      <trkpt lat="48.05206" lon="6.88558">
        <ele>979.2</ele>
        <time>2022-06-26T08:26:39Z</time>
      </trkpt>
      <trkpt lat="48.05199" lon="6.88546">
        <ele>978.6</ele>
        <time>2022-06-26T08:26:41Z</time>
      </trkpt>
      <trkpt lat="48.05196" lon="6.8854">
        <ele>978</ele>
        <time>2022-06-26T08:26:42Z</time>
      </trkpt>
      <trkpt lat="48.05188" lon="6.88516">
        <ele>976.8</ele>
        <time>2022-06-26T08:26:45Z</time>
      </trkpt>
      <trkpt lat="48.05185" lon="6.88499">
        <ele>975.2</ele>
        <time>2022-06-26T08:26:47Z</time>
      </trkpt>
      <trkpt lat="48.05183" lon="6.88492">
        <ele>974.4</ele>
        <time>2022-06-26T08:26:48Z</time>
      </trkpt>
      <trkpt lat="48.05182" lon="6.88484">
        <ele>972.6</ele>
        <time>2022-06-26T08:26:49Z</time>
      </trkpt>
      <trkpt lat="48.05181" lon="6.88478">
        <ele>972</ele>
        <time>2022-06-26T08:26:50Z</time>
      </trkpt>
      <trkpt lat="48.0518" lon="6.8847">
        <ele>971.4</ele>
        <time>2022-06-26T08:26:51Z</time>
      </trkpt>
      <trkpt lat="48.05179" lon="6.88464">
        <ele>971</ele>
        <time>2022-06-26T08:26:52Z</time>
      </trkpt>
      <trkpt lat="48.05179" lon="6.88458">
        <ele>970.6</ele>
        <time>2022-06-26T08:26:53Z</time>
      </trkpt>
      <trkpt lat="48.05179" lon="6.88452">
        <ele>969.4</ele>
        <time>2022-06-26T08:26:54Z</time>
      </trkpt>
      <trkpt lat="48.05178" lon="6.88446">
        <ele>969</ele>
        <time>2022-06-26T08:26:55Z</time>
      </trkpt>
      <trkpt lat="48.05178" lon="6.88438">
        <ele>968</ele>
        <time>2022-06-26T08:26:56Z</time>
      </trkpt>
      <trkpt lat="48.0518" lon="6.88431">
        <ele>967.6</ele>
        <time>2022-06-26T08:26:57Z</time>
      </trkpt>
      <trkpt lat="48.05181" lon="6.88425">
        <ele>966</ele>
        <time>2022-06-26T08:26:58Z</time>
      </trkpt>
      <trkpt lat="48.05182" lon="6.88422">
        <ele>965.4</ele>
        <time>2022-06-26T08:26:59Z</time>
      </trkpt>
      <trkpt lat="48.05181" lon="6.88418">
        <ele>964.2</ele>
        <time>2022-06-26T08:27:00Z</time>
      </trkpt>
      <trkpt lat="48.05181" lon="6.88414">
        <ele>963.4</ele>
        <time>2022-06-26T08:27:01Z</time>
      </trkpt>
      <trkpt lat="48.0518" lon="6.88412">
        <ele>963.2</ele>
        <time>2022-06-26T08:27:02Z</time>
      </trkpt>
      <trkpt lat="48.05179" lon="6.88408">
        <ele>961.2</ele>
        <time>2022-06-26T08:27:03Z</time>
      </trkpt>
      <trkpt lat="48.05175" lon="6.88397">
        <ele>959.8</ele>
        <time>2022-06-26T08:27:05Z</time>
      </trkpt>
      <trkpt lat="48.05174" lon="6.88391">
        <ele>959.2</ele>
        <time>2022-06-26T08:27:06Z</time>
      </trkpt>
      <trkpt lat="48.05174" lon="6.88387">
        <ele>958.8</ele>
        <time>2022-06-26T08:27:07Z</time>
      </trkpt>
      <trkpt lat="48.05174" lon="6.88385">
        <ele>958.6</ele>
        <time>2022-06-26T08:27:08Z</time>
      </trkpt>
      <trkpt lat="48.05175" lon="6.88381">
        <ele>958</ele>
        <time>2022-06-26T08:27:09Z</time>
      </trkpt>
      <trkpt lat="48.05174" lon="6.88375">
        <ele>957</ele>
        <time>2022-06-26T08:27:10Z</time>
      </trkpt>
      <trkpt lat="48.05176" lon="6.88362">
        <ele>956</ele>
        <time>2022-06-26T08:27:12Z</time>
      </trkpt>
      <trkpt lat="48.0518" lon="6.88343">
        <ele>955</ele>
        <time>2022-06-26T08:27:14Z</time>
      </trkpt>
      <trkpt lat="48.05181" lon="6.88336">
        <ele>954.8</ele>
        <time>2022-06-26T08:27:15Z</time>
      </trkpt>
      <trkpt lat="48.05183" lon="6.88328">
        <ele>954.2</ele>
        <time>2022-06-26T08:27:16Z</time>
      </trkpt>
      <trkpt lat="48.0518" lon="6.88316">
        <ele>953.6</ele>
        <time>2022-06-26T08:27:17Z</time>
      </trkpt>
      <trkpt lat="48.0518" lon="6.88311">
        <ele>952.2</ele>
        <time>2022-06-26T08:27:18Z</time>
      </trkpt>
      <trkpt lat="48.05182" lon="6.88308">
        <ele>951.4</ele>
        <time>2022-06-26T08:27:19Z</time>
      </trkpt>
      <trkpt lat="48.05185" lon="6.88304">
        <ele>951.2</ele>
        <time>2022-06-26T08:27:20Z</time>
      </trkpt>
      <trkpt lat="48.05187" lon="6.883">
        <ele>950.6</ele>
        <time>2022-06-26T08:27:21Z</time>
      </trkpt>
      <trkpt lat="48.05186" lon="6.88293">
        <ele>950.4</ele>
        <time>2022-06-26T08:27:22Z</time>
      </trkpt>
      <trkpt lat="48.05187" lon="6.88288">
        <ele>949.8</ele>
        <time>2022-06-26T08:27:23Z</time>
      </trkpt>
      <trkpt lat="48.05188" lon="6.88282">
        <ele>949.6</ele>
        <time>2022-06-26T08:27:24Z</time>
      </trkpt>
      <trkpt lat="48.05186" lon="6.88277">
        <ele>948.8</ele>
        <time>2022-06-26T08:27:25Z</time>
      </trkpt>
      <trkpt lat="48.05185" lon="6.88273">
        <ele>948.6</ele>
        <time>2022-06-26T08:27:26Z</time>
      </trkpt>
      <trkpt lat="48.05181" lon="6.88271">
        <ele>948.2</ele>
        <time>2022-06-26T08:27:27Z</time>
      </trkpt>
      <trkpt lat="48.05177" lon="6.88269">
        <ele>947.8</ele>
        <time>2022-06-26T08:27:28Z</time>
      </trkpt>
      <trkpt lat="48.05168" lon="6.88269">
        <ele>947.2</ele>
        <time>2022-06-26T08:27:30Z</time>
      </trkpt>
      <trkpt lat="48.05163" lon="6.8827">
        <ele>946.4</ele>
        <time>2022-06-26T08:27:32Z</time>
      </trkpt>
      <trkpt lat="48.0516" lon="6.8827">
        <ele>946.2</ele>
        <time>2022-06-26T08:27:33Z</time>
      </trkpt>
      <trkpt lat="48.05157" lon="6.88273">
        <ele>945.2</ele>
        <time>2022-06-26T08:27:34Z</time>
      </trkpt>
      <trkpt lat="48.05153" lon="6.88274">
        <ele>944.4</ele>
        <time>2022-06-26T08:27:35Z</time>
      </trkpt>
      <trkpt lat="48.05145" lon="6.88273">
        <ele>943.8</ele>
        <time>2022-06-26T08:27:37Z</time>
      </trkpt>
      <trkpt lat="48.05141" lon="6.88276">
        <ele>943</ele>
        <time>2022-06-26T08:27:39Z</time>
      </trkpt>
      <trkpt lat="48.05138" lon="6.88278">
        <ele>942.8</ele>
        <time>2022-06-26T08:27:40Z</time>
      </trkpt>
      <trkpt lat="48.05135" lon="6.88279">
        <ele>942.6</ele>
        <time>2022-06-26T08:27:41Z</time>
      </trkpt>
      <trkpt lat="48.05132" lon="6.88283">
        <ele>942.4</ele>
        <time>2022-06-26T08:27:42Z</time>
      </trkpt>
      <trkpt lat="48.05129" lon="6.88287">
        <ele>941.4</ele>
        <time>2022-06-26T08:27:43Z</time>
      </trkpt>
      <trkpt lat="48.05124" lon="6.88291">
        <ele>940</ele>
        <time>2022-06-26T08:27:45Z</time>
      </trkpt>
      <trkpt lat="48.05121" lon="6.88295">
        <ele>939.2</ele>
        <time>2022-06-26T08:27:46Z</time>
      </trkpt>
      <trkpt lat="48.05118" lon="6.883">
        <ele>938.8</ele>
        <time>2022-06-26T08:27:47Z</time>
      </trkpt>
      <trkpt lat="48.05105" lon="6.88311">
        <ele>937.2</ele>
        <time>2022-06-26T08:27:50Z</time>
      </trkpt>
      <trkpt lat="48.05102" lon="6.88311">
        <ele>937</ele>
        <time>2022-06-26T08:27:51Z</time>
      </trkpt>
      <trkpt lat="48.05098" lon="6.88311">
        <ele>936.4</ele>
        <time>2022-06-26T08:27:52Z</time>
      </trkpt>
      <trkpt lat="48.05095" lon="6.88309">
        <ele>935.6</ele>
        <time>2022-06-26T08:27:53Z</time>
      </trkpt>
      <trkpt lat="48.05093" lon="6.88306">
        <ele>935.2</ele>
        <time>2022-06-26T08:27:54Z</time>
      </trkpt>
      <trkpt lat="48.05092" lon="6.88305">
        <ele>934</ele>
        <time>2022-06-26T08:27:55Z</time>
      </trkpt>
      <trkpt lat="48.05091" lon="6.88304">
        <ele>933.6</ele>
        <time>2022-06-26T08:27:56Z</time>
      </trkpt>
      <trkpt lat="48.05091" lon="6.88302">
        <ele>932.8</ele>
        <time>2022-06-26T08:27:57Z</time>
      </trkpt>
      <trkpt lat="48.05089" lon="6.883">
        <ele>932.4</ele>
        <time>2022-06-26T08:27:58Z</time>
      </trkpt>
      <trkpt lat="48.0509" lon="6.88297">
        <ele>932</ele>
        <time>2022-06-26T08:27:59Z</time>
      </trkpt>
      <trkpt lat="48.05089" lon="6.88295">
        <ele>931.8</ele>
        <time>2022-06-26T08:28:00Z</time>
      </trkpt>
      <trkpt lat="48.05088" lon="6.88294">
        <ele>931.4</ele>
        <time>2022-06-26T08:28:01Z</time>
      </trkpt>
      <trkpt lat="48.05087" lon="6.88293">
        <ele>931</ele>
        <time>2022-06-26T08:28:02Z</time>
      </trkpt>
      <trkpt lat="48.05086" lon="6.88291">
        <ele>930.8</ele>
        <time>2022-06-26T08:28:03Z</time>
      </trkpt>
      <trkpt lat="48.05085" lon="6.88288">
        <ele>930.6</ele>
        <time>2022-06-26T08:28:04Z</time>
      </trkpt>
      <trkpt lat="48.05083" lon="6.88286">
        <ele>930.4</ele>
        <time>2022-06-26T08:28:05Z</time>
      </trkpt>
      <trkpt lat="48.05082" lon="6.88284">
        <ele>929.8</ele>
        <time>2022-06-26T08:28:06Z</time>
      </trkpt>
      <trkpt lat="48.05082" lon="6.88283">
        <ele>929.4</ele>
        <time>2022-06-26T08:28:07Z</time>
      </trkpt>
      <trkpt lat="48.05081" lon="6.88282">
        <ele>928.8</ele>
        <time>2022-06-26T08:28:08Z</time>
      </trkpt>
      <trkpt lat="48.05081" lon="6.88282">
        <ele>928.4</ele>
        <time>2022-06-26T08:28:09Z</time>
      </trkpt>
      <trkpt lat="48.05081" lon="6.88282">
        <ele>928</ele>
        <time>2022-06-26T08:28:10Z</time>
      </trkpt>
      <trkpt lat="48.05081" lon="6.88282">
        <ele>927.6</ele>
        <time>2022-06-26T08:28:11Z</time>
      </trkpt>
      <trkpt lat="48.05081" lon="6.88282">
        <ele>926.8</ele>
        <time>2022-06-26T08:28:15Z</time>
      </trkpt>
      <trkpt lat="48.05081" lon="6.8828">
        <ele>926.6</ele>
        <time>2022-06-26T08:28:16Z</time>
      </trkpt>
      <trkpt lat="48.05081" lon="6.88275">
        <ele>926.4</ele>
        <time>2022-06-26T08:28:18Z</time>
      </trkpt>
      <trkpt lat="48.0508" lon="6.88272">
        <ele>926.4</ele>
        <time>2022-06-26T08:28:19Z</time>
      </trkpt>
      <trkpt lat="48.05079" lon="6.88267">
        <ele>926</ele>
        <time>2022-06-26T08:28:20Z</time>
      </trkpt>
      <trkpt lat="48.05076" lon="6.88258">
        <ele>925.4</ele>
        <time>2022-06-26T08:28:22Z</time>
      </trkpt>
      <trkpt lat="48.05075" lon="6.88255">
        <ele>924.8</ele>
        <time>2022-06-26T08:28:23Z</time>
      </trkpt>
      <trkpt lat="48.05074" lon="6.88252">
        <ele>924</ele>
        <time>2022-06-26T08:28:24Z</time>
      </trkpt>
      <trkpt lat="48.0507" lon="6.88248">
        <ele>924</ele>
        <time>2022-06-26T08:28:25Z</time>
      </trkpt>
      <trkpt lat="48.05067" lon="6.88243">
        <ele>922.8</ele>
        <time>2022-06-26T08:28:26Z</time>
      </trkpt>
      <trkpt lat="48.05062" lon="6.88233">
        <ele>921.6</ele>
        <time>2022-06-26T08:28:28Z</time>
      </trkpt>
      <trkpt lat="48.05062" lon="6.88229">
        <ele>921</ele>
        <time>2022-06-26T08:28:29Z</time>
      </trkpt>
      <trkpt lat="48.05062" lon="6.88226">
        <ele>920.8</ele>
        <time>2022-06-26T08:28:30Z</time>
      </trkpt>
      <trkpt lat="48.05062" lon="6.88223">
        <ele>920</ele>
        <time>2022-06-26T08:28:31Z</time>
      </trkpt>
      <trkpt lat="48.05062" lon="6.88219">
        <ele>919.6</ele>
        <time>2022-06-26T08:28:32Z</time>
      </trkpt>
      <trkpt lat="48.05062" lon="6.88215">
        <ele>919</ele>
        <time>2022-06-26T08:28:33Z</time>
      </trkpt>
      <trkpt lat="48.05066" lon="6.88207">
        <ele>917.6</ele>
        <time>2022-06-26T08:28:35Z</time>
      </trkpt>
      <trkpt lat="48.05069" lon="6.882">
        <ele>917</ele>
        <time>2022-06-26T08:28:36Z</time>
      </trkpt>
      <trkpt lat="48.05071" lon="6.88192">
        <ele>916.2</ele>
        <time>2022-06-26T08:28:37Z</time>
      </trkpt>
      <trkpt lat="48.05073" lon="6.88186">
        <ele>915.8</ele>
        <time>2022-06-26T08:28:38Z</time>
      </trkpt>
      <trkpt lat="48.05075" lon="6.8818">
        <ele>915.6</ele>
        <time>2022-06-26T08:28:39Z</time>
      </trkpt>
      <trkpt lat="48.05077" lon="6.88175">
        <ele>915.2</ele>
        <time>2022-06-26T08:28:40Z</time>
      </trkpt>
      <trkpt lat="48.05081" lon="6.88173">
        <ele>915</ele>
        <time>2022-06-26T08:28:41Z</time>
      </trkpt>
      <trkpt lat="48.05083" lon="6.88171">
        <ele>914.2</ele>
        <time>2022-06-26T08:28:42Z</time>
      </trkpt>
      <trkpt lat="48.05086" lon="6.88168">
        <ele>913.8</ele>
        <time>2022-06-26T08:28:43Z</time>
      </trkpt>
      <trkpt lat="48.05089" lon="6.88164">
        <ele>912.6</ele>
        <time>2022-06-26T08:28:44Z</time>
      </trkpt>
      <trkpt lat="48.0509" lon="6.88157">
        <ele>912.2</ele>
        <time>2022-06-26T08:28:45Z</time>
      </trkpt>
      <trkpt lat="48.0509" lon="6.88156">
        <ele>911.6</ele>
        <time>2022-06-26T08:28:46Z</time>
      </trkpt>
      <trkpt lat="48.05088" lon="6.88153">
        <ele>911</ele>
        <time>2022-06-26T08:28:47Z</time>
      </trkpt>
      <trkpt lat="48.05083" lon="6.88148">
        <ele>910.8</ele>
        <time>2022-06-26T08:28:48Z</time>
      </trkpt>
      <trkpt lat="48.05085" lon="6.88147">
        <ele>910</ele>
        <time>2022-06-26T08:28:49Z</time>
      </trkpt>
      <trkpt lat="48.05086" lon="6.88145">
        <ele>909.6</ele>
        <time>2022-06-26T08:28:50Z</time>
      </trkpt>
      <trkpt lat="48.05086" lon="6.88144">
        <ele>909.2</ele>
        <time>2022-06-26T08:28:51Z</time>
      </trkpt>
      <trkpt lat="48.05086" lon="6.88144">
        <ele>908.8</ele>
        <time>2022-06-26T08:28:52Z</time>
      </trkpt>
      <trkpt lat="48.05087" lon="6.88144">
        <ele>907.8</ele>
        <time>2022-06-26T08:28:54Z</time>
      </trkpt>
      <trkpt lat="48.05087" lon="6.88143">
        <ele>907</ele>
        <time>2022-06-26T08:28:56Z</time>
      </trkpt>
      <trkpt lat="48.05088" lon="6.88143">
        <ele>907</ele>
        <time>2022-06-26T08:28:57Z</time>
      </trkpt>
      <trkpt lat="48.05088" lon="6.88142">
        <ele>906.8</ele>
        <time>2022-06-26T08:28:58Z</time>
      </trkpt>
      <trkpt lat="48.05089" lon="6.88142">
        <ele>906.6</ele>
        <time>2022-06-26T08:28:59Z</time>
      </trkpt>
      <trkpt lat="48.0509" lon="6.88142">
        <ele>906.4</ele>
        <time>2022-06-26T08:29:00Z</time>
      </trkpt>
      <trkpt lat="48.05091" lon="6.88141">
        <ele>906.2</ele>
        <time>2022-06-26T08:29:01Z</time>
      </trkpt>
      <trkpt lat="48.05092" lon="6.8814">
        <ele>905.6</ele>
        <time>2022-06-26T08:29:02Z</time>
      </trkpt>
      <trkpt lat="48.05092" lon="6.8814">
        <ele>905.4</ele>
        <time>2022-06-26T08:29:03Z</time>
      </trkpt>
      <trkpt lat="48.05093" lon="6.88139">
        <ele>905.2</ele>
        <time>2022-06-26T08:29:04Z</time>
      </trkpt>
      <trkpt lat="48.05093" lon="6.88138">
        <ele>905</ele>
        <time>2022-06-26T08:29:05Z</time>
      </trkpt>
      <trkpt lat="48.05094" lon="6.88137">
        <ele>904.8</ele>
        <time>2022-06-26T08:29:06Z</time>
      </trkpt>
      <trkpt lat="48.05094" lon="6.88136">
        <ele>904.4</ele>
        <time>2022-06-26T08:29:07Z</time>
      </trkpt>
      <trkpt lat="48.05095" lon="6.88136">
        <ele>904.2</ele>
        <time>2022-06-26T08:29:08Z</time>
      </trkpt>
      <trkpt lat="48.05096" lon="6.88135">
        <ele>903.8</ele>
        <time>2022-06-26T08:29:09Z</time>
      </trkpt>
      <trkpt lat="48.05097" lon="6.88133">
        <ele>903.6</ele>
        <time>2022-06-26T08:29:10Z</time>
      </trkpt>
      <trkpt lat="48.05099" lon="6.88131">
        <ele>903.4</ele>
        <time>2022-06-26T08:29:11Z</time>
      </trkpt>
      <trkpt lat="48.051" lon="6.8813">
        <ele>903.2</ele>
        <time>2022-06-26T08:29:12Z</time>
      </trkpt>
      <trkpt lat="48.05102" lon="6.88129">
        <ele>903.2</ele>
        <time>2022-06-26T08:29:13Z</time>
      </trkpt>
      <trkpt lat="48.05103" lon="6.88128">
        <ele>902.6</ele>
        <time>2022-06-26T08:29:14Z</time>
      </trkpt>
      <trkpt lat="48.05104" lon="6.88125">
        <ele>902.4</ele>
        <time>2022-06-26T08:29:15Z</time>
      </trkpt>
      <trkpt lat="48.05105" lon="6.88124">
        <ele>902</ele>
        <time>2022-06-26T08:29:16Z</time>
      </trkpt>
      <trkpt lat="48.05106" lon="6.8812">
        <ele>901.4</ele>
        <time>2022-06-26T08:29:18Z</time>
      </trkpt>
      <trkpt lat="48.05112" lon="6.88118">
        <ele>900.8</ele>
        <time>2022-06-26T08:29:20Z</time>
      </trkpt>
      <trkpt lat="48.05114" lon="6.88116">
        <ele>900.6</ele>
        <time>2022-06-26T08:29:21Z</time>
      </trkpt>
      <trkpt lat="48.05116" lon="6.88114">
        <ele>900.2</ele>
        <time>2022-06-26T08:29:22Z</time>
      </trkpt>
      <trkpt lat="48.05118" lon="6.88112">
        <ele>899.8</ele>
        <time>2022-06-26T08:29:23Z</time>
      </trkpt>
      <trkpt lat="48.05119" lon="6.88109">
        <ele>899.4</ele>
        <time>2022-06-26T08:29:24Z</time>
      </trkpt>
      <trkpt lat="48.0512" lon="6.88106">
        <ele>898.8</ele>
        <time>2022-06-26T08:29:25Z</time>
      </trkpt>
      <trkpt lat="48.05122" lon="6.88104">
        <ele>898.2</ele>
        <time>2022-06-26T08:29:26Z</time>
      </trkpt>
      <trkpt lat="48.05125" lon="6.88099">
        <ele>897.4</ele>
        <time>2022-06-26T08:29:28Z</time>
      </trkpt>
      <trkpt lat="48.05127" lon="6.88097">
        <ele>897</ele>
        <time>2022-06-26T08:29:29Z</time>
      </trkpt>
      <trkpt lat="48.05132" lon="6.88092">
        <ele>896.2</ele>
        <time>2022-06-26T08:29:31Z</time>
      </trkpt>
      <trkpt lat="48.05134" lon="6.88088">
        <ele>895.6</ele>
        <time>2022-06-26T08:29:32Z</time>
      </trkpt>
      <trkpt lat="48.05136" lon="6.88084">
        <ele>895</ele>
        <time>2022-06-26T08:29:33Z</time>
      </trkpt>
      <trkpt lat="48.05136" lon="6.88081">
        <ele>894.4</ele>
        <time>2022-06-26T08:29:34Z</time>
      </trkpt>
      <trkpt lat="48.05138" lon="6.8808">
        <ele>894</ele>
        <time>2022-06-26T08:29:35Z</time>
      </trkpt>
      <trkpt lat="48.05141" lon="6.88076">
        <ele>893</ele>
        <time>2022-06-26T08:29:36Z</time>
      </trkpt>
      <trkpt lat="48.05148" lon="6.88071">
        <ele>892</ele>
        <time>2022-06-26T08:29:38Z</time>
      </trkpt>
      <trkpt lat="48.0515" lon="6.88071">
        <ele>891.6</ele>
        <time>2022-06-26T08:29:39Z</time>
      </trkpt>
      <trkpt lat="48.05153" lon="6.88069">
        <ele>890.8</ele>
        <time>2022-06-26T08:29:40Z</time>
      </trkpt>
      <trkpt lat="48.05158" lon="6.88065">
        <ele>889.6</ele>
        <time>2022-06-26T08:29:42Z</time>
      </trkpt>
      <trkpt lat="48.05161" lon="6.88062">
        <ele>888.6</ele>
        <time>2022-06-26T08:29:43Z</time>
      </trkpt>
      <trkpt lat="48.05163" lon="6.88056">
        <ele>888</ele>
        <time>2022-06-26T08:29:44Z</time>
      </trkpt>
      <trkpt lat="48.05167" lon="6.88053">
        <ele>887</ele>
        <time>2022-06-26T08:29:45Z</time>
      </trkpt>
      <trkpt lat="48.05172" lon="6.88049">
        <ele>886.6</ele>
        <time>2022-06-26T08:29:46Z</time>
      </trkpt>
      <trkpt lat="48.05176" lon="6.88047">
        <ele>885.8</ele>
        <time>2022-06-26T08:29:47Z</time>
      </trkpt>
      <trkpt lat="48.0518" lon="6.88046">
        <ele>885.4</ele>
        <time>2022-06-26T08:29:48Z</time>
      </trkpt>
      <trkpt lat="48.05182" lon="6.88043">
        <ele>884.4</ele>
        <time>2022-06-26T08:29:49Z</time>
      </trkpt>
      <trkpt lat="48.05189" lon="6.88036">
        <ele>883</ele>
        <time>2022-06-26T08:29:51Z</time>
      </trkpt>
      <trkpt lat="48.05193" lon="6.88034">
        <ele>882</ele>
        <time>2022-06-26T08:29:52Z</time>
      </trkpt>
      <trkpt lat="48.05198" lon="6.88032">
        <ele>881</ele>
        <time>2022-06-26T08:29:54Z</time>
      </trkpt>
      <trkpt lat="48.05201" lon="6.88031">
        <ele>880.4</ele>
        <time>2022-06-26T08:29:55Z</time>
      </trkpt>
      <trkpt lat="48.05204" lon="6.8803">
        <ele>879.2</ele>
        <time>2022-06-26T08:29:56Z</time>
      </trkpt>
      <trkpt lat="48.05212" lon="6.88025">
        <ele>878</ele>
        <time>2022-06-26T08:29:58Z</time>
      </trkpt>
      <trkpt lat="48.05214" lon="6.8802">
        <ele>877.4</ele>
        <time>2022-06-26T08:29:59Z</time>
      </trkpt>
      <trkpt lat="48.05217" lon="6.88013">
        <ele>877.2</ele>
        <time>2022-06-26T08:30:00Z</time>
      </trkpt>
      <trkpt lat="48.0522" lon="6.88007">
        <ele>876.6</ele>
        <time>2022-06-26T08:30:01Z</time>
      </trkpt>
      <trkpt lat="48.05223" lon="6.88006">
        <ele>876.4</ele>
        <time>2022-06-26T08:30:02Z</time>
      </trkpt>
      <trkpt lat="48.05225" lon="6.88005">
        <ele>875.6</ele>
        <time>2022-06-26T08:30:03Z</time>
      </trkpt>
      <trkpt lat="48.05227" lon="6.88003">
        <ele>874.8</ele>
        <time>2022-06-26T08:30:04Z</time>
      </trkpt>
      <trkpt lat="48.05231" lon="6.88001">
        <ele>873.8</ele>
        <time>2022-06-26T08:30:05Z</time>
      </trkpt>
      <trkpt lat="48.05234" lon="6.87999">
        <ele>873.4</ele>
        <time>2022-06-26T08:30:06Z</time>
      </trkpt>
      <trkpt lat="48.05244" lon="6.87995">
        <ele>872.4</ele>
        <time>2022-06-26T08:30:08Z</time>
      </trkpt>
      <trkpt lat="48.05254" lon="6.87992">
        <ele>872</ele>
        <time>2022-06-26T08:30:09Z</time>
      </trkpt>
      <trkpt lat="48.05259" lon="6.87989">
        <ele>871</ele>
        <time>2022-06-26T08:30:10Z</time>
      </trkpt>
      <trkpt lat="48.05269" lon="6.87983">
        <ele>870</ele>
        <time>2022-06-26T08:30:12Z</time>
      </trkpt>
      <trkpt lat="48.05274" lon="6.87981">
        <ele>869.8</ele>
        <time>2022-06-26T08:30:13Z</time>
      </trkpt>
      <trkpt lat="48.05277" lon="6.87979">
        <ele>868.8</ele>
        <time>2022-06-26T08:30:14Z</time>
      </trkpt>
      <trkpt lat="48.0528" lon="6.87979">
        <ele>868.4</ele>
        <time>2022-06-26T08:30:15Z</time>
      </trkpt>
      <trkpt lat="48.05284" lon="6.87979">
        <ele>867.4</ele>
        <time>2022-06-26T08:30:16Z</time>
      </trkpt>
      <trkpt lat="48.05287" lon="6.87979">
        <ele>865.8</ele>
        <time>2022-06-26T08:30:17Z</time>
      </trkpt>
      <trkpt lat="48.0529" lon="6.87978">
        <ele>865.2</ele>
        <time>2022-06-26T08:30:18Z</time>
      </trkpt>
      <trkpt lat="48.05293" lon="6.87976">
        <ele>864.2</ele>
        <time>2022-06-26T08:30:19Z</time>
      </trkpt>
      <trkpt lat="48.05295" lon="6.87975">
        <ele>863.8</ele>
        <time>2022-06-26T08:30:20Z</time>
      </trkpt>
      <trkpt lat="48.05298" lon="6.87974">
        <ele>863</ele>
        <time>2022-06-26T08:30:21Z</time>
      </trkpt>
      <trkpt lat="48.05306" lon="6.87968">
        <ele>861.6</ele>
        <time>2022-06-26T08:30:23Z</time>
      </trkpt>
      <trkpt lat="48.05317" lon="6.87961">
        <ele>860.4</ele>
        <time>2022-06-26T08:30:25Z</time>
      </trkpt>
      <trkpt lat="48.05325" lon="6.87959">
        <ele>858.8</ele>
        <time>2022-06-26T08:30:27Z</time>
      </trkpt>
      <trkpt lat="48.05328" lon="6.87958">
        <ele>857.6</ele>
        <time>2022-06-26T08:30:28Z</time>
      </trkpt>
      <trkpt lat="48.05336" lon="6.87956">
        <ele>857</ele>
        <time>2022-06-26T08:30:29Z</time>
      </trkpt>
      <trkpt lat="48.05344" lon="6.87952">
        <ele>856</ele>
        <time>2022-06-26T08:30:30Z</time>
      </trkpt>
      <trkpt lat="48.05361" lon="6.87945">
        <ele>853.8</ele>
        <time>2022-06-26T08:30:32Z</time>
      </trkpt>
      <trkpt lat="48.05366" lon="6.87944">
        <ele>853.2</ele>
        <time>2022-06-26T08:30:33Z</time>
      </trkpt>
      <trkpt lat="48.0537" lon="6.87942">
        <ele>852</ele>
        <time>2022-06-26T08:30:34Z</time>
      </trkpt>
      <trkpt lat="48.05373" lon="6.87941">
        <ele>850.6</ele>
        <time>2022-06-26T08:30:35Z</time>
      </trkpt>
      <trkpt lat="48.05374" lon="6.87941">
        <ele>849.8</ele>
        <time>2022-06-26T08:30:36Z</time>
      </trkpt>
      <trkpt lat="48.05376" lon="6.87942">
        <ele>848.6</ele>
        <time>2022-06-26T08:30:37Z</time>
      </trkpt>
      <trkpt lat="48.05377" lon="6.87942">
        <ele>848</ele>
        <time>2022-06-26T08:30:38Z</time>
      </trkpt>
      <trkpt lat="48.05379" lon="6.87942">
        <ele>846.8</ele>
        <time>2022-06-26T08:30:39Z</time>
      </trkpt>
      <trkpt lat="48.05383" lon="6.87941">
        <ele>846.2</ele>
        <time>2022-06-26T08:30:40Z</time>
      </trkpt>
      <trkpt lat="48.05385" lon="6.87942">
        <ele>845.4</ele>
        <time>2022-06-26T08:30:41Z</time>
      </trkpt>
      <trkpt lat="48.05388" lon="6.87941">
        <ele>844.6</ele>
        <time>2022-06-26T08:30:43Z</time>
      </trkpt>
      <trkpt lat="48.05388" lon="6.87941">
        <ele>844.2</ele>
        <time>2022-06-26T08:30:44Z</time>
      </trkpt>
      <trkpt lat="48.05388" lon="6.87941">
        <ele>843</ele>
        <time>2022-06-26T08:30:47Z</time>
      </trkpt>
      <trkpt lat="48.0539" lon="6.87937">
        <ele>841.8</ele>
        <time>2022-06-26T08:30:50Z</time>
      </trkpt>
      <trkpt lat="48.05392" lon="6.87937">
        <ele>841.8</ele>
        <time>2022-06-26T08:30:51Z</time>
      </trkpt>
      <trkpt lat="48.05393" lon="6.87937">
        <ele>841.4</ele>
        <time>2022-06-26T08:30:52Z</time>
      </trkpt>
      <trkpt lat="48.05393" lon="6.87937">
        <ele>841.2</ele>
        <time>2022-06-26T08:30:53Z</time>
      </trkpt>
      <trkpt lat="48.05394" lon="6.87937">
        <ele>841</ele>
        <time>2022-06-26T08:30:54Z</time>
      </trkpt>
      <trkpt lat="48.05395" lon="6.87937">
        <ele>840.4</ele>
        <time>2022-06-26T08:30:55Z</time>
      </trkpt>
      <trkpt lat="48.05396" lon="6.87936">
        <ele>840</ele>
        <time>2022-06-26T08:30:56Z</time>
      </trkpt>
      <trkpt lat="48.05399" lon="6.87936">
        <ele>839.6</ele>
        <time>2022-06-26T08:30:58Z</time>
      </trkpt>
      <trkpt lat="48.05401" lon="6.87935">
        <ele>839</ele>
        <time>2022-06-26T08:30:59Z</time>
      </trkpt>
      <trkpt lat="48.05402" lon="6.87935">
        <ele>838.8</ele>
        <time>2022-06-26T08:31:00Z</time>
      </trkpt>
      <trkpt lat="48.05405" lon="6.87935">
        <ele>838.2</ele>
        <time>2022-06-26T08:31:01Z</time>
      </trkpt>
      <trkpt lat="48.05407" lon="6.87934">
        <ele>837.6</ele>
        <time>2022-06-26T08:31:02Z</time>
      </trkpt>
      <trkpt lat="48.0541" lon="6.87934">
        <ele>837.4</ele>
        <time>2022-06-26T08:31:03Z</time>
      </trkpt>
      <trkpt lat="48.05424" lon="6.87924">
        <ele>836.2</ele>
        <time>2022-06-26T08:31:06Z</time>
      </trkpt>
      <trkpt lat="48.05428" lon="6.8792">
        <ele>835.4</ele>
        <time>2022-06-26T08:31:07Z</time>
      </trkpt>
      <trkpt lat="48.05431" lon="6.87914">
        <ele>834.4</ele>
        <time>2022-06-26T08:31:08Z</time>
      </trkpt>
      <trkpt lat="48.05433" lon="6.87908">
        <ele>833.8</ele>
        <time>2022-06-26T08:31:09Z</time>
      </trkpt>
      <trkpt lat="48.05434" lon="6.879">
        <ele>833.4</ele>
        <time>2022-06-26T08:31:10Z</time>
      </trkpt>
      <trkpt lat="48.05433" lon="6.87895">
        <ele>832.4</ele>
        <time>2022-06-26T08:31:11Z</time>
      </trkpt>
      <trkpt lat="48.05432" lon="6.8789">
        <ele>832</ele>
        <time>2022-06-26T08:31:12Z</time>
      </trkpt>
      <trkpt lat="48.05432" lon="6.87885">
        <ele>831.2</ele>
        <time>2022-06-26T08:31:13Z</time>
      </trkpt>
      <trkpt lat="48.05432" lon="6.87884">
        <ele>831</ele>
        <time>2022-06-26T08:31:14Z</time>
      </trkpt>
      <trkpt lat="48.05432" lon="6.87882">
        <ele>830.6</ele>
        <time>2022-06-26T08:31:15Z</time>
      </trkpt>
      <trkpt lat="48.0543" lon="6.87881">
        <ele>830.2</ele>
        <time>2022-06-26T08:31:16Z</time>
      </trkpt>
      <trkpt lat="48.05428" lon="6.87879">
        <ele>829.2</ele>
        <time>2022-06-26T08:31:17Z</time>
      </trkpt>
      <trkpt lat="48.05425" lon="6.87877">
        <ele>828.4</ele>
        <time>2022-06-26T08:31:18Z</time>
      </trkpt>
      <trkpt lat="48.05422" lon="6.87874">
        <ele>828</ele>
        <time>2022-06-26T08:31:19Z</time>
      </trkpt>
      <trkpt lat="48.05419" lon="6.87872">
        <ele>827.2</ele>
        <time>2022-06-26T08:31:20Z</time>
      </trkpt>
      <trkpt lat="48.05416" lon="6.8787">
        <ele>827</ele>
        <time>2022-06-26T08:31:21Z</time>
      </trkpt>
      <trkpt lat="48.05413" lon="6.87867">
        <ele>825.8</ele>
        <time>2022-06-26T08:31:22Z</time>
      </trkpt>
      <trkpt lat="48.05401" lon="6.87858">
        <ele>824.2</ele>
        <time>2022-06-26T08:31:25Z</time>
      </trkpt>
      <trkpt lat="48.05398" lon="6.87856">
        <ele>823</ele>
        <time>2022-06-26T08:31:26Z</time>
      </trkpt>
      <trkpt lat="48.05396" lon="6.87854">
        <ele>822.2</ele>
        <time>2022-06-26T08:31:27Z</time>
      </trkpt>
      <trkpt lat="48.05393" lon="6.87852">
        <ele>822</ele>
        <time>2022-06-26T08:31:28Z</time>
      </trkpt>
      <trkpt lat="48.05388" lon="6.8785">
        <ele>821.2</ele>
        <time>2022-06-26T08:31:29Z</time>
      </trkpt>
      <trkpt lat="48.05378" lon="6.87847">
        <ele>820.6</ele>
        <time>2022-06-26T08:31:31Z</time>
      </trkpt>
      <trkpt lat="48.05374" lon="6.87846">
        <ele>820.6</ele>
        <time>2022-06-26T08:31:32Z</time>
      </trkpt>
      <trkpt lat="48.0537" lon="6.87845">
        <ele>820</ele>
        <time>2022-06-26T08:31:33Z</time>
      </trkpt>
      <trkpt lat="48.05365" lon="6.87842">
        <ele>819.8</ele>
        <time>2022-06-26T08:31:34Z</time>
      </trkpt>
      <trkpt lat="48.0536" lon="6.87839">
        <ele>819.4</ele>
        <time>2022-06-26T08:31:35Z</time>
      </trkpt>
      <trkpt lat="48.05357" lon="6.87838">
        <ele>818.8</ele>
        <time>2022-06-26T08:31:36Z</time>
      </trkpt>
      <trkpt lat="48.05356" lon="6.87835">
        <ele>818.4</ele>
        <time>2022-06-26T08:31:37Z</time>
      </trkpt>
      <trkpt lat="48.05355" lon="6.87835">
        <ele>817.8</ele>
        <time>2022-06-26T08:31:38Z</time>
      </trkpt>
      <trkpt lat="48.05355" lon="6.87835">
        <ele>816.6</ele>
        <time>2022-06-26T08:31:41Z</time>
      </trkpt>
      <trkpt lat="48.05355" lon="6.87836">
        <ele>815.6</ele>
        <time>2022-06-26T08:31:47Z</time>
      </trkpt>
      <trkpt lat="48.05355" lon="6.87836">
        <ele>815.6</ele>
        <time>2022-06-26T08:31:48Z</time>
      </trkpt>
      <trkpt lat="48.05355" lon="6.87835">
        <ele>815.4</ele>
        <time>2022-06-26T08:31:53Z</time>
      </trkpt>
      <trkpt lat="48.05355" lon="6.87834">
        <ele>815.4</ele>
        <time>2022-06-26T08:31:54Z</time>
      </trkpt>
      <trkpt lat="48.05356" lon="6.87834">
        <ele>815.4</ele>
        <time>2022-06-26T08:31:55Z</time>
      </trkpt>
      <trkpt lat="48.05356" lon="6.87833">
        <ele>815.2</ele>
        <time>2022-06-26T08:31:56Z</time>
      </trkpt>
      <trkpt lat="48.05357" lon="6.87832">
        <ele>815.2</ele>
        <time>2022-06-26T08:31:57Z</time>
      </trkpt>
      <trkpt lat="48.05358" lon="6.87832">
        <ele>814.8</ele>
        <time>2022-06-26T08:31:58Z</time>
      </trkpt>
      <trkpt lat="48.05358" lon="6.87832">
        <ele>814.8</ele>
        <time>2022-06-26T08:31:59Z</time>
      </trkpt>
      <trkpt lat="48.05359" lon="6.8783">
        <ele>814.6</ele>
        <time>2022-06-26T08:32:00Z</time>
      </trkpt>
      <trkpt lat="48.05361" lon="6.87828">
        <ele>814.4</ele>
        <time>2022-06-26T08:32:01Z</time>
      </trkpt>
      <trkpt lat="48.05369" lon="6.87824">
        <ele>813.6</ele>
        <time>2022-06-26T08:32:04Z</time>
      </trkpt>
      <trkpt lat="48.05374" lon="6.87818">
        <ele>813.4</ele>
        <time>2022-06-26T08:32:06Z</time>
      </trkpt>
      <trkpt lat="48.05377" lon="6.87816">
        <ele>813</ele>
        <time>2022-06-26T08:32:07Z</time>
      </trkpt>
      <trkpt lat="48.05379" lon="6.87814">
        <ele>813</ele>
        <time>2022-06-26T08:32:08Z</time>
      </trkpt>
      <trkpt lat="48.05385" lon="6.87811">
        <ele>812.2</ele>
        <time>2022-06-26T08:32:11Z</time>
      </trkpt>
      <trkpt lat="48.05389" lon="6.87809">
        <ele>811.8</ele>
        <time>2022-06-26T08:32:12Z</time>
      </trkpt>
      <trkpt lat="48.05399" lon="6.87805">
        <ele>811.2</ele>
        <time>2022-06-26T08:32:14Z</time>
      </trkpt>
      <trkpt lat="48.05405" lon="6.87803">
        <ele>811</ele>
        <time>2022-06-26T08:32:15Z</time>
      </trkpt>
      <trkpt lat="48.05419" lon="6.87794">
        <ele>810</ele>
        <time>2022-06-26T08:32:18Z</time>
      </trkpt>
      <trkpt lat="48.05427" lon="6.87787">
        <ele>809.4</ele>
        <time>2022-06-26T08:32:20Z</time>
      </trkpt>
      <trkpt lat="48.05432" lon="6.87785">
        <ele>809</ele>
        <time>2022-06-26T08:32:21Z</time>
      </trkpt>
      <trkpt lat="48.05437" lon="6.87783">
        <ele>808.8</ele>
        <time>2022-06-26T08:32:22Z</time>
      </trkpt>
      <trkpt lat="48.05442" lon="6.8778">
        <ele>807.4</ele>
        <time>2022-06-26T08:32:23Z</time>
      </trkpt>
      <trkpt lat="48.05448" lon="6.87777">
        <ele>807</ele>
        <time>2022-06-26T08:32:24Z</time>
      </trkpt>
      <trkpt lat="48.05454" lon="6.87775">
        <ele>806.2</ele>
        <time>2022-06-26T08:32:25Z</time>
      </trkpt>
      <trkpt lat="48.05459" lon="6.87773">
        <ele>805.8</ele>
        <time>2022-06-26T08:32:26Z</time>
      </trkpt>
      <trkpt lat="48.05462" lon="6.87774">
        <ele>805.4</ele>
        <time>2022-06-26T08:32:27Z</time>
      </trkpt>
      <trkpt lat="48.05465" lon="6.87773">
        <ele>804.6</ele>
        <time>2022-06-26T08:32:28Z</time>
      </trkpt>
      <trkpt lat="48.05467" lon="6.87772">
        <ele>803.8</ele>
        <time>2022-06-26T08:32:29Z</time>
      </trkpt>
      <trkpt lat="48.0547" lon="6.8777">
        <ele>803.4</ele>
        <time>2022-06-26T08:32:30Z</time>
      </trkpt>
      <trkpt lat="48.0548" lon="6.87769">
        <ele>802.4</ele>
        <time>2022-06-26T08:32:33Z</time>
      </trkpt>
      <trkpt lat="48.05486" lon="6.87767">
        <ele>801.2</ele>
        <time>2022-06-26T08:32:35Z</time>
      </trkpt>
      <trkpt lat="48.05489" lon="6.87766">
        <ele>800.4</ele>
        <time>2022-06-26T08:32:36Z</time>
      </trkpt>
      <trkpt lat="48.05492" lon="6.87764">
        <ele>800.2</ele>
        <time>2022-06-26T08:32:37Z</time>
      </trkpt>
      <trkpt lat="48.05493" lon="6.87761">
        <ele>799.8</ele>
        <time>2022-06-26T08:32:38Z</time>
      </trkpt>
      <trkpt lat="48.05493" lon="6.87758">
        <ele>799</ele>
        <time>2022-06-26T08:32:39Z</time>
      </trkpt>
      <trkpt lat="48.05493" lon="6.87755">
        <ele>798.6</ele>
        <time>2022-06-26T08:32:40Z</time>
      </trkpt>
      <trkpt lat="48.05493" lon="6.87748">
        <ele>797.8</ele>
        <time>2022-06-26T08:32:42Z</time>
      </trkpt>
      <trkpt lat="48.05493" lon="6.87744">
        <ele>797.6</ele>
        <time>2022-06-26T08:32:43Z</time>
      </trkpt>
      <trkpt lat="48.05497" lon="6.87717">
        <ele>797.4</ele>
        <time>2022-06-26T08:32:47Z</time>
      </trkpt>
      <trkpt lat="48.055" lon="6.87696">
        <ele>796.6</ele>
        <time>2022-06-26T08:32:49Z</time>
      </trkpt>
      <trkpt lat="48.05502" lon="6.87675">
        <ele>795.2</ele>
        <time>2022-06-26T08:32:51Z</time>
      </trkpt>
      <trkpt lat="48.05501" lon="6.87667">
        <ele>794.4</ele>
        <time>2022-06-26T08:32:52Z</time>
      </trkpt>
      <trkpt lat="48.05499" lon="6.87662">
        <ele>793.6</ele>
        <time>2022-06-26T08:32:53Z</time>
      </trkpt>
      <trkpt lat="48.05496" lon="6.87659">
        <ele>792.4</ele>
        <time>2022-06-26T08:32:54Z</time>
      </trkpt>
      <trkpt lat="48.05493" lon="6.87655">
        <ele>791.6</ele>
        <time>2022-06-26T08:32:55Z</time>
      </trkpt>
      <trkpt lat="48.05491" lon="6.87651">
        <ele>789.8</ele>
        <time>2022-06-26T08:32:56Z</time>
      </trkpt>
      <trkpt lat="48.05489" lon="6.87647">
        <ele>788.8</ele>
        <time>2022-06-26T08:32:57Z</time>
      </trkpt>
      <trkpt lat="48.05487" lon="6.87642">
        <ele>788.6</ele>
        <time>2022-06-26T08:32:58Z</time>
      </trkpt>
      <trkpt lat="48.05486" lon="6.87637">
        <ele>788.4</ele>
        <time>2022-06-26T08:32:59Z</time>
      </trkpt>
      <trkpt lat="48.05486" lon="6.87631">
        <ele>788.2</ele>
        <time>2022-06-26T08:33:00Z</time>
      </trkpt>
      <trkpt lat="48.05485" lon="6.87625">
        <ele>788</ele>
        <time>2022-06-26T08:33:01Z</time>
      </trkpt>
      <trkpt lat="48.05484" lon="6.87619">
        <ele>788</ele>
        <time>2022-06-26T08:33:02Z</time>
      </trkpt>
      <trkpt lat="48.05478" lon="6.87588">
        <ele>787.6</ele>
        <time>2022-06-26T08:33:07Z</time>
      </trkpt>
      <trkpt lat="48.05476" lon="6.87575">
        <ele>787.4</ele>
        <time>2022-06-26T08:33:09Z</time>
      </trkpt>
      <trkpt lat="48.05474" lon="6.87563">
        <ele>787.2</ele>
        <time>2022-06-26T08:33:11Z</time>
      </trkpt>
      <trkpt lat="48.05472" lon="6.87558">
        <ele>787.2</ele>
        <time>2022-06-26T08:33:12Z</time>
      </trkpt>
      <trkpt lat="48.05471" lon="6.87553">
        <ele>787.2</ele>
        <time>2022-06-26T08:33:13Z</time>
      </trkpt>
      <trkpt lat="48.05469" lon="6.87549">
        <ele>787</ele>
        <time>2022-06-26T08:33:14Z</time>
      </trkpt>
      <trkpt lat="48.05468" lon="6.87544">
        <ele>787</ele>
        <time>2022-06-26T08:33:15Z</time>
      </trkpt>
      <trkpt lat="48.05466" lon="6.8754">
        <ele>787</ele>
        <time>2022-06-26T08:33:16Z</time>
      </trkpt>
      <trkpt lat="48.05458" lon="6.87528">
        <ele>787</ele>
        <time>2022-06-26T08:33:19Z</time>
      </trkpt>
      <trkpt lat="48.05437" lon="6.875">
        <ele>786.8</ele>
        <time>2022-06-26T08:33:25Z</time>
      </trkpt>
      <trkpt lat="48.05433" lon="6.87495">
        <ele>786.8</ele>
        <time>2022-06-26T08:33:26Z</time>
      </trkpt>
      <trkpt lat="48.0542" lon="6.87484">
        <ele>786.6</ele>
        <time>2022-06-26T08:33:29Z</time>
      </trkpt>
      <trkpt lat="48.054" lon="6.87467">
        <ele>786</ele>
        <time>2022-06-26T08:33:34Z</time>
      </trkpt>
      <trkpt lat="48.05396" lon="6.87464">
        <ele>786</ele>
        <time>2022-06-26T08:33:35Z</time>
      </trkpt>
      <trkpt lat="48.05392" lon="6.8746">
        <ele>786</ele>
        <time>2022-06-26T08:33:36Z</time>
      </trkpt>
      <trkpt lat="48.05388" lon="6.87457">
        <ele>786</ele>
        <time>2022-06-26T08:33:37Z</time>
      </trkpt>
      <trkpt lat="48.0538" lon="6.87451">
        <ele>786</ele>
        <time>2022-06-26T08:33:39Z</time>
      </trkpt>
      <trkpt lat="48.05376" lon="6.87448">
        <ele>786</ele>
        <time>2022-06-26T08:33:40Z</time>
      </trkpt>
      <trkpt lat="48.05372" lon="6.87445">
        <ele>786</ele>
        <time>2022-06-26T08:33:41Z</time>
      </trkpt>
      <trkpt lat="48.05357" lon="6.87433">
        <ele>786.2</ele>
        <time>2022-06-26T08:33:45Z</time>
      </trkpt>
      <trkpt lat="48.05322" lon="6.87399">
        <ele>786.4</ele>
        <time>2022-06-26T08:33:53Z</time>
      </trkpt>
      <trkpt lat="48.05296" lon="6.87382">
        <ele>786.4</ele>
        <time>2022-06-26T08:33:59Z</time>
      </trkpt>
      <trkpt lat="48.05292" lon="6.8738">
        <ele>786.8</ele>
        <time>2022-06-26T08:34:00Z</time>
      </trkpt>
      <trkpt lat="48.05288" lon="6.87377">
        <ele>786.8</ele>
        <time>2022-06-26T08:34:01Z</time>
      </trkpt>
      <trkpt lat="48.05284" lon="6.87375">
        <ele>787</ele>
        <time>2022-06-26T08:34:02Z</time>
      </trkpt>
      <trkpt lat="48.05279" lon="6.87373">
        <ele>787</ele>
        <time>2022-06-26T08:34:03Z</time>
      </trkpt>
      <trkpt lat="48.05275" lon="6.87371">
        <ele>787.2</ele>
        <time>2022-06-26T08:34:04Z</time>
      </trkpt>
      <trkpt lat="48.05271" lon="6.8737">
        <ele>787.2</ele>
        <time>2022-06-26T08:34:05Z</time>
      </trkpt>
      <trkpt lat="48.05267" lon="6.87368">
        <ele>787.4</ele>
        <time>2022-06-26T08:34:06Z</time>
      </trkpt>
      <trkpt lat="48.05263" lon="6.87365">
        <ele>787.4</ele>
        <time>2022-06-26T08:34:07Z</time>
      </trkpt>
      <trkpt lat="48.05255" lon="6.8736">
        <ele>787.6</ele>
        <time>2022-06-26T08:34:09Z</time>
      </trkpt>
      <trkpt lat="48.05246" lon="6.87356">
        <ele>787.8</ele>
        <time>2022-06-26T08:34:11Z</time>
      </trkpt>
      <trkpt lat="48.05242" lon="6.87354">
        <ele>787.8</ele>
        <time>2022-06-26T08:34:12Z</time>
      </trkpt>
      <trkpt lat="48.05238" lon="6.87353">
        <ele>788</ele>
        <time>2022-06-26T08:34:13Z</time>
      </trkpt>
      <trkpt lat="48.05234" lon="6.87351">
        <ele>788</ele>
        <time>2022-06-26T08:34:14Z</time>
      </trkpt>
      <trkpt lat="48.0523" lon="6.8735">
        <ele>788</ele>
        <time>2022-06-26T08:34:15Z</time>
      </trkpt>
      <trkpt lat="48.05226" lon="6.87348">
        <ele>788.2</ele>
        <time>2022-06-26T08:34:16Z</time>
      </trkpt>
      <trkpt lat="48.05218" lon="6.87345">
        <ele>788.4</ele>
        <time>2022-06-26T08:34:18Z</time>
      </trkpt>
      <trkpt lat="48.05214" lon="6.87344">
        <ele>788.4</ele>
        <time>2022-06-26T08:34:19Z</time>
      </trkpt>
      <trkpt lat="48.05211" lon="6.87342">
        <ele>788.6</ele>
        <time>2022-06-26T08:34:20Z</time>
      </trkpt>
      <trkpt lat="48.05207" lon="6.8734">
        <ele>788.6</ele>
        <time>2022-06-26T08:34:21Z</time>
      </trkpt>
      <trkpt lat="48.05203" lon="6.87339">
        <ele>789</ele>
        <time>2022-06-26T08:34:22Z</time>
      </trkpt>
      <trkpt lat="48.05199" lon="6.87338">
        <ele>789</ele>
        <time>2022-06-26T08:34:23Z</time>
      </trkpt>
      <trkpt lat="48.05189" lon="6.87334">
        <ele>789.4</ele>
        <time>2022-06-26T08:34:26Z</time>
      </trkpt>
      <trkpt lat="48.05185" lon="6.87332">
        <ele>789.6</ele>
        <time>2022-06-26T08:34:27Z</time>
      </trkpt>
      <trkpt lat="48.05181" lon="6.87331">
        <ele>789.8</ele>
        <time>2022-06-26T08:34:28Z</time>
      </trkpt>
      <trkpt lat="48.05178" lon="6.87329">
        <ele>790.2</ele>
        <time>2022-06-26T08:34:29Z</time>
      </trkpt>
      <trkpt lat="48.05171" lon="6.87324">
        <ele>790.6</ele>
        <time>2022-06-26T08:34:31Z</time>
      </trkpt>
      <trkpt lat="48.05168" lon="6.87321">
        <ele>790.6</ele>
        <time>2022-06-26T08:34:32Z</time>
      </trkpt>
      <trkpt lat="48.05165" lon="6.87318">
        <ele>790.8</ele>
        <time>2022-06-26T08:34:33Z</time>
      </trkpt>
      <trkpt lat="48.05163" lon="6.87316">
        <ele>791</ele>
        <time>2022-06-26T08:34:34Z</time>
      </trkpt>
      <trkpt lat="48.05161" lon="6.87312">
        <ele>791.2</ele>
        <time>2022-06-26T08:34:35Z</time>
      </trkpt>
      <trkpt lat="48.05158" lon="6.87309">
        <ele>791.6</ele>
        <time>2022-06-26T08:34:36Z</time>
      </trkpt>
      <trkpt lat="48.05155" lon="6.87304">
        <ele>791.8</ele>
        <time>2022-06-26T08:34:37Z</time>
      </trkpt>
      <trkpt lat="48.05153" lon="6.873">
        <ele>792</ele>
        <time>2022-06-26T08:34:38Z</time>
      </trkpt>
      <trkpt lat="48.05151" lon="6.87296">
        <ele>792.2</ele>
        <time>2022-06-26T08:34:39Z</time>
      </trkpt>
      <trkpt lat="48.05149" lon="6.87292">
        <ele>792.4</ele>
        <time>2022-06-26T08:34:40Z</time>
      </trkpt>
      <trkpt lat="48.05148" lon="6.87288">
        <ele>792.6</ele>
        <time>2022-06-26T08:34:41Z</time>
      </trkpt>
      <trkpt lat="48.05147" lon="6.87283">
        <ele>792.8</ele>
        <time>2022-06-26T08:34:42Z</time>
      </trkpt>
      <trkpt lat="48.05146" lon="6.87278">
        <ele>793</ele>
        <time>2022-06-26T08:34:43Z</time>
      </trkpt>
      <trkpt lat="48.05145" lon="6.87274">
        <ele>793.2</ele>
        <time>2022-06-26T08:34:44Z</time>
      </trkpt>
      <trkpt lat="48.05145" lon="6.8727">
        <ele>793.4</ele>
        <time>2022-06-26T08:34:45Z</time>
      </trkpt>
      <trkpt lat="48.05144" lon="6.87266">
        <ele>793.6</ele>
        <time>2022-06-26T08:34:46Z</time>
      </trkpt>
      <trkpt lat="48.05144" lon="6.87263">
        <ele>794</ele>
        <time>2022-06-26T08:34:47Z</time>
      </trkpt>
      <trkpt lat="48.05144" lon="6.87259">
        <ele>794</ele>
        <time>2022-06-26T08:34:48Z</time>
      </trkpt>
      <trkpt lat="48.05143" lon="6.87256">
        <ele>794.4</ele>
        <time>2022-06-26T08:34:49Z</time>
      </trkpt>
      <trkpt lat="48.05143" lon="6.87253">
        <ele>794.4</ele>
        <time>2022-06-26T08:34:50Z</time>
      </trkpt>
      <trkpt lat="48.05142" lon="6.8725">
        <ele>794.6</ele>
        <time>2022-06-26T08:34:51Z</time>
      </trkpt>
      <trkpt lat="48.05142" lon="6.87248">
        <ele>794.8</ele>
        <time>2022-06-26T08:34:52Z</time>
      </trkpt>
      <trkpt lat="48.05142" lon="6.87245">
        <ele>795</ele>
        <time>2022-06-26T08:34:53Z</time>
      </trkpt>
      <trkpt lat="48.05142" lon="6.87242">
        <ele>795.4</ele>
        <time>2022-06-26T08:34:54Z</time>
      </trkpt>
      <trkpt lat="48.05141" lon="6.8724">
        <ele>795.6</ele>
        <time>2022-06-26T08:34:55Z</time>
      </trkpt>
      <trkpt lat="48.0514" lon="6.87237">
        <ele>795.8</ele>
        <time>2022-06-26T08:34:56Z</time>
      </trkpt>
      <trkpt lat="48.05139" lon="6.87235">
        <ele>796</ele>
        <time>2022-06-26T08:34:57Z</time>
      </trkpt>
      <trkpt lat="48.05138" lon="6.87232">
        <ele>796.2</ele>
        <time>2022-06-26T08:34:58Z</time>
      </trkpt>
      <trkpt lat="48.05138" lon="6.87229">
        <ele>796.4</ele>
        <time>2022-06-26T08:34:59Z</time>
      </trkpt>
      <trkpt lat="48.05138" lon="6.87227">
        <ele>796.6</ele>
        <time>2022-06-26T08:35:00Z</time>
      </trkpt>
      <trkpt lat="48.05137" lon="6.87224">
        <ele>796.6</ele>
        <time>2022-06-26T08:35:01Z</time>
      </trkpt>
      <trkpt lat="48.05137" lon="6.87221">
        <ele>796.8</ele>
        <time>2022-06-26T08:35:02Z</time>
      </trkpt>
      <trkpt lat="48.05137" lon="6.87218">
        <ele>797</ele>
        <time>2022-06-26T08:35:03Z</time>
      </trkpt>
      <trkpt lat="48.05136" lon="6.87216">
        <ele>797.2</ele>
        <time>2022-06-26T08:35:04Z</time>
      </trkpt>
      <trkpt lat="48.05136" lon="6.87214">
        <ele>797.2</ele>
        <time>2022-06-26T08:35:05Z</time>
      </trkpt>
      <trkpt lat="48.05135" lon="6.87211">
        <ele>797.4</ele>
        <time>2022-06-26T08:35:06Z</time>
      </trkpt>
      <trkpt lat="48.05135" lon="6.87209">
        <ele>797.8</ele>
        <time>2022-06-26T08:35:07Z</time>
      </trkpt>
      <trkpt lat="48.05134" lon="6.87207">
        <ele>797.8</ele>
        <time>2022-06-26T08:35:08Z</time>
      </trkpt>
      <trkpt lat="48.05134" lon="6.87204">
        <ele>798</ele>
        <time>2022-06-26T08:35:09Z</time>
      </trkpt>
      <trkpt lat="48.05133" lon="6.87201">
        <ele>798</ele>
        <time>2022-06-26T08:35:10Z</time>
      </trkpt>
      <trkpt lat="48.05133" lon="6.87199">
        <ele>798</ele>
        <time>2022-06-26T08:35:11Z</time>
      </trkpt>
      <trkpt lat="48.05132" lon="6.87196">
        <ele>798.2</ele>
        <time>2022-06-26T08:35:12Z</time>
      </trkpt>
      <trkpt lat="48.05132" lon="6.87194">
        <ele>798.4</ele>
        <time>2022-06-26T08:35:13Z</time>
      </trkpt>
      <trkpt lat="48.05131" lon="6.87191">
        <ele>798.6</ele>
        <time>2022-06-26T08:35:14Z</time>
      </trkpt>
      <trkpt lat="48.05131" lon="6.87188">
        <ele>798.6</ele>
        <time>2022-06-26T08:35:15Z</time>
      </trkpt>
      <trkpt lat="48.0513" lon="6.87185">
        <ele>798.8</ele>
        <time>2022-06-26T08:35:16Z</time>
      </trkpt>
      <trkpt lat="48.0513" lon="6.87183">
        <ele>799</ele>
        <time>2022-06-26T08:35:17Z</time>
      </trkpt>
      <trkpt lat="48.05129" lon="6.8718">
        <ele>799.2</ele>
        <time>2022-06-26T08:35:18Z</time>
      </trkpt>
      <trkpt lat="48.05129" lon="6.87178">
        <ele>799.4</ele>
        <time>2022-06-26T08:35:19Z</time>
      </trkpt>
      <trkpt lat="48.05128" lon="6.87176">
        <ele>799.6</ele>
        <time>2022-06-26T08:35:20Z</time>
      </trkpt>
      <trkpt lat="48.05128" lon="6.87173">
        <ele>799.6</ele>
        <time>2022-06-26T08:35:21Z</time>
      </trkpt>
      <trkpt lat="48.05127" lon="6.87171">
        <ele>799.8</ele>
        <time>2022-06-26T08:35:22Z</time>
      </trkpt>
      <trkpt lat="48.05127" lon="6.87169">
        <ele>800</ele>
        <time>2022-06-26T08:35:23Z</time>
      </trkpt>
      <trkpt lat="48.05126" lon="6.87166">
        <ele>800</ele>
        <time>2022-06-26T08:35:24Z</time>
      </trkpt>
      <trkpt lat="48.05125" lon="6.87164">
        <ele>800.2</ele>
        <time>2022-06-26T08:35:25Z</time>
      </trkpt>
      <trkpt lat="48.05125" lon="6.87162">
        <ele>800.4</ele>
        <time>2022-06-26T08:35:26Z</time>
      </trkpt>
      <trkpt lat="48.05124" lon="6.87159">
        <ele>800.8</ele>
        <time>2022-06-26T08:35:27Z</time>
      </trkpt>
      <trkpt lat="48.05123" lon="6.87157">
        <ele>801</ele>
        <time>2022-06-26T08:35:28Z</time>
      </trkpt>
      <trkpt lat="48.05123" lon="6.87154">
        <ele>801.2</ele>
        <time>2022-06-26T08:35:29Z</time>
      </trkpt>
      <trkpt lat="48.05122" lon="6.87152">
        <ele>801.6</ele>
        <time>2022-06-26T08:35:30Z</time>
      </trkpt>
      <trkpt lat="48.05122" lon="6.87149">
        <ele>801.6</ele>
        <time>2022-06-26T08:35:31Z</time>
      </trkpt>
      <trkpt lat="48.05121" lon="6.87147">
        <ele>801.6</ele>
        <time>2022-06-26T08:35:32Z</time>
      </trkpt>
      <trkpt lat="48.05121" lon="6.87145">
        <ele>801.8</ele>
        <time>2022-06-26T08:35:33Z</time>
      </trkpt>
      <trkpt lat="48.0512" lon="6.87142">
        <ele>802.2</ele>
        <time>2022-06-26T08:35:34Z</time>
      </trkpt>
      <trkpt lat="48.05119" lon="6.8714">
        <ele>802.4</ele>
        <time>2022-06-26T08:35:35Z</time>
      </trkpt>
      <trkpt lat="48.05119" lon="6.87138">
        <ele>802.8</ele>
        <time>2022-06-26T08:35:36Z</time>
      </trkpt>
      <trkpt lat="48.05118" lon="6.87136">
        <ele>802.8</ele>
        <time>2022-06-26T08:35:37Z</time>
      </trkpt>
      <trkpt lat="48.05117" lon="6.87133">
        <ele>803</ele>
        <time>2022-06-26T08:35:38Z</time>
      </trkpt>
      <trkpt lat="48.05117" lon="6.8713">
        <ele>803.4</ele>
        <time>2022-06-26T08:35:39Z</time>
      </trkpt>
      <trkpt lat="48.05116" lon="6.87128">
        <ele>803.4</ele>
        <time>2022-06-26T08:35:40Z</time>
      </trkpt>
      <trkpt lat="48.05115" lon="6.87125">
        <ele>803.8</ele>
        <time>2022-06-26T08:35:41Z</time>
      </trkpt>
      <trkpt lat="48.05115" lon="6.87123">
        <ele>804</ele>
        <time>2022-06-26T08:35:42Z</time>
      </trkpt>
      <trkpt lat="48.05114" lon="6.8712">
        <ele>804.2</ele>
        <time>2022-06-26T08:35:43Z</time>
      </trkpt>
      <trkpt lat="48.05113" lon="6.87117">
        <ele>804.4</ele>
        <time>2022-06-26T08:35:44Z</time>
      </trkpt>
      <trkpt lat="48.05113" lon="6.87115">
        <ele>804.6</ele>
        <time>2022-06-26T08:35:45Z</time>
      </trkpt>
      <trkpt lat="48.05113" lon="6.87112">
        <ele>804.8</ele>
        <time>2022-06-26T08:35:46Z</time>
      </trkpt>
      <trkpt lat="48.05112" lon="6.87109">
        <ele>805</ele>
        <time>2022-06-26T08:35:47Z</time>
      </trkpt>
      <trkpt lat="48.05112" lon="6.87106">
        <ele>805</ele>
        <time>2022-06-26T08:35:48Z</time>
      </trkpt>
      <trkpt lat="48.05112" lon="6.87103">
        <ele>805.2</ele>
        <time>2022-06-26T08:35:49Z</time>
      </trkpt>
      <trkpt lat="48.05113" lon="6.871">
        <ele>805.4</ele>
        <time>2022-06-26T08:35:50Z</time>
      </trkpt>
      <trkpt lat="48.05113" lon="6.87098">
        <ele>805.6</ele>
        <time>2022-06-26T08:35:51Z</time>
      </trkpt>
      <trkpt lat="48.05113" lon="6.87095">
        <ele>805.6</ele>
        <time>2022-06-26T08:35:52Z</time>
      </trkpt>
      <trkpt lat="48.05113" lon="6.87092">
        <ele>805.8</ele>
        <time>2022-06-26T08:35:53Z</time>
      </trkpt>
      <trkpt lat="48.05113" lon="6.87089">
        <ele>805.8</ele>
        <time>2022-06-26T08:35:54Z</time>
      </trkpt>
      <trkpt lat="48.05114" lon="6.87086">
        <ele>806</ele>
        <time>2022-06-26T08:35:55Z</time>
      </trkpt>
      <trkpt lat="48.05114" lon="6.87083">
        <ele>806</ele>
        <time>2022-06-26T08:35:56Z</time>
      </trkpt>
      <trkpt lat="48.05114" lon="6.8708">
        <ele>806.2</ele>
        <time>2022-06-26T08:35:57Z</time>
      </trkpt>
      <trkpt lat="48.05114" lon="6.87077">
        <ele>806.2</ele>
        <time>2022-06-26T08:35:58Z</time>
      </trkpt>
      <trkpt lat="48.05114" lon="6.87074">
        <ele>806.4</ele>
        <time>2022-06-26T08:35:59Z</time>
      </trkpt>
      <trkpt lat="48.05114" lon="6.87072">
        <ele>806.4</ele>
        <time>2022-06-26T08:36:00Z</time>
      </trkpt>
      <trkpt lat="48.05115" lon="6.87069">
        <ele>806.6</ele>
        <time>2022-06-26T08:36:01Z</time>
      </trkpt>
      <trkpt lat="48.05115" lon="6.87066">
        <ele>806.8</ele>
        <time>2022-06-26T08:36:02Z</time>
      </trkpt>
      <trkpt lat="48.05115" lon="6.87063">
        <ele>807.2</ele>
        <time>2022-06-26T08:36:03Z</time>
      </trkpt>
      <trkpt lat="48.05115" lon="6.87061">
        <ele>807.2</ele>
        <time>2022-06-26T08:36:04Z</time>
      </trkpt>
      <trkpt lat="48.05115" lon="6.87058">
        <ele>807.4</ele>
        <time>2022-06-26T08:36:05Z</time>
      </trkpt>
      <trkpt lat="48.05115" lon="6.87056">
        <ele>807.6</ele>
        <time>2022-06-26T08:36:06Z</time>
      </trkpt>
      <trkpt lat="48.05116" lon="6.87053">
        <ele>807.8</ele>
        <time>2022-06-26T08:36:07Z</time>
      </trkpt>
      <trkpt lat="48.05116" lon="6.8705">
        <ele>808</ele>
        <time>2022-06-26T08:36:08Z</time>
      </trkpt>
      <trkpt lat="48.05116" lon="6.87047">
        <ele>808</ele>
        <time>2022-06-26T08:36:09Z</time>
      </trkpt>
      <trkpt lat="48.05116" lon="6.87045">
        <ele>808.4</ele>
        <time>2022-06-26T08:36:10Z</time>
      </trkpt>
      <trkpt lat="48.05116" lon="6.87042">
        <ele>808.6</ele>
        <time>2022-06-26T08:36:11Z</time>
      </trkpt>
      <trkpt lat="48.05117" lon="6.87039">
        <ele>809</ele>
        <time>2022-06-26T08:36:12Z</time>
      </trkpt>
      <trkpt lat="48.05117" lon="6.87037">
        <ele>809</ele>
        <time>2022-06-26T08:36:13Z</time>
      </trkpt>
      <trkpt lat="48.05118" lon="6.87033">
        <ele>809.4</ele>
        <time>2022-06-26T08:36:14Z</time>
      </trkpt>
      <trkpt lat="48.05118" lon="6.87031">
        <ele>809.6</ele>
        <time>2022-06-26T08:36:15Z</time>
      </trkpt>
      <trkpt lat="48.05119" lon="6.87028">
        <ele>809.6</ele>
        <time>2022-06-26T08:36:16Z</time>
      </trkpt>
      <trkpt lat="48.05119" lon="6.87025">
        <ele>809.8</ele>
        <time>2022-06-26T08:36:17Z</time>
      </trkpt>
      <trkpt lat="48.0512" lon="6.87023">
        <ele>809.8</ele>
        <time>2022-06-26T08:36:18Z</time>
      </trkpt>
      <trkpt lat="48.0512" lon="6.8702">
        <ele>810.2</ele>
        <time>2022-06-26T08:36:19Z</time>
      </trkpt>
      <trkpt lat="48.05121" lon="6.87017">
        <ele>810.4</ele>
        <time>2022-06-26T08:36:20Z</time>
      </trkpt>
      <trkpt lat="48.05121" lon="6.87014">
        <ele>810.4</ele>
        <time>2022-06-26T08:36:21Z</time>
      </trkpt>
      <trkpt lat="48.05122" lon="6.87011">
        <ele>810.6</ele>
        <time>2022-06-26T08:36:22Z</time>
      </trkpt>
      <trkpt lat="48.05123" lon="6.87008">
        <ele>810.8</ele>
        <time>2022-06-26T08:36:23Z</time>
      </trkpt>
      <trkpt lat="48.05123" lon="6.87005">
        <ele>811.2</ele>
        <time>2022-06-26T08:36:24Z</time>
      </trkpt>
      <trkpt lat="48.05123" lon="6.87003">
        <ele>811.2</ele>
        <time>2022-06-26T08:36:25Z</time>
      </trkpt>
      <trkpt lat="48.05124" lon="6.87">
        <ele>811.4</ele>
        <time>2022-06-26T08:36:26Z</time>
      </trkpt>
      <trkpt lat="48.05124" lon="6.86997">
        <ele>811.4</ele>
        <time>2022-06-26T08:36:27Z</time>
      </trkpt>
      <trkpt lat="48.05125" lon="6.86994">
        <ele>811.6</ele>
        <time>2022-06-26T08:36:28Z</time>
      </trkpt>
      <trkpt lat="48.05126" lon="6.86991">
        <ele>811.8</ele>
        <time>2022-06-26T08:36:29Z</time>
      </trkpt>
      <trkpt lat="48.05127" lon="6.86988">
        <ele>811.8</ele>
        <time>2022-06-26T08:36:30Z</time>
      </trkpt>
      <trkpt lat="48.05128" lon="6.86984">
        <ele>811.8</ele>
        <time>2022-06-26T08:36:31Z</time>
      </trkpt>
      <trkpt lat="48.05128" lon="6.8698">
        <ele>812</ele>
        <time>2022-06-26T08:36:32Z</time>
      </trkpt>
      <trkpt lat="48.05129" lon="6.86977">
        <ele>812.2</ele>
        <time>2022-06-26T08:36:33Z</time>
      </trkpt>
      <trkpt lat="48.0513" lon="6.86973">
        <ele>812.2</ele>
        <time>2022-06-26T08:36:34Z</time>
      </trkpt>
      <trkpt lat="48.05131" lon="6.86969">
        <ele>812.2</ele>
        <time>2022-06-26T08:36:35Z</time>
      </trkpt>
      <trkpt lat="48.05131" lon="6.86965">
        <ele>812.4</ele>
        <time>2022-06-26T08:36:36Z</time>
      </trkpt>
      <trkpt lat="48.05132" lon="6.86962">
        <ele>812.4</ele>
        <time>2022-06-26T08:36:37Z</time>
      </trkpt>
      <trkpt lat="48.05133" lon="6.86958">
        <ele>812.4</ele>
        <time>2022-06-26T08:36:38Z</time>
      </trkpt>
      <trkpt lat="48.05134" lon="6.86955">
        <ele>812.6</ele>
        <time>2022-06-26T08:36:39Z</time>
      </trkpt>
      <trkpt lat="48.05135" lon="6.86951">
        <ele>812.6</ele>
        <time>2022-06-26T08:36:40Z</time>
      </trkpt>
      <trkpt lat="48.05137" lon="6.86947">
        <ele>812.8</ele>
        <time>2022-06-26T08:36:41Z</time>
      </trkpt>
      <trkpt lat="48.05138" lon="6.86943">
        <ele>813</ele>
        <time>2022-06-26T08:36:42Z</time>
      </trkpt>
      <trkpt lat="48.0514" lon="6.86939">
        <ele>813</ele>
        <time>2022-06-26T08:36:43Z</time>
      </trkpt>
      <trkpt lat="48.05141" lon="6.86935">
        <ele>813.2</ele>
        <time>2022-06-26T08:36:44Z</time>
      </trkpt>
      <trkpt lat="48.05143" lon="6.8693">
        <ele>813.2</ele>
        <time>2022-06-26T08:36:45Z</time>
      </trkpt>
      <trkpt lat="48.05145" lon="6.86925">
        <ele>813.2</ele>
        <time>2022-06-26T08:36:46Z</time>
      </trkpt>
      <trkpt lat="48.05147" lon="6.8692">
        <ele>813.2</ele>
        <time>2022-06-26T08:36:47Z</time>
      </trkpt>
      <trkpt lat="48.05148" lon="6.86915">
        <ele>813.4</ele>
        <time>2022-06-26T08:36:48Z</time>
      </trkpt>
      <trkpt lat="48.0515" lon="6.8691">
        <ele>813.4</ele>
        <time>2022-06-26T08:36:49Z</time>
      </trkpt>
      <trkpt lat="48.05152" lon="6.86904">
        <ele>813.2</ele>
        <time>2022-06-26T08:36:50Z</time>
      </trkpt>
      <trkpt lat="48.05154" lon="6.86899">
        <ele>813.2</ele>
        <time>2022-06-26T08:36:51Z</time>
      </trkpt>
      <trkpt lat="48.05156" lon="6.86893">
        <ele>813.2</ele>
        <time>2022-06-26T08:36:52Z</time>
      </trkpt>
      <trkpt lat="48.05161" lon="6.86881">
        <ele>813.2</ele>
        <time>2022-06-26T08:36:54Z</time>
      </trkpt>
      <trkpt lat="48.05162" lon="6.86875">
        <ele>813</ele>
        <time>2022-06-26T08:36:55Z</time>
      </trkpt>
      <trkpt lat="48.05163" lon="6.86871">
        <ele>813</ele>
        <time>2022-06-26T08:36:56Z</time>
      </trkpt>
      <trkpt lat="48.05168" lon="6.86853">
        <ele>812.8</ele>
        <time>2022-06-26T08:36:59Z</time>
      </trkpt>
      <trkpt lat="48.05171" lon="6.86841">
        <ele>812.8</ele>
        <time>2022-06-26T08:37:01Z</time>
      </trkpt>
      <trkpt lat="48.05172" lon="6.86835">
        <ele>812.8</ele>
        <time>2022-06-26T08:37:02Z</time>
      </trkpt>
      <trkpt lat="48.05173" lon="6.8683">
        <ele>812.8</ele>
        <time>2022-06-26T08:37:03Z</time>
      </trkpt>
      <trkpt lat="48.05173" lon="6.86823">
        <ele>812.8</ele>
        <time>2022-06-26T08:37:04Z</time>
      </trkpt>
      <trkpt lat="48.05176" lon="6.86805">
        <ele>812.8</ele>
        <time>2022-06-26T08:37:07Z</time>
      </trkpt>
      <trkpt lat="48.05176" lon="6.86799">
        <ele>813</ele>
        <time>2022-06-26T08:37:08Z</time>
      </trkpt>
      <trkpt lat="48.05177" lon="6.86794">
        <ele>813</ele>
        <time>2022-06-26T08:37:09Z</time>
      </trkpt>
      <trkpt lat="48.05179" lon="6.86788">
        <ele>813</ele>
        <time>2022-06-26T08:37:10Z</time>
      </trkpt>
      <trkpt lat="48.0518" lon="6.86783">
        <ele>813.2</ele>
        <time>2022-06-26T08:37:11Z</time>
      </trkpt>
      <trkpt lat="48.05182" lon="6.86765">
        <ele>813.4</ele>
        <time>2022-06-26T08:37:14Z</time>
      </trkpt>
      <trkpt lat="48.05183" lon="6.86753">
        <ele>813.4</ele>
        <time>2022-06-26T08:37:16Z</time>
      </trkpt>
      <trkpt lat="48.05183" lon="6.86748">
        <ele>813.4</ele>
        <time>2022-06-26T08:37:17Z</time>
      </trkpt>
      <trkpt lat="48.05183" lon="6.86744">
        <ele>813.6</ele>
        <time>2022-06-26T08:37:18Z</time>
      </trkpt>
      <trkpt lat="48.05183" lon="6.8674">
        <ele>813.6</ele>
        <time>2022-06-26T08:37:19Z</time>
      </trkpt>
      <trkpt lat="48.05183" lon="6.86736">
        <ele>813.6</ele>
        <time>2022-06-26T08:37:20Z</time>
      </trkpt>
      <trkpt lat="48.05183" lon="6.86717">
        <ele>813.6</ele>
        <time>2022-06-26T08:37:23Z</time>
      </trkpt>
      <trkpt lat="48.05181" lon="6.86679">
        <ele>812</ele>
        <time>2022-06-26T08:37:29Z</time>
      </trkpt>
      <trkpt lat="48.05179" lon="6.86674">
        <ele>811.8</ele>
        <time>2022-06-26T08:37:30Z</time>
      </trkpt>
      <trkpt lat="48.05176" lon="6.86669">
        <ele>811.4</ele>
        <time>2022-06-26T08:37:31Z</time>
      </trkpt>
      <trkpt lat="48.05173" lon="6.86663">
        <ele>811.2</ele>
        <time>2022-06-26T08:37:32Z</time>
      </trkpt>
      <trkpt lat="48.0517" lon="6.86658">
        <ele>810.8</ele>
        <time>2022-06-26T08:37:33Z</time>
      </trkpt>
      <trkpt lat="48.05168" lon="6.86652">
        <ele>810.6</ele>
        <time>2022-06-26T08:37:34Z</time>
      </trkpt>
      <trkpt lat="48.05167" lon="6.86646">
        <ele>810.2</ele>
        <time>2022-06-26T08:37:35Z</time>
      </trkpt>
      <trkpt lat="48.05164" lon="6.86633">
        <ele>809.4</ele>
        <time>2022-06-26T08:37:37Z</time>
      </trkpt>
      <trkpt lat="48.05159" lon="6.86599">
        <ele>808.4</ele>
        <time>2022-06-26T08:37:42Z</time>
      </trkpt>
      <trkpt lat="48.05156" lon="6.86585">
        <ele>808.2</ele>
        <time>2022-06-26T08:37:44Z</time>
      </trkpt>
      <trkpt lat="48.05152" lon="6.86571">
        <ele>807.8</ele>
        <time>2022-06-26T08:37:46Z</time>
      </trkpt>
      <trkpt lat="48.0515" lon="6.86565">
        <ele>807.4</ele>
        <time>2022-06-26T08:37:47Z</time>
      </trkpt>
      <trkpt lat="48.05148" lon="6.8656">
        <ele>806.6</ele>
        <time>2022-06-26T08:37:48Z</time>
      </trkpt>
      <trkpt lat="48.05146" lon="6.86555">
        <ele>805.8</ele>
        <time>2022-06-26T08:37:49Z</time>
      </trkpt>
      <trkpt lat="48.05141" lon="6.86542">
        <ele>803.6</ele>
        <time>2022-06-26T08:37:51Z</time>
      </trkpt>
      <trkpt lat="48.05139" lon="6.86536">
        <ele>802.8</ele>
        <time>2022-06-26T08:37:52Z</time>
      </trkpt>
      <trkpt lat="48.05137" lon="6.86531">
        <ele>801.8</ele>
        <time>2022-06-26T08:37:53Z</time>
      </trkpt>
      <trkpt lat="48.05136" lon="6.86527">
        <ele>801</ele>
        <time>2022-06-26T08:37:54Z</time>
      </trkpt>
      <trkpt lat="48.05134" lon="6.86524">
        <ele>800.4</ele>
        <time>2022-06-26T08:37:55Z</time>
      </trkpt>
      <trkpt lat="48.05133" lon="6.86523">
        <ele>799.4</ele>
        <time>2022-06-26T08:37:56Z</time>
      </trkpt>
      <trkpt lat="48.0513" lon="6.86524">
        <ele>799</ele>
        <time>2022-06-26T08:37:57Z</time>
      </trkpt>
      <trkpt lat="48.05126" lon="6.86526">
        <ele>798.2</ele>
        <time>2022-06-26T08:37:58Z</time>
      </trkpt>
      <trkpt lat="48.05119" lon="6.86529">
        <ele>797.2</ele>
        <time>2022-06-26T08:38:00Z</time>
      </trkpt>
      <trkpt lat="48.05115" lon="6.8653">
        <ele>797</ele>
        <time>2022-06-26T08:38:01Z</time>
      </trkpt>
      <trkpt lat="48.05106" lon="6.86531">
        <ele>795.4</ele>
        <time>2022-06-26T08:38:03Z</time>
      </trkpt>
      <trkpt lat="48.051" lon="6.86534">
        <ele>794.8</ele>
        <time>2022-06-26T08:38:05Z</time>
      </trkpt>
      <trkpt lat="48.05097" lon="6.86535">
        <ele>794.6</ele>
        <time>2022-06-26T08:38:06Z</time>
      </trkpt>
      <trkpt lat="48.05095" lon="6.86537">
        <ele>794.6</ele>
        <time>2022-06-26T08:38:07Z</time>
      </trkpt>
      <trkpt lat="48.05092" lon="6.86539">
        <ele>794.6</ele>
        <time>2022-06-26T08:38:08Z</time>
      </trkpt>
      <trkpt lat="48.05085" lon="6.86545">
        <ele>794.6</ele>
        <time>2022-06-26T08:38:11Z</time>
      </trkpt>
      <trkpt lat="48.05083" lon="6.86547">
        <ele>794.8</ele>
        <time>2022-06-26T08:38:12Z</time>
      </trkpt>
      <trkpt lat="48.05081" lon="6.86548">
        <ele>795</ele>
        <time>2022-06-26T08:38:13Z</time>
      </trkpt>
      <trkpt lat="48.05078" lon="6.86548">
        <ele>795.2</ele>
        <time>2022-06-26T08:38:14Z</time>
      </trkpt>
      <trkpt lat="48.05076" lon="6.86549">
        <ele>795.4</ele>
        <time>2022-06-26T08:38:15Z</time>
      </trkpt>
      <trkpt lat="48.05075" lon="6.86549">
        <ele>795.6</ele>
        <time>2022-06-26T08:38:16Z</time>
      </trkpt>
      <trkpt lat="48.05073" lon="6.86549">
        <ele>795.8</ele>
        <time>2022-06-26T08:38:17Z</time>
      </trkpt>
      <trkpt lat="48.05071" lon="6.86549">
        <ele>795.8</ele>
        <time>2022-06-26T08:38:18Z</time>
      </trkpt>
      <trkpt lat="48.0507" lon="6.86549">
        <ele>796.2</ele>
        <time>2022-06-26T08:38:19Z</time>
      </trkpt>
      <trkpt lat="48.05066" lon="6.86548">
        <ele>796.6</ele>
        <time>2022-06-26T08:38:21Z</time>
      </trkpt>
      <trkpt lat="48.05064" lon="6.86549">
        <ele>796.8</ele>
        <time>2022-06-26T08:38:22Z</time>
      </trkpt>
      <trkpt lat="48.05062" lon="6.86549">
        <ele>797</ele>
        <time>2022-06-26T08:38:23Z</time>
      </trkpt>
      <trkpt lat="48.05061" lon="6.86548">
        <ele>797</ele>
        <time>2022-06-26T08:38:24Z</time>
      </trkpt>
      <trkpt lat="48.05059" lon="6.86547">
        <ele>797.4</ele>
        <time>2022-06-26T08:38:25Z</time>
      </trkpt>
      <trkpt lat="48.05057" lon="6.86546">
        <ele>797.4</ele>
        <time>2022-06-26T08:38:26Z</time>
      </trkpt>
      <trkpt lat="48.05055" lon="6.86544">
        <ele>797.6</ele>
        <time>2022-06-26T08:38:27Z</time>
      </trkpt>
      <trkpt lat="48.05053" lon="6.86542">
        <ele>797.8</ele>
        <time>2022-06-26T08:38:28Z</time>
      </trkpt>
      <trkpt lat="48.05045" lon="6.86534">
        <ele>798.8</ele>
        <time>2022-06-26T08:38:32Z</time>
      </trkpt>
      <trkpt lat="48.05035" lon="6.86516">
        <ele>799.6</ele>
        <time>2022-06-26T08:38:37Z</time>
      </trkpt>
      <trkpt lat="48.05029" lon="6.86507">
        <ele>799.6</ele>
        <time>2022-06-26T08:38:39Z</time>
      </trkpt>
      <trkpt lat="48.05025" lon="6.86503">
        <ele>799.6</ele>
        <time>2022-06-26T08:38:40Z</time>
      </trkpt>
      <trkpt lat="48.05022" lon="6.86499">
        <ele>799.6</ele>
        <time>2022-06-26T08:38:41Z</time>
      </trkpt>
      <trkpt lat="48.05018" lon="6.86496">
        <ele>799.6</ele>
        <time>2022-06-26T08:38:42Z</time>
      </trkpt>
      <trkpt lat="48.05014" lon="6.86493">
        <ele>799.6</ele>
        <time>2022-06-26T08:38:43Z</time>
      </trkpt>
      <trkpt lat="48.05009" lon="6.8649">
        <ele>799.4</ele>
        <time>2022-06-26T08:38:44Z</time>
      </trkpt>
      <trkpt lat="48.05005" lon="6.86487">
        <ele>799.4</ele>
        <time>2022-06-26T08:38:45Z</time>
      </trkpt>
      <trkpt lat="48.05001" lon="6.86483">
        <ele>799.2</ele>
        <time>2022-06-26T08:38:46Z</time>
      </trkpt>
      <trkpt lat="48.04997" lon="6.86481">
        <ele>799</ele>
        <time>2022-06-26T08:38:47Z</time>
      </trkpt>
      <trkpt lat="48.04993" lon="6.86479">
        <ele>798.8</ele>
        <time>2022-06-26T08:38:48Z</time>
      </trkpt>
      <trkpt lat="48.04982" lon="6.86471">
        <ele>798.6</ele>
        <time>2022-06-26T08:38:51Z</time>
      </trkpt>
      <trkpt lat="48.04979" lon="6.86469">
        <ele>798.4</ele>
        <time>2022-06-26T08:38:52Z</time>
      </trkpt>
      <trkpt lat="48.04975" lon="6.86467">
        <ele>798.4</ele>
        <time>2022-06-26T08:38:53Z</time>
      </trkpt>
      <trkpt lat="48.04972" lon="6.86465">
        <ele>798.2</ele>
        <time>2022-06-26T08:38:54Z</time>
      </trkpt>
      <trkpt lat="48.04965" lon="6.86463">
        <ele>798.2</ele>
        <time>2022-06-26T08:38:56Z</time>
      </trkpt>
      <trkpt lat="48.04963" lon="6.86462">
        <ele>798.4</ele>
        <time>2022-06-26T08:38:57Z</time>
      </trkpt>
      <trkpt lat="48.0496" lon="6.86461">
        <ele>798.4</ele>
        <time>2022-06-26T08:38:58Z</time>
      </trkpt>
      <trkpt lat="48.04958" lon="6.8646">
        <ele>798.6</ele>
        <time>2022-06-26T08:38:59Z</time>
      </trkpt>
      <trkpt lat="48.04955" lon="6.86459">
        <ele>798.6</ele>
        <time>2022-06-26T08:39:00Z</time>
      </trkpt>
      <trkpt lat="48.04953" lon="6.86458">
        <ele>798.8</ele>
        <time>2022-06-26T08:39:01Z</time>
      </trkpt>
      <trkpt lat="48.04945" lon="6.86453">
        <ele>800</ele>
        <time>2022-06-26T08:39:04Z</time>
      </trkpt>
      <trkpt lat="48.04943" lon="6.86452">
        <ele>800.2</ele>
        <time>2022-06-26T08:39:05Z</time>
      </trkpt>
      <trkpt lat="48.04926" lon="6.86444">
        <ele>801.2</ele>
        <time>2022-06-26T08:39:11Z</time>
      </trkpt>
      <trkpt lat="48.04908" lon="6.86438">
        <ele>801.8</ele>
        <time>2022-06-26T08:39:17Z</time>
      </trkpt>
      <trkpt lat="48.04906" lon="6.86437">
        <ele>801.8</ele>
        <time>2022-06-26T08:39:18Z</time>
      </trkpt>
      <trkpt lat="48.04903" lon="6.86436">
        <ele>802</ele>
        <time>2022-06-26T08:39:19Z</time>
      </trkpt>
      <trkpt lat="48.04899" lon="6.86434">
        <ele>802</ele>
        <time>2022-06-26T08:39:20Z</time>
      </trkpt>
      <trkpt lat="48.04897" lon="6.86433">
        <ele>802</ele>
        <time>2022-06-26T08:39:21Z</time>
      </trkpt>
      <trkpt lat="48.04894" lon="6.86432">
        <ele>802.2</ele>
        <time>2022-06-26T08:39:22Z</time>
      </trkpt>
      <trkpt lat="48.04891" lon="6.86431">
        <ele>802.2</ele>
        <time>2022-06-26T08:39:23Z</time>
      </trkpt>
      <trkpt lat="48.04887" lon="6.8643">
        <ele>802.2</ele>
        <time>2022-06-26T08:39:24Z</time>
      </trkpt>
      <trkpt lat="48.04886" lon="6.8643">
        <ele>802.2</ele>
        <time>2022-06-26T08:39:25Z</time>
      </trkpt>
      <trkpt lat="48.04883" lon="6.8643">
        <ele>802.2</ele>
        <time>2022-06-26T08:39:26Z</time>
      </trkpt>
      <trkpt lat="48.04881" lon="6.86429">
        <ele>802.2</ele>
        <time>2022-06-26T08:39:27Z</time>
      </trkpt>
      <trkpt lat="48.04878" lon="6.86428">
        <ele>802.4</ele>
        <time>2022-06-26T08:39:28Z</time>
      </trkpt>
      <trkpt lat="48.04876" lon="6.86428">
        <ele>802.6</ele>
        <time>2022-06-26T08:39:29Z</time>
      </trkpt>
      <trkpt lat="48.04874" lon="6.86428">
        <ele>802.8</ele>
        <time>2022-06-26T08:39:30Z</time>
      </trkpt>
      <trkpt lat="48.04869" lon="6.86427">
        <ele>803.2</ele>
        <time>2022-06-26T08:39:32Z</time>
      </trkpt>
      <trkpt lat="48.04867" lon="6.86427">
        <ele>803.4</ele>
        <time>2022-06-26T08:39:33Z</time>
      </trkpt>
      <trkpt lat="48.04862" lon="6.86427">
        <ele>804</ele>
        <time>2022-06-26T08:39:35Z</time>
      </trkpt>
      <trkpt lat="48.0486" lon="6.86428">
        <ele>804</ele>
        <time>2022-06-26T08:39:36Z</time>
      </trkpt>
      <trkpt lat="48.04858" lon="6.8643">
        <ele>804.2</ele>
        <time>2022-06-26T08:39:37Z</time>
      </trkpt>
      <trkpt lat="48.04856" lon="6.86432">
        <ele>804.2</ele>
        <time>2022-06-26T08:39:38Z</time>
      </trkpt>
      <trkpt lat="48.04854" lon="6.86435">
        <ele>804.4</ele>
        <time>2022-06-26T08:39:39Z</time>
      </trkpt>
      <trkpt lat="48.04852" lon="6.86437">
        <ele>804.6</ele>
        <time>2022-06-26T08:39:40Z</time>
      </trkpt>
      <trkpt lat="48.04851" lon="6.86439">
        <ele>804.8</ele>
        <time>2022-06-26T08:39:41Z</time>
      </trkpt>
      <trkpt lat="48.04849" lon="6.86443">
        <ele>805</ele>
        <time>2022-06-26T08:39:42Z</time>
      </trkpt>
      <trkpt lat="48.04848" lon="6.86446">
        <ele>805</ele>
        <time>2022-06-26T08:39:43Z</time>
      </trkpt>
      <trkpt lat="48.04846" lon="6.86448">
        <ele>805.2</ele>
        <time>2022-06-26T08:39:44Z</time>
      </trkpt>
      <trkpt lat="48.04844" lon="6.8645">
        <ele>805.2</ele>
        <time>2022-06-26T08:39:45Z</time>
      </trkpt>
      <trkpt lat="48.04842" lon="6.86453">
        <ele>805.4</ele>
        <time>2022-06-26T08:39:46Z</time>
      </trkpt>
      <trkpt lat="48.04841" lon="6.86457">
        <ele>805.4</ele>
        <time>2022-06-26T08:39:47Z</time>
      </trkpt>
      <trkpt lat="48.04838" lon="6.86461">
        <ele>805.2</ele>
        <time>2022-06-26T08:39:48Z</time>
      </trkpt>
      <trkpt lat="48.04836" lon="6.86464">
        <ele>805</ele>
        <time>2022-06-26T08:39:49Z</time>
      </trkpt>
      <trkpt lat="48.04834" lon="6.86468">
        <ele>804.8</ele>
        <time>2022-06-26T08:39:50Z</time>
      </trkpt>
      <trkpt lat="48.04832" lon="6.86474">
        <ele>804.6</ele>
        <time>2022-06-26T08:39:51Z</time>
      </trkpt>
      <trkpt lat="48.04829" lon="6.8648">
        <ele>804.6</ele>
        <time>2022-06-26T08:39:52Z</time>
      </trkpt>
      <trkpt lat="48.04827" lon="6.86485">
        <ele>804.2</ele>
        <time>2022-06-26T08:39:53Z</time>
      </trkpt>
      <trkpt lat="48.04823" lon="6.8649">
        <ele>804</ele>
        <time>2022-06-26T08:39:54Z</time>
      </trkpt>
      <trkpt lat="48.04819" lon="6.86494">
        <ele>803.4</ele>
        <time>2022-06-26T08:39:55Z</time>
      </trkpt>
      <trkpt lat="48.04814" lon="6.86496">
        <ele>802.8</ele>
        <time>2022-06-26T08:39:56Z</time>
      </trkpt>
      <trkpt lat="48.0481" lon="6.86498">
        <ele>802</ele>
        <time>2022-06-26T08:39:57Z</time>
      </trkpt>
      <trkpt lat="48.04805" lon="6.865">
        <ele>801.2</ele>
        <time>2022-06-26T08:39:58Z</time>
      </trkpt>
      <trkpt lat="48.04798" lon="6.86502">
        <ele>800.2</ele>
        <time>2022-06-26T08:40:00Z</time>
      </trkpt>
      <trkpt lat="48.04789" lon="6.86505">
        <ele>799.2</ele>
        <time>2022-06-26T08:40:02Z</time>
      </trkpt>
      <trkpt lat="48.04777" lon="6.86509">
        <ele>798.2</ele>
        <time>2022-06-26T08:40:04Z</time>
      </trkpt>
      <trkpt lat="48.04771" lon="6.86508">
        <ele>797.8</ele>
        <time>2022-06-26T08:40:05Z</time>
      </trkpt>
      <trkpt lat="48.04765" lon="6.86506">
        <ele>797.4</ele>
        <time>2022-06-26T08:40:06Z</time>
      </trkpt>
      <trkpt lat="48.0476" lon="6.86503">
        <ele>797</ele>
        <time>2022-06-26T08:40:07Z</time>
      </trkpt>
      <trkpt lat="48.04755" lon="6.865">
        <ele>796.8</ele>
        <time>2022-06-26T08:40:08Z</time>
      </trkpt>
      <trkpt lat="48.04747" lon="6.86493">
        <ele>795.8</ele>
        <time>2022-06-26T08:40:10Z</time>
      </trkpt>
      <trkpt lat="48.04743" lon="6.86492">
        <ele>795.2</ele>
        <time>2022-06-26T08:40:11Z</time>
      </trkpt>
      <trkpt lat="48.04742" lon="6.86489">
        <ele>795.2</ele>
        <time>2022-06-26T08:40:12Z</time>
      </trkpt>
      <trkpt lat="48.04739" lon="6.86489">
        <ele>795</ele>
        <time>2022-06-26T08:40:13Z</time>
      </trkpt>
      <trkpt lat="48.04736" lon="6.86487">
        <ele>795</ele>
        <time>2022-06-26T08:40:14Z</time>
      </trkpt>
      <trkpt lat="48.04731" lon="6.86486">
        <ele>794.8</ele>
        <time>2022-06-26T08:40:15Z</time>
      </trkpt>
      <trkpt lat="48.04725" lon="6.86484">
        <ele>794.6</ele>
        <time>2022-06-26T08:40:16Z</time>
      </trkpt>
      <trkpt lat="48.04722" lon="6.86483">
        <ele>794.6</ele>
        <time>2022-06-26T08:40:17Z</time>
      </trkpt>
      <trkpt lat="48.04714" lon="6.86484">
        <ele>794.6</ele>
        <time>2022-06-26T08:40:19Z</time>
      </trkpt>
      <trkpt lat="48.04707" lon="6.86485">
        <ele>794.6</ele>
        <time>2022-06-26T08:40:21Z</time>
      </trkpt>
      <trkpt lat="48.04703" lon="6.86484">
        <ele>794.8</ele>
        <time>2022-06-26T08:40:22Z</time>
      </trkpt>
      <trkpt lat="48.047" lon="6.86482">
        <ele>795</ele>
        <time>2022-06-26T08:40:23Z</time>
      </trkpt>
      <trkpt lat="48.04698" lon="6.86482">
        <ele>795.2</ele>
        <time>2022-06-26T08:40:24Z</time>
      </trkpt>
      <trkpt lat="48.04696" lon="6.86482">
        <ele>795.2</ele>
        <time>2022-06-26T08:40:25Z</time>
      </trkpt>
      <trkpt lat="48.04693" lon="6.86484">
        <ele>795.4</ele>
        <time>2022-06-26T08:40:26Z</time>
      </trkpt>
      <trkpt lat="48.0469" lon="6.86485">
        <ele>795.4</ele>
        <time>2022-06-26T08:40:27Z</time>
      </trkpt>
      <trkpt lat="48.04686" lon="6.86486">
        <ele>795.4</ele>
        <time>2022-06-26T08:40:28Z</time>
      </trkpt>
      <trkpt lat="48.04679" lon="6.86488">
        <ele>795.6</ele>
        <time>2022-06-26T08:40:29Z</time>
      </trkpt>
      <trkpt lat="48.04676" lon="6.86485">
        <ele>795.6</ele>
        <time>2022-06-26T08:40:30Z</time>
      </trkpt>
      <trkpt lat="48.04672" lon="6.86486">
        <ele>795.6</ele>
        <time>2022-06-26T08:40:31Z</time>
      </trkpt>
      <trkpt lat="48.04671" lon="6.86483">
        <ele>795.8</ele>
        <time>2022-06-26T08:40:32Z</time>
      </trkpt>
      <trkpt lat="48.04665" lon="6.86479">
        <ele>795.8</ele>
        <time>2022-06-26T08:40:35Z</time>
      </trkpt>
      <trkpt lat="48.04661" lon="6.86478">
        <ele>796.2</ele>
        <time>2022-06-26T08:40:36Z</time>
      </trkpt>
      <trkpt lat="48.04653" lon="6.86479">
        <ele>796.2</ele>
        <time>2022-06-26T08:40:37Z</time>
      </trkpt>
      <trkpt lat="48.04641" lon="6.86479">
        <ele>796.2</ele>
        <time>2022-06-26T08:40:40Z</time>
      </trkpt>
      <trkpt lat="48.04638" lon="6.8648">
        <ele>796.2</ele>
        <time>2022-06-26T08:40:41Z</time>
      </trkpt>
      <trkpt lat="48.04636" lon="6.8648">
        <ele>796.2</ele>
        <time>2022-06-26T08:40:42Z</time>
      </trkpt>
      <trkpt lat="48.04633" lon="6.86481">
        <ele>796.2</ele>
        <time>2022-06-26T08:40:43Z</time>
      </trkpt>
      <trkpt lat="48.0463" lon="6.86481">
        <ele>796</ele>
        <time>2022-06-26T08:40:44Z</time>
      </trkpt>
      <trkpt lat="48.04628" lon="6.86481">
        <ele>795.8</ele>
        <time>2022-06-26T08:40:45Z</time>
      </trkpt>
      <trkpt lat="48.04619" lon="6.86476">
        <ele>795.6</ele>
        <time>2022-06-26T08:40:48Z</time>
      </trkpt>
      <trkpt lat="48.04617" lon="6.86473">
        <ele>795.6</ele>
        <time>2022-06-26T08:40:49Z</time>
      </trkpt>
      <trkpt lat="48.04614" lon="6.86468">
        <ele>795.6</ele>
        <time>2022-06-26T08:40:50Z</time>
      </trkpt>
      <trkpt lat="48.046" lon="6.86455">
        <ele>794.4</ele>
        <time>2022-06-26T08:40:54Z</time>
      </trkpt>
      <trkpt lat="48.04591" lon="6.86446">
        <ele>793.8</ele>
        <time>2022-06-26T08:40:56Z</time>
      </trkpt>
      <trkpt lat="48.04586" lon="6.86442">
        <ele>793.4</ele>
        <time>2022-06-26T08:40:57Z</time>
      </trkpt>
      <trkpt lat="48.0458" lon="6.86438">
        <ele>793</ele>
        <time>2022-06-26T08:40:58Z</time>
      </trkpt>
      <trkpt lat="48.04575" lon="6.86432">
        <ele>792.8</ele>
        <time>2022-06-26T08:40:59Z</time>
      </trkpt>
      <trkpt lat="48.04569" lon="6.86419">
        <ele>792.4</ele>
        <time>2022-06-26T08:41:01Z</time>
      </trkpt>
      <trkpt lat="48.04562" lon="6.86407">
        <ele>792.2</ele>
        <time>2022-06-26T08:41:03Z</time>
      </trkpt>
      <trkpt lat="48.04558" lon="6.86401">
        <ele>792.2</ele>
        <time>2022-06-26T08:41:04Z</time>
      </trkpt>
      <trkpt lat="48.04546" lon="6.86383">
        <ele>791.2</ele>
        <time>2022-06-26T08:41:07Z</time>
      </trkpt>
      <trkpt lat="48.04542" lon="6.86375">
        <ele>790.8</ele>
        <time>2022-06-26T08:41:08Z</time>
      </trkpt>
      <trkpt lat="48.04538" lon="6.86367">
        <ele>790.6</ele>
        <time>2022-06-26T08:41:09Z</time>
      </trkpt>
      <trkpt lat="48.04531" lon="6.8635">
        <ele>789.8</ele>
        <time>2022-06-26T08:41:11Z</time>
      </trkpt>
      <trkpt lat="48.04526" lon="6.86341">
        <ele>789.2</ele>
        <time>2022-06-26T08:41:12Z</time>
      </trkpt>
      <trkpt lat="48.04522" lon="6.86333">
        <ele>788.8</ele>
        <time>2022-06-26T08:41:13Z</time>
      </trkpt>
      <trkpt lat="48.04519" lon="6.86325">
        <ele>788</ele>
        <time>2022-06-26T08:41:14Z</time>
      </trkpt>
      <trkpt lat="48.04517" lon="6.86318">
        <ele>787.8</ele>
        <time>2022-06-26T08:41:15Z</time>
      </trkpt>
      <trkpt lat="48.04517" lon="6.86312">
        <ele>787.2</ele>
        <time>2022-06-26T08:41:16Z</time>
      </trkpt>
      <trkpt lat="48.04516" lon="6.86307">
        <ele>786.6</ele>
        <time>2022-06-26T08:41:17Z</time>
      </trkpt>
      <trkpt lat="48.04516" lon="6.86302">
        <ele>786.6</ele>
        <time>2022-06-26T08:41:18Z</time>
      </trkpt>
      <trkpt lat="48.04515" lon="6.86297">
        <ele>786.4</ele>
        <time>2022-06-26T08:41:19Z</time>
      </trkpt>
      <trkpt lat="48.04514" lon="6.86293">
        <ele>786.4</ele>
        <time>2022-06-26T08:41:20Z</time>
      </trkpt>
      <trkpt lat="48.04507" lon="6.86262">
        <ele>787.2</ele>
        <time>2022-06-26T08:41:26Z</time>
      </trkpt>
      <trkpt lat="48.04506" lon="6.86257">
        <ele>787.2</ele>
        <time>2022-06-26T08:41:27Z</time>
      </trkpt>
      <trkpt lat="48.04505" lon="6.86253">
        <ele>787.4</ele>
        <time>2022-06-26T08:41:28Z</time>
      </trkpt>
      <trkpt lat="48.04504" lon="6.86249">
        <ele>787.4</ele>
        <time>2022-06-26T08:41:29Z</time>
      </trkpt>
      <trkpt lat="48.04503" lon="6.86245">
        <ele>787.6</ele>
        <time>2022-06-26T08:41:30Z</time>
      </trkpt>
      <trkpt lat="48.04503" lon="6.86241">
        <ele>787.8</ele>
        <time>2022-06-26T08:41:31Z</time>
      </trkpt>
      <trkpt lat="48.04502" lon="6.86237">
        <ele>788</ele>
        <time>2022-06-26T08:41:32Z</time>
      </trkpt>
      <trkpt lat="48.045" lon="6.86231">
        <ele>788.6</ele>
        <time>2022-06-26T08:41:34Z</time>
      </trkpt>
      <trkpt lat="48.045" lon="6.86228">
        <ele>789</ele>
        <time>2022-06-26T08:41:35Z</time>
      </trkpt>
      <trkpt lat="48.04499" lon="6.86224">
        <ele>789.2</ele>
        <time>2022-06-26T08:41:36Z</time>
      </trkpt>
      <trkpt lat="48.04493" lon="6.86199">
        <ele>790</ele>
        <time>2022-06-26T08:41:42Z</time>
      </trkpt>
      <trkpt lat="48.04485" lon="6.86167">
        <ele>790.2</ele>
        <time>2022-06-26T08:41:50Z</time>
      </trkpt>
      <trkpt lat="48.04477" lon="6.86139">
        <ele>790.8</ele>
        <time>2022-06-26T08:41:57Z</time>
      </trkpt>
      <trkpt lat="48.04475" lon="6.86136">
        <ele>790.8</ele>
        <time>2022-06-26T08:41:58Z</time>
      </trkpt>
      <trkpt lat="48.0447" lon="6.86129">
        <ele>791.2</ele>
        <time>2022-06-26T08:42:01Z</time>
      </trkpt>
      <trkpt lat="48.04468" lon="6.86126">
        <ele>791.2</ele>
        <time>2022-06-26T08:42:02Z</time>
      </trkpt>
      <trkpt lat="48.04466" lon="6.86124">
        <ele>791.4</ele>
        <time>2022-06-26T08:42:03Z</time>
      </trkpt>
      <trkpt lat="48.04465" lon="6.86122">
        <ele>791.6</ele>
        <time>2022-06-26T08:42:04Z</time>
      </trkpt>
      <trkpt lat="48.04463" lon="6.8612">
        <ele>791.6</ele>
        <time>2022-06-26T08:42:05Z</time>
      </trkpt>
      <trkpt lat="48.04462" lon="6.86118">
        <ele>791.8</ele>
        <time>2022-06-26T08:42:06Z</time>
      </trkpt>
      <trkpt lat="48.0446" lon="6.86115">
        <ele>791.8</ele>
        <time>2022-06-26T08:42:07Z</time>
      </trkpt>
      <trkpt lat="48.04459" lon="6.86113">
        <ele>792.2</ele>
        <time>2022-06-26T08:42:08Z</time>
      </trkpt>
      <trkpt lat="48.04458" lon="6.8611">
        <ele>792.4</ele>
        <time>2022-06-26T08:42:09Z</time>
      </trkpt>
      <trkpt lat="48.04457" lon="6.86107">
        <ele>792.6</ele>
        <time>2022-06-26T08:42:10Z</time>
      </trkpt>
      <trkpt lat="48.04456" lon="6.86106">
        <ele>792.8</ele>
        <time>2022-06-26T08:42:11Z</time>
      </trkpt>
      <trkpt lat="48.04455" lon="6.86103">
        <ele>792.8</ele>
        <time>2022-06-26T08:42:12Z</time>
      </trkpt>
      <trkpt lat="48.04453" lon="6.86101">
        <ele>793</ele>
        <time>2022-06-26T08:42:13Z</time>
      </trkpt>
      <trkpt lat="48.04452" lon="6.86098">
        <ele>793</ele>
        <time>2022-06-26T08:42:14Z</time>
      </trkpt>
      <trkpt lat="48.04451" lon="6.86096">
        <ele>793.2</ele>
        <time>2022-06-26T08:42:15Z</time>
      </trkpt>
      <trkpt lat="48.04449" lon="6.86095">
        <ele>793.2</ele>
        <time>2022-06-26T08:42:16Z</time>
      </trkpt>
      <trkpt lat="48.04447" lon="6.86093">
        <ele>793.4</ele>
        <time>2022-06-26T08:42:17Z</time>
      </trkpt>
      <trkpt lat="48.04444" lon="6.86092">
        <ele>793.4</ele>
        <time>2022-06-26T08:42:18Z</time>
      </trkpt>
      <trkpt lat="48.04442" lon="6.8609">
        <ele>793.6</ele>
        <time>2022-06-26T08:42:19Z</time>
      </trkpt>
      <trkpt lat="48.0444" lon="6.86089">
        <ele>793.6</ele>
        <time>2022-06-26T08:42:20Z</time>
      </trkpt>
      <trkpt lat="48.04439" lon="6.86087">
        <ele>793.8</ele>
        <time>2022-06-26T08:42:21Z</time>
      </trkpt>
      <trkpt lat="48.04437" lon="6.86086">
        <ele>794</ele>
        <time>2022-06-26T08:42:22Z</time>
      </trkpt>
      <trkpt lat="48.04435" lon="6.86084">
        <ele>794</ele>
        <time>2022-06-26T08:42:23Z</time>
      </trkpt>
      <trkpt lat="48.04434" lon="6.86082">
        <ele>794.2</ele>
        <time>2022-06-26T08:42:24Z</time>
      </trkpt>
      <trkpt lat="48.04433" lon="6.8608">
        <ele>794.2</ele>
        <time>2022-06-26T08:42:25Z</time>
      </trkpt>
      <trkpt lat="48.04431" lon="6.86078">
        <ele>794.4</ele>
        <time>2022-06-26T08:42:26Z</time>
      </trkpt>
      <trkpt lat="48.04429" lon="6.86074">
        <ele>794.4</ele>
        <time>2022-06-26T08:42:27Z</time>
      </trkpt>
      <trkpt lat="48.04426" lon="6.86071">
        <ele>794.6</ele>
        <time>2022-06-26T08:42:28Z</time>
      </trkpt>
      <trkpt lat="48.04423" lon="6.86068">
        <ele>794.8</ele>
        <time>2022-06-26T08:42:29Z</time>
      </trkpt>
      <trkpt lat="48.04422" lon="6.86066">
        <ele>795</ele>
        <time>2022-06-26T08:42:30Z</time>
      </trkpt>
      <trkpt lat="48.04421" lon="6.86064">
        <ele>795.2</ele>
        <time>2022-06-26T08:42:31Z</time>
      </trkpt>
      <trkpt lat="48.04421" lon="6.86062">
        <ele>795.4</ele>
        <time>2022-06-26T08:42:32Z</time>
      </trkpt>
      <trkpt lat="48.0442" lon="6.8606">
        <ele>795.6</ele>
        <time>2022-06-26T08:42:33Z</time>
      </trkpt>
      <trkpt lat="48.04418" lon="6.86057">
        <ele>795.6</ele>
        <time>2022-06-26T08:42:34Z</time>
      </trkpt>
      <trkpt lat="48.04415" lon="6.86054">
        <ele>795.6</ele>
        <time>2022-06-26T08:42:35Z</time>
      </trkpt>
      <trkpt lat="48.04414" lon="6.86052">
        <ele>795.6</ele>
        <time>2022-06-26T08:42:36Z</time>
      </trkpt>
      <trkpt lat="48.04414" lon="6.8605">
        <ele>795.8</ele>
        <time>2022-06-26T08:42:37Z</time>
      </trkpt>
      <trkpt lat="48.04414" lon="6.86048">
        <ele>796</ele>
        <time>2022-06-26T08:42:38Z</time>
      </trkpt>
      <trkpt lat="48.04412" lon="6.86046">
        <ele>796</ele>
        <time>2022-06-26T08:42:39Z</time>
      </trkpt>
      <trkpt lat="48.04409" lon="6.86043">
        <ele>796.2</ele>
        <time>2022-06-26T08:42:40Z</time>
      </trkpt>
      <trkpt lat="48.04407" lon="6.86041">
        <ele>796.4</ele>
        <time>2022-06-26T08:42:41Z</time>
      </trkpt>
      <trkpt lat="48.04407" lon="6.86038">
        <ele>796.4</ele>
        <time>2022-06-26T08:42:42Z</time>
      </trkpt>
      <trkpt lat="48.04406" lon="6.86036">
        <ele>796.4</ele>
        <time>2022-06-26T08:42:43Z</time>
      </trkpt>
      <trkpt lat="48.04404" lon="6.86035">
        <ele>796.6</ele>
        <time>2022-06-26T08:42:44Z</time>
      </trkpt>
      <trkpt lat="48.04402" lon="6.86032">
        <ele>796.8</ele>
        <time>2022-06-26T08:42:45Z</time>
      </trkpt>
      <trkpt lat="48.04399" lon="6.8603">
        <ele>796.8</ele>
        <time>2022-06-26T08:42:46Z</time>
      </trkpt>
      <trkpt lat="48.04397" lon="6.86027">
        <ele>797</ele>
        <time>2022-06-26T08:42:47Z</time>
      </trkpt>
      <trkpt lat="48.04396" lon="6.86025">
        <ele>797</ele>
        <time>2022-06-26T08:42:48Z</time>
      </trkpt>
      <trkpt lat="48.04395" lon="6.86021">
        <ele>797</ele>
        <time>2022-06-26T08:42:49Z</time>
      </trkpt>
      <trkpt lat="48.04393" lon="6.86017">
        <ele>797.2</ele>
        <time>2022-06-26T08:42:50Z</time>
      </trkpt>
      <trkpt lat="48.04392" lon="6.86014">
        <ele>797.2</ele>
        <time>2022-06-26T08:42:51Z</time>
      </trkpt>
      <trkpt lat="48.04391" lon="6.86011">
        <ele>797.4</ele>
        <time>2022-06-26T08:42:52Z</time>
      </trkpt>
      <trkpt lat="48.04388" lon="6.86012">
        <ele>797.4</ele>
        <time>2022-06-26T08:42:53Z</time>
      </trkpt>
      <trkpt lat="48.04385" lon="6.86009">
        <ele>797.4</ele>
        <time>2022-06-26T08:42:54Z</time>
      </trkpt>
      <trkpt lat="48.04381" lon="6.86006">
        <ele>797.4</ele>
        <time>2022-06-26T08:42:55Z</time>
      </trkpt>
      <trkpt lat="48.04379" lon="6.86001">
        <ele>797.6</ele>
        <time>2022-06-26T08:42:56Z</time>
      </trkpt>
      <trkpt lat="48.04378" lon="6.85995">
        <ele>797.6</ele>
        <time>2022-06-26T08:42:57Z</time>
      </trkpt>
      <trkpt lat="48.04377" lon="6.85992">
        <ele>797.6</ele>
        <time>2022-06-26T08:42:58Z</time>
      </trkpt>
      <trkpt lat="48.04377" lon="6.8599">
        <ele>797.6</ele>
        <time>2022-06-26T08:42:59Z</time>
      </trkpt>
      <trkpt lat="48.04377" lon="6.85988">
        <ele>797.8</ele>
        <time>2022-06-26T08:43:00Z</time>
      </trkpt>
      <trkpt lat="48.04376" lon="6.85986">
        <ele>797.8</ele>
        <time>2022-06-26T08:43:01Z</time>
      </trkpt>
      <trkpt lat="48.04375" lon="6.85982">
        <ele>797.8</ele>
        <time>2022-06-26T08:43:02Z</time>
      </trkpt>
      <trkpt lat="48.04371" lon="6.85977">
        <ele>798.2</ele>
        <time>2022-06-26T08:43:05Z</time>
      </trkpt>
      <trkpt lat="48.04369" lon="6.85975">
        <ele>798.2</ele>
        <time>2022-06-26T08:43:06Z</time>
      </trkpt>
      <trkpt lat="48.04368" lon="6.85973">
        <ele>798.2</ele>
        <time>2022-06-26T08:43:07Z</time>
      </trkpt>
      <trkpt lat="48.04366" lon="6.8597">
        <ele>798.4</ele>
        <time>2022-06-26T08:43:08Z</time>
      </trkpt>
      <trkpt lat="48.04365" lon="6.85967">
        <ele>798.4</ele>
        <time>2022-06-26T08:43:09Z</time>
      </trkpt>
      <trkpt lat="48.04355" lon="6.85948">
        <ele>798.8</ele>
        <time>2022-06-26T08:43:15Z</time>
      </trkpt>
      <trkpt lat="48.04351" lon="6.8594">
        <ele>799</ele>
        <time>2022-06-26T08:43:17Z</time>
      </trkpt>
      <trkpt lat="48.04349" lon="6.85933">
        <ele>799.2</ele>
        <time>2022-06-26T08:43:19Z</time>
      </trkpt>
      <trkpt lat="48.04347" lon="6.85931">
        <ele>799.4</ele>
        <time>2022-06-26T08:43:20Z</time>
      </trkpt>
      <trkpt lat="48.04344" lon="6.85926">
        <ele>799.4</ele>
        <time>2022-06-26T08:43:21Z</time>
      </trkpt>
      <trkpt lat="48.0434" lon="6.85923">
        <ele>799.4</ele>
        <time>2022-06-26T08:43:22Z</time>
      </trkpt>
      <trkpt lat="48.04339" lon="6.8592">
        <ele>799.8</ele>
        <time>2022-06-26T08:43:23Z</time>
      </trkpt>
      <trkpt lat="48.04339" lon="6.85917">
        <ele>800</ele>
        <time>2022-06-26T08:43:24Z</time>
      </trkpt>
      <trkpt lat="48.04338" lon="6.85913">
        <ele>800.2</ele>
        <time>2022-06-26T08:43:25Z</time>
      </trkpt>
      <trkpt lat="48.04337" lon="6.8591">
        <ele>800.4</ele>
        <time>2022-06-26T08:43:26Z</time>
      </trkpt>
      <trkpt lat="48.04337" lon="6.85907">
        <ele>800.6</ele>
        <time>2022-06-26T08:43:27Z</time>
      </trkpt>
      <trkpt lat="48.04337" lon="6.85905">
        <ele>800.8</ele>
        <time>2022-06-26T08:43:28Z</time>
      </trkpt>
      <trkpt lat="48.04337" lon="6.85902">
        <ele>800.8</ele>
        <time>2022-06-26T08:43:29Z</time>
      </trkpt>
      <trkpt lat="48.04336" lon="6.859">
        <ele>801</ele>
        <time>2022-06-26T08:43:30Z</time>
      </trkpt>
      <trkpt lat="48.04336" lon="6.85896">
        <ele>801</ele>
        <time>2022-06-26T08:43:31Z</time>
      </trkpt>
      <trkpt lat="48.04336" lon="6.85893">
        <ele>801.2</ele>
        <time>2022-06-26T08:43:32Z</time>
      </trkpt>
      <trkpt lat="48.04336" lon="6.8589">
        <ele>801.4</ele>
        <time>2022-06-26T08:43:33Z</time>
      </trkpt>
      <trkpt lat="48.04336" lon="6.85886">
        <ele>801.6</ele>
        <time>2022-06-26T08:43:34Z</time>
      </trkpt>
      <trkpt lat="48.04337" lon="6.85883">
        <ele>801.6</ele>
        <time>2022-06-26T08:43:35Z</time>
      </trkpt>
      <trkpt lat="48.04337" lon="6.85879">
        <ele>801.8</ele>
        <time>2022-06-26T08:43:36Z</time>
      </trkpt>
      <trkpt lat="48.04338" lon="6.85875">
        <ele>802</ele>
        <time>2022-06-26T08:43:37Z</time>
      </trkpt>
      <trkpt lat="48.04338" lon="6.85872">
        <ele>802</ele>
        <time>2022-06-26T08:43:38Z</time>
      </trkpt>
      <trkpt lat="48.04339" lon="6.85869">
        <ele>802</ele>
        <time>2022-06-26T08:43:39Z</time>
      </trkpt>
      <trkpt lat="48.04339" lon="6.85866">
        <ele>802.2</ele>
        <time>2022-06-26T08:43:40Z</time>
      </trkpt>
      <trkpt lat="48.04337" lon="6.85862">
        <ele>802.4</ele>
        <time>2022-06-26T08:43:41Z</time>
      </trkpt>
      <trkpt lat="48.04334" lon="6.8586">
        <ele>802.4</ele>
        <time>2022-06-26T08:43:42Z</time>
      </trkpt>
      <trkpt lat="48.04334" lon="6.85856">
        <ele>802.6</ele>
        <time>2022-06-26T08:43:43Z</time>
      </trkpt>
      <trkpt lat="48.04331" lon="6.85853">
        <ele>802.8</ele>
        <time>2022-06-26T08:43:44Z</time>
      </trkpt>
      <trkpt lat="48.04329" lon="6.85849">
        <ele>802.8</ele>
        <time>2022-06-26T08:43:45Z</time>
      </trkpt>
      <trkpt lat="48.04328" lon="6.85845">
        <ele>803</ele>
        <time>2022-06-26T08:43:46Z</time>
      </trkpt>
      <trkpt lat="48.04326" lon="6.85843">
        <ele>803.2</ele>
        <time>2022-06-26T08:43:47Z</time>
      </trkpt>
      <trkpt lat="48.04325" lon="6.8584">
        <ele>803.2</ele>
        <time>2022-06-26T08:43:48Z</time>
      </trkpt>
      <trkpt lat="48.04323" lon="6.85837">
        <ele>803.4</ele>
        <time>2022-06-26T08:43:49Z</time>
      </trkpt>
      <trkpt lat="48.04321" lon="6.85835">
        <ele>803.6</ele>
        <time>2022-06-26T08:43:50Z</time>
      </trkpt>
      <trkpt lat="48.04321" lon="6.85831">
        <ele>803.6</ele>
        <time>2022-06-26T08:43:51Z</time>
      </trkpt>
      <trkpt lat="48.04321" lon="6.85828">
        <ele>803.8</ele>
        <time>2022-06-26T08:43:52Z</time>
      </trkpt>
      <trkpt lat="48.04321" lon="6.85825">
        <ele>803.8</ele>
        <time>2022-06-26T08:43:53Z</time>
      </trkpt>
      <trkpt lat="48.04321" lon="6.85822">
        <ele>804</ele>
        <time>2022-06-26T08:43:54Z</time>
      </trkpt>
      <trkpt lat="48.0432" lon="6.85819">
        <ele>804</ele>
        <time>2022-06-26T08:43:55Z</time>
      </trkpt>
      <trkpt lat="48.04319" lon="6.85818">
        <ele>804.2</ele>
        <time>2022-06-26T08:43:56Z</time>
      </trkpt>
      <trkpt lat="48.04318" lon="6.85816">
        <ele>804.2</ele>
        <time>2022-06-26T08:43:57Z</time>
      </trkpt>
      <trkpt lat="48.04318" lon="6.85814">
        <ele>804.4</ele>
        <time>2022-06-26T08:43:58Z</time>
      </trkpt>
      <trkpt lat="48.04317" lon="6.85812">
        <ele>804.4</ele>
        <time>2022-06-26T08:43:59Z</time>
      </trkpt>
      <trkpt lat="48.04317" lon="6.85809">
        <ele>804.4</ele>
        <time>2022-06-26T08:44:00Z</time>
      </trkpt>
      <trkpt lat="48.04316" lon="6.85805">
        <ele>804.6</ele>
        <time>2022-06-26T08:44:01Z</time>
      </trkpt>
      <trkpt lat="48.04314" lon="6.85802">
        <ele>804.8</ele>
        <time>2022-06-26T08:44:02Z</time>
      </trkpt>
      <trkpt lat="48.04313" lon="6.85798">
        <ele>805</ele>
        <time>2022-06-26T08:44:03Z</time>
      </trkpt>
      <trkpt lat="48.04312" lon="6.85795">
        <ele>805</ele>
        <time>2022-06-26T08:44:04Z</time>
      </trkpt>
      <trkpt lat="48.04311" lon="6.85791">
        <ele>805.2</ele>
        <time>2022-06-26T08:44:05Z</time>
      </trkpt>
      <trkpt lat="48.04309" lon="6.85787">
        <ele>805.2</ele>
        <time>2022-06-26T08:44:06Z</time>
      </trkpt>
      <trkpt lat="48.04308" lon="6.85783">
        <ele>805.2</ele>
        <time>2022-06-26T08:44:07Z</time>
      </trkpt>
      <trkpt lat="48.04307" lon="6.8578">
        <ele>805.4</ele>
        <time>2022-06-26T08:44:08Z</time>
      </trkpt>
      <trkpt lat="48.04306" lon="6.85776">
        <ele>805.4</ele>
        <time>2022-06-26T08:44:09Z</time>
      </trkpt>
      <trkpt lat="48.04307" lon="6.85772">
        <ele>805.4</ele>
        <time>2022-06-26T08:44:10Z</time>
      </trkpt>
      <trkpt lat="48.04308" lon="6.85769">
        <ele>805.4</ele>
        <time>2022-06-26T08:44:11Z</time>
      </trkpt>
      <trkpt lat="48.04307" lon="6.85766">
        <ele>805.6</ele>
        <time>2022-06-26T08:44:12Z</time>
      </trkpt>
      <trkpt lat="48.04305" lon="6.85763">
        <ele>805.6</ele>
        <time>2022-06-26T08:44:13Z</time>
      </trkpt>
      <trkpt lat="48.04301" lon="6.85759">
        <ele>805.8</ele>
        <time>2022-06-26T08:44:14Z</time>
      </trkpt>
      <trkpt lat="48.04301" lon="6.85755">
        <ele>805.8</ele>
        <time>2022-06-26T08:44:15Z</time>
      </trkpt>
      <trkpt lat="48.04302" lon="6.85752">
        <ele>805.8</ele>
        <time>2022-06-26T08:44:16Z</time>
      </trkpt>
      <trkpt lat="48.04302" lon="6.85748">
        <ele>805.8</ele>
        <time>2022-06-26T08:44:17Z</time>
      </trkpt>
      <trkpt lat="48.04301" lon="6.85745">
        <ele>806</ele>
        <time>2022-06-26T08:44:18Z</time>
      </trkpt>
      <trkpt lat="48.043" lon="6.85742">
        <ele>806</ele>
        <time>2022-06-26T08:44:19Z</time>
      </trkpt>
      <trkpt lat="48.043" lon="6.85739">
        <ele>806.2</ele>
        <time>2022-06-26T08:44:20Z</time>
      </trkpt>
      <trkpt lat="48.04299" lon="6.85737">
        <ele>806.2</ele>
        <time>2022-06-26T08:44:21Z</time>
      </trkpt>
      <trkpt lat="48.04299" lon="6.85734">
        <ele>806.4</ele>
        <time>2022-06-26T08:44:22Z</time>
      </trkpt>
      <trkpt lat="48.04299" lon="6.85731">
        <ele>806.4</ele>
        <time>2022-06-26T08:44:23Z</time>
      </trkpt>
      <trkpt lat="48.04298" lon="6.85729">
        <ele>806.6</ele>
        <time>2022-06-26T08:44:24Z</time>
      </trkpt>
      <trkpt lat="48.04297" lon="6.85726">
        <ele>806.8</ele>
        <time>2022-06-26T08:44:25Z</time>
      </trkpt>
      <trkpt lat="48.04297" lon="6.85724">
        <ele>807</ele>
        <time>2022-06-26T08:44:26Z</time>
      </trkpt>
      <trkpt lat="48.04296" lon="6.85721">
        <ele>807</ele>
        <time>2022-06-26T08:44:27Z</time>
      </trkpt>
      <trkpt lat="48.04293" lon="6.85719">
        <ele>807.2</ele>
        <time>2022-06-26T08:44:28Z</time>
      </trkpt>
      <trkpt lat="48.04292" lon="6.85718">
        <ele>807.4</ele>
        <time>2022-06-26T08:44:29Z</time>
      </trkpt>
      <trkpt lat="48.04291" lon="6.85716">
        <ele>807.4</ele>
        <time>2022-06-26T08:44:30Z</time>
      </trkpt>
      <trkpt lat="48.04291" lon="6.85714">
        <ele>807.6</ele>
        <time>2022-06-26T08:44:31Z</time>
      </trkpt>
      <trkpt lat="48.04291" lon="6.85711">
        <ele>807.6</ele>
        <time>2022-06-26T08:44:32Z</time>
      </trkpt>
      <trkpt lat="48.0429" lon="6.85709">
        <ele>807.8</ele>
        <time>2022-06-26T08:44:33Z</time>
      </trkpt>
      <trkpt lat="48.04289" lon="6.85708">
        <ele>808</ele>
        <time>2022-06-26T08:44:34Z</time>
      </trkpt>
      <trkpt lat="48.04289" lon="6.85707">
        <ele>808.4</ele>
        <time>2022-06-26T08:44:35Z</time>
      </trkpt>
      <trkpt lat="48.04288" lon="6.85706">
        <ele>808.4</ele>
        <time>2022-06-26T08:44:36Z</time>
      </trkpt>
      <trkpt lat="48.04288" lon="6.85706">
        <ele>808.6</ele>
        <time>2022-06-26T08:44:37Z</time>
      </trkpt>
      <trkpt lat="48.04288" lon="6.85705">
        <ele>808.8</ele>
        <time>2022-06-26T08:44:38Z</time>
      </trkpt>
      <trkpt lat="48.04287" lon="6.85703">
        <ele>808.8</ele>
        <time>2022-06-26T08:44:39Z</time>
      </trkpt>
      <trkpt lat="48.04286" lon="6.857">
        <ele>809</ele>
        <time>2022-06-26T08:44:40Z</time>
      </trkpt>
      <trkpt lat="48.04284" lon="6.85698">
        <ele>809.2</ele>
        <time>2022-06-26T08:44:41Z</time>
      </trkpt>
      <trkpt lat="48.04283" lon="6.85696">
        <ele>809.2</ele>
        <time>2022-06-26T08:44:42Z</time>
      </trkpt>
      <trkpt lat="48.04282" lon="6.85693">
        <ele>809.4</ele>
        <time>2022-06-26T08:44:43Z</time>
      </trkpt>
      <trkpt lat="48.04281" lon="6.85691">
        <ele>809.6</ele>
        <time>2022-06-26T08:44:44Z</time>
      </trkpt>
      <trkpt lat="48.04281" lon="6.85688">
        <ele>809.8</ele>
        <time>2022-06-26T08:44:45Z</time>
      </trkpt>
      <trkpt lat="48.0428" lon="6.85686">
        <ele>810</ele>
        <time>2022-06-26T08:44:46Z</time>
      </trkpt>
      <trkpt lat="48.04277" lon="6.85682">
        <ele>810.2</ele>
        <time>2022-06-26T08:44:47Z</time>
      </trkpt>
      <trkpt lat="48.04275" lon="6.8568">
        <ele>810.4</ele>
        <time>2022-06-26T08:44:48Z</time>
      </trkpt>
      <trkpt lat="48.04274" lon="6.85677">
        <ele>810.4</ele>
        <time>2022-06-26T08:44:49Z</time>
      </trkpt>
      <trkpt lat="48.04273" lon="6.85673">
        <ele>810.6</ele>
        <time>2022-06-26T08:44:50Z</time>
      </trkpt>
      <trkpt lat="48.04273" lon="6.85671">
        <ele>810.6</ele>
        <time>2022-06-26T08:44:51Z</time>
      </trkpt>
      <trkpt lat="48.04272" lon="6.85668">
        <ele>811</ele>
        <time>2022-06-26T08:44:52Z</time>
      </trkpt>
      <trkpt lat="48.0427" lon="6.85664">
        <ele>811</ele>
        <time>2022-06-26T08:44:53Z</time>
      </trkpt>
      <trkpt lat="48.04269" lon="6.85662">
        <ele>811.2</ele>
        <time>2022-06-26T08:44:54Z</time>
      </trkpt>
      <trkpt lat="48.04267" lon="6.8566">
        <ele>811.4</ele>
        <time>2022-06-26T08:44:55Z</time>
      </trkpt>
      <trkpt lat="48.04266" lon="6.85657">
        <ele>811.4</ele>
        <time>2022-06-26T08:44:56Z</time>
      </trkpt>
      <trkpt lat="48.04266" lon="6.85654">
        <ele>811.6</ele>
        <time>2022-06-26T08:44:57Z</time>
      </trkpt>
      <trkpt lat="48.04265" lon="6.85652">
        <ele>811.6</ele>
        <time>2022-06-26T08:44:58Z</time>
      </trkpt>
      <trkpt lat="48.04265" lon="6.8565">
        <ele>811.8</ele>
        <time>2022-06-26T08:44:59Z</time>
      </trkpt>
      <trkpt lat="48.04263" lon="6.85647">
        <ele>812</ele>
        <time>2022-06-26T08:45:00Z</time>
      </trkpt>
      <trkpt lat="48.04262" lon="6.85644">
        <ele>812.2</ele>
        <time>2022-06-26T08:45:01Z</time>
      </trkpt>
      <trkpt lat="48.04261" lon="6.85642">
        <ele>812.2</ele>
        <time>2022-06-26T08:45:02Z</time>
      </trkpt>
      <trkpt lat="48.04261" lon="6.8564">
        <ele>812.2</ele>
        <time>2022-06-26T08:45:03Z</time>
      </trkpt>
      <trkpt lat="48.0426" lon="6.85637">
        <ele>812.4</ele>
        <time>2022-06-26T08:45:04Z</time>
      </trkpt>
      <trkpt lat="48.04258" lon="6.85633">
        <ele>812.4</ele>
        <time>2022-06-26T08:45:05Z</time>
      </trkpt>
      <trkpt lat="48.04256" lon="6.85631">
        <ele>812.6</ele>
        <time>2022-06-26T08:45:06Z</time>
      </trkpt>
      <trkpt lat="48.04255" lon="6.85629">
        <ele>812.8</ele>
        <time>2022-06-26T08:45:07Z</time>
      </trkpt>
      <trkpt lat="48.04251" lon="6.85624">
        <ele>813</ele>
        <time>2022-06-26T08:45:08Z</time>
      </trkpt>
      <trkpt lat="48.0425" lon="6.85622">
        <ele>813</ele>
        <time>2022-06-26T08:45:09Z</time>
      </trkpt>
      <trkpt lat="48.04248" lon="6.85619">
        <ele>813.2</ele>
        <time>2022-06-26T08:45:10Z</time>
      </trkpt>
      <trkpt lat="48.04246" lon="6.85617">
        <ele>813.2</ele>
        <time>2022-06-26T08:45:11Z</time>
      </trkpt>
      <trkpt lat="48.04244" lon="6.85615">
        <ele>813.4</ele>
        <time>2022-06-26T08:45:12Z</time>
      </trkpt>
      <trkpt lat="48.04242" lon="6.85613">
        <ele>813.4</ele>
        <time>2022-06-26T08:45:13Z</time>
      </trkpt>
      <trkpt lat="48.04241" lon="6.8561">
        <ele>813.6</ele>
        <time>2022-06-26T08:45:14Z</time>
      </trkpt>
      <trkpt lat="48.0424" lon="6.85607">
        <ele>813.6</ele>
        <time>2022-06-26T08:45:15Z</time>
      </trkpt>
      <trkpt lat="48.04239" lon="6.85603">
        <ele>813.8</ele>
        <time>2022-06-26T08:45:16Z</time>
      </trkpt>
      <trkpt lat="48.0424" lon="6.85599">
        <ele>814</ele>
        <time>2022-06-26T08:45:17Z</time>
      </trkpt>
      <trkpt lat="48.0424" lon="6.85597">
        <ele>814</ele>
        <time>2022-06-26T08:45:18Z</time>
      </trkpt>
      <trkpt lat="48.04239" lon="6.85594">
        <ele>814.2</ele>
        <time>2022-06-26T08:45:19Z</time>
      </trkpt>
      <trkpt lat="48.04238" lon="6.85592">
        <ele>814.6</ele>
        <time>2022-06-26T08:45:20Z</time>
      </trkpt>
      <trkpt lat="48.04236" lon="6.85589">
        <ele>814.6</ele>
        <time>2022-06-26T08:45:21Z</time>
      </trkpt>
      <trkpt lat="48.04235" lon="6.85586">
        <ele>814.8</ele>
        <time>2022-06-26T08:45:22Z</time>
      </trkpt>
      <trkpt lat="48.04234" lon="6.85583">
        <ele>814.8</ele>
        <time>2022-06-26T08:45:23Z</time>
      </trkpt>
      <trkpt lat="48.04231" lon="6.8558">
        <ele>815</ele>
        <time>2022-06-26T08:45:24Z</time>
      </trkpt>
      <trkpt lat="48.0423" lon="6.85578">
        <ele>815</ele>
        <time>2022-06-26T08:45:25Z</time>
      </trkpt>
      <trkpt lat="48.04228" lon="6.85576">
        <ele>815.4</ele>
        <time>2022-06-26T08:45:26Z</time>
      </trkpt>
      <trkpt lat="48.04226" lon="6.85573">
        <ele>815.4</ele>
        <time>2022-06-26T08:45:27Z</time>
      </trkpt>
      <trkpt lat="48.04224" lon="6.85571">
        <ele>815.2</ele>
        <time>2022-06-26T08:45:28Z</time>
      </trkpt>
      <trkpt lat="48.04222" lon="6.85568">
        <ele>815.6</ele>
        <time>2022-06-26T08:45:29Z</time>
      </trkpt>
      <trkpt lat="48.04219" lon="6.85565">
        <ele>815.6</ele>
        <time>2022-06-26T08:45:30Z</time>
      </trkpt>
      <trkpt lat="48.04217" lon="6.85562">
        <ele>815.6</ele>
        <time>2022-06-26T08:45:31Z</time>
      </trkpt>
      <trkpt lat="48.04215" lon="6.8556">
        <ele>815.6</ele>
        <time>2022-06-26T08:45:32Z</time>
      </trkpt>
      <trkpt lat="48.04211" lon="6.85557">
        <ele>815.4</ele>
        <time>2022-06-26T08:45:33Z</time>
      </trkpt>
      <trkpt lat="48.04208" lon="6.85555">
        <ele>815.2</ele>
        <time>2022-06-26T08:45:34Z</time>
      </trkpt>
      <trkpt lat="48.04205" lon="6.85552">
        <ele>815.2</ele>
        <time>2022-06-26T08:45:35Z</time>
      </trkpt>
      <trkpt lat="48.04202" lon="6.85549">
        <ele>815</ele>
        <time>2022-06-26T08:45:36Z</time>
      </trkpt>
      <trkpt lat="48.04199" lon="6.85547">
        <ele>814.8</ele>
        <time>2022-06-26T08:45:37Z</time>
      </trkpt>
      <trkpt lat="48.0419" lon="6.85541">
        <ele>814.4</ele>
        <time>2022-06-26T08:45:39Z</time>
      </trkpt>
      <trkpt lat="48.04187" lon="6.85538">
        <ele>814.4</ele>
        <time>2022-06-26T08:45:40Z</time>
      </trkpt>
      <trkpt lat="48.04182" lon="6.85536">
        <ele>814.2</ele>
        <time>2022-06-26T08:45:41Z</time>
      </trkpt>
      <trkpt lat="48.04178" lon="6.85535">
        <ele>813.8</ele>
        <time>2022-06-26T08:45:42Z</time>
      </trkpt>
      <trkpt lat="48.04173" lon="6.8553">
        <ele>813.6</ele>
        <time>2022-06-26T08:45:43Z</time>
      </trkpt>
      <trkpt lat="48.04165" lon="6.85521">
        <ele>813</ele>
        <time>2022-06-26T08:45:45Z</time>
      </trkpt>
      <trkpt lat="48.04163" lon="6.85518">
        <ele>812.8</ele>
        <time>2022-06-26T08:45:46Z</time>
      </trkpt>
      <trkpt lat="48.0416" lon="6.85512">
        <ele>812.2</ele>
        <time>2022-06-26T08:45:47Z</time>
      </trkpt>
      <trkpt lat="48.04158" lon="6.85505">
        <ele>812</ele>
        <time>2022-06-26T08:45:48Z</time>
      </trkpt>
      <trkpt lat="48.04149" lon="6.85493">
        <ele>811.6</ele>
        <time>2022-06-26T08:45:50Z</time>
      </trkpt>
      <trkpt lat="48.04147" lon="6.85489">
        <ele>811.2</ele>
        <time>2022-06-26T08:45:51Z</time>
      </trkpt>
      <trkpt lat="48.04145" lon="6.85486">
        <ele>811.2</ele>
        <time>2022-06-26T08:45:52Z</time>
      </trkpt>
      <trkpt lat="48.04143" lon="6.85485">
        <ele>811</ele>
        <time>2022-06-26T08:45:53Z</time>
      </trkpt>
      <trkpt lat="48.04141" lon="6.85483">
        <ele>811</ele>
        <time>2022-06-26T08:45:54Z</time>
      </trkpt>
      <trkpt lat="48.04139" lon="6.8548">
        <ele>811.2</ele>
        <time>2022-06-26T08:45:55Z</time>
      </trkpt>
      <trkpt lat="48.04137" lon="6.85477">
        <ele>811.2</ele>
        <time>2022-06-26T08:45:56Z</time>
      </trkpt>
      <trkpt lat="48.04136" lon="6.85476">
        <ele>811.2</ele>
        <time>2022-06-26T08:45:57Z</time>
      </trkpt>
      <trkpt lat="48.04134" lon="6.85474">
        <ele>811.4</ele>
        <time>2022-06-26T08:45:58Z</time>
      </trkpt>
      <trkpt lat="48.04131" lon="6.85467">
        <ele>811.6</ele>
        <time>2022-06-26T08:46:00Z</time>
      </trkpt>
      <trkpt lat="48.04124" lon="6.85453">
        <ele>812.4</ele>
        <time>2022-06-26T08:46:03Z</time>
      </trkpt>
      <trkpt lat="48.04123" lon="6.85451">
        <ele>812.6</ele>
        <time>2022-06-26T08:46:04Z</time>
      </trkpt>
      <trkpt lat="48.04117" lon="6.85447">
        <ele>813</ele>
        <time>2022-06-26T08:46:06Z</time>
      </trkpt>
      <trkpt lat="48.04114" lon="6.85442">
        <ele>813.2</ele>
        <time>2022-06-26T08:46:07Z</time>
      </trkpt>
      <trkpt lat="48.04106" lon="6.85433">
        <ele>813.6</ele>
        <time>2022-06-26T08:46:10Z</time>
      </trkpt>
      <trkpt lat="48.04103" lon="6.85429">
        <ele>813.8</ele>
        <time>2022-06-26T08:46:11Z</time>
      </trkpt>
      <trkpt lat="48.04101" lon="6.85426">
        <ele>814</ele>
        <time>2022-06-26T08:46:12Z</time>
      </trkpt>
      <trkpt lat="48.04101" lon="6.85423">
        <ele>814.2</ele>
        <time>2022-06-26T08:46:13Z</time>
      </trkpt>
      <trkpt lat="48.041" lon="6.85422">
        <ele>814.4</ele>
        <time>2022-06-26T08:46:14Z</time>
      </trkpt>
      <trkpt lat="48.041" lon="6.85419">
        <ele>814.6</ele>
        <time>2022-06-26T08:46:15Z</time>
      </trkpt>
      <trkpt lat="48.04099" lon="6.85418">
        <ele>814.8</ele>
        <time>2022-06-26T08:46:16Z</time>
      </trkpt>
      <trkpt lat="48.04096" lon="6.85408">
        <ele>815</ele>
        <time>2022-06-26T08:46:19Z</time>
      </trkpt>
      <trkpt lat="48.04095" lon="6.85405">
        <ele>815.2</ele>
        <time>2022-06-26T08:46:20Z</time>
      </trkpt>
      <trkpt lat="48.04095" lon="6.85403">
        <ele>815.4</ele>
        <time>2022-06-26T08:46:21Z</time>
      </trkpt>
      <trkpt lat="48.04095" lon="6.854">
        <ele>815.6</ele>
        <time>2022-06-26T08:46:22Z</time>
      </trkpt>
      <trkpt lat="48.04094" lon="6.85397">
        <ele>815.8</ele>
        <time>2022-06-26T08:46:23Z</time>
      </trkpt>
      <trkpt lat="48.04094" lon="6.85393">
        <ele>816</ele>
        <time>2022-06-26T08:46:24Z</time>
      </trkpt>
      <trkpt lat="48.04093" lon="6.8539">
        <ele>816</ele>
        <time>2022-06-26T08:46:25Z</time>
      </trkpt>
      <trkpt lat="48.04092" lon="6.85387">
        <ele>816</ele>
        <time>2022-06-26T08:46:26Z</time>
      </trkpt>
      <trkpt lat="48.04091" lon="6.85384">
        <ele>816.2</ele>
        <time>2022-06-26T08:46:27Z</time>
      </trkpt>
      <trkpt lat="48.0409" lon="6.85381">
        <ele>816.2</ele>
        <time>2022-06-26T08:46:28Z</time>
      </trkpt>
      <trkpt lat="48.04091" lon="6.85378">
        <ele>816.2</ele>
        <time>2022-06-26T08:46:29Z</time>
      </trkpt>
      <trkpt lat="48.04091" lon="6.85374">
        <ele>816.4</ele>
        <time>2022-06-26T08:46:30Z</time>
      </trkpt>
      <trkpt lat="48.04091" lon="6.85371">
        <ele>816.4</ele>
        <time>2022-06-26T08:46:31Z</time>
      </trkpt>
      <trkpt lat="48.04091" lon="6.85367">
        <ele>816.6</ele>
        <time>2022-06-26T08:46:32Z</time>
      </trkpt>
      <trkpt lat="48.04091" lon="6.85364">
        <ele>816.6</ele>
        <time>2022-06-26T08:46:33Z</time>
      </trkpt>
      <trkpt lat="48.04091" lon="6.85362">
        <ele>816.8</ele>
        <time>2022-06-26T08:46:34Z</time>
      </trkpt>
      <trkpt lat="48.04089" lon="6.85359">
        <ele>816.8</ele>
        <time>2022-06-26T08:46:35Z</time>
      </trkpt>
      <trkpt lat="48.04088" lon="6.85356">
        <ele>817</ele>
        <time>2022-06-26T08:46:36Z</time>
      </trkpt>
      <trkpt lat="48.04088" lon="6.85352">
        <ele>817</ele>
        <time>2022-06-26T08:46:37Z</time>
      </trkpt>
      <trkpt lat="48.04088" lon="6.85347">
        <ele>817.2</ele>
        <time>2022-06-26T08:46:38Z</time>
      </trkpt>
      <trkpt lat="48.04088" lon="6.85342">
        <ele>817.4</ele>
        <time>2022-06-26T08:46:39Z</time>
      </trkpt>
      <trkpt lat="48.04088" lon="6.85337">
        <ele>817.4</ele>
        <time>2022-06-26T08:46:40Z</time>
      </trkpt>
      <trkpt lat="48.04088" lon="6.85332">
        <ele>817.6</ele>
        <time>2022-06-26T08:46:41Z</time>
      </trkpt>
      <trkpt lat="48.04088" lon="6.85328">
        <ele>817.6</ele>
        <time>2022-06-26T08:46:42Z</time>
      </trkpt>
      <trkpt lat="48.04088" lon="6.85324">
        <ele>817.8</ele>
        <time>2022-06-26T08:46:43Z</time>
      </trkpt>
      <trkpt lat="48.04088" lon="6.85319">
        <ele>817.8</ele>
        <time>2022-06-26T08:46:44Z</time>
      </trkpt>
      <trkpt lat="48.04088" lon="6.85315">
        <ele>817.8</ele>
        <time>2022-06-26T08:46:45Z</time>
      </trkpt>
      <trkpt lat="48.04088" lon="6.85311">
        <ele>817.8</ele>
        <time>2022-06-26T08:46:46Z</time>
      </trkpt>
      <trkpt lat="48.04088" lon="6.85306">
        <ele>817.8</ele>
        <time>2022-06-26T08:46:47Z</time>
      </trkpt>
      <trkpt lat="48.04087" lon="6.85301">
        <ele>817.8</ele>
        <time>2022-06-26T08:46:48Z</time>
      </trkpt>
      <trkpt lat="48.04086" lon="6.85296">
        <ele>817.8</ele>
        <time>2022-06-26T08:46:49Z</time>
      </trkpt>
      <trkpt lat="48.04087" lon="6.8526">
        <ele>816.8</ele>
        <time>2022-06-26T08:46:55Z</time>
      </trkpt>
      <trkpt lat="48.04083" lon="6.85245">
        <ele>816.2</ele>
        <time>2022-06-26T08:46:57Z</time>
      </trkpt>
      <trkpt lat="48.0408" lon="6.85231">
        <ele>815.8</ele>
        <time>2022-06-26T08:46:59Z</time>
      </trkpt>
      <trkpt lat="48.04079" lon="6.85225">
        <ele>815.6</ele>
        <time>2022-06-26T08:47:00Z</time>
      </trkpt>
      <trkpt lat="48.04077" lon="6.85219">
        <ele>815.4</ele>
        <time>2022-06-26T08:47:01Z</time>
      </trkpt>
      <trkpt lat="48.04076" lon="6.85213">
        <ele>815.4</ele>
        <time>2022-06-26T08:47:02Z</time>
      </trkpt>
      <trkpt lat="48.04075" lon="6.852">
        <ele>815</ele>
        <time>2022-06-26T08:47:04Z</time>
      </trkpt>
      <trkpt lat="48.04074" lon="6.85192">
        <ele>815</ele>
        <time>2022-06-26T08:47:05Z</time>
      </trkpt>
      <trkpt lat="48.04072" lon="6.85178">
        <ele>814.8</ele>
        <time>2022-06-26T08:47:07Z</time>
      </trkpt>
      <trkpt lat="48.04072" lon="6.8517">
        <ele>814.6</ele>
        <time>2022-06-26T08:47:08Z</time>
      </trkpt>
      <trkpt lat="48.04071" lon="6.85163">
        <ele>814.4</ele>
        <time>2022-06-26T08:47:09Z</time>
      </trkpt>
      <trkpt lat="48.0407" lon="6.85158">
        <ele>814.2</ele>
        <time>2022-06-26T08:47:10Z</time>
      </trkpt>
      <trkpt lat="48.0407" lon="6.85152">
        <ele>814.2</ele>
        <time>2022-06-26T08:47:11Z</time>
      </trkpt>
      <trkpt lat="48.04071" lon="6.85147">
        <ele>813.8</ele>
        <time>2022-06-26T08:47:12Z</time>
      </trkpt>
      <trkpt lat="48.0407" lon="6.85141">
        <ele>813.8</ele>
        <time>2022-06-26T08:47:13Z</time>
      </trkpt>
      <trkpt lat="48.04071" lon="6.85135">
        <ele>813.6</ele>
        <time>2022-06-26T08:47:14Z</time>
      </trkpt>
      <trkpt lat="48.04072" lon="6.85127">
        <ele>813.6</ele>
        <time>2022-06-26T08:47:15Z</time>
      </trkpt>
      <trkpt lat="48.04074" lon="6.85115">
        <ele>813.6</ele>
        <time>2022-06-26T08:47:17Z</time>
      </trkpt>
      <trkpt lat="48.04076" lon="6.85109">
        <ele>813.6</ele>
        <time>2022-06-26T08:47:18Z</time>
      </trkpt>
      <trkpt lat="48.04077" lon="6.85103">
        <ele>813.6</ele>
        <time>2022-06-26T08:47:19Z</time>
      </trkpt>
      <trkpt lat="48.04078" lon="6.85097">
        <ele>813.6</ele>
        <time>2022-06-26T08:47:20Z</time>
      </trkpt>
      <trkpt lat="48.04078" lon="6.85093">
        <ele>813.8</ele>
        <time>2022-06-26T08:47:21Z</time>
      </trkpt>
      <trkpt lat="48.04079" lon="6.85078">
        <ele>814</ele>
        <time>2022-06-26T08:47:24Z</time>
      </trkpt>
      <trkpt lat="48.04078" lon="6.85075">
        <ele>814</ele>
        <time>2022-06-26T08:47:25Z</time>
      </trkpt>
      <trkpt lat="48.04077" lon="6.85071">
        <ele>814.2</ele>
        <time>2022-06-26T08:47:26Z</time>
      </trkpt>
      <trkpt lat="48.04077" lon="6.85067">
        <ele>814.2</ele>
        <time>2022-06-26T08:47:27Z</time>
      </trkpt>
      <trkpt lat="48.04076" lon="6.85063">
        <ele>814.2</ele>
        <time>2022-06-26T08:47:28Z</time>
      </trkpt>
      <trkpt lat="48.04075" lon="6.85058">
        <ele>814.2</ele>
        <time>2022-06-26T08:47:29Z</time>
      </trkpt>
      <trkpt lat="48.04073" lon="6.85045">
        <ele>814</ele>
        <time>2022-06-26T08:47:32Z</time>
      </trkpt>
      <trkpt lat="48.04071" lon="6.85042">
        <ele>813.8</ele>
        <time>2022-06-26T08:47:33Z</time>
      </trkpt>
      <trkpt lat="48.04068" lon="6.85038">
        <ele>813.6</ele>
        <time>2022-06-26T08:47:34Z</time>
      </trkpt>
      <trkpt lat="48.04065" lon="6.85033">
        <ele>813.2</ele>
        <time>2022-06-26T08:47:35Z</time>
      </trkpt>
      <trkpt lat="48.04061" lon="6.85025">
        <ele>813.2</ele>
        <time>2022-06-26T08:47:36Z</time>
      </trkpt>
      <trkpt lat="48.04059" lon="6.8502">
        <ele>812.8</ele>
        <time>2022-06-26T08:47:37Z</time>
      </trkpt>
      <trkpt lat="48.04059" lon="6.85015">
        <ele>812.8</ele>
        <time>2022-06-26T08:47:38Z</time>
      </trkpt>
      <trkpt lat="48.04058" lon="6.85008">
        <ele>812.4</ele>
        <time>2022-06-26T08:47:39Z</time>
      </trkpt>
      <trkpt lat="48.04056" lon="6.84997">
        <ele>811.8</ele>
        <time>2022-06-26T08:47:40Z</time>
      </trkpt>
      <trkpt lat="48.04052" lon="6.84986">
        <ele>811</ele>
        <time>2022-06-26T08:47:41Z</time>
      </trkpt>
      <trkpt lat="48.04047" lon="6.84974">
        <ele>809.6</ele>
        <time>2022-06-26T08:47:42Z</time>
      </trkpt>
      <trkpt lat="48.04044" lon="6.84964">
        <ele>809</ele>
        <time>2022-06-26T08:47:43Z</time>
      </trkpt>
      <trkpt lat="48.04041" lon="6.84956">
        <ele>808.4</ele>
        <time>2022-06-26T08:47:44Z</time>
      </trkpt>
      <trkpt lat="48.04037" lon="6.8495">
        <ele>808.2</ele>
        <time>2022-06-26T08:47:45Z</time>
      </trkpt>
      <trkpt lat="48.04035" lon="6.84945">
        <ele>808</ele>
        <time>2022-06-26T08:47:46Z</time>
      </trkpt>
      <trkpt lat="48.04035" lon="6.84936">
        <ele>808</ele>
        <time>2022-06-26T08:47:47Z</time>
      </trkpt>
      <trkpt lat="48.04037" lon="6.8493">
        <ele>807.8</ele>
        <time>2022-06-26T08:47:48Z</time>
      </trkpt>
      <trkpt lat="48.04038" lon="6.84925">
        <ele>807.8</ele>
        <time>2022-06-26T08:47:49Z</time>
      </trkpt>
      <trkpt lat="48.04038" lon="6.84918">
        <ele>807.6</ele>
        <time>2022-06-26T08:47:50Z</time>
      </trkpt>
      <trkpt lat="48.04035" lon="6.8491">
        <ele>807.6</ele>
        <time>2022-06-26T08:47:51Z</time>
      </trkpt>
      <trkpt lat="48.04032" lon="6.84903">
        <ele>807.6</ele>
        <time>2022-06-26T08:47:52Z</time>
      </trkpt>
      <trkpt lat="48.04029" lon="6.84898">
        <ele>807.6</ele>
        <time>2022-06-26T08:47:53Z</time>
      </trkpt>
      <trkpt lat="48.04027" lon="6.84894">
        <ele>807.6</ele>
        <time>2022-06-26T08:47:54Z</time>
      </trkpt>
      <trkpt lat="48.04026" lon="6.84889">
        <ele>807.6</ele>
        <time>2022-06-26T08:47:55Z</time>
      </trkpt>
      <trkpt lat="48.04026" lon="6.84884">
        <ele>807.8</ele>
        <time>2022-06-26T08:47:56Z</time>
      </trkpt>
      <trkpt lat="48.04025" lon="6.8488">
        <ele>807.8</ele>
        <time>2022-06-26T08:47:57Z</time>
      </trkpt>
      <trkpt lat="48.04022" lon="6.84867">
        <ele>808</ele>
        <time>2022-06-26T08:48:00Z</time>
      </trkpt>
      <trkpt lat="48.04022" lon="6.84859">
        <ele>808</ele>
        <time>2022-06-26T08:48:01Z</time>
      </trkpt>
      <trkpt lat="48.04021" lon="6.84851">
        <ele>808</ele>
        <time>2022-06-26T08:48:02Z</time>
      </trkpt>
      <trkpt lat="48.04021" lon="6.84848">
        <ele>808.2</ele>
        <time>2022-06-26T08:48:03Z</time>
      </trkpt>
      <trkpt lat="48.04019" lon="6.84844">
        <ele>808.4</ele>
        <time>2022-06-26T08:48:04Z</time>
      </trkpt>
      <trkpt lat="48.04017" lon="6.84842">
        <ele>808.4</ele>
        <time>2022-06-26T08:48:05Z</time>
      </trkpt>
      <trkpt lat="48.04016" lon="6.84841">
        <ele>808.4</ele>
        <time>2022-06-26T08:48:06Z</time>
      </trkpt>
      <trkpt lat="48.04016" lon="6.8484">
        <ele>808.4</ele>
        <time>2022-06-26T08:48:07Z</time>
      </trkpt>
      <trkpt lat="48.04015" lon="6.8484">
        <ele>808.6</ele>
        <time>2022-06-26T08:48:08Z</time>
      </trkpt>
      <trkpt lat="48.04014" lon="6.8484">
        <ele>808.6</ele>
        <time>2022-06-26T08:48:10Z</time>
      </trkpt>
      <trkpt lat="48.04014" lon="6.8484">
        <ele>808.6</ele>
        <time>2022-06-26T08:48:11Z</time>
      </trkpt>
      <trkpt lat="48.04014" lon="6.84838">
        <ele>808.6</ele>
        <time>2022-06-26T08:48:14Z</time>
      </trkpt>
      <trkpt lat="48.04012" lon="6.84837">
        <ele>808.8</ele>
        <time>2022-06-26T08:48:15Z</time>
      </trkpt>
      <trkpt lat="48.04011" lon="6.84836">
        <ele>808.8</ele>
        <time>2022-06-26T08:48:16Z</time>
      </trkpt>
      <trkpt lat="48.04009" lon="6.84835">
        <ele>809</ele>
        <time>2022-06-26T08:48:18Z</time>
      </trkpt>
      <trkpt lat="48.04009" lon="6.84834">
        <ele>809</ele>
        <time>2022-06-26T08:48:19Z</time>
      </trkpt>
      <trkpt lat="48.04008" lon="6.84833">
        <ele>809.2</ele>
        <time>2022-06-26T08:48:20Z</time>
      </trkpt>
      <trkpt lat="48.04008" lon="6.84833">
        <ele>809.2</ele>
        <time>2022-06-26T08:48:21Z</time>
      </trkpt>
      <trkpt lat="48.04007" lon="6.84832">
        <ele>809.4</ele>
        <time>2022-06-26T08:48:22Z</time>
      </trkpt>
      <trkpt lat="48.04007" lon="6.84831">
        <ele>810.6</ele>
        <time>2022-06-26T08:48:26Z</time>
      </trkpt>
      <trkpt lat="48.04006" lon="6.8483">
        <ele>810.8</ele>
        <time>2022-06-26T08:48:27Z</time>
      </trkpt>
      <trkpt lat="48.04" lon="6.84826">
        <ele>811.6</ele>
        <time>2022-06-26T08:48:32Z</time>
      </trkpt>
      <trkpt lat="48.03999" lon="6.84825">
        <ele>811.8</ele>
        <time>2022-06-26T08:48:33Z</time>
      </trkpt>
      <trkpt lat="48.03997" lon="6.84825">
        <ele>812</ele>
        <time>2022-06-26T08:48:34Z</time>
      </trkpt>
      <trkpt lat="48.03996" lon="6.84825">
        <ele>812.4</ele>
        <time>2022-06-26T08:48:35Z</time>
      </trkpt>
      <trkpt lat="48.03996" lon="6.84824">
        <ele>812.8</ele>
        <time>2022-06-26T08:48:36Z</time>
      </trkpt>
      <trkpt lat="48.03995" lon="6.84823">
        <ele>812.8</ele>
        <time>2022-06-26T08:48:37Z</time>
      </trkpt>
      <trkpt lat="48.03994" lon="6.84822">
        <ele>813</ele>
        <time>2022-06-26T08:48:38Z</time>
      </trkpt>
      <trkpt lat="48.03993" lon="6.8482">
        <ele>813.2</ele>
        <time>2022-06-26T08:48:39Z</time>
      </trkpt>
      <trkpt lat="48.03992" lon="6.84819">
        <ele>813.6</ele>
        <time>2022-06-26T08:48:40Z</time>
      </trkpt>
      <trkpt lat="48.03991" lon="6.84818">
        <ele>813.8</ele>
        <time>2022-06-26T08:48:41Z</time>
      </trkpt>
      <trkpt lat="48.0399" lon="6.84817">
        <ele>814</ele>
        <time>2022-06-26T08:48:42Z</time>
      </trkpt>
      <trkpt lat="48.03988" lon="6.84816">
        <ele>814.2</ele>
        <time>2022-06-26T08:48:43Z</time>
      </trkpt>
      <trkpt lat="48.03987" lon="6.84814">
        <ele>814.6</ele>
        <time>2022-06-26T08:48:44Z</time>
      </trkpt>
      <trkpt lat="48.03985" lon="6.84814">
        <ele>814.6</ele>
        <time>2022-06-26T08:48:45Z</time>
      </trkpt>
      <trkpt lat="48.03984" lon="6.84813">
        <ele>814.8</ele>
        <time>2022-06-26T08:48:46Z</time>
      </trkpt>
      <trkpt lat="48.03982" lon="6.84813">
        <ele>814.8</ele>
        <time>2022-06-26T08:48:47Z</time>
      </trkpt>
      <trkpt lat="48.03982" lon="6.84812">
        <ele>814.8</ele>
        <time>2022-06-26T08:48:48Z</time>
      </trkpt>
      <trkpt lat="48.0398" lon="6.8481">
        <ele>814.8</ele>
        <time>2022-06-26T08:48:49Z</time>
      </trkpt>
      <trkpt lat="48.03979" lon="6.84809">
        <ele>815</ele>
        <time>2022-06-26T08:48:50Z</time>
      </trkpt>
      <trkpt lat="48.03977" lon="6.84807">
        <ele>815.2</ele>
        <time>2022-06-26T08:48:51Z</time>
      </trkpt>
      <trkpt lat="48.03976" lon="6.84807">
        <ele>815.2</ele>
        <time>2022-06-26T08:48:52Z</time>
      </trkpt>
      <trkpt lat="48.03975" lon="6.84805">
        <ele>815.2</ele>
        <time>2022-06-26T08:48:53Z</time>
      </trkpt>
      <trkpt lat="48.03973" lon="6.84804">
        <ele>815.2</ele>
        <time>2022-06-26T08:48:54Z</time>
      </trkpt>
      <trkpt lat="48.03972" lon="6.84803">
        <ele>815.4</ele>
        <time>2022-06-26T08:48:55Z</time>
      </trkpt>
      <trkpt lat="48.03971" lon="6.84802">
        <ele>815.4</ele>
        <time>2022-06-26T08:48:56Z</time>
      </trkpt>
      <trkpt lat="48.0397" lon="6.848">
        <ele>815.4</ele>
        <time>2022-06-26T08:48:57Z</time>
      </trkpt>
      <trkpt lat="48.03969" lon="6.848">
        <ele>815.4</ele>
        <time>2022-06-26T08:48:58Z</time>
      </trkpt>
      <trkpt lat="48.03967" lon="6.84799">
        <ele>815.6</ele>
        <time>2022-06-26T08:48:59Z</time>
      </trkpt>
      <trkpt lat="48.03966" lon="6.848">
        <ele>815.6</ele>
        <time>2022-06-26T08:49:00Z</time>
      </trkpt>
      <trkpt lat="48.03966" lon="6.84799">
        <ele>815.8</ele>
        <time>2022-06-26T08:49:01Z</time>
      </trkpt>
      <trkpt lat="48.03965" lon="6.84798">
        <ele>816</ele>
        <time>2022-06-26T08:49:02Z</time>
      </trkpt>
      <trkpt lat="48.03964" lon="6.84797">
        <ele>816.2</ele>
        <time>2022-06-26T08:49:03Z</time>
      </trkpt>
      <trkpt lat="48.03963" lon="6.84797">
        <ele>816.2</ele>
        <time>2022-06-26T08:49:04Z</time>
      </trkpt>
      <trkpt lat="48.03963" lon="6.84797">
        <ele>816.8</ele>
        <time>2022-06-26T08:49:05Z</time>
      </trkpt>
      <trkpt lat="48.03963" lon="6.84796">
        <ele>817</ele>
        <time>2022-06-26T08:49:06Z</time>
      </trkpt>
      <trkpt lat="48.03962" lon="6.84795">
        <ele>817.4</ele>
        <time>2022-06-26T08:49:07Z</time>
      </trkpt>
      <trkpt lat="48.03961" lon="6.84794">
        <ele>817.4</ele>
        <time>2022-06-26T08:49:08Z</time>
      </trkpt>
      <trkpt lat="48.0396" lon="6.84793">
        <ele>817.8</ele>
        <time>2022-06-26T08:49:09Z</time>
      </trkpt>
      <trkpt lat="48.03959" lon="6.84793">
        <ele>817.8</ele>
        <time>2022-06-26T08:49:10Z</time>
      </trkpt>
      <trkpt lat="48.03958" lon="6.84793">
        <ele>818.2</ele>
        <time>2022-06-26T08:49:11Z</time>
      </trkpt>
      <trkpt lat="48.03957" lon="6.84792">
        <ele>818.6</ele>
        <time>2022-06-26T08:49:12Z</time>
      </trkpt>
      <trkpt lat="48.03957" lon="6.84792">
        <ele>818.6</ele>
        <time>2022-06-26T08:49:13Z</time>
      </trkpt>
      <trkpt lat="48.03957" lon="6.84792">
        <ele>819</ele>
        <time>2022-06-26T08:49:14Z</time>
      </trkpt>
      <trkpt lat="48.03957" lon="6.84792">
        <ele>819.2</ele>
        <time>2022-06-26T08:49:15Z</time>
      </trkpt>
      <trkpt lat="48.03956" lon="6.84791">
        <ele>819.4</ele>
        <time>2022-06-26T08:49:16Z</time>
      </trkpt>
      <trkpt lat="48.03954" lon="6.84791">
        <ele>819.6</ele>
        <time>2022-06-26T08:49:17Z</time>
      </trkpt>
      <trkpt lat="48.03954" lon="6.84791">
        <ele>819.6</ele>
        <time>2022-06-26T08:49:18Z</time>
      </trkpt>
      <trkpt lat="48.03953" lon="6.84791">
        <ele>819.8</ele>
        <time>2022-06-26T08:49:19Z</time>
      </trkpt>
      <trkpt lat="48.03953" lon="6.84789">
        <ele>819.8</ele>
        <time>2022-06-26T08:49:20Z</time>
      </trkpt>
      <trkpt lat="48.03952" lon="6.84788">
        <ele>820</ele>
        <time>2022-06-26T08:49:21Z</time>
      </trkpt>
      <trkpt lat="48.03951" lon="6.84786">
        <ele>820</ele>
        <time>2022-06-26T08:49:22Z</time>
      </trkpt>
      <trkpt lat="48.03949" lon="6.84785">
        <ele>819.8</ele>
        <time>2022-06-26T08:49:23Z</time>
      </trkpt>
      <trkpt lat="48.03946" lon="6.84784">
        <ele>820</ele>
        <time>2022-06-26T08:49:24Z</time>
      </trkpt>
      <trkpt lat="48.03944" lon="6.84783">
        <ele>820</ele>
        <time>2022-06-26T08:49:25Z</time>
      </trkpt>
      <trkpt lat="48.03941" lon="6.84781">
        <ele>819.8</ele>
        <time>2022-06-26T08:49:26Z</time>
      </trkpt>
      <trkpt lat="48.0394" lon="6.8478">
        <ele>819.8</ele>
        <time>2022-06-26T08:49:27Z</time>
      </trkpt>
      <trkpt lat="48.03938" lon="6.84779">
        <ele>820</ele>
        <time>2022-06-26T08:49:28Z</time>
      </trkpt>
      <trkpt lat="48.03937" lon="6.84778">
        <ele>820</ele>
        <time>2022-06-26T08:49:29Z</time>
      </trkpt>
      <trkpt lat="48.03935" lon="6.84777">
        <ele>820</ele>
        <time>2022-06-26T08:49:30Z</time>
      </trkpt>
      <trkpt lat="48.03934" lon="6.84775">
        <ele>820</ele>
        <time>2022-06-26T08:49:31Z</time>
      </trkpt>
      <trkpt lat="48.03932" lon="6.84774">
        <ele>820</ele>
        <time>2022-06-26T08:49:32Z</time>
      </trkpt>
      <trkpt lat="48.03931" lon="6.84773">
        <ele>820</ele>
        <time>2022-06-26T08:49:33Z</time>
      </trkpt>
      <trkpt lat="48.0393" lon="6.8477">
        <ele>820</ele>
        <time>2022-06-26T08:49:34Z</time>
      </trkpt>
      <trkpt lat="48.03927" lon="6.8477">
        <ele>820.2</ele>
        <time>2022-06-26T08:49:35Z</time>
      </trkpt>
      <trkpt lat="48.03927" lon="6.84766">
        <ele>820.4</ele>
        <time>2022-06-26T08:49:36Z</time>
      </trkpt>
      <trkpt lat="48.03926" lon="6.84765">
        <ele>820.4</ele>
        <time>2022-06-26T08:49:37Z</time>
      </trkpt>
      <trkpt lat="48.03923" lon="6.84762">
        <ele>820.8</ele>
        <time>2022-06-26T08:49:39Z</time>
      </trkpt>
      <trkpt lat="48.03922" lon="6.8476">
        <ele>820.8</ele>
        <time>2022-06-26T08:49:40Z</time>
      </trkpt>
      <trkpt lat="48.03921" lon="6.84758">
        <ele>821</ele>
        <time>2022-06-26T08:49:41Z</time>
      </trkpt>
      <trkpt lat="48.03919" lon="6.84753">
        <ele>821.2</ele>
        <time>2022-06-26T08:49:44Z</time>
      </trkpt>
      <trkpt lat="48.03916" lon="6.84746">
        <ele>821.6</ele>
        <time>2022-06-26T08:49:47Z</time>
      </trkpt>
      <trkpt lat="48.03915" lon="6.84744">
        <ele>821.8</ele>
        <time>2022-06-26T08:49:48Z</time>
      </trkpt>
      <trkpt lat="48.03914" lon="6.84741">
        <ele>822</ele>
        <time>2022-06-26T08:49:50Z</time>
      </trkpt>
      <trkpt lat="48.03912" lon="6.8474">
        <ele>822</ele>
        <time>2022-06-26T08:49:51Z</time>
      </trkpt>
      <trkpt lat="48.03911" lon="6.84738">
        <ele>822.2</ele>
        <time>2022-06-26T08:49:52Z</time>
      </trkpt>
      <trkpt lat="48.0391" lon="6.84737">
        <ele>822.2</ele>
        <time>2022-06-26T08:49:53Z</time>
      </trkpt>
      <trkpt lat="48.03909" lon="6.84736">
        <ele>822.4</ele>
        <time>2022-06-26T08:49:54Z</time>
      </trkpt>
      <trkpt lat="48.03904" lon="6.8473">
        <ele>823</ele>
        <time>2022-06-26T08:49:58Z</time>
      </trkpt>
      <trkpt lat="48.03903" lon="6.84728">
        <ele>823.2</ele>
        <time>2022-06-26T08:49:59Z</time>
      </trkpt>
      <trkpt lat="48.03902" lon="6.84727">
        <ele>823.2</ele>
        <time>2022-06-26T08:50:00Z</time>
      </trkpt>
      <trkpt lat="48.03901" lon="6.84726">
        <ele>823.4</ele>
        <time>2022-06-26T08:50:01Z</time>
      </trkpt>
      <trkpt lat="48.039" lon="6.84725">
        <ele>823.4</ele>
        <time>2022-06-26T08:50:02Z</time>
      </trkpt>
      <trkpt lat="48.03898" lon="6.84724">
        <ele>823.4</ele>
        <time>2022-06-26T08:50:03Z</time>
      </trkpt>
      <trkpt lat="48.03897" lon="6.84723">
        <ele>823.6</ele>
        <time>2022-06-26T08:50:04Z</time>
      </trkpt>
      <trkpt lat="48.03896" lon="6.84722">
        <ele>823.6</ele>
        <time>2022-06-26T08:50:05Z</time>
      </trkpt>
      <trkpt lat="48.03895" lon="6.84721">
        <ele>824</ele>
        <time>2022-06-26T08:50:06Z</time>
      </trkpt>
      <trkpt lat="48.03894" lon="6.84719">
        <ele>824.2</ele>
        <time>2022-06-26T08:50:07Z</time>
      </trkpt>
      <trkpt lat="48.03893" lon="6.84718">
        <ele>824.4</ele>
        <time>2022-06-26T08:50:08Z</time>
      </trkpt>
      <trkpt lat="48.03892" lon="6.84716">
        <ele>824.6</ele>
        <time>2022-06-26T08:50:09Z</time>
      </trkpt>
      <trkpt lat="48.03891" lon="6.84715">
        <ele>825</ele>
        <time>2022-06-26T08:50:10Z</time>
      </trkpt>
      <trkpt lat="48.03889" lon="6.84713">
        <ele>825.2</ele>
        <time>2022-06-26T08:50:11Z</time>
      </trkpt>
      <trkpt lat="48.03887" lon="6.84712">
        <ele>825.4</ele>
        <time>2022-06-26T08:50:12Z</time>
      </trkpt>
      <trkpt lat="48.03886" lon="6.8471">
        <ele>825.4</ele>
        <time>2022-06-26T08:50:13Z</time>
      </trkpt>
      <trkpt lat="48.03885" lon="6.84708">
        <ele>825.6</ele>
        <time>2022-06-26T08:50:14Z</time>
      </trkpt>
      <trkpt lat="48.03883" lon="6.84706">
        <ele>825.8</ele>
        <time>2022-06-26T08:50:15Z</time>
      </trkpt>
      <trkpt lat="48.03882" lon="6.84704">
        <ele>825.8</ele>
        <time>2022-06-26T08:50:16Z</time>
      </trkpt>
      <trkpt lat="48.03881" lon="6.84702">
        <ele>826</ele>
        <time>2022-06-26T08:50:17Z</time>
      </trkpt>
      <trkpt lat="48.0388" lon="6.847">
        <ele>826.2</ele>
        <time>2022-06-26T08:50:18Z</time>
      </trkpt>
      <trkpt lat="48.0388" lon="6.84699">
        <ele>826.4</ele>
        <time>2022-06-26T08:50:19Z</time>
      </trkpt>
      <trkpt lat="48.03879" lon="6.84697">
        <ele>826.6</ele>
        <time>2022-06-26T08:50:20Z</time>
      </trkpt>
      <trkpt lat="48.03877" lon="6.84695">
        <ele>826.8</ele>
        <time>2022-06-26T08:50:21Z</time>
      </trkpt>
      <trkpt lat="48.03876" lon="6.84693">
        <ele>826.8</ele>
        <time>2022-06-26T08:50:22Z</time>
      </trkpt>
      <trkpt lat="48.03876" lon="6.8469">
        <ele>827</ele>
        <time>2022-06-26T08:50:23Z</time>
      </trkpt>
      <trkpt lat="48.03876" lon="6.84688">
        <ele>827.2</ele>
        <time>2022-06-26T08:50:24Z</time>
      </trkpt>
      <trkpt lat="48.03876" lon="6.84686">
        <ele>827.4</ele>
        <time>2022-06-26T08:50:25Z</time>
      </trkpt>
      <trkpt lat="48.03874" lon="6.84683">
        <ele>827.8</ele>
        <time>2022-06-26T08:50:26Z</time>
      </trkpt>
      <trkpt lat="48.03873" lon="6.84681">
        <ele>827.8</ele>
        <time>2022-06-26T08:50:27Z</time>
      </trkpt>
      <trkpt lat="48.03874" lon="6.84679">
        <ele>828.2</ele>
        <time>2022-06-26T08:50:28Z</time>
      </trkpt>
      <trkpt lat="48.03872" lon="6.84676">
        <ele>828.2</ele>
        <time>2022-06-26T08:50:29Z</time>
      </trkpt>
      <trkpt lat="48.03872" lon="6.84673">
        <ele>828.4</ele>
        <time>2022-06-26T08:50:30Z</time>
      </trkpt>
      <trkpt lat="48.03872" lon="6.8467">
        <ele>828.4</ele>
        <time>2022-06-26T08:50:31Z</time>
      </trkpt>
      <trkpt lat="48.0387" lon="6.84667">
        <ele>828.4</ele>
        <time>2022-06-26T08:50:32Z</time>
      </trkpt>
      <trkpt lat="48.0387" lon="6.84665">
        <ele>828.6</ele>
        <time>2022-06-26T08:50:33Z</time>
      </trkpt>
      <trkpt lat="48.03869" lon="6.84663">
        <ele>828.6</ele>
        <time>2022-06-26T08:50:34Z</time>
      </trkpt>
      <trkpt lat="48.03869" lon="6.84661">
        <ele>828.8</ele>
        <time>2022-06-26T08:50:35Z</time>
      </trkpt>
      <trkpt lat="48.03868" lon="6.84659">
        <ele>828.8</ele>
        <time>2022-06-26T08:50:36Z</time>
      </trkpt>
      <trkpt lat="48.03868" lon="6.84657">
        <ele>828.8</ele>
        <time>2022-06-26T08:50:37Z</time>
      </trkpt>
      <trkpt lat="48.03868" lon="6.84654">
        <ele>828.8</ele>
        <time>2022-06-26T08:50:38Z</time>
      </trkpt>
      <trkpt lat="48.03867" lon="6.8465">
        <ele>828.8</ele>
        <time>2022-06-26T08:50:39Z</time>
      </trkpt>
      <trkpt lat="48.03866" lon="6.84647">
        <ele>829</ele>
        <time>2022-06-26T08:50:40Z</time>
      </trkpt>
      <trkpt lat="48.03866" lon="6.84643">
        <ele>829</ele>
        <time>2022-06-26T08:50:41Z</time>
      </trkpt>
      <trkpt lat="48.03866" lon="6.84639">
        <ele>829</ele>
        <time>2022-06-26T08:50:42Z</time>
      </trkpt>
      <trkpt lat="48.03866" lon="6.84636">
        <ele>828.8</ele>
        <time>2022-06-26T08:50:43Z</time>
      </trkpt>
      <trkpt lat="48.03864" lon="6.84631">
        <ele>828.8</ele>
        <time>2022-06-26T08:50:44Z</time>
      </trkpt>
      <trkpt lat="48.03864" lon="6.84626">
        <ele>828.8</ele>
        <time>2022-06-26T08:50:45Z</time>
      </trkpt>
      <trkpt lat="48.03863" lon="6.84622">
        <ele>828.8</ele>
        <time>2022-06-26T08:50:46Z</time>
      </trkpt>
      <trkpt lat="48.03864" lon="6.84618">
        <ele>828.6</ele>
        <time>2022-06-26T08:50:47Z</time>
      </trkpt>
      <trkpt lat="48.0386" lon="6.84603">
        <ele>828.6</ele>
        <time>2022-06-26T08:50:50Z</time>
      </trkpt>
      <trkpt lat="48.03861" lon="6.84602">
        <ele>828.6</ele>
        <time>2022-06-26T08:50:51Z</time>
      </trkpt>
      <trkpt lat="48.03859" lon="6.84597">
        <ele>828.6</ele>
        <time>2022-06-26T08:50:52Z</time>
      </trkpt>
      <trkpt lat="48.03857" lon="6.84595">
        <ele>828.6</ele>
        <time>2022-06-26T08:50:53Z</time>
      </trkpt>
      <trkpt lat="48.03857" lon="6.84592">
        <ele>828.6</ele>
        <time>2022-06-26T08:50:54Z</time>
      </trkpt>
      <trkpt lat="48.03856" lon="6.84588">
        <ele>828.6</ele>
        <time>2022-06-26T08:50:55Z</time>
      </trkpt>
      <trkpt lat="48.03856" lon="6.84585">
        <ele>828.6</ele>
        <time>2022-06-26T08:50:56Z</time>
      </trkpt>
      <trkpt lat="48.03855" lon="6.84582">
        <ele>828.6</ele>
        <time>2022-06-26T08:50:57Z</time>
      </trkpt>
      <trkpt lat="48.03856" lon="6.84579">
        <ele>828.6</ele>
        <time>2022-06-26T08:50:58Z</time>
      </trkpt>
      <trkpt lat="48.03856" lon="6.84575">
        <ele>828.6</ele>
        <time>2022-06-26T08:50:59Z</time>
      </trkpt>
      <trkpt lat="48.03856" lon="6.8457">
        <ele>828.6</ele>
        <time>2022-06-26T08:51:00Z</time>
      </trkpt>
      <trkpt lat="48.03855" lon="6.84567">
        <ele>828.6</ele>
        <time>2022-06-26T08:51:01Z</time>
      </trkpt>
      <trkpt lat="48.03854" lon="6.84564">
        <ele>828.6</ele>
        <time>2022-06-26T08:51:02Z</time>
      </trkpt>
      <trkpt lat="48.03854" lon="6.84562">
        <ele>828.6</ele>
        <time>2022-06-26T08:51:03Z</time>
      </trkpt>
      <trkpt lat="48.03853" lon="6.84559">
        <ele>828.6</ele>
        <time>2022-06-26T08:51:04Z</time>
      </trkpt>
      <trkpt lat="48.03852" lon="6.84557">
        <ele>828.8</ele>
        <time>2022-06-26T08:51:05Z</time>
      </trkpt>
      <trkpt lat="48.03851" lon="6.84554">
        <ele>829</ele>
        <time>2022-06-26T08:51:06Z</time>
      </trkpt>
      <trkpt lat="48.03851" lon="6.84551">
        <ele>829</ele>
        <time>2022-06-26T08:51:07Z</time>
      </trkpt>
      <trkpt lat="48.03851" lon="6.84548">
        <ele>829.2</ele>
        <time>2022-06-26T08:51:08Z</time>
      </trkpt>
      <trkpt lat="48.0385" lon="6.84545">
        <ele>829.2</ele>
        <time>2022-06-26T08:51:09Z</time>
      </trkpt>
      <trkpt lat="48.0385" lon="6.84544">
        <ele>829.2</ele>
        <time>2022-06-26T08:51:10Z</time>
      </trkpt>
      <trkpt lat="48.0385" lon="6.84542">
        <ele>829.2</ele>
        <time>2022-06-26T08:51:11Z</time>
      </trkpt>
      <trkpt lat="48.03848" lon="6.84529">
        <ele>829.2</ele>
        <time>2022-06-26T08:51:14Z</time>
      </trkpt>
      <trkpt lat="48.03849" lon="6.84518">
        <ele>829.2</ele>
        <time>2022-06-26T08:51:16Z</time>
      </trkpt>
      <trkpt lat="48.03849" lon="6.84513">
        <ele>829.2</ele>
        <time>2022-06-26T08:51:17Z</time>
      </trkpt>
      <trkpt lat="48.0385" lon="6.84509">
        <ele>829</ele>
        <time>2022-06-26T08:51:18Z</time>
      </trkpt>
      <trkpt lat="48.03849" lon="6.84505">
        <ele>829</ele>
        <time>2022-06-26T08:51:19Z</time>
      </trkpt>
      <trkpt lat="48.03849" lon="6.84501">
        <ele>828.8</ele>
        <time>2022-06-26T08:51:20Z</time>
      </trkpt>
      <trkpt lat="48.03845" lon="6.84484">
        <ele>828.6</ele>
        <time>2022-06-26T08:51:24Z</time>
      </trkpt>
      <trkpt lat="48.03844" lon="6.84479">
        <ele>828.6</ele>
        <time>2022-06-26T08:51:25Z</time>
      </trkpt>
      <trkpt lat="48.03843" lon="6.84475">
        <ele>828.6</ele>
        <time>2022-06-26T08:51:26Z</time>
      </trkpt>
      <trkpt lat="48.03843" lon="6.8447">
        <ele>828.4</ele>
        <time>2022-06-26T08:51:27Z</time>
      </trkpt>
      <trkpt lat="48.03843" lon="6.84465">
        <ele>828.6</ele>
        <time>2022-06-26T08:51:28Z</time>
      </trkpt>
      <trkpt lat="48.03844" lon="6.84461">
        <ele>828.6</ele>
        <time>2022-06-26T08:51:29Z</time>
      </trkpt>
      <trkpt lat="48.03846" lon="6.84457">
        <ele>828.6</ele>
        <time>2022-06-26T08:51:30Z</time>
      </trkpt>
      <trkpt lat="48.03847" lon="6.84453">
        <ele>828.6</ele>
        <time>2022-06-26T08:51:31Z</time>
      </trkpt>
      <trkpt lat="48.03847" lon="6.8445">
        <ele>828.6</ele>
        <time>2022-06-26T08:51:32Z</time>
      </trkpt>
      <trkpt lat="48.03847" lon="6.84448">
        <ele>828.6</ele>
        <time>2022-06-26T08:51:33Z</time>
      </trkpt>
      <trkpt lat="48.03847" lon="6.84445">
        <ele>828.6</ele>
        <time>2022-06-26T08:51:34Z</time>
      </trkpt>
      <trkpt lat="48.03847" lon="6.84432">
        <ele>828.6</ele>
        <time>2022-06-26T08:51:37Z</time>
      </trkpt>
      <trkpt lat="48.03846" lon="6.84428">
        <ele>828.6</ele>
        <time>2022-06-26T08:51:38Z</time>
      </trkpt>
      <trkpt lat="48.03844" lon="6.84424">
        <ele>828.6</ele>
        <time>2022-06-26T08:51:39Z</time>
      </trkpt>
      <trkpt lat="48.03843" lon="6.84419">
        <ele>828.6</ele>
        <time>2022-06-26T08:51:40Z</time>
      </trkpt>
      <trkpt lat="48.03843" lon="6.84417">
        <ele>828.6</ele>
        <time>2022-06-26T08:51:41Z</time>
      </trkpt>
      <trkpt lat="48.03844" lon="6.84414">
        <ele>828.6</ele>
        <time>2022-06-26T08:51:42Z</time>
      </trkpt>
      <trkpt lat="48.03844" lon="6.84411">
        <ele>828.6</ele>
        <time>2022-06-26T08:51:43Z</time>
      </trkpt>
      <trkpt lat="48.03845" lon="6.8441">
        <ele>828.6</ele>
        <time>2022-06-26T08:51:44Z</time>
      </trkpt>
      <trkpt lat="48.03846" lon="6.84408">
        <ele>828.8</ele>
        <time>2022-06-26T08:51:45Z</time>
      </trkpt>
      <trkpt lat="48.03846" lon="6.84406">
        <ele>828.8</ele>
        <time>2022-06-26T08:51:46Z</time>
      </trkpt>
      <trkpt lat="48.03848" lon="6.84403">
        <ele>828.8</ele>
        <time>2022-06-26T08:51:47Z</time>
      </trkpt>
      <trkpt lat="48.0385" lon="6.844">
        <ele>828.8</ele>
        <time>2022-06-26T08:51:48Z</time>
      </trkpt>
      <trkpt lat="48.03851" lon="6.84396">
        <ele>828.8</ele>
        <time>2022-06-26T08:51:49Z</time>
      </trkpt>
      <trkpt lat="48.0385" lon="6.8439">
        <ele>828.8</ele>
        <time>2022-06-26T08:51:50Z</time>
      </trkpt>
      <trkpt lat="48.03849" lon="6.84385">
        <ele>829</ele>
        <time>2022-06-26T08:51:51Z</time>
      </trkpt>
      <trkpt lat="48.0385" lon="6.84382">
        <ele>829</ele>
        <time>2022-06-26T08:51:52Z</time>
      </trkpt>
      <trkpt lat="48.0385" lon="6.84378">
        <ele>829.2</ele>
        <time>2022-06-26T08:51:53Z</time>
      </trkpt>
      <trkpt lat="48.03849" lon="6.84377">
        <ele>829.2</ele>
        <time>2022-06-26T08:51:54Z</time>
      </trkpt>
      <trkpt lat="48.03849" lon="6.84376">
        <ele>829.2</ele>
        <time>2022-06-26T08:51:55Z</time>
      </trkpt>
      <trkpt lat="48.03849" lon="6.84376">
        <ele>829.4</ele>
        <time>2022-06-26T08:51:56Z</time>
      </trkpt>
      <trkpt lat="48.03849" lon="6.84376">
        <ele>829.4</ele>
        <time>2022-06-26T08:51:59Z</time>
      </trkpt>
      <trkpt lat="48.03849" lon="6.84371">
        <ele>830</ele>
        <time>2022-06-26T08:52:04Z</time>
      </trkpt>
      <trkpt lat="48.03849" lon="6.84371">
        <ele>830.4</ele>
        <time>2022-06-26T08:52:05Z</time>
      </trkpt>
      <trkpt lat="48.03849" lon="6.84368">
        <ele>830.4</ele>
        <time>2022-06-26T08:52:06Z</time>
      </trkpt>
      <trkpt lat="48.03849" lon="6.84368">
        <ele>830.6</ele>
        <time>2022-06-26T08:52:07Z</time>
      </trkpt>
      <trkpt lat="48.03849" lon="6.84368">
        <ele>830.8</ele>
        <time>2022-06-26T08:52:08Z</time>
      </trkpt>
      <trkpt lat="48.03849" lon="6.84368">
        <ele>831.2</ele>
        <time>2022-06-26T08:52:09Z</time>
      </trkpt>
      <trkpt lat="48.03849" lon="6.84366">
        <ele>831.6</ele>
        <time>2022-06-26T08:52:15Z</time>
      </trkpt>
      <trkpt lat="48.03849" lon="6.84364">
        <ele>831.8</ele>
        <time>2022-06-26T08:52:16Z</time>
      </trkpt>
      <trkpt lat="48.0385" lon="6.84361">
        <ele>831.8</ele>
        <time>2022-06-26T08:52:17Z</time>
      </trkpt>
      <trkpt lat="48.0385" lon="6.84357">
        <ele>831.8</ele>
        <time>2022-06-26T08:52:18Z</time>
      </trkpt>
      <trkpt lat="48.0385" lon="6.84354">
        <ele>831.8</ele>
        <time>2022-06-26T08:52:19Z</time>
      </trkpt>
      <trkpt lat="48.03849" lon="6.8435">
        <ele>831.8</ele>
        <time>2022-06-26T08:52:20Z</time>
      </trkpt>
      <trkpt lat="48.03848" lon="6.84346">
        <ele>831.8</ele>
        <time>2022-06-26T08:52:21Z</time>
      </trkpt>
      <trkpt lat="48.03848" lon="6.84344">
        <ele>831.8</ele>
        <time>2022-06-26T08:52:22Z</time>
      </trkpt>
      <trkpt lat="48.03848" lon="6.84342">
        <ele>832</ele>
        <time>2022-06-26T08:52:23Z</time>
      </trkpt>
      <trkpt lat="48.03848" lon="6.84342">
        <ele>832</ele>
        <time>2022-06-26T08:52:24Z</time>
      </trkpt>
      <trkpt lat="48.03848" lon="6.8434">
        <ele>832.2</ele>
        <time>2022-06-26T08:52:25Z</time>
      </trkpt>
      <trkpt lat="48.03848" lon="6.84337">
        <ele>832.4</ele>
        <time>2022-06-26T08:52:27Z</time>
      </trkpt>
      <trkpt lat="48.03849" lon="6.84336">
        <ele>832.6</ele>
        <time>2022-06-26T08:52:28Z</time>
      </trkpt>
      <trkpt lat="48.03849" lon="6.84334">
        <ele>832.6</ele>
        <time>2022-06-26T08:52:29Z</time>
      </trkpt>
      <trkpt lat="48.03846" lon="6.8432">
        <ele>833</ele>
        <time>2022-06-26T08:52:32Z</time>
      </trkpt>
      <trkpt lat="48.03844" lon="6.84314">
        <ele>833</ele>
        <time>2022-06-26T08:52:33Z</time>
      </trkpt>
      <trkpt lat="48.03843" lon="6.8431">
        <ele>833</ele>
        <time>2022-06-26T08:52:34Z</time>
      </trkpt>
      <trkpt lat="48.03843" lon="6.84306">
        <ele>833</ele>
        <time>2022-06-26T08:52:35Z</time>
      </trkpt>
      <trkpt lat="48.0384" lon="6.84303">
        <ele>833</ele>
        <time>2022-06-26T08:52:36Z</time>
      </trkpt>
      <trkpt lat="48.03838" lon="6.843">
        <ele>833</ele>
        <time>2022-06-26T08:52:37Z</time>
      </trkpt>
      <trkpt lat="48.03834" lon="6.84288">
        <ele>832.8</ele>
        <time>2022-06-26T08:52:40Z</time>
      </trkpt>
      <trkpt lat="48.03833" lon="6.84285">
        <ele>832.8</ele>
        <time>2022-06-26T08:52:41Z</time>
      </trkpt>
      <trkpt lat="48.03833" lon="6.84282">
        <ele>832.8</ele>
        <time>2022-06-26T08:52:42Z</time>
      </trkpt>
      <trkpt lat="48.03832" lon="6.84279">
        <ele>832.8</ele>
        <time>2022-06-26T08:52:43Z</time>
      </trkpt>
      <trkpt lat="48.03832" lon="6.84277">
        <ele>832.8</ele>
        <time>2022-06-26T08:52:44Z</time>
      </trkpt>
      <trkpt lat="48.03827" lon="6.84266">
        <ele>832.8</ele>
        <time>2022-06-26T08:52:47Z</time>
      </trkpt>
      <trkpt lat="48.03826" lon="6.84262">
        <ele>832.8</ele>
        <time>2022-06-26T08:52:48Z</time>
      </trkpt>
      <trkpt lat="48.03824" lon="6.84259">
        <ele>832.8</ele>
        <time>2022-06-26T08:52:49Z</time>
      </trkpt>
      <trkpt lat="48.03821" lon="6.84256">
        <ele>832.8</ele>
        <time>2022-06-26T08:52:50Z</time>
      </trkpt>
      <trkpt lat="48.03818" lon="6.84251">
        <ele>832.8</ele>
        <time>2022-06-26T08:52:51Z</time>
      </trkpt>
      <trkpt lat="48.03815" lon="6.84243">
        <ele>832.8</ele>
        <time>2022-06-26T08:52:53Z</time>
      </trkpt>
      <trkpt lat="48.03814" lon="6.8424">
        <ele>832.8</ele>
        <time>2022-06-26T08:52:54Z</time>
      </trkpt>
      <trkpt lat="48.03814" lon="6.84238">
        <ele>832.8</ele>
        <time>2022-06-26T08:52:55Z</time>
      </trkpt>
      <trkpt lat="48.03811" lon="6.84234">
        <ele>832.8</ele>
        <time>2022-06-26T08:52:57Z</time>
      </trkpt>
      <trkpt lat="48.03807" lon="6.8423">
        <ele>832.8</ele>
        <time>2022-06-26T08:52:58Z</time>
      </trkpt>
      <trkpt lat="48.03806" lon="6.84227">
        <ele>832.8</ele>
        <time>2022-06-26T08:52:59Z</time>
      </trkpt>
      <trkpt lat="48.03801" lon="6.84223">
        <ele>832.8</ele>
        <time>2022-06-26T08:53:00Z</time>
      </trkpt>
      <trkpt lat="48.03796" lon="6.84218">
        <ele>832.8</ele>
        <time>2022-06-26T08:53:01Z</time>
      </trkpt>
      <trkpt lat="48.03791" lon="6.8421">
        <ele>833</ele>
        <time>2022-06-26T08:53:04Z</time>
      </trkpt>
      <trkpt lat="48.0379" lon="6.84207">
        <ele>833</ele>
        <time>2022-06-26T08:53:05Z</time>
      </trkpt>
      <trkpt lat="48.03789" lon="6.84207">
        <ele>833</ele>
        <time>2022-06-26T08:53:06Z</time>
      </trkpt>
      <trkpt lat="48.03786" lon="6.84196">
        <ele>833</ele>
        <time>2022-06-26T08:53:10Z</time>
      </trkpt>
      <trkpt lat="48.03784" lon="6.84189">
        <ele>833</ele>
        <time>2022-06-26T08:53:12Z</time>
      </trkpt>
      <trkpt lat="48.03783" lon="6.84186">
        <ele>833</ele>
        <time>2022-06-26T08:53:13Z</time>
      </trkpt>
      <trkpt lat="48.03783" lon="6.84184">
        <ele>833</ele>
        <time>2022-06-26T08:53:14Z</time>
      </trkpt>
      <trkpt lat="48.03781" lon="6.84181">
        <ele>833.2</ele>
        <time>2022-06-26T08:53:15Z</time>
      </trkpt>
      <trkpt lat="48.03779" lon="6.84179">
        <ele>833</ele>
        <time>2022-06-26T08:53:16Z</time>
      </trkpt>
      <trkpt lat="48.03778" lon="6.84175">
        <ele>833.2</ele>
        <time>2022-06-26T08:53:17Z</time>
      </trkpt>
      <trkpt lat="48.03773" lon="6.84156">
        <ele>833.4</ele>
        <time>2022-06-26T08:53:21Z</time>
      </trkpt>
      <trkpt lat="48.03772" lon="6.84155">
        <ele>833.6</ele>
        <time>2022-06-26T08:53:22Z</time>
      </trkpt>
      <trkpt lat="48.03773" lon="6.84153">
        <ele>833.6</ele>
        <time>2022-06-26T08:53:23Z</time>
      </trkpt>
      <trkpt lat="48.03773" lon="6.84151">
        <ele>833.6</ele>
        <time>2022-06-26T08:53:24Z</time>
      </trkpt>
      <trkpt lat="48.03773" lon="6.8415">
        <ele>833.8</ele>
        <time>2022-06-26T08:53:25Z</time>
      </trkpt>
      <trkpt lat="48.03773" lon="6.84149">
        <ele>834</ele>
        <time>2022-06-26T08:53:26Z</time>
      </trkpt>
      <trkpt lat="48.03773" lon="6.84146">
        <ele>834.2</ele>
        <time>2022-06-26T08:53:27Z</time>
      </trkpt>
      <trkpt lat="48.03773" lon="6.8414">
        <ele>834.8</ele>
        <time>2022-06-26T08:53:28Z</time>
      </trkpt>
      <trkpt lat="48.03773" lon="6.84136">
        <ele>834.8</ele>
        <time>2022-06-26T08:53:29Z</time>
      </trkpt>
      <trkpt lat="48.03773" lon="6.84132">
        <ele>835</ele>
        <time>2022-06-26T08:53:30Z</time>
      </trkpt>
      <trkpt lat="48.03773" lon="6.84127">
        <ele>835.2</ele>
        <time>2022-06-26T08:53:31Z</time>
      </trkpt>
      <trkpt lat="48.03774" lon="6.84122">
        <ele>835.2</ele>
        <time>2022-06-26T08:53:32Z</time>
      </trkpt>
      <trkpt lat="48.03774" lon="6.84118">
        <ele>835.4</ele>
        <time>2022-06-26T08:53:33Z</time>
      </trkpt>
      <trkpt lat="48.03773" lon="6.84112">
        <ele>835.4</ele>
        <time>2022-06-26T08:53:34Z</time>
      </trkpt>
      <trkpt lat="48.03771" lon="6.84108">
        <ele>835.6</ele>
        <time>2022-06-26T08:53:35Z</time>
      </trkpt>
      <trkpt lat="48.03769" lon="6.84104">
        <ele>835.6</ele>
        <time>2022-06-26T08:53:36Z</time>
      </trkpt>
      <trkpt lat="48.03768" lon="6.841">
        <ele>835.8</ele>
        <time>2022-06-26T08:53:37Z</time>
      </trkpt>
      <trkpt lat="48.03767" lon="6.84096">
        <ele>835.8</ele>
        <time>2022-06-26T08:53:38Z</time>
      </trkpt>
      <trkpt lat="48.03765" lon="6.84092">
        <ele>835.8</ele>
        <time>2022-06-26T08:53:39Z</time>
      </trkpt>
      <trkpt lat="48.03764" lon="6.84086">
        <ele>836</ele>
        <time>2022-06-26T08:53:40Z</time>
      </trkpt>
      <trkpt lat="48.03764" lon="6.84081">
        <ele>836</ele>
        <time>2022-06-26T08:53:41Z</time>
      </trkpt>
      <trkpt lat="48.03764" lon="6.84076">
        <ele>836.2</ele>
        <time>2022-06-26T08:53:42Z</time>
      </trkpt>
      <trkpt lat="48.03763" lon="6.84072">
        <ele>836.4</ele>
        <time>2022-06-26T08:53:43Z</time>
      </trkpt>
      <trkpt lat="48.03761" lon="6.84066">
        <ele>836.4</ele>
        <time>2022-06-26T08:53:44Z</time>
      </trkpt>
      <trkpt lat="48.03759" lon="6.84062">
        <ele>836.4</ele>
        <time>2022-06-26T08:53:45Z</time>
      </trkpt>
      <trkpt lat="48.03757" lon="6.84058">
        <ele>836.4</ele>
        <time>2022-06-26T08:53:46Z</time>
      </trkpt>
      <trkpt lat="48.03757" lon="6.84052">
        <ele>836.4</ele>
        <time>2022-06-26T08:53:47Z</time>
      </trkpt>
      <trkpt lat="48.03758" lon="6.84042">
        <ele>836.4</ele>
        <time>2022-06-26T08:53:48Z</time>
      </trkpt>
      <trkpt lat="48.03759" lon="6.84038">
        <ele>836.2</ele>
        <time>2022-06-26T08:53:49Z</time>
      </trkpt>
      <trkpt lat="48.03761" lon="6.84033">
        <ele>836</ele>
        <time>2022-06-26T08:53:50Z</time>
      </trkpt>
      <trkpt lat="48.03763" lon="6.84027">
        <ele>835.6</ele>
        <time>2022-06-26T08:53:51Z</time>
      </trkpt>
      <trkpt lat="48.03765" lon="6.8402">
        <ele>835.4</ele>
        <time>2022-06-26T08:53:52Z</time>
      </trkpt>
      <trkpt lat="48.03766" lon="6.84016">
        <ele>835</ele>
        <time>2022-06-26T08:53:53Z</time>
      </trkpt>
      <trkpt lat="48.03765" lon="6.84002">
        <ele>834.6</ele>
        <time>2022-06-26T08:53:55Z</time>
      </trkpt>
      <trkpt lat="48.03767" lon="6.83997">
        <ele>834.4</ele>
        <time>2022-06-26T08:53:56Z</time>
      </trkpt>
      <trkpt lat="48.03767" lon="6.83993">
        <ele>834.2</ele>
        <time>2022-06-26T08:53:57Z</time>
      </trkpt>
      <trkpt lat="48.03766" lon="6.83988">
        <ele>834</ele>
        <time>2022-06-26T08:53:58Z</time>
      </trkpt>
      <trkpt lat="48.03763" lon="6.83971">
        <ele>834</ele>
        <time>2022-06-26T08:54:00Z</time>
      </trkpt>
      <trkpt lat="48.03765" lon="6.83961">
        <ele>833.8</ele>
        <time>2022-06-26T08:54:01Z</time>
      </trkpt>
      <trkpt lat="48.03766" lon="6.83951">
        <ele>833.4</ele>
        <time>2022-06-26T08:54:02Z</time>
      </trkpt>
      <trkpt lat="48.03767" lon="6.83943">
        <ele>833.2</ele>
        <time>2022-06-26T08:54:03Z</time>
      </trkpt>
      <trkpt lat="48.03766" lon="6.83933">
        <ele>832.2</ele>
        <time>2022-06-26T08:54:04Z</time>
      </trkpt>
      <trkpt lat="48.03766" lon="6.8392">
        <ele>831.8</ele>
        <time>2022-06-26T08:54:05Z</time>
      </trkpt>
      <trkpt lat="48.03766" lon="6.83918">
        <ele>831.6</ele>
        <time>2022-06-26T08:54:06Z</time>
      </trkpt>
      <trkpt lat="48.03766" lon="6.83917">
        <ele>831.4</ele>
        <time>2022-06-26T08:54:07Z</time>
      </trkpt>
      <trkpt lat="48.03765" lon="6.83914">
        <ele>831.4</ele>
        <time>2022-06-26T08:54:08Z</time>
      </trkpt>
      <trkpt lat="48.03764" lon="6.8391">
        <ele>831.4</ele>
        <time>2022-06-26T08:54:09Z</time>
      </trkpt>
      <trkpt lat="48.03763" lon="6.83907">
        <ele>831.4</ele>
        <time>2022-06-26T08:54:10Z</time>
      </trkpt>
      <trkpt lat="48.03763" lon="6.83901">
        <ele>831.6</ele>
        <time>2022-06-26T08:54:11Z</time>
      </trkpt>
      <trkpt lat="48.03761" lon="6.83877">
        <ele>832</ele>
        <time>2022-06-26T08:54:15Z</time>
      </trkpt>
      <trkpt lat="48.03757" lon="6.83848">
        <ele>832</ele>
        <time>2022-06-26T08:54:18Z</time>
      </trkpt>
      <trkpt lat="48.03756" lon="6.83831">
        <ele>832</ele>
        <time>2022-06-26T08:54:20Z</time>
      </trkpt>
      <trkpt lat="48.03754" lon="6.83809">
        <ele>830.2</ele>
        <time>2022-06-26T08:54:22Z</time>
      </trkpt>
      <trkpt lat="48.03751" lon="6.83791">
        <ele>828.4</ele>
        <time>2022-06-26T08:54:24Z</time>
      </trkpt>
      <trkpt lat="48.03751" lon="6.83782">
        <ele>828</ele>
        <time>2022-06-26T08:54:25Z</time>
      </trkpt>
      <trkpt lat="48.0375" lon="6.83774">
        <ele>827.8</ele>
        <time>2022-06-26T08:54:26Z</time>
      </trkpt>
      <trkpt lat="48.03748" lon="6.83768">
        <ele>827.8</ele>
        <time>2022-06-26T08:54:27Z</time>
      </trkpt>
      <trkpt lat="48.03747" lon="6.83764">
        <ele>827.8</ele>
        <time>2022-06-26T08:54:28Z</time>
      </trkpt>
      <trkpt lat="48.03746" lon="6.83758">
        <ele>827.8</ele>
        <time>2022-06-26T08:54:29Z</time>
      </trkpt>
      <trkpt lat="48.03746" lon="6.83755">
        <ele>827.8</ele>
        <time>2022-06-26T08:54:30Z</time>
      </trkpt>
      <trkpt lat="48.03746" lon="6.83752">
        <ele>828</ele>
        <time>2022-06-26T08:54:31Z</time>
      </trkpt>
      <trkpt lat="48.03748" lon="6.83749">
        <ele>828.2</ele>
        <time>2022-06-26T08:54:32Z</time>
      </trkpt>
      <trkpt lat="48.03748" lon="6.83744">
        <ele>828.4</ele>
        <time>2022-06-26T08:54:33Z</time>
      </trkpt>
      <trkpt lat="48.03748" lon="6.83736">
        <ele>828.8</ele>
        <time>2022-06-26T08:54:34Z</time>
      </trkpt>
      <trkpt lat="48.03749" lon="6.83731">
        <ele>829</ele>
        <time>2022-06-26T08:54:35Z</time>
      </trkpt>
      <trkpt lat="48.03749" lon="6.83727">
        <ele>829.4</ele>
        <time>2022-06-26T08:54:36Z</time>
      </trkpt>
      <trkpt lat="48.03748" lon="6.83722">
        <ele>829.6</ele>
        <time>2022-06-26T08:54:37Z</time>
      </trkpt>
      <trkpt lat="48.03748" lon="6.83716">
        <ele>830.4</ele>
        <time>2022-06-26T08:54:38Z</time>
      </trkpt>
      <trkpt lat="48.03751" lon="6.83711">
        <ele>830.6</ele>
        <time>2022-06-26T08:54:39Z</time>
      </trkpt>
      <trkpt lat="48.03752" lon="6.83707">
        <ele>831</ele>
        <time>2022-06-26T08:54:40Z</time>
      </trkpt>
      <trkpt lat="48.03752" lon="6.83704">
        <ele>831.2</ele>
        <time>2022-06-26T08:54:41Z</time>
      </trkpt>
      <trkpt lat="48.03751" lon="6.837">
        <ele>831.2</ele>
        <time>2022-06-26T08:54:42Z</time>
      </trkpt>
      <trkpt lat="48.03751" lon="6.83696">
        <ele>831.4</ele>
        <time>2022-06-26T08:54:43Z</time>
      </trkpt>
      <trkpt lat="48.0375" lon="6.83693">
        <ele>831.4</ele>
        <time>2022-06-26T08:54:44Z</time>
      </trkpt>
      <trkpt lat="48.03748" lon="6.83686">
        <ele>831.4</ele>
        <time>2022-06-26T08:54:45Z</time>
      </trkpt>
      <trkpt lat="48.03748" lon="6.83676">
        <ele>831.2</ele>
        <time>2022-06-26T08:54:48Z</time>
      </trkpt>
      <trkpt lat="48.03748" lon="6.83673">
        <ele>831</ele>
        <time>2022-06-26T08:54:49Z</time>
      </trkpt>
      <trkpt lat="48.03749" lon="6.8367">
        <ele>830.8</ele>
        <time>2022-06-26T08:54:50Z</time>
      </trkpt>
      <trkpt lat="48.03751" lon="6.83668">
        <ele>830.6</ele>
        <time>2022-06-26T08:54:51Z</time>
      </trkpt>
      <trkpt lat="48.03756" lon="6.83655">
        <ele>830</ele>
        <time>2022-06-26T08:54:53Z</time>
      </trkpt>
      <trkpt lat="48.0376" lon="6.83646">
        <ele>829.6</ele>
        <time>2022-06-26T08:54:55Z</time>
      </trkpt>
      <trkpt lat="48.0376" lon="6.8364">
        <ele>829.4</ele>
        <time>2022-06-26T08:54:56Z</time>
      </trkpt>
      <trkpt lat="48.03757" lon="6.83633">
        <ele>829.2</ele>
        <time>2022-06-26T08:54:57Z</time>
      </trkpt>
      <trkpt lat="48.03752" lon="6.83619">
        <ele>828.6</ele>
        <time>2022-06-26T08:54:59Z</time>
      </trkpt>
      <trkpt lat="48.03751" lon="6.83611">
        <ele>828.4</ele>
        <time>2022-06-26T08:55:00Z</time>
      </trkpt>
      <trkpt lat="48.03746" lon="6.8359">
        <ele>828</ele>
        <time>2022-06-26T08:55:04Z</time>
      </trkpt>
      <trkpt lat="48.03747" lon="6.83585">
        <ele>827.8</ele>
        <time>2022-06-26T08:55:05Z</time>
      </trkpt>
      <trkpt lat="48.03745" lon="6.83578">
        <ele>827.6</ele>
        <time>2022-06-26T08:55:06Z</time>
      </trkpt>
      <trkpt lat="48.03746" lon="6.8357">
        <ele>827.4</ele>
        <time>2022-06-26T08:55:07Z</time>
      </trkpt>
      <trkpt lat="48.03745" lon="6.8356">
        <ele>827.2</ele>
        <time>2022-06-26T08:55:08Z</time>
      </trkpt>
      <trkpt lat="48.03744" lon="6.83549">
        <ele>827</ele>
        <time>2022-06-26T08:55:09Z</time>
      </trkpt>
      <trkpt lat="48.03746" lon="6.83528">
        <ele>826.2</ele>
        <time>2022-06-26T08:55:11Z</time>
      </trkpt>
      <trkpt lat="48.03746" lon="6.83507">
        <ele>824.8</ele>
        <time>2022-06-26T08:55:13Z</time>
      </trkpt>
      <trkpt lat="48.03738" lon="6.83483">
        <ele>823.6</ele>
        <time>2022-06-26T08:55:16Z</time>
      </trkpt>
      <trkpt lat="48.03737" lon="6.83478">
        <ele>823.6</ele>
        <time>2022-06-26T08:55:17Z</time>
      </trkpt>
      <trkpt lat="48.03737" lon="6.83474">
        <ele>823.6</ele>
        <time>2022-06-26T08:55:18Z</time>
      </trkpt>
      <trkpt lat="48.03737" lon="6.83471">
        <ele>823.6</ele>
        <time>2022-06-26T08:55:19Z</time>
      </trkpt>
      <trkpt lat="48.03738" lon="6.83468">
        <ele>823.6</ele>
        <time>2022-06-26T08:55:20Z</time>
      </trkpt>
      <trkpt lat="48.03738" lon="6.83464">
        <ele>823.6</ele>
        <time>2022-06-26T08:55:21Z</time>
      </trkpt>
      <trkpt lat="48.03739" lon="6.83459">
        <ele>823.8</ele>
        <time>2022-06-26T08:55:22Z</time>
      </trkpt>
      <trkpt lat="48.03736" lon="6.83449">
        <ele>824</ele>
        <time>2022-06-26T08:55:24Z</time>
      </trkpt>
      <trkpt lat="48.03735" lon="6.83444">
        <ele>824</ele>
        <time>2022-06-26T08:55:25Z</time>
      </trkpt>
      <trkpt lat="48.03735" lon="6.8344">
        <ele>824</ele>
        <time>2022-06-26T08:55:26Z</time>
      </trkpt>
      <trkpt lat="48.03735" lon="6.83436">
        <ele>824.2</ele>
        <time>2022-06-26T08:55:27Z</time>
      </trkpt>
      <trkpt lat="48.03735" lon="6.83431">
        <ele>824.2</ele>
        <time>2022-06-26T08:55:28Z</time>
      </trkpt>
      <trkpt lat="48.03734" lon="6.83426">
        <ele>824.2</ele>
        <time>2022-06-26T08:55:29Z</time>
      </trkpt>
      <trkpt lat="48.03734" lon="6.83413">
        <ele>824.2</ele>
        <time>2022-06-26T08:55:31Z</time>
      </trkpt>
      <trkpt lat="48.03735" lon="6.83407">
        <ele>824.2</ele>
        <time>2022-06-26T08:55:32Z</time>
      </trkpt>
      <trkpt lat="48.03737" lon="6.83404">
        <ele>824.2</ele>
        <time>2022-06-26T08:55:33Z</time>
      </trkpt>
      <trkpt lat="48.03737" lon="6.83401">
        <ele>824</ele>
        <time>2022-06-26T08:55:34Z</time>
      </trkpt>
      <trkpt lat="48.03739" lon="6.83398">
        <ele>824</ele>
        <time>2022-06-26T08:55:35Z</time>
      </trkpt>
      <trkpt lat="48.03739" lon="6.83394">
        <ele>824</ele>
        <time>2022-06-26T08:55:36Z</time>
      </trkpt>
      <trkpt lat="48.03738" lon="6.83389">
        <ele>823.8</ele>
        <time>2022-06-26T08:55:37Z</time>
      </trkpt>
      <trkpt lat="48.03737" lon="6.83379">
        <ele>823.8</ele>
        <time>2022-06-26T08:55:38Z</time>
      </trkpt>
      <trkpt lat="48.03735" lon="6.8337">
        <ele>823.4</ele>
        <time>2022-06-26T08:55:39Z</time>
      </trkpt>
      <trkpt lat="48.03735" lon="6.8336">
        <ele>823.2</ele>
        <time>2022-06-26T08:55:40Z</time>
      </trkpt>
      <trkpt lat="48.03735" lon="6.83341">
        <ele>822.6</ele>
        <time>2022-06-26T08:55:42Z</time>
      </trkpt>
      <trkpt lat="48.03736" lon="6.83335">
        <ele>821.8</ele>
        <time>2022-06-26T08:55:43Z</time>
      </trkpt>
      <trkpt lat="48.03738" lon="6.83327">
        <ele>821.2</ele>
        <time>2022-06-26T08:55:44Z</time>
      </trkpt>
      <trkpt lat="48.03739" lon="6.83321">
        <ele>820.6</ele>
        <time>2022-06-26T08:55:45Z</time>
      </trkpt>
      <trkpt lat="48.03738" lon="6.83313">
        <ele>820.2</ele>
        <time>2022-06-26T08:55:46Z</time>
      </trkpt>
      <trkpt lat="48.03739" lon="6.8331">
        <ele>820.2</ele>
        <time>2022-06-26T08:55:47Z</time>
      </trkpt>
      <trkpt lat="48.0374" lon="6.83305">
        <ele>819.2</ele>
        <time>2022-06-26T08:55:48Z</time>
      </trkpt>
      <trkpt lat="48.03742" lon="6.83301">
        <ele>818.8</ele>
        <time>2022-06-26T08:55:49Z</time>
      </trkpt>
      <trkpt lat="48.03743" lon="6.83297">
        <ele>818.2</ele>
        <time>2022-06-26T08:55:50Z</time>
      </trkpt>
      <trkpt lat="48.03744" lon="6.83294">
        <ele>818</ele>
        <time>2022-06-26T08:55:51Z</time>
      </trkpt>
      <trkpt lat="48.03745" lon="6.8329">
        <ele>817.8</ele>
        <time>2022-06-26T08:55:52Z</time>
      </trkpt>
      <trkpt lat="48.03744" lon="6.83281">
        <ele>817.8</ele>
        <time>2022-06-26T08:55:53Z</time>
      </trkpt>
      <trkpt lat="48.03737" lon="6.83269">
        <ele>817</ele>
        <time>2022-06-26T08:55:56Z</time>
      </trkpt>
      <trkpt lat="48.03728" lon="6.8324">
        <ele>816.6</ele>
        <time>2022-06-26T08:56:00Z</time>
      </trkpt>
      <trkpt lat="48.03727" lon="6.83234">
        <ele>816.4</ele>
        <time>2022-06-26T08:56:01Z</time>
      </trkpt>
      <trkpt lat="48.03727" lon="6.83228">
        <ele>816.2</ele>
        <time>2022-06-26T08:56:02Z</time>
      </trkpt>
      <trkpt lat="48.0373" lon="6.83224">
        <ele>816</ele>
        <time>2022-06-26T08:56:03Z</time>
      </trkpt>
      <trkpt lat="48.03736" lon="6.83216">
        <ele>816</ele>
        <time>2022-06-26T08:56:05Z</time>
      </trkpt>
      <trkpt lat="48.03738" lon="6.83213">
        <ele>815.8</ele>
        <time>2022-06-26T08:56:06Z</time>
      </trkpt>
      <trkpt lat="48.03739" lon="6.83207">
        <ele>815.8</ele>
        <time>2022-06-26T08:56:07Z</time>
      </trkpt>
      <trkpt lat="48.03746" lon="6.83195">
        <ele>815.6</ele>
        <time>2022-06-26T08:56:09Z</time>
      </trkpt>
      <trkpt lat="48.03748" lon="6.83188">
        <ele>815</ele>
        <time>2022-06-26T08:56:10Z</time>
      </trkpt>
      <trkpt lat="48.03748" lon="6.83182">
        <ele>814.6</ele>
        <time>2022-06-26T08:56:11Z</time>
      </trkpt>
      <trkpt lat="48.03748" lon="6.83176">
        <ele>814.2</ele>
        <time>2022-06-26T08:56:12Z</time>
      </trkpt>
      <trkpt lat="48.03746" lon="6.83173">
        <ele>812.6</ele>
        <time>2022-06-26T08:56:13Z</time>
      </trkpt>
      <trkpt lat="48.03744" lon="6.83172">
        <ele>812</ele>
        <time>2022-06-26T08:56:14Z</time>
      </trkpt>
      <trkpt lat="48.03739" lon="6.83171">
        <ele>810.8</ele>
        <time>2022-06-26T08:56:15Z</time>
      </trkpt>
      <trkpt lat="48.03737" lon="6.83171">
        <ele>810.4</ele>
        <time>2022-06-26T08:56:16Z</time>
      </trkpt>
      <trkpt lat="48.03734" lon="6.8317">
        <ele>809.8</ele>
        <time>2022-06-26T08:56:17Z</time>
      </trkpt>
      <trkpt lat="48.03729" lon="6.8317">
        <ele>809.6</ele>
        <time>2022-06-26T08:56:18Z</time>
      </trkpt>
      <trkpt lat="48.0371" lon="6.83165">
        <ele>808.8</ele>
        <time>2022-06-26T08:56:23Z</time>
      </trkpt>
      <trkpt lat="48.03702" lon="6.8316">
        <ele>808.4</ele>
        <time>2022-06-26T08:56:25Z</time>
      </trkpt>
      <trkpt lat="48.03694" lon="6.83153">
        <ele>807.6</ele>
        <time>2022-06-26T08:56:27Z</time>
      </trkpt>
      <trkpt lat="48.03683" lon="6.83137">
        <ele>806.4</ele>
        <time>2022-06-26T08:56:30Z</time>
      </trkpt>
      <trkpt lat="48.03678" lon="6.83125">
        <ele>805.8</ele>
        <time>2022-06-26T08:56:32Z</time>
      </trkpt>
      <trkpt lat="48.03677" lon="6.83118">
        <ele>805.4</ele>
        <time>2022-06-26T08:56:33Z</time>
      </trkpt>
      <trkpt lat="48.03677" lon="6.83109">
        <ele>805.4</ele>
        <time>2022-06-26T08:56:34Z</time>
      </trkpt>
      <trkpt lat="48.03678" lon="6.831">
        <ele>805.2</ele>
        <time>2022-06-26T08:56:35Z</time>
      </trkpt>
      <trkpt lat="48.0368" lon="6.83093">
        <ele>805</ele>
        <time>2022-06-26T08:56:36Z</time>
      </trkpt>
      <trkpt lat="48.03683" lon="6.83086">
        <ele>805</ele>
        <time>2022-06-26T08:56:37Z</time>
      </trkpt>
      <trkpt lat="48.03686" lon="6.83078">
        <ele>804.6</ele>
        <time>2022-06-26T08:56:38Z</time>
      </trkpt>
      <trkpt lat="48.03688" lon="6.83068">
        <ele>804.2</ele>
        <time>2022-06-26T08:56:39Z</time>
      </trkpt>
      <trkpt lat="48.0369" lon="6.83049">
        <ele>803.6</ele>
        <time>2022-06-26T08:56:41Z</time>
      </trkpt>
      <trkpt lat="48.03689" lon="6.8304">
        <ele>803.2</ele>
        <time>2022-06-26T08:56:42Z</time>
      </trkpt>
      <trkpt lat="48.03688" lon="6.8303">
        <ele>803</ele>
        <time>2022-06-26T08:56:43Z</time>
      </trkpt>
      <trkpt lat="48.03686" lon="6.83005">
        <ele>802.4</ele>
        <time>2022-06-26T08:56:45Z</time>
      </trkpt>
      <trkpt lat="48.03684" lon="6.82993">
        <ele>801.6</ele>
        <time>2022-06-26T08:56:46Z</time>
      </trkpt>
      <trkpt lat="48.03679" lon="6.82977">
        <ele>800.6</ele>
        <time>2022-06-26T08:56:48Z</time>
      </trkpt>
      <trkpt lat="48.03677" lon="6.8297">
        <ele>799.8</ele>
        <time>2022-06-26T08:56:49Z</time>
      </trkpt>
      <trkpt lat="48.03677" lon="6.82966">
        <ele>799.2</ele>
        <time>2022-06-26T08:56:50Z</time>
      </trkpt>
      <trkpt lat="48.03676" lon="6.82966">
        <ele>798</ele>
        <time>2022-06-26T08:56:51Z</time>
      </trkpt>
      <trkpt lat="48.03676" lon="6.82966">
        <ele>797.6</ele>
        <time>2022-06-26T08:56:52Z</time>
      </trkpt>
      <trkpt lat="48.03677" lon="6.82965">
        <ele>797.2</ele>
        <time>2022-06-26T08:57:00Z</time>
      </trkpt>
      <trkpt lat="48.03677" lon="6.82965">
        <ele>797</ele>
        <time>2022-06-26T08:57:19Z</time>
      </trkpt>
      <trkpt lat="48.03677" lon="6.82965">
        <ele>796.4</ele>
        <time>2022-06-26T08:58:21Z</time>
      </trkpt>
      <trkpt lat="48.03677" lon="6.82965">
        <ele>796.4</ele>
        <time>2022-06-26T08:59:20Z</time>
      </trkpt>
      <trkpt lat="48.03675" lon="6.82965">
        <ele>796.6</ele>
        <time>2022-06-26T09:00:22Z</time>
      </trkpt>
      <trkpt lat="48.03674" lon="6.82965">
        <ele>796.6</ele>
        <time>2022-06-26T09:00:24Z</time>
      </trkpt>
      <trkpt lat="48.03673" lon="6.82965">
        <ele>796.6</ele>
        <time>2022-06-26T09:00:26Z</time>
      </trkpt>
      <trkpt lat="48.03673" lon="6.82964">
        <ele>796.6</ele>
        <time>2022-06-26T09:00:27Z</time>
      </trkpt>
      <trkpt lat="48.03671" lon="6.82963">
        <ele>796.6</ele>
        <time>2022-06-26T09:00:28Z</time>
      </trkpt>
      <trkpt lat="48.0367" lon="6.8296">
        <ele>796.6</ele>
        <time>2022-06-26T09:00:29Z</time>
      </trkpt>
      <trkpt lat="48.0367" lon="6.82958">
        <ele>796.6</ele>
        <time>2022-06-26T09:00:30Z</time>
      </trkpt>
      <trkpt lat="48.0367" lon="6.82956">
        <ele>796.6</ele>
        <time>2022-06-26T09:00:31Z</time>
      </trkpt>
      <trkpt lat="48.03671" lon="6.8295">
        <ele>796.8</ele>
        <time>2022-06-26T09:00:33Z</time>
      </trkpt>
      <trkpt lat="48.03671" lon="6.82947">
        <ele>796.8</ele>
        <time>2022-06-26T09:00:34Z</time>
      </trkpt>
      <trkpt lat="48.03671" lon="6.82944">
        <ele>796.8</ele>
        <time>2022-06-26T09:00:35Z</time>
      </trkpt>
      <trkpt lat="48.03671" lon="6.82942">
        <ele>796.8</ele>
        <time>2022-06-26T09:00:36Z</time>
      </trkpt>
      <trkpt lat="48.0367" lon="6.82932">
        <ele>797.4</ele>
        <time>2022-06-26T09:00:40Z</time>
      </trkpt>
      <trkpt lat="48.0367" lon="6.82931">
        <ele>797.4</ele>
        <time>2022-06-26T09:00:41Z</time>
      </trkpt>
      <trkpt lat="48.03669" lon="6.82929">
        <ele>797.6</ele>
        <time>2022-06-26T09:00:42Z</time>
      </trkpt>
      <trkpt lat="48.03669" lon="6.82928">
        <ele>797.8</ele>
        <time>2022-06-26T09:00:43Z</time>
      </trkpt>
      <trkpt lat="48.03669" lon="6.82926">
        <ele>798</ele>
        <time>2022-06-26T09:00:44Z</time>
      </trkpt>
      <trkpt lat="48.03669" lon="6.82924">
        <ele>798.2</ele>
        <time>2022-06-26T09:00:45Z</time>
      </trkpt>
      <trkpt lat="48.03668" lon="6.82917">
        <ele>798.8</ele>
        <time>2022-06-26T09:00:48Z</time>
      </trkpt>
      <trkpt lat="48.03668" lon="6.82915">
        <ele>799.2</ele>
        <time>2022-06-26T09:00:49Z</time>
      </trkpt>
      <trkpt lat="48.03668" lon="6.82911">
        <ele>799.4</ele>
        <time>2022-06-26T09:00:50Z</time>
      </trkpt>
      <trkpt lat="48.03668" lon="6.82906">
        <ele>800</ele>
        <time>2022-06-26T09:00:52Z</time>
      </trkpt>
      <trkpt lat="48.03667" lon="6.82903">
        <ele>800</ele>
        <time>2022-06-26T09:00:53Z</time>
      </trkpt>
      <trkpt lat="48.03667" lon="6.82901">
        <ele>800.2</ele>
        <time>2022-06-26T09:00:54Z</time>
      </trkpt>
      <trkpt lat="48.03667" lon="6.82899">
        <ele>800.4</ele>
        <time>2022-06-26T09:00:55Z</time>
      </trkpt>
      <trkpt lat="48.03667" lon="6.82897">
        <ele>800.4</ele>
        <time>2022-06-26T09:00:56Z</time>
      </trkpt>
      <trkpt lat="48.03667" lon="6.82895">
        <ele>800.6</ele>
        <time>2022-06-26T09:00:57Z</time>
      </trkpt>
      <trkpt lat="48.03667" lon="6.82892">
        <ele>800.6</ele>
        <time>2022-06-26T09:00:58Z</time>
      </trkpt>
      <trkpt lat="48.03666" lon="6.8289">
        <ele>800.6</ele>
        <time>2022-06-26T09:00:59Z</time>
      </trkpt>
      <trkpt lat="48.03666" lon="6.82887">
        <ele>800.8</ele>
        <time>2022-06-26T09:01:00Z</time>
      </trkpt>
      <trkpt lat="48.03666" lon="6.82885">
        <ele>800.8</ele>
        <time>2022-06-26T09:01:01Z</time>
      </trkpt>
      <trkpt lat="48.03665" lon="6.82883">
        <ele>800.8</ele>
        <time>2022-06-26T09:01:02Z</time>
      </trkpt>
      <trkpt lat="48.03664" lon="6.8288">
        <ele>800.8</ele>
        <time>2022-06-26T09:01:03Z</time>
      </trkpt>
      <trkpt lat="48.03663" lon="6.82878">
        <ele>800.8</ele>
        <time>2022-06-26T09:01:04Z</time>
      </trkpt>
      <trkpt lat="48.03661" lon="6.82875">
        <ele>800.8</ele>
        <time>2022-06-26T09:01:05Z</time>
      </trkpt>
      <trkpt lat="48.03658" lon="6.82872">
        <ele>800.6</ele>
        <time>2022-06-26T09:01:06Z</time>
      </trkpt>
      <trkpt lat="48.03655" lon="6.82869">
        <ele>800.2</ele>
        <time>2022-06-26T09:01:07Z</time>
      </trkpt>
      <trkpt lat="48.03653" lon="6.82865">
        <ele>800.2</ele>
        <time>2022-06-26T09:01:08Z</time>
      </trkpt>
      <trkpt lat="48.03651" lon="6.8286">
        <ele>800</ele>
        <time>2022-06-26T09:01:09Z</time>
      </trkpt>
      <trkpt lat="48.03648" lon="6.82857">
        <ele>799.6</ele>
        <time>2022-06-26T09:01:10Z</time>
      </trkpt>
      <trkpt lat="48.03645" lon="6.82855">
        <ele>799.4</ele>
        <time>2022-06-26T09:01:11Z</time>
      </trkpt>
      <trkpt lat="48.03643" lon="6.82855">
        <ele>798.6</ele>
        <time>2022-06-26T09:01:12Z</time>
      </trkpt>
      <trkpt lat="48.03639" lon="6.82855">
        <ele>798.4</ele>
        <time>2022-06-26T09:01:13Z</time>
      </trkpt>
      <trkpt lat="48.03637" lon="6.82854">
        <ele>797.8</ele>
        <time>2022-06-26T09:01:14Z</time>
      </trkpt>
      <trkpt lat="48.03636" lon="6.82852">
        <ele>797.6</ele>
        <time>2022-06-26T09:01:15Z</time>
      </trkpt>
      <trkpt lat="48.03635" lon="6.82848">
        <ele>796.8</ele>
        <time>2022-06-26T09:01:16Z</time>
      </trkpt>
      <trkpt lat="48.03635" lon="6.82843">
        <ele>796.2</ele>
        <time>2022-06-26T09:01:17Z</time>
      </trkpt>
      <trkpt lat="48.03636" lon="6.82834">
        <ele>795</ele>
        <time>2022-06-26T09:01:19Z</time>
      </trkpt>
      <trkpt lat="48.03635" lon="6.82828">
        <ele>794.6</ele>
        <time>2022-06-26T09:01:20Z</time>
      </trkpt>
      <trkpt lat="48.03635" lon="6.82822">
        <ele>794.4</ele>
        <time>2022-06-26T09:01:21Z</time>
      </trkpt>
      <trkpt lat="48.03632" lon="6.82795">
        <ele>793.8</ele>
        <time>2022-06-26T09:01:25Z</time>
      </trkpt>
      <trkpt lat="48.0363" lon="6.82781">
        <ele>793.4</ele>
        <time>2022-06-26T09:01:27Z</time>
      </trkpt>
      <trkpt lat="48.03629" lon="6.82776">
        <ele>793.4</ele>
        <time>2022-06-26T09:01:28Z</time>
      </trkpt>
      <trkpt lat="48.03629" lon="6.82771">
        <ele>793.4</ele>
        <time>2022-06-26T09:01:29Z</time>
      </trkpt>
      <trkpt lat="48.03628" lon="6.82766">
        <ele>793.2</ele>
        <time>2022-06-26T09:01:30Z</time>
      </trkpt>
      <trkpt lat="48.03627" lon="6.82763">
        <ele>793.2</ele>
        <time>2022-06-26T09:01:31Z</time>
      </trkpt>
      <trkpt lat="48.03625" lon="6.82759">
        <ele>793.2</ele>
        <time>2022-06-26T09:01:32Z</time>
      </trkpt>
      <trkpt lat="48.03625" lon="6.82756">
        <ele>793.2</ele>
        <time>2022-06-26T09:01:33Z</time>
      </trkpt>
      <trkpt lat="48.03623" lon="6.82753">
        <ele>793.2</ele>
        <time>2022-06-26T09:01:34Z</time>
      </trkpt>
      <trkpt lat="48.0362" lon="6.82746">
        <ele>793.8</ele>
        <time>2022-06-26T09:01:36Z</time>
      </trkpt>
      <trkpt lat="48.03618" lon="6.82743">
        <ele>794</ele>
        <time>2022-06-26T09:01:37Z</time>
      </trkpt>
      <trkpt lat="48.03617" lon="6.8274">
        <ele>794.2</ele>
        <time>2022-06-26T09:01:38Z</time>
      </trkpt>
      <trkpt lat="48.0361" lon="6.82717">
        <ele>794.6</ele>
        <time>2022-06-26T09:01:43Z</time>
      </trkpt>
      <trkpt lat="48.03602" lon="6.8269">
        <ele>794.4</ele>
        <time>2022-06-26T09:01:48Z</time>
      </trkpt>
      <trkpt lat="48.03601" lon="6.82675">
        <ele>794.6</ele>
        <time>2022-06-26T09:01:51Z</time>
      </trkpt>
      <trkpt lat="48.03601" lon="6.82671">
        <ele>794.6</ele>
        <time>2022-06-26T09:01:52Z</time>
      </trkpt>
      <trkpt lat="48.03601" lon="6.82668">
        <ele>794.6</ele>
        <time>2022-06-26T09:01:53Z</time>
      </trkpt>
      <trkpt lat="48.03601" lon="6.82665">
        <ele>794.6</ele>
        <time>2022-06-26T09:01:54Z</time>
      </trkpt>
      <trkpt lat="48.036" lon="6.82662">
        <ele>794.6</ele>
        <time>2022-06-26T09:01:55Z</time>
      </trkpt>
      <trkpt lat="48.03599" lon="6.82659">
        <ele>794.6</ele>
        <time>2022-06-26T09:01:56Z</time>
      </trkpt>
      <trkpt lat="48.03599" lon="6.82657">
        <ele>794.8</ele>
        <time>2022-06-26T09:01:57Z</time>
      </trkpt>
      <trkpt lat="48.03599" lon="6.82655">
        <ele>795.2</ele>
        <time>2022-06-26T09:01:58Z</time>
      </trkpt>
      <trkpt lat="48.03599" lon="6.82653">
        <ele>795.6</ele>
        <time>2022-06-26T09:01:59Z</time>
      </trkpt>
      <trkpt lat="48.03599" lon="6.8265">
        <ele>795.6</ele>
        <time>2022-06-26T09:02:00Z</time>
      </trkpt>
      <trkpt lat="48.03598" lon="6.82647">
        <ele>795.8</ele>
        <time>2022-06-26T09:02:01Z</time>
      </trkpt>
      <trkpt lat="48.03598" lon="6.82644">
        <ele>796</ele>
        <time>2022-06-26T09:02:02Z</time>
      </trkpt>
      <trkpt lat="48.03597" lon="6.8264">
        <ele>796.2</ele>
        <time>2022-06-26T09:02:03Z</time>
      </trkpt>
      <trkpt lat="48.03596" lon="6.82633">
        <ele>796.6</ele>
        <time>2022-06-26T09:02:05Z</time>
      </trkpt>
      <trkpt lat="48.03594" lon="6.82617">
        <ele>797.4</ele>
        <time>2022-06-26T09:02:10Z</time>
      </trkpt>
      <trkpt lat="48.03593" lon="6.82614">
        <ele>797.4</ele>
        <time>2022-06-26T09:02:11Z</time>
      </trkpt>
      <trkpt lat="48.03593" lon="6.8261">
        <ele>797.6</ele>
        <time>2022-06-26T09:02:12Z</time>
      </trkpt>
      <trkpt lat="48.03593" lon="6.82608">
        <ele>797.6</ele>
        <time>2022-06-26T09:02:13Z</time>
      </trkpt>
      <trkpt lat="48.03592" lon="6.82604">
        <ele>797.8</ele>
        <time>2022-06-26T09:02:14Z</time>
      </trkpt>
      <trkpt lat="48.03592" lon="6.82601">
        <ele>798</ele>
        <time>2022-06-26T09:02:15Z</time>
      </trkpt>
      <trkpt lat="48.03591" lon="6.82598">
        <ele>798.2</ele>
        <time>2022-06-26T09:02:16Z</time>
      </trkpt>
      <trkpt lat="48.03591" lon="6.82595">
        <ele>798.4</ele>
        <time>2022-06-26T09:02:17Z</time>
      </trkpt>
      <trkpt lat="48.0359" lon="6.82591">
        <ele>798.6</ele>
        <time>2022-06-26T09:02:18Z</time>
      </trkpt>
      <trkpt lat="48.0359" lon="6.82588">
        <ele>798.8</ele>
        <time>2022-06-26T09:02:19Z</time>
      </trkpt>
      <trkpt lat="48.03589" lon="6.82586">
        <ele>799</ele>
        <time>2022-06-26T09:02:20Z</time>
      </trkpt>
      <trkpt lat="48.03589" lon="6.82583">
        <ele>799.2</ele>
        <time>2022-06-26T09:02:21Z</time>
      </trkpt>
      <trkpt lat="48.03589" lon="6.8258">
        <ele>799.2</ele>
        <time>2022-06-26T09:02:22Z</time>
      </trkpt>
      <trkpt lat="48.03588" lon="6.82577">
        <ele>799.4</ele>
        <time>2022-06-26T09:02:23Z</time>
      </trkpt>
      <trkpt lat="48.03588" lon="6.82573">
        <ele>799.6</ele>
        <time>2022-06-26T09:02:24Z</time>
      </trkpt>
      <trkpt lat="48.03588" lon="6.82571">
        <ele>799.6</ele>
        <time>2022-06-26T09:02:25Z</time>
      </trkpt>
      <trkpt lat="48.03588" lon="6.82569">
        <ele>799.8</ele>
        <time>2022-06-26T09:02:26Z</time>
      </trkpt>
      <trkpt lat="48.03588" lon="6.82566">
        <ele>800</ele>
        <time>2022-06-26T09:02:27Z</time>
      </trkpt>
      <trkpt lat="48.03588" lon="6.82564">
        <ele>800.2</ele>
        <time>2022-06-26T09:02:28Z</time>
      </trkpt>
      <trkpt lat="48.03588" lon="6.82561">
        <ele>800.2</ele>
        <time>2022-06-26T09:02:29Z</time>
      </trkpt>
      <trkpt lat="48.03588" lon="6.82558">
        <ele>800.6</ele>
        <time>2022-06-26T09:02:30Z</time>
      </trkpt>
      <trkpt lat="48.03588" lon="6.82555">
        <ele>800.8</ele>
        <time>2022-06-26T09:02:31Z</time>
      </trkpt>
      <trkpt lat="48.03588" lon="6.82552">
        <ele>800.8</ele>
        <time>2022-06-26T09:02:32Z</time>
      </trkpt>
      <trkpt lat="48.03588" lon="6.8255">
        <ele>801.2</ele>
        <time>2022-06-26T09:02:33Z</time>
      </trkpt>
      <trkpt lat="48.03588" lon="6.82548">
        <ele>801.2</ele>
        <time>2022-06-26T09:02:34Z</time>
      </trkpt>
      <trkpt lat="48.03588" lon="6.82545">
        <ele>801.4</ele>
        <time>2022-06-26T09:02:35Z</time>
      </trkpt>
      <trkpt lat="48.03588" lon="6.82543">
        <ele>801.6</ele>
        <time>2022-06-26T09:02:36Z</time>
      </trkpt>
      <trkpt lat="48.03588" lon="6.82539">
        <ele>802</ele>
        <time>2022-06-26T09:02:37Z</time>
      </trkpt>
      <trkpt lat="48.03588" lon="6.82537">
        <ele>802</ele>
        <time>2022-06-26T09:02:38Z</time>
      </trkpt>
      <trkpt lat="48.03588" lon="6.82534">
        <ele>802.2</ele>
        <time>2022-06-26T09:02:39Z</time>
      </trkpt>
      <trkpt lat="48.03589" lon="6.82532">
        <ele>802.6</ele>
        <time>2022-06-26T09:02:40Z</time>
      </trkpt>
      <trkpt lat="48.03589" lon="6.8253">
        <ele>802.8</ele>
        <time>2022-06-26T09:02:41Z</time>
      </trkpt>
      <trkpt lat="48.0359" lon="6.82527">
        <ele>803</ele>
        <time>2022-06-26T09:02:42Z</time>
      </trkpt>
      <trkpt lat="48.03591" lon="6.82525">
        <ele>803.2</ele>
        <time>2022-06-26T09:02:43Z</time>
      </trkpt>
      <trkpt lat="48.03592" lon="6.82523">
        <ele>803.4</ele>
        <time>2022-06-26T09:02:44Z</time>
      </trkpt>
      <trkpt lat="48.03592" lon="6.82522">
        <ele>803.6</ele>
        <time>2022-06-26T09:02:45Z</time>
      </trkpt>
      <trkpt lat="48.03594" lon="6.82522">
        <ele>803.8</ele>
        <time>2022-06-26T09:02:46Z</time>
      </trkpt>
      <trkpt lat="48.03594" lon="6.8252">
        <ele>804</ele>
        <time>2022-06-26T09:02:47Z</time>
      </trkpt>
      <trkpt lat="48.03596" lon="6.82519">
        <ele>804.2</ele>
        <time>2022-06-26T09:02:48Z</time>
      </trkpt>
      <trkpt lat="48.03597" lon="6.82518">
        <ele>804.2</ele>
        <time>2022-06-26T09:02:49Z</time>
      </trkpt>
      <trkpt lat="48.03598" lon="6.82517">
        <ele>804.2</ele>
        <time>2022-06-26T09:02:50Z</time>
      </trkpt>
      <trkpt lat="48.036" lon="6.82515">
        <ele>804.2</ele>
        <time>2022-06-26T09:02:51Z</time>
      </trkpt>
      <trkpt lat="48.03603" lon="6.82513">
        <ele>804.2</ele>
        <time>2022-06-26T09:02:52Z</time>
      </trkpt>
      <trkpt lat="48.03605" lon="6.8251">
        <ele>804.2</ele>
        <time>2022-06-26T09:02:53Z</time>
      </trkpt>
      <trkpt lat="48.03609" lon="6.82507">
        <ele>803.8</ele>
        <time>2022-06-26T09:02:54Z</time>
      </trkpt>
      <trkpt lat="48.03611" lon="6.82504">
        <ele>803.6</ele>
        <time>2022-06-26T09:02:55Z</time>
      </trkpt>
      <trkpt lat="48.03613" lon="6.82501">
        <ele>803.6</ele>
        <time>2022-06-26T09:02:56Z</time>
      </trkpt>
      <trkpt lat="48.03617" lon="6.82499">
        <ele>803.2</ele>
        <time>2022-06-26T09:02:57Z</time>
      </trkpt>
      <trkpt lat="48.03621" lon="6.82497">
        <ele>802.6</ele>
        <time>2022-06-26T09:02:58Z</time>
      </trkpt>
      <trkpt lat="48.03625" lon="6.82494">
        <ele>802.2</ele>
        <time>2022-06-26T09:02:59Z</time>
      </trkpt>
      <trkpt lat="48.03626" lon="6.8249">
        <ele>801.4</ele>
        <time>2022-06-26T09:03:00Z</time>
      </trkpt>
      <trkpt lat="48.03628" lon="6.82486">
        <ele>800.8</ele>
        <time>2022-06-26T09:03:01Z</time>
      </trkpt>
      <trkpt lat="48.03629" lon="6.82483">
        <ele>799.8</ele>
        <time>2022-06-26T09:03:02Z</time>
      </trkpt>
      <trkpt lat="48.03631" lon="6.8248">
        <ele>799.2</ele>
        <time>2022-06-26T09:03:03Z</time>
      </trkpt>
      <trkpt lat="48.03635" lon="6.82474">
        <ele>798.6</ele>
        <time>2022-06-26T09:03:04Z</time>
      </trkpt>
      <trkpt lat="48.03643" lon="6.82459">
        <ele>796.8</ele>
        <time>2022-06-26T09:03:06Z</time>
      </trkpt>
      <trkpt lat="48.0365" lon="6.82443">
        <ele>795.4</ele>
        <time>2022-06-26T09:03:08Z</time>
      </trkpt>
      <trkpt lat="48.03654" lon="6.82431">
        <ele>794.6</ele>
        <time>2022-06-26T09:03:09Z</time>
      </trkpt>
      <trkpt lat="48.03656" lon="6.82421">
        <ele>794.2</ele>
        <time>2022-06-26T09:03:10Z</time>
      </trkpt>
      <trkpt lat="48.03658" lon="6.82412">
        <ele>793.6</ele>
        <time>2022-06-26T09:03:11Z</time>
      </trkpt>
      <trkpt lat="48.03664" lon="6.82389">
        <ele>792.2</ele>
        <time>2022-06-26T09:03:13Z</time>
      </trkpt>
      <trkpt lat="48.03664" lon="6.8238">
        <ele>791</ele>
        <time>2022-06-26T09:03:14Z</time>
      </trkpt>
      <trkpt lat="48.03667" lon="6.82374">
        <ele>790.6</ele>
        <time>2022-06-26T09:03:15Z</time>
      </trkpt>
      <trkpt lat="48.0367" lon="6.82367">
        <ele>789.4</ele>
        <time>2022-06-26T09:03:16Z</time>
      </trkpt>
      <trkpt lat="48.0368" lon="6.82351">
        <ele>788</ele>
        <time>2022-06-26T09:03:18Z</time>
      </trkpt>
      <trkpt lat="48.03684" lon="6.82343">
        <ele>787.6</ele>
        <time>2022-06-26T09:03:19Z</time>
      </trkpt>
      <trkpt lat="48.03686" lon="6.82334">
        <ele>787</ele>
        <time>2022-06-26T09:03:20Z</time>
      </trkpt>
      <trkpt lat="48.03686" lon="6.82324">
        <ele>786.6</ele>
        <time>2022-06-26T09:03:21Z</time>
      </trkpt>
      <trkpt lat="48.0369" lon="6.82312">
        <ele>785.6</ele>
        <time>2022-06-26T09:03:22Z</time>
      </trkpt>
      <trkpt lat="48.0369" lon="6.82303">
        <ele>784.4</ele>
        <time>2022-06-26T09:03:23Z</time>
      </trkpt>
      <trkpt lat="48.03689" lon="6.82297">
        <ele>783.6</ele>
        <time>2022-06-26T09:03:24Z</time>
      </trkpt>
      <trkpt lat="48.03688" lon="6.82293">
        <ele>781.6</ele>
        <time>2022-06-26T09:03:25Z</time>
      </trkpt>
      <trkpt lat="48.03688" lon="6.8229">
        <ele>780.8</ele>
        <time>2022-06-26T09:03:26Z</time>
      </trkpt>
      <trkpt lat="48.03688" lon="6.82286">
        <ele>779.4</ele>
        <time>2022-06-26T09:03:27Z</time>
      </trkpt>
      <trkpt lat="48.0369" lon="6.82283">
        <ele>778.8</ele>
        <time>2022-06-26T09:03:28Z</time>
      </trkpt>
      <trkpt lat="48.03692" lon="6.82277">
        <ele>778.2</ele>
        <time>2022-06-26T09:03:29Z</time>
      </trkpt>
      <trkpt lat="48.03693" lon="6.82264">
        <ele>777.2</ele>
        <time>2022-06-26T09:03:31Z</time>
      </trkpt>
      <trkpt lat="48.03692" lon="6.82255">
        <ele>776.4</ele>
        <time>2022-06-26T09:03:32Z</time>
      </trkpt>
      <trkpt lat="48.03691" lon="6.82245">
        <ele>776</ele>
        <time>2022-06-26T09:03:33Z</time>
      </trkpt>
      <trkpt lat="48.03689" lon="6.82234">
        <ele>775</ele>
        <time>2022-06-26T09:03:34Z</time>
      </trkpt>
      <trkpt lat="48.03688" lon="6.82223">
        <ele>774.4</ele>
        <time>2022-06-26T09:03:35Z</time>
      </trkpt>
      <trkpt lat="48.03686" lon="6.82212">
        <ele>773.2</ele>
        <time>2022-06-26T09:03:36Z</time>
      </trkpt>
      <trkpt lat="48.0368" lon="6.82189">
        <ele>771.4</ele>
        <time>2022-06-26T09:03:38Z</time>
      </trkpt>
      <trkpt lat="48.03679" lon="6.82178">
        <ele>770.6</ele>
        <time>2022-06-26T09:03:39Z</time>
      </trkpt>
      <trkpt lat="48.03675" lon="6.82168">
        <ele>769.8</ele>
        <time>2022-06-26T09:03:40Z</time>
      </trkpt>
      <trkpt lat="48.03669" lon="6.82156">
        <ele>769.2</ele>
        <time>2022-06-26T09:03:41Z</time>
      </trkpt>
      <trkpt lat="48.0366" lon="6.82134">
        <ele>768.2</ele>
        <time>2022-06-26T09:03:43Z</time>
      </trkpt>
      <trkpt lat="48.03658" lon="6.82124">
        <ele>767.6</ele>
        <time>2022-06-26T09:03:44Z</time>
      </trkpt>
      <trkpt lat="48.03659" lon="6.82113">
        <ele>765.8</ele>
        <time>2022-06-26T09:03:45Z</time>
      </trkpt>
      <trkpt lat="48.03659" lon="6.82103">
        <ele>765</ele>
        <time>2022-06-26T09:03:46Z</time>
      </trkpt>
      <trkpt lat="48.03658" lon="6.82094">
        <ele>763.4</ele>
        <time>2022-06-26T09:03:47Z</time>
      </trkpt>
      <trkpt lat="48.03657" lon="6.82085">
        <ele>763</ele>
        <time>2022-06-26T09:03:48Z</time>
      </trkpt>
      <trkpt lat="48.03655" lon="6.82076">
        <ele>762.4</ele>
        <time>2022-06-26T09:03:49Z</time>
      </trkpt>
      <trkpt lat="48.03655" lon="6.82068">
        <ele>762.2</ele>
        <time>2022-06-26T09:03:50Z</time>
      </trkpt>
      <trkpt lat="48.03654" lon="6.82059">
        <ele>762.2</ele>
        <time>2022-06-26T09:03:51Z</time>
      </trkpt>
      <trkpt lat="48.03654" lon="6.82051">
        <ele>761.8</ele>
        <time>2022-06-26T09:03:52Z</time>
      </trkpt>
      <trkpt lat="48.03654" lon="6.82042">
        <ele>761.8</ele>
        <time>2022-06-26T09:03:53Z</time>
      </trkpt>
      <trkpt lat="48.03649" lon="6.82024">
        <ele>761.2</ele>
        <time>2022-06-26T09:03:55Z</time>
      </trkpt>
      <trkpt lat="48.03642" lon="6.81989">
        <ele>760</ele>
        <time>2022-06-26T09:03:58Z</time>
      </trkpt>
      <trkpt lat="48.03639" lon="6.81979">
        <ele>759.4</ele>
        <time>2022-06-26T09:03:59Z</time>
      </trkpt>
      <trkpt lat="48.03634" lon="6.81971">
        <ele>759</ele>
        <time>2022-06-26T09:04:00Z</time>
      </trkpt>
      <trkpt lat="48.0363" lon="6.81964">
        <ele>758.2</ele>
        <time>2022-06-26T09:04:01Z</time>
      </trkpt>
      <trkpt lat="48.03625" lon="6.81954">
        <ele>757.8</ele>
        <time>2022-06-26T09:04:02Z</time>
      </trkpt>
      <trkpt lat="48.03618" lon="6.81938">
        <ele>757.2</ele>
        <time>2022-06-26T09:04:04Z</time>
      </trkpt>
      <trkpt lat="48.03614" lon="6.81927">
        <ele>756.8</ele>
        <time>2022-06-26T09:04:05Z</time>
      </trkpt>
      <trkpt lat="48.03611" lon="6.81913">
        <ele>756.8</ele>
        <time>2022-06-26T09:04:06Z</time>
      </trkpt>
      <trkpt lat="48.03606" lon="6.81892">
        <ele>755.8</ele>
        <time>2022-06-26T09:04:08Z</time>
      </trkpt>
      <trkpt lat="48.03604" lon="6.81879">
        <ele>755.6</ele>
        <time>2022-06-26T09:04:09Z</time>
      </trkpt>
      <trkpt lat="48.036" lon="6.81857">
        <ele>754.8</ele>
        <time>2022-06-26T09:04:11Z</time>
      </trkpt>
      <trkpt lat="48.03597" lon="6.81848">
        <ele>754.2</ele>
        <time>2022-06-26T09:04:12Z</time>
      </trkpt>
      <trkpt lat="48.03595" lon="6.81839">
        <ele>754</ele>
        <time>2022-06-26T09:04:13Z</time>
      </trkpt>
      <trkpt lat="48.03594" lon="6.8183">
        <ele>753.8</ele>
        <time>2022-06-26T09:04:14Z</time>
      </trkpt>
      <trkpt lat="48.03592" lon="6.81822">
        <ele>753.6</ele>
        <time>2022-06-26T09:04:15Z</time>
      </trkpt>
      <trkpt lat="48.0359" lon="6.81814">
        <ele>753.4</ele>
        <time>2022-06-26T09:04:16Z</time>
      </trkpt>
      <trkpt lat="48.03586" lon="6.81803">
        <ele>752.8</ele>
        <time>2022-06-26T09:04:17Z</time>
      </trkpt>
      <trkpt lat="48.0358" lon="6.81786">
        <ele>751.6</ele>
        <time>2022-06-26T09:04:19Z</time>
      </trkpt>
      <trkpt lat="48.03575" lon="6.81764">
        <ele>750.4</ele>
        <time>2022-06-26T09:04:21Z</time>
      </trkpt>
      <trkpt lat="48.03573" lon="6.81756">
        <ele>750.2</ele>
        <time>2022-06-26T09:04:22Z</time>
      </trkpt>
      <trkpt lat="48.03572" lon="6.8175">
        <ele>749.2</ele>
        <time>2022-06-26T09:04:23Z</time>
      </trkpt>
      <trkpt lat="48.03572" lon="6.81743">
        <ele>748.8</ele>
        <time>2022-06-26T09:04:24Z</time>
      </trkpt>
      <trkpt lat="48.03573" lon="6.81737">
        <ele>747.8</ele>
        <time>2022-06-26T09:04:25Z</time>
      </trkpt>
      <trkpt lat="48.03574" lon="6.8173">
        <ele>747.2</ele>
        <time>2022-06-26T09:04:26Z</time>
      </trkpt>
      <trkpt lat="48.03574" lon="6.81723">
        <ele>747</ele>
        <time>2022-06-26T09:04:27Z</time>
      </trkpt>
      <trkpt lat="48.03573" lon="6.81715">
        <ele>746.6</ele>
        <time>2022-06-26T09:04:28Z</time>
      </trkpt>
      <trkpt lat="48.03571" lon="6.81698">
        <ele>746.2</ele>
        <time>2022-06-26T09:04:30Z</time>
      </trkpt>
      <trkpt lat="48.0357" lon="6.81681">
        <ele>744.8</ele>
        <time>2022-06-26T09:04:32Z</time>
      </trkpt>
      <trkpt lat="48.03568" lon="6.81649">
        <ele>743.4</ele>
        <time>2022-06-26T09:04:35Z</time>
      </trkpt>
      <trkpt lat="48.03568" lon="6.81639">
        <ele>742.6</ele>
        <time>2022-06-26T09:04:36Z</time>
      </trkpt>
      <trkpt lat="48.03569" lon="6.81628">
        <ele>741.6</ele>
        <time>2022-06-26T09:04:37Z</time>
      </trkpt>
      <trkpt lat="48.0357" lon="6.81607">
        <ele>740.8</ele>
        <time>2022-06-26T09:04:39Z</time>
      </trkpt>
      <trkpt lat="48.0357" lon="6.81597">
        <ele>740.6</ele>
        <time>2022-06-26T09:04:40Z</time>
      </trkpt>
      <trkpt lat="48.03571" lon="6.81586">
        <ele>740.2</ele>
        <time>2022-06-26T09:04:41Z</time>
      </trkpt>
      <trkpt lat="48.03573" lon="6.81564">
        <ele>739.4</ele>
        <time>2022-06-26T09:04:43Z</time>
      </trkpt>
      <trkpt lat="48.03574" lon="6.81553">
        <ele>738.4</ele>
        <time>2022-06-26T09:04:44Z</time>
      </trkpt>
      <trkpt lat="48.03575" lon="6.81542">
        <ele>738</ele>
        <time>2022-06-26T09:04:45Z</time>
      </trkpt>
      <trkpt lat="48.03575" lon="6.8153">
        <ele>736.8</ele>
        <time>2022-06-26T09:04:46Z</time>
      </trkpt>
      <trkpt lat="48.03574" lon="6.81517">
        <ele>736</ele>
        <time>2022-06-26T09:04:47Z</time>
      </trkpt>
      <trkpt lat="48.03572" lon="6.81505">
        <ele>734.6</ele>
        <time>2022-06-26T09:04:48Z</time>
      </trkpt>
      <trkpt lat="48.03569" lon="6.81493">
        <ele>734</ele>
        <time>2022-06-26T09:04:49Z</time>
      </trkpt>
      <trkpt lat="48.03567" lon="6.8148">
        <ele>733.4</ele>
        <time>2022-06-26T09:04:50Z</time>
      </trkpt>
      <trkpt lat="48.03565" lon="6.81467">
        <ele>733</ele>
        <time>2022-06-26T09:04:51Z</time>
      </trkpt>
      <trkpt lat="48.03562" lon="6.81456">
        <ele>732</ele>
        <time>2022-06-26T09:04:52Z</time>
      </trkpt>
      <trkpt lat="48.0356" lon="6.81448">
        <ele>731.2</ele>
        <time>2022-06-26T09:04:53Z</time>
      </trkpt>
      <trkpt lat="48.03558" lon="6.81434">
        <ele>731</ele>
        <time>2022-06-26T09:04:54Z</time>
      </trkpt>
      <trkpt lat="48.03555" lon="6.81424">
        <ele>730.6</ele>
        <time>2022-06-26T09:04:55Z</time>
      </trkpt>
      <trkpt lat="48.03554" lon="6.81417">
        <ele>730.4</ele>
        <time>2022-06-26T09:04:56Z</time>
      </trkpt>
      <trkpt lat="48.03553" lon="6.8141">
        <ele>730</ele>
        <time>2022-06-26T09:04:57Z</time>
      </trkpt>
      <trkpt lat="48.03551" lon="6.81403">
        <ele>729.8</ele>
        <time>2022-06-26T09:04:58Z</time>
      </trkpt>
      <trkpt lat="48.03549" lon="6.81397">
        <ele>727.8</ele>
        <time>2022-06-26T09:04:59Z</time>
      </trkpt>
      <trkpt lat="48.03548" lon="6.81389">
        <ele>727.2</ele>
        <time>2022-06-26T09:05:00Z</time>
      </trkpt>
      <trkpt lat="48.03549" lon="6.8138">
        <ele>726.6</ele>
        <time>2022-06-26T09:05:01Z</time>
      </trkpt>
      <trkpt lat="48.03551" lon="6.81371">
        <ele>726.2</ele>
        <time>2022-06-26T09:05:02Z</time>
      </trkpt>
      <trkpt lat="48.03553" lon="6.81362">
        <ele>726.2</ele>
        <time>2022-06-26T09:05:03Z</time>
      </trkpt>
      <trkpt lat="48.03554" lon="6.81355">
        <ele>725</ele>
        <time>2022-06-26T09:05:04Z</time>
      </trkpt>
      <trkpt lat="48.03555" lon="6.81346">
        <ele>724.6</ele>
        <time>2022-06-26T09:05:05Z</time>
      </trkpt>
      <trkpt lat="48.03554" lon="6.81334">
        <ele>723.2</ele>
        <time>2022-06-26T09:05:06Z</time>
      </trkpt>
      <trkpt lat="48.03553" lon="6.81325">
        <ele>722.2</ele>
        <time>2022-06-26T09:05:07Z</time>
      </trkpt>
      <trkpt lat="48.03552" lon="6.81317">
        <ele>720.8</ele>
        <time>2022-06-26T09:05:08Z</time>
      </trkpt>
      <trkpt lat="48.03552" lon="6.81302">
        <ele>720</ele>
        <time>2022-06-26T09:05:10Z</time>
      </trkpt>
      <trkpt lat="48.03551" lon="6.81295">
        <ele>719</ele>
        <time>2022-06-26T09:05:11Z</time>
      </trkpt>
      <trkpt lat="48.03551" lon="6.81281">
        <ele>717.8</ele>
        <time>2022-06-26T09:05:13Z</time>
      </trkpt>
      <trkpt lat="48.03551" lon="6.81273">
        <ele>717.4</ele>
        <time>2022-06-26T09:05:14Z</time>
      </trkpt>
      <trkpt lat="48.0355" lon="6.81265">
        <ele>716.6</ele>
        <time>2022-06-26T09:05:15Z</time>
      </trkpt>
      <trkpt lat="48.03548" lon="6.81246">
        <ele>715.6</ele>
        <time>2022-06-26T09:05:17Z</time>
      </trkpt>
      <trkpt lat="48.03549" lon="6.81225">
        <ele>713.8</ele>
        <time>2022-06-26T09:05:19Z</time>
      </trkpt>
      <trkpt lat="48.03549" lon="6.81214">
        <ele>712.6</ele>
        <time>2022-06-26T09:05:20Z</time>
      </trkpt>
      <trkpt lat="48.0355" lon="6.81193">
        <ele>711.2</ele>
        <time>2022-06-26T09:05:22Z</time>
      </trkpt>
      <trkpt lat="48.0355" lon="6.81183">
        <ele>710.8</ele>
        <time>2022-06-26T09:05:23Z</time>
      </trkpt>
      <trkpt lat="48.03552" lon="6.81174">
        <ele>710.2</ele>
        <time>2022-06-26T09:05:24Z</time>
      </trkpt>
      <trkpt lat="48.03553" lon="6.81166">
        <ele>709.8</ele>
        <time>2022-06-26T09:05:25Z</time>
      </trkpt>
      <trkpt lat="48.03553" lon="6.81158">
        <ele>709.2</ele>
        <time>2022-06-26T09:05:26Z</time>
      </trkpt>
      <trkpt lat="48.03554" lon="6.81149">
        <ele>709</ele>
        <time>2022-06-26T09:05:27Z</time>
      </trkpt>
      <trkpt lat="48.03554" lon="6.81141">
        <ele>707.6</ele>
        <time>2022-06-26T09:05:28Z</time>
      </trkpt>
      <trkpt lat="48.03555" lon="6.81132">
        <ele>706.8</ele>
        <time>2022-06-26T09:05:29Z</time>
      </trkpt>
      <trkpt lat="48.03555" lon="6.81124">
        <ele>706.2</ele>
        <time>2022-06-26T09:05:30Z</time>
      </trkpt>
      <trkpt lat="48.03555" lon="6.81116">
        <ele>705</ele>
        <time>2022-06-26T09:05:31Z</time>
      </trkpt>
      <trkpt lat="48.03556" lon="6.81096">
        <ele>703.6</ele>
        <time>2022-06-26T09:05:33Z</time>
      </trkpt>
      <trkpt lat="48.03557" lon="6.8109">
        <ele>703.2</ele>
        <time>2022-06-26T09:05:34Z</time>
      </trkpt>
      <trkpt lat="48.03557" lon="6.8108">
        <ele>702</ele>
        <time>2022-06-26T09:05:35Z</time>
      </trkpt>
      <trkpt lat="48.03556" lon="6.81064">
        <ele>700.2</ele>
        <time>2022-06-26T09:05:37Z</time>
      </trkpt>
      <trkpt lat="48.03555" lon="6.81056">
        <ele>699</ele>
        <time>2022-06-26T09:05:38Z</time>
      </trkpt>
      <trkpt lat="48.03553" lon="6.81038">
        <ele>698.2</ele>
        <time>2022-06-26T09:05:40Z</time>
      </trkpt>
      <trkpt lat="48.03551" lon="6.81029">
        <ele>698</ele>
        <time>2022-06-26T09:05:41Z</time>
      </trkpt>
      <trkpt lat="48.03549" lon="6.8102">
        <ele>697.4</ele>
        <time>2022-06-26T09:05:42Z</time>
      </trkpt>
      <trkpt lat="48.03541" lon="6.81005">
        <ele>695.6</ele>
        <time>2022-06-26T09:05:44Z</time>
      </trkpt>
      <trkpt lat="48.03536" lon="6.81">
        <ele>695</ele>
        <time>2022-06-26T09:05:45Z</time>
      </trkpt>
      <trkpt lat="48.03532" lon="6.80992">
        <ele>694.2</ele>
        <time>2022-06-26T09:05:46Z</time>
      </trkpt>
      <trkpt lat="48.03526" lon="6.80973">
        <ele>693</ele>
        <time>2022-06-26T09:05:48Z</time>
      </trkpt>
      <trkpt lat="48.03525" lon="6.80963">
        <ele>691.8</ele>
        <time>2022-06-26T09:05:49Z</time>
      </trkpt>
      <trkpt lat="48.03523" lon="6.80954">
        <ele>691.4</ele>
        <time>2022-06-26T09:05:50Z</time>
      </trkpt>
      <trkpt lat="48.03523" lon="6.80944">
        <ele>690.6</ele>
        <time>2022-06-26T09:05:51Z</time>
      </trkpt>
      <trkpt lat="48.03522" lon="6.80927">
        <ele>688.8</ele>
        <time>2022-06-26T09:05:53Z</time>
      </trkpt>
      <trkpt lat="48.0352" lon="6.80908">
        <ele>687.8</ele>
        <time>2022-06-26T09:05:55Z</time>
      </trkpt>
      <trkpt lat="48.03518" lon="6.80899">
        <ele>687</ele>
        <time>2022-06-26T09:05:56Z</time>
      </trkpt>
      <trkpt lat="48.03513" lon="6.80879">
        <ele>686.2</ele>
        <time>2022-06-26T09:05:58Z</time>
      </trkpt>
      <trkpt lat="48.03511" lon="6.80866">
        <ele>685.2</ele>
        <time>2022-06-26T09:05:59Z</time>
      </trkpt>
      <trkpt lat="48.0351" lon="6.80854">
        <ele>684</ele>
        <time>2022-06-26T09:06:00Z</time>
      </trkpt>
      <trkpt lat="48.03507" lon="6.80834">
        <ele>682.6</ele>
        <time>2022-06-26T09:06:02Z</time>
      </trkpt>
      <trkpt lat="48.03504" lon="6.80823">
        <ele>682.4</ele>
        <time>2022-06-26T09:06:03Z</time>
      </trkpt>
      <trkpt lat="48.03502" lon="6.80812">
        <ele>681.2</ele>
        <time>2022-06-26T09:06:04Z</time>
      </trkpt>
      <trkpt lat="48.035" lon="6.808">
        <ele>680.2</ele>
        <time>2022-06-26T09:06:05Z</time>
      </trkpt>
      <trkpt lat="48.03499" lon="6.8079">
        <ele>679.8</ele>
        <time>2022-06-26T09:06:06Z</time>
      </trkpt>
      <trkpt lat="48.03498" lon="6.80777">
        <ele>679.2</ele>
        <time>2022-06-26T09:06:07Z</time>
      </trkpt>
      <trkpt lat="48.03497" lon="6.80768">
        <ele>678.4</ele>
        <time>2022-06-26T09:06:08Z</time>
      </trkpt>
      <trkpt lat="48.03496" lon="6.80759">
        <ele>677</ele>
        <time>2022-06-26T09:06:09Z</time>
      </trkpt>
      <trkpt lat="48.03494" lon="6.80751">
        <ele>676.2</ele>
        <time>2022-06-26T09:06:10Z</time>
      </trkpt>
      <trkpt lat="48.03493" lon="6.80744">
        <ele>675.2</ele>
        <time>2022-06-26T09:06:11Z</time>
      </trkpt>
      <trkpt lat="48.03491" lon="6.80737">
        <ele>675</ele>
        <time>2022-06-26T09:06:12Z</time>
      </trkpt>
      <trkpt lat="48.0349" lon="6.80729">
        <ele>673.4</ele>
        <time>2022-06-26T09:06:13Z</time>
      </trkpt>
      <trkpt lat="48.03488" lon="6.80722">
        <ele>672.2</ele>
        <time>2022-06-26T09:06:14Z</time>
      </trkpt>
      <trkpt lat="48.03487" lon="6.80716">
        <ele>671.6</ele>
        <time>2022-06-26T09:06:15Z</time>
      </trkpt>
      <trkpt lat="48.03487" lon="6.8071">
        <ele>670.6</ele>
        <time>2022-06-26T09:06:16Z</time>
      </trkpt>
      <trkpt lat="48.03487" lon="6.80703">
        <ele>669.6</ele>
        <time>2022-06-26T09:06:17Z</time>
      </trkpt>
      <trkpt lat="48.03486" lon="6.80694">
        <ele>668.4</ele>
        <time>2022-06-26T09:06:18Z</time>
      </trkpt>
      <trkpt lat="48.03483" lon="6.80676">
        <ele>667.2</ele>
        <time>2022-06-26T09:06:20Z</time>
      </trkpt>
      <trkpt lat="48.03482" lon="6.80665">
        <ele>666.8</ele>
        <time>2022-06-26T09:06:21Z</time>
      </trkpt>
      <trkpt lat="48.0348" lon="6.80655">
        <ele>665.6</ele>
        <time>2022-06-26T09:06:22Z</time>
      </trkpt>
      <trkpt lat="48.03479" lon="6.80644">
        <ele>664.6</ele>
        <time>2022-06-26T09:06:23Z</time>
      </trkpt>
      <trkpt lat="48.03479" lon="6.80633">
        <ele>664.4</ele>
        <time>2022-06-26T09:06:24Z</time>
      </trkpt>
      <trkpt lat="48.03479" lon="6.80615">
        <ele>663.4</ele>
        <time>2022-06-26T09:06:26Z</time>
      </trkpt>
      <trkpt lat="48.03478" lon="6.80606">
        <ele>662.8</ele>
        <time>2022-06-26T09:06:27Z</time>
      </trkpt>
      <trkpt lat="48.03476" lon="6.80597">
        <ele>662.6</ele>
        <time>2022-06-26T09:06:28Z</time>
      </trkpt>
      <trkpt lat="48.03475" lon="6.80588">
        <ele>661.8</ele>
        <time>2022-06-26T09:06:29Z</time>
      </trkpt>
      <trkpt lat="48.03473" lon="6.80578">
        <ele>661.4</ele>
        <time>2022-06-26T09:06:30Z</time>
      </trkpt>
      <trkpt lat="48.03471" lon="6.80568">
        <ele>660.6</ele>
        <time>2022-06-26T09:06:31Z</time>
      </trkpt>
      <trkpt lat="48.03468" lon="6.80559">
        <ele>660.2</ele>
        <time>2022-06-26T09:06:32Z</time>
      </trkpt>
      <trkpt lat="48.03466" lon="6.80549">
        <ele>660.2</ele>
        <time>2022-06-26T09:06:33Z</time>
      </trkpt>
      <trkpt lat="48.03464" lon="6.80541">
        <ele>659.2</ele>
        <time>2022-06-26T09:06:34Z</time>
      </trkpt>
      <trkpt lat="48.03461" lon="6.80532">
        <ele>659</ele>
        <time>2022-06-26T09:06:35Z</time>
      </trkpt>
      <trkpt lat="48.03461" lon="6.80524">
        <ele>658.4</ele>
        <time>2022-06-26T09:06:36Z</time>
      </trkpt>
      <trkpt lat="48.0346" lon="6.80514">
        <ele>658.2</ele>
        <time>2022-06-26T09:06:37Z</time>
      </trkpt>
      <trkpt lat="48.03458" lon="6.80504">
        <ele>656.4</ele>
        <time>2022-06-26T09:06:38Z</time>
      </trkpt>
      <trkpt lat="48.03454" lon="6.80481">
        <ele>654.8</ele>
        <time>2022-06-26T09:06:40Z</time>
      </trkpt>
      <trkpt lat="48.03452" lon="6.80469">
        <ele>654</ele>
        <time>2022-06-26T09:06:41Z</time>
      </trkpt>
      <trkpt lat="48.03451" lon="6.80458">
        <ele>653.8</ele>
        <time>2022-06-26T09:06:42Z</time>
      </trkpt>
      <trkpt lat="48.0345" lon="6.80448">
        <ele>652.6</ele>
        <time>2022-06-26T09:06:43Z</time>
      </trkpt>
      <trkpt lat="48.0345" lon="6.80437">
        <ele>651.6</ele>
        <time>2022-06-26T09:06:44Z</time>
      </trkpt>
      <trkpt lat="48.03451" lon="6.80425">
        <ele>650.4</ele>
        <time>2022-06-26T09:06:45Z</time>
      </trkpt>
      <trkpt lat="48.03452" lon="6.80402">
        <ele>649.2</ele>
        <time>2022-06-26T09:06:47Z</time>
      </trkpt>
      <trkpt lat="48.03453" lon="6.80378">
        <ele>648</ele>
        <time>2022-06-26T09:06:49Z</time>
      </trkpt>
      <trkpt lat="48.03453" lon="6.80366">
        <ele>647.2</ele>
        <time>2022-06-26T09:06:50Z</time>
      </trkpt>
      <trkpt lat="48.0345" lon="6.80343">
        <ele>646.4</ele>
        <time>2022-06-26T09:06:52Z</time>
      </trkpt>
      <trkpt lat="48.03448" lon="6.80332">
        <ele>645.8</ele>
        <time>2022-06-26T09:06:53Z</time>
      </trkpt>
      <trkpt lat="48.03445" lon="6.80321">
        <ele>644.8</ele>
        <time>2022-06-26T09:06:54Z</time>
      </trkpt>
      <trkpt lat="48.03439" lon="6.803">
        <ele>643.8</ele>
        <time>2022-06-26T09:06:56Z</time>
      </trkpt>
      <trkpt lat="48.03435" lon="6.80279">
        <ele>642.6</ele>
        <time>2022-06-26T09:06:58Z</time>
      </trkpt>
      <trkpt lat="48.03432" lon="6.80269">
        <ele>642</ele>
        <time>2022-06-26T09:06:59Z</time>
      </trkpt>
      <trkpt lat="48.03429" lon="6.80259">
        <ele>641.8</ele>
        <time>2022-06-26T09:07:00Z</time>
      </trkpt>
      <trkpt lat="48.03425" lon="6.80251">
        <ele>641.6</ele>
        <time>2022-06-26T09:07:01Z</time>
      </trkpt>
      <trkpt lat="48.0342" lon="6.80242">
        <ele>641.4</ele>
        <time>2022-06-26T09:07:02Z</time>
      </trkpt>
      <trkpt lat="48.03416" lon="6.80235">
        <ele>641.2</ele>
        <time>2022-06-26T09:07:03Z</time>
      </trkpt>
      <trkpt lat="48.03412" lon="6.80227">
        <ele>641.2</ele>
        <time>2022-06-26T09:07:04Z</time>
      </trkpt>
      <trkpt lat="48.03409" lon="6.8022">
        <ele>641.2</ele>
        <time>2022-06-26T09:07:05Z</time>
      </trkpt>
      <trkpt lat="48.03406" lon="6.80212">
        <ele>641</ele>
        <time>2022-06-26T09:07:06Z</time>
      </trkpt>
      <trkpt lat="48.03404" lon="6.80204">
        <ele>641</ele>
        <time>2022-06-26T09:07:07Z</time>
      </trkpt>
      <trkpt lat="48.03402" lon="6.80196">
        <ele>641</ele>
        <time>2022-06-26T09:07:08Z</time>
      </trkpt>
      <trkpt lat="48.034" lon="6.80189">
        <ele>641</ele>
        <time>2022-06-26T09:07:09Z</time>
      </trkpt>
      <trkpt lat="48.03396" lon="6.80175">
        <ele>641</ele>
        <time>2022-06-26T09:07:11Z</time>
      </trkpt>
      <trkpt lat="48.03394" lon="6.80168">
        <ele>640.8</ele>
        <time>2022-06-26T09:07:12Z</time>
      </trkpt>
      <trkpt lat="48.03392" lon="6.8016">
        <ele>640.8</ele>
        <time>2022-06-26T09:07:13Z</time>
      </trkpt>
      <trkpt lat="48.03387" lon="6.80139">
        <ele>640.4</ele>
        <time>2022-06-26T09:07:16Z</time>
      </trkpt>
      <trkpt lat="48.03384" lon="6.80133">
        <ele>640.4</ele>
        <time>2022-06-26T09:07:17Z</time>
      </trkpt>
      <trkpt lat="48.03382" lon="6.80127">
        <ele>640.4</ele>
        <time>2022-06-26T09:07:18Z</time>
      </trkpt>
      <trkpt lat="48.0338" lon="6.80122">
        <ele>640.4</ele>
        <time>2022-06-26T09:07:19Z</time>
      </trkpt>
      <trkpt lat="48.03377" lon="6.80115">
        <ele>640.4</ele>
        <time>2022-06-26T09:07:20Z</time>
      </trkpt>
      <trkpt lat="48.03375" lon="6.80109">
        <ele>640.4</ele>
        <time>2022-06-26T09:07:21Z</time>
      </trkpt>
      <trkpt lat="48.03373" lon="6.80103">
        <ele>640.4</ele>
        <time>2022-06-26T09:07:22Z</time>
      </trkpt>
      <trkpt lat="48.03372" lon="6.80096">
        <ele>640.2</ele>
        <time>2022-06-26T09:07:23Z</time>
      </trkpt>
      <trkpt lat="48.0337" lon="6.8009">
        <ele>640.4</ele>
        <time>2022-06-26T09:07:24Z</time>
      </trkpt>
      <trkpt lat="48.03367" lon="6.80086">
        <ele>640.4</ele>
        <time>2022-06-26T09:07:25Z</time>
      </trkpt>
      <trkpt lat="48.03363" lon="6.80081">
        <ele>640.4</ele>
        <time>2022-06-26T09:07:26Z</time>
      </trkpt>
      <trkpt lat="48.0336" lon="6.80075">
        <ele>640.4</ele>
        <time>2022-06-26T09:07:27Z</time>
      </trkpt>
      <trkpt lat="48.03352" lon="6.80055">
        <ele>640.4</ele>
        <time>2022-06-26T09:07:30Z</time>
      </trkpt>
      <trkpt lat="48.03351" lon="6.80048">
        <ele>640.4</ele>
        <time>2022-06-26T09:07:31Z</time>
      </trkpt>
      <trkpt lat="48.0335" lon="6.80035">
        <ele>640.2</ele>
        <time>2022-06-26T09:07:33Z</time>
      </trkpt>
      <trkpt lat="48.03349" lon="6.80022">
        <ele>640.2</ele>
        <time>2022-06-26T09:07:35Z</time>
      </trkpt>
      <trkpt lat="48.03346" lon="6.80007">
        <ele>640.2</ele>
        <time>2022-06-26T09:07:37Z</time>
      </trkpt>
      <trkpt lat="48.03345" lon="6.8">
        <ele>640</ele>
        <time>2022-06-26T09:07:38Z</time>
      </trkpt>
      <trkpt lat="48.03344" lon="6.79993">
        <ele>640</ele>
        <time>2022-06-26T09:07:39Z</time>
      </trkpt>
      <trkpt lat="48.0334" lon="6.79972">
        <ele>639.8</ele>
        <time>2022-06-26T09:07:42Z</time>
      </trkpt>
      <trkpt lat="48.03338" lon="6.79965">
        <ele>639.8</ele>
        <time>2022-06-26T09:07:43Z</time>
      </trkpt>
      <trkpt lat="48.03331" lon="6.79938">
        <ele>639.8</ele>
        <time>2022-06-26T09:07:47Z</time>
      </trkpt>
      <trkpt lat="48.03328" lon="6.79924">
        <ele>640</ele>
        <time>2022-06-26T09:07:49Z</time>
      </trkpt>
      <trkpt lat="48.03326" lon="6.7991">
        <ele>640</ele>
        <time>2022-06-26T09:07:51Z</time>
      </trkpt>
      <trkpt lat="48.03325" lon="6.79898">
        <ele>640</ele>
        <time>2022-06-26T09:07:53Z</time>
      </trkpt>
      <trkpt lat="48.03316" lon="6.79849">
        <ele>639.8</ele>
        <time>2022-06-26T09:08:00Z</time>
      </trkpt>
      <trkpt lat="48.03312" lon="6.79834">
        <ele>639.8</ele>
        <time>2022-06-26T09:08:02Z</time>
      </trkpt>
      <trkpt lat="48.03308" lon="6.79803">
        <ele>639.6</ele>
        <time>2022-06-26T09:08:06Z</time>
      </trkpt>
      <trkpt lat="48.03307" lon="6.79796">
        <ele>639.6</ele>
        <time>2022-06-26T09:08:07Z</time>
      </trkpt>
      <trkpt lat="48.033" lon="6.79748">
        <ele>638.8</ele>
        <time>2022-06-26T09:08:13Z</time>
      </trkpt>
      <trkpt lat="48.03297" lon="6.79732">
        <ele>638.4</ele>
        <time>2022-06-26T09:08:15Z</time>
      </trkpt>
      <trkpt lat="48.03292" lon="6.79716">
        <ele>638.2</ele>
        <time>2022-06-26T09:08:17Z</time>
      </trkpt>
      <trkpt lat="48.03287" lon="6.79698">
        <ele>637.8</ele>
        <time>2022-06-26T09:08:19Z</time>
      </trkpt>
      <trkpt lat="48.03286" lon="6.7969">
        <ele>637.6</ele>
        <time>2022-06-26T09:08:20Z</time>
      </trkpt>
      <trkpt lat="48.03286" lon="6.7967">
        <ele>637.2</ele>
        <time>2022-06-26T09:08:22Z</time>
      </trkpt>
      <trkpt lat="48.03288" lon="6.7966">
        <ele>637.2</ele>
        <time>2022-06-26T09:08:23Z</time>
      </trkpt>
      <trkpt lat="48.03291" lon="6.7965">
        <ele>636.8</ele>
        <time>2022-06-26T09:08:24Z</time>
      </trkpt>
      <trkpt lat="48.03293" lon="6.7964">
        <ele>636.4</ele>
        <time>2022-06-26T09:08:25Z</time>
      </trkpt>
      <trkpt lat="48.03295" lon="6.7963">
        <ele>636.4</ele>
        <time>2022-06-26T09:08:26Z</time>
      </trkpt>
      <trkpt lat="48.03297" lon="6.7962">
        <ele>636</ele>
        <time>2022-06-26T09:08:27Z</time>
      </trkpt>
      <trkpt lat="48.033" lon="6.79599">
        <ele>635.6</ele>
        <time>2022-06-26T09:08:29Z</time>
      </trkpt>
      <trkpt lat="48.033" lon="6.79578">
        <ele>635.2</ele>
        <time>2022-06-26T09:08:31Z</time>
      </trkpt>
      <trkpt lat="48.03298" lon="6.79568">
        <ele>635</ele>
        <time>2022-06-26T09:08:32Z</time>
      </trkpt>
      <trkpt lat="48.03295" lon="6.79558">
        <ele>635</ele>
        <time>2022-06-26T09:08:33Z</time>
      </trkpt>
      <trkpt lat="48.0329" lon="6.7955">
        <ele>634.6</ele>
        <time>2022-06-26T09:08:34Z</time>
      </trkpt>
      <trkpt lat="48.03285" lon="6.79542">
        <ele>634.6</ele>
        <time>2022-06-26T09:08:35Z</time>
      </trkpt>
      <trkpt lat="48.0328" lon="6.79536">
        <ele>634.4</ele>
        <time>2022-06-26T09:08:36Z</time>
      </trkpt>
      <trkpt lat="48.03274" lon="6.79527">
        <ele>634</ele>
        <time>2022-06-26T09:08:37Z</time>
      </trkpt>
      <trkpt lat="48.03268" lon="6.79519">
        <ele>633.6</ele>
        <time>2022-06-26T09:08:38Z</time>
      </trkpt>
      <trkpt lat="48.03263" lon="6.79511">
        <ele>633.6</ele>
        <time>2022-06-26T09:08:39Z</time>
      </trkpt>
      <trkpt lat="48.03257" lon="6.79505">
        <ele>633</ele>
        <time>2022-06-26T09:08:40Z</time>
      </trkpt>
      <trkpt lat="48.03243" lon="6.79494">
        <ele>632.4</ele>
        <time>2022-06-26T09:08:42Z</time>
      </trkpt>
      <trkpt lat="48.03238" lon="6.79489">
        <ele>631.8</ele>
        <time>2022-06-26T09:08:43Z</time>
      </trkpt>
      <trkpt lat="48.03231" lon="6.79484">
        <ele>631.6</ele>
        <time>2022-06-26T09:08:44Z</time>
      </trkpt>
      <trkpt lat="48.03226" lon="6.79481">
        <ele>631.4</ele>
        <time>2022-06-26T09:08:45Z</time>
      </trkpt>
      <trkpt lat="48.0322" lon="6.79476">
        <ele>631.2</ele>
        <time>2022-06-26T09:08:46Z</time>
      </trkpt>
      <trkpt lat="48.03214" lon="6.7947">
        <ele>631</ele>
        <time>2022-06-26T09:08:47Z</time>
      </trkpt>
      <trkpt lat="48.03188" lon="6.79433">
        <ele>630.4</ele>
        <time>2022-06-26T09:08:52Z</time>
      </trkpt>
      <trkpt lat="48.03182" lon="6.79425">
        <ele>630.2</ele>
        <time>2022-06-26T09:08:53Z</time>
      </trkpt>
      <trkpt lat="48.03172" lon="6.7941">
        <ele>630</ele>
        <time>2022-06-26T09:08:55Z</time>
      </trkpt>
      <trkpt lat="48.03165" lon="6.79389">
        <ele>629.4</ele>
        <time>2022-06-26T09:08:57Z</time>
      </trkpt>
      <trkpt lat="48.03162" lon="6.79378">
        <ele>629.2</ele>
        <time>2022-06-26T09:08:58Z</time>
      </trkpt>
      <trkpt lat="48.0316" lon="6.79368">
        <ele>629</ele>
        <time>2022-06-26T09:08:59Z</time>
      </trkpt>
      <trkpt lat="48.03159" lon="6.79358">
        <ele>628.8</ele>
        <time>2022-06-26T09:09:00Z</time>
      </trkpt>
      <trkpt lat="48.03159" lon="6.79348">
        <ele>628.6</ele>
        <time>2022-06-26T09:09:01Z</time>
      </trkpt>
      <trkpt lat="48.03159" lon="6.79338">
        <ele>628.4</ele>
        <time>2022-06-26T09:09:02Z</time>
      </trkpt>
      <trkpt lat="48.03159" lon="6.79329">
        <ele>628.2</ele>
        <time>2022-06-26T09:09:03Z</time>
      </trkpt>
      <trkpt lat="48.03159" lon="6.7932">
        <ele>627.8</ele>
        <time>2022-06-26T09:09:04Z</time>
      </trkpt>
      <trkpt lat="48.03159" lon="6.79311">
        <ele>627.2</ele>
        <time>2022-06-26T09:09:05Z</time>
      </trkpt>
      <trkpt lat="48.03157" lon="6.79303">
        <ele>627</ele>
        <time>2022-06-26T09:09:06Z</time>
      </trkpt>
      <trkpt lat="48.03155" lon="6.79291">
        <ele>626.8</ele>
        <time>2022-06-26T09:09:07Z</time>
      </trkpt>
      <trkpt lat="48.03151" lon="6.79282">
        <ele>626.6</ele>
        <time>2022-06-26T09:09:08Z</time>
      </trkpt>
      <trkpt lat="48.03147" lon="6.79274">
        <ele>626.4</ele>
        <time>2022-06-26T09:09:09Z</time>
      </trkpt>
      <trkpt lat="48.0314" lon="6.79269">
        <ele>626.4</ele>
        <time>2022-06-26T09:09:10Z</time>
      </trkpt>
      <trkpt lat="48.03133" lon="6.79264">
        <ele>626.2</ele>
        <time>2022-06-26T09:09:11Z</time>
      </trkpt>
      <trkpt lat="48.03127" lon="6.79261">
        <ele>625.8</ele>
        <time>2022-06-26T09:09:12Z</time>
      </trkpt>
      <trkpt lat="48.03121" lon="6.7926">
        <ele>625.6</ele>
        <time>2022-06-26T09:09:13Z</time>
      </trkpt>
      <trkpt lat="48.03115" lon="6.79258">
        <ele>625.2</ele>
        <time>2022-06-26T09:09:14Z</time>
      </trkpt>
      <trkpt lat="48.03108" lon="6.79258">
        <ele>625</ele>
        <time>2022-06-26T09:09:15Z</time>
      </trkpt>
      <trkpt lat="48.03101" lon="6.79257">
        <ele>624.4</ele>
        <time>2022-06-26T09:09:16Z</time>
      </trkpt>
      <trkpt lat="48.03094" lon="6.79256">
        <ele>624.2</ele>
        <time>2022-06-26T09:09:17Z</time>
      </trkpt>
      <trkpt lat="48.03079" lon="6.79253">
        <ele>623.4</ele>
        <time>2022-06-26T09:09:19Z</time>
      </trkpt>
      <trkpt lat="48.03073" lon="6.79249">
        <ele>623.2</ele>
        <time>2022-06-26T09:09:20Z</time>
      </trkpt>
      <trkpt lat="48.03066" lon="6.79243">
        <ele>623</ele>
        <time>2022-06-26T09:09:21Z</time>
      </trkpt>
      <trkpt lat="48.03062" lon="6.79239">
        <ele>622.8</ele>
        <time>2022-06-26T09:09:22Z</time>
      </trkpt>
      <trkpt lat="48.03057" lon="6.79232">
        <ele>622.6</ele>
        <time>2022-06-26T09:09:23Z</time>
      </trkpt>
      <trkpt lat="48.03053" lon="6.79225">
        <ele>622.4</ele>
        <time>2022-06-26T09:09:24Z</time>
      </trkpt>
      <trkpt lat="48.0305" lon="6.79216">
        <ele>622.2</ele>
        <time>2022-06-26T09:09:25Z</time>
      </trkpt>
      <trkpt lat="48.03047" lon="6.79207">
        <ele>622</ele>
        <time>2022-06-26T09:09:26Z</time>
      </trkpt>
      <trkpt lat="48.03046" lon="6.79198">
        <ele>622</ele>
        <time>2022-06-26T09:09:27Z</time>
      </trkpt>
      <trkpt lat="48.03045" lon="6.79187">
        <ele>621.8</ele>
        <time>2022-06-26T09:09:28Z</time>
      </trkpt>
      <trkpt lat="48.03046" lon="6.79173">
        <ele>621.8</ele>
        <time>2022-06-26T09:09:29Z</time>
      </trkpt>
      <trkpt lat="48.03046" lon="6.79164">
        <ele>621.6</ele>
        <time>2022-06-26T09:09:30Z</time>
      </trkpt>
      <trkpt lat="48.03044" lon="6.7914">
        <ele>621.2</ele>
        <time>2022-06-26T09:09:32Z</time>
      </trkpt>
      <trkpt lat="48.03042" lon="6.7913">
        <ele>621.2</ele>
        <time>2022-06-26T09:09:33Z</time>
      </trkpt>
      <trkpt lat="48.0304" lon="6.79118">
        <ele>620.8</ele>
        <time>2022-06-26T09:09:34Z</time>
      </trkpt>
      <trkpt lat="48.03033" lon="6.79098">
        <ele>620</ele>
        <time>2022-06-26T09:09:36Z</time>
      </trkpt>
      <trkpt lat="48.0303" lon="6.79087">
        <ele>619.6</ele>
        <time>2022-06-26T09:09:37Z</time>
      </trkpt>
      <trkpt lat="48.03019" lon="6.79055">
        <ele>619.2</ele>
        <time>2022-06-26T09:09:40Z</time>
      </trkpt>
      <trkpt lat="48.03003" lon="6.79012">
        <ele>618.6</ele>
        <time>2022-06-26T09:09:44Z</time>
      </trkpt>
      <trkpt lat="48.02988" lon="6.78983">
        <ele>618.2</ele>
        <time>2022-06-26T09:09:47Z</time>
      </trkpt>
      <trkpt lat="48.02983" lon="6.78973">
        <ele>617.8</ele>
        <time>2022-06-26T09:09:48Z</time>
      </trkpt>
      <trkpt lat="48.02979" lon="6.78963">
        <ele>617.8</ele>
        <time>2022-06-26T09:09:49Z</time>
      </trkpt>
      <trkpt lat="48.02976" lon="6.7895">
        <ele>617.6</ele>
        <time>2022-06-26T09:09:50Z</time>
      </trkpt>
      <trkpt lat="48.02972" lon="6.78927">
        <ele>617</ele>
        <time>2022-06-26T09:09:52Z</time>
      </trkpt>
      <trkpt lat="48.02971" lon="6.78914">
        <ele>616.8</ele>
        <time>2022-06-26T09:09:53Z</time>
      </trkpt>
      <trkpt lat="48.02966" lon="6.78893">
        <ele>616.6</ele>
        <time>2022-06-26T09:09:55Z</time>
      </trkpt>
      <trkpt lat="48.02963" lon="6.78881">
        <ele>616.6</ele>
        <time>2022-06-26T09:09:56Z</time>
      </trkpt>
      <trkpt lat="48.02935" lon="6.78813">
        <ele>615.8</ele>
        <time>2022-06-26T09:10:02Z</time>
      </trkpt>
      <trkpt lat="48.0293" lon="6.78804">
        <ele>615.6</ele>
        <time>2022-06-26T09:10:03Z</time>
      </trkpt>
      <trkpt lat="48.0291" lon="6.7878">
        <ele>614.8</ele>
        <time>2022-06-26T09:10:06Z</time>
      </trkpt>
      <trkpt lat="48.02904" lon="6.78773">
        <ele>614.6</ele>
        <time>2022-06-26T09:10:07Z</time>
      </trkpt>
      <trkpt lat="48.029" lon="6.78769">
        <ele>614.4</ele>
        <time>2022-06-26T09:10:08Z</time>
      </trkpt>
      <trkpt lat="48.02898" lon="6.78765">
        <ele>614.4</ele>
        <time>2022-06-26T09:10:09Z</time>
      </trkpt>
      <trkpt lat="48.02899" lon="6.78763">
        <ele>614.2</ele>
        <time>2022-06-26T09:10:10Z</time>
      </trkpt>
      <trkpt lat="48.02901" lon="6.78763">
        <ele>614</ele>
        <time>2022-06-26T09:10:11Z</time>
      </trkpt>
      <trkpt lat="48.02904" lon="6.78764">
        <ele>613.8</ele>
        <time>2022-06-26T09:10:12Z</time>
      </trkpt>
      <trkpt lat="48.0291" lon="6.78769">
        <ele>613.4</ele>
        <time>2022-06-26T09:10:14Z</time>
      </trkpt>
      <trkpt lat="48.02913" lon="6.78773">
        <ele>613.4</ele>
        <time>2022-06-26T09:10:15Z</time>
      </trkpt>
      <trkpt lat="48.02917" lon="6.78778">
        <ele>613.4</ele>
        <time>2022-06-26T09:10:16Z</time>
      </trkpt>
      <trkpt lat="48.02927" lon="6.7879">
        <ele>613</ele>
        <time>2022-06-26T09:10:19Z</time>
      </trkpt>
      <trkpt lat="48.02931" lon="6.78794">
        <ele>612.8</ele>
        <time>2022-06-26T09:10:20Z</time>
      </trkpt>
      <trkpt lat="48.02939" lon="6.78803">
        <ele>612.4</ele>
        <time>2022-06-26T09:10:22Z</time>
      </trkpt>
      <trkpt lat="48.02947" lon="6.78814">
        <ele>612.2</ele>
        <time>2022-06-26T09:10:24Z</time>
      </trkpt>
      <trkpt lat="48.02957" lon="6.78833">
        <ele>612</ele>
        <time>2022-06-26T09:10:27Z</time>
      </trkpt>
      <trkpt lat="48.0297" lon="6.78857">
        <ele>611.4</ele>
        <time>2022-06-26T09:10:31Z</time>
      </trkpt>
      <trkpt lat="48.02971" lon="6.78863">
        <ele>611.4</ele>
        <time>2022-06-26T09:10:32Z</time>
      </trkpt>
      <trkpt lat="48.02973" lon="6.78868">
        <ele>611.2</ele>
        <time>2022-06-26T09:10:33Z</time>
      </trkpt>
      <trkpt lat="48.02975" lon="6.78872">
        <ele>611</ele>
        <time>2022-06-26T09:10:34Z</time>
      </trkpt>
      <trkpt lat="48.02976" lon="6.78877">
        <ele>610.8</ele>
        <time>2022-06-26T09:10:35Z</time>
      </trkpt>
      <trkpt lat="48.02978" lon="6.78883">
        <ele>610.6</ele>
        <time>2022-06-26T09:10:36Z</time>
      </trkpt>
      <trkpt lat="48.02981" lon="6.78888">
        <ele>610.2</ele>
        <time>2022-06-26T09:10:37Z</time>
      </trkpt>
      <trkpt lat="48.02985" lon="6.78895">
        <ele>610</ele>
        <time>2022-06-26T09:10:38Z</time>
      </trkpt>
      <trkpt lat="48.0299" lon="6.78901">
        <ele>610</ele>
        <time>2022-06-26T09:10:39Z</time>
      </trkpt>
      <trkpt lat="48.02997" lon="6.78906">
        <ele>609.6</ele>
        <time>2022-06-26T09:10:40Z</time>
      </trkpt>
      <trkpt lat="48.03002" lon="6.78907">
        <ele>609.4</ele>
        <time>2022-06-26T09:10:41Z</time>
      </trkpt>
      <trkpt lat="48.03007" lon="6.78907">
        <ele>609.2</ele>
        <time>2022-06-26T09:10:42Z</time>
      </trkpt>
      <trkpt lat="48.03011" lon="6.78906">
        <ele>609</ele>
        <time>2022-06-26T09:10:43Z</time>
      </trkpt>
      <trkpt lat="48.03015" lon="6.78905">
        <ele>607.8</ele>
        <time>2022-06-26T09:10:44Z</time>
      </trkpt>
      <trkpt lat="48.0302" lon="6.78903">
        <ele>607.2</ele>
        <time>2022-06-26T09:10:45Z</time>
      </trkpt>
      <trkpt lat="48.03024" lon="6.78901">
        <ele>606.8</ele>
        <time>2022-06-26T09:10:46Z</time>
      </trkpt>
      <trkpt lat="48.03027" lon="6.78898">
        <ele>606.4</ele>
        <time>2022-06-26T09:10:47Z</time>
      </trkpt>
      <trkpt lat="48.0303" lon="6.78895">
        <ele>606.2</ele>
        <time>2022-06-26T09:10:48Z</time>
      </trkpt>
      <trkpt lat="48.03032" lon="6.78892">
        <ele>605.8</ele>
        <time>2022-06-26T09:10:49Z</time>
      </trkpt>
      <trkpt lat="48.03034" lon="6.78889">
        <ele>605.6</ele>
        <time>2022-06-26T09:10:50Z</time>
      </trkpt>
      <trkpt lat="48.03038" lon="6.78885">
        <ele>604.2</ele>
        <time>2022-06-26T09:10:51Z</time>
      </trkpt>
      <trkpt lat="48.03045" lon="6.78876">
        <ele>602.2</ele>
        <time>2022-06-26T09:10:53Z</time>
      </trkpt>
      <trkpt lat="48.03049" lon="6.78871">
        <ele>601</ele>
        <time>2022-06-26T09:10:54Z</time>
      </trkpt>
      <trkpt lat="48.03053" lon="6.78867">
        <ele>599.8</ele>
        <time>2022-06-26T09:10:55Z</time>
      </trkpt>
      <trkpt lat="48.03057" lon="6.78863">
        <ele>597.8</ele>
        <time>2022-06-26T09:10:56Z</time>
      </trkpt>
      <trkpt lat="48.0306" lon="6.78861">
        <ele>596.6</ele>
        <time>2022-06-26T09:10:57Z</time>
      </trkpt>
      <trkpt lat="48.03064" lon="6.78859">
        <ele>595.4</ele>
        <time>2022-06-26T09:10:58Z</time>
      </trkpt>
      <trkpt lat="48.03067" lon="6.78858">
        <ele>594.4</ele>
        <time>2022-06-26T09:10:59Z</time>
      </trkpt>
      <trkpt lat="48.03069" lon="6.78856">
        <ele>593.2</ele>
        <time>2022-06-26T09:11:00Z</time>
      </trkpt>
      <trkpt lat="48.0307" lon="6.78854">
        <ele>592.6</ele>
        <time>2022-06-26T09:11:01Z</time>
      </trkpt>
      <trkpt lat="48.03069" lon="6.78851">
        <ele>591</ele>
        <time>2022-06-26T09:11:02Z</time>
      </trkpt>
      <trkpt lat="48.03069" lon="6.78849">
        <ele>590</ele>
        <time>2022-06-26T09:11:03Z</time>
      </trkpt>
      <trkpt lat="48.03067" lon="6.78846">
        <ele>589.4</ele>
        <time>2022-06-26T09:11:04Z</time>
      </trkpt>
      <trkpt lat="48.03064" lon="6.78844">
        <ele>588.6</ele>
        <time>2022-06-26T09:11:05Z</time>
      </trkpt>
      <trkpt lat="48.0306" lon="6.78842">
        <ele>588.4</ele>
        <time>2022-06-26T09:11:06Z</time>
      </trkpt>
      <trkpt lat="48.03056" lon="6.7884">
        <ele>588</ele>
        <time>2022-06-26T09:11:07Z</time>
      </trkpt>
      <trkpt lat="48.03052" lon="6.78838">
        <ele>587.8</ele>
        <time>2022-06-26T09:11:08Z</time>
      </trkpt>
      <trkpt lat="48.03048" lon="6.78837">
        <ele>587.6</ele>
        <time>2022-06-26T09:11:09Z</time>
      </trkpt>
      <trkpt lat="48.03044" lon="6.78835">
        <ele>587.4</ele>
        <time>2022-06-26T09:11:10Z</time>
      </trkpt>
      <trkpt lat="48.03035" lon="6.78832">
        <ele>587.2</ele>
        <time>2022-06-26T09:11:12Z</time>
      </trkpt>
      <trkpt lat="48.03032" lon="6.78829">
        <ele>587.2</ele>
        <time>2022-06-26T09:11:13Z</time>
      </trkpt>
      <trkpt lat="48.03025" lon="6.78822">
        <ele>587.2</ele>
        <time>2022-06-26T09:11:15Z</time>
      </trkpt>
      <trkpt lat="48.03023" lon="6.78818">
        <ele>587.2</ele>
        <time>2022-06-26T09:11:16Z</time>
      </trkpt>
      <trkpt lat="48.03022" lon="6.78814">
        <ele>587</ele>
        <time>2022-06-26T09:11:17Z</time>
      </trkpt>
      <trkpt lat="48.0302" lon="6.78808">
        <ele>587</ele>
        <time>2022-06-26T09:11:18Z</time>
      </trkpt>
      <trkpt lat="48.03018" lon="6.78802">
        <ele>587</ele>
        <time>2022-06-26T09:11:19Z</time>
      </trkpt>
      <trkpt lat="48.03016" lon="6.78795">
        <ele>587</ele>
        <time>2022-06-26T09:11:20Z</time>
      </trkpt>
      <trkpt lat="48.03013" lon="6.78782">
        <ele>586.8</ele>
        <time>2022-06-26T09:11:22Z</time>
      </trkpt>
      <trkpt lat="48.0301" lon="6.78769">
        <ele>586.6</ele>
        <time>2022-06-26T09:11:24Z</time>
      </trkpt>
      <trkpt lat="48.03008" lon="6.78763">
        <ele>586.4</ele>
        <time>2022-06-26T09:11:25Z</time>
      </trkpt>
      <trkpt lat="48.03006" lon="6.78757">
        <ele>586.4</ele>
        <time>2022-06-26T09:11:26Z</time>
      </trkpt>
      <trkpt lat="48.03003" lon="6.78746">
        <ele>586.4</ele>
        <time>2022-06-26T09:11:28Z</time>
      </trkpt>
      <trkpt lat="48.03" lon="6.78733">
        <ele>586.4</ele>
        <time>2022-06-26T09:11:30Z</time>
      </trkpt>
      <trkpt lat="48.03" lon="6.78728">
        <ele>586.4</ele>
        <time>2022-06-26T09:11:31Z</time>
      </trkpt>
      <trkpt lat="48.03" lon="6.78722">
        <ele>586.4</ele>
        <time>2022-06-26T09:11:32Z</time>
      </trkpt>
      <trkpt lat="48.02999" lon="6.78717">
        <ele>586.4</ele>
        <time>2022-06-26T09:11:33Z</time>
      </trkpt>
      <trkpt lat="48.02998" lon="6.78712">
        <ele>586.2</ele>
        <time>2022-06-26T09:11:34Z</time>
      </trkpt>
      <trkpt lat="48.02996" lon="6.78707">
        <ele>586.2</ele>
        <time>2022-06-26T09:11:35Z</time>
      </trkpt>
      <trkpt lat="48.02995" lon="6.78702">
        <ele>586.4</ele>
        <time>2022-06-26T09:11:36Z</time>
      </trkpt>
      <trkpt lat="48.02995" lon="6.78697">
        <ele>586.6</ele>
        <time>2022-06-26T09:11:37Z</time>
      </trkpt>
      <trkpt lat="48.02994" lon="6.78694">
        <ele>586.8</ele>
        <time>2022-06-26T09:11:38Z</time>
      </trkpt>
      <trkpt lat="48.02995" lon="6.78689">
        <ele>587</ele>
        <time>2022-06-26T09:11:39Z</time>
      </trkpt>
      <trkpt lat="48.02995" lon="6.78683">
        <ele>587.2</ele>
        <time>2022-06-26T09:11:40Z</time>
      </trkpt>
      <trkpt lat="48.02994" lon="6.7868">
        <ele>587.4</ele>
        <time>2022-06-26T09:11:41Z</time>
      </trkpt>
      <trkpt lat="48.02991" lon="6.78674">
        <ele>587.8</ele>
        <time>2022-06-26T09:11:43Z</time>
      </trkpt>
      <trkpt lat="48.02989" lon="6.7867">
        <ele>587.8</ele>
        <time>2022-06-26T09:11:44Z</time>
      </trkpt>
      <trkpt lat="48.02988" lon="6.78665">
        <ele>588</ele>
        <time>2022-06-26T09:11:45Z</time>
      </trkpt>
      <trkpt lat="48.02984" lon="6.78659">
        <ele>588</ele>
        <time>2022-06-26T09:11:46Z</time>
      </trkpt>
      <trkpt lat="48.02978" lon="6.78648">
        <ele>588</ele>
        <time>2022-06-26T09:11:48Z</time>
      </trkpt>
      <trkpt lat="48.02974" lon="6.78641">
        <ele>588</ele>
        <time>2022-06-26T09:11:49Z</time>
      </trkpt>
      <trkpt lat="48.02968" lon="6.78633">
        <ele>587.6</ele>
        <time>2022-06-26T09:11:50Z</time>
      </trkpt>
      <trkpt lat="48.02951" lon="6.78615">
        <ele>586.6</ele>
        <time>2022-06-26T09:11:52Z</time>
      </trkpt>
      <trkpt lat="48.02942" lon="6.78606">
        <ele>585.6</ele>
        <time>2022-06-26T09:11:53Z</time>
      </trkpt>
      <trkpt lat="48.02934" lon="6.78598">
        <ele>584.4</ele>
        <time>2022-06-26T09:11:54Z</time>
      </trkpt>
      <trkpt lat="48.02928" lon="6.7859">
        <ele>583.8</ele>
        <time>2022-06-26T09:11:55Z</time>
      </trkpt>
      <trkpt lat="48.02924" lon="6.78582">
        <ele>582.4</ele>
        <time>2022-06-26T09:11:56Z</time>
      </trkpt>
      <trkpt lat="48.02919" lon="6.78574">
        <ele>581.2</ele>
        <time>2022-06-26T09:11:57Z</time>
      </trkpt>
      <trkpt lat="48.02907" lon="6.78558">
        <ele>580</ele>
        <time>2022-06-26T09:11:59Z</time>
      </trkpt>
      <trkpt lat="48.02898" lon="6.78542">
        <ele>578.8</ele>
        <time>2022-06-26T09:12:01Z</time>
      </trkpt>
      <trkpt lat="48.02887" lon="6.7853">
        <ele>578.2</ele>
        <time>2022-06-26T09:12:03Z</time>
      </trkpt>
      <trkpt lat="48.02882" lon="6.78526">
        <ele>578</ele>
        <time>2022-06-26T09:12:04Z</time>
      </trkpt>
      <trkpt lat="48.02877" lon="6.78524">
        <ele>577.8</ele>
        <time>2022-06-26T09:12:05Z</time>
      </trkpt>
      <trkpt lat="48.02873" lon="6.78524">
        <ele>577.4</ele>
        <time>2022-06-26T09:12:06Z</time>
      </trkpt>
      <trkpt lat="48.02868" lon="6.78522">
        <ele>577.2</ele>
        <time>2022-06-26T09:12:07Z</time>
      </trkpt>
      <trkpt lat="48.02864" lon="6.78521">
        <ele>576.8</ele>
        <time>2022-06-26T09:12:08Z</time>
      </trkpt>
      <trkpt lat="48.0286" lon="6.7852">
        <ele>576.8</ele>
        <time>2022-06-26T09:12:09Z</time>
      </trkpt>
      <trkpt lat="48.02857" lon="6.78519">
        <ele>576.6</ele>
        <time>2022-06-26T09:12:10Z</time>
      </trkpt>
      <trkpt lat="48.02854" lon="6.78518">
        <ele>576.6</ele>
        <time>2022-06-26T09:12:11Z</time>
      </trkpt>
      <trkpt lat="48.0285" lon="6.78517">
        <ele>576.4</ele>
        <time>2022-06-26T09:12:12Z</time>
      </trkpt>
      <trkpt lat="48.02847" lon="6.78515">
        <ele>576.2</ele>
        <time>2022-06-26T09:12:13Z</time>
      </trkpt>
      <trkpt lat="48.02834" lon="6.7851">
        <ele>576</ele>
        <time>2022-06-26T09:12:16Z</time>
      </trkpt>
      <trkpt lat="48.02832" lon="6.7851">
        <ele>575.6</ele>
        <time>2022-06-26T09:12:17Z</time>
      </trkpt>
      <trkpt lat="48.0283" lon="6.78511">
        <ele>575.6</ele>
        <time>2022-06-26T09:12:18Z</time>
      </trkpt>
      <trkpt lat="48.02827" lon="6.78511">
        <ele>575.4</ele>
        <time>2022-06-26T09:12:19Z</time>
      </trkpt>
      <trkpt lat="48.02821" lon="6.78511">
        <ele>575.4</ele>
        <time>2022-06-26T09:12:21Z</time>
      </trkpt>
      <trkpt lat="48.02811" lon="6.78506">
        <ele>575.2</ele>
        <time>2022-06-26T09:12:24Z</time>
      </trkpt>
      <trkpt lat="48.02809" lon="6.78505">
        <ele>575.2</ele>
        <time>2022-06-26T09:12:25Z</time>
      </trkpt>
      <trkpt lat="48.02806" lon="6.78503">
        <ele>575.2</ele>
        <time>2022-06-26T09:12:26Z</time>
      </trkpt>
      <trkpt lat="48.02795" lon="6.78494">
        <ele>575.2</ele>
        <time>2022-06-26T09:12:29Z</time>
      </trkpt>
      <trkpt lat="48.02783" lon="6.78484">
        <ele>575.6</ele>
        <time>2022-06-26T09:12:33Z</time>
      </trkpt>
      <trkpt lat="48.02775" lon="6.78481">
        <ele>575.6</ele>
        <time>2022-06-26T09:12:34Z</time>
      </trkpt>
      <trkpt lat="48.02773" lon="6.78479">
        <ele>575.8</ele>
        <time>2022-06-26T09:12:35Z</time>
      </trkpt>
      <trkpt lat="48.0276" lon="6.78475">
        <ele>576.4</ele>
        <time>2022-06-26T09:12:38Z</time>
      </trkpt>
      <trkpt lat="48.02756" lon="6.78472">
        <ele>576.4</ele>
        <time>2022-06-26T09:12:39Z</time>
      </trkpt>
      <trkpt lat="48.02751" lon="6.78469">
        <ele>576.4</ele>
        <time>2022-06-26T09:12:40Z</time>
      </trkpt>
      <trkpt lat="48.02747" lon="6.78465">
        <ele>576.6</ele>
        <time>2022-06-26T09:12:41Z</time>
      </trkpt>
      <trkpt lat="48.02744" lon="6.78463">
        <ele>576.6</ele>
        <time>2022-06-26T09:12:42Z</time>
      </trkpt>
      <trkpt lat="48.02735" lon="6.78458">
        <ele>576.8</ele>
        <time>2022-06-26T09:12:45Z</time>
      </trkpt>
      <trkpt lat="48.0273" lon="6.78455">
        <ele>576.8</ele>
        <time>2022-06-26T09:12:47Z</time>
      </trkpt>
      <trkpt lat="48.02726" lon="6.78453">
        <ele>576.8</ele>
        <time>2022-06-26T09:12:48Z</time>
      </trkpt>
      <trkpt lat="48.02724" lon="6.78451">
        <ele>577</ele>
        <time>2022-06-26T09:12:49Z</time>
      </trkpt>
      <trkpt lat="48.02715" lon="6.78446">
        <ele>577.2</ele>
        <time>2022-06-26T09:12:51Z</time>
      </trkpt>
      <trkpt lat="48.02712" lon="6.78444">
        <ele>577.2</ele>
        <time>2022-06-26T09:12:52Z</time>
      </trkpt>
      <trkpt lat="48.02709" lon="6.78442">
        <ele>577.2</ele>
        <time>2022-06-26T09:12:53Z</time>
      </trkpt>
      <trkpt lat="48.027" lon="6.78434">
        <ele>577</ele>
        <time>2022-06-26T09:12:55Z</time>
      </trkpt>
      <trkpt lat="48.02695" lon="6.78422">
        <ele>576.8</ele>
        <time>2022-06-26T09:12:57Z</time>
      </trkpt>
      <trkpt lat="48.02693" lon="6.78417">
        <ele>577</ele>
        <time>2022-06-26T09:12:58Z</time>
      </trkpt>
      <trkpt lat="48.02692" lon="6.7841">
        <ele>576.8</ele>
        <time>2022-06-26T09:12:59Z</time>
      </trkpt>
      <trkpt lat="48.02692" lon="6.78405">
        <ele>576.4</ele>
        <time>2022-06-26T09:13:00Z</time>
      </trkpt>
      <trkpt lat="48.0269" lon="6.78397">
        <ele>576.2</ele>
        <time>2022-06-26T09:13:01Z</time>
      </trkpt>
      <trkpt lat="48.02688" lon="6.78374">
        <ele>575.2</ele>
        <time>2022-06-26T09:13:04Z</time>
      </trkpt>
      <trkpt lat="48.02683" lon="6.78359">
        <ele>574.4</ele>
        <time>2022-06-26T09:13:06Z</time>
      </trkpt>
      <trkpt lat="48.02681" lon="6.78351">
        <ele>574</ele>
        <time>2022-06-26T09:13:07Z</time>
      </trkpt>
      <trkpt lat="48.02678" lon="6.78344">
        <ele>573.6</ele>
        <time>2022-06-26T09:13:08Z</time>
      </trkpt>
      <trkpt lat="48.02676" lon="6.78331">
        <ele>572.6</ele>
        <time>2022-06-26T09:13:09Z</time>
      </trkpt>
      <trkpt lat="48.02682" lon="6.78304">
        <ele>571.8</ele>
        <time>2022-06-26T09:13:11Z</time>
      </trkpt>
      <trkpt lat="48.02683" lon="6.78292">
        <ele>571.6</ele>
        <time>2022-06-26T09:13:12Z</time>
      </trkpt>
      <trkpt lat="48.02684" lon="6.7828">
        <ele>570.6</ele>
        <time>2022-06-26T09:13:13Z</time>
      </trkpt>
      <trkpt lat="48.02689" lon="6.78254">
        <ele>569.6</ele>
        <time>2022-06-26T09:13:15Z</time>
      </trkpt>
      <trkpt lat="48.02691" lon="6.78238">
        <ele>568.6</ele>
        <time>2022-06-26T09:13:16Z</time>
      </trkpt>
      <trkpt lat="48.02692" lon="6.78225">
        <ele>568.2</ele>
        <time>2022-06-26T09:13:17Z</time>
      </trkpt>
      <trkpt lat="48.02696" lon="6.78206">
        <ele>566.2</ele>
        <time>2022-06-26T09:13:19Z</time>
      </trkpt>
      <trkpt lat="48.02699" lon="6.78196">
        <ele>564.6</ele>
        <time>2022-06-26T09:13:20Z</time>
      </trkpt>
      <trkpt lat="48.02703" lon="6.78175">
        <ele>563.6</ele>
        <time>2022-06-26T09:13:22Z</time>
      </trkpt>
      <trkpt lat="48.027" lon="6.78162">
        <ele>562.6</ele>
        <time>2022-06-26T09:13:23Z</time>
      </trkpt>
      <trkpt lat="48.027" lon="6.78151">
        <ele>562</ele>
        <time>2022-06-26T09:13:24Z</time>
      </trkpt>
      <trkpt lat="48.02699" lon="6.78139">
        <ele>561.4</ele>
        <time>2022-06-26T09:13:25Z</time>
      </trkpt>
      <trkpt lat="48.02697" lon="6.78127">
        <ele>561</ele>
        <time>2022-06-26T09:13:26Z</time>
      </trkpt>
      <trkpt lat="48.02695" lon="6.78115">
        <ele>559.4</ele>
        <time>2022-06-26T09:13:27Z</time>
      </trkpt>
      <trkpt lat="48.02693" lon="6.78102">
        <ele>558.8</ele>
        <time>2022-06-26T09:13:28Z</time>
      </trkpt>
      <trkpt lat="48.0269" lon="6.7809">
        <ele>557</ele>
        <time>2022-06-26T09:13:29Z</time>
      </trkpt>
      <trkpt lat="48.02688" lon="6.78077">
        <ele>556.4</ele>
        <time>2022-06-26T09:13:30Z</time>
      </trkpt>
      <trkpt lat="48.02685" lon="6.78063">
        <ele>555.4</ele>
        <time>2022-06-26T09:13:31Z</time>
      </trkpt>
      <trkpt lat="48.02679" lon="6.78036">
        <ele>554.4</ele>
        <time>2022-06-26T09:13:33Z</time>
      </trkpt>
      <trkpt lat="48.02674" lon="6.78007">
        <ele>552.8</ele>
        <time>2022-06-26T09:13:35Z</time>
      </trkpt>
      <trkpt lat="48.02671" lon="6.77992">
        <ele>551.4</ele>
        <time>2022-06-26T09:13:36Z</time>
      </trkpt>
      <trkpt lat="48.02667" lon="6.77966">
        <ele>549.2</ele>
        <time>2022-06-26T09:13:38Z</time>
      </trkpt>
      <trkpt lat="48.02666" lon="6.77956">
        <ele>548.6</ele>
        <time>2022-06-26T09:13:39Z</time>
      </trkpt>
      <trkpt lat="48.02666" lon="6.77949">
        <ele>547.4</ele>
        <time>2022-06-26T09:13:40Z</time>
      </trkpt>
      <trkpt lat="48.02666" lon="6.77942">
        <ele>546</ele>
        <time>2022-06-26T09:13:41Z</time>
      </trkpt>
      <trkpt lat="48.02667" lon="6.77936">
        <ele>545.4</ele>
        <time>2022-06-26T09:13:42Z</time>
      </trkpt>
      <trkpt lat="48.02668" lon="6.7793">
        <ele>544.6</ele>
        <time>2022-06-26T09:13:43Z</time>
      </trkpt>
      <trkpt lat="48.0267" lon="6.77924">
        <ele>544</ele>
        <time>2022-06-26T09:13:44Z</time>
      </trkpt>
      <trkpt lat="48.02673" lon="6.77918">
        <ele>543</ele>
        <time>2022-06-26T09:13:45Z</time>
      </trkpt>
      <trkpt lat="48.02674" lon="6.77905">
        <ele>541.4</ele>
        <time>2022-06-26T09:13:47Z</time>
      </trkpt>
      <trkpt lat="48.02672" lon="6.77899">
        <ele>541.2</ele>
        <time>2022-06-26T09:13:48Z</time>
      </trkpt>
      <trkpt lat="48.02669" lon="6.77893">
        <ele>540.2</ele>
        <time>2022-06-26T09:13:49Z</time>
      </trkpt>
      <trkpt lat="48.02667" lon="6.77888">
        <ele>539.2</ele>
        <time>2022-06-26T09:13:50Z</time>
      </trkpt>
      <trkpt lat="48.02664" lon="6.77882">
        <ele>538.8</ele>
        <time>2022-06-26T09:13:51Z</time>
      </trkpt>
      <trkpt lat="48.02655" lon="6.77865">
        <ele>537.8</ele>
        <time>2022-06-26T09:13:54Z</time>
      </trkpt>
      <trkpt lat="48.02642" lon="6.77841">
        <ele>536.8</ele>
        <time>2022-06-26T09:13:58Z</time>
      </trkpt>
      <trkpt lat="48.02637" lon="6.77828">
        <ele>536.4</ele>
        <time>2022-06-26T09:14:00Z</time>
      </trkpt>
      <trkpt lat="48.02635" lon="6.77822">
        <ele>536.4</ele>
        <time>2022-06-26T09:14:01Z</time>
      </trkpt>
      <trkpt lat="48.02632" lon="6.77816">
        <ele>536.2</ele>
        <time>2022-06-26T09:14:02Z</time>
      </trkpt>
      <trkpt lat="48.0263" lon="6.7781">
        <ele>536.2</ele>
        <time>2022-06-26T09:14:03Z</time>
      </trkpt>
      <trkpt lat="48.02628" lon="6.77804">
        <ele>536.2</ele>
        <time>2022-06-26T09:14:04Z</time>
      </trkpt>
      <trkpt lat="48.02627" lon="6.77797">
        <ele>536</ele>
        <time>2022-06-26T09:14:05Z</time>
      </trkpt>
      <trkpt lat="48.02625" lon="6.7779">
        <ele>535.8</ele>
        <time>2022-06-26T09:14:06Z</time>
      </trkpt>
      <trkpt lat="48.02623" lon="6.77784">
        <ele>535.6</ele>
        <time>2022-06-26T09:14:07Z</time>
      </trkpt>
      <trkpt lat="48.0262" lon="6.77771">
        <ele>535.4</ele>
        <time>2022-06-26T09:14:09Z</time>
      </trkpt>
      <trkpt lat="48.02619" lon="6.77765">
        <ele>535.2</ele>
        <time>2022-06-26T09:14:10Z</time>
      </trkpt>
      <trkpt lat="48.02619" lon="6.77759">
        <ele>535.2</ele>
        <time>2022-06-26T09:14:11Z</time>
      </trkpt>
      <trkpt lat="48.02617" lon="6.77753">
        <ele>535.2</ele>
        <time>2022-06-26T09:14:12Z</time>
      </trkpt>
      <trkpt lat="48.02617" lon="6.77746">
        <ele>535</ele>
        <time>2022-06-26T09:14:13Z</time>
      </trkpt>
      <trkpt lat="48.02617" lon="6.7774">
        <ele>534.8</ele>
        <time>2022-06-26T09:14:14Z</time>
      </trkpt>
      <trkpt lat="48.02616" lon="6.77734">
        <ele>534.6</ele>
        <time>2022-06-26T09:14:15Z</time>
      </trkpt>
      <trkpt lat="48.02615" lon="6.77726">
        <ele>534.4</ele>
        <time>2022-06-26T09:14:16Z</time>
      </trkpt>
      <trkpt lat="48.0261" lon="6.77706">
        <ele>534.2</ele>
        <time>2022-06-26T09:14:19Z</time>
      </trkpt>
      <trkpt lat="48.02596" lon="6.77673">
        <ele>533.6</ele>
        <time>2022-06-26T09:14:24Z</time>
      </trkpt>
      <trkpt lat="48.02594" lon="6.77665">
        <ele>533.6</ele>
        <time>2022-06-26T09:14:25Z</time>
      </trkpt>
      <trkpt lat="48.02583" lon="6.7763">
        <ele>532.2</ele>
        <time>2022-06-26T09:14:30Z</time>
      </trkpt>
      <trkpt lat="48.02581" lon="6.77623">
        <ele>532</ele>
        <time>2022-06-26T09:14:31Z</time>
      </trkpt>
      <trkpt lat="48.02573" lon="6.776">
        <ele>531.2</ele>
        <time>2022-06-26T09:14:35Z</time>
      </trkpt>
      <trkpt lat="48.02571" lon="6.77594">
        <ele>531.2</ele>
        <time>2022-06-26T09:14:36Z</time>
      </trkpt>
      <trkpt lat="48.02569" lon="6.77588">
        <ele>531</ele>
        <time>2022-06-26T09:14:37Z</time>
      </trkpt>
      <trkpt lat="48.02564" lon="6.77576">
        <ele>531</ele>
        <time>2022-06-26T09:14:39Z</time>
      </trkpt>
      <trkpt lat="48.02562" lon="6.77571">
        <ele>531</ele>
        <time>2022-06-26T09:14:40Z</time>
      </trkpt>
      <trkpt lat="48.02559" lon="6.77566">
        <ele>531.2</ele>
        <time>2022-06-26T09:14:41Z</time>
      </trkpt>
      <trkpt lat="48.02556" lon="6.77562">
        <ele>531.2</ele>
        <time>2022-06-26T09:14:42Z</time>
      </trkpt>
      <trkpt lat="48.02553" lon="6.77558">
        <ele>531.2</ele>
        <time>2022-06-26T09:14:43Z</time>
      </trkpt>
      <trkpt lat="48.02551" lon="6.77554">
        <ele>531.2</ele>
        <time>2022-06-26T09:14:44Z</time>
      </trkpt>
      <trkpt lat="48.02549" lon="6.7755">
        <ele>531.2</ele>
        <time>2022-06-26T09:14:45Z</time>
      </trkpt>
      <trkpt lat="48.02547" lon="6.77542">
        <ele>531.2</ele>
        <time>2022-06-26T09:14:47Z</time>
      </trkpt>
      <trkpt lat="48.02547" lon="6.77539">
        <ele>531.4</ele>
        <time>2022-06-26T09:14:48Z</time>
      </trkpt>
      <trkpt lat="48.02548" lon="6.77538">
        <ele>531.6</ele>
        <time>2022-06-26T09:14:49Z</time>
      </trkpt>
      <trkpt lat="48.0255" lon="6.77539">
        <ele>531.6</ele>
        <time>2022-06-26T09:14:50Z</time>
      </trkpt>
      <trkpt lat="48.02552" lon="6.77542">
        <ele>531.6</ele>
        <time>2022-06-26T09:14:51Z</time>
      </trkpt>
      <trkpt lat="48.02564" lon="6.77559">
        <ele>531.4</ele>
        <time>2022-06-26T09:14:55Z</time>
      </trkpt>
      <trkpt lat="48.02569" lon="6.77561">
        <ele>531.2</ele>
        <time>2022-06-26T09:14:56Z</time>
      </trkpt>
      <trkpt lat="48.02573" lon="6.77561">
        <ele>530.8</ele>
        <time>2022-06-26T09:14:57Z</time>
      </trkpt>
      <trkpt lat="48.02577" lon="6.77557">
        <ele>530.6</ele>
        <time>2022-06-26T09:14:58Z</time>
      </trkpt>
      <trkpt lat="48.02579" lon="6.77551">
        <ele>530.2</ele>
        <time>2022-06-26T09:14:59Z</time>
      </trkpt>
      <trkpt lat="48.02579" lon="6.77537">
        <ele>529.2</ele>
        <time>2022-06-26T09:15:01Z</time>
      </trkpt>
      <trkpt lat="48.02578" lon="6.77529">
        <ele>528.6</ele>
        <time>2022-06-26T09:15:02Z</time>
      </trkpt>
      <trkpt lat="48.02576" lon="6.77521">
        <ele>528.2</ele>
        <time>2022-06-26T09:15:03Z</time>
      </trkpt>
      <trkpt lat="48.02574" lon="6.77512">
        <ele>527.4</ele>
        <time>2022-06-26T09:15:04Z</time>
      </trkpt>
      <trkpt lat="48.02572" lon="6.77504">
        <ele>526.6</ele>
        <time>2022-06-26T09:15:05Z</time>
      </trkpt>
      <trkpt lat="48.0257" lon="6.77495">
        <ele>526</ele>
        <time>2022-06-26T09:15:06Z</time>
      </trkpt>
      <trkpt lat="48.02566" lon="6.77476">
        <ele>524.8</ele>
        <time>2022-06-26T09:15:08Z</time>
      </trkpt>
      <trkpt lat="48.02563" lon="6.77457">
        <ele>523.2</ele>
        <time>2022-06-26T09:15:10Z</time>
      </trkpt>
      <trkpt lat="48.0256" lon="6.77439">
        <ele>522.4</ele>
        <time>2022-06-26T09:15:12Z</time>
      </trkpt>
      <trkpt lat="48.02556" lon="6.77387">
        <ele>521.2</ele>
        <time>2022-06-26T09:15:17Z</time>
      </trkpt>
      <trkpt lat="48.02555" lon="6.77366">
        <ele>520.2</ele>
        <time>2022-06-26T09:15:19Z</time>
      </trkpt>
      <trkpt lat="48.02554" lon="6.77355">
        <ele>519.4</ele>
        <time>2022-06-26T09:15:20Z</time>
      </trkpt>
      <trkpt lat="48.0255" lon="6.77333">
        <ele>518.4</ele>
        <time>2022-06-26T09:15:22Z</time>
      </trkpt>
      <trkpt lat="48.02548" lon="6.77322">
        <ele>518</ele>
        <time>2022-06-26T09:15:23Z</time>
      </trkpt>
      <trkpt lat="48.02546" lon="6.7731">
        <ele>517</ele>
        <time>2022-06-26T09:15:24Z</time>
      </trkpt>
      <trkpt lat="48.02543" lon="6.77299">
        <ele>516.2</ele>
        <time>2022-06-26T09:15:25Z</time>
      </trkpt>
      <trkpt lat="48.02536" lon="6.7728">
        <ele>515.6</ele>
        <time>2022-06-26T09:15:27Z</time>
      </trkpt>
      <trkpt lat="48.02534" lon="6.77272">
        <ele>515.4</ele>
        <time>2022-06-26T09:15:28Z</time>
      </trkpt>
      <trkpt lat="48.02527" lon="6.77254">
        <ele>515.2</ele>
        <time>2022-06-26T09:15:30Z</time>
      </trkpt>
      <trkpt lat="48.02523" lon="6.77247">
        <ele>514.8</ele>
        <time>2022-06-26T09:15:31Z</time>
      </trkpt>
      <trkpt lat="48.02519" lon="6.77239">
        <ele>514.8</ele>
        <time>2022-06-26T09:15:32Z</time>
      </trkpt>
      <trkpt lat="48.02514" lon="6.7723">
        <ele>514.6</ele>
        <time>2022-06-26T09:15:33Z</time>
      </trkpt>
      <trkpt lat="48.02495" lon="6.7719">
        <ele>513.2</ele>
        <time>2022-06-26T09:15:38Z</time>
      </trkpt>
      <trkpt lat="48.02491" lon="6.77181">
        <ele>513</ele>
        <time>2022-06-26T09:15:39Z</time>
      </trkpt>
      <trkpt lat="48.02487" lon="6.77172">
        <ele>512.6</ele>
        <time>2022-06-26T09:15:40Z</time>
      </trkpt>
      <trkpt lat="48.02484" lon="6.77163">
        <ele>512.4</ele>
        <time>2022-06-26T09:15:41Z</time>
      </trkpt>
      <trkpt lat="48.0248" lon="6.77151">
        <ele>511.8</ele>
        <time>2022-06-26T09:15:42Z</time>
      </trkpt>
      <trkpt lat="48.02475" lon="6.7714">
        <ele>511</ele>
        <time>2022-06-26T09:15:43Z</time>
      </trkpt>
      <trkpt lat="48.02464" lon="6.7712">
        <ele>509.8</ele>
        <time>2022-06-26T09:15:45Z</time>
      </trkpt>
      <trkpt lat="48.02446" lon="6.77092">
        <ele>509</ele>
        <time>2022-06-26T09:15:48Z</time>
      </trkpt>
      <trkpt lat="48.02442" lon="6.77084">
        <ele>508</ele>
        <time>2022-06-26T09:15:49Z</time>
      </trkpt>
      <trkpt lat="48.02439" lon="6.77076">
        <ele>507.4</ele>
        <time>2022-06-26T09:15:50Z</time>
      </trkpt>
      <trkpt lat="48.02435" lon="6.77069">
        <ele>507.2</ele>
        <time>2022-06-26T09:15:51Z</time>
      </trkpt>
      <trkpt lat="48.02431" lon="6.77061">
        <ele>506.8</ele>
        <time>2022-06-26T09:15:52Z</time>
      </trkpt>
      <trkpt lat="48.02414" lon="6.77033">
        <ele>506.2</ele>
        <time>2022-06-26T09:15:56Z</time>
      </trkpt>
      <trkpt lat="48.02409" lon="6.77026">
        <ele>506.2</ele>
        <time>2022-06-26T09:15:57Z</time>
      </trkpt>
      <trkpt lat="48.02405" lon="6.7702">
        <ele>506</ele>
        <time>2022-06-26T09:15:58Z</time>
      </trkpt>
      <trkpt lat="48.02399" lon="6.77013">
        <ele>506.2</ele>
        <time>2022-06-26T09:15:59Z</time>
      </trkpt>
      <trkpt lat="48.02387" lon="6.77">
        <ele>505.8</ele>
        <time>2022-06-26T09:16:01Z</time>
      </trkpt>
      <trkpt lat="48.0238" lon="6.76995">
        <ele>505.8</ele>
        <time>2022-06-26T09:16:02Z</time>
      </trkpt>
      <trkpt lat="48.02373" lon="6.76991">
        <ele>505.6</ele>
        <time>2022-06-26T09:16:03Z</time>
      </trkpt>
      <trkpt lat="48.02367" lon="6.76987">
        <ele>505.4</ele>
        <time>2022-06-26T09:16:04Z</time>
      </trkpt>
      <trkpt lat="48.02361" lon="6.76984">
        <ele>505</ele>
        <time>2022-06-26T09:16:05Z</time>
      </trkpt>
      <trkpt lat="48.02348" lon="6.76974">
        <ele>504.8</ele>
        <time>2022-06-26T09:16:07Z</time>
      </trkpt>
      <trkpt lat="48.02341" lon="6.76965">
        <ele>504.6</ele>
        <time>2022-06-26T09:16:08Z</time>
      </trkpt>
      <trkpt lat="48.02331" lon="6.7695">
        <ele>503.6</ele>
        <time>2022-06-26T09:16:10Z</time>
      </trkpt>
      <trkpt lat="48.02326" lon="6.76942">
        <ele>503.4</ele>
        <time>2022-06-26T09:16:11Z</time>
      </trkpt>
      <trkpt lat="48.02315" lon="6.76927">
        <ele>502.6</ele>
        <time>2022-06-26T09:16:13Z</time>
      </trkpt>
      <trkpt lat="48.02302" lon="6.76906">
        <ele>501</ele>
        <time>2022-06-26T09:16:16Z</time>
      </trkpt>
      <trkpt lat="48.02286" lon="6.76881">
        <ele>499.6</ele>
        <time>2022-06-26T09:16:19Z</time>
      </trkpt>
      <trkpt lat="48.0228" lon="6.76874">
        <ele>499.2</ele>
        <time>2022-06-26T09:16:20Z</time>
      </trkpt>
      <trkpt lat="48.02269" lon="6.76859">
        <ele>498.6</ele>
        <time>2022-06-26T09:16:22Z</time>
      </trkpt>
      <trkpt lat="48.02263" lon="6.7685">
        <ele>498</ele>
        <time>2022-06-26T09:16:23Z</time>
      </trkpt>
      <trkpt lat="48.02258" lon="6.7684">
        <ele>497.8</ele>
        <time>2022-06-26T09:16:24Z</time>
      </trkpt>
      <trkpt lat="48.02252" lon="6.7683">
        <ele>497</ele>
        <time>2022-06-26T09:16:25Z</time>
      </trkpt>
      <trkpt lat="48.02247" lon="6.76821">
        <ele>495.8</ele>
        <time>2022-06-26T09:16:26Z</time>
      </trkpt>
      <trkpt lat="48.02243" lon="6.7681">
        <ele>495.4</ele>
        <time>2022-06-26T09:16:27Z</time>
      </trkpt>
      <trkpt lat="48.02239" lon="6.76799">
        <ele>494.4</ele>
        <time>2022-06-26T09:16:28Z</time>
      </trkpt>
      <trkpt lat="48.02236" lon="6.76788">
        <ele>494.2</ele>
        <time>2022-06-26T09:16:29Z</time>
      </trkpt>
      <trkpt lat="48.02234" lon="6.76776">
        <ele>493.4</ele>
        <time>2022-06-26T09:16:30Z</time>
      </trkpt>
      <trkpt lat="48.02232" lon="6.76765">
        <ele>493</ele>
        <time>2022-06-26T09:16:31Z</time>
      </trkpt>
      <trkpt lat="48.0223" lon="6.76756">
        <ele>492.4</ele>
        <time>2022-06-26T09:16:32Z</time>
      </trkpt>
      <trkpt lat="48.02228" lon="6.76748">
        <ele>492.2</ele>
        <time>2022-06-26T09:16:33Z</time>
      </trkpt>
      <trkpt lat="48.02226" lon="6.76743">
        <ele>491.8</ele>
        <time>2022-06-26T09:16:34Z</time>
      </trkpt>
      <trkpt lat="48.02223" lon="6.76739">
        <ele>491.8</ele>
        <time>2022-06-26T09:16:35Z</time>
      </trkpt>
      <trkpt lat="48.02219" lon="6.76735">
        <ele>491.8</ele>
        <time>2022-06-26T09:16:36Z</time>
      </trkpt>
      <trkpt lat="48.02217" lon="6.76735">
        <ele>491.8</ele>
        <time>2022-06-26T09:16:37Z</time>
      </trkpt>
      <trkpt lat="48.02216" lon="6.76734">
        <ele>491.8</ele>
        <time>2022-06-26T09:16:38Z</time>
      </trkpt>
      <trkpt lat="48.02214" lon="6.76734">
        <ele>492.2</ele>
        <time>2022-06-26T09:16:39Z</time>
      </trkpt>
      <trkpt lat="48.02212" lon="6.76734">
        <ele>492.4</ele>
        <time>2022-06-26T09:16:40Z</time>
      </trkpt>
      <trkpt lat="48.0221" lon="6.76734">
        <ele>492.8</ele>
        <time>2022-06-26T09:16:41Z</time>
      </trkpt>
      <trkpt lat="48.02208" lon="6.76733">
        <ele>493.2</ele>
        <time>2022-06-26T09:16:42Z</time>
      </trkpt>
      <trkpt lat="48.02207" lon="6.76732">
        <ele>493.2</ele>
        <time>2022-06-26T09:16:43Z</time>
      </trkpt>
      <trkpt lat="48.02205" lon="6.76731">
        <ele>493.6</ele>
        <time>2022-06-26T09:16:44Z</time>
      </trkpt>
      <trkpt lat="48.02204" lon="6.7673">
        <ele>493.8</ele>
        <time>2022-06-26T09:16:45Z</time>
      </trkpt>
      <trkpt lat="48.02202" lon="6.76729">
        <ele>494.2</ele>
        <time>2022-06-26T09:16:46Z</time>
      </trkpt>
      <trkpt lat="48.02201" lon="6.76728">
        <ele>494.4</ele>
        <time>2022-06-26T09:16:47Z</time>
      </trkpt>
      <trkpt lat="48.02199" lon="6.76726">
        <ele>495</ele>
        <time>2022-06-26T09:16:48Z</time>
      </trkpt>
      <trkpt lat="48.02198" lon="6.76725">
        <ele>495.2</ele>
        <time>2022-06-26T09:16:49Z</time>
      </trkpt>
      <trkpt lat="48.02196" lon="6.76724">
        <ele>495.6</ele>
        <time>2022-06-26T09:16:50Z</time>
      </trkpt>
      <trkpt lat="48.02195" lon="6.76723">
        <ele>495.8</ele>
        <time>2022-06-26T09:16:51Z</time>
      </trkpt>
      <trkpt lat="48.02193" lon="6.76722">
        <ele>496</ele>
        <time>2022-06-26T09:16:52Z</time>
      </trkpt>
      <trkpt lat="48.02192" lon="6.7672">
        <ele>496.2</ele>
        <time>2022-06-26T09:16:53Z</time>
      </trkpt>
      <trkpt lat="48.02189" lon="6.76718">
        <ele>496.4</ele>
        <time>2022-06-26T09:16:55Z</time>
      </trkpt>
      <trkpt lat="48.02186" lon="6.76716">
        <ele>497</ele>
        <time>2022-06-26T09:16:57Z</time>
      </trkpt>
      <trkpt lat="48.02185" lon="6.76716">
        <ele>497</ele>
        <time>2022-06-26T09:16:58Z</time>
      </trkpt>
      <trkpt lat="48.02183" lon="6.76715">
        <ele>497.2</ele>
        <time>2022-06-26T09:16:59Z</time>
      </trkpt>
      <trkpt lat="48.02182" lon="6.76714">
        <ele>497.4</ele>
        <time>2022-06-26T09:17:00Z</time>
      </trkpt>
      <trkpt lat="48.02181" lon="6.76713">
        <ele>497.6</ele>
        <time>2022-06-26T09:17:01Z</time>
      </trkpt>
      <trkpt lat="48.02179" lon="6.76711">
        <ele>497.6</ele>
        <time>2022-06-26T09:17:02Z</time>
      </trkpt>
      <trkpt lat="48.02178" lon="6.7671">
        <ele>497.8</ele>
        <time>2022-06-26T09:17:03Z</time>
      </trkpt>
      <trkpt lat="48.02177" lon="6.76709">
        <ele>498</ele>
        <time>2022-06-26T09:17:04Z</time>
      </trkpt>
      <trkpt lat="48.02176" lon="6.76708">
        <ele>498.2</ele>
        <time>2022-06-26T09:17:05Z</time>
      </trkpt>
      <trkpt lat="48.02174" lon="6.76706">
        <ele>498.6</ele>
        <time>2022-06-26T09:17:06Z</time>
      </trkpt>
      <trkpt lat="48.02173" lon="6.76705">
        <ele>498.8</ele>
        <time>2022-06-26T09:17:07Z</time>
      </trkpt>
      <trkpt lat="48.02172" lon="6.76703">
        <ele>499</ele>
        <time>2022-06-26T09:17:08Z</time>
      </trkpt>
      <trkpt lat="48.02171" lon="6.76701">
        <ele>499.2</ele>
        <time>2022-06-26T09:17:09Z</time>
      </trkpt>
      <trkpt lat="48.02171" lon="6.76699">
        <ele>499.2</ele>
        <time>2022-06-26T09:17:10Z</time>
      </trkpt>
      <trkpt lat="48.0217" lon="6.76698">
        <ele>499.4</ele>
        <time>2022-06-26T09:17:11Z</time>
      </trkpt>
      <trkpt lat="48.02169" lon="6.76695">
        <ele>499.6</ele>
        <time>2022-06-26T09:17:12Z</time>
      </trkpt>
      <trkpt lat="48.02168" lon="6.76693">
        <ele>500</ele>
        <time>2022-06-26T09:17:13Z</time>
      </trkpt>
      <trkpt lat="48.02168" lon="6.76691">
        <ele>500.2</ele>
        <time>2022-06-26T09:17:14Z</time>
      </trkpt>
      <trkpt lat="48.02167" lon="6.76689">
        <ele>500.4</ele>
        <time>2022-06-26T09:17:15Z</time>
      </trkpt>
      <trkpt lat="48.02167" lon="6.76687">
        <ele>500.6</ele>
        <time>2022-06-26T09:17:16Z</time>
      </trkpt>
      <trkpt lat="48.02166" lon="6.76684">
        <ele>500.6</ele>
        <time>2022-06-26T09:17:17Z</time>
      </trkpt>
      <trkpt lat="48.02165" lon="6.76682">
        <ele>500.8</ele>
        <time>2022-06-26T09:17:18Z</time>
      </trkpt>
      <trkpt lat="48.02165" lon="6.76679">
        <ele>501</ele>
        <time>2022-06-26T09:17:19Z</time>
      </trkpt>
      <trkpt lat="48.02164" lon="6.76677">
        <ele>501.2</ele>
        <time>2022-06-26T09:17:20Z</time>
      </trkpt>
      <trkpt lat="48.02164" lon="6.76674">
        <ele>501.4</ele>
        <time>2022-06-26T09:17:21Z</time>
      </trkpt>
      <trkpt lat="48.02163" lon="6.76672">
        <ele>501.6</ele>
        <time>2022-06-26T09:17:22Z</time>
      </trkpt>
      <trkpt lat="48.02162" lon="6.7667">
        <ele>501.6</ele>
        <time>2022-06-26T09:17:23Z</time>
      </trkpt>
      <trkpt lat="48.02161" lon="6.76668">
        <ele>501.8</ele>
        <time>2022-06-26T09:17:24Z</time>
      </trkpt>
      <trkpt lat="48.0216" lon="6.76666">
        <ele>501.8</ele>
        <time>2022-06-26T09:17:25Z</time>
      </trkpt>
      <trkpt lat="48.02159" lon="6.76664">
        <ele>501.8</ele>
        <time>2022-06-26T09:17:26Z</time>
      </trkpt>
      <trkpt lat="48.02159" lon="6.76662">
        <ele>502</ele>
        <time>2022-06-26T09:17:27Z</time>
      </trkpt>
      <trkpt lat="48.02158" lon="6.76661">
        <ele>502.2</ele>
        <time>2022-06-26T09:17:28Z</time>
      </trkpt>
      <trkpt lat="48.02158" lon="6.76659">
        <ele>502.4</ele>
        <time>2022-06-26T09:17:29Z</time>
      </trkpt>
      <trkpt lat="48.02156" lon="6.76657">
        <ele>502.6</ele>
        <time>2022-06-26T09:17:30Z</time>
      </trkpt>
      <trkpt lat="48.02155" lon="6.76655">
        <ele>502.6</ele>
        <time>2022-06-26T09:17:31Z</time>
      </trkpt>
      <trkpt lat="48.02154" lon="6.76653">
        <ele>502.8</ele>
        <time>2022-06-26T09:17:32Z</time>
      </trkpt>
      <trkpt lat="48.02153" lon="6.76651">
        <ele>502.8</ele>
        <time>2022-06-26T09:17:33Z</time>
      </trkpt>
      <trkpt lat="48.02153" lon="6.7665">
        <ele>503</ele>
        <time>2022-06-26T09:17:34Z</time>
      </trkpt>
      <trkpt lat="48.02153" lon="6.76648">
        <ele>503.4</ele>
        <time>2022-06-26T09:17:35Z</time>
      </trkpt>
      <trkpt lat="48.02153" lon="6.76647">
        <ele>503.6</ele>
        <time>2022-06-26T09:17:36Z</time>
      </trkpt>
      <trkpt lat="48.02152" lon="6.76645">
        <ele>503.6</ele>
        <time>2022-06-26T09:17:37Z</time>
      </trkpt>
      <trkpt lat="48.02152" lon="6.76644">
        <ele>504</ele>
        <time>2022-06-26T09:17:38Z</time>
      </trkpt>
      <trkpt lat="48.02151" lon="6.76642">
        <ele>504.2</ele>
        <time>2022-06-26T09:17:39Z</time>
      </trkpt>
      <trkpt lat="48.0215" lon="6.76641">
        <ele>504.6</ele>
        <time>2022-06-26T09:17:40Z</time>
      </trkpt>
      <trkpt lat="48.02149" lon="6.76639">
        <ele>504.6</ele>
        <time>2022-06-26T09:17:41Z</time>
      </trkpt>
      <trkpt lat="48.02149" lon="6.76638">
        <ele>505</ele>
        <time>2022-06-26T09:17:42Z</time>
      </trkpt>
      <trkpt lat="48.02148" lon="6.76636">
        <ele>505.4</ele>
        <time>2022-06-26T09:17:43Z</time>
      </trkpt>
      <trkpt lat="48.02147" lon="6.76634">
        <ele>505.4</ele>
        <time>2022-06-26T09:17:44Z</time>
      </trkpt>
      <trkpt lat="48.02147" lon="6.76632">
        <ele>505.8</ele>
        <time>2022-06-26T09:17:45Z</time>
      </trkpt>
      <trkpt lat="48.02146" lon="6.7663">
        <ele>506</ele>
        <time>2022-06-26T09:17:46Z</time>
      </trkpt>
      <trkpt lat="48.02146" lon="6.76628">
        <ele>506</ele>
        <time>2022-06-26T09:17:47Z</time>
      </trkpt>
      <trkpt lat="48.02145" lon="6.76627">
        <ele>506.2</ele>
        <time>2022-06-26T09:17:48Z</time>
      </trkpt>
      <trkpt lat="48.02145" lon="6.76625">
        <ele>506.4</ele>
        <time>2022-06-26T09:17:49Z</time>
      </trkpt>
      <trkpt lat="48.02145" lon="6.76624">
        <ele>506.6</ele>
        <time>2022-06-26T09:17:50Z</time>
      </trkpt>
      <trkpt lat="48.02144" lon="6.76622">
        <ele>506.8</ele>
        <time>2022-06-26T09:17:51Z</time>
      </trkpt>
      <trkpt lat="48.02143" lon="6.7662">
        <ele>507.2</ele>
        <time>2022-06-26T09:17:52Z</time>
      </trkpt>
      <trkpt lat="48.02143" lon="6.76619">
        <ele>507.2</ele>
        <time>2022-06-26T09:17:53Z</time>
      </trkpt>
      <trkpt lat="48.02143" lon="6.76619">
        <ele>507.4</ele>
        <time>2022-06-26T09:17:54Z</time>
      </trkpt>
      <trkpt lat="48.02142" lon="6.76617">
        <ele>507.4</ele>
        <time>2022-06-26T09:17:55Z</time>
      </trkpt>
      <trkpt lat="48.02141" lon="6.76615">
        <ele>507.6</ele>
        <time>2022-06-26T09:17:56Z</time>
      </trkpt>
      <trkpt lat="48.0214" lon="6.76614">
        <ele>507.8</ele>
        <time>2022-06-26T09:17:57Z</time>
      </trkpt>
      <trkpt lat="48.02139" lon="6.76613">
        <ele>507.8</ele>
        <time>2022-06-26T09:17:58Z</time>
      </trkpt>
      <trkpt lat="48.02138" lon="6.76611">
        <ele>508</ele>
        <time>2022-06-26T09:17:59Z</time>
      </trkpt>
      <trkpt lat="48.02137" lon="6.7661">
        <ele>508</ele>
        <time>2022-06-26T09:18:00Z</time>
      </trkpt>
      <trkpt lat="48.02136" lon="6.7661">
        <ele>508.2</ele>
        <time>2022-06-26T09:18:01Z</time>
      </trkpt>
      <trkpt lat="48.02135" lon="6.76609">
        <ele>508.4</ele>
        <time>2022-06-26T09:18:02Z</time>
      </trkpt>
      <trkpt lat="48.02135" lon="6.76609">
        <ele>508.6</ele>
        <time>2022-06-26T09:18:03Z</time>
      </trkpt>
      <trkpt lat="48.02133" lon="6.76608">
        <ele>508.8</ele>
        <time>2022-06-26T09:18:04Z</time>
      </trkpt>
      <trkpt lat="48.02132" lon="6.76607">
        <ele>509</ele>
        <time>2022-06-26T09:18:05Z</time>
      </trkpt>
      <trkpt lat="48.02131" lon="6.76606">
        <ele>509</ele>
        <time>2022-06-26T09:18:06Z</time>
      </trkpt>
      <trkpt lat="48.0213" lon="6.76605">
        <ele>509.2</ele>
        <time>2022-06-26T09:18:07Z</time>
      </trkpt>
      <trkpt lat="48.02128" lon="6.76604">
        <ele>509.6</ele>
        <time>2022-06-26T09:18:08Z</time>
      </trkpt>
      <trkpt lat="48.02127" lon="6.76604">
        <ele>509.8</ele>
        <time>2022-06-26T09:18:09Z</time>
      </trkpt>
      <trkpt lat="48.02126" lon="6.76603">
        <ele>510.2</ele>
        <time>2022-06-26T09:18:10Z</time>
      </trkpt>
      <trkpt lat="48.02125" lon="6.76602">
        <ele>510.2</ele>
        <time>2022-06-26T09:18:11Z</time>
      </trkpt>
      <trkpt lat="48.02124" lon="6.76602">
        <ele>510.4</ele>
        <time>2022-06-26T09:18:12Z</time>
      </trkpt>
      <trkpt lat="48.02123" lon="6.76601">
        <ele>510.6</ele>
        <time>2022-06-26T09:18:13Z</time>
      </trkpt>
      <trkpt lat="48.02121" lon="6.766">
        <ele>510.6</ele>
        <time>2022-06-26T09:18:14Z</time>
      </trkpt>
      <trkpt lat="48.0212" lon="6.766">
        <ele>510.8</ele>
        <time>2022-06-26T09:18:15Z</time>
      </trkpt>
      <trkpt lat="48.02119" lon="6.766">
        <ele>511</ele>
        <time>2022-06-26T09:18:16Z</time>
      </trkpt>
      <trkpt lat="48.02118" lon="6.766">
        <ele>511.2</ele>
        <time>2022-06-26T09:18:17Z</time>
      </trkpt>
      <trkpt lat="48.02117" lon="6.766">
        <ele>511.4</ele>
        <time>2022-06-26T09:18:18Z</time>
      </trkpt>
      <trkpt lat="48.02116" lon="6.766">
        <ele>511.4</ele>
        <time>2022-06-26T09:18:19Z</time>
      </trkpt>
      <trkpt lat="48.02115" lon="6.766">
        <ele>511.6</ele>
        <time>2022-06-26T09:18:20Z</time>
      </trkpt>
      <trkpt lat="48.02114" lon="6.76599">
        <ele>512</ele>
        <time>2022-06-26T09:18:21Z</time>
      </trkpt>
      <trkpt lat="48.02113" lon="6.76599">
        <ele>512.2</ele>
        <time>2022-06-26T09:18:22Z</time>
      </trkpt>
      <trkpt lat="48.02112" lon="6.76599">
        <ele>512.4</ele>
        <time>2022-06-26T09:18:23Z</time>
      </trkpt>
      <trkpt lat="48.02111" lon="6.76599">
        <ele>512.6</ele>
        <time>2022-06-26T09:18:24Z</time>
      </trkpt>
      <trkpt lat="48.0211" lon="6.76599">
        <ele>512.8</ele>
        <time>2022-06-26T09:18:25Z</time>
      </trkpt>
      <trkpt lat="48.02109" lon="6.766">
        <ele>512.8</ele>
        <time>2022-06-26T09:18:26Z</time>
      </trkpt>
      <trkpt lat="48.02108" lon="6.766">
        <ele>513</ele>
        <time>2022-06-26T09:18:27Z</time>
      </trkpt>
      <trkpt lat="48.02106" lon="6.76601">
        <ele>513.4</ele>
        <time>2022-06-26T09:18:28Z</time>
      </trkpt>
      <trkpt lat="48.02105" lon="6.76601">
        <ele>513.4</ele>
        <time>2022-06-26T09:18:29Z</time>
      </trkpt>
      <trkpt lat="48.02103" lon="6.76601">
        <ele>513.8</ele>
        <time>2022-06-26T09:18:30Z</time>
      </trkpt>
      <trkpt lat="48.02102" lon="6.76601">
        <ele>513.8</ele>
        <time>2022-06-26T09:18:31Z</time>
      </trkpt>
      <trkpt lat="48.02101" lon="6.76601">
        <ele>514</ele>
        <time>2022-06-26T09:18:32Z</time>
      </trkpt>
      <trkpt lat="48.02101" lon="6.76602">
        <ele>514.2</ele>
        <time>2022-06-26T09:18:33Z</time>
      </trkpt>
      <trkpt lat="48.021" lon="6.76602">
        <ele>514.2</ele>
        <time>2022-06-26T09:18:34Z</time>
      </trkpt>
      <trkpt lat="48.02099" lon="6.76602">
        <ele>514.4</ele>
        <time>2022-06-26T09:18:35Z</time>
      </trkpt>
      <trkpt lat="48.02098" lon="6.76602">
        <ele>514.6</ele>
        <time>2022-06-26T09:18:36Z</time>
      </trkpt>
      <trkpt lat="48.02096" lon="6.76603">
        <ele>515.2</ele>
        <time>2022-06-26T09:18:37Z</time>
      </trkpt>
      <trkpt lat="48.02095" lon="6.76603">
        <ele>515.2</ele>
        <time>2022-06-26T09:18:38Z</time>
      </trkpt>
      <trkpt lat="48.02095" lon="6.76604">
        <ele>515.4</ele>
        <time>2022-06-26T09:18:39Z</time>
      </trkpt>
      <trkpt lat="48.02095" lon="6.76604">
        <ele>515.6</ele>
        <time>2022-06-26T09:18:40Z</time>
      </trkpt>
      <trkpt lat="48.02093" lon="6.76604">
        <ele>515.8</ele>
        <time>2022-06-26T09:18:41Z</time>
      </trkpt>
      <trkpt lat="48.02092" lon="6.76604">
        <ele>516</ele>
        <time>2022-06-26T09:18:42Z</time>
      </trkpt>
      <trkpt lat="48.0209" lon="6.76604">
        <ele>516</ele>
        <time>2022-06-26T09:18:43Z</time>
      </trkpt>
      <trkpt lat="48.02089" lon="6.76604">
        <ele>516.2</ele>
        <time>2022-06-26T09:18:44Z</time>
      </trkpt>
      <trkpt lat="48.02087" lon="6.76604">
        <ele>516.2</ele>
        <time>2022-06-26T09:18:45Z</time>
      </trkpt>
      <trkpt lat="48.02085" lon="6.76605">
        <ele>516.4</ele>
        <time>2022-06-26T09:18:46Z</time>
      </trkpt>
      <trkpt lat="48.02084" lon="6.76605">
        <ele>516.4</ele>
        <time>2022-06-26T09:18:47Z</time>
      </trkpt>
      <trkpt lat="48.02082" lon="6.76606">
        <ele>516.6</ele>
        <time>2022-06-26T09:18:48Z</time>
      </trkpt>
      <trkpt lat="48.02081" lon="6.76607">
        <ele>516.6</ele>
        <time>2022-06-26T09:18:49Z</time>
      </trkpt>
      <trkpt lat="48.02079" lon="6.76607">
        <ele>516.8</ele>
        <time>2022-06-26T09:18:50Z</time>
      </trkpt>
      <trkpt lat="48.02077" lon="6.76607">
        <ele>516.8</ele>
        <time>2022-06-26T09:18:51Z</time>
      </trkpt>
      <trkpt lat="48.02076" lon="6.76608">
        <ele>517</ele>
        <time>2022-06-26T09:18:52Z</time>
      </trkpt>
      <trkpt lat="48.02075" lon="6.76608">
        <ele>517.2</ele>
        <time>2022-06-26T09:18:53Z</time>
      </trkpt>
      <trkpt lat="48.02073" lon="6.76608">
        <ele>517.2</ele>
        <time>2022-06-26T09:18:54Z</time>
      </trkpt>
      <trkpt lat="48.02073" lon="6.76608">
        <ele>517.4</ele>
        <time>2022-06-26T09:18:55Z</time>
      </trkpt>
      <trkpt lat="48.02072" lon="6.76608">
        <ele>517.6</ele>
        <time>2022-06-26T09:18:56Z</time>
      </trkpt>
      <trkpt lat="48.02072" lon="6.76608">
        <ele>517.8</ele>
        <time>2022-06-26T09:18:57Z</time>
      </trkpt>
      <trkpt lat="48.02071" lon="6.76608">
        <ele>518</ele>
        <time>2022-06-26T09:18:59Z</time>
      </trkpt>
      <trkpt lat="48.02069" lon="6.76608">
        <ele>518.2</ele>
        <time>2022-06-26T09:19:00Z</time>
      </trkpt>
      <trkpt lat="48.02066" lon="6.76608">
        <ele>518.4</ele>
        <time>2022-06-26T09:19:01Z</time>
      </trkpt>
      <trkpt lat="48.02064" lon="6.76608">
        <ele>518.6</ele>
        <time>2022-06-26T09:19:02Z</time>
      </trkpt>
      <trkpt lat="48.02062" lon="6.76608">
        <ele>518.6</ele>
        <time>2022-06-26T09:19:03Z</time>
      </trkpt>
      <trkpt lat="48.0206" lon="6.76608">
        <ele>518.8</ele>
        <time>2022-06-26T09:19:04Z</time>
      </trkpt>
      <trkpt lat="48.0206" lon="6.76609">
        <ele>518.8</ele>
        <time>2022-06-26T09:19:05Z</time>
      </trkpt>
      <trkpt lat="48.02059" lon="6.76609">
        <ele>519</ele>
        <time>2022-06-26T09:19:06Z</time>
      </trkpt>
      <trkpt lat="48.02057" lon="6.7661">
        <ele>519.2</ele>
        <time>2022-06-26T09:19:07Z</time>
      </trkpt>
      <trkpt lat="48.02056" lon="6.7661">
        <ele>519.4</ele>
        <time>2022-06-26T09:19:08Z</time>
      </trkpt>
      <trkpt lat="48.02055" lon="6.7661">
        <ele>519.4</ele>
        <time>2022-06-26T09:19:09Z</time>
      </trkpt>
      <trkpt lat="48.02053" lon="6.7661">
        <ele>519.6</ele>
        <time>2022-06-26T09:19:10Z</time>
      </trkpt>
      <trkpt lat="48.02052" lon="6.76609">
        <ele>519.6</ele>
        <time>2022-06-26T09:19:11Z</time>
      </trkpt>
      <trkpt lat="48.0205" lon="6.76608">
        <ele>519.6</ele>
        <time>2022-06-26T09:19:12Z</time>
      </trkpt>
      <trkpt lat="48.02049" lon="6.76607">
        <ele>519.8</ele>
        <time>2022-06-26T09:19:13Z</time>
      </trkpt>
      <trkpt lat="48.02048" lon="6.76606">
        <ele>519.8</ele>
        <time>2022-06-26T09:19:14Z</time>
      </trkpt>
      <trkpt lat="48.02047" lon="6.76605">
        <ele>520</ele>
        <time>2022-06-26T09:19:15Z</time>
      </trkpt>
      <trkpt lat="48.02046" lon="6.76603">
        <ele>520</ele>
        <time>2022-06-26T09:19:16Z</time>
      </trkpt>
      <trkpt lat="48.02044" lon="6.76601">
        <ele>520.2</ele>
        <time>2022-06-26T09:19:17Z</time>
      </trkpt>
      <trkpt lat="48.02041" lon="6.76599">
        <ele>520.2</ele>
        <time>2022-06-26T09:19:18Z</time>
      </trkpt>
      <trkpt lat="48.02039" lon="6.76598">
        <ele>520.2</ele>
        <time>2022-06-26T09:19:19Z</time>
      </trkpt>
      <trkpt lat="48.02038" lon="6.76598">
        <ele>520.4</ele>
        <time>2022-06-26T09:19:20Z</time>
      </trkpt>
      <trkpt lat="48.02037" lon="6.76598">
        <ele>520.4</ele>
        <time>2022-06-26T09:19:21Z</time>
      </trkpt>
      <trkpt lat="48.02036" lon="6.76598">
        <ele>520.8</ele>
        <time>2022-06-26T09:19:22Z</time>
      </trkpt>
      <trkpt lat="48.02035" lon="6.76597">
        <ele>521</ele>
        <time>2022-06-26T09:19:23Z</time>
      </trkpt>
      <trkpt lat="48.02034" lon="6.76596">
        <ele>521.2</ele>
        <time>2022-06-26T09:19:24Z</time>
      </trkpt>
      <trkpt lat="48.02033" lon="6.76596">
        <ele>521.4</ele>
        <time>2022-06-26T09:19:25Z</time>
      </trkpt>
      <trkpt lat="48.02031" lon="6.76596">
        <ele>521.6</ele>
        <time>2022-06-26T09:19:26Z</time>
      </trkpt>
      <trkpt lat="48.0203" lon="6.76595">
        <ele>521.8</ele>
        <time>2022-06-26T09:19:27Z</time>
      </trkpt>
      <trkpt lat="48.02029" lon="6.76594">
        <ele>521.8</ele>
        <time>2022-06-26T09:19:28Z</time>
      </trkpt>
      <trkpt lat="48.02027" lon="6.76594">
        <ele>522.4</ele>
        <time>2022-06-26T09:19:29Z</time>
      </trkpt>
      <trkpt lat="48.02026" lon="6.76593">
        <ele>522.4</ele>
        <time>2022-06-26T09:19:30Z</time>
      </trkpt>
      <trkpt lat="48.02026" lon="6.76593">
        <ele>522.6</ele>
        <time>2022-06-26T09:19:31Z</time>
      </trkpt>
      <trkpt lat="48.02025" lon="6.76593">
        <ele>523</ele>
        <time>2022-06-26T09:19:32Z</time>
      </trkpt>
      <trkpt lat="48.02024" lon="6.76592">
        <ele>523.4</ele>
        <time>2022-06-26T09:19:33Z</time>
      </trkpt>
      <trkpt lat="48.02022" lon="6.76591">
        <ele>523.6</ele>
        <time>2022-06-26T09:19:34Z</time>
      </trkpt>
      <trkpt lat="48.02021" lon="6.7659">
        <ele>523.6</ele>
        <time>2022-06-26T09:19:35Z</time>
      </trkpt>
      <trkpt lat="48.02019" lon="6.76589">
        <ele>523.8</ele>
        <time>2022-06-26T09:19:36Z</time>
      </trkpt>
      <trkpt lat="48.02018" lon="6.76588">
        <ele>524</ele>
        <time>2022-06-26T09:19:37Z</time>
      </trkpt>
      <trkpt lat="48.02016" lon="6.76588">
        <ele>524.2</ele>
        <time>2022-06-26T09:19:38Z</time>
      </trkpt>
      <trkpt lat="48.02014" lon="6.76587">
        <ele>524.2</ele>
        <time>2022-06-26T09:19:39Z</time>
      </trkpt>
      <trkpt lat="48.02013" lon="6.76587">
        <ele>524.4</ele>
        <time>2022-06-26T09:19:40Z</time>
      </trkpt>
      <trkpt lat="48.02011" lon="6.76587">
        <ele>524.6</ele>
        <time>2022-06-26T09:19:41Z</time>
      </trkpt>
      <trkpt lat="48.0201" lon="6.76587">
        <ele>524.8</ele>
        <time>2022-06-26T09:19:42Z</time>
      </trkpt>
      <trkpt lat="48.02008" lon="6.76586">
        <ele>524.8</ele>
        <time>2022-06-26T09:19:43Z</time>
      </trkpt>
      <trkpt lat="48.02006" lon="6.76585">
        <ele>524.8</ele>
        <time>2022-06-26T09:19:44Z</time>
      </trkpt>
      <trkpt lat="48.02002" lon="6.76585">
        <ele>525</ele>
        <time>2022-06-26T09:19:45Z</time>
      </trkpt>
      <trkpt lat="48.01999" lon="6.76585">
        <ele>525.2</ele>
        <time>2022-06-26T09:19:46Z</time>
      </trkpt>
      <trkpt lat="48.01995" lon="6.76585">
        <ele>525.2</ele>
        <time>2022-06-26T09:19:47Z</time>
      </trkpt>
      <trkpt lat="48.01989" lon="6.76585">
        <ele>525.2</ele>
        <time>2022-06-26T09:19:48Z</time>
      </trkpt>
      <trkpt lat="48.01984" lon="6.76586">
        <ele>525.2</ele>
        <time>2022-06-26T09:19:49Z</time>
      </trkpt>
      <trkpt lat="48.01978" lon="6.76586">
        <ele>525.2</ele>
        <time>2022-06-26T09:19:50Z</time>
      </trkpt>
      <trkpt lat="48.01973" lon="6.76587">
        <ele>525</ele>
        <time>2022-06-26T09:19:51Z</time>
      </trkpt>
      <trkpt lat="48.01968" lon="6.76589">
        <ele>524.6</ele>
        <time>2022-06-26T09:19:52Z</time>
      </trkpt>
      <trkpt lat="48.01966" lon="6.76591">
        <ele>524.6</ele>
        <time>2022-06-26T09:19:53Z</time>
      </trkpt>
      <trkpt lat="48.01962" lon="6.76591">
        <ele>524.4</ele>
        <time>2022-06-26T09:19:54Z</time>
      </trkpt>
      <trkpt lat="48.0196" lon="6.76593">
        <ele>524.2</ele>
        <time>2022-06-26T09:19:55Z</time>
      </trkpt>
      <trkpt lat="48.01958" lon="6.76593">
        <ele>524.2</ele>
        <time>2022-06-26T09:19:56Z</time>
      </trkpt>
      <trkpt lat="48.01956" lon="6.76595">
        <ele>524.2</ele>
        <time>2022-06-26T09:19:57Z</time>
      </trkpt>
      <trkpt lat="48.01953" lon="6.76596">
        <ele>524.2</ele>
        <time>2022-06-26T09:19:58Z</time>
      </trkpt>
      <trkpt lat="48.01951" lon="6.76598">
        <ele>524.2</ele>
        <time>2022-06-26T09:19:59Z</time>
      </trkpt>
      <trkpt lat="48.01949" lon="6.76598">
        <ele>524.2</ele>
        <time>2022-06-26T09:20:00Z</time>
      </trkpt>
      <trkpt lat="48.01943" lon="6.76602">
        <ele>524.8</ele>
        <time>2022-06-26T09:20:04Z</time>
      </trkpt>
      <trkpt lat="48.01941" lon="6.76602">
        <ele>525</ele>
        <time>2022-06-26T09:20:05Z</time>
      </trkpt>
      <trkpt lat="48.0194" lon="6.76603">
        <ele>525</ele>
        <time>2022-06-26T09:20:06Z</time>
      </trkpt>
      <trkpt lat="48.01938" lon="6.76605">
        <ele>525.2</ele>
        <time>2022-06-26T09:20:07Z</time>
      </trkpt>
      <trkpt lat="48.01937" lon="6.76607">
        <ele>525.4</ele>
        <time>2022-06-26T09:20:08Z</time>
      </trkpt>
      <trkpt lat="48.01935" lon="6.76609">
        <ele>525.4</ele>
        <time>2022-06-26T09:20:09Z</time>
      </trkpt>
      <trkpt lat="48.01935" lon="6.76609">
        <ele>525.4</ele>
        <time>2022-06-26T09:20:10Z</time>
      </trkpt>
      <trkpt lat="48.01932" lon="6.76611">
        <ele>525.6</ele>
        <time>2022-06-26T09:20:11Z</time>
      </trkpt>
      <trkpt lat="48.0193" lon="6.76612">
        <ele>525.8</ele>
        <time>2022-06-26T09:20:12Z</time>
      </trkpt>
      <trkpt lat="48.01929" lon="6.76613">
        <ele>525.8</ele>
        <time>2022-06-26T09:20:13Z</time>
      </trkpt>
      <trkpt lat="48.01928" lon="6.76612">
        <ele>526</ele>
        <time>2022-06-26T09:20:14Z</time>
      </trkpt>
      <trkpt lat="48.01928" lon="6.76611">
        <ele>526</ele>
        <time>2022-06-26T09:20:15Z</time>
      </trkpt>
      <trkpt lat="48.01927" lon="6.7661">
        <ele>526.2</ele>
        <time>2022-06-26T09:20:16Z</time>
      </trkpt>
      <trkpt lat="48.01927" lon="6.76609">
        <ele>526.2</ele>
        <time>2022-06-26T09:20:17Z</time>
      </trkpt>
      <trkpt lat="48.01926" lon="6.76608">
        <ele>526.4</ele>
        <time>2022-06-26T09:20:18Z</time>
      </trkpt>
      <trkpt lat="48.01925" lon="6.76607">
        <ele>526.4</ele>
        <time>2022-06-26T09:20:19Z</time>
      </trkpt>
      <trkpt lat="48.01923" lon="6.76606">
        <ele>526.6</ele>
        <time>2022-06-26T09:20:20Z</time>
      </trkpt>
      <trkpt lat="48.01922" lon="6.76605">
        <ele>527</ele>
        <time>2022-06-26T09:20:21Z</time>
      </trkpt>
      <trkpt lat="48.01921" lon="6.76604">
        <ele>527.2</ele>
        <time>2022-06-26T09:20:22Z</time>
      </trkpt>
      <trkpt lat="48.0192" lon="6.76604">
        <ele>527.4</ele>
        <time>2022-06-26T09:20:23Z</time>
      </trkpt>
      <trkpt lat="48.01918" lon="6.76603">
        <ele>527.6</ele>
        <time>2022-06-26T09:20:24Z</time>
      </trkpt>
      <trkpt lat="48.01916" lon="6.76603">
        <ele>528</ele>
        <time>2022-06-26T09:20:26Z</time>
      </trkpt>
      <trkpt lat="48.01914" lon="6.76602">
        <ele>528</ele>
        <time>2022-06-26T09:20:27Z</time>
      </trkpt>
      <trkpt lat="48.01913" lon="6.76602">
        <ele>528.2</ele>
        <time>2022-06-26T09:20:28Z</time>
      </trkpt>
      <trkpt lat="48.01912" lon="6.76601">
        <ele>528.2</ele>
        <time>2022-06-26T09:20:29Z</time>
      </trkpt>
      <trkpt lat="48.0191" lon="6.766">
        <ele>528.4</ele>
        <time>2022-06-26T09:20:30Z</time>
      </trkpt>
      <trkpt lat="48.01908" lon="6.766">
        <ele>528.6</ele>
        <time>2022-06-26T09:20:31Z</time>
      </trkpt>
      <trkpt lat="48.01907" lon="6.76599">
        <ele>529</ele>
        <time>2022-06-26T09:20:32Z</time>
      </trkpt>
      <trkpt lat="48.01906" lon="6.76598">
        <ele>529</ele>
        <time>2022-06-26T09:20:33Z</time>
      </trkpt>
      <trkpt lat="48.01904" lon="6.76597">
        <ele>529.2</ele>
        <time>2022-06-26T09:20:34Z</time>
      </trkpt>
      <trkpt lat="48.01902" lon="6.76595">
        <ele>529.4</ele>
        <time>2022-06-26T09:20:35Z</time>
      </trkpt>
      <trkpt lat="48.01901" lon="6.76595">
        <ele>529.4</ele>
        <time>2022-06-26T09:20:36Z</time>
      </trkpt>
      <trkpt lat="48.01899" lon="6.76594">
        <ele>529.8</ele>
        <time>2022-06-26T09:20:37Z</time>
      </trkpt>
      <trkpt lat="48.01898" lon="6.76593">
        <ele>530</ele>
        <time>2022-06-26T09:20:38Z</time>
      </trkpt>
      <trkpt lat="48.01897" lon="6.76592">
        <ele>530.4</ele>
        <time>2022-06-26T09:20:39Z</time>
      </trkpt>
      <trkpt lat="48.01895" lon="6.76591">
        <ele>530.4</ele>
        <time>2022-06-26T09:20:40Z</time>
      </trkpt>
      <trkpt lat="48.01893" lon="6.7659">
        <ele>530.8</ele>
        <time>2022-06-26T09:20:41Z</time>
      </trkpt>
      <trkpt lat="48.01891" lon="6.76589">
        <ele>531</ele>
        <time>2022-06-26T09:20:42Z</time>
      </trkpt>
      <trkpt lat="48.01889" lon="6.76588">
        <ele>531.4</ele>
        <time>2022-06-26T09:20:43Z</time>
      </trkpt>
      <trkpt lat="48.01887" lon="6.76587">
        <ele>531.6</ele>
        <time>2022-06-26T09:20:44Z</time>
      </trkpt>
      <trkpt lat="48.01886" lon="6.76586">
        <ele>531.6</ele>
        <time>2022-06-26T09:20:45Z</time>
      </trkpt>
      <trkpt lat="48.01884" lon="6.76586">
        <ele>531.8</ele>
        <time>2022-06-26T09:20:46Z</time>
      </trkpt>
      <trkpt lat="48.01882" lon="6.76585">
        <ele>531.8</ele>
        <time>2022-06-26T09:20:47Z</time>
      </trkpt>
      <trkpt lat="48.0188" lon="6.76584">
        <ele>531.8</ele>
        <time>2022-06-26T09:20:48Z</time>
      </trkpt>
      <trkpt lat="48.01878" lon="6.76584">
        <ele>532</ele>
        <time>2022-06-26T09:20:49Z</time>
      </trkpt>
      <trkpt lat="48.01876" lon="6.76583">
        <ele>532</ele>
        <time>2022-06-26T09:20:50Z</time>
      </trkpt>
      <trkpt lat="48.01874" lon="6.76583">
        <ele>532</ele>
        <time>2022-06-26T09:20:51Z</time>
      </trkpt>
      <trkpt lat="48.01872" lon="6.76582">
        <ele>532</ele>
        <time>2022-06-26T09:20:52Z</time>
      </trkpt>
      <trkpt lat="48.01869" lon="6.76581">
        <ele>532</ele>
        <time>2022-06-26T09:20:53Z</time>
      </trkpt>
      <trkpt lat="48.01867" lon="6.7658">
        <ele>532</ele>
        <time>2022-06-26T09:20:54Z</time>
      </trkpt>
      <trkpt lat="48.01865" lon="6.76578">
        <ele>532.2</ele>
        <time>2022-06-26T09:20:55Z</time>
      </trkpt>
      <trkpt lat="48.01862" lon="6.76577">
        <ele>532.2</ele>
        <time>2022-06-26T09:20:56Z</time>
      </trkpt>
      <trkpt lat="48.0186" lon="6.76576">
        <ele>532.4</ele>
        <time>2022-06-26T09:20:57Z</time>
      </trkpt>
      <trkpt lat="48.01859" lon="6.76575">
        <ele>532.4</ele>
        <time>2022-06-26T09:20:58Z</time>
      </trkpt>
      <trkpt lat="48.01857" lon="6.76573">
        <ele>532.6</ele>
        <time>2022-06-26T09:20:59Z</time>
      </trkpt>
      <trkpt lat="48.01855" lon="6.76572">
        <ele>532.6</ele>
        <time>2022-06-26T09:21:00Z</time>
      </trkpt>
      <trkpt lat="48.01854" lon="6.7657">
        <ele>532.8</ele>
        <time>2022-06-26T09:21:01Z</time>
      </trkpt>
      <trkpt lat="48.01852" lon="6.76568">
        <ele>532.8</ele>
        <time>2022-06-26T09:21:02Z</time>
      </trkpt>
      <trkpt lat="48.0185" lon="6.76565">
        <ele>532.8</ele>
        <time>2022-06-26T09:21:03Z</time>
      </trkpt>
      <trkpt lat="48.01848" lon="6.76562">
        <ele>533</ele>
        <time>2022-06-26T09:21:04Z</time>
      </trkpt>
      <trkpt lat="48.01847" lon="6.76559">
        <ele>533</ele>
        <time>2022-06-26T09:21:05Z</time>
      </trkpt>
      <trkpt lat="48.01847" lon="6.76557">
        <ele>533.2</ele>
        <time>2022-06-26T09:21:06Z</time>
      </trkpt>
      <trkpt lat="48.01846" lon="6.76553">
        <ele>533.2</ele>
        <time>2022-06-26T09:21:07Z</time>
      </trkpt>
      <trkpt lat="48.01845" lon="6.7655">
        <ele>533.2</ele>
        <time>2022-06-26T09:21:08Z</time>
      </trkpt>
      <trkpt lat="48.01845" lon="6.76547">
        <ele>533.4</ele>
        <time>2022-06-26T09:21:09Z</time>
      </trkpt>
      <trkpt lat="48.01846" lon="6.76544">
        <ele>533.4</ele>
        <time>2022-06-26T09:21:10Z</time>
      </trkpt>
      <trkpt lat="48.01847" lon="6.76537">
        <ele>534</ele>
        <time>2022-06-26T09:21:13Z</time>
      </trkpt>
      <trkpt lat="48.01846" lon="6.76533">
        <ele>534.6</ele>
        <time>2022-06-26T09:21:15Z</time>
      </trkpt>
      <trkpt lat="48.01846" lon="6.76531">
        <ele>534.8</ele>
        <time>2022-06-26T09:21:16Z</time>
      </trkpt>
      <trkpt lat="48.01845" lon="6.76528">
        <ele>534.8</ele>
        <time>2022-06-26T09:21:17Z</time>
      </trkpt>
      <trkpt lat="48.01845" lon="6.76525">
        <ele>534.8</ele>
        <time>2022-06-26T09:21:18Z</time>
      </trkpt>
      <trkpt lat="48.01844" lon="6.76522">
        <ele>535</ele>
        <time>2022-06-26T09:21:19Z</time>
      </trkpt>
      <trkpt lat="48.01844" lon="6.76519">
        <ele>535</ele>
        <time>2022-06-26T09:21:20Z</time>
      </trkpt>
      <trkpt lat="48.01842" lon="6.76516">
        <ele>535</ele>
        <time>2022-06-26T09:21:21Z</time>
      </trkpt>
      <trkpt lat="48.01841" lon="6.76511">
        <ele>534.8</ele>
        <time>2022-06-26T09:21:22Z</time>
      </trkpt>
      <trkpt lat="48.0184" lon="6.76505">
        <ele>534.4</ele>
        <time>2022-06-26T09:21:23Z</time>
      </trkpt>
      <trkpt lat="48.01839" lon="6.765">
        <ele>534</ele>
        <time>2022-06-26T09:21:24Z</time>
      </trkpt>
      <trkpt lat="48.01839" lon="6.76494">
        <ele>533.8</ele>
        <time>2022-06-26T09:21:25Z</time>
      </trkpt>
      <trkpt lat="48.0184" lon="6.7649">
        <ele>533.6</ele>
        <time>2022-06-26T09:21:26Z</time>
      </trkpt>
      <trkpt lat="48.0184" lon="6.76486">
        <ele>533.2</ele>
        <time>2022-06-26T09:21:27Z</time>
      </trkpt>
      <trkpt lat="48.0184" lon="6.76483">
        <ele>532.4</ele>
        <time>2022-06-26T09:21:28Z</time>
      </trkpt>
      <trkpt lat="48.01839" lon="6.7648">
        <ele>532.2</ele>
        <time>2022-06-26T09:21:29Z</time>
      </trkpt>
      <trkpt lat="48.01839" lon="6.76478">
        <ele>532</ele>
        <time>2022-06-26T09:21:30Z</time>
      </trkpt>
      <trkpt lat="48.01839" lon="6.76475">
        <ele>531.8</ele>
        <time>2022-06-26T09:21:31Z</time>
      </trkpt>
      <trkpt lat="48.01839" lon="6.76473">
        <ele>531.8</ele>
        <time>2022-06-26T09:21:32Z</time>
      </trkpt>
      <trkpt lat="48.01838" lon="6.76471">
        <ele>531.8</ele>
        <time>2022-06-26T09:21:33Z</time>
      </trkpt>
      <trkpt lat="48.01837" lon="6.76469">
        <ele>531.8</ele>
        <time>2022-06-26T09:21:34Z</time>
      </trkpt>
      <trkpt lat="48.01837" lon="6.76467">
        <ele>531.8</ele>
        <time>2022-06-26T09:21:35Z</time>
      </trkpt>
      <trkpt lat="48.01837" lon="6.76464">
        <ele>531.8</ele>
        <time>2022-06-26T09:21:36Z</time>
      </trkpt>
      <trkpt lat="48.01838" lon="6.76462">
        <ele>531.8</ele>
        <time>2022-06-26T09:21:37Z</time>
      </trkpt>
      <trkpt lat="48.01841" lon="6.76461">
        <ele>532.2</ele>
        <time>2022-06-26T09:21:38Z</time>
      </trkpt>
      <trkpt lat="48.01846" lon="6.76461">
        <ele>532.6</ele>
        <time>2022-06-26T09:21:41Z</time>
      </trkpt>
      <trkpt lat="48.01847" lon="6.7646">
        <ele>532.6</ele>
        <time>2022-06-26T09:21:42Z</time>
      </trkpt>
      <trkpt lat="48.01847" lon="6.76459">
        <ele>532.6</ele>
        <time>2022-06-26T09:21:43Z</time>
      </trkpt>
      <trkpt lat="48.01848" lon="6.76457">
        <ele>532.8</ele>
        <time>2022-06-26T09:21:44Z</time>
      </trkpt>
      <trkpt lat="48.01849" lon="6.76456">
        <ele>532.8</ele>
        <time>2022-06-26T09:21:45Z</time>
      </trkpt>
      <trkpt lat="48.01849" lon="6.76455">
        <ele>533</ele>
        <time>2022-06-26T09:21:46Z</time>
      </trkpt>
      <trkpt lat="48.0185" lon="6.76453">
        <ele>533.2</ele>
        <time>2022-06-26T09:21:47Z</time>
      </trkpt>
      <trkpt lat="48.0185" lon="6.76452">
        <ele>533.4</ele>
        <time>2022-06-26T09:21:48Z</time>
      </trkpt>
      <trkpt lat="48.01849" lon="6.7645">
        <ele>533.6</ele>
        <time>2022-06-26T09:21:49Z</time>
      </trkpt>
      <trkpt lat="48.01849" lon="6.76448">
        <ele>533.8</ele>
        <time>2022-06-26T09:21:50Z</time>
      </trkpt>
      <trkpt lat="48.01848" lon="6.76447">
        <ele>534</ele>
        <time>2022-06-26T09:21:51Z</time>
      </trkpt>
      <trkpt lat="48.01847" lon="6.76446">
        <ele>534.2</ele>
        <time>2022-06-26T09:21:52Z</time>
      </trkpt>
      <trkpt lat="48.01846" lon="6.76445">
        <ele>534.4</ele>
        <time>2022-06-26T09:21:53Z</time>
      </trkpt>
      <trkpt lat="48.01844" lon="6.76443">
        <ele>534.6</ele>
        <time>2022-06-26T09:21:55Z</time>
      </trkpt>
      <trkpt lat="48.01843" lon="6.76443">
        <ele>534.8</ele>
        <time>2022-06-26T09:21:56Z</time>
      </trkpt>
      <trkpt lat="48.01835" lon="6.76442">
        <ele>535.8</ele>
        <time>2022-06-26T09:22:01Z</time>
      </trkpt>
      <trkpt lat="48.01833" lon="6.76443">
        <ele>536.2</ele>
        <time>2022-06-26T09:22:02Z</time>
      </trkpt>
      <trkpt lat="48.01832" lon="6.76443">
        <ele>536.4</ele>
        <time>2022-06-26T09:22:03Z</time>
      </trkpt>
      <trkpt lat="48.0183" lon="6.76442">
        <ele>536.4</ele>
        <time>2022-06-26T09:22:04Z</time>
      </trkpt>
      <trkpt lat="48.01828" lon="6.76441">
        <ele>536.8</ele>
        <time>2022-06-26T09:22:05Z</time>
      </trkpt>
      <trkpt lat="48.01826" lon="6.7644">
        <ele>536.8</ele>
        <time>2022-06-26T09:22:06Z</time>
      </trkpt>
      <trkpt lat="48.01823" lon="6.76439">
        <ele>537</ele>
        <time>2022-06-26T09:22:07Z</time>
      </trkpt>
      <trkpt lat="48.01822" lon="6.76438">
        <ele>537</ele>
        <time>2022-06-26T09:22:08Z</time>
      </trkpt>
      <trkpt lat="48.01819" lon="6.76437">
        <ele>537.2</ele>
        <time>2022-06-26T09:22:09Z</time>
      </trkpt>
      <trkpt lat="48.01817" lon="6.76436">
        <ele>537.2</ele>
        <time>2022-06-26T09:22:10Z</time>
      </trkpt>
      <trkpt lat="48.01815" lon="6.76436">
        <ele>537.2</ele>
        <time>2022-06-26T09:22:11Z</time>
      </trkpt>
      <trkpt lat="48.01813" lon="6.76436">
        <ele>537.2</ele>
        <time>2022-06-26T09:22:12Z</time>
      </trkpt>
      <trkpt lat="48.0181" lon="6.76435">
        <ele>537.4</ele>
        <time>2022-06-26T09:22:13Z</time>
      </trkpt>
      <trkpt lat="48.01808" lon="6.76434">
        <ele>537.6</ele>
        <time>2022-06-26T09:22:14Z</time>
      </trkpt>
      <trkpt lat="48.01806" lon="6.76433">
        <ele>537.8</ele>
        <time>2022-06-26T09:22:15Z</time>
      </trkpt>
      <trkpt lat="48.01803" lon="6.76431">
        <ele>537.8</ele>
        <time>2022-06-26T09:22:16Z</time>
      </trkpt>
      <trkpt lat="48.01801" lon="6.76429">
        <ele>537.8</ele>
        <time>2022-06-26T09:22:17Z</time>
      </trkpt>
      <trkpt lat="48.01799" lon="6.76427">
        <ele>538</ele>
        <time>2022-06-26T09:22:18Z</time>
      </trkpt>
      <trkpt lat="48.01796" lon="6.76425">
        <ele>538</ele>
        <time>2022-06-26T09:22:19Z</time>
      </trkpt>
      <trkpt lat="48.01794" lon="6.76423">
        <ele>538</ele>
        <time>2022-06-26T09:22:20Z</time>
      </trkpt>
      <trkpt lat="48.01793" lon="6.76422">
        <ele>538</ele>
        <time>2022-06-26T09:22:21Z</time>
      </trkpt>
      <trkpt lat="48.0179" lon="6.7642">
        <ele>538</ele>
        <time>2022-06-26T09:22:22Z</time>
      </trkpt>
      <trkpt lat="48.01788" lon="6.76419">
        <ele>537.8</ele>
        <time>2022-06-26T09:22:23Z</time>
      </trkpt>
      <trkpt lat="48.01785" lon="6.76416">
        <ele>537.8</ele>
        <time>2022-06-26T09:22:24Z</time>
      </trkpt>
      <trkpt lat="48.01783" lon="6.76414">
        <ele>537.6</ele>
        <time>2022-06-26T09:22:25Z</time>
      </trkpt>
      <trkpt lat="48.01782" lon="6.76411">
        <ele>537.6</ele>
        <time>2022-06-26T09:22:26Z</time>
      </trkpt>
      <trkpt lat="48.0178" lon="6.76408">
        <ele>537.6</ele>
        <time>2022-06-26T09:22:27Z</time>
      </trkpt>
      <trkpt lat="48.01778" lon="6.76405">
        <ele>537.6</ele>
        <time>2022-06-26T09:22:28Z</time>
      </trkpt>
      <trkpt lat="48.01766" lon="6.76389">
        <ele>536.8</ele>
        <time>2022-06-26T09:22:32Z</time>
      </trkpt>
      <trkpt lat="48.01764" lon="6.76384">
        <ele>536.8</ele>
        <time>2022-06-26T09:22:33Z</time>
      </trkpt>
      <trkpt lat="48.0176" lon="6.76376">
        <ele>536.6</ele>
        <time>2022-06-26T09:22:35Z</time>
      </trkpt>
      <trkpt lat="48.01758" lon="6.76372">
        <ele>536.4</ele>
        <time>2022-06-26T09:22:36Z</time>
      </trkpt>
      <trkpt lat="48.01755" lon="6.76369">
        <ele>536.4</ele>
        <time>2022-06-26T09:22:37Z</time>
      </trkpt>
      <trkpt lat="48.01741" lon="6.7635">
        <ele>535.6</ele>
        <time>2022-06-26T09:22:41Z</time>
      </trkpt>
      <trkpt lat="48.0174" lon="6.76342">
        <ele>535</ele>
        <time>2022-06-26T09:22:43Z</time>
      </trkpt>
      <trkpt lat="48.01739" lon="6.76338">
        <ele>534.6</ele>
        <time>2022-06-26T09:22:44Z</time>
      </trkpt>
      <trkpt lat="48.01739" lon="6.76335">
        <ele>534.6</ele>
        <time>2022-06-26T09:22:45Z</time>
      </trkpt>
      <trkpt lat="48.01739" lon="6.76332">
        <ele>534.4</ele>
        <time>2022-06-26T09:22:46Z</time>
      </trkpt>
      <trkpt lat="48.01738" lon="6.76329">
        <ele>534.2</ele>
        <time>2022-06-26T09:22:47Z</time>
      </trkpt>
      <trkpt lat="48.01738" lon="6.76326">
        <ele>534.2</ele>
        <time>2022-06-26T09:22:48Z</time>
      </trkpt>
      <trkpt lat="48.01738" lon="6.76324">
        <ele>534.2</ele>
        <time>2022-06-26T09:22:49Z</time>
      </trkpt>
      <trkpt lat="48.01737" lon="6.76321">
        <ele>534.2</ele>
        <time>2022-06-26T09:22:50Z</time>
      </trkpt>
      <trkpt lat="48.01735" lon="6.76314">
        <ele>534.4</ele>
        <time>2022-06-26T09:22:52Z</time>
      </trkpt>
      <trkpt lat="48.01735" lon="6.76311">
        <ele>534.6</ele>
        <time>2022-06-26T09:22:53Z</time>
      </trkpt>
      <trkpt lat="48.01734" lon="6.76308">
        <ele>535</ele>
        <time>2022-06-26T09:22:54Z</time>
      </trkpt>
      <trkpt lat="48.01734" lon="6.76306">
        <ele>535.2</ele>
        <time>2022-06-26T09:22:55Z</time>
      </trkpt>
      <trkpt lat="48.01734" lon="6.76304">
        <ele>535.6</ele>
        <time>2022-06-26T09:22:56Z</time>
      </trkpt>
      <trkpt lat="48.01733" lon="6.76301">
        <ele>535.8</ele>
        <time>2022-06-26T09:22:57Z</time>
      </trkpt>
      <trkpt lat="48.01732" lon="6.76299">
        <ele>535.8</ele>
        <time>2022-06-26T09:22:58Z</time>
      </trkpt>
      <trkpt lat="48.01731" lon="6.76297">
        <ele>536</ele>
        <time>2022-06-26T09:22:59Z</time>
      </trkpt>
      <trkpt lat="48.01731" lon="6.76294">
        <ele>536</ele>
        <time>2022-06-26T09:23:00Z</time>
      </trkpt>
      <trkpt lat="48.01732" lon="6.76291">
        <ele>536.4</ele>
        <time>2022-06-26T09:23:01Z</time>
      </trkpt>
      <trkpt lat="48.01732" lon="6.76286">
        <ele>536.8</ele>
        <time>2022-06-26T09:23:03Z</time>
      </trkpt>
      <trkpt lat="48.01731" lon="6.76281">
        <ele>536.8</ele>
        <time>2022-06-26T09:23:04Z</time>
      </trkpt>
      <trkpt lat="48.01729" lon="6.76277">
        <ele>537.2</ele>
        <time>2022-06-26T09:23:05Z</time>
      </trkpt>
      <trkpt lat="48.01729" lon="6.76273">
        <ele>537.6</ele>
        <time>2022-06-26T09:23:06Z</time>
      </trkpt>
      <trkpt lat="48.01728" lon="6.7627">
        <ele>537.8</ele>
        <time>2022-06-26T09:23:07Z</time>
      </trkpt>
      <trkpt lat="48.01728" lon="6.76266">
        <ele>538</ele>
        <time>2022-06-26T09:23:08Z</time>
      </trkpt>
      <trkpt lat="48.01729" lon="6.76264">
        <ele>538.2</ele>
        <time>2022-06-26T09:23:09Z</time>
      </trkpt>
      <trkpt lat="48.01729" lon="6.76262">
        <ele>538.4</ele>
        <time>2022-06-26T09:23:10Z</time>
      </trkpt>
      <trkpt lat="48.01729" lon="6.76259">
        <ele>538.4</ele>
        <time>2022-06-26T09:23:11Z</time>
      </trkpt>
      <trkpt lat="48.01729" lon="6.76257">
        <ele>538.8</ele>
        <time>2022-06-26T09:23:12Z</time>
      </trkpt>
      <trkpt lat="48.01729" lon="6.76255">
        <ele>539</ele>
        <time>2022-06-26T09:23:13Z</time>
      </trkpt>
      <trkpt lat="48.01729" lon="6.76252">
        <ele>539.2</ele>
        <time>2022-06-26T09:23:14Z</time>
      </trkpt>
      <trkpt lat="48.01728" lon="6.76248">
        <ele>539.2</ele>
        <time>2022-06-26T09:23:15Z</time>
      </trkpt>
      <trkpt lat="48.01727" lon="6.76245">
        <ele>539.4</ele>
        <time>2022-06-26T09:23:16Z</time>
      </trkpt>
      <trkpt lat="48.01727" lon="6.76241">
        <ele>539.6</ele>
        <time>2022-06-26T09:23:17Z</time>
      </trkpt>
      <trkpt lat="48.01726" lon="6.76237">
        <ele>539.6</ele>
        <time>2022-06-26T09:23:18Z</time>
      </trkpt>
      <trkpt lat="48.01725" lon="6.76233">
        <ele>539.8</ele>
        <time>2022-06-26T09:23:19Z</time>
      </trkpt>
      <trkpt lat="48.01724" lon="6.76229">
        <ele>539.8</ele>
        <time>2022-06-26T09:23:20Z</time>
      </trkpt>
      <trkpt lat="48.01723" lon="6.76225">
        <ele>539.8</ele>
        <time>2022-06-26T09:23:21Z</time>
      </trkpt>
      <trkpt lat="48.01723" lon="6.7622">
        <ele>539.8</ele>
        <time>2022-06-26T09:23:22Z</time>
      </trkpt>
      <trkpt lat="48.01723" lon="6.76215">
        <ele>539.8</ele>
        <time>2022-06-26T09:23:23Z</time>
      </trkpt>
      <trkpt lat="48.01722" lon="6.76211">
        <ele>539.8</ele>
        <time>2022-06-26T09:23:24Z</time>
      </trkpt>
      <trkpt lat="48.01721" lon="6.76208">
        <ele>539.8</ele>
        <time>2022-06-26T09:23:25Z</time>
      </trkpt>
      <trkpt lat="48.01719" lon="6.76202">
        <ele>539.4</ele>
        <time>2022-06-26T09:23:26Z</time>
      </trkpt>
      <trkpt lat="48.01716" lon="6.76197">
        <ele>539.2</ele>
        <time>2022-06-26T09:23:27Z</time>
      </trkpt>
      <trkpt lat="48.01714" lon="6.76194">
        <ele>539</ele>
        <time>2022-06-26T09:23:28Z</time>
      </trkpt>
      <trkpt lat="48.01712" lon="6.76191">
        <ele>539</ele>
        <time>2022-06-26T09:23:29Z</time>
      </trkpt>
      <trkpt lat="48.0171" lon="6.76189">
        <ele>538.6</ele>
        <time>2022-06-26T09:23:30Z</time>
      </trkpt>
      <trkpt lat="48.01707" lon="6.76187">
        <ele>538.6</ele>
        <time>2022-06-26T09:23:31Z</time>
      </trkpt>
      <trkpt lat="48.01703" lon="6.76184">
        <ele>538.2</ele>
        <time>2022-06-26T09:23:32Z</time>
      </trkpt>
      <trkpt lat="48.017" lon="6.76183">
        <ele>538</ele>
        <time>2022-06-26T09:23:33Z</time>
      </trkpt>
      <trkpt lat="48.01696" lon="6.76178">
        <ele>537.4</ele>
        <time>2022-06-26T09:23:35Z</time>
      </trkpt>
      <trkpt lat="48.01695" lon="6.76175">
        <ele>537.2</ele>
        <time>2022-06-26T09:23:36Z</time>
      </trkpt>
      <trkpt lat="48.01694" lon="6.76173">
        <ele>536.8</ele>
        <time>2022-06-26T09:23:37Z</time>
      </trkpt>
      <trkpt lat="48.01692" lon="6.76169">
        <ele>536.6</ele>
        <time>2022-06-26T09:23:38Z</time>
      </trkpt>
      <trkpt lat="48.01691" lon="6.76166">
        <ele>536.4</ele>
        <time>2022-06-26T09:23:39Z</time>
      </trkpt>
      <trkpt lat="48.01685" lon="6.76161">
        <ele>535.8</ele>
        <time>2022-06-26T09:23:42Z</time>
      </trkpt>
      <trkpt lat="48.01684" lon="6.76159">
        <ele>535.6</ele>
        <time>2022-06-26T09:23:43Z</time>
      </trkpt>
      <trkpt lat="48.01684" lon="6.76156">
        <ele>535.6</ele>
        <time>2022-06-26T09:23:44Z</time>
      </trkpt>
      <trkpt lat="48.01684" lon="6.76152">
        <ele>535.6</ele>
        <time>2022-06-26T09:23:45Z</time>
      </trkpt>
      <trkpt lat="48.01684" lon="6.76149">
        <ele>535.6</ele>
        <time>2022-06-26T09:23:46Z</time>
      </trkpt>
      <trkpt lat="48.01685" lon="6.76147">
        <ele>535.6</ele>
        <time>2022-06-26T09:23:47Z</time>
      </trkpt>
      <trkpt lat="48.01689" lon="6.76141">
        <ele>535.6</ele>
        <time>2022-06-26T09:23:49Z</time>
      </trkpt>
      <trkpt lat="48.01692" lon="6.76138">
        <ele>535.6</ele>
        <time>2022-06-26T09:23:50Z</time>
      </trkpt>
      <trkpt lat="48.017" lon="6.76122">
        <ele>535.6</ele>
        <time>2022-06-26T09:23:55Z</time>
      </trkpt>
      <trkpt lat="48.01699" lon="6.76119">
        <ele>535.6</ele>
        <time>2022-06-26T09:23:56Z</time>
      </trkpt>
      <trkpt lat="48.01698" lon="6.76117">
        <ele>535.6</ele>
        <time>2022-06-26T09:23:57Z</time>
      </trkpt>
      <trkpt lat="48.01697" lon="6.76116">
        <ele>535.6</ele>
        <time>2022-06-26T09:23:58Z</time>
      </trkpt>
      <trkpt lat="48.01695" lon="6.76115">
        <ele>535.6</ele>
        <time>2022-06-26T09:23:59Z</time>
      </trkpt>
      <trkpt lat="48.01693" lon="6.76113">
        <ele>535.6</ele>
        <time>2022-06-26T09:24:00Z</time>
      </trkpt>
      <trkpt lat="48.01686" lon="6.76108">
        <ele>535.6</ele>
        <time>2022-06-26T09:24:04Z</time>
      </trkpt>
      <trkpt lat="48.01672" lon="6.76093">
        <ele>536.8</ele>
        <time>2022-06-26T09:24:11Z</time>
      </trkpt>
      <trkpt lat="48.01668" lon="6.7609">
        <ele>536.8</ele>
        <time>2022-06-26T09:24:13Z</time>
      </trkpt>
      <trkpt lat="48.01667" lon="6.76088">
        <ele>537</ele>
        <time>2022-06-26T09:24:14Z</time>
      </trkpt>
      <trkpt lat="48.01665" lon="6.76086">
        <ele>537.2</ele>
        <time>2022-06-26T09:24:15Z</time>
      </trkpt>
      <trkpt lat="48.01652" lon="6.76079">
        <ele>537.8</ele>
        <time>2022-06-26T09:24:21Z</time>
      </trkpt>
      <trkpt lat="48.01649" lon="6.76078">
        <ele>538</ele>
        <time>2022-06-26T09:24:22Z</time>
      </trkpt>
      <trkpt lat="48.01638" lon="6.76071">
        <ele>538.8</ele>
        <time>2022-06-26T09:24:28Z</time>
      </trkpt>
      <trkpt lat="48.01636" lon="6.76069">
        <ele>539.4</ele>
        <time>2022-06-26T09:24:29Z</time>
      </trkpt>
      <trkpt lat="48.01632" lon="6.76066">
        <ele>539.6</ele>
        <time>2022-06-26T09:24:31Z</time>
      </trkpt>
      <trkpt lat="48.01631" lon="6.76064">
        <ele>539.8</ele>
        <time>2022-06-26T09:24:32Z</time>
      </trkpt>
      <trkpt lat="48.01629" lon="6.76062">
        <ele>539.8</ele>
        <time>2022-06-26T09:24:33Z</time>
      </trkpt>
      <trkpt lat="48.01627" lon="6.7606">
        <ele>539.8</ele>
        <time>2022-06-26T09:24:34Z</time>
      </trkpt>
      <trkpt lat="48.01626" lon="6.76058">
        <ele>540</ele>
        <time>2022-06-26T09:24:35Z</time>
      </trkpt>
      <trkpt lat="48.01624" lon="6.76056">
        <ele>540.2</ele>
        <time>2022-06-26T09:24:36Z</time>
      </trkpt>
      <trkpt lat="48.01622" lon="6.76053">
        <ele>540.4</ele>
        <time>2022-06-26T09:24:37Z</time>
      </trkpt>
      <trkpt lat="48.0162" lon="6.76051">
        <ele>540.6</ele>
        <time>2022-06-26T09:24:38Z</time>
      </trkpt>
      <trkpt lat="48.01617" lon="6.76049">
        <ele>540.6</ele>
        <time>2022-06-26T09:24:39Z</time>
      </trkpt>
      <trkpt lat="48.01615" lon="6.76046">
        <ele>540.6</ele>
        <time>2022-06-26T09:24:40Z</time>
      </trkpt>
      <trkpt lat="48.01613" lon="6.76044">
        <ele>540.6</ele>
        <time>2022-06-26T09:24:41Z</time>
      </trkpt>
      <trkpt lat="48.01612" lon="6.76042">
        <ele>540.8</ele>
        <time>2022-06-26T09:24:42Z</time>
      </trkpt>
      <trkpt lat="48.0161" lon="6.76039">
        <ele>540.8</ele>
        <time>2022-06-26T09:24:43Z</time>
      </trkpt>
      <trkpt lat="48.01608" lon="6.76037">
        <ele>540.8</ele>
        <time>2022-06-26T09:24:44Z</time>
      </trkpt>
      <trkpt lat="48.01607" lon="6.76035">
        <ele>540.8</ele>
        <time>2022-06-26T09:24:45Z</time>
      </trkpt>
      <trkpt lat="48.01605" lon="6.76033">
        <ele>541</ele>
        <time>2022-06-26T09:24:46Z</time>
      </trkpt>
      <trkpt lat="48.01603" lon="6.76031">
        <ele>541</ele>
        <time>2022-06-26T09:24:47Z</time>
      </trkpt>
      <trkpt lat="48.01601" lon="6.76028">
        <ele>541</ele>
        <time>2022-06-26T09:24:48Z</time>
      </trkpt>
      <trkpt lat="48.01598" lon="6.76025">
        <ele>541</ele>
        <time>2022-06-26T09:24:49Z</time>
      </trkpt>
      <trkpt lat="48.01596" lon="6.76023">
        <ele>541</ele>
        <time>2022-06-26T09:24:50Z</time>
      </trkpt>
      <trkpt lat="48.01594" lon="6.7602">
        <ele>541</ele>
        <time>2022-06-26T09:24:51Z</time>
      </trkpt>
      <trkpt lat="48.01592" lon="6.76018">
        <ele>541</ele>
        <time>2022-06-26T09:24:52Z</time>
      </trkpt>
      <trkpt lat="48.01589" lon="6.76015">
        <ele>541.2</ele>
        <time>2022-06-26T09:24:53Z</time>
      </trkpt>
      <trkpt lat="48.01587" lon="6.76013">
        <ele>541.2</ele>
        <time>2022-06-26T09:24:54Z</time>
      </trkpt>
      <trkpt lat="48.01586" lon="6.7601">
        <ele>541.2</ele>
        <time>2022-06-26T09:24:55Z</time>
      </trkpt>
      <trkpt lat="48.01575" lon="6.75996">
        <ele>541.2</ele>
        <time>2022-06-26T09:25:00Z</time>
      </trkpt>
      <trkpt lat="48.01571" lon="6.75986">
        <ele>541.4</ele>
        <time>2022-06-26T09:25:03Z</time>
      </trkpt>
      <trkpt lat="48.01569" lon="6.75983">
        <ele>541.4</ele>
        <time>2022-06-26T09:25:04Z</time>
      </trkpt>
      <trkpt lat="48.01567" lon="6.7598">
        <ele>541.4</ele>
        <time>2022-06-26T09:25:05Z</time>
      </trkpt>
      <trkpt lat="48.01566" lon="6.75977">
        <ele>541.4</ele>
        <time>2022-06-26T09:25:06Z</time>
      </trkpt>
      <trkpt lat="48.01564" lon="6.75975">
        <ele>541.6</ele>
        <time>2022-06-26T09:25:07Z</time>
      </trkpt>
      <trkpt lat="48.01563" lon="6.75972">
        <ele>541.6</ele>
        <time>2022-06-26T09:25:08Z</time>
      </trkpt>
      <trkpt lat="48.01562" lon="6.75969">
        <ele>541.8</ele>
        <time>2022-06-26T09:25:09Z</time>
      </trkpt>
      <trkpt lat="48.01561" lon="6.75966">
        <ele>541.8</ele>
        <time>2022-06-26T09:25:10Z</time>
      </trkpt>
      <trkpt lat="48.01559" lon="6.75963">
        <ele>542</ele>
        <time>2022-06-26T09:25:11Z</time>
      </trkpt>
      <trkpt lat="48.01558" lon="6.75961">
        <ele>542.2</ele>
        <time>2022-06-26T09:25:12Z</time>
      </trkpt>
      <trkpt lat="48.01556" lon="6.75958">
        <ele>542.2</ele>
        <time>2022-06-26T09:25:13Z</time>
      </trkpt>
      <trkpt lat="48.01554" lon="6.75956">
        <ele>542.2</ele>
        <time>2022-06-26T09:25:14Z</time>
      </trkpt>
      <trkpt lat="48.01553" lon="6.75953">
        <ele>542.4</ele>
        <time>2022-06-26T09:25:15Z</time>
      </trkpt>
      <trkpt lat="48.01552" lon="6.7595">
        <ele>542.4</ele>
        <time>2022-06-26T09:25:16Z</time>
      </trkpt>
      <trkpt lat="48.01551" lon="6.75947">
        <ele>542.6</ele>
        <time>2022-06-26T09:25:17Z</time>
      </trkpt>
      <trkpt lat="48.0155" lon="6.75945">
        <ele>542.8</ele>
        <time>2022-06-26T09:25:18Z</time>
      </trkpt>
      <trkpt lat="48.01548" lon="6.75942">
        <ele>543</ele>
        <time>2022-06-26T09:25:19Z</time>
      </trkpt>
      <trkpt lat="48.01547" lon="6.7594">
        <ele>543.4</ele>
        <time>2022-06-26T09:25:20Z</time>
      </trkpt>
      <trkpt lat="48.01545" lon="6.75937">
        <ele>543.8</ele>
        <time>2022-06-26T09:25:21Z</time>
      </trkpt>
      <trkpt lat="48.01544" lon="6.75935">
        <ele>544</ele>
        <time>2022-06-26T09:25:22Z</time>
      </trkpt>
      <trkpt lat="48.01542" lon="6.75932">
        <ele>544.2</ele>
        <time>2022-06-26T09:25:23Z</time>
      </trkpt>
      <trkpt lat="48.01541" lon="6.7593">
        <ele>544.2</ele>
        <time>2022-06-26T09:25:24Z</time>
      </trkpt>
      <trkpt lat="48.0154" lon="6.75927">
        <ele>544.4</ele>
        <time>2022-06-26T09:25:25Z</time>
      </trkpt>
      <trkpt lat="48.01538" lon="6.75924">
        <ele>544.4</ele>
        <time>2022-06-26T09:25:26Z</time>
      </trkpt>
      <trkpt lat="48.01537" lon="6.75922">
        <ele>544.8</ele>
        <time>2022-06-26T09:25:27Z</time>
      </trkpt>
      <trkpt lat="48.01537" lon="6.7592">
        <ele>545</ele>
        <time>2022-06-26T09:25:28Z</time>
      </trkpt>
      <trkpt lat="48.01536" lon="6.75917">
        <ele>545.4</ele>
        <time>2022-06-26T09:25:29Z</time>
      </trkpt>
      <trkpt lat="48.01536" lon="6.75914">
        <ele>545.4</ele>
        <time>2022-06-26T09:25:30Z</time>
      </trkpt>
      <trkpt lat="48.01535" lon="6.75911">
        <ele>545.6</ele>
        <time>2022-06-26T09:25:31Z</time>
      </trkpt>
      <trkpt lat="48.01534" lon="6.75908">
        <ele>545.8</ele>
        <time>2022-06-26T09:25:32Z</time>
      </trkpt>
      <trkpt lat="48.01533" lon="6.75905">
        <ele>546.2</ele>
        <time>2022-06-26T09:25:33Z</time>
      </trkpt>
      <trkpt lat="48.01532" lon="6.75902">
        <ele>546.8</ele>
        <time>2022-06-26T09:25:34Z</time>
      </trkpt>
      <trkpt lat="48.0153" lon="6.75898">
        <ele>547</ele>
        <time>2022-06-26T09:25:35Z</time>
      </trkpt>
      <trkpt lat="48.01528" lon="6.75895">
        <ele>547.2</ele>
        <time>2022-06-26T09:25:36Z</time>
      </trkpt>
      <trkpt lat="48.01526" lon="6.75892">
        <ele>547.4</ele>
        <time>2022-06-26T09:25:37Z</time>
      </trkpt>
      <trkpt lat="48.01524" lon="6.75888">
        <ele>547.8</ele>
        <time>2022-06-26T09:25:38Z</time>
      </trkpt>
      <trkpt lat="48.01523" lon="6.75885">
        <ele>548.2</ele>
        <time>2022-06-26T09:25:39Z</time>
      </trkpt>
      <trkpt lat="48.01521" lon="6.75882">
        <ele>548.4</ele>
        <time>2022-06-26T09:25:40Z</time>
      </trkpt>
      <trkpt lat="48.01519" lon="6.75878">
        <ele>548.6</ele>
        <time>2022-06-26T09:25:41Z</time>
      </trkpt>
      <trkpt lat="48.01518" lon="6.75874">
        <ele>548.8</ele>
        <time>2022-06-26T09:25:42Z</time>
      </trkpt>
      <trkpt lat="48.01516" lon="6.7587">
        <ele>548.8</ele>
        <time>2022-06-26T09:25:43Z</time>
      </trkpt>
      <trkpt lat="48.01515" lon="6.75866">
        <ele>549</ele>
        <time>2022-06-26T09:25:44Z</time>
      </trkpt>
      <trkpt lat="48.01514" lon="6.75862">
        <ele>549</ele>
        <time>2022-06-26T09:25:45Z</time>
      </trkpt>
      <trkpt lat="48.01512" lon="6.75857">
        <ele>549</ele>
        <time>2022-06-26T09:25:46Z</time>
      </trkpt>
      <trkpt lat="48.01511" lon="6.75854">
        <ele>549</ele>
        <time>2022-06-26T09:25:47Z</time>
      </trkpt>
      <trkpt lat="48.0151" lon="6.75849">
        <ele>549</ele>
        <time>2022-06-26T09:25:48Z</time>
      </trkpt>
      <trkpt lat="48.01509" lon="6.75845">
        <ele>549</ele>
        <time>2022-06-26T09:25:49Z</time>
      </trkpt>
      <trkpt lat="48.01508" lon="6.7584">
        <ele>549.2</ele>
        <time>2022-06-26T09:25:50Z</time>
      </trkpt>
      <trkpt lat="48.01507" lon="6.75836">
        <ele>549.2</ele>
        <time>2022-06-26T09:25:51Z</time>
      </trkpt>
      <trkpt lat="48.01505" lon="6.75831">
        <ele>549.2</ele>
        <time>2022-06-26T09:25:52Z</time>
      </trkpt>
      <trkpt lat="48.01504" lon="6.75826">
        <ele>549.2</ele>
        <time>2022-06-26T09:25:53Z</time>
      </trkpt>
      <trkpt lat="48.01503" lon="6.75821">
        <ele>549.2</ele>
        <time>2022-06-26T09:25:54Z</time>
      </trkpt>
      <trkpt lat="48.01502" lon="6.75815">
        <ele>549.2</ele>
        <time>2022-06-26T09:25:55Z</time>
      </trkpt>
      <trkpt lat="48.01501" lon="6.7581">
        <ele>549.2</ele>
        <time>2022-06-26T09:25:56Z</time>
      </trkpt>
      <trkpt lat="48.01499" lon="6.75803">
        <ele>549</ele>
        <time>2022-06-26T09:25:57Z</time>
      </trkpt>
      <trkpt lat="48.01497" lon="6.75797">
        <ele>549</ele>
        <time>2022-06-26T09:25:58Z</time>
      </trkpt>
      <trkpt lat="48.01495" lon="6.75792">
        <ele>548.8</ele>
        <time>2022-06-26T09:25:59Z</time>
      </trkpt>
      <trkpt lat="48.01492" lon="6.75785">
        <ele>548.8</ele>
        <time>2022-06-26T09:26:00Z</time>
      </trkpt>
      <trkpt lat="48.0149" lon="6.75778">
        <ele>548.4</ele>
        <time>2022-06-26T09:26:01Z</time>
      </trkpt>
      <trkpt lat="48.01488" lon="6.75772">
        <ele>548.2</ele>
        <time>2022-06-26T09:26:02Z</time>
      </trkpt>
      <trkpt lat="48.01486" lon="6.75765">
        <ele>547.8</ele>
        <time>2022-06-26T09:26:03Z</time>
      </trkpt>
      <trkpt lat="48.01485" lon="6.75753">
        <ele>547.2</ele>
        <time>2022-06-26T09:26:05Z</time>
      </trkpt>
      <trkpt lat="48.01485" lon="6.75747">
        <ele>546.8</ele>
        <time>2022-06-26T09:26:06Z</time>
      </trkpt>
      <trkpt lat="48.01484" lon="6.75741">
        <ele>546.8</ele>
        <time>2022-06-26T09:26:07Z</time>
      </trkpt>
      <trkpt lat="48.01481" lon="6.75721">
        <ele>545.8</ele>
        <time>2022-06-26T09:26:10Z</time>
      </trkpt>
      <trkpt lat="48.01481" lon="6.75714">
        <ele>545.6</ele>
        <time>2022-06-26T09:26:11Z</time>
      </trkpt>
      <trkpt lat="48.01481" lon="6.75707">
        <ele>545.2</ele>
        <time>2022-06-26T09:26:12Z</time>
      </trkpt>
      <trkpt lat="48.01482" lon="6.75702">
        <ele>545</ele>
        <time>2022-06-26T09:26:13Z</time>
      </trkpt>
      <trkpt lat="48.01485" lon="6.75697">
        <ele>545</ele>
        <time>2022-06-26T09:26:14Z</time>
      </trkpt>
      <trkpt lat="48.01488" lon="6.75694">
        <ele>544.6</ele>
        <time>2022-06-26T09:26:15Z</time>
      </trkpt>
      <trkpt lat="48.01494" lon="6.75689">
        <ele>544.4</ele>
        <time>2022-06-26T09:26:17Z</time>
      </trkpt>
      <trkpt lat="48.01496" lon="6.75684">
        <ele>544.4</ele>
        <time>2022-06-26T09:26:18Z</time>
      </trkpt>
      <trkpt lat="48.01499" lon="6.75679">
        <ele>544.2</ele>
        <time>2022-06-26T09:26:19Z</time>
      </trkpt>
      <trkpt lat="48.01501" lon="6.75672">
        <ele>544.2</ele>
        <time>2022-06-26T09:26:20Z</time>
      </trkpt>
      <trkpt lat="48.01504" lon="6.75666">
        <ele>543.8</ele>
        <time>2022-06-26T09:26:21Z</time>
      </trkpt>
      <trkpt lat="48.01508" lon="6.75656">
        <ele>543.6</ele>
        <time>2022-06-26T09:26:23Z</time>
      </trkpt>
      <trkpt lat="48.0151" lon="6.75651">
        <ele>543.2</ele>
        <time>2022-06-26T09:26:24Z</time>
      </trkpt>
      <trkpt lat="48.01512" lon="6.75643">
        <ele>543</ele>
        <time>2022-06-26T09:26:25Z</time>
      </trkpt>
      <trkpt lat="48.01514" lon="6.75637">
        <ele>542.8</ele>
        <time>2022-06-26T09:26:26Z</time>
      </trkpt>
      <trkpt lat="48.01519" lon="6.75621">
        <ele>542.4</ele>
        <time>2022-06-26T09:26:28Z</time>
      </trkpt>
      <trkpt lat="48.01525" lon="6.75604">
        <ele>541.4</ele>
        <time>2022-06-26T09:26:30Z</time>
      </trkpt>
      <trkpt lat="48.01531" lon="6.75588">
        <ele>539.6</ele>
        <time>2022-06-26T09:26:32Z</time>
      </trkpt>
      <trkpt lat="48.01533" lon="6.75583">
        <ele>538.2</ele>
        <time>2022-06-26T09:26:33Z</time>
      </trkpt>
      <trkpt lat="48.01535" lon="6.75575">
        <ele>537.8</ele>
        <time>2022-06-26T09:26:34Z</time>
      </trkpt>
      <trkpt lat="48.01536" lon="6.7557">
        <ele>537.2</ele>
        <time>2022-06-26T09:26:35Z</time>
      </trkpt>
      <trkpt lat="48.01536" lon="6.75563">
        <ele>536.4</ele>
        <time>2022-06-26T09:26:36Z</time>
      </trkpt>
      <trkpt lat="48.01534" lon="6.75558">
        <ele>534.6</ele>
        <time>2022-06-26T09:26:37Z</time>
      </trkpt>
      <trkpt lat="48.01529" lon="6.75545">
        <ele>533</ele>
        <time>2022-06-26T09:26:39Z</time>
      </trkpt>
      <trkpt lat="48.01526" lon="6.75537">
        <ele>532.4</ele>
        <time>2022-06-26T09:26:40Z</time>
      </trkpt>
      <trkpt lat="48.01524" lon="6.75532">
        <ele>531.8</ele>
        <time>2022-06-26T09:26:41Z</time>
      </trkpt>
      <trkpt lat="48.01521" lon="6.75528">
        <ele>531</ele>
        <time>2022-06-26T09:26:42Z</time>
      </trkpt>
      <trkpt lat="48.01515" lon="6.75523">
        <ele>530.8</ele>
        <time>2022-06-26T09:26:43Z</time>
      </trkpt>
      <trkpt lat="48.01512" lon="6.7552">
        <ele>529.8</ele>
        <time>2022-06-26T09:26:44Z</time>
      </trkpt>
      <trkpt lat="48.01508" lon="6.75517">
        <ele>529.2</ele>
        <time>2022-06-26T09:26:45Z</time>
      </trkpt>
      <trkpt lat="48.01504" lon="6.75514">
        <ele>528.6</ele>
        <time>2022-06-26T09:26:46Z</time>
      </trkpt>
      <trkpt lat="48.01499" lon="6.75511">
        <ele>528</ele>
        <time>2022-06-26T09:26:47Z</time>
      </trkpt>
      <trkpt lat="48.01495" lon="6.75508">
        <ele>527.4</ele>
        <time>2022-06-26T09:26:48Z</time>
      </trkpt>
      <trkpt lat="48.01491" lon="6.75503">
        <ele>527.2</ele>
        <time>2022-06-26T09:26:49Z</time>
      </trkpt>
      <trkpt lat="48.01485" lon="6.75497">
        <ele>527</ele>
        <time>2022-06-26T09:26:50Z</time>
      </trkpt>
      <trkpt lat="48.0148" lon="6.75492">
        <ele>526.6</ele>
        <time>2022-06-26T09:26:51Z</time>
      </trkpt>
      <trkpt lat="48.01476" lon="6.75485">
        <ele>526.4</ele>
        <time>2022-06-26T09:26:52Z</time>
      </trkpt>
      <trkpt lat="48.01473" lon="6.7548">
        <ele>526.2</ele>
        <time>2022-06-26T09:26:53Z</time>
      </trkpt>
      <trkpt lat="48.01475" lon="6.75475">
        <ele>526</ele>
        <time>2022-06-26T09:26:54Z</time>
      </trkpt>
      <trkpt lat="48.01478" lon="6.75473">
        <ele>525.4</ele>
        <time>2022-06-26T09:26:55Z</time>
      </trkpt>
      <trkpt lat="48.0148" lon="6.75474">
        <ele>524.8</ele>
        <time>2022-06-26T09:26:56Z</time>
      </trkpt>
      <trkpt lat="48.01485" lon="6.75475">
        <ele>524</ele>
        <time>2022-06-26T09:26:57Z</time>
      </trkpt>
      <trkpt lat="48.0149" lon="6.75478">
        <ele>523.4</ele>
        <time>2022-06-26T09:26:58Z</time>
      </trkpt>
      <trkpt lat="48.01494" lon="6.7548">
        <ele>522.6</ele>
        <time>2022-06-26T09:26:59Z</time>
      </trkpt>
      <trkpt lat="48.01499" lon="6.75482">
        <ele>521.8</ele>
        <time>2022-06-26T09:27:00Z</time>
      </trkpt>
      <trkpt lat="48.01505" lon="6.75484">
        <ele>521.2</ele>
        <time>2022-06-26T09:27:02Z</time>
      </trkpt>
      <trkpt lat="48.01506" lon="6.75481">
        <ele>520.4</ele>
        <time>2022-06-26T09:27:04Z</time>
      </trkpt>
      <trkpt lat="48.01506" lon="6.75479">
        <ele>520.2</ele>
        <time>2022-06-26T09:27:05Z</time>
      </trkpt>
      <trkpt lat="48.01505" lon="6.75478">
        <ele>520</ele>
        <time>2022-06-26T09:27:06Z</time>
      </trkpt>
      <trkpt lat="48.01504" lon="6.75478">
        <ele>519.8</ele>
        <time>2022-06-26T09:27:07Z</time>
      </trkpt>
      <trkpt lat="48.01504" lon="6.75478">
        <ele>519.6</ele>
        <time>2022-06-26T09:27:08Z</time>
      </trkpt>
      <trkpt lat="48.01504" lon="6.75478">
        <ele>519.2</ele>
        <time>2022-06-26T09:27:09Z</time>
      </trkpt>
      <trkpt lat="48.01504" lon="6.75477">
        <ele>519.2</ele>
        <time>2022-06-26T09:27:10Z</time>
      </trkpt>
      <trkpt lat="48.01503" lon="6.75476">
        <ele>519</ele>
        <time>2022-06-26T09:27:11Z</time>
      </trkpt>
      <trkpt lat="48.015" lon="6.75472">
        <ele>519</ele>
        <time>2022-06-26T09:27:12Z</time>
      </trkpt>
      <trkpt lat="48.01498" lon="6.75469">
        <ele>519</ele>
        <time>2022-06-26T09:27:13Z</time>
      </trkpt>
      <trkpt lat="48.01496" lon="6.75468">
        <ele>519</ele>
        <time>2022-06-26T09:27:14Z</time>
      </trkpt>
      <trkpt lat="48.01494" lon="6.75467">
        <ele>518.8</ele>
        <time>2022-06-26T09:27:15Z</time>
      </trkpt>
      <trkpt lat="48.01493" lon="6.75467">
        <ele>518.8</ele>
        <time>2022-06-26T09:27:16Z</time>
      </trkpt>
      <trkpt lat="48.01491" lon="6.75466">
        <ele>518.8</ele>
        <time>2022-06-26T09:27:17Z</time>
      </trkpt>
      <trkpt lat="48.01484" lon="6.75457">
        <ele>518.6</ele>
        <time>2022-06-26T09:27:20Z</time>
      </trkpt>
      <trkpt lat="48.01467" lon="6.75447">
        <ele>518.2</ele>
        <time>2022-06-26T09:27:25Z</time>
      </trkpt>
      <trkpt lat="48.01464" lon="6.75445">
        <ele>518.2</ele>
        <time>2022-06-26T09:27:26Z</time>
      </trkpt>
      <trkpt lat="48.01455" lon="6.75433">
        <ele>518.2</ele>
        <time>2022-06-26T09:27:30Z</time>
      </trkpt>
      <trkpt lat="48.01453" lon="6.75429">
        <ele>518</ele>
        <time>2022-06-26T09:27:31Z</time>
      </trkpt>
      <trkpt lat="48.01452" lon="6.75425">
        <ele>518</ele>
        <time>2022-06-26T09:27:32Z</time>
      </trkpt>
      <trkpt lat="48.01449" lon="6.75416">
        <ele>518</ele>
        <time>2022-06-26T09:27:34Z</time>
      </trkpt>
      <trkpt lat="48.01448" lon="6.75413">
        <ele>517.6</ele>
        <time>2022-06-26T09:27:35Z</time>
      </trkpt>
      <trkpt lat="48.01448" lon="6.75411">
        <ele>517.4</ele>
        <time>2022-06-26T09:27:36Z</time>
      </trkpt>
      <trkpt lat="48.01448" lon="6.75409">
        <ele>517.2</ele>
        <time>2022-06-26T09:27:37Z</time>
      </trkpt>
      <trkpt lat="48.01449" lon="6.75406">
        <ele>516.6</ele>
        <time>2022-06-26T09:27:38Z</time>
      </trkpt>
      <trkpt lat="48.01452" lon="6.75405">
        <ele>516.4</ele>
        <time>2022-06-26T09:27:39Z</time>
      </trkpt>
      <trkpt lat="48.01454" lon="6.75405">
        <ele>516</ele>
        <time>2022-06-26T09:27:40Z</time>
      </trkpt>
      <trkpt lat="48.01455" lon="6.75405">
        <ele>516</ele>
        <time>2022-06-26T09:27:41Z</time>
      </trkpt>
      <trkpt lat="48.01455" lon="6.75405">
        <ele>515.6</ele>
        <time>2022-06-26T09:27:42Z</time>
      </trkpt>
      <trkpt lat="48.01456" lon="6.75405">
        <ele>515.4</ele>
        <time>2022-06-26T09:27:43Z</time>
      </trkpt>
      <trkpt lat="48.01456" lon="6.75406">
        <ele>515</ele>
        <time>2022-06-26T09:27:44Z</time>
      </trkpt>
      <trkpt lat="48.01458" lon="6.75406">
        <ele>514.8</ele>
        <time>2022-06-26T09:27:45Z</time>
      </trkpt>
      <trkpt lat="48.01458" lon="6.75406">
        <ele>514.6</ele>
        <time>2022-06-26T09:27:46Z</time>
      </trkpt>
      <trkpt lat="48.01458" lon="6.75406">
        <ele>514.4</ele>
        <time>2022-06-26T09:27:47Z</time>
      </trkpt>
      <trkpt lat="48.01458" lon="6.75406">
        <ele>514.4</ele>
        <time>2022-06-26T09:27:48Z</time>
      </trkpt>
      <trkpt lat="48.01458" lon="6.75406">
        <ele>514.4</ele>
        <time>2022-06-26T09:27:56Z</time>
      </trkpt>
      <trkpt lat="48.01456" lon="6.75406">
        <ele>514.2</ele>
        <time>2022-06-26T09:28:04Z</time>
      </trkpt>
      <trkpt lat="48.01456" lon="6.75406">
        <ele>513.6</ele>
        <time>2022-06-26T09:28:12Z</time>
      </trkpt>
      <trkpt lat="48.01456" lon="6.75406">
        <ele>513.4</ele>
        <time>2022-06-26T09:28:25Z</time>
      </trkpt>
      <trkpt lat="48.01456" lon="6.75403">
        <ele>513</ele>
        <time>2022-06-26T09:29:24Z</time>
      </trkpt>
      <trkpt lat="48.01456" lon="6.75399">
        <ele>513.2</ele>
        <time>2022-06-26T09:29:26Z</time>
      </trkpt>
      <trkpt lat="48.01455" lon="6.75397">
        <ele>513.2</ele>
        <time>2022-06-26T09:29:27Z</time>
      </trkpt>
      <trkpt lat="48.01453" lon="6.75395">
        <ele>513.4</ele>
        <time>2022-06-26T09:29:28Z</time>
      </trkpt>
      <trkpt lat="48.0145" lon="6.75394">
        <ele>513.4</ele>
        <time>2022-06-26T09:29:29Z</time>
      </trkpt>
      <trkpt lat="48.01444" lon="6.75389">
        <ele>513.4</ele>
        <time>2022-06-26T09:29:31Z</time>
      </trkpt>
      <trkpt lat="48.01443" lon="6.75384">
        <ele>513.4</ele>
        <time>2022-06-26T09:29:32Z</time>
      </trkpt>
      <trkpt lat="48.01448" lon="6.75378">
        <ele>513.4</ele>
        <time>2022-06-26T09:29:34Z</time>
      </trkpt>
      <trkpt lat="48.01455" lon="6.75372">
        <ele>512.8</ele>
        <time>2022-06-26T09:29:36Z</time>
      </trkpt>
      <trkpt lat="48.01455" lon="6.75363">
        <ele>512</ele>
        <time>2022-06-26T09:29:38Z</time>
      </trkpt>
      <trkpt lat="48.01452" lon="6.75359">
        <ele>511.4</ele>
        <time>2022-06-26T09:29:39Z</time>
      </trkpt>
      <trkpt lat="48.01448" lon="6.75357">
        <ele>511</ele>
        <time>2022-06-26T09:29:40Z</time>
      </trkpt>
      <trkpt lat="48.01444" lon="6.75355">
        <ele>510.4</ele>
        <time>2022-06-26T09:29:41Z</time>
      </trkpt>
      <trkpt lat="48.01439" lon="6.75353">
        <ele>510.2</ele>
        <time>2022-06-26T09:29:42Z</time>
      </trkpt>
      <trkpt lat="48.01434" lon="6.75352">
        <ele>510</ele>
        <time>2022-06-26T09:29:43Z</time>
      </trkpt>
      <trkpt lat="48.01429" lon="6.7535">
        <ele>509.6</ele>
        <time>2022-06-26T09:29:44Z</time>
      </trkpt>
      <trkpt lat="48.01426" lon="6.75349">
        <ele>509.4</ele>
        <time>2022-06-26T09:29:45Z</time>
      </trkpt>
      <trkpt lat="48.01422" lon="6.75347">
        <ele>509</ele>
        <time>2022-06-26T09:29:46Z</time>
      </trkpt>
      <trkpt lat="48.01418" lon="6.75346">
        <ele>508.8</ele>
        <time>2022-06-26T09:29:47Z</time>
      </trkpt>
      <trkpt lat="48.01415" lon="6.75346">
        <ele>508.2</ele>
        <time>2022-06-26T09:29:48Z</time>
      </trkpt>
      <trkpt lat="48.01411" lon="6.75348">
        <ele>507.8</ele>
        <time>2022-06-26T09:29:49Z</time>
      </trkpt>
      <trkpt lat="48.01407" lon="6.75351">
        <ele>506.8</ele>
        <time>2022-06-26T09:29:50Z</time>
      </trkpt>
      <trkpt lat="48.01403" lon="6.75354">
        <ele>506</ele>
        <time>2022-06-26T09:29:51Z</time>
      </trkpt>
      <trkpt lat="48.01399" lon="6.75357">
        <ele>505.4</ele>
        <time>2022-06-26T09:29:52Z</time>
      </trkpt>
      <trkpt lat="48.01395" lon="6.75361">
        <ele>504.8</ele>
        <time>2022-06-26T09:29:53Z</time>
      </trkpt>
      <trkpt lat="48.01372" lon="6.75374">
        <ele>503.6</ele>
        <time>2022-06-26T09:29:58Z</time>
      </trkpt>
      <trkpt lat="48.01367" lon="6.75376">
        <ele>503.6</ele>
        <time>2022-06-26T09:29:59Z</time>
      </trkpt>
      <trkpt lat="48.01351" lon="6.75382">
        <ele>503.2</ele>
        <time>2022-06-26T09:30:02Z</time>
      </trkpt>
      <trkpt lat="48.0134" lon="6.75383">
        <ele>503.2</ele>
        <time>2022-06-26T09:30:04Z</time>
      </trkpt>
      <trkpt lat="48.01315" lon="6.75372">
        <ele>502.6</ele>
        <time>2022-06-26T09:30:08Z</time>
      </trkpt>
      <trkpt lat="48.01309" lon="6.75368">
        <ele>502.4</ele>
        <time>2022-06-26T09:30:09Z</time>
      </trkpt>
      <trkpt lat="48.01305" lon="6.75365">
        <ele>502.2</ele>
        <time>2022-06-26T09:30:10Z</time>
      </trkpt>
      <trkpt lat="48.01298" lon="6.75363">
        <ele>501.8</ele>
        <time>2022-06-26T09:30:11Z</time>
      </trkpt>
      <trkpt lat="48.01292" lon="6.75363">
        <ele>501.6</ele>
        <time>2022-06-26T09:30:12Z</time>
      </trkpt>
      <trkpt lat="48.01286" lon="6.75365">
        <ele>501.4</ele>
        <time>2022-06-26T09:30:13Z</time>
      </trkpt>
      <trkpt lat="48.0128" lon="6.75368">
        <ele>501.4</ele>
        <time>2022-06-26T09:30:14Z</time>
      </trkpt>
      <trkpt lat="48.01274" lon="6.75372">
        <ele>501.2</ele>
        <time>2022-06-26T09:30:15Z</time>
      </trkpt>
      <trkpt lat="48.01269" lon="6.75374">
        <ele>501.2</ele>
        <time>2022-06-26T09:30:16Z</time>
      </trkpt>
      <trkpt lat="48.0123" lon="6.75398">
        <ele>500.2</ele>
        <time>2022-06-26T09:30:22Z</time>
      </trkpt>
      <trkpt lat="48.01223" lon="6.75406">
        <ele>500</ele>
        <time>2022-06-26T09:30:23Z</time>
      </trkpt>
      <trkpt lat="48.01207" lon="6.75434">
        <ele>498.8</ele>
        <time>2022-06-26T09:30:26Z</time>
      </trkpt>
      <trkpt lat="48.01202" lon="6.75444">
        <ele>498.6</ele>
        <time>2022-06-26T09:30:27Z</time>
      </trkpt>
      <trkpt lat="48.01197" lon="6.75459">
        <ele>497.4</ele>
        <time>2022-06-26T09:30:29Z</time>
      </trkpt>
      <trkpt lat="48.01194" lon="6.75467">
        <ele>497</ele>
        <time>2022-06-26T09:30:30Z</time>
      </trkpt>
      <trkpt lat="48.01192" lon="6.7547">
        <ele>496</ele>
        <time>2022-06-26T09:30:31Z</time>
      </trkpt>
      <trkpt lat="48.0119" lon="6.75476">
        <ele>495.6</ele>
        <time>2022-06-26T09:30:32Z</time>
      </trkpt>
      <trkpt lat="48.01188" lon="6.75481">
        <ele>495.2</ele>
        <time>2022-06-26T09:30:33Z</time>
      </trkpt>
      <trkpt lat="48.01186" lon="6.75487">
        <ele>495</ele>
        <time>2022-06-26T09:30:34Z</time>
      </trkpt>
      <trkpt lat="48.01183" lon="6.75491">
        <ele>494.6</ele>
        <time>2022-06-26T09:30:35Z</time>
      </trkpt>
      <trkpt lat="48.0118" lon="6.75495">
        <ele>494.2</ele>
        <time>2022-06-26T09:30:36Z</time>
      </trkpt>
      <trkpt lat="48.01175" lon="6.75498">
        <ele>494</ele>
        <time>2022-06-26T09:30:37Z</time>
      </trkpt>
      <trkpt lat="48.01171" lon="6.755">
        <ele>493.6</ele>
        <time>2022-06-26T09:30:38Z</time>
      </trkpt>
      <trkpt lat="48.01165" lon="6.75504">
        <ele>493.4</ele>
        <time>2022-06-26T09:30:39Z</time>
      </trkpt>
      <trkpt lat="48.01159" lon="6.7551">
        <ele>493</ele>
        <time>2022-06-26T09:30:40Z</time>
      </trkpt>
      <trkpt lat="48.01139" lon="6.75529">
        <ele>492.4</ele>
        <time>2022-06-26T09:30:43Z</time>
      </trkpt>
      <trkpt lat="48.01131" lon="6.75536">
        <ele>491.6</ele>
        <time>2022-06-26T09:30:44Z</time>
      </trkpt>
      <trkpt lat="48.01125" lon="6.75542">
        <ele>490.8</ele>
        <time>2022-06-26T09:30:45Z</time>
      </trkpt>
      <trkpt lat="48.01108" lon="6.7556">
        <ele>489.6</ele>
        <time>2022-06-26T09:30:47Z</time>
      </trkpt>
      <trkpt lat="48.01091" lon="6.75578">
        <ele>488</ele>
        <time>2022-06-26T09:30:49Z</time>
      </trkpt>
      <trkpt lat="48.01074" lon="6.75594">
        <ele>486.6</ele>
        <time>2022-06-26T09:30:51Z</time>
      </trkpt>
      <trkpt lat="48.01066" lon="6.75601">
        <ele>486.2</ele>
        <time>2022-06-26T09:30:52Z</time>
      </trkpt>
      <trkpt lat="48.01058" lon="6.75609">
        <ele>484.8</ele>
        <time>2022-06-26T09:30:53Z</time>
      </trkpt>
      <trkpt lat="48.01052" lon="6.75614">
        <ele>483.8</ele>
        <time>2022-06-26T09:30:54Z</time>
      </trkpt>
      <trkpt lat="48.01042" lon="6.7562">
        <ele>483.2</ele>
        <time>2022-06-26T09:30:55Z</time>
      </trkpt>
      <trkpt lat="48.01034" lon="6.75622">
        <ele>482.4</ele>
        <time>2022-06-26T09:30:56Z</time>
      </trkpt>
      <trkpt lat="48.01028" lon="6.75622">
        <ele>482.2</ele>
        <time>2022-06-26T09:30:57Z</time>
      </trkpt>
      <trkpt lat="48.01019" lon="6.7562">
        <ele>482</ele>
        <time>2022-06-26T09:30:58Z</time>
      </trkpt>
      <trkpt lat="48.01013" lon="6.75616">
        <ele>482</ele>
        <time>2022-06-26T09:30:59Z</time>
      </trkpt>
      <trkpt lat="48.01007" lon="6.75611">
        <ele>481.8</ele>
        <time>2022-06-26T09:31:00Z</time>
      </trkpt>
      <trkpt lat="48.01001" lon="6.75604">
        <ele>482</ele>
        <time>2022-06-26T09:31:01Z</time>
      </trkpt>
      <trkpt lat="48.00997" lon="6.75597">
        <ele>481.8</ele>
        <time>2022-06-26T09:31:02Z</time>
      </trkpt>
      <trkpt lat="48.00993" lon="6.7559">
        <ele>481.8</ele>
        <time>2022-06-26T09:31:03Z</time>
      </trkpt>
      <trkpt lat="48.0099" lon="6.75581">
        <ele>481.6</ele>
        <time>2022-06-26T09:31:04Z</time>
      </trkpt>
      <trkpt lat="48.00987" lon="6.75572">
        <ele>481.6</ele>
        <time>2022-06-26T09:31:05Z</time>
      </trkpt>
      <trkpt lat="48.00971" lon="6.75517">
        <ele>481.6</ele>
        <time>2022-06-26T09:31:11Z</time>
      </trkpt>
      <trkpt lat="48.00969" lon="6.75508">
        <ele>481.6</ele>
        <time>2022-06-26T09:31:12Z</time>
      </trkpt>
      <trkpt lat="48.00966" lon="6.755">
        <ele>481.6</ele>
        <time>2022-06-26T09:31:13Z</time>
      </trkpt>
      <trkpt lat="48.00964" lon="6.75493">
        <ele>481.8</ele>
        <time>2022-06-26T09:31:14Z</time>
      </trkpt>
      <trkpt lat="48.00958" lon="6.75469">
        <ele>482</ele>
        <time>2022-06-26T09:31:17Z</time>
      </trkpt>
      <trkpt lat="48.00955" lon="6.75459">
        <ele>482</ele>
        <time>2022-06-26T09:31:18Z</time>
      </trkpt>
      <trkpt lat="48.00953" lon="6.75454">
        <ele>482</ele>
        <time>2022-06-26T09:31:19Z</time>
      </trkpt>
      <trkpt lat="48.00951" lon="6.75447">
        <ele>482</ele>
        <time>2022-06-26T09:31:20Z</time>
      </trkpt>
      <trkpt lat="48.00948" lon="6.7544">
        <ele>482.2</ele>
        <time>2022-06-26T09:31:21Z</time>
      </trkpt>
      <trkpt lat="48.00946" lon="6.75433">
        <ele>482.2</ele>
        <time>2022-06-26T09:31:22Z</time>
      </trkpt>
      <trkpt lat="48.00944" lon="6.75426">
        <ele>482.2</ele>
        <time>2022-06-26T09:31:23Z</time>
      </trkpt>
      <trkpt lat="48.00941" lon="6.75417">
        <ele>482.4</ele>
        <time>2022-06-26T09:31:24Z</time>
      </trkpt>
      <trkpt lat="48.00939" lon="6.7541">
        <ele>482.4</ele>
        <time>2022-06-26T09:31:25Z</time>
      </trkpt>
      <trkpt lat="48.00937" lon="6.75403">
        <ele>482.4</ele>
        <time>2022-06-26T09:31:26Z</time>
      </trkpt>
      <trkpt lat="48.00936" lon="6.75396">
        <ele>482.6</ele>
        <time>2022-06-26T09:31:27Z</time>
      </trkpt>
      <trkpt lat="48.00936" lon="6.75389">
        <ele>482.6</ele>
        <time>2022-06-26T09:31:28Z</time>
      </trkpt>
      <trkpt lat="48.00938" lon="6.75383">
        <ele>482.6</ele>
        <time>2022-06-26T09:31:29Z</time>
      </trkpt>
      <trkpt lat="48.0094" lon="6.75375">
        <ele>482.6</ele>
        <time>2022-06-26T09:31:30Z</time>
      </trkpt>
      <trkpt lat="48.00942" lon="6.75368">
        <ele>482.8</ele>
        <time>2022-06-26T09:31:31Z</time>
      </trkpt>
      <trkpt lat="48.00944" lon="6.75364">
        <ele>483</ele>
        <time>2022-06-26T09:31:32Z</time>
      </trkpt>
      <trkpt lat="48.00946" lon="6.75358">
        <ele>483</ele>
        <time>2022-06-26T09:31:33Z</time>
      </trkpt>
      <trkpt lat="48.00948" lon="6.75353">
        <ele>483.2</ele>
        <time>2022-06-26T09:31:34Z</time>
      </trkpt>
      <trkpt lat="48.00949" lon="6.75349">
        <ele>483.2</ele>
        <time>2022-06-26T09:31:35Z</time>
      </trkpt>
      <trkpt lat="48.00951" lon="6.75345">
        <ele>483.4</ele>
        <time>2022-06-26T09:31:36Z</time>
      </trkpt>
      <trkpt lat="48.00952" lon="6.75342">
        <ele>483.6</ele>
        <time>2022-06-26T09:31:37Z</time>
      </trkpt>
      <trkpt lat="48.00953" lon="6.75339">
        <ele>483.8</ele>
        <time>2022-06-26T09:31:38Z</time>
      </trkpt>
      <trkpt lat="48.00954" lon="6.75335">
        <ele>483.8</ele>
        <time>2022-06-26T09:31:39Z</time>
      </trkpt>
      <trkpt lat="48.00954" lon="6.75332">
        <ele>484</ele>
        <time>2022-06-26T09:31:40Z</time>
      </trkpt>
      <trkpt lat="48.00955" lon="6.75329">
        <ele>484</ele>
        <time>2022-06-26T09:31:41Z</time>
      </trkpt>
      <trkpt lat="48.00955" lon="6.75326">
        <ele>484.4</ele>
        <time>2022-06-26T09:31:42Z</time>
      </trkpt>
      <trkpt lat="48.00955" lon="6.75324">
        <ele>484.6</ele>
        <time>2022-06-26T09:31:43Z</time>
      </trkpt>
      <trkpt lat="48.00955" lon="6.75322">
        <ele>484.8</ele>
        <time>2022-06-26T09:31:44Z</time>
      </trkpt>
      <trkpt lat="48.00956" lon="6.75321">
        <ele>485</ele>
        <time>2022-06-26T09:31:45Z</time>
      </trkpt>
      <trkpt lat="48.00956" lon="6.75321">
        <ele>485.2</ele>
        <time>2022-06-26T09:31:48Z</time>
      </trkpt>
      <trkpt lat="48.00958" lon="6.75323">
        <ele>485.4</ele>
        <time>2022-06-26T09:31:51Z</time>
      </trkpt>
      <trkpt lat="48.0096" lon="6.75324">
        <ele>485.4</ele>
        <time>2022-06-26T09:31:52Z</time>
      </trkpt>
      <trkpt lat="48.00963" lon="6.75325">
        <ele>485.4</ele>
        <time>2022-06-26T09:31:53Z</time>
      </trkpt>
      <trkpt lat="48.00966" lon="6.75325">
        <ele>485.4</ele>
        <time>2022-06-26T09:31:54Z</time>
      </trkpt>
      <trkpt lat="48.00969" lon="6.75324">
        <ele>485.4</ele>
        <time>2022-06-26T09:31:55Z</time>
      </trkpt>
      <trkpt lat="48.00973" lon="6.75323">
        <ele>485.4</ele>
        <time>2022-06-26T09:31:56Z</time>
      </trkpt>
      <trkpt lat="48.00977" lon="6.75322">
        <ele>485.4</ele>
        <time>2022-06-26T09:31:57Z</time>
      </trkpt>
      <trkpt lat="48.00982" lon="6.75319">
        <ele>485.4</ele>
        <time>2022-06-26T09:31:58Z</time>
      </trkpt>
      <trkpt lat="48.00996" lon="6.7531">
        <ele>483.8</ele>
        <time>2022-06-26T09:32:02Z</time>
      </trkpt>
      <trkpt lat="48.00999" lon="6.75308">
        <ele>483.4</ele>
        <time>2022-06-26T09:32:03Z</time>
      </trkpt>
      <trkpt lat="48.01002" lon="6.75306">
        <ele>483.2</ele>
        <time>2022-06-26T09:32:04Z</time>
      </trkpt>
      <trkpt lat="48.01004" lon="6.75304">
        <ele>483</ele>
        <time>2022-06-26T09:32:05Z</time>
      </trkpt>
      <trkpt lat="48.01006" lon="6.75302">
        <ele>482.8</ele>
        <time>2022-06-26T09:32:06Z</time>
      </trkpt>
      <trkpt lat="48.01008" lon="6.753">
        <ele>482.8</ele>
        <time>2022-06-26T09:32:07Z</time>
      </trkpt>
      <trkpt lat="48.0101" lon="6.75297">
        <ele>482.8</ele>
        <time>2022-06-26T09:32:08Z</time>
      </trkpt>
      <trkpt lat="48.01011" lon="6.75295">
        <ele>482.8</ele>
        <time>2022-06-26T09:32:09Z</time>
      </trkpt>
      <trkpt lat="48.01014" lon="6.75292">
        <ele>483</ele>
        <time>2022-06-26T09:32:10Z</time>
      </trkpt>
      <trkpt lat="48.01023" lon="6.75281">
        <ele>483.6</ele>
        <time>2022-06-26T09:32:13Z</time>
      </trkpt>
      <trkpt lat="48.01026" lon="6.75277">
        <ele>483.8</ele>
        <time>2022-06-26T09:32:14Z</time>
      </trkpt>
      <trkpt lat="48.01034" lon="6.75265">
        <ele>484.2</ele>
        <time>2022-06-26T09:32:17Z</time>
      </trkpt>
      <trkpt lat="48.01037" lon="6.75261">
        <ele>484.2</ele>
        <time>2022-06-26T09:32:18Z</time>
      </trkpt>
      <trkpt lat="48.01039" lon="6.75257">
        <ele>484.2</ele>
        <time>2022-06-26T09:32:19Z</time>
      </trkpt>
      <trkpt lat="48.01043" lon="6.75255">
        <ele>484.2</ele>
        <time>2022-06-26T09:32:20Z</time>
      </trkpt>
      <trkpt lat="48.01045" lon="6.75253">
        <ele>484.2</ele>
        <time>2022-06-26T09:32:21Z</time>
      </trkpt>
      <trkpt lat="48.01048" lon="6.75252">
        <ele>484.2</ele>
        <time>2022-06-26T09:32:22Z</time>
      </trkpt>
      <trkpt lat="48.01049" lon="6.7525">
        <ele>484.4</ele>
        <time>2022-06-26T09:32:23Z</time>
      </trkpt>
      <trkpt lat="48.01051" lon="6.75248">
        <ele>484.4</ele>
        <time>2022-06-26T09:32:24Z</time>
      </trkpt>
      <trkpt lat="48.01053" lon="6.75244">
        <ele>484.4</ele>
        <time>2022-06-26T09:32:25Z</time>
      </trkpt>
      <trkpt lat="48.01056" lon="6.75239">
        <ele>484.6</ele>
        <time>2022-06-26T09:32:26Z</time>
      </trkpt>
      <trkpt lat="48.01057" lon="6.75233">
        <ele>484.8</ele>
        <time>2022-06-26T09:32:27Z</time>
      </trkpt>
      <trkpt lat="48.01059" lon="6.75229">
        <ele>485.2</ele>
        <time>2022-06-26T09:32:28Z</time>
      </trkpt>
      <trkpt lat="48.01073" lon="6.75206">
        <ele>485.4</ele>
        <time>2022-06-26T09:32:32Z</time>
      </trkpt>
      <trkpt lat="48.01086" lon="6.75193">
        <ele>485.8</ele>
        <time>2022-06-26T09:32:36Z</time>
      </trkpt>
      <trkpt lat="48.01088" lon="6.75191">
        <ele>485.8</ele>
        <time>2022-06-26T09:32:37Z</time>
      </trkpt>
      <trkpt lat="48.01089" lon="6.75189">
        <ele>485.8</ele>
        <time>2022-06-26T09:32:38Z</time>
      </trkpt>
      <trkpt lat="48.01091" lon="6.75188">
        <ele>485.8</ele>
        <time>2022-06-26T09:32:39Z</time>
      </trkpt>
      <trkpt lat="48.01094" lon="6.75185">
        <ele>485.8</ele>
        <time>2022-06-26T09:32:40Z</time>
      </trkpt>
      <trkpt lat="48.01097" lon="6.75181">
        <ele>486</ele>
        <time>2022-06-26T09:32:41Z</time>
      </trkpt>
      <trkpt lat="48.01101" lon="6.7518">
        <ele>486</ele>
        <time>2022-06-26T09:32:42Z</time>
      </trkpt>
      <trkpt lat="48.01104" lon="6.75176">
        <ele>486.2</ele>
        <time>2022-06-26T09:32:43Z</time>
      </trkpt>
      <trkpt lat="48.01108" lon="6.75169">
        <ele>486.6</ele>
        <time>2022-06-26T09:32:45Z</time>
      </trkpt>
      <trkpt lat="48.01114" lon="6.75159">
        <ele>487.6</ele>
        <time>2022-06-26T09:32:48Z</time>
      </trkpt>
      <trkpt lat="48.01118" lon="6.75153">
        <ele>488.2</ele>
        <time>2022-06-26T09:32:50Z</time>
      </trkpt>
      <trkpt lat="48.0112" lon="6.75151">
        <ele>488.4</ele>
        <time>2022-06-26T09:32:51Z</time>
      </trkpt>
      <trkpt lat="48.01121" lon="6.75148">
        <ele>488.6</ele>
        <time>2022-06-26T09:32:52Z</time>
      </trkpt>
      <trkpt lat="48.01123" lon="6.75145">
        <ele>488.8</ele>
        <time>2022-06-26T09:32:53Z</time>
      </trkpt>
      <trkpt lat="48.01124" lon="6.75143">
        <ele>489</ele>
        <time>2022-06-26T09:32:54Z</time>
      </trkpt>
      <trkpt lat="48.01125" lon="6.75141">
        <ele>489.2</ele>
        <time>2022-06-26T09:32:55Z</time>
      </trkpt>
      <trkpt lat="48.01127" lon="6.75138">
        <ele>489.2</ele>
        <time>2022-06-26T09:32:56Z</time>
      </trkpt>
      <trkpt lat="48.01129" lon="6.75136">
        <ele>489.4</ele>
        <time>2022-06-26T09:32:57Z</time>
      </trkpt>
      <trkpt lat="48.01131" lon="6.75133">
        <ele>489.6</ele>
        <time>2022-06-26T09:32:58Z</time>
      </trkpt>
      <trkpt lat="48.01133" lon="6.7513">
        <ele>489.8</ele>
        <time>2022-06-26T09:32:59Z</time>
      </trkpt>
      <trkpt lat="48.01135" lon="6.75128">
        <ele>490</ele>
        <time>2022-06-26T09:33:00Z</time>
      </trkpt>
      <trkpt lat="48.01137" lon="6.75125">
        <ele>490.2</ele>
        <time>2022-06-26T09:33:01Z</time>
      </trkpt>
      <trkpt lat="48.01138" lon="6.75122">
        <ele>490.4</ele>
        <time>2022-06-26T09:33:02Z</time>
      </trkpt>
      <trkpt lat="48.0114" lon="6.7512">
        <ele>490.4</ele>
        <time>2022-06-26T09:33:03Z</time>
      </trkpt>
      <trkpt lat="48.01142" lon="6.75117">
        <ele>490.8</ele>
        <time>2022-06-26T09:33:04Z</time>
      </trkpt>
      <trkpt lat="48.01143" lon="6.75114">
        <ele>490.8</ele>
        <time>2022-06-26T09:33:05Z</time>
      </trkpt>
      <trkpt lat="48.01145" lon="6.75112">
        <ele>491</ele>
        <time>2022-06-26T09:33:06Z</time>
      </trkpt>
      <trkpt lat="48.01146" lon="6.75109">
        <ele>491</ele>
        <time>2022-06-26T09:33:07Z</time>
      </trkpt>
      <trkpt lat="48.01147" lon="6.75106">
        <ele>491.2</ele>
        <time>2022-06-26T09:33:08Z</time>
      </trkpt>
      <trkpt lat="48.01149" lon="6.75103">
        <ele>491.4</ele>
        <time>2022-06-26T09:33:09Z</time>
      </trkpt>
      <trkpt lat="48.01151" lon="6.751">
        <ele>491.6</ele>
        <time>2022-06-26T09:33:10Z</time>
      </trkpt>
      <trkpt lat="48.01152" lon="6.75098">
        <ele>491.8</ele>
        <time>2022-06-26T09:33:11Z</time>
      </trkpt>
      <trkpt lat="48.01153" lon="6.75095">
        <ele>492</ele>
        <time>2022-06-26T09:33:12Z</time>
      </trkpt>
      <trkpt lat="48.01155" lon="6.75092">
        <ele>492.4</ele>
        <time>2022-06-26T09:33:13Z</time>
      </trkpt>
      <trkpt lat="48.01157" lon="6.75089">
        <ele>492.4</ele>
        <time>2022-06-26T09:33:14Z</time>
      </trkpt>
      <trkpt lat="48.01159" lon="6.75086">
        <ele>492.6</ele>
        <time>2022-06-26T09:33:15Z</time>
      </trkpt>
      <trkpt lat="48.0116" lon="6.75082">
        <ele>492.6</ele>
        <time>2022-06-26T09:33:16Z</time>
      </trkpt>
      <trkpt lat="48.01162" lon="6.75078">
        <ele>492.8</ele>
        <time>2022-06-26T09:33:17Z</time>
      </trkpt>
      <trkpt lat="48.01164" lon="6.75073">
        <ele>493</ele>
        <time>2022-06-26T09:33:18Z</time>
      </trkpt>
      <trkpt lat="48.01167" lon="6.75069">
        <ele>493</ele>
        <time>2022-06-26T09:33:19Z</time>
      </trkpt>
      <trkpt lat="48.01169" lon="6.75064">
        <ele>493</ele>
        <time>2022-06-26T09:33:20Z</time>
      </trkpt>
      <trkpt lat="48.01171" lon="6.7506">
        <ele>493</ele>
        <time>2022-06-26T09:33:21Z</time>
      </trkpt>
      <trkpt lat="48.01174" lon="6.75056">
        <ele>493</ele>
        <time>2022-06-26T09:33:22Z</time>
      </trkpt>
      <trkpt lat="48.01175" lon="6.75052">
        <ele>493</ele>
        <time>2022-06-26T09:33:23Z</time>
      </trkpt>
      <trkpt lat="48.01177" lon="6.75047">
        <ele>493</ele>
        <time>2022-06-26T09:33:24Z</time>
      </trkpt>
      <trkpt lat="48.01179" lon="6.75043">
        <ele>493</ele>
        <time>2022-06-26T09:33:25Z</time>
      </trkpt>
      <trkpt lat="48.01181" lon="6.75037">
        <ele>493</ele>
        <time>2022-06-26T09:33:26Z</time>
      </trkpt>
      <trkpt lat="48.01183" lon="6.75032">
        <ele>493</ele>
        <time>2022-06-26T09:33:27Z</time>
      </trkpt>
      <trkpt lat="48.01185" lon="6.75027">
        <ele>492.8</ele>
        <time>2022-06-26T09:33:28Z</time>
      </trkpt>
      <trkpt lat="48.01186" lon="6.75022">
        <ele>492.8</ele>
        <time>2022-06-26T09:33:29Z</time>
      </trkpt>
      <trkpt lat="48.01188" lon="6.75018">
        <ele>492.8</ele>
        <time>2022-06-26T09:33:30Z</time>
      </trkpt>
      <trkpt lat="48.0119" lon="6.75011">
        <ele>492.6</ele>
        <time>2022-06-26T09:33:31Z</time>
      </trkpt>
      <trkpt lat="48.01193" lon="6.75007">
        <ele>492.6</ele>
        <time>2022-06-26T09:33:32Z</time>
      </trkpt>
      <trkpt lat="48.01197" lon="6.74997">
        <ele>492.4</ele>
        <time>2022-06-26T09:33:34Z</time>
      </trkpt>
      <trkpt lat="48.01209" lon="6.74958">
        <ele>492</ele>
        <time>2022-06-26T09:33:41Z</time>
      </trkpt>
      <trkpt lat="48.01211" lon="6.74951">
        <ele>492</ele>
        <time>2022-06-26T09:33:42Z</time>
      </trkpt>
      <trkpt lat="48.01212" lon="6.74933">
        <ele>492</ele>
        <time>2022-06-26T09:33:45Z</time>
      </trkpt>
      <trkpt lat="48.01211" lon="6.74928">
        <ele>492.2</ele>
        <time>2022-06-26T09:33:46Z</time>
      </trkpt>
      <trkpt lat="48.01209" lon="6.74924">
        <ele>492.2</ele>
        <time>2022-06-26T09:33:47Z</time>
      </trkpt>
      <trkpt lat="48.01207" lon="6.74922">
        <ele>492.2</ele>
        <time>2022-06-26T09:33:48Z</time>
      </trkpt>
      <trkpt lat="48.01205" lon="6.7492">
        <ele>492.4</ele>
        <time>2022-06-26T09:33:49Z</time>
      </trkpt>
      <trkpt lat="48.01204" lon="6.74919">
        <ele>492.4</ele>
        <time>2022-06-26T09:33:50Z</time>
      </trkpt>
      <trkpt lat="48.01202" lon="6.74918">
        <ele>492.4</ele>
        <time>2022-06-26T09:33:51Z</time>
      </trkpt>
      <trkpt lat="48.012" lon="6.74918">
        <ele>492.6</ele>
        <time>2022-06-26T09:33:52Z</time>
      </trkpt>
      <trkpt lat="48.01199" lon="6.74919">
        <ele>492.8</ele>
        <time>2022-06-26T09:33:53Z</time>
      </trkpt>
      <trkpt lat="48.01198" lon="6.74919">
        <ele>492.8</ele>
        <time>2022-06-26T09:33:54Z</time>
      </trkpt>
      <trkpt lat="48.01196" lon="6.74919">
        <ele>493</ele>
        <time>2022-06-26T09:33:55Z</time>
      </trkpt>
      <trkpt lat="48.01194" lon="6.7492">
        <ele>493.4</ele>
        <time>2022-06-26T09:33:56Z</time>
      </trkpt>
      <trkpt lat="48.01193" lon="6.7492">
        <ele>493.6</ele>
        <time>2022-06-26T09:33:57Z</time>
      </trkpt>
      <trkpt lat="48.01189" lon="6.74924">
        <ele>494.4</ele>
        <time>2022-06-26T09:34:00Z</time>
      </trkpt>
      <trkpt lat="48.01188" lon="6.74926">
        <ele>494.6</ele>
        <time>2022-06-26T09:34:01Z</time>
      </trkpt>
      <trkpt lat="48.01186" lon="6.74929">
        <ele>494.6</ele>
        <time>2022-06-26T09:34:02Z</time>
      </trkpt>
      <trkpt lat="48.01185" lon="6.74931">
        <ele>495</ele>
        <time>2022-06-26T09:34:03Z</time>
      </trkpt>
      <trkpt lat="48.01184" lon="6.74932">
        <ele>495.2</ele>
        <time>2022-06-26T09:34:04Z</time>
      </trkpt>
      <trkpt lat="48.01182" lon="6.74937">
        <ele>495.6</ele>
        <time>2022-06-26T09:34:07Z</time>
      </trkpt>
      <trkpt lat="48.01181" lon="6.74939">
        <ele>495.8</ele>
        <time>2022-06-26T09:34:08Z</time>
      </trkpt>
      <trkpt lat="48.0118" lon="6.7494">
        <ele>496</ele>
        <time>2022-06-26T09:34:09Z</time>
      </trkpt>
      <trkpt lat="48.01179" lon="6.74942">
        <ele>496.2</ele>
        <time>2022-06-26T09:34:10Z</time>
      </trkpt>
      <trkpt lat="48.01178" lon="6.74944">
        <ele>496.4</ele>
        <time>2022-06-26T09:34:11Z</time>
      </trkpt>
      <trkpt lat="48.01178" lon="6.74945">
        <ele>496.8</ele>
        <time>2022-06-26T09:34:12Z</time>
      </trkpt>
      <trkpt lat="48.01177" lon="6.74946">
        <ele>496.8</ele>
        <time>2022-06-26T09:34:13Z</time>
      </trkpt>
      <trkpt lat="48.01176" lon="6.74948">
        <ele>497.2</ele>
        <time>2022-06-26T09:34:14Z</time>
      </trkpt>
      <trkpt lat="48.01175" lon="6.74949">
        <ele>497.4</ele>
        <time>2022-06-26T09:34:15Z</time>
      </trkpt>
      <trkpt lat="48.01174" lon="6.74951">
        <ele>497.4</ele>
        <time>2022-06-26T09:34:16Z</time>
      </trkpt>
      <trkpt lat="48.01173" lon="6.74953">
        <ele>497.6</ele>
        <time>2022-06-26T09:34:17Z</time>
      </trkpt>
      <trkpt lat="48.01172" lon="6.74954">
        <ele>498</ele>
        <time>2022-06-26T09:34:18Z</time>
      </trkpt>
      <trkpt lat="48.01171" lon="6.74956">
        <ele>498.2</ele>
        <time>2022-06-26T09:34:19Z</time>
      </trkpt>
      <trkpt lat="48.0117" lon="6.74957">
        <ele>498.4</ele>
        <time>2022-06-26T09:34:20Z</time>
      </trkpt>
      <trkpt lat="48.01169" lon="6.74959">
        <ele>498.6</ele>
        <time>2022-06-26T09:34:21Z</time>
      </trkpt>
      <trkpt lat="48.01168" lon="6.7496">
        <ele>498.8</ele>
        <time>2022-06-26T09:34:22Z</time>
      </trkpt>
      <trkpt lat="48.01167" lon="6.74961">
        <ele>499</ele>
        <time>2022-06-26T09:34:23Z</time>
      </trkpt>
      <trkpt lat="48.01166" lon="6.74963">
        <ele>499.2</ele>
        <time>2022-06-26T09:34:24Z</time>
      </trkpt>
      <trkpt lat="48.01165" lon="6.74965">
        <ele>499.6</ele>
        <time>2022-06-26T09:34:25Z</time>
      </trkpt>
      <trkpt lat="48.01164" lon="6.74966">
        <ele>499.8</ele>
        <time>2022-06-26T09:34:26Z</time>
      </trkpt>
      <trkpt lat="48.01163" lon="6.74967">
        <ele>500</ele>
        <time>2022-06-26T09:34:27Z</time>
      </trkpt>
      <trkpt lat="48.01162" lon="6.74968">
        <ele>500.2</ele>
        <time>2022-06-26T09:34:28Z</time>
      </trkpt>
      <trkpt lat="48.01161" lon="6.74968">
        <ele>500.4</ele>
        <time>2022-06-26T09:34:29Z</time>
      </trkpt>
      <trkpt lat="48.01159" lon="6.74969">
        <ele>500.6</ele>
        <time>2022-06-26T09:34:30Z</time>
      </trkpt>
      <trkpt lat="48.01158" lon="6.7497">
        <ele>500.8</ele>
        <time>2022-06-26T09:34:31Z</time>
      </trkpt>
      <trkpt lat="48.01157" lon="6.74971">
        <ele>501</ele>
        <time>2022-06-26T09:34:32Z</time>
      </trkpt>
      <trkpt lat="48.01156" lon="6.74972">
        <ele>501</ele>
        <time>2022-06-26T09:34:33Z</time>
      </trkpt>
      <trkpt lat="48.01155" lon="6.74973">
        <ele>501.2</ele>
        <time>2022-06-26T09:34:34Z</time>
      </trkpt>
      <trkpt lat="48.01153" lon="6.74975">
        <ele>501.4</ele>
        <time>2022-06-26T09:34:35Z</time>
      </trkpt>
      <trkpt lat="48.01152" lon="6.74977">
        <ele>501.6</ele>
        <time>2022-06-26T09:34:36Z</time>
      </trkpt>
      <trkpt lat="48.01152" lon="6.74979">
        <ele>501.8</ele>
        <time>2022-06-26T09:34:37Z</time>
      </trkpt>
      <trkpt lat="48.01151" lon="6.7498">
        <ele>501.8</ele>
        <time>2022-06-26T09:34:38Z</time>
      </trkpt>
      <trkpt lat="48.0115" lon="6.74982">
        <ele>502.4</ele>
        <time>2022-06-26T09:34:39Z</time>
      </trkpt>
      <trkpt lat="48.01149" lon="6.74983">
        <ele>502.4</ele>
        <time>2022-06-26T09:34:40Z</time>
      </trkpt>
      <trkpt lat="48.01148" lon="6.74985">
        <ele>502.8</ele>
        <time>2022-06-26T09:34:41Z</time>
      </trkpt>
      <trkpt lat="48.01147" lon="6.74987">
        <ele>502.8</ele>
        <time>2022-06-26T09:34:42Z</time>
      </trkpt>
      <trkpt lat="48.01145" lon="6.74988">
        <ele>502.8</ele>
        <time>2022-06-26T09:34:43Z</time>
      </trkpt>
      <trkpt lat="48.01144" lon="6.7499">
        <ele>503</ele>
        <time>2022-06-26T09:34:44Z</time>
      </trkpt>
      <trkpt lat="48.01143" lon="6.74991">
        <ele>503</ele>
        <time>2022-06-26T09:34:45Z</time>
      </trkpt>
      <trkpt lat="48.01142" lon="6.74992">
        <ele>503.2</ele>
        <time>2022-06-26T09:34:46Z</time>
      </trkpt>
      <trkpt lat="48.01141" lon="6.74994">
        <ele>503.2</ele>
        <time>2022-06-26T09:34:47Z</time>
      </trkpt>
      <trkpt lat="48.0114" lon="6.74995">
        <ele>503.6</ele>
        <time>2022-06-26T09:34:48Z</time>
      </trkpt>
      <trkpt lat="48.01139" lon="6.74996">
        <ele>503.6</ele>
        <time>2022-06-26T09:34:49Z</time>
      </trkpt>
      <trkpt lat="48.01138" lon="6.74998">
        <ele>504</ele>
        <time>2022-06-26T09:34:50Z</time>
      </trkpt>
      <trkpt lat="48.01137" lon="6.74999">
        <ele>504</ele>
        <time>2022-06-26T09:34:51Z</time>
      </trkpt>
      <trkpt lat="48.01136" lon="6.75001">
        <ele>504.6</ele>
        <time>2022-06-26T09:34:52Z</time>
      </trkpt>
      <trkpt lat="48.01135" lon="6.75002">
        <ele>504.8</ele>
        <time>2022-06-26T09:34:53Z</time>
      </trkpt>
      <trkpt lat="48.01134" lon="6.75003">
        <ele>504.8</ele>
        <time>2022-06-26T09:34:54Z</time>
      </trkpt>
      <trkpt lat="48.01133" lon="6.75005">
        <ele>505.2</ele>
        <time>2022-06-26T09:34:55Z</time>
      </trkpt>
      <trkpt lat="48.01132" lon="6.75006">
        <ele>505.2</ele>
        <time>2022-06-26T09:34:56Z</time>
      </trkpt>
      <trkpt lat="48.0113" lon="6.75008">
        <ele>505.4</ele>
        <time>2022-06-26T09:34:57Z</time>
      </trkpt>
      <trkpt lat="48.01129" lon="6.75009">
        <ele>505.4</ele>
        <time>2022-06-26T09:34:58Z</time>
      </trkpt>
      <trkpt lat="48.01128" lon="6.75009">
        <ele>505.6</ele>
        <time>2022-06-26T09:34:59Z</time>
      </trkpt>
      <trkpt lat="48.01127" lon="6.7501">
        <ele>505.8</ele>
        <time>2022-06-26T09:35:00Z</time>
      </trkpt>
      <trkpt lat="48.01126" lon="6.75012">
        <ele>506</ele>
        <time>2022-06-26T09:35:01Z</time>
      </trkpt>
      <trkpt lat="48.01125" lon="6.75014">
        <ele>506.2</ele>
        <time>2022-06-26T09:35:02Z</time>
      </trkpt>
      <trkpt lat="48.01124" lon="6.75015">
        <ele>506.4</ele>
        <time>2022-06-26T09:35:03Z</time>
      </trkpt>
      <trkpt lat="48.01123" lon="6.75017">
        <ele>506.4</ele>
        <time>2022-06-26T09:35:04Z</time>
      </trkpt>
      <trkpt lat="48.01122" lon="6.75018">
        <ele>506.6</ele>
        <time>2022-06-26T09:35:05Z</time>
      </trkpt>
      <trkpt lat="48.01122" lon="6.75019">
        <ele>507</ele>
        <time>2022-06-26T09:35:06Z</time>
      </trkpt>
      <trkpt lat="48.01121" lon="6.7502">
        <ele>507</ele>
        <time>2022-06-26T09:35:07Z</time>
      </trkpt>
      <trkpt lat="48.0112" lon="6.75022">
        <ele>507.2</ele>
        <time>2022-06-26T09:35:08Z</time>
      </trkpt>
      <trkpt lat="48.01118" lon="6.75023">
        <ele>507.4</ele>
        <time>2022-06-26T09:35:09Z</time>
      </trkpt>
      <trkpt lat="48.01118" lon="6.75024">
        <ele>507.6</ele>
        <time>2022-06-26T09:35:10Z</time>
      </trkpt>
      <trkpt lat="48.01117" lon="6.75026">
        <ele>508</ele>
        <time>2022-06-26T09:35:11Z</time>
      </trkpt>
      <trkpt lat="48.01117" lon="6.75027">
        <ele>508</ele>
        <time>2022-06-26T09:35:12Z</time>
      </trkpt>
      <trkpt lat="48.01116" lon="6.75029">
        <ele>508.2</ele>
        <time>2022-06-26T09:35:13Z</time>
      </trkpt>
      <trkpt lat="48.01115" lon="6.7503">
        <ele>508.4</ele>
        <time>2022-06-26T09:35:14Z</time>
      </trkpt>
      <trkpt lat="48.01113" lon="6.75031">
        <ele>508.6</ele>
        <time>2022-06-26T09:35:15Z</time>
      </trkpt>
      <trkpt lat="48.01113" lon="6.75031">
        <ele>508.8</ele>
        <time>2022-06-26T09:35:16Z</time>
      </trkpt>
      <trkpt lat="48.01112" lon="6.75031">
        <ele>509</ele>
        <time>2022-06-26T09:35:17Z</time>
      </trkpt>
      <trkpt lat="48.0111" lon="6.75032">
        <ele>509</ele>
        <time>2022-06-26T09:35:18Z</time>
      </trkpt>
      <trkpt lat="48.01109" lon="6.75033">
        <ele>509.2</ele>
        <time>2022-06-26T09:35:19Z</time>
      </trkpt>
      <trkpt lat="48.01108" lon="6.75034">
        <ele>509.6</ele>
        <time>2022-06-26T09:35:20Z</time>
      </trkpt>
      <trkpt lat="48.01107" lon="6.75036">
        <ele>509.8</ele>
        <time>2022-06-26T09:35:21Z</time>
      </trkpt>
      <trkpt lat="48.01106" lon="6.75036">
        <ele>510</ele>
        <time>2022-06-26T09:35:22Z</time>
      </trkpt>
      <trkpt lat="48.01105" lon="6.75038">
        <ele>510</ele>
        <time>2022-06-26T09:35:23Z</time>
      </trkpt>
      <trkpt lat="48.01104" lon="6.7504">
        <ele>510.2</ele>
        <time>2022-06-26T09:35:24Z</time>
      </trkpt>
      <trkpt lat="48.01103" lon="6.75041">
        <ele>510.4</ele>
        <time>2022-06-26T09:35:25Z</time>
      </trkpt>
      <trkpt lat="48.01102" lon="6.75041">
        <ele>510.6</ele>
        <time>2022-06-26T09:35:26Z</time>
      </trkpt>
      <trkpt lat="48.01101" lon="6.75042">
        <ele>510.8</ele>
        <time>2022-06-26T09:35:27Z</time>
      </trkpt>
      <trkpt lat="48.011" lon="6.75043">
        <ele>511</ele>
        <time>2022-06-26T09:35:28Z</time>
      </trkpt>
      <trkpt lat="48.01099" lon="6.75045">
        <ele>511.2</ele>
        <time>2022-06-26T09:35:29Z</time>
      </trkpt>
      <trkpt lat="48.01097" lon="6.75046">
        <ele>511.4</ele>
        <time>2022-06-26T09:35:30Z</time>
      </trkpt>
      <trkpt lat="48.01096" lon="6.75047">
        <ele>511.6</ele>
        <time>2022-06-26T09:35:31Z</time>
      </trkpt>
      <trkpt lat="48.01095" lon="6.75049">
        <ele>511.8</ele>
        <time>2022-06-26T09:35:32Z</time>
      </trkpt>
      <trkpt lat="48.01094" lon="6.7505">
        <ele>512.2</ele>
        <time>2022-06-26T09:35:33Z</time>
      </trkpt>
      <trkpt lat="48.01093" lon="6.7505">
        <ele>512.2</ele>
        <time>2022-06-26T09:35:34Z</time>
      </trkpt>
      <trkpt lat="48.01092" lon="6.7505">
        <ele>512.4</ele>
        <time>2022-06-26T09:35:35Z</time>
      </trkpt>
      <trkpt lat="48.01089" lon="6.75051">
        <ele>512.4</ele>
        <time>2022-06-26T09:35:36Z</time>
      </trkpt>
      <trkpt lat="48.01087" lon="6.7505">
        <ele>512.4</ele>
        <time>2022-06-26T09:35:37Z</time>
      </trkpt>
      <trkpt lat="48.01084" lon="6.7505">
        <ele>512.6</ele>
        <time>2022-06-26T09:35:38Z</time>
      </trkpt>
      <trkpt lat="48.0108" lon="6.75049">
        <ele>512.6</ele>
        <time>2022-06-26T09:35:39Z</time>
      </trkpt>
      <trkpt lat="48.01078" lon="6.75048">
        <ele>512.8</ele>
        <time>2022-06-26T09:35:40Z</time>
      </trkpt>
      <trkpt lat="48.01075" lon="6.75047">
        <ele>512.6</ele>
        <time>2022-06-26T09:35:41Z</time>
      </trkpt>
      <trkpt lat="48.01073" lon="6.75046">
        <ele>512.6</ele>
        <time>2022-06-26T09:35:42Z</time>
      </trkpt>
      <trkpt lat="48.01069" lon="6.75044">
        <ele>512.6</ele>
        <time>2022-06-26T09:35:43Z</time>
      </trkpt>
      <trkpt lat="48.01067" lon="6.75042">
        <ele>512.4</ele>
        <time>2022-06-26T09:35:44Z</time>
      </trkpt>
      <trkpt lat="48.01066" lon="6.75041">
        <ele>512.2</ele>
        <time>2022-06-26T09:35:45Z</time>
      </trkpt>
      <trkpt lat="48.01064" lon="6.7504">
        <ele>512.2</ele>
        <time>2022-06-26T09:35:46Z</time>
      </trkpt>
      <trkpt lat="48.01063" lon="6.75039">
        <ele>512.2</ele>
        <time>2022-06-26T09:35:47Z</time>
      </trkpt>
      <trkpt lat="48.01061" lon="6.75038">
        <ele>512.2</ele>
        <time>2022-06-26T09:35:48Z</time>
      </trkpt>
      <trkpt lat="48.01059" lon="6.75036">
        <ele>512.4</ele>
        <time>2022-06-26T09:35:49Z</time>
      </trkpt>
      <trkpt lat="48.01058" lon="6.75035">
        <ele>512.4</ele>
        <time>2022-06-26T09:35:50Z</time>
      </trkpt>
      <trkpt lat="48.01057" lon="6.75033">
        <ele>512.6</ele>
        <time>2022-06-26T09:35:51Z</time>
      </trkpt>
      <trkpt lat="48.01055" lon="6.75032">
        <ele>512.8</ele>
        <time>2022-06-26T09:35:52Z</time>
      </trkpt>
      <trkpt lat="48.01054" lon="6.75031">
        <ele>512.8</ele>
        <time>2022-06-26T09:35:53Z</time>
      </trkpt>
      <trkpt lat="48.01053" lon="6.75029">
        <ele>513</ele>
        <time>2022-06-26T09:35:54Z</time>
      </trkpt>
      <trkpt lat="48.01051" lon="6.75028">
        <ele>513</ele>
        <time>2022-06-26T09:35:55Z</time>
      </trkpt>
      <trkpt lat="48.0105" lon="6.75027">
        <ele>513.4</ele>
        <time>2022-06-26T09:35:56Z</time>
      </trkpt>
      <trkpt lat="48.01048" lon="6.75026">
        <ele>513.4</ele>
        <time>2022-06-26T09:35:57Z</time>
      </trkpt>
      <trkpt lat="48.01045" lon="6.75022">
        <ele>514.4</ele>
        <time>2022-06-26T09:36:00Z</time>
      </trkpt>
      <trkpt lat="48.01041" lon="6.75018">
        <ele>515</ele>
        <time>2022-06-26T09:36:03Z</time>
      </trkpt>
      <trkpt lat="48.0104" lon="6.75016">
        <ele>515.2</ele>
        <time>2022-06-26T09:36:04Z</time>
      </trkpt>
      <trkpt lat="48.01039" lon="6.75014">
        <ele>515.4</ele>
        <time>2022-06-26T09:36:05Z</time>
      </trkpt>
      <trkpt lat="48.01038" lon="6.75013">
        <ele>515.6</ele>
        <time>2022-06-26T09:36:06Z</time>
      </trkpt>
      <trkpt lat="48.01036" lon="6.75011">
        <ele>515.8</ele>
        <time>2022-06-26T09:36:07Z</time>
      </trkpt>
      <trkpt lat="48.01035" lon="6.75009">
        <ele>515.8</ele>
        <time>2022-06-26T09:36:08Z</time>
      </trkpt>
      <trkpt lat="48.01034" lon="6.75007">
        <ele>516</ele>
        <time>2022-06-26T09:36:09Z</time>
      </trkpt>
      <trkpt lat="48.01032" lon="6.75005">
        <ele>516.2</ele>
        <time>2022-06-26T09:36:10Z</time>
      </trkpt>
      <trkpt lat="48.01031" lon="6.75002">
        <ele>516.2</ele>
        <time>2022-06-26T09:36:11Z</time>
      </trkpt>
      <trkpt lat="48.01031" lon="6.75">
        <ele>516.4</ele>
        <time>2022-06-26T09:36:12Z</time>
      </trkpt>
      <trkpt lat="48.0103" lon="6.74997">
        <ele>516.4</ele>
        <time>2022-06-26T09:36:13Z</time>
      </trkpt>
      <trkpt lat="48.01029" lon="6.74995">
        <ele>516.8</ele>
        <time>2022-06-26T09:36:14Z</time>
      </trkpt>
      <trkpt lat="48.01028" lon="6.74992">
        <ele>516.8</ele>
        <time>2022-06-26T09:36:15Z</time>
      </trkpt>
      <trkpt lat="48.01028" lon="6.74991">
        <ele>517</ele>
        <time>2022-06-26T09:36:16Z</time>
      </trkpt>
      <trkpt lat="48.01028" lon="6.74988">
        <ele>517</ele>
        <time>2022-06-26T09:36:17Z</time>
      </trkpt>
      <trkpt lat="48.01028" lon="6.74985">
        <ele>517.2</ele>
        <time>2022-06-26T09:36:18Z</time>
      </trkpt>
      <trkpt lat="48.01028" lon="6.74984">
        <ele>517.4</ele>
        <time>2022-06-26T09:36:19Z</time>
      </trkpt>
      <trkpt lat="48.01028" lon="6.74982">
        <ele>517.4</ele>
        <time>2022-06-26T09:36:20Z</time>
      </trkpt>
      <trkpt lat="48.01029" lon="6.7498">
        <ele>517.6</ele>
        <time>2022-06-26T09:36:21Z</time>
      </trkpt>
      <trkpt lat="48.01029" lon="6.74978">
        <ele>517.8</ele>
        <time>2022-06-26T09:36:22Z</time>
      </trkpt>
      <trkpt lat="48.01029" lon="6.74974">
        <ele>518</ele>
        <time>2022-06-26T09:36:23Z</time>
      </trkpt>
      <trkpt lat="48.0103" lon="6.74972">
        <ele>518</ele>
        <time>2022-06-26T09:36:24Z</time>
      </trkpt>
      <trkpt lat="48.0103" lon="6.7497">
        <ele>518.4</ele>
        <time>2022-06-26T09:36:25Z</time>
      </trkpt>
      <trkpt lat="48.0103" lon="6.74967">
        <ele>518.6</ele>
        <time>2022-06-26T09:36:26Z</time>
      </trkpt>
      <trkpt lat="48.0103" lon="6.74964">
        <ele>519</ele>
        <time>2022-06-26T09:36:27Z</time>
      </trkpt>
      <trkpt lat="48.0103" lon="6.74961">
        <ele>519.4</ele>
        <time>2022-06-26T09:36:28Z</time>
      </trkpt>
      <trkpt lat="48.0103" lon="6.74958">
        <ele>519.4</ele>
        <time>2022-06-26T09:36:29Z</time>
      </trkpt>
      <trkpt lat="48.0103" lon="6.74954">
        <ele>519.6</ele>
        <time>2022-06-26T09:36:30Z</time>
      </trkpt>
      <trkpt lat="48.0103" lon="6.74951">
        <ele>519.8</ele>
        <time>2022-06-26T09:36:31Z</time>
      </trkpt>
      <trkpt lat="48.01029" lon="6.74946">
        <ele>520</ele>
        <time>2022-06-26T09:36:32Z</time>
      </trkpt>
      <trkpt lat="48.01028" lon="6.74942">
        <ele>520</ele>
        <time>2022-06-26T09:36:33Z</time>
      </trkpt>
      <trkpt lat="48.01026" lon="6.74938">
        <ele>520</ele>
        <time>2022-06-26T09:36:34Z</time>
      </trkpt>
      <trkpt lat="48.01024" lon="6.74934">
        <ele>520</ele>
        <time>2022-06-26T09:36:35Z</time>
      </trkpt>
      <trkpt lat="48.01023" lon="6.74931">
        <ele>520</ele>
        <time>2022-06-26T09:36:36Z</time>
      </trkpt>
      <trkpt lat="48.01022" lon="6.74929">
        <ele>520</ele>
        <time>2022-06-26T09:36:37Z</time>
      </trkpt>
      <trkpt lat="48.0102" lon="6.74927">
        <ele>520</ele>
        <time>2022-06-26T09:36:38Z</time>
      </trkpt>
      <trkpt lat="48.01019" lon="6.74925">
        <ele>520.2</ele>
        <time>2022-06-26T09:36:39Z</time>
      </trkpt>
      <trkpt lat="48.01017" lon="6.74923">
        <ele>520.2</ele>
        <time>2022-06-26T09:36:40Z</time>
      </trkpt>
      <trkpt lat="48.01016" lon="6.74921">
        <ele>520</ele>
        <time>2022-06-26T09:36:41Z</time>
      </trkpt>
      <trkpt lat="48.01015" lon="6.74919">
        <ele>520</ele>
        <time>2022-06-26T09:36:42Z</time>
      </trkpt>
      <trkpt lat="48.01014" lon="6.74917">
        <ele>520.2</ele>
        <time>2022-06-26T09:36:43Z</time>
      </trkpt>
      <trkpt lat="48.01013" lon="6.74915">
        <ele>520.4</ele>
        <time>2022-06-26T09:36:44Z</time>
      </trkpt>
      <trkpt lat="48.01012" lon="6.74914">
        <ele>520.4</ele>
        <time>2022-06-26T09:36:45Z</time>
      </trkpt>
      <trkpt lat="48.01011" lon="6.74912">
        <ele>520.8</ele>
        <time>2022-06-26T09:36:46Z</time>
      </trkpt>
      <trkpt lat="48.01009" lon="6.7491">
        <ele>520.8</ele>
        <time>2022-06-26T09:36:47Z</time>
      </trkpt>
      <trkpt lat="48.01008" lon="6.74908">
        <ele>521</ele>
        <time>2022-06-26T09:36:48Z</time>
      </trkpt>
      <trkpt lat="48.01007" lon="6.74906">
        <ele>521</ele>
        <time>2022-06-26T09:36:49Z</time>
      </trkpt>
      <trkpt lat="48.01006" lon="6.74905">
        <ele>521.2</ele>
        <time>2022-06-26T09:36:50Z</time>
      </trkpt>
      <trkpt lat="48.01005" lon="6.74903">
        <ele>521.2</ele>
        <time>2022-06-26T09:36:51Z</time>
      </trkpt>
      <trkpt lat="48.01004" lon="6.74901">
        <ele>521.4</ele>
        <time>2022-06-26T09:36:52Z</time>
      </trkpt>
      <trkpt lat="48.01004" lon="6.749">
        <ele>521.6</ele>
        <time>2022-06-26T09:36:53Z</time>
      </trkpt>
      <trkpt lat="48.01003" lon="6.74898">
        <ele>521.6</ele>
        <time>2022-06-26T09:36:54Z</time>
      </trkpt>
      <trkpt lat="48.01002" lon="6.74896">
        <ele>521.8</ele>
        <time>2022-06-26T09:36:55Z</time>
      </trkpt>
      <trkpt lat="48.01002" lon="6.74894">
        <ele>521.8</ele>
        <time>2022-06-26T09:36:56Z</time>
      </trkpt>
      <trkpt lat="48.01001" lon="6.74893">
        <ele>522.2</ele>
        <time>2022-06-26T09:36:57Z</time>
      </trkpt>
      <trkpt lat="48.01001" lon="6.74891">
        <ele>522.2</ele>
        <time>2022-06-26T09:36:58Z</time>
      </trkpt>
      <trkpt lat="48.01" lon="6.74889">
        <ele>522.6</ele>
        <time>2022-06-26T09:36:59Z</time>
      </trkpt>
      <trkpt lat="48.01" lon="6.74887">
        <ele>522.6</ele>
        <time>2022-06-26T09:37:00Z</time>
      </trkpt>
      <trkpt lat="48.01001" lon="6.74885">
        <ele>523</ele>
        <time>2022-06-26T09:37:01Z</time>
      </trkpt>
      <trkpt lat="48.01001" lon="6.74883">
        <ele>523.4</ele>
        <time>2022-06-26T09:37:02Z</time>
      </trkpt>
      <trkpt lat="48.01001" lon="6.74881">
        <ele>523.6</ele>
        <time>2022-06-26T09:37:03Z</time>
      </trkpt>
      <trkpt lat="48.01001" lon="6.74879">
        <ele>523.8</ele>
        <time>2022-06-26T09:37:04Z</time>
      </trkpt>
      <trkpt lat="48.01001" lon="6.74877">
        <ele>524</ele>
        <time>2022-06-26T09:37:05Z</time>
      </trkpt>
      <trkpt lat="48.01001" lon="6.74875">
        <ele>524.2</ele>
        <time>2022-06-26T09:37:06Z</time>
      </trkpt>
      <trkpt lat="48.01001" lon="6.74874">
        <ele>524.4</ele>
        <time>2022-06-26T09:37:07Z</time>
      </trkpt>
      <trkpt lat="48.01001" lon="6.74872">
        <ele>524.6</ele>
        <time>2022-06-26T09:37:08Z</time>
      </trkpt>
      <trkpt lat="48.01002" lon="6.7487">
        <ele>524.6</ele>
        <time>2022-06-26T09:37:09Z</time>
      </trkpt>
      <trkpt lat="48.01002" lon="6.74869">
        <ele>525</ele>
        <time>2022-06-26T09:37:10Z</time>
      </trkpt>
      <trkpt lat="48.01002" lon="6.74868">
        <ele>525.4</ele>
        <time>2022-06-26T09:37:11Z</time>
      </trkpt>
      <trkpt lat="48.01002" lon="6.74867">
        <ele>525.8</ele>
        <time>2022-06-26T09:37:12Z</time>
      </trkpt>
      <trkpt lat="48.01002" lon="6.74865">
        <ele>526.2</ele>
        <time>2022-06-26T09:37:13Z</time>
      </trkpt>
      <trkpt lat="48.01002" lon="6.74864">
        <ele>526.4</ele>
        <time>2022-06-26T09:37:14Z</time>
      </trkpt>
      <trkpt lat="48.01002" lon="6.74862">
        <ele>526.6</ele>
        <time>2022-06-26T09:37:15Z</time>
      </trkpt>
      <trkpt lat="48.01002" lon="6.7486">
        <ele>526.8</ele>
        <time>2022-06-26T09:37:16Z</time>
      </trkpt>
      <trkpt lat="48.01002" lon="6.74858">
        <ele>527.2</ele>
        <time>2022-06-26T09:37:17Z</time>
      </trkpt>
      <trkpt lat="48.01002" lon="6.74857">
        <ele>527.4</ele>
        <time>2022-06-26T09:37:18Z</time>
      </trkpt>
      <trkpt lat="48.01002" lon="6.74856">
        <ele>527.6</ele>
        <time>2022-06-26T09:37:19Z</time>
      </trkpt>
      <trkpt lat="48.01002" lon="6.74854">
        <ele>528</ele>
        <time>2022-06-26T09:37:20Z</time>
      </trkpt>
      <trkpt lat="48.01002" lon="6.74851">
        <ele>528.2</ele>
        <time>2022-06-26T09:37:21Z</time>
      </trkpt>
      <trkpt lat="48.01003" lon="6.74849">
        <ele>528.6</ele>
        <time>2022-06-26T09:37:22Z</time>
      </trkpt>
      <trkpt lat="48.01003" lon="6.74848">
        <ele>529</ele>
        <time>2022-06-26T09:37:23Z</time>
      </trkpt>
      <trkpt lat="48.01003" lon="6.74846">
        <ele>529.2</ele>
        <time>2022-06-26T09:37:24Z</time>
      </trkpt>
      <trkpt lat="48.01003" lon="6.74844">
        <ele>529.4</ele>
        <time>2022-06-26T09:37:25Z</time>
      </trkpt>
      <trkpt lat="48.01002" lon="6.74843">
        <ele>529.6</ele>
        <time>2022-06-26T09:37:26Z</time>
      </trkpt>
      <trkpt lat="48.01001" lon="6.74841">
        <ele>529.8</ele>
        <time>2022-06-26T09:37:27Z</time>
      </trkpt>
      <trkpt lat="48.01001" lon="6.74838">
        <ele>530</ele>
        <time>2022-06-26T09:37:28Z</time>
      </trkpt>
      <trkpt lat="48.01001" lon="6.74836">
        <ele>530.4</ele>
        <time>2022-06-26T09:37:29Z</time>
      </trkpt>
      <trkpt lat="48.01001" lon="6.74833">
        <ele>530.6</ele>
        <time>2022-06-26T09:37:30Z</time>
      </trkpt>
      <trkpt lat="48.01002" lon="6.7483">
        <ele>530.8</ele>
        <time>2022-06-26T09:37:31Z</time>
      </trkpt>
      <trkpt lat="48.01002" lon="6.74828">
        <ele>530.8</ele>
        <time>2022-06-26T09:37:32Z</time>
      </trkpt>
      <trkpt lat="48.01002" lon="6.74825">
        <ele>530.8</ele>
        <time>2022-06-26T09:37:33Z</time>
      </trkpt>
      <trkpt lat="48.01002" lon="6.74823">
        <ele>531</ele>
        <time>2022-06-26T09:37:34Z</time>
      </trkpt>
      <trkpt lat="48.01003" lon="6.74821">
        <ele>531.2</ele>
        <time>2022-06-26T09:37:35Z</time>
      </trkpt>
      <trkpt lat="48.01003" lon="6.74818">
        <ele>531.2</ele>
        <time>2022-06-26T09:37:36Z</time>
      </trkpt>
      <trkpt lat="48.01003" lon="6.74815">
        <ele>531.2</ele>
        <time>2022-06-26T09:37:37Z</time>
      </trkpt>
      <trkpt lat="48.01003" lon="6.74812">
        <ele>531.2</ele>
        <time>2022-06-26T09:37:38Z</time>
      </trkpt>
      <trkpt lat="48.01004" lon="6.74809">
        <ele>531.2</ele>
        <time>2022-06-26T09:37:39Z</time>
      </trkpt>
      <trkpt lat="48.01004" lon="6.74806">
        <ele>531.4</ele>
        <time>2022-06-26T09:37:40Z</time>
      </trkpt>
      <trkpt lat="48.01005" lon="6.74803">
        <ele>531.4</ele>
        <time>2022-06-26T09:37:41Z</time>
      </trkpt>
      <trkpt lat="48.01006" lon="6.748">
        <ele>531.4</ele>
        <time>2022-06-26T09:37:42Z</time>
      </trkpt>
      <trkpt lat="48.01006" lon="6.74799">
        <ele>531.6</ele>
        <time>2022-06-26T09:37:43Z</time>
      </trkpt>
      <trkpt lat="48.01007" lon="6.74795">
        <ele>531.6</ele>
        <time>2022-06-26T09:37:44Z</time>
      </trkpt>
      <trkpt lat="48.01007" lon="6.74792">
        <ele>531.6</ele>
        <time>2022-06-26T09:37:45Z</time>
      </trkpt>
      <trkpt lat="48.01007" lon="6.74789">
        <ele>531.8</ele>
        <time>2022-06-26T09:37:46Z</time>
      </trkpt>
      <trkpt lat="48.01008" lon="6.74787">
        <ele>531.8</ele>
        <time>2022-06-26T09:37:47Z</time>
      </trkpt>
      <trkpt lat="48.01009" lon="6.74785">
        <ele>532</ele>
        <time>2022-06-26T09:37:48Z</time>
      </trkpt>
      <trkpt lat="48.01009" lon="6.74782">
        <ele>532</ele>
        <time>2022-06-26T09:37:49Z</time>
      </trkpt>
      <trkpt lat="48.0101" lon="6.7478">
        <ele>532.2</ele>
        <time>2022-06-26T09:37:50Z</time>
      </trkpt>
      <trkpt lat="48.01011" lon="6.74777">
        <ele>532.2</ele>
        <time>2022-06-26T09:37:51Z</time>
      </trkpt>
      <trkpt lat="48.01012" lon="6.74775">
        <ele>532.2</ele>
        <time>2022-06-26T09:37:52Z</time>
      </trkpt>
      <trkpt lat="48.01013" lon="6.74771">
        <ele>532.2</ele>
        <time>2022-06-26T09:37:53Z</time>
      </trkpt>
      <trkpt lat="48.01013" lon="6.74768">
        <ele>532.2</ele>
        <time>2022-06-26T09:37:54Z</time>
      </trkpt>
      <trkpt lat="48.01014" lon="6.74765">
        <ele>532.2</ele>
        <time>2022-06-26T09:37:55Z</time>
      </trkpt>
      <trkpt lat="48.01015" lon="6.74761">
        <ele>532</ele>
        <time>2022-06-26T09:37:56Z</time>
      </trkpt>
      <trkpt lat="48.01017" lon="6.74744">
        <ele>531.4</ele>
        <time>2022-06-26T09:37:59Z</time>
      </trkpt>
      <trkpt lat="48.01016" lon="6.74737">
        <ele>531</ele>
        <time>2022-06-26T09:38:00Z</time>
      </trkpt>
      <trkpt lat="48.01015" lon="6.74729">
        <ele>530.8</ele>
        <time>2022-06-26T09:38:01Z</time>
      </trkpt>
      <trkpt lat="48.01013" lon="6.74721">
        <ele>530.4</ele>
        <time>2022-06-26T09:38:02Z</time>
      </trkpt>
      <trkpt lat="48.01012" lon="6.74714">
        <ele>529.8</ele>
        <time>2022-06-26T09:38:03Z</time>
      </trkpt>
      <trkpt lat="48.01011" lon="6.74707">
        <ele>529.6</ele>
        <time>2022-06-26T09:38:05Z</time>
      </trkpt>
      <trkpt lat="48.0101" lon="6.74703">
        <ele>529.4</ele>
        <time>2022-06-26T09:38:06Z</time>
      </trkpt>
      <trkpt lat="48.0101" lon="6.747">
        <ele>529.4</ele>
        <time>2022-06-26T09:38:07Z</time>
      </trkpt>
      <trkpt lat="48.01009" lon="6.74697">
        <ele>529.4</ele>
        <time>2022-06-26T09:38:08Z</time>
      </trkpt>
      <trkpt lat="48.01009" lon="6.74694">
        <ele>529.4</ele>
        <time>2022-06-26T09:38:09Z</time>
      </trkpt>
      <trkpt lat="48.01008" lon="6.74691">
        <ele>529.4</ele>
        <time>2022-06-26T09:38:10Z</time>
      </trkpt>
      <trkpt lat="48.01007" lon="6.74684">
        <ele>530.2</ele>
        <time>2022-06-26T09:38:13Z</time>
      </trkpt>
      <trkpt lat="48.01007" lon="6.74682">
        <ele>530.6</ele>
        <time>2022-06-26T09:38:14Z</time>
      </trkpt>
      <trkpt lat="48.01007" lon="6.74679">
        <ele>530.6</ele>
        <time>2022-06-26T09:38:15Z</time>
      </trkpt>
      <trkpt lat="48.01006" lon="6.74677">
        <ele>530.8</ele>
        <time>2022-06-26T09:38:16Z</time>
      </trkpt>
      <trkpt lat="48.01005" lon="6.74675">
        <ele>530.8</ele>
        <time>2022-06-26T09:38:17Z</time>
      </trkpt>
      <trkpt lat="48.01004" lon="6.74671">
        <ele>531.2</ele>
        <time>2022-06-26T09:38:19Z</time>
      </trkpt>
      <trkpt lat="48.01003" lon="6.74669">
        <ele>531.4</ele>
        <time>2022-06-26T09:38:20Z</time>
      </trkpt>
      <trkpt lat="48.01001" lon="6.74665">
        <ele>531.8</ele>
        <time>2022-06-26T09:38:22Z</time>
      </trkpt>
      <trkpt lat="48.01001" lon="6.74663">
        <ele>532</ele>
        <time>2022-06-26T09:38:23Z</time>
      </trkpt>
      <trkpt lat="48.01001" lon="6.74661">
        <ele>532</ele>
        <time>2022-06-26T09:38:24Z</time>
      </trkpt>
      <trkpt lat="48.01" lon="6.74659">
        <ele>532.2</ele>
        <time>2022-06-26T09:38:25Z</time>
      </trkpt>
      <trkpt lat="48.00999" lon="6.74657">
        <ele>532.4</ele>
        <time>2022-06-26T09:38:26Z</time>
      </trkpt>
      <trkpt lat="48.00999" lon="6.74656">
        <ele>532.6</ele>
        <time>2022-06-26T09:38:27Z</time>
      </trkpt>
      <trkpt lat="48.00998" lon="6.74653">
        <ele>532.6</ele>
        <time>2022-06-26T09:38:28Z</time>
      </trkpt>
      <trkpt lat="48.00997" lon="6.74651">
        <ele>532.8</ele>
        <time>2022-06-26T09:38:29Z</time>
      </trkpt>
      <trkpt lat="48.00994" lon="6.74638">
        <ele>533.8</ele>
        <time>2022-06-26T09:38:35Z</time>
      </trkpt>
      <trkpt lat="48.00993" lon="6.74636">
        <ele>534</ele>
        <time>2022-06-26T09:38:36Z</time>
      </trkpt>
      <trkpt lat="48.00993" lon="6.74633">
        <ele>534.2</ele>
        <time>2022-06-26T09:38:37Z</time>
      </trkpt>
      <trkpt lat="48.00993" lon="6.74631">
        <ele>534.4</ele>
        <time>2022-06-26T09:38:38Z</time>
      </trkpt>
      <trkpt lat="48.00992" lon="6.74629">
        <ele>534.6</ele>
        <time>2022-06-26T09:38:39Z</time>
      </trkpt>
      <trkpt lat="48.00992" lon="6.74627">
        <ele>534.8</ele>
        <time>2022-06-26T09:38:40Z</time>
      </trkpt>
      <trkpt lat="48.00992" lon="6.74625">
        <ele>535</ele>
        <time>2022-06-26T09:38:41Z</time>
      </trkpt>
      <trkpt lat="48.00992" lon="6.74623">
        <ele>535.2</ele>
        <time>2022-06-26T09:38:42Z</time>
      </trkpt>
      <trkpt lat="48.00991" lon="6.74621">
        <ele>535.6</ele>
        <time>2022-06-26T09:38:43Z</time>
      </trkpt>
      <trkpt lat="48.00992" lon="6.74619">
        <ele>535.6</ele>
        <time>2022-06-26T09:38:44Z</time>
      </trkpt>
      <trkpt lat="48.00992" lon="6.74616">
        <ele>536</ele>
        <time>2022-06-26T09:38:45Z</time>
      </trkpt>
      <trkpt lat="48.00992" lon="6.74614">
        <ele>536.2</ele>
        <time>2022-06-26T09:38:46Z</time>
      </trkpt>
      <trkpt lat="48.00992" lon="6.74611">
        <ele>536.2</ele>
        <time>2022-06-26T09:38:47Z</time>
      </trkpt>
      <trkpt lat="48.00993" lon="6.74608">
        <ele>536.6</ele>
        <time>2022-06-26T09:38:48Z</time>
      </trkpt>
      <trkpt lat="48.00993" lon="6.74606">
        <ele>536.8</ele>
        <time>2022-06-26T09:38:49Z</time>
      </trkpt>
      <trkpt lat="48.00994" lon="6.74604">
        <ele>537</ele>
        <time>2022-06-26T09:38:50Z</time>
      </trkpt>
      <trkpt lat="48.00994" lon="6.74602">
        <ele>537</ele>
        <time>2022-06-26T09:38:51Z</time>
      </trkpt>
      <trkpt lat="48.00995" lon="6.746">
        <ele>537.2</ele>
        <time>2022-06-26T09:38:52Z</time>
      </trkpt>
      <trkpt lat="48.00995" lon="6.74598">
        <ele>537.4</ele>
        <time>2022-06-26T09:38:53Z</time>
      </trkpt>
      <trkpt lat="48.00995" lon="6.74595">
        <ele>537.6</ele>
        <time>2022-06-26T09:38:54Z</time>
      </trkpt>
      <trkpt lat="48.00995" lon="6.74593">
        <ele>537.8</ele>
        <time>2022-06-26T09:38:55Z</time>
      </trkpt>
      <trkpt lat="48.00995" lon="6.7459">
        <ele>537.8</ele>
        <time>2022-06-26T09:38:56Z</time>
      </trkpt>
      <trkpt lat="48.00996" lon="6.74588">
        <ele>538</ele>
        <time>2022-06-26T09:38:57Z</time>
      </trkpt>
      <trkpt lat="48.00996" lon="6.74586">
        <ele>538.2</ele>
        <time>2022-06-26T09:38:58Z</time>
      </trkpt>
      <trkpt lat="48.00996" lon="6.74584">
        <ele>538.4</ele>
        <time>2022-06-26T09:38:59Z</time>
      </trkpt>
      <trkpt lat="48.00996" lon="6.74582">
        <ele>538.6</ele>
        <time>2022-06-26T09:39:00Z</time>
      </trkpt>
      <trkpt lat="48.00996" lon="6.74579">
        <ele>538.8</ele>
        <time>2022-06-26T09:39:01Z</time>
      </trkpt>
      <trkpt lat="48.00996" lon="6.74577">
        <ele>539.2</ele>
        <time>2022-06-26T09:39:02Z</time>
      </trkpt>
      <trkpt lat="48.00996" lon="6.74574">
        <ele>539.6</ele>
        <time>2022-06-26T09:39:03Z</time>
      </trkpt>
      <trkpt lat="48.00996" lon="6.74572">
        <ele>540</ele>
        <time>2022-06-26T09:39:04Z</time>
      </trkpt>
      <trkpt lat="48.00996" lon="6.7457">
        <ele>540</ele>
        <time>2022-06-26T09:39:05Z</time>
      </trkpt>
      <trkpt lat="48.00996" lon="6.74567">
        <ele>540.2</ele>
        <time>2022-06-26T09:39:06Z</time>
      </trkpt>
      <trkpt lat="48.00995" lon="6.74565">
        <ele>540.2</ele>
        <time>2022-06-26T09:39:07Z</time>
      </trkpt>
      <trkpt lat="48.00995" lon="6.74563">
        <ele>540.4</ele>
        <time>2022-06-26T09:39:08Z</time>
      </trkpt>
      <trkpt lat="48.00994" lon="6.7456">
        <ele>540.6</ele>
        <time>2022-06-26T09:39:09Z</time>
      </trkpt>
      <trkpt lat="48.00993" lon="6.74558">
        <ele>540.8</ele>
        <time>2022-06-26T09:39:10Z</time>
      </trkpt>
      <trkpt lat="48.00992" lon="6.74556">
        <ele>541</ele>
        <time>2022-06-26T09:39:11Z</time>
      </trkpt>
      <trkpt lat="48.00991" lon="6.74554">
        <ele>541.2</ele>
        <time>2022-06-26T09:39:12Z</time>
      </trkpt>
      <trkpt lat="48.0099" lon="6.74552">
        <ele>541.4</ele>
        <time>2022-06-26T09:39:13Z</time>
      </trkpt>
      <trkpt lat="48.00989" lon="6.7455">
        <ele>541.4</ele>
        <time>2022-06-26T09:39:14Z</time>
      </trkpt>
      <trkpt lat="48.00988" lon="6.74548">
        <ele>541.8</ele>
        <time>2022-06-26T09:39:15Z</time>
      </trkpt>
      <trkpt lat="48.00987" lon="6.74545">
        <ele>541.8</ele>
        <time>2022-06-26T09:39:16Z</time>
      </trkpt>
      <trkpt lat="48.00987" lon="6.74543">
        <ele>542</ele>
        <time>2022-06-26T09:39:17Z</time>
      </trkpt>
      <trkpt lat="48.00986" lon="6.74541">
        <ele>542</ele>
        <time>2022-06-26T09:39:18Z</time>
      </trkpt>
      <trkpt lat="48.00985" lon="6.74539">
        <ele>542.2</ele>
        <time>2022-06-26T09:39:19Z</time>
      </trkpt>
      <trkpt lat="48.00984" lon="6.74536">
        <ele>542.4</ele>
        <time>2022-06-26T09:39:20Z</time>
      </trkpt>
      <trkpt lat="48.00982" lon="6.74534">
        <ele>542.8</ele>
        <time>2022-06-26T09:39:21Z</time>
      </trkpt>
      <trkpt lat="48.00981" lon="6.74531">
        <ele>542.6</ele>
        <time>2022-06-26T09:39:22Z</time>
      </trkpt>
      <trkpt lat="48.00981" lon="6.74529">
        <ele>542.8</ele>
        <time>2022-06-26T09:39:23Z</time>
      </trkpt>
      <trkpt lat="48.00981" lon="6.74527">
        <ele>543</ele>
        <time>2022-06-26T09:39:24Z</time>
      </trkpt>
      <trkpt lat="48.0098" lon="6.74525">
        <ele>543</ele>
        <time>2022-06-26T09:39:25Z</time>
      </trkpt>
      <trkpt lat="48.00978" lon="6.74523">
        <ele>543.2</ele>
        <time>2022-06-26T09:39:26Z</time>
      </trkpt>
      <trkpt lat="48.00977" lon="6.7452">
        <ele>543.4</ele>
        <time>2022-06-26T09:39:27Z</time>
      </trkpt>
      <trkpt lat="48.00977" lon="6.74518">
        <ele>543.4</ele>
        <time>2022-06-26T09:39:28Z</time>
      </trkpt>
      <trkpt lat="48.00976" lon="6.74516">
        <ele>543.6</ele>
        <time>2022-06-26T09:39:29Z</time>
      </trkpt>
      <trkpt lat="48.00975" lon="6.74514">
        <ele>543.6</ele>
        <time>2022-06-26T09:39:30Z</time>
      </trkpt>
      <trkpt lat="48.00974" lon="6.74513">
        <ele>543.8</ele>
        <time>2022-06-26T09:39:31Z</time>
      </trkpt>
      <trkpt lat="48.00973" lon="6.7451">
        <ele>543.8</ele>
        <time>2022-06-26T09:39:32Z</time>
      </trkpt>
      <trkpt lat="48.00972" lon="6.74508">
        <ele>544</ele>
        <time>2022-06-26T09:39:33Z</time>
      </trkpt>
      <trkpt lat="48.00971" lon="6.74506">
        <ele>544.2</ele>
        <time>2022-06-26T09:39:34Z</time>
      </trkpt>
      <trkpt lat="48.0097" lon="6.74504">
        <ele>544.6</ele>
        <time>2022-06-26T09:39:35Z</time>
      </trkpt>
      <trkpt lat="48.00969" lon="6.74502">
        <ele>544.6</ele>
        <time>2022-06-26T09:39:36Z</time>
      </trkpt>
      <trkpt lat="48.00968" lon="6.745">
        <ele>544.8</ele>
        <time>2022-06-26T09:39:37Z</time>
      </trkpt>
      <trkpt lat="48.00967" lon="6.74498">
        <ele>545</ele>
        <time>2022-06-26T09:39:38Z</time>
      </trkpt>
      <trkpt lat="48.00966" lon="6.74496">
        <ele>545.2</ele>
        <time>2022-06-26T09:39:39Z</time>
      </trkpt>
      <trkpt lat="48.00964" lon="6.74494">
        <ele>545.2</ele>
        <time>2022-06-26T09:39:40Z</time>
      </trkpt>
      <trkpt lat="48.00962" lon="6.74492">
        <ele>545.4</ele>
        <time>2022-06-26T09:39:41Z</time>
      </trkpt>
      <trkpt lat="48.0096" lon="6.7449">
        <ele>545.6</ele>
        <time>2022-06-26T09:39:42Z</time>
      </trkpt>
      <trkpt lat="48.00959" lon="6.74488">
        <ele>545.6</ele>
        <time>2022-06-26T09:39:43Z</time>
      </trkpt>
      <trkpt lat="48.00958" lon="6.74486">
        <ele>546</ele>
        <time>2022-06-26T09:39:44Z</time>
      </trkpt>
      <trkpt lat="48.00956" lon="6.74484">
        <ele>546</ele>
        <time>2022-06-26T09:39:45Z</time>
      </trkpt>
      <trkpt lat="48.00954" lon="6.74481">
        <ele>546.2</ele>
        <time>2022-06-26T09:39:46Z</time>
      </trkpt>
      <trkpt lat="48.00953" lon="6.74479">
        <ele>546.2</ele>
        <time>2022-06-26T09:39:47Z</time>
      </trkpt>
      <trkpt lat="48.00951" lon="6.74476">
        <ele>546.4</ele>
        <time>2022-06-26T09:39:48Z</time>
      </trkpt>
      <trkpt lat="48.0095" lon="6.74473">
        <ele>546.4</ele>
        <time>2022-06-26T09:39:49Z</time>
      </trkpt>
      <trkpt lat="48.00949" lon="6.7447">
        <ele>546.4</ele>
        <time>2022-06-26T09:39:50Z</time>
      </trkpt>
      <trkpt lat="48.00947" lon="6.74467">
        <ele>546.4</ele>
        <time>2022-06-26T09:39:51Z</time>
      </trkpt>
      <trkpt lat="48.00946" lon="6.74464">
        <ele>546.6</ele>
        <time>2022-06-26T09:39:52Z</time>
      </trkpt>
      <trkpt lat="48.00945" lon="6.74461">
        <ele>546.8</ele>
        <time>2022-06-26T09:39:53Z</time>
      </trkpt>
      <trkpt lat="48.00944" lon="6.74458">
        <ele>546.8</ele>
        <time>2022-06-26T09:39:54Z</time>
      </trkpt>
      <trkpt lat="48.00943" lon="6.74455">
        <ele>547</ele>
        <time>2022-06-26T09:39:55Z</time>
      </trkpt>
      <trkpt lat="48.00941" lon="6.74452">
        <ele>547.2</ele>
        <time>2022-06-26T09:39:56Z</time>
      </trkpt>
      <trkpt lat="48.00939" lon="6.74449">
        <ele>547.2</ele>
        <time>2022-06-26T09:39:57Z</time>
      </trkpt>
      <trkpt lat="48.00937" lon="6.74446">
        <ele>547.4</ele>
        <time>2022-06-26T09:39:58Z</time>
      </trkpt>
      <trkpt lat="48.00935" lon="6.74442">
        <ele>547.6</ele>
        <time>2022-06-26T09:39:59Z</time>
      </trkpt>
      <trkpt lat="48.00933" lon="6.74438">
        <ele>547.6</ele>
        <time>2022-06-26T09:40:00Z</time>
      </trkpt>
      <trkpt lat="48.0093" lon="6.74434">
        <ele>547.6</ele>
        <time>2022-06-26T09:40:01Z</time>
      </trkpt>
      <trkpt lat="48.00927" lon="6.74429">
        <ele>547.6</ele>
        <time>2022-06-26T09:40:02Z</time>
      </trkpt>
      <trkpt lat="48.00924" lon="6.74424">
        <ele>547.6</ele>
        <time>2022-06-26T09:40:03Z</time>
      </trkpt>
      <trkpt lat="48.00923" lon="6.7442">
        <ele>547.6</ele>
        <time>2022-06-26T09:40:04Z</time>
      </trkpt>
      <trkpt lat="48.00923" lon="6.74415">
        <ele>547.6</ele>
        <time>2022-06-26T09:40:05Z</time>
      </trkpt>
      <trkpt lat="48.00922" lon="6.74413">
        <ele>547.6</ele>
        <time>2022-06-26T09:40:06Z</time>
      </trkpt>
      <trkpt lat="48.00922" lon="6.74409">
        <ele>547.6</ele>
        <time>2022-06-26T09:40:07Z</time>
      </trkpt>
      <trkpt lat="48.00922" lon="6.74406">
        <ele>547.6</ele>
        <time>2022-06-26T09:40:08Z</time>
      </trkpt>
      <trkpt lat="48.00923" lon="6.74403">
        <ele>547.6</ele>
        <time>2022-06-26T09:40:09Z</time>
      </trkpt>
      <trkpt lat="48.00923" lon="6.74399">
        <ele>547.8</ele>
        <time>2022-06-26T09:40:10Z</time>
      </trkpt>
      <trkpt lat="48.00922" lon="6.74397">
        <ele>548</ele>
        <time>2022-06-26T09:40:11Z</time>
      </trkpt>
      <trkpt lat="48.00921" lon="6.74392">
        <ele>548.2</ele>
        <time>2022-06-26T09:40:12Z</time>
      </trkpt>
      <trkpt lat="48.0092" lon="6.74389">
        <ele>548.6</ele>
        <time>2022-06-26T09:40:13Z</time>
      </trkpt>
      <trkpt lat="48.00919" lon="6.74385">
        <ele>549</ele>
        <time>2022-06-26T09:40:14Z</time>
      </trkpt>
      <trkpt lat="48.00918" lon="6.74383">
        <ele>549.4</ele>
        <time>2022-06-26T09:40:15Z</time>
      </trkpt>
      <trkpt lat="48.00917" lon="6.7438">
        <ele>550</ele>
        <time>2022-06-26T09:40:16Z</time>
      </trkpt>
      <trkpt lat="48.00913" lon="6.74373">
        <ele>550.4</ele>
        <time>2022-06-26T09:40:18Z</time>
      </trkpt>
      <trkpt lat="48.00911" lon="6.74369">
        <ele>550.6</ele>
        <time>2022-06-26T09:40:19Z</time>
      </trkpt>
      <trkpt lat="48.0091" lon="6.74365">
        <ele>550.8</ele>
        <time>2022-06-26T09:40:20Z</time>
      </trkpt>
      <trkpt lat="48.00909" lon="6.74361">
        <ele>551</ele>
        <time>2022-06-26T09:40:21Z</time>
      </trkpt>
      <trkpt lat="48.00907" lon="6.74358">
        <ele>551</ele>
        <time>2022-06-26T09:40:22Z</time>
      </trkpt>
      <trkpt lat="48.00906" lon="6.74354">
        <ele>551.2</ele>
        <time>2022-06-26T09:40:23Z</time>
      </trkpt>
      <trkpt lat="48.00905" lon="6.74351">
        <ele>551.2</ele>
        <time>2022-06-26T09:40:24Z</time>
      </trkpt>
      <trkpt lat="48.00904" lon="6.74348">
        <ele>551.2</ele>
        <time>2022-06-26T09:40:25Z</time>
      </trkpt>
      <trkpt lat="48.00904" lon="6.74344">
        <ele>551.2</ele>
        <time>2022-06-26T09:40:26Z</time>
      </trkpt>
      <trkpt lat="48.00903" lon="6.74341">
        <ele>551.4</ele>
        <time>2022-06-26T09:40:27Z</time>
      </trkpt>
      <trkpt lat="48.00902" lon="6.74338">
        <ele>551.4</ele>
        <time>2022-06-26T09:40:28Z</time>
      </trkpt>
      <trkpt lat="48.00901" lon="6.74334">
        <ele>551.4</ele>
        <time>2022-06-26T09:40:29Z</time>
      </trkpt>
      <trkpt lat="48.009" lon="6.7433">
        <ele>551.4</ele>
        <time>2022-06-26T09:40:30Z</time>
      </trkpt>
      <trkpt lat="48.00899" lon="6.74327">
        <ele>551.6</ele>
        <time>2022-06-26T09:40:31Z</time>
      </trkpt>
      <trkpt lat="48.00898" lon="6.74323">
        <ele>551.8</ele>
        <time>2022-06-26T09:40:32Z</time>
      </trkpt>
      <trkpt lat="48.00898" lon="6.74319">
        <ele>551.8</ele>
        <time>2022-06-26T09:40:33Z</time>
      </trkpt>
      <trkpt lat="48.00897" lon="6.74317">
        <ele>551.8</ele>
        <time>2022-06-26T09:40:34Z</time>
      </trkpt>
      <trkpt lat="48.00896" lon="6.74315">
        <ele>552</ele>
        <time>2022-06-26T09:40:35Z</time>
      </trkpt>
      <trkpt lat="48.00896" lon="6.74312">
        <ele>552</ele>
        <time>2022-06-26T09:40:36Z</time>
      </trkpt>
      <trkpt lat="48.00896" lon="6.74309">
        <ele>552.2</ele>
        <time>2022-06-26T09:40:37Z</time>
      </trkpt>
      <trkpt lat="48.00896" lon="6.74306">
        <ele>552.6</ele>
        <time>2022-06-26T09:40:38Z</time>
      </trkpt>
      <trkpt lat="48.00894" lon="6.74304">
        <ele>552.8</ele>
        <time>2022-06-26T09:40:39Z</time>
      </trkpt>
      <trkpt lat="48.00893" lon="6.74302">
        <ele>553</ele>
        <time>2022-06-26T09:40:40Z</time>
      </trkpt>
      <trkpt lat="48.00891" lon="6.74299">
        <ele>553.2</ele>
        <time>2022-06-26T09:40:41Z</time>
      </trkpt>
      <trkpt lat="48.00889" lon="6.74295">
        <ele>553.2</ele>
        <time>2022-06-26T09:40:42Z</time>
      </trkpt>
      <trkpt lat="48.00888" lon="6.74291">
        <ele>553.4</ele>
        <time>2022-06-26T09:40:43Z</time>
      </trkpt>
      <trkpt lat="48.00886" lon="6.74286">
        <ele>553.4</ele>
        <time>2022-06-26T09:40:44Z</time>
      </trkpt>
      <trkpt lat="48.00885" lon="6.74282">
        <ele>553.4</ele>
        <time>2022-06-26T09:40:45Z</time>
      </trkpt>
      <trkpt lat="48.00883" lon="6.74279">
        <ele>553.4</ele>
        <time>2022-06-26T09:40:46Z</time>
      </trkpt>
      <trkpt lat="48.00882" lon="6.74276">
        <ele>553.4</ele>
        <time>2022-06-26T09:40:47Z</time>
      </trkpt>
      <trkpt lat="48.00881" lon="6.74273">
        <ele>553.4</ele>
        <time>2022-06-26T09:40:48Z</time>
      </trkpt>
      <trkpt lat="48.0088" lon="6.74268">
        <ele>553.6</ele>
        <time>2022-06-26T09:40:49Z</time>
      </trkpt>
      <trkpt lat="48.00878" lon="6.74264">
        <ele>553.6</ele>
        <time>2022-06-26T09:40:50Z</time>
      </trkpt>
      <trkpt lat="48.00877" lon="6.74261">
        <ele>553.4</ele>
        <time>2022-06-26T09:40:51Z</time>
      </trkpt>
      <trkpt lat="48.00876" lon="6.74258">
        <ele>553.4</ele>
        <time>2022-06-26T09:40:52Z</time>
      </trkpt>
      <trkpt lat="48.00875" lon="6.74256">
        <ele>553.4</ele>
        <time>2022-06-26T09:40:53Z</time>
      </trkpt>
      <trkpt lat="48.00874" lon="6.74254">
        <ele>553.4</ele>
        <time>2022-06-26T09:40:54Z</time>
      </trkpt>
      <trkpt lat="48.00873" lon="6.7425">
        <ele>553.4</ele>
        <time>2022-06-26T09:40:55Z</time>
      </trkpt>
      <trkpt lat="48.00872" lon="6.74248">
        <ele>553.4</ele>
        <time>2022-06-26T09:40:56Z</time>
      </trkpt>
      <trkpt lat="48.0087" lon="6.74246">
        <ele>553.4</ele>
        <time>2022-06-26T09:40:57Z</time>
      </trkpt>
      <trkpt lat="48.00867" lon="6.74244">
        <ele>553.4</ele>
        <time>2022-06-26T09:40:58Z</time>
      </trkpt>
      <trkpt lat="48.00863" lon="6.74239">
        <ele>553.4</ele>
        <time>2022-06-26T09:40:59Z</time>
      </trkpt>
      <trkpt lat="48.00859" lon="6.74233">
        <ele>553.4</ele>
        <time>2022-06-26T09:41:00Z</time>
      </trkpt>
      <trkpt lat="48.00854" lon="6.74226">
        <ele>553.4</ele>
        <time>2022-06-26T09:41:01Z</time>
      </trkpt>
      <trkpt lat="48.00845" lon="6.74202">
        <ele>553.2</ele>
        <time>2022-06-26T09:41:03Z</time>
      </trkpt>
      <trkpt lat="48.00844" lon="6.74194">
        <ele>552.8</ele>
        <time>2022-06-26T09:41:04Z</time>
      </trkpt>
      <trkpt lat="48.00845" lon="6.74186">
        <ele>551.4</ele>
        <time>2022-06-26T09:41:05Z</time>
      </trkpt>
      <trkpt lat="48.00845" lon="6.74179">
        <ele>550.8</ele>
        <time>2022-06-26T09:41:06Z</time>
      </trkpt>
      <trkpt lat="48.00845" lon="6.74175">
        <ele>550.2</ele>
        <time>2022-06-26T09:41:07Z</time>
      </trkpt>
      <trkpt lat="48.00844" lon="6.7417">
        <ele>549.8</ele>
        <time>2022-06-26T09:41:08Z</time>
      </trkpt>
      <trkpt lat="48.00843" lon="6.74168">
        <ele>549.8</ele>
        <time>2022-06-26T09:41:09Z</time>
      </trkpt>
      <trkpt lat="48.00843" lon="6.74164">
        <ele>549.6</ele>
        <time>2022-06-26T09:41:10Z</time>
      </trkpt>
      <trkpt lat="48.00843" lon="6.74161">
        <ele>549.6</ele>
        <time>2022-06-26T09:41:11Z</time>
      </trkpt>
      <trkpt lat="48.00843" lon="6.74158">
        <ele>549.6</ele>
        <time>2022-06-26T09:41:12Z</time>
      </trkpt>
      <trkpt lat="48.00843" lon="6.74152">
        <ele>549.8</ele>
        <time>2022-06-26T09:41:14Z</time>
      </trkpt>
      <trkpt lat="48.00843" lon="6.74148">
        <ele>550</ele>
        <time>2022-06-26T09:41:15Z</time>
      </trkpt>
      <trkpt lat="48.00843" lon="6.74145">
        <ele>550.4</ele>
        <time>2022-06-26T09:41:16Z</time>
      </trkpt>
      <trkpt lat="48.00842" lon="6.74141">
        <ele>550.6</ele>
        <time>2022-06-26T09:41:17Z</time>
      </trkpt>
      <trkpt lat="48.00842" lon="6.74129">
        <ele>551.2</ele>
        <time>2022-06-26T09:41:20Z</time>
      </trkpt>
      <trkpt lat="48.00841" lon="6.74114">
        <ele>552.2</ele>
        <time>2022-06-26T09:41:24Z</time>
      </trkpt>
      <trkpt lat="48.00842" lon="6.74105">
        <ele>552.6</ele>
        <time>2022-06-26T09:41:26Z</time>
      </trkpt>
      <trkpt lat="48.00841" lon="6.74082">
        <ele>553.8</ele>
        <time>2022-06-26T09:41:32Z</time>
      </trkpt>
      <trkpt lat="48.0084" lon="6.74069">
        <ele>554.2</ele>
        <time>2022-06-26T09:41:35Z</time>
      </trkpt>
      <trkpt lat="48.00839" lon="6.74066">
        <ele>554.2</ele>
        <time>2022-06-26T09:41:36Z</time>
      </trkpt>
      <trkpt lat="48.00839" lon="6.74061">
        <ele>554.4</ele>
        <time>2022-06-26T09:41:37Z</time>
      </trkpt>
      <trkpt lat="48.00839" lon="6.74057">
        <ele>554.4</ele>
        <time>2022-06-26T09:41:38Z</time>
      </trkpt>
      <trkpt lat="48.00839" lon="6.74054">
        <ele>554.6</ele>
        <time>2022-06-26T09:41:39Z</time>
      </trkpt>
      <trkpt lat="48.00839" lon="6.7405">
        <ele>554.6</ele>
        <time>2022-06-26T09:41:40Z</time>
      </trkpt>
      <trkpt lat="48.00839" lon="6.74046">
        <ele>554.8</ele>
        <time>2022-06-26T09:41:41Z</time>
      </trkpt>
      <trkpt lat="48.00839" lon="6.74042">
        <ele>554.8</ele>
        <time>2022-06-26T09:41:42Z</time>
      </trkpt>
      <trkpt lat="48.00838" lon="6.74036">
        <ele>554.8</ele>
        <time>2022-06-26T09:41:43Z</time>
      </trkpt>
      <trkpt lat="48.00838" lon="6.74032">
        <ele>555</ele>
        <time>2022-06-26T09:41:44Z</time>
      </trkpt>
      <trkpt lat="48.00838" lon="6.74027">
        <ele>555</ele>
        <time>2022-06-26T09:41:45Z</time>
      </trkpt>
      <trkpt lat="48.00839" lon="6.74022">
        <ele>555.2</ele>
        <time>2022-06-26T09:41:46Z</time>
      </trkpt>
      <trkpt lat="48.00839" lon="6.74017">
        <ele>555.2</ele>
        <time>2022-06-26T09:41:47Z</time>
      </trkpt>
      <trkpt lat="48.00839" lon="6.74013">
        <ele>555.2</ele>
        <time>2022-06-26T09:41:48Z</time>
      </trkpt>
      <trkpt lat="48.00839" lon="6.74008">
        <ele>555.4</ele>
        <time>2022-06-26T09:41:49Z</time>
      </trkpt>
      <trkpt lat="48.00838" lon="6.74004">
        <ele>555.4</ele>
        <time>2022-06-26T09:41:50Z</time>
      </trkpt>
      <trkpt lat="48.00838" lon="6.74">
        <ele>555.4</ele>
        <time>2022-06-26T09:41:51Z</time>
      </trkpt>
      <trkpt lat="48.00838" lon="6.73995">
        <ele>555.6</ele>
        <time>2022-06-26T09:41:52Z</time>
      </trkpt>
      <trkpt lat="48.00837" lon="6.73991">
        <ele>555.6</ele>
        <time>2022-06-26T09:41:53Z</time>
      </trkpt>
      <trkpt lat="48.00837" lon="6.73988">
        <ele>555.6</ele>
        <time>2022-06-26T09:41:54Z</time>
      </trkpt>
      <trkpt lat="48.00836" lon="6.73983">
        <ele>555.6</ele>
        <time>2022-06-26T09:41:55Z</time>
      </trkpt>
      <trkpt lat="48.00836" lon="6.73979">
        <ele>555.6</ele>
        <time>2022-06-26T09:41:56Z</time>
      </trkpt>
      <trkpt lat="48.00835" lon="6.73976">
        <ele>555.8</ele>
        <time>2022-06-26T09:41:57Z</time>
      </trkpt>
      <trkpt lat="48.00835" lon="6.73971">
        <ele>555.8</ele>
        <time>2022-06-26T09:41:58Z</time>
      </trkpt>
      <trkpt lat="48.00834" lon="6.73967">
        <ele>556</ele>
        <time>2022-06-26T09:41:59Z</time>
      </trkpt>
      <trkpt lat="48.00833" lon="6.73963">
        <ele>556</ele>
        <time>2022-06-26T09:42:00Z</time>
      </trkpt>
      <trkpt lat="48.00833" lon="6.7396">
        <ele>556.2</ele>
        <time>2022-06-26T09:42:01Z</time>
      </trkpt>
      <trkpt lat="48.00832" lon="6.73956">
        <ele>556.2</ele>
        <time>2022-06-26T09:42:02Z</time>
      </trkpt>
      <trkpt lat="48.00831" lon="6.73952">
        <ele>556.4</ele>
        <time>2022-06-26T09:42:03Z</time>
      </trkpt>
      <trkpt lat="48.0083" lon="6.73948">
        <ele>556.6</ele>
        <time>2022-06-26T09:42:04Z</time>
      </trkpt>
      <trkpt lat="48.0083" lon="6.73945">
        <ele>556.6</ele>
        <time>2022-06-26T09:42:05Z</time>
      </trkpt>
      <trkpt lat="48.00829" lon="6.73941">
        <ele>556.8</ele>
        <time>2022-06-26T09:42:06Z</time>
      </trkpt>
      <trkpt lat="48.00828" lon="6.73937">
        <ele>556.8</ele>
        <time>2022-06-26T09:42:07Z</time>
      </trkpt>
      <trkpt lat="48.00826" lon="6.73926">
        <ele>557.2</ele>
        <time>2022-06-26T09:42:10Z</time>
      </trkpt>
      <trkpt lat="48.00825" lon="6.73923">
        <ele>557.4</ele>
        <time>2022-06-26T09:42:11Z</time>
      </trkpt>
      <trkpt lat="48.00824" lon="6.73919">
        <ele>557.4</ele>
        <time>2022-06-26T09:42:12Z</time>
      </trkpt>
      <trkpt lat="48.00822" lon="6.73912">
        <ele>557.6</ele>
        <time>2022-06-26T09:42:14Z</time>
      </trkpt>
      <trkpt lat="48.00821" lon="6.73908">
        <ele>557.8</ele>
        <time>2022-06-26T09:42:15Z</time>
      </trkpt>
      <trkpt lat="48.00821" lon="6.73905">
        <ele>557.8</ele>
        <time>2022-06-26T09:42:16Z</time>
      </trkpt>
      <trkpt lat="48.0082" lon="6.739">
        <ele>558</ele>
        <time>2022-06-26T09:42:17Z</time>
      </trkpt>
      <trkpt lat="48.00819" lon="6.73896">
        <ele>558.2</ele>
        <time>2022-06-26T09:42:18Z</time>
      </trkpt>
      <trkpt lat="48.00819" lon="6.7389">
        <ele>558.4</ele>
        <time>2022-06-26T09:42:19Z</time>
      </trkpt>
      <trkpt lat="48.00818" lon="6.73885">
        <ele>558.4</ele>
        <time>2022-06-26T09:42:20Z</time>
      </trkpt>
      <trkpt lat="48.00817" lon="6.73881">
        <ele>558.6</ele>
        <time>2022-06-26T09:42:21Z</time>
      </trkpt>
      <trkpt lat="48.00817" lon="6.73876">
        <ele>558.6</ele>
        <time>2022-06-26T09:42:22Z</time>
      </trkpt>
      <trkpt lat="48.00816" lon="6.73871">
        <ele>558.6</ele>
        <time>2022-06-26T09:42:23Z</time>
      </trkpt>
      <trkpt lat="48.00814" lon="6.73867">
        <ele>558.8</ele>
        <time>2022-06-26T09:42:24Z</time>
      </trkpt>
      <trkpt lat="48.00813" lon="6.73864">
        <ele>558.8</ele>
        <time>2022-06-26T09:42:25Z</time>
      </trkpt>
      <trkpt lat="48.00811" lon="6.73858">
        <ele>558.8</ele>
        <time>2022-06-26T09:42:26Z</time>
      </trkpt>
      <trkpt lat="48.00809" lon="6.73851">
        <ele>558.8</ele>
        <time>2022-06-26T09:42:27Z</time>
      </trkpt>
      <trkpt lat="48.00807" lon="6.73845">
        <ele>558.8</ele>
        <time>2022-06-26T09:42:28Z</time>
      </trkpt>
      <trkpt lat="48.00805" lon="6.7384">
        <ele>558.8</ele>
        <time>2022-06-26T09:42:29Z</time>
      </trkpt>
      <trkpt lat="48.00803" lon="6.73835">
        <ele>558.4</ele>
        <time>2022-06-26T09:42:30Z</time>
      </trkpt>
      <trkpt lat="48.00798" lon="6.73823">
        <ele>558.2</ele>
        <time>2022-06-26T09:42:33Z</time>
      </trkpt>
      <trkpt lat="48.00796" lon="6.7382">
        <ele>558.2</ele>
        <time>2022-06-26T09:42:34Z</time>
      </trkpt>
      <trkpt lat="48.00794" lon="6.73815">
        <ele>558.2</ele>
        <time>2022-06-26T09:42:35Z</time>
      </trkpt>
      <trkpt lat="48.00789" lon="6.73802">
        <ele>558.2</ele>
        <time>2022-06-26T09:42:39Z</time>
      </trkpt>
      <trkpt lat="48.00788" lon="6.73799">
        <ele>558.4</ele>
        <time>2022-06-26T09:42:40Z</time>
      </trkpt>
      <trkpt lat="48.00786" lon="6.73796">
        <ele>558.4</ele>
        <time>2022-06-26T09:42:41Z</time>
      </trkpt>
      <trkpt lat="48.00784" lon="6.73793">
        <ele>558.6</ele>
        <time>2022-06-26T09:42:42Z</time>
      </trkpt>
      <trkpt lat="48.00783" lon="6.7379">
        <ele>558.6</ele>
        <time>2022-06-26T09:42:43Z</time>
      </trkpt>
      <trkpt lat="48.00782" lon="6.73787">
        <ele>558.8</ele>
        <time>2022-06-26T09:42:44Z</time>
      </trkpt>
      <trkpt lat="48.0078" lon="6.73785">
        <ele>558.8</ele>
        <time>2022-06-26T09:42:45Z</time>
      </trkpt>
      <trkpt lat="48.00779" lon="6.73781">
        <ele>558.8</ele>
        <time>2022-06-26T09:42:46Z</time>
      </trkpt>
      <trkpt lat="48.00778" lon="6.73777">
        <ele>559.2</ele>
        <time>2022-06-26T09:42:47Z</time>
      </trkpt>
      <trkpt lat="48.00774" lon="6.73768">
        <ele>559.6</ele>
        <time>2022-06-26T09:42:50Z</time>
      </trkpt>
      <trkpt lat="48.00773" lon="6.73766">
        <ele>559.8</ele>
        <time>2022-06-26T09:42:51Z</time>
      </trkpt>
      <trkpt lat="48.00769" lon="6.73759">
        <ele>560</ele>
        <time>2022-06-26T09:42:53Z</time>
      </trkpt>
      <trkpt lat="48.00763" lon="6.73748">
        <ele>560.4</ele>
        <time>2022-06-26T09:42:57Z</time>
      </trkpt>
      <trkpt lat="48.00762" lon="6.73745">
        <ele>560.6</ele>
        <time>2022-06-26T09:42:58Z</time>
      </trkpt>
      <trkpt lat="48.00761" lon="6.73742">
        <ele>560.8</ele>
        <time>2022-06-26T09:42:59Z</time>
      </trkpt>
      <trkpt lat="48.0076" lon="6.73739">
        <ele>560.8</ele>
        <time>2022-06-26T09:43:00Z</time>
      </trkpt>
      <trkpt lat="48.0076" lon="6.73737">
        <ele>561</ele>
        <time>2022-06-26T09:43:01Z</time>
      </trkpt>
      <trkpt lat="48.0076" lon="6.73734">
        <ele>561</ele>
        <time>2022-06-26T09:43:02Z</time>
      </trkpt>
      <trkpt lat="48.0076" lon="6.73732">
        <ele>561.6</ele>
        <time>2022-06-26T09:43:03Z</time>
      </trkpt>
      <trkpt lat="48.0076" lon="6.7373">
        <ele>561.6</ele>
        <time>2022-06-26T09:43:04Z</time>
      </trkpt>
      <trkpt lat="48.00758" lon="6.73727">
        <ele>562</ele>
        <time>2022-06-26T09:43:05Z</time>
      </trkpt>
      <trkpt lat="48.00756" lon="6.73725">
        <ele>562</ele>
        <time>2022-06-26T09:43:06Z</time>
      </trkpt>
      <trkpt lat="48.00755" lon="6.73723">
        <ele>562.4</ele>
        <time>2022-06-26T09:43:07Z</time>
      </trkpt>
      <trkpt lat="48.00753" lon="6.73721">
        <ele>562.4</ele>
        <time>2022-06-26T09:43:08Z</time>
      </trkpt>
      <trkpt lat="48.00751" lon="6.73718">
        <ele>562.8</ele>
        <time>2022-06-26T09:43:09Z</time>
      </trkpt>
      <trkpt lat="48.0075" lon="6.73716">
        <ele>563</ele>
        <time>2022-06-26T09:43:10Z</time>
      </trkpt>
      <trkpt lat="48.00749" lon="6.73712">
        <ele>563</ele>
        <time>2022-06-26T09:43:11Z</time>
      </trkpt>
      <trkpt lat="48.00749" lon="6.73709">
        <ele>563</ele>
        <time>2022-06-26T09:43:12Z</time>
      </trkpt>
      <trkpt lat="48.00748" lon="6.73706">
        <ele>563.2</ele>
        <time>2022-06-26T09:43:13Z</time>
      </trkpt>
      <trkpt lat="48.00747" lon="6.73702">
        <ele>563.2</ele>
        <time>2022-06-26T09:43:14Z</time>
      </trkpt>
      <trkpt lat="48.00746" lon="6.73699">
        <ele>563.2</ele>
        <time>2022-06-26T09:43:15Z</time>
      </trkpt>
      <trkpt lat="48.00745" lon="6.73697">
        <ele>563.2</ele>
        <time>2022-06-26T09:43:16Z</time>
      </trkpt>
      <trkpt lat="48.00745" lon="6.73694">
        <ele>563.2</ele>
        <time>2022-06-26T09:43:17Z</time>
      </trkpt>
      <trkpt lat="48.00744" lon="6.73689">
        <ele>563.2</ele>
        <time>2022-06-26T09:43:18Z</time>
      </trkpt>
      <trkpt lat="48.00743" lon="6.73685">
        <ele>563.2</ele>
        <time>2022-06-26T09:43:19Z</time>
      </trkpt>
      <trkpt lat="48.00742" lon="6.73681">
        <ele>563.2</ele>
        <time>2022-06-26T09:43:20Z</time>
      </trkpt>
      <trkpt lat="48.0074" lon="6.73676">
        <ele>563.2</ele>
        <time>2022-06-26T09:43:21Z</time>
      </trkpt>
      <trkpt lat="48.00739" lon="6.73673">
        <ele>563</ele>
        <time>2022-06-26T09:43:22Z</time>
      </trkpt>
      <trkpt lat="48.00738" lon="6.73671">
        <ele>562.8</ele>
        <time>2022-06-26T09:43:23Z</time>
      </trkpt>
      <trkpt lat="48.00738" lon="6.73668">
        <ele>562.8</ele>
        <time>2022-06-26T09:43:24Z</time>
      </trkpt>
      <trkpt lat="48.00737" lon="6.73665">
        <ele>562.6</ele>
        <time>2022-06-26T09:43:25Z</time>
      </trkpt>
      <trkpt lat="48.00736" lon="6.73661">
        <ele>562.4</ele>
        <time>2022-06-26T09:43:26Z</time>
      </trkpt>
      <trkpt lat="48.00733" lon="6.73652">
        <ele>562.2</ele>
        <time>2022-06-26T09:43:28Z</time>
      </trkpt>
      <trkpt lat="48.00732" lon="6.73649">
        <ele>562</ele>
        <time>2022-06-26T09:43:29Z</time>
      </trkpt>
      <trkpt lat="48.00731" lon="6.73646">
        <ele>561.8</ele>
        <time>2022-06-26T09:43:30Z</time>
      </trkpt>
      <trkpt lat="48.0073" lon="6.73644">
        <ele>561.6</ele>
        <time>2022-06-26T09:43:31Z</time>
      </trkpt>
      <trkpt lat="48.00725" lon="6.73631">
        <ele>560.6</ele>
        <time>2022-06-26T09:43:33Z</time>
      </trkpt>
      <trkpt lat="48.00723" lon="6.73625">
        <ele>559.8</ele>
        <time>2022-06-26T09:43:34Z</time>
      </trkpt>
      <trkpt lat="48.00722" lon="6.73621">
        <ele>559.4</ele>
        <time>2022-06-26T09:43:35Z</time>
      </trkpt>
      <trkpt lat="48.00718" lon="6.7361">
        <ele>558</ele>
        <time>2022-06-26T09:43:37Z</time>
      </trkpt>
      <trkpt lat="48.00712" lon="6.73595">
        <ele>557.2</ele>
        <time>2022-06-26T09:43:39Z</time>
      </trkpt>
      <trkpt lat="48.00711" lon="6.73592">
        <ele>556.8</ele>
        <time>2022-06-26T09:43:40Z</time>
      </trkpt>
      <trkpt lat="48.00708" lon="6.73583">
        <ele>555.6</ele>
        <time>2022-06-26T09:43:42Z</time>
      </trkpt>
      <trkpt lat="48.00707" lon="6.73579">
        <ele>554.2</ele>
        <time>2022-06-26T09:43:43Z</time>
      </trkpt>
      <trkpt lat="48.00705" lon="6.73575">
        <ele>553.8</ele>
        <time>2022-06-26T09:43:44Z</time>
      </trkpt>
      <trkpt lat="48.00703" lon="6.73571">
        <ele>553</ele>
        <time>2022-06-26T09:43:45Z</time>
      </trkpt>
      <trkpt lat="48.00702" lon="6.73567">
        <ele>552.4</ele>
        <time>2022-06-26T09:43:46Z</time>
      </trkpt>
      <trkpt lat="48.007" lon="6.73562">
        <ele>552.2</ele>
        <time>2022-06-26T09:43:47Z</time>
      </trkpt>
      <trkpt lat="48.00698" lon="6.73557">
        <ele>551.4</ele>
        <time>2022-06-26T09:43:48Z</time>
      </trkpt>
      <trkpt lat="48.00695" lon="6.7355">
        <ele>551</ele>
        <time>2022-06-26T09:43:49Z</time>
      </trkpt>
      <trkpt lat="48.0069" lon="6.73541">
        <ele>550.2</ele>
        <time>2022-06-26T09:43:50Z</time>
      </trkpt>
      <trkpt lat="48.00689" lon="6.73533">
        <ele>549.6</ele>
        <time>2022-06-26T09:43:51Z</time>
      </trkpt>
      <trkpt lat="48.00688" lon="6.73524">
        <ele>548.6</ele>
        <time>2022-06-26T09:43:52Z</time>
      </trkpt>
      <trkpt lat="48.00689" lon="6.73518">
        <ele>548.2</ele>
        <time>2022-06-26T09:43:53Z</time>
      </trkpt>
      <trkpt lat="48.0069" lon="6.73511">
        <ele>547.6</ele>
        <time>2022-06-26T09:43:54Z</time>
      </trkpt>
      <trkpt lat="48.00691" lon="6.73506">
        <ele>546.8</ele>
        <time>2022-06-26T09:43:55Z</time>
      </trkpt>
      <trkpt lat="48.00691" lon="6.73503">
        <ele>546.2</ele>
        <time>2022-06-26T09:43:56Z</time>
      </trkpt>
      <trkpt lat="48.00691" lon="6.73502">
        <ele>545.2</ele>
        <time>2022-06-26T09:43:57Z</time>
      </trkpt>
      <trkpt lat="48.0069" lon="6.73502">
        <ele>545</ele>
        <time>2022-06-26T09:43:58Z</time>
      </trkpt>
      <trkpt lat="48.00688" lon="6.73502">
        <ele>544.4</ele>
        <time>2022-06-26T09:43:59Z</time>
      </trkpt>
      <trkpt lat="48.00685" lon="6.73503">
        <ele>544.2</ele>
        <time>2022-06-26T09:44:00Z</time>
      </trkpt>
      <trkpt lat="48.00683" lon="6.73505">
        <ele>544</ele>
        <time>2022-06-26T09:44:01Z</time>
      </trkpt>
      <trkpt lat="48.00674" lon="6.73517">
        <ele>543.2</ele>
        <time>2022-06-26T09:44:04Z</time>
      </trkpt>
      <trkpt lat="48.00671" lon="6.73522">
        <ele>542.8</ele>
        <time>2022-06-26T09:44:05Z</time>
      </trkpt>
      <trkpt lat="48.00665" lon="6.73531">
        <ele>542.2</ele>
        <time>2022-06-26T09:44:06Z</time>
      </trkpt>
      <trkpt lat="48.00661" lon="6.73538">
        <ele>541.4</ele>
        <time>2022-06-26T09:44:07Z</time>
      </trkpt>
      <trkpt lat="48.00657" lon="6.73545">
        <ele>540</ele>
        <time>2022-06-26T09:44:08Z</time>
      </trkpt>
      <trkpt lat="48.00651" lon="6.73559">
        <ele>539</ele>
        <time>2022-06-26T09:44:10Z</time>
      </trkpt>
      <trkpt lat="48.00649" lon="6.73563">
        <ele>538.6</ele>
        <time>2022-06-26T09:44:11Z</time>
      </trkpt>
      <trkpt lat="48.00646" lon="6.73566">
        <ele>536.4</ele>
        <time>2022-06-26T09:44:12Z</time>
      </trkpt>
      <trkpt lat="48.00643" lon="6.73568">
        <ele>534.8</ele>
        <time>2022-06-26T09:44:13Z</time>
      </trkpt>
      <trkpt lat="48.0064" lon="6.73571">
        <ele>534.2</ele>
        <time>2022-06-26T09:44:14Z</time>
      </trkpt>
      <trkpt lat="48.00637" lon="6.73575">
        <ele>533</ele>
        <time>2022-06-26T09:44:15Z</time>
      </trkpt>
      <trkpt lat="48.00633" lon="6.73585">
        <ele>530.8</ele>
        <time>2022-06-26T09:44:17Z</time>
      </trkpt>
      <trkpt lat="48.00631" lon="6.73597">
        <ele>529.6</ele>
        <time>2022-06-26T09:44:19Z</time>
      </trkpt>
      <trkpt lat="48.0063" lon="6.73602">
        <ele>529.2</ele>
        <time>2022-06-26T09:44:20Z</time>
      </trkpt>
      <trkpt lat="48.0063" lon="6.73607">
        <ele>528.8</ele>
        <time>2022-06-26T09:44:21Z</time>
      </trkpt>
      <trkpt lat="48.00631" lon="6.73611">
        <ele>528.2</ele>
        <time>2022-06-26T09:44:22Z</time>
      </trkpt>
      <trkpt lat="48.00631" lon="6.73613">
        <ele>527.2</ele>
        <time>2022-06-26T09:44:23Z</time>
      </trkpt>
      <trkpt lat="48.00632" lon="6.73616">
        <ele>526.2</ele>
        <time>2022-06-26T09:44:24Z</time>
      </trkpt>
      <trkpt lat="48.00633" lon="6.73619">
        <ele>525.8</ele>
        <time>2022-06-26T09:44:25Z</time>
      </trkpt>
      <trkpt lat="48.00633" lon="6.73624">
        <ele>525.2</ele>
        <time>2022-06-26T09:44:26Z</time>
      </trkpt>
      <trkpt lat="48.00634" lon="6.73628">
        <ele>524.8</ele>
        <time>2022-06-26T09:44:27Z</time>
      </trkpt>
      <trkpt lat="48.00637" lon="6.73639">
        <ele>524</ele>
        <time>2022-06-26T09:44:30Z</time>
      </trkpt>
      <trkpt lat="48.0064" lon="6.73651">
        <ele>523.6</ele>
        <time>2022-06-26T09:44:33Z</time>
      </trkpt>
      <trkpt lat="48.00647" lon="6.73674">
        <ele>523.4</ele>
        <time>2022-06-26T09:44:39Z</time>
      </trkpt>
      <trkpt lat="48.00648" lon="6.7369">
        <ele>523.4</ele>
        <time>2022-06-26T09:44:42Z</time>
      </trkpt>
      <trkpt lat="48.00647" lon="6.73697">
        <ele>523.4</ele>
        <time>2022-06-26T09:44:43Z</time>
      </trkpt>
      <trkpt lat="48.00647" lon="6.73704">
        <ele>523</ele>
        <time>2022-06-26T09:44:44Z</time>
      </trkpt>
      <trkpt lat="48.00646" lon="6.73711">
        <ele>522.8</ele>
        <time>2022-06-26T09:44:45Z</time>
      </trkpt>
      <trkpt lat="48.00645" lon="6.73736">
        <ele>522.8</ele>
        <time>2022-06-26T09:44:49Z</time>
      </trkpt>
      <trkpt lat="48.00645" lon="6.73747">
        <ele>522.8</ele>
        <time>2022-06-26T09:44:51Z</time>
      </trkpt>
      <trkpt lat="48.00644" lon="6.7375">
        <ele>522.6</ele>
        <time>2022-06-26T09:44:52Z</time>
      </trkpt>
      <trkpt lat="48.00642" lon="6.73755">
        <ele>522.6</ele>
        <time>2022-06-26T09:44:53Z</time>
      </trkpt>
      <trkpt lat="48.00639" lon="6.73758">
        <ele>522.4</ele>
        <time>2022-06-26T09:44:54Z</time>
      </trkpt>
      <trkpt lat="48.00636" lon="6.73761">
        <ele>522.4</ele>
        <time>2022-06-26T09:44:55Z</time>
      </trkpt>
      <trkpt lat="48.00634" lon="6.73764">
        <ele>522.2</ele>
        <time>2022-06-26T09:44:56Z</time>
      </trkpt>
      <trkpt lat="48.00633" lon="6.73767">
        <ele>521.8</ele>
        <time>2022-06-26T09:44:57Z</time>
      </trkpt>
      <trkpt lat="48.00631" lon="6.73772">
        <ele>521.6</ele>
        <time>2022-06-26T09:44:58Z</time>
      </trkpt>
      <trkpt lat="48.00629" lon="6.73775">
        <ele>521.2</ele>
        <time>2022-06-26T09:44:59Z</time>
      </trkpt>
      <trkpt lat="48.00629" lon="6.73779">
        <ele>520.2</ele>
        <time>2022-06-26T09:45:00Z</time>
      </trkpt>
      <trkpt lat="48.00626" lon="6.73787">
        <ele>519.4</ele>
        <time>2022-06-26T09:45:02Z</time>
      </trkpt>
      <trkpt lat="48.00625" lon="6.73792">
        <ele>519.2</ele>
        <time>2022-06-26T09:45:03Z</time>
      </trkpt>
      <trkpt lat="48.00623" lon="6.73796">
        <ele>518.4</ele>
        <time>2022-06-26T09:45:04Z</time>
      </trkpt>
      <trkpt lat="48.00621" lon="6.73799">
        <ele>518</ele>
        <time>2022-06-26T09:45:05Z</time>
      </trkpt>
      <trkpt lat="48.00619" lon="6.73802">
        <ele>517.2</ele>
        <time>2022-06-26T09:45:06Z</time>
      </trkpt>
      <trkpt lat="48.00617" lon="6.73808">
        <ele>516.2</ele>
        <time>2022-06-26T09:45:07Z</time>
      </trkpt>
      <trkpt lat="48.00616" lon="6.7382">
        <ele>515</ele>
        <time>2022-06-26T09:45:09Z</time>
      </trkpt>
      <trkpt lat="48.00617" lon="6.73828">
        <ele>514.8</ele>
        <time>2022-06-26T09:45:10Z</time>
      </trkpt>
      <trkpt lat="48.00617" lon="6.73836">
        <ele>514.2</ele>
        <time>2022-06-26T09:45:11Z</time>
      </trkpt>
      <trkpt lat="48.00617" lon="6.73845">
        <ele>513.8</ele>
        <time>2022-06-26T09:45:12Z</time>
      </trkpt>
      <trkpt lat="48.00616" lon="6.73858">
        <ele>512.4</ele>
        <time>2022-06-26T09:45:14Z</time>
      </trkpt>
      <trkpt lat="48.00614" lon="6.73863">
        <ele>511.6</ele>
        <time>2022-06-26T09:45:15Z</time>
      </trkpt>
      <trkpt lat="48.00611" lon="6.73863">
        <ele>511</ele>
        <time>2022-06-26T09:45:16Z</time>
      </trkpt>
      <trkpt lat="48.00608" lon="6.73861">
        <ele>510.4</ele>
        <time>2022-06-26T09:45:17Z</time>
      </trkpt>
      <trkpt lat="48.00607" lon="6.73856">
        <ele>509.8</ele>
        <time>2022-06-26T09:45:18Z</time>
      </trkpt>
      <trkpt lat="48.006" lon="6.73843">
        <ele>509</ele>
        <time>2022-06-26T09:45:21Z</time>
      </trkpt>
      <trkpt lat="48.00599" lon="6.73839">
        <ele>508.2</ele>
        <time>2022-06-26T09:45:22Z</time>
      </trkpt>
      <trkpt lat="48.00596" lon="6.73834">
        <ele>507.8</ele>
        <time>2022-06-26T09:45:23Z</time>
      </trkpt>
      <trkpt lat="48.00593" lon="6.73826">
        <ele>507.2</ele>
        <time>2022-06-26T09:45:24Z</time>
      </trkpt>
      <trkpt lat="48.00591" lon="6.73819">
        <ele>507</ele>
        <time>2022-06-26T09:45:25Z</time>
      </trkpt>
      <trkpt lat="48.00588" lon="6.7381">
        <ele>506.8</ele>
        <time>2022-06-26T09:45:26Z</time>
      </trkpt>
      <trkpt lat="48.00582" lon="6.73789">
        <ele>506</ele>
        <time>2022-06-26T09:45:28Z</time>
      </trkpt>
      <trkpt lat="48.00579" lon="6.73769">
        <ele>505</ele>
        <time>2022-06-26T09:45:30Z</time>
      </trkpt>
      <trkpt lat="48.00578" lon="6.73759">
        <ele>504.4</ele>
        <time>2022-06-26T09:45:31Z</time>
      </trkpt>
      <trkpt lat="48.00577" lon="6.7375">
        <ele>504</ele>
        <time>2022-06-26T09:45:32Z</time>
      </trkpt>
      <trkpt lat="48.00574" lon="6.7374">
        <ele>503</ele>
        <time>2022-06-26T09:45:33Z</time>
      </trkpt>
      <trkpt lat="48.00572" lon="6.73732">
        <ele>502</ele>
        <time>2022-06-26T09:45:34Z</time>
      </trkpt>
      <trkpt lat="48.00569" lon="6.73722">
        <ele>501.6</ele>
        <time>2022-06-26T09:45:35Z</time>
      </trkpt>
      <trkpt lat="48.00566" lon="6.73709">
        <ele>500.8</ele>
        <time>2022-06-26T09:45:36Z</time>
      </trkpt>
      <trkpt lat="48.00562" lon="6.73694">
        <ele>500.2</ele>
        <time>2022-06-26T09:45:37Z</time>
      </trkpt>
      <trkpt lat="48.00553" lon="6.7367">
        <ele>499.4</ele>
        <time>2022-06-26T09:45:39Z</time>
      </trkpt>
      <trkpt lat="48.0055" lon="6.7366">
        <ele>498.2</ele>
        <time>2022-06-26T09:45:40Z</time>
      </trkpt>
      <trkpt lat="48.00546" lon="6.73648">
        <ele>497.8</ele>
        <time>2022-06-26T09:45:41Z</time>
      </trkpt>
      <trkpt lat="48.00543" lon="6.73637">
        <ele>497</ele>
        <time>2022-06-26T09:45:42Z</time>
      </trkpt>
      <trkpt lat="48.0054" lon="6.73625">
        <ele>496.2</ele>
        <time>2022-06-26T09:45:43Z</time>
      </trkpt>
      <trkpt lat="48.00539" lon="6.73612">
        <ele>495.8</ele>
        <time>2022-06-26T09:45:44Z</time>
      </trkpt>
      <trkpt lat="48.00538" lon="6.736">
        <ele>493.6</ele>
        <time>2022-06-26T09:45:45Z</time>
      </trkpt>
      <trkpt lat="48.00535" lon="6.73578">
        <ele>492.2</ele>
        <time>2022-06-26T09:45:47Z</time>
      </trkpt>
      <trkpt lat="48.00534" lon="6.73568">
        <ele>492</ele>
        <time>2022-06-26T09:45:48Z</time>
      </trkpt>
      <trkpt lat="48.00531" lon="6.73559">
        <ele>491.2</ele>
        <time>2022-06-26T09:45:49Z</time>
      </trkpt>
      <trkpt lat="48.00529" lon="6.73551">
        <ele>491</ele>
        <time>2022-06-26T09:45:50Z</time>
      </trkpt>
      <trkpt lat="48.00528" lon="6.73541">
        <ele>490.6</ele>
        <time>2022-06-26T09:45:51Z</time>
      </trkpt>
      <trkpt lat="48.00527" lon="6.7353">
        <ele>489.8</ele>
        <time>2022-06-26T09:45:52Z</time>
      </trkpt>
      <trkpt lat="48.00526" lon="6.7352">
        <ele>489.4</ele>
        <time>2022-06-26T09:45:53Z</time>
      </trkpt>
      <trkpt lat="48.00525" lon="6.73512">
        <ele>488</ele>
        <time>2022-06-26T09:45:54Z</time>
      </trkpt>
      <trkpt lat="48.00525" lon="6.73507">
        <ele>487.4</ele>
        <time>2022-06-26T09:45:55Z</time>
      </trkpt>
      <trkpt lat="48.00525" lon="6.73504">
        <ele>486.4</ele>
        <time>2022-06-26T09:45:56Z</time>
      </trkpt>
      <trkpt lat="48.00524" lon="6.73503">
        <ele>486.2</ele>
        <time>2022-06-26T09:45:57Z</time>
      </trkpt>
      <trkpt lat="48.00524" lon="6.73502">
        <ele>485.4</ele>
        <time>2022-06-26T09:45:58Z</time>
      </trkpt>
      <trkpt lat="48.00523" lon="6.73501">
        <ele>485.2</ele>
        <time>2022-06-26T09:45:59Z</time>
      </trkpt>
      <trkpt lat="48.00522" lon="6.735">
        <ele>484.4</ele>
        <time>2022-06-26T09:46:00Z</time>
      </trkpt>
      <trkpt lat="48.00521" lon="6.73498">
        <ele>483.8</ele>
        <time>2022-06-26T09:46:01Z</time>
      </trkpt>
      <trkpt lat="48.0052" lon="6.73494">
        <ele>483</ele>
        <time>2022-06-26T09:46:03Z</time>
      </trkpt>
      <trkpt lat="48.00519" lon="6.73493">
        <ele>482.8</ele>
        <time>2022-06-26T09:46:04Z</time>
      </trkpt>
      <trkpt lat="48.00519" lon="6.73491">
        <ele>482.4</ele>
        <time>2022-06-26T09:46:05Z</time>
      </trkpt>
      <trkpt lat="48.00517" lon="6.73485">
        <ele>481.8</ele>
        <time>2022-06-26T09:46:07Z</time>
      </trkpt>
      <trkpt lat="48.00517" lon="6.73483">
        <ele>481.4</ele>
        <time>2022-06-26T09:46:08Z</time>
      </trkpt>
      <trkpt lat="48.00515" lon="6.7348">
        <ele>480.4</ele>
        <time>2022-06-26T09:46:09Z</time>
      </trkpt>
      <trkpt lat="48.00515" lon="6.73478">
        <ele>479.8</ele>
        <time>2022-06-26T09:46:10Z</time>
      </trkpt>
      <trkpt lat="48.00514" lon="6.73476">
        <ele>479.6</ele>
        <time>2022-06-26T09:46:11Z</time>
      </trkpt>
      <trkpt lat="48.00513" lon="6.73473">
        <ele>479.4</ele>
        <time>2022-06-26T09:46:12Z</time>
      </trkpt>
      <trkpt lat="48.00512" lon="6.73469">
        <ele>479</ele>
        <time>2022-06-26T09:46:13Z</time>
      </trkpt>
      <trkpt lat="48.0051" lon="6.73465">
        <ele>478.2</ele>
        <time>2022-06-26T09:46:14Z</time>
      </trkpt>
      <trkpt lat="48.00507" lon="6.73459">
        <ele>477.2</ele>
        <time>2022-06-26T09:46:16Z</time>
      </trkpt>
      <trkpt lat="48.00505" lon="6.73456">
        <ele>477</ele>
        <time>2022-06-26T09:46:17Z</time>
      </trkpt>
      <trkpt lat="48.00504" lon="6.73453">
        <ele>475.8</ele>
        <time>2022-06-26T09:46:18Z</time>
      </trkpt>
      <trkpt lat="48.00503" lon="6.73449">
        <ele>475</ele>
        <time>2022-06-26T09:46:19Z</time>
      </trkpt>
      <trkpt lat="48.00502" lon="6.73446">
        <ele>474.8</ele>
        <time>2022-06-26T09:46:20Z</time>
      </trkpt>
      <trkpt lat="48.00501" lon="6.73442">
        <ele>474.6</ele>
        <time>2022-06-26T09:46:21Z</time>
      </trkpt>
      <trkpt lat="48.00498" lon="6.73432">
        <ele>473</ele>
        <time>2022-06-26T09:46:23Z</time>
      </trkpt>
      <trkpt lat="48.00497" lon="6.73427">
        <ele>472.8</ele>
        <time>2022-06-26T09:46:24Z</time>
      </trkpt>
      <trkpt lat="48.00496" lon="6.73417">
        <ele>472</ele>
        <time>2022-06-26T09:46:26Z</time>
      </trkpt>
      <trkpt lat="48.00493" lon="6.73409">
        <ele>471.6</ele>
        <time>2022-06-26T09:46:27Z</time>
      </trkpt>
      <trkpt lat="48.0049" lon="6.73398">
        <ele>470.2</ele>
        <time>2022-06-26T09:46:29Z</time>
      </trkpt>
      <trkpt lat="48.00488" lon="6.73392">
        <ele>469.2</ele>
        <time>2022-06-26T09:46:30Z</time>
      </trkpt>
      <trkpt lat="48.00486" lon="6.73385">
        <ele>468.4</ele>
        <time>2022-06-26T09:46:31Z</time>
      </trkpt>
      <trkpt lat="48.00483" lon="6.73377">
        <ele>467.4</ele>
        <time>2022-06-26T09:46:32Z</time>
      </trkpt>
      <trkpt lat="48.00476" lon="6.73365">
        <ele>467</ele>
        <time>2022-06-26T09:46:33Z</time>
      </trkpt>
      <trkpt lat="48.0047" lon="6.73357">
        <ele>466.2</ele>
        <time>2022-06-26T09:46:34Z</time>
      </trkpt>
      <trkpt lat="48.00465" lon="6.7335">
        <ele>465.6</ele>
        <time>2022-06-26T09:46:35Z</time>
      </trkpt>
      <trkpt lat="48.00458" lon="6.73346">
        <ele>465.2</ele>
        <time>2022-06-26T09:46:36Z</time>
      </trkpt>
      <trkpt lat="48.00453" lon="6.73346">
        <ele>464.8</ele>
        <time>2022-06-26T09:46:37Z</time>
      </trkpt>
      <trkpt lat="48.0045" lon="6.73346">
        <ele>464.2</ele>
        <time>2022-06-26T09:46:38Z</time>
      </trkpt>
      <trkpt lat="48.00446" lon="6.73346">
        <ele>463.2</ele>
        <time>2022-06-26T09:46:39Z</time>
      </trkpt>
      <trkpt lat="48.00443" lon="6.73346">
        <ele>462.6</ele>
        <time>2022-06-26T09:46:40Z</time>
      </trkpt>
      <trkpt lat="48.00439" lon="6.73347">
        <ele>462</ele>
        <time>2022-06-26T09:46:41Z</time>
      </trkpt>
      <trkpt lat="48.00435" lon="6.73347">
        <ele>461.4</ele>
        <time>2022-06-26T09:46:42Z</time>
      </trkpt>
      <trkpt lat="48.0043" lon="6.73346">
        <ele>460.6</ele>
        <time>2022-06-26T09:46:43Z</time>
      </trkpt>
      <trkpt lat="48.00422" lon="6.73338">
        <ele>459.6</ele>
        <time>2022-06-26T09:46:45Z</time>
      </trkpt>
      <trkpt lat="48.0042" lon="6.73333">
        <ele>459.4</ele>
        <time>2022-06-26T09:46:46Z</time>
      </trkpt>
      <trkpt lat="48.00417" lon="6.73328">
        <ele>458.8</ele>
        <time>2022-06-26T09:46:47Z</time>
      </trkpt>
      <trkpt lat="48.00413" lon="6.73323">
        <ele>457</ele>
        <time>2022-06-26T09:46:48Z</time>
      </trkpt>
      <trkpt lat="48.00408" lon="6.73315">
        <ele>456.6</ele>
        <time>2022-06-26T09:46:49Z</time>
      </trkpt>
      <trkpt lat="48.00404" lon="6.73307">
        <ele>455.2</ele>
        <time>2022-06-26T09:46:50Z</time>
      </trkpt>
      <trkpt lat="48.00403" lon="6.73289">
        <ele>453.6</ele>
        <time>2022-06-26T09:46:52Z</time>
      </trkpt>
      <trkpt lat="48.00406" lon="6.73279">
        <ele>453</ele>
        <time>2022-06-26T09:46:53Z</time>
      </trkpt>
      <trkpt lat="48.00411" lon="6.73258">
        <ele>451.8</ele>
        <time>2022-06-26T09:46:55Z</time>
      </trkpt>
      <trkpt lat="48.00414" lon="6.73246">
        <ele>451.2</ele>
        <time>2022-06-26T09:46:56Z</time>
      </trkpt>
      <trkpt lat="48.00414" lon="6.73233">
        <ele>450.2</ele>
        <time>2022-06-26T09:46:57Z</time>
      </trkpt>
      <trkpt lat="48.00414" lon="6.73222">
        <ele>450</ele>
        <time>2022-06-26T09:46:58Z</time>
      </trkpt>
      <trkpt lat="48.00414" lon="6.73214">
        <ele>449</ele>
        <time>2022-06-26T09:46:59Z</time>
      </trkpt>
      <trkpt lat="48.00413" lon="6.73207">
        <ele>448.6</ele>
        <time>2022-06-26T09:47:00Z</time>
      </trkpt>
      <trkpt lat="48.00413" lon="6.73197">
        <ele>448</ele>
        <time>2022-06-26T09:47:01Z</time>
      </trkpt>
      <trkpt lat="48.00414" lon="6.73191">
        <ele>447.2</ele>
        <time>2022-06-26T09:47:02Z</time>
      </trkpt>
      <trkpt lat="48.00414" lon="6.73182">
        <ele>446.8</ele>
        <time>2022-06-26T09:47:03Z</time>
      </trkpt>
      <trkpt lat="48.00415" lon="6.73176">
        <ele>446.4</ele>
        <time>2022-06-26T09:47:04Z</time>
      </trkpt>
      <trkpt lat="48.00414" lon="6.73171">
        <ele>446.2</ele>
        <time>2022-06-26T09:47:05Z</time>
      </trkpt>
      <trkpt lat="48.00413" lon="6.73168">
        <ele>446</ele>
        <time>2022-06-26T09:47:06Z</time>
      </trkpt>
      <trkpt lat="48.00412" lon="6.73162">
        <ele>445.8</ele>
        <time>2022-06-26T09:47:07Z</time>
      </trkpt>
      <trkpt lat="48.00412" lon="6.73158">
        <ele>445.6</ele>
        <time>2022-06-26T09:47:08Z</time>
      </trkpt>
      <trkpt lat="48.00415" lon="6.73139">
        <ele>445</ele>
        <time>2022-06-26T09:47:11Z</time>
      </trkpt>
      <trkpt lat="48.00417" lon="6.7313">
        <ele>444.6</ele>
        <time>2022-06-26T09:47:13Z</time>
      </trkpt>
      <trkpt lat="48.00418" lon="6.73127">
        <ele>444.4</ele>
        <time>2022-06-26T09:47:14Z</time>
      </trkpt>
      <trkpt lat="48.00419" lon="6.73124">
        <ele>444.4</ele>
        <time>2022-06-26T09:47:15Z</time>
      </trkpt>
      <trkpt lat="48.0042" lon="6.73121">
        <ele>444.2</ele>
        <time>2022-06-26T09:47:16Z</time>
      </trkpt>
      <trkpt lat="48.0042" lon="6.73118">
        <ele>444.2</ele>
        <time>2022-06-26T09:47:17Z</time>
      </trkpt>
      <trkpt lat="48.00421" lon="6.73114">
        <ele>444.2</ele>
        <time>2022-06-26T09:47:18Z</time>
      </trkpt>
      <trkpt lat="48.00421" lon="6.7311">
        <ele>444</ele>
        <time>2022-06-26T09:47:19Z</time>
      </trkpt>
      <trkpt lat="48.00421" lon="6.73106">
        <ele>443.8</ele>
        <time>2022-06-26T09:47:20Z</time>
      </trkpt>
      <trkpt lat="48.00422" lon="6.73072">
        <ele>443.8</ele>
        <time>2022-06-26T09:47:26Z</time>
      </trkpt>
      <trkpt lat="48.00422" lon="6.73067">
        <ele>443.6</ele>
        <time>2022-06-26T09:47:27Z</time>
      </trkpt>
      <trkpt lat="48.00422" lon="6.73046">
        <ele>443.6</ele>
        <time>2022-06-26T09:47:30Z</time>
      </trkpt>
      <trkpt lat="48.00424" lon="6.73032">
        <ele>443.6</ele>
        <time>2022-06-26T09:47:32Z</time>
      </trkpt>
      <trkpt lat="48.00425" lon="6.7301">
        <ele>443.6</ele>
        <time>2022-06-26T09:47:35Z</time>
      </trkpt>
      <trkpt lat="48.00428" lon="6.72996">
        <ele>443.4</ele>
        <time>2022-06-26T09:47:37Z</time>
      </trkpt>
      <trkpt lat="48.0043" lon="6.72989">
        <ele>443.4</ele>
        <time>2022-06-26T09:47:38Z</time>
      </trkpt>
      <trkpt lat="48.00434" lon="6.72965">
        <ele>443.2</ele>
        <time>2022-06-26T09:47:41Z</time>
      </trkpt>
      <trkpt lat="48.00434" lon="6.72951">
        <ele>442.8</ele>
        <time>2022-06-26T09:47:43Z</time>
      </trkpt>
      <trkpt lat="48.00433" lon="6.72937">
        <ele>442.4</ele>
        <time>2022-06-26T09:47:45Z</time>
      </trkpt>
      <trkpt lat="48.00434" lon="6.72932">
        <ele>442</ele>
        <time>2022-06-26T09:47:46Z</time>
      </trkpt>
      <trkpt lat="48.00435" lon="6.72928">
        <ele>441.8</ele>
        <time>2022-06-26T09:47:47Z</time>
      </trkpt>
      <trkpt lat="48.00436" lon="6.72924">
        <ele>441.4</ele>
        <time>2022-06-26T09:47:48Z</time>
      </trkpt>
      <trkpt lat="48.00437" lon="6.72919">
        <ele>441</ele>
        <time>2022-06-26T09:47:49Z</time>
      </trkpt>
      <trkpt lat="48.00438" lon="6.72915">
        <ele>440.8</ele>
        <time>2022-06-26T09:47:50Z</time>
      </trkpt>
      <trkpt lat="48.00439" lon="6.72912">
        <ele>440.8</ele>
        <time>2022-06-26T09:47:51Z</time>
      </trkpt>
      <trkpt lat="48.00441" lon="6.72908">
        <ele>440.6</ele>
        <time>2022-06-26T09:47:52Z</time>
      </trkpt>
      <trkpt lat="48.00442" lon="6.72906">
        <ele>440.4</ele>
        <time>2022-06-26T09:47:53Z</time>
      </trkpt>
      <trkpt lat="48.00443" lon="6.72902">
        <ele>440.4</ele>
        <time>2022-06-26T09:47:54Z</time>
      </trkpt>
      <trkpt lat="48.00444" lon="6.72898">
        <ele>440.2</ele>
        <time>2022-06-26T09:47:55Z</time>
      </trkpt>
      <trkpt lat="48.00446" lon="6.72895">
        <ele>440.2</ele>
        <time>2022-06-26T09:47:56Z</time>
      </trkpt>
      <trkpt lat="48.00447" lon="6.72892">
        <ele>440.4</ele>
        <time>2022-06-26T09:47:57Z</time>
      </trkpt>
      <trkpt lat="48.00449" lon="6.7289">
        <ele>440.4</ele>
        <time>2022-06-26T09:47:58Z</time>
      </trkpt>
      <trkpt lat="48.00451" lon="6.72887">
        <ele>440.6</ele>
        <time>2022-06-26T09:47:59Z</time>
      </trkpt>
      <trkpt lat="48.00456" lon="6.72877">
        <ele>441</ele>
        <time>2022-06-26T09:48:02Z</time>
      </trkpt>
      <trkpt lat="48.00458" lon="6.72875">
        <ele>441.2</ele>
        <time>2022-06-26T09:48:03Z</time>
      </trkpt>
      <trkpt lat="48.00459" lon="6.72872">
        <ele>441.4</ele>
        <time>2022-06-26T09:48:04Z</time>
      </trkpt>
      <trkpt lat="48.00469" lon="6.72854">
        <ele>442.4</ele>
        <time>2022-06-26T09:48:09Z</time>
      </trkpt>
      <trkpt lat="48.00472" lon="6.72847">
        <ele>442.8</ele>
        <time>2022-06-26T09:48:11Z</time>
      </trkpt>
      <trkpt lat="48.00474" lon="6.72843">
        <ele>442.8</ele>
        <time>2022-06-26T09:48:12Z</time>
      </trkpt>
      <trkpt lat="48.00483" lon="6.72826">
        <ele>443.6</ele>
        <time>2022-06-26T09:48:16Z</time>
      </trkpt>
      <trkpt lat="48.00484" lon="6.72824">
        <ele>443.6</ele>
        <time>2022-06-26T09:48:17Z</time>
      </trkpt>
      <trkpt lat="48.00486" lon="6.7282">
        <ele>443.6</ele>
        <time>2022-06-26T09:48:18Z</time>
      </trkpt>
      <trkpt lat="48.00487" lon="6.72818">
        <ele>443.8</ele>
        <time>2022-06-26T09:48:19Z</time>
      </trkpt>
      <trkpt lat="48.00489" lon="6.72815">
        <ele>443.8</ele>
        <time>2022-06-26T09:48:20Z</time>
      </trkpt>
      <trkpt lat="48.00493" lon="6.72807">
        <ele>443.8</ele>
        <time>2022-06-26T09:48:22Z</time>
      </trkpt>
      <trkpt lat="48.00499" lon="6.72799">
        <ele>444</ele>
        <time>2022-06-26T09:48:24Z</time>
      </trkpt>
      <trkpt lat="48.00501" lon="6.72796">
        <ele>444</ele>
        <time>2022-06-26T09:48:25Z</time>
      </trkpt>
      <trkpt lat="48.00503" lon="6.72793">
        <ele>444</ele>
        <time>2022-06-26T09:48:26Z</time>
      </trkpt>
      <trkpt lat="48.00504" lon="6.72792">
        <ele>444</ele>
        <time>2022-06-26T09:48:27Z</time>
      </trkpt>
      <trkpt lat="48.00505" lon="6.72792">
        <ele>444</ele>
        <time>2022-06-26T09:48:28Z</time>
      </trkpt>
      <trkpt lat="48.00506" lon="6.72792">
        <ele>444</ele>
        <time>2022-06-26T09:48:29Z</time>
      </trkpt>
      <trkpt lat="48.00507" lon="6.72792">
        <ele>444</ele>
        <time>2022-06-26T09:48:30Z</time>
      </trkpt>
      <trkpt lat="48.00507" lon="6.72792">
        <ele>443.8</ele>
        <time>2022-06-26T09:48:31Z</time>
      </trkpt>
      <trkpt lat="48.00508" lon="6.72791">
        <ele>443.8</ele>
        <time>2022-06-26T09:48:32Z</time>
      </trkpt>
      <trkpt lat="48.00508" lon="6.72791">
        <ele>443.8</ele>
        <time>2022-06-26T09:48:33Z</time>
      </trkpt>
      <trkpt lat="48.00508" lon="6.72791">
        <ele>443.8</ele>
        <time>2022-06-26T09:48:34Z</time>
      </trkpt>
      <trkpt lat="48.0051" lon="6.7279">
        <ele>443.8</ele>
        <time>2022-06-26T09:48:35Z</time>
      </trkpt>
      <trkpt lat="48.00513" lon="6.7279">
        <ele>443.8</ele>
        <time>2022-06-26T09:48:37Z</time>
      </trkpt>
      <trkpt lat="48.00514" lon="6.7279">
        <ele>444</ele>
        <time>2022-06-26T09:48:38Z</time>
      </trkpt>
      <trkpt lat="48.00516" lon="6.72789">
        <ele>444</ele>
        <time>2022-06-26T09:48:39Z</time>
      </trkpt>
      <trkpt lat="48.00516" lon="6.72789">
        <ele>444</ele>
        <time>2022-06-26T09:48:40Z</time>
      </trkpt>
      <trkpt lat="48.00516" lon="6.72789">
        <ele>444.2</ele>
        <time>2022-06-26T09:48:41Z</time>
      </trkpt>
      <trkpt lat="48.00516" lon="6.72789">
        <ele>444.2</ele>
        <time>2022-06-26T09:48:42Z</time>
      </trkpt>
      <trkpt lat="48.00518" lon="6.72789">
        <ele>444.6</ele>
        <time>2022-06-26T09:48:45Z</time>
      </trkpt>
      <trkpt lat="48.00521" lon="6.7279">
        <ele>444.6</ele>
        <time>2022-06-26T09:48:46Z</time>
      </trkpt>
      <trkpt lat="48.00527" lon="6.72796">
        <ele>444.6</ele>
        <time>2022-06-26T09:48:50Z</time>
      </trkpt>
      <trkpt lat="48.00529" lon="6.72796">
        <ele>444.6</ele>
        <time>2022-06-26T09:48:51Z</time>
      </trkpt>
      <trkpt lat="48.00531" lon="6.72797">
        <ele>444.4</ele>
        <time>2022-06-26T09:48:52Z</time>
      </trkpt>
      <trkpt lat="48.00532" lon="6.72798">
        <ele>444.2</ele>
        <time>2022-06-26T09:48:53Z</time>
      </trkpt>
      <trkpt lat="48.00532" lon="6.72798">
        <ele>444.2</ele>
        <time>2022-06-26T09:48:54Z</time>
      </trkpt>
      <trkpt lat="48.00533" lon="6.72798">
        <ele>444.2</ele>
        <time>2022-06-26T09:48:55Z</time>
      </trkpt>
      <trkpt lat="48.00534" lon="6.72798">
        <ele>444.2</ele>
        <time>2022-06-26T09:48:56Z</time>
      </trkpt>
      <trkpt lat="48.00536" lon="6.72799">
        <ele>444.2</ele>
        <time>2022-06-26T09:48:57Z</time>
      </trkpt>
      <trkpt lat="48.00541" lon="6.72797">
        <ele>444.6</ele>
        <time>2022-06-26T09:49:01Z</time>
      </trkpt>
      <trkpt lat="48.00542" lon="6.72797">
        <ele>444.8</ele>
        <time>2022-06-26T09:49:02Z</time>
      </trkpt>
      <trkpt lat="48.00543" lon="6.72796">
        <ele>445</ele>
        <time>2022-06-26T09:49:03Z</time>
      </trkpt>
      <trkpt lat="48.00544" lon="6.72795">
        <ele>445</ele>
        <time>2022-06-26T09:49:04Z</time>
      </trkpt>
      <trkpt lat="48.00545" lon="6.72794">
        <ele>445.2</ele>
        <time>2022-06-26T09:49:05Z</time>
      </trkpt>
      <trkpt lat="48.00546" lon="6.72793">
        <ele>445.2</ele>
        <time>2022-06-26T09:49:06Z</time>
      </trkpt>
      <trkpt lat="48.00548" lon="6.72792">
        <ele>445.4</ele>
        <time>2022-06-26T09:49:07Z</time>
      </trkpt>
      <trkpt lat="48.00549" lon="6.72791">
        <ele>445.4</ele>
        <time>2022-06-26T09:49:08Z</time>
      </trkpt>
      <trkpt lat="48.00552" lon="6.72792">
        <ele>445.4</ele>
        <time>2022-06-26T09:49:10Z</time>
      </trkpt>
      <trkpt lat="48.00556" lon="6.72793">
        <ele>445.6</ele>
        <time>2022-06-26T09:49:12Z</time>
      </trkpt>
      <trkpt lat="48.00558" lon="6.72795">
        <ele>445.6</ele>
        <time>2022-06-26T09:49:13Z</time>
      </trkpt>
      <trkpt lat="48.00561" lon="6.72795">
        <ele>445.6</ele>
        <time>2022-06-26T09:49:14Z</time>
      </trkpt>
      <trkpt lat="48.00572" lon="6.72792">
        <ele>445.6</ele>
        <time>2022-06-26T09:49:17Z</time>
      </trkpt>
      <trkpt lat="48.00575" lon="6.72792">
        <ele>445.6</ele>
        <time>2022-06-26T09:49:18Z</time>
      </trkpt>
      <trkpt lat="48.00579" lon="6.72792">
        <ele>445.4</ele>
        <time>2022-06-26T09:49:19Z</time>
      </trkpt>
      <trkpt lat="48.00589" lon="6.72787">
        <ele>445.2</ele>
        <time>2022-06-26T09:49:22Z</time>
      </trkpt>
      <trkpt lat="48.00591" lon="6.72784">
        <ele>445.2</ele>
        <time>2022-06-26T09:49:23Z</time>
      </trkpt>
      <trkpt lat="48.00593" lon="6.72782">
        <ele>445.2</ele>
        <time>2022-06-26T09:49:24Z</time>
      </trkpt>
      <trkpt lat="48.00594" lon="6.72781">
        <ele>444.8</ele>
        <time>2022-06-26T09:49:25Z</time>
      </trkpt>
      <trkpt lat="48.00596" lon="6.72779">
        <ele>444.8</ele>
        <time>2022-06-26T09:49:26Z</time>
      </trkpt>
      <trkpt lat="48.00596" lon="6.72779">
        <ele>444.8</ele>
        <time>2022-06-26T09:49:27Z</time>
      </trkpt>
      <trkpt lat="48.00596" lon="6.72778">
        <ele>445</ele>
        <time>2022-06-26T09:49:28Z</time>
      </trkpt>
      <trkpt lat="48.00601" lon="6.72773">
        <ele>445.8</ele>
        <time>2022-06-26T09:49:32Z</time>
      </trkpt>
      <trkpt lat="48.00601" lon="6.72771">
        <ele>446</ele>
        <time>2022-06-26T09:49:33Z</time>
      </trkpt>
      <trkpt lat="48.00603" lon="6.72768">
        <ele>446.4</ele>
        <time>2022-06-26T09:49:34Z</time>
      </trkpt>
      <trkpt lat="48.00604" lon="6.72764">
        <ele>447</ele>
        <time>2022-06-26T09:49:35Z</time>
      </trkpt>
      <trkpt lat="48.00605" lon="6.72761">
        <ele>447.2</ele>
        <time>2022-06-26T09:49:36Z</time>
      </trkpt>
      <trkpt lat="48.00607" lon="6.72759">
        <ele>447.4</ele>
        <time>2022-06-26T09:49:37Z</time>
      </trkpt>
      <trkpt lat="48.00609" lon="6.72757">
        <ele>447.2</ele>
        <time>2022-06-26T09:49:38Z</time>
      </trkpt>
      <trkpt lat="48.00611" lon="6.72756">
        <ele>447.6</ele>
        <time>2022-06-26T09:49:39Z</time>
      </trkpt>
      <trkpt lat="48.00614" lon="6.72754">
        <ele>447.6</ele>
        <time>2022-06-26T09:49:40Z</time>
      </trkpt>
      <trkpt lat="48.00616" lon="6.72752">
        <ele>447.8</ele>
        <time>2022-06-26T09:49:41Z</time>
      </trkpt>
      <trkpt lat="48.00621" lon="6.7275">
        <ele>447.6</ele>
        <time>2022-06-26T09:49:43Z</time>
      </trkpt>
      <trkpt lat="48.00623" lon="6.72749">
        <ele>447.6</ele>
        <time>2022-06-26T09:49:44Z</time>
      </trkpt>
      <trkpt lat="48.00626" lon="6.7275">
        <ele>448</ele>
        <time>2022-06-26T09:49:45Z</time>
      </trkpt>
      <trkpt lat="48.00628" lon="6.72751">
        <ele>448</ele>
        <time>2022-06-26T09:49:46Z</time>
      </trkpt>
      <trkpt lat="48.00631" lon="6.72751">
        <ele>448</ele>
        <time>2022-06-26T09:49:47Z</time>
      </trkpt>
      <trkpt lat="48.00633" lon="6.72752">
        <ele>448.2</ele>
        <time>2022-06-26T09:49:48Z</time>
      </trkpt>
      <trkpt lat="48.00637" lon="6.72753">
        <ele>448.4</ele>
        <time>2022-06-26T09:49:49Z</time>
      </trkpt>
      <trkpt lat="48.00641" lon="6.72753">
        <ele>448.2</ele>
        <time>2022-06-26T09:49:50Z</time>
      </trkpt>
      <trkpt lat="48.00645" lon="6.72753">
        <ele>448.4</ele>
        <time>2022-06-26T09:49:51Z</time>
      </trkpt>
      <trkpt lat="48.00649" lon="6.72754">
        <ele>448.4</ele>
        <time>2022-06-26T09:49:52Z</time>
      </trkpt>
      <trkpt lat="48.00654" lon="6.72755">
        <ele>448.4</ele>
        <time>2022-06-26T09:49:53Z</time>
      </trkpt>
      <trkpt lat="48.00658" lon="6.72758">
        <ele>448.4</ele>
        <time>2022-06-26T09:49:54Z</time>
      </trkpt>
      <trkpt lat="48.00662" lon="6.7276">
        <ele>448.4</ele>
        <time>2022-06-26T09:49:55Z</time>
      </trkpt>
      <trkpt lat="48.00666" lon="6.72762">
        <ele>448.2</ele>
        <time>2022-06-26T09:49:56Z</time>
      </trkpt>
      <trkpt lat="48.00671" lon="6.72763">
        <ele>448</ele>
        <time>2022-06-26T09:49:57Z</time>
      </trkpt>
      <trkpt lat="48.00675" lon="6.72761">
        <ele>447.8</ele>
        <time>2022-06-26T09:49:58Z</time>
      </trkpt>
      <trkpt lat="48.00678" lon="6.72759">
        <ele>447.4</ele>
        <time>2022-06-26T09:49:59Z</time>
      </trkpt>
      <trkpt lat="48.00681" lon="6.7276">
        <ele>447</ele>
        <time>2022-06-26T09:50:00Z</time>
      </trkpt>
      <trkpt lat="48.00686" lon="6.72761">
        <ele>446.6</ele>
        <time>2022-06-26T09:50:01Z</time>
      </trkpt>
      <trkpt lat="48.0069" lon="6.72765">
        <ele>446.2</ele>
        <time>2022-06-26T09:50:02Z</time>
      </trkpt>
      <trkpt lat="48.00693" lon="6.72769">
        <ele>446</ele>
        <time>2022-06-26T09:50:03Z</time>
      </trkpt>
      <trkpt lat="48.00696" lon="6.72771">
        <ele>445.6</ele>
        <time>2022-06-26T09:50:04Z</time>
      </trkpt>
      <trkpt lat="48.00699" lon="6.72775">
        <ele>445.4</ele>
        <time>2022-06-26T09:50:05Z</time>
      </trkpt>
      <trkpt lat="48.00702" lon="6.72778">
        <ele>445.4</ele>
        <time>2022-06-26T09:50:06Z</time>
      </trkpt>
      <trkpt lat="48.00704" lon="6.72781">
        <ele>445.2</ele>
        <time>2022-06-26T09:50:07Z</time>
      </trkpt>
      <trkpt lat="48.00707" lon="6.72784">
        <ele>445.2</ele>
        <time>2022-06-26T09:50:08Z</time>
      </trkpt>
      <trkpt lat="48.00722" lon="6.72792">
        <ele>445</ele>
        <time>2022-06-26T09:50:11Z</time>
      </trkpt>
      <trkpt lat="48.00728" lon="6.72795">
        <ele>444.8</ele>
        <time>2022-06-26T09:50:12Z</time>
      </trkpt>
      <trkpt lat="48.00738" lon="6.728">
        <ele>444.6</ele>
        <time>2022-06-26T09:50:14Z</time>
      </trkpt>
      <trkpt lat="48.00744" lon="6.72802">
        <ele>444.6</ele>
        <time>2022-06-26T09:50:15Z</time>
      </trkpt>
      <trkpt lat="48.00748" lon="6.72804">
        <ele>444.4</ele>
        <time>2022-06-26T09:50:16Z</time>
      </trkpt>
      <trkpt lat="48.00753" lon="6.72805">
        <ele>444</ele>
        <time>2022-06-26T09:50:17Z</time>
      </trkpt>
      <trkpt lat="48.00758" lon="6.72809">
        <ele>443.6</ele>
        <time>2022-06-26T09:50:19Z</time>
      </trkpt>
      <trkpt lat="48.00761" lon="6.72813">
        <ele>443.6</ele>
        <time>2022-06-26T09:50:20Z</time>
      </trkpt>
      <trkpt lat="48.00763" lon="6.72817">
        <ele>443.4</ele>
        <time>2022-06-26T09:50:21Z</time>
      </trkpt>
      <trkpt lat="48.00766" lon="6.72821">
        <ele>443.2</ele>
        <time>2022-06-26T09:50:22Z</time>
      </trkpt>
      <trkpt lat="48.00767" lon="6.72825">
        <ele>443.2</ele>
        <time>2022-06-26T09:50:23Z</time>
      </trkpt>
      <trkpt lat="48.00768" lon="6.72828">
        <ele>443.2</ele>
        <time>2022-06-26T09:50:24Z</time>
      </trkpt>
      <trkpt lat="48.0077" lon="6.72833">
        <ele>443.2</ele>
        <time>2022-06-26T09:50:25Z</time>
      </trkpt>
      <trkpt lat="48.00775" lon="6.7284">
        <ele>443.2</ele>
        <time>2022-06-26T09:50:28Z</time>
      </trkpt>
      <trkpt lat="48.00777" lon="6.72842">
        <ele>443.4</ele>
        <time>2022-06-26T09:50:29Z</time>
      </trkpt>
      <trkpt lat="48.0078" lon="6.72845">
        <ele>443.6</ele>
        <time>2022-06-26T09:50:30Z</time>
      </trkpt>
      <trkpt lat="48.00782" lon="6.72848">
        <ele>443.6</ele>
        <time>2022-06-26T09:50:31Z</time>
      </trkpt>
      <trkpt lat="48.00786" lon="6.7285">
        <ele>443.6</ele>
        <time>2022-06-26T09:50:32Z</time>
      </trkpt>
      <trkpt lat="48.00789" lon="6.7285">
        <ele>443.8</ele>
        <time>2022-06-26T09:50:33Z</time>
      </trkpt>
      <trkpt lat="48.00793" lon="6.72849">
        <ele>443.8</ele>
        <time>2022-06-26T09:50:34Z</time>
      </trkpt>
      <trkpt lat="48.00798" lon="6.72849">
        <ele>443.8</ele>
        <time>2022-06-26T09:50:35Z</time>
      </trkpt>
      <trkpt lat="48.00803" lon="6.7285">
        <ele>443.8</ele>
        <time>2022-06-26T09:50:36Z</time>
      </trkpt>
      <trkpt lat="48.00808" lon="6.72852">
        <ele>443.8</ele>
        <time>2022-06-26T09:50:37Z</time>
      </trkpt>
      <trkpt lat="48.00816" lon="6.72857">
        <ele>443.8</ele>
        <time>2022-06-26T09:50:39Z</time>
      </trkpt>
      <trkpt lat="48.0082" lon="6.7286">
        <ele>443.6</ele>
        <time>2022-06-26T09:50:40Z</time>
      </trkpt>
      <trkpt lat="48.00823" lon="6.72864">
        <ele>443.4</ele>
        <time>2022-06-26T09:50:41Z</time>
      </trkpt>
      <trkpt lat="48.00825" lon="6.72867">
        <ele>443.2</ele>
        <time>2022-06-26T09:50:42Z</time>
      </trkpt>
      <trkpt lat="48.00829" lon="6.72872">
        <ele>442.6</ele>
        <time>2022-06-26T09:50:44Z</time>
      </trkpt>
      <trkpt lat="48.0083" lon="6.72872">
        <ele>442.6</ele>
        <time>2022-06-26T09:50:45Z</time>
      </trkpt>
      <trkpt lat="48.00831" lon="6.7287">
        <ele>442.6</ele>
        <time>2022-06-26T09:50:46Z</time>
      </trkpt>
      <trkpt lat="48.00832" lon="6.72867">
        <ele>442.6</ele>
        <time>2022-06-26T09:50:47Z</time>
      </trkpt>
      <trkpt lat="48.00832" lon="6.72865">
        <ele>442.6</ele>
        <time>2022-06-26T09:50:48Z</time>
      </trkpt>
      <trkpt lat="48.00834" lon="6.72859">
        <ele>442.6</ele>
        <time>2022-06-26T09:50:50Z</time>
      </trkpt>
      <trkpt lat="48.00835" lon="6.72857">
        <ele>442.6</ele>
        <time>2022-06-26T09:50:51Z</time>
      </trkpt>
      <trkpt lat="48.00837" lon="6.72855">
        <ele>442.6</ele>
        <time>2022-06-26T09:50:52Z</time>
      </trkpt>
      <trkpt lat="48.00838" lon="6.72852">
        <ele>442.6</ele>
        <time>2022-06-26T09:50:53Z</time>
      </trkpt>
      <trkpt lat="48.0084" lon="6.72849">
        <ele>442.6</ele>
        <time>2022-06-26T09:50:54Z</time>
      </trkpt>
      <trkpt lat="48.00844" lon="6.72845">
        <ele>442.6</ele>
        <time>2022-06-26T09:50:56Z</time>
      </trkpt>
      <trkpt lat="48.00845" lon="6.72842">
        <ele>442.4</ele>
        <time>2022-06-26T09:50:57Z</time>
      </trkpt>
      <trkpt lat="48.00847" lon="6.72839">
        <ele>442</ele>
        <time>2022-06-26T09:50:58Z</time>
      </trkpt>
      <trkpt lat="48.0085" lon="6.72829">
        <ele>441.2</ele>
        <time>2022-06-26T09:51:00Z</time>
      </trkpt>
      <trkpt lat="48.00851" lon="6.72824">
        <ele>440.8</ele>
        <time>2022-06-26T09:51:01Z</time>
      </trkpt>
      <trkpt lat="48.00851" lon="6.72817">
        <ele>440</ele>
        <time>2022-06-26T09:51:02Z</time>
      </trkpt>
      <trkpt lat="48.00851" lon="6.72813">
        <ele>439.6</ele>
        <time>2022-06-26T09:51:03Z</time>
      </trkpt>
      <trkpt lat="48.00851" lon="6.72809">
        <ele>439.2</ele>
        <time>2022-06-26T09:51:04Z</time>
      </trkpt>
      <trkpt lat="48.00851" lon="6.72804">
        <ele>438.8</ele>
        <time>2022-06-26T09:51:05Z</time>
      </trkpt>
      <trkpt lat="48.0085" lon="6.728">
        <ele>438.6</ele>
        <time>2022-06-26T09:51:06Z</time>
      </trkpt>
      <trkpt lat="48.00848" lon="6.72794">
        <ele>438.2</ele>
        <time>2022-06-26T09:51:07Z</time>
      </trkpt>
      <trkpt lat="48.00844" lon="6.72784">
        <ele>437.8</ele>
        <time>2022-06-26T09:51:09Z</time>
      </trkpt>
      <trkpt lat="48.00843" lon="6.7278">
        <ele>437.4</ele>
        <time>2022-06-26T09:51:10Z</time>
      </trkpt>
      <trkpt lat="48.00841" lon="6.72777">
        <ele>437</ele>
        <time>2022-06-26T09:51:11Z</time>
      </trkpt>
      <trkpt lat="48.0084" lon="6.72773">
        <ele>435.8</ele>
        <time>2022-06-26T09:51:12Z</time>
      </trkpt>
      <trkpt lat="48.00838" lon="6.72768">
        <ele>435.4</ele>
        <time>2022-06-26T09:51:13Z</time>
      </trkpt>
      <trkpt lat="48.00837" lon="6.72763">
        <ele>434.6</ele>
        <time>2022-06-26T09:51:14Z</time>
      </trkpt>
      <trkpt lat="48.00837" lon="6.72756">
        <ele>434</ele>
        <time>2022-06-26T09:51:15Z</time>
      </trkpt>
      <trkpt lat="48.00839" lon="6.72748">
        <ele>433.2</ele>
        <time>2022-06-26T09:51:16Z</time>
      </trkpt>
      <trkpt lat="48.0084" lon="6.72742">
        <ele>433</ele>
        <time>2022-06-26T09:51:17Z</time>
      </trkpt>
      <trkpt lat="48.00843" lon="6.72737">
        <ele>432.4</ele>
        <time>2022-06-26T09:51:18Z</time>
      </trkpt>
      <trkpt lat="48.00844" lon="6.72733">
        <ele>432.2</ele>
        <time>2022-06-26T09:51:19Z</time>
      </trkpt>
      <trkpt lat="48.00844" lon="6.72729">
        <ele>431.8</ele>
        <time>2022-06-26T09:51:20Z</time>
      </trkpt>
      <trkpt lat="48.00844" lon="6.72725">
        <ele>431.6</ele>
        <time>2022-06-26T09:51:21Z</time>
      </trkpt>
      <trkpt lat="48.00844" lon="6.72719">
        <ele>431.4</ele>
        <time>2022-06-26T09:51:22Z</time>
      </trkpt>
      <trkpt lat="48.00844" lon="6.72713">
        <ele>430.8</ele>
        <time>2022-06-26T09:51:23Z</time>
      </trkpt>
      <trkpt lat="48.00843" lon="6.72706">
        <ele>430.6</ele>
        <time>2022-06-26T09:51:24Z</time>
      </trkpt>
      <trkpt lat="48.00842" lon="6.72702">
        <ele>430.2</ele>
        <time>2022-06-26T09:51:25Z</time>
      </trkpt>
      <trkpt lat="48.00839" lon="6.72696">
        <ele>429.4</ele>
        <time>2022-06-26T09:51:27Z</time>
      </trkpt>
      <trkpt lat="48.00837" lon="6.72691">
        <ele>429</ele>
        <time>2022-06-26T09:51:28Z</time>
      </trkpt>
      <trkpt lat="48.00836" lon="6.72685">
        <ele>428.4</ele>
        <time>2022-06-26T09:51:29Z</time>
      </trkpt>
      <trkpt lat="48.00836" lon="6.72678">
        <ele>428</ele>
        <time>2022-06-26T09:51:30Z</time>
      </trkpt>
      <trkpt lat="48.00839" lon="6.7267">
        <ele>428</ele>
        <time>2022-06-26T09:51:31Z</time>
      </trkpt>
      <trkpt lat="48.00841" lon="6.72662">
        <ele>427.8</ele>
        <time>2022-06-26T09:51:32Z</time>
      </trkpt>
      <trkpt lat="48.00845" lon="6.72653">
        <ele>427.6</ele>
        <time>2022-06-26T09:51:33Z</time>
      </trkpt>
      <trkpt lat="48.00847" lon="6.72645">
        <ele>426.8</ele>
        <time>2022-06-26T09:51:34Z</time>
      </trkpt>
      <trkpt lat="48.00847" lon="6.72638">
        <ele>426.2</ele>
        <time>2022-06-26T09:51:35Z</time>
      </trkpt>
      <trkpt lat="48.00845" lon="6.72634">
        <ele>425.6</ele>
        <time>2022-06-26T09:51:36Z</time>
      </trkpt>
      <trkpt lat="48.00843" lon="6.72633">
        <ele>425.2</ele>
        <time>2022-06-26T09:51:37Z</time>
      </trkpt>
      <trkpt lat="48.0084" lon="6.72632">
        <ele>424.4</ele>
        <time>2022-06-26T09:51:38Z</time>
      </trkpt>
      <trkpt lat="48.00836" lon="6.72633">
        <ele>423.6</ele>
        <time>2022-06-26T09:51:39Z</time>
      </trkpt>
      <trkpt lat="48.00824" lon="6.72635">
        <ele>423</ele>
        <time>2022-06-26T09:51:41Z</time>
      </trkpt>
      <trkpt lat="48.0082" lon="6.72633">
        <ele>422.6</ele>
        <time>2022-06-26T09:51:42Z</time>
      </trkpt>
      <trkpt lat="48.00813" lon="6.72622">
        <ele>421.8</ele>
        <time>2022-06-26T09:51:44Z</time>
      </trkpt>
      <trkpt lat="48.00812" lon="6.72617">
        <ele>420.8</ele>
        <time>2022-06-26T09:51:45Z</time>
      </trkpt>
      <trkpt lat="48.00808" lon="6.72608">
        <ele>420.4</ele>
        <time>2022-06-26T09:51:46Z</time>
      </trkpt>
      <trkpt lat="48.00803" lon="6.72599">
        <ele>419.4</ele>
        <time>2022-06-26T09:51:47Z</time>
      </trkpt>
      <trkpt lat="48.00796" lon="6.72593">
        <ele>418</ele>
        <time>2022-06-26T09:51:48Z</time>
      </trkpt>
      <trkpt lat="48.0079" lon="6.72586">
        <ele>417.6</ele>
        <time>2022-06-26T09:51:49Z</time>
      </trkpt>
      <trkpt lat="48.00785" lon="6.72579">
        <ele>416.6</ele>
        <time>2022-06-26T09:51:50Z</time>
      </trkpt>
      <trkpt lat="48.00778" lon="6.7257">
        <ele>416.2</ele>
        <time>2022-06-26T09:51:51Z</time>
      </trkpt>
      <trkpt lat="48.00774" lon="6.72564">
        <ele>415.6</ele>
        <time>2022-06-26T09:51:52Z</time>
      </trkpt>
      <trkpt lat="48.00771" lon="6.72558">
        <ele>415.2</ele>
        <time>2022-06-26T09:51:53Z</time>
      </trkpt>
      <trkpt lat="48.0077" lon="6.7255">
        <ele>414.8</ele>
        <time>2022-06-26T09:51:54Z</time>
      </trkpt>
      <trkpt lat="48.0077" lon="6.72544">
        <ele>414.6</ele>
        <time>2022-06-26T09:51:55Z</time>
      </trkpt>
      <trkpt lat="48.00772" lon="6.72533">
        <ele>414.2</ele>
        <time>2022-06-26T09:51:56Z</time>
      </trkpt>
      <trkpt lat="48.00776" lon="6.7252">
        <ele>413.6</ele>
        <time>2022-06-26T09:51:58Z</time>
      </trkpt>
      <trkpt lat="48.00778" lon="6.72514">
        <ele>413.2</ele>
        <time>2022-06-26T09:51:59Z</time>
      </trkpt>
      <trkpt lat="48.0078" lon="6.72508">
        <ele>413</ele>
        <time>2022-06-26T09:52:00Z</time>
      </trkpt>
      <trkpt lat="48.00791" lon="6.72483">
        <ele>412.4</ele>
        <time>2022-06-26T09:52:04Z</time>
      </trkpt>
      <trkpt lat="48.00793" lon="6.72476">
        <ele>412.4</ele>
        <time>2022-06-26T09:52:05Z</time>
      </trkpt>
      <trkpt lat="48.00794" lon="6.7247">
        <ele>412.2</ele>
        <time>2022-06-26T09:52:06Z</time>
      </trkpt>
      <trkpt lat="48.00793" lon="6.72463">
        <ele>412.2</ele>
        <time>2022-06-26T09:52:07Z</time>
      </trkpt>
      <trkpt lat="48.00792" lon="6.72457">
        <ele>412.2</ele>
        <time>2022-06-26T09:52:08Z</time>
      </trkpt>
      <trkpt lat="48.0079" lon="6.72452">
        <ele>412.2</ele>
        <time>2022-06-26T09:52:09Z</time>
      </trkpt>
      <trkpt lat="48.00788" lon="6.72447">
        <ele>412.2</ele>
        <time>2022-06-26T09:52:10Z</time>
      </trkpt>
      <trkpt lat="48.00784" lon="6.72441">
        <ele>412.4</ele>
        <time>2022-06-26T09:52:11Z</time>
      </trkpt>
      <trkpt lat="48.00782" lon="6.72437">
        <ele>412.4</ele>
        <time>2022-06-26T09:52:12Z</time>
      </trkpt>
      <trkpt lat="48.00773" lon="6.72421">
        <ele>412.4</ele>
        <time>2022-06-26T09:52:15Z</time>
      </trkpt>
      <trkpt lat="48.00771" lon="6.72413">
        <ele>412.4</ele>
        <time>2022-06-26T09:52:16Z</time>
      </trkpt>
      <trkpt lat="48.0077" lon="6.72401">
        <ele>412.4</ele>
        <time>2022-06-26T09:52:18Z</time>
      </trkpt>
      <trkpt lat="48.00772" lon="6.72395">
        <ele>412.4</ele>
        <time>2022-06-26T09:52:19Z</time>
      </trkpt>
      <trkpt lat="48.00779" lon="6.72374">
        <ele>412.4</ele>
        <time>2022-06-26T09:52:22Z</time>
      </trkpt>
      <trkpt lat="48.00781" lon="6.72367">
        <ele>412.4</ele>
        <time>2022-06-26T09:52:23Z</time>
      </trkpt>
      <trkpt lat="48.00783" lon="6.7236">
        <ele>412.2</ele>
        <time>2022-06-26T09:52:24Z</time>
      </trkpt>
      <trkpt lat="48.00783" lon="6.72353">
        <ele>412.2</ele>
        <time>2022-06-26T09:52:25Z</time>
      </trkpt>
      <trkpt lat="48.00784" lon="6.72346">
        <ele>412.2</ele>
        <time>2022-06-26T09:52:26Z</time>
      </trkpt>
      <trkpt lat="48.00783" lon="6.72313">
        <ele>412.2</ele>
        <time>2022-06-26T09:52:30Z</time>
      </trkpt>
      <trkpt lat="48.00782" lon="6.72289">
        <ele>412</ele>
        <time>2022-06-26T09:52:33Z</time>
      </trkpt>
      <trkpt lat="48.00785" lon="6.72277">
        <ele>412</ele>
        <time>2022-06-26T09:52:35Z</time>
      </trkpt>
      <trkpt lat="48.00789" lon="6.72269">
        <ele>412</ele>
        <time>2022-06-26T09:52:36Z</time>
      </trkpt>
      <trkpt lat="48.00791" lon="6.72264">
        <ele>411.8</ele>
        <time>2022-06-26T09:52:37Z</time>
      </trkpt>
      <trkpt lat="48.00796" lon="6.72258">
        <ele>412</ele>
        <time>2022-06-26T09:52:38Z</time>
      </trkpt>
      <trkpt lat="48.008" lon="6.72253">
        <ele>412</ele>
        <time>2022-06-26T09:52:39Z</time>
      </trkpt>
      <trkpt lat="48.00826" lon="6.72233">
        <ele>412</ele>
        <time>2022-06-26T09:52:45Z</time>
      </trkpt>
      <trkpt lat="48.00835" lon="6.72227">
        <ele>412</ele>
        <time>2022-06-26T09:52:47Z</time>
      </trkpt>
      <trkpt lat="48.0084" lon="6.72223">
        <ele>412</ele>
        <time>2022-06-26T09:52:48Z</time>
      </trkpt>
      <trkpt lat="48.00844" lon="6.7222">
        <ele>412</ele>
        <time>2022-06-26T09:52:49Z</time>
      </trkpt>
      <trkpt lat="48.00849" lon="6.72216">
        <ele>412</ele>
        <time>2022-06-26T09:52:50Z</time>
      </trkpt>
      <trkpt lat="48.00854" lon="6.72213">
        <ele>412</ele>
        <time>2022-06-26T09:52:51Z</time>
      </trkpt>
      <trkpt lat="48.00859" lon="6.72209">
        <ele>412</ele>
        <time>2022-06-26T09:52:52Z</time>
      </trkpt>
      <trkpt lat="48.00881" lon="6.72188">
        <ele>412</ele>
        <time>2022-06-26T09:52:57Z</time>
      </trkpt>
      <trkpt lat="48.00884" lon="6.72182">
        <ele>412</ele>
        <time>2022-06-26T09:52:58Z</time>
      </trkpt>
      <trkpt lat="48.00887" lon="6.72176">
        <ele>411.8</ele>
        <time>2022-06-26T09:52:59Z</time>
      </trkpt>
      <trkpt lat="48.0089" lon="6.72164">
        <ele>411.8</ele>
        <time>2022-06-26T09:53:01Z</time>
      </trkpt>
      <trkpt lat="48.0089" lon="6.72157">
        <ele>411.8</ele>
        <time>2022-06-26T09:53:02Z</time>
      </trkpt>
      <trkpt lat="48.00889" lon="6.7215">
        <ele>411.8</ele>
        <time>2022-06-26T09:53:03Z</time>
      </trkpt>
      <trkpt lat="48.00888" lon="6.72143">
        <ele>411.8</ele>
        <time>2022-06-26T09:53:04Z</time>
      </trkpt>
      <trkpt lat="48.00888" lon="6.72136">
        <ele>411.8</ele>
        <time>2022-06-26T09:53:05Z</time>
      </trkpt>
      <trkpt lat="48.00887" lon="6.72128">
        <ele>411.8</ele>
        <time>2022-06-26T09:53:06Z</time>
      </trkpt>
      <trkpt lat="48.00877" lon="6.72079">
        <ele>411.8</ele>
        <time>2022-06-26T09:53:12Z</time>
      </trkpt>
      <trkpt lat="48.00873" lon="6.7206">
        <ele>411.6</ele>
        <time>2022-06-26T09:53:14Z</time>
      </trkpt>
      <trkpt lat="48.00866" lon="6.72027">
        <ele>411.2</ele>
        <time>2022-06-26T09:53:18Z</time>
      </trkpt>
      <trkpt lat="48.0086" lon="6.71998">
        <ele>411</ele>
        <time>2022-06-26T09:53:21Z</time>
      </trkpt>
      <trkpt lat="48.00859" lon="6.71981">
        <ele>410.8</ele>
        <time>2022-06-26T09:53:23Z</time>
      </trkpt>
      <trkpt lat="48.00859" lon="6.71952">
        <ele>410.6</ele>
        <time>2022-06-26T09:53:26Z</time>
      </trkpt>
      <trkpt lat="48.00859" lon="6.71933">
        <ele>410.4</ele>
        <time>2022-06-26T09:53:28Z</time>
      </trkpt>
      <trkpt lat="48.00859" lon="6.71876">
        <ele>410</ele>
        <time>2022-06-26T09:53:34Z</time>
      </trkpt>
      <trkpt lat="48.00856" lon="6.71829">
        <ele>409.8</ele>
        <time>2022-06-26T09:53:39Z</time>
      </trkpt>
      <trkpt lat="48.00852" lon="6.71794">
        <ele>410</ele>
        <time>2022-06-26T09:53:43Z</time>
      </trkpt>
      <trkpt lat="48.00851" lon="6.71787">
        <ele>410</ele>
        <time>2022-06-26T09:53:44Z</time>
      </trkpt>
      <trkpt lat="48.0085" lon="6.71778">
        <ele>410</ele>
        <time>2022-06-26T09:53:45Z</time>
      </trkpt>
      <trkpt lat="48.00849" lon="6.7177">
        <ele>410</ele>
        <time>2022-06-26T09:53:46Z</time>
      </trkpt>
      <trkpt lat="48.00848" lon="6.71761">
        <ele>410</ele>
        <time>2022-06-26T09:53:47Z</time>
      </trkpt>
      <trkpt lat="48.00848" lon="6.71753">
        <ele>410</ele>
        <time>2022-06-26T09:53:48Z</time>
      </trkpt>
      <trkpt lat="48.00847" lon="6.71744">
        <ele>410</ele>
        <time>2022-06-26T09:53:49Z</time>
      </trkpt>
      <trkpt lat="48.00846" lon="6.71736">
        <ele>410</ele>
        <time>2022-06-26T09:53:50Z</time>
      </trkpt>
      <trkpt lat="48.00845" lon="6.71717">
        <ele>410</ele>
        <time>2022-06-26T09:53:52Z</time>
      </trkpt>
      <trkpt lat="48.00845" lon="6.7171">
        <ele>410</ele>
        <time>2022-06-26T09:53:53Z</time>
      </trkpt>
      <trkpt lat="48.00847" lon="6.71703">
        <ele>410</ele>
        <time>2022-06-26T09:53:54Z</time>
      </trkpt>
      <trkpt lat="48.0085" lon="6.71697">
        <ele>410</ele>
        <time>2022-06-26T09:53:55Z</time>
      </trkpt>
      <trkpt lat="48.00855" lon="6.71693">
        <ele>410</ele>
        <time>2022-06-26T09:53:56Z</time>
      </trkpt>
      <trkpt lat="48.0086" lon="6.7169">
        <ele>410</ele>
        <time>2022-06-26T09:53:57Z</time>
      </trkpt>
      <trkpt lat="48.00864" lon="6.71686">
        <ele>410</ele>
        <time>2022-06-26T09:53:58Z</time>
      </trkpt>
      <trkpt lat="48.00869" lon="6.71681">
        <ele>410</ele>
        <time>2022-06-26T09:53:59Z</time>
      </trkpt>
      <trkpt lat="48.00881" lon="6.71674">
        <ele>410</ele>
        <time>2022-06-26T09:54:01Z</time>
      </trkpt>
      <trkpt lat="48.00891" lon="6.71667">
        <ele>410</ele>
        <time>2022-06-26T09:54:03Z</time>
      </trkpt>
      <trkpt lat="48.00912" lon="6.71651">
        <ele>409.8</ele>
        <time>2022-06-26T09:54:07Z</time>
      </trkpt>
      <trkpt lat="48.00937" lon="6.71635">
        <ele>410</ele>
        <time>2022-06-26T09:54:12Z</time>
      </trkpt>
      <trkpt lat="48.00942" lon="6.71632">
        <ele>410</ele>
        <time>2022-06-26T09:54:13Z</time>
      </trkpt>
      <trkpt lat="48.00947" lon="6.71628">
        <ele>410</ele>
        <time>2022-06-26T09:54:14Z</time>
      </trkpt>
      <trkpt lat="48.00952" lon="6.71625">
        <ele>410</ele>
        <time>2022-06-26T09:54:15Z</time>
      </trkpt>
      <trkpt lat="48.00972" lon="6.71609">
        <ele>410.2</ele>
        <time>2022-06-26T09:54:19Z</time>
      </trkpt>
      <trkpt lat="48.00982" lon="6.71605">
        <ele>410.2</ele>
        <time>2022-06-26T09:54:21Z</time>
      </trkpt>
      <trkpt lat="48.01021" lon="6.71605">
        <ele>410.4</ele>
        <time>2022-06-26T09:54:28Z</time>
      </trkpt>
      <trkpt lat="48.01056" lon="6.71611">
        <ele>410</ele>
        <time>2022-06-26T09:54:34Z</time>
      </trkpt>
      <trkpt lat="48.01079" lon="6.71614">
        <ele>409.6</ele>
        <time>2022-06-26T09:54:38Z</time>
      </trkpt>
      <trkpt lat="48.01132" lon="6.71614">
        <ele>409.6</ele>
        <time>2022-06-26T09:54:47Z</time>
      </trkpt>
      <trkpt lat="48.01176" lon="6.71596">
        <ele>409.6</ele>
        <time>2022-06-26T09:54:55Z</time>
      </trkpt>
      <trkpt lat="48.01188" lon="6.71589">
        <ele>409.6</ele>
        <time>2022-06-26T09:54:57Z</time>
      </trkpt>
      <trkpt lat="48.01191" lon="6.71586">
        <ele>409.6</ele>
        <time>2022-06-26T09:54:58Z</time>
      </trkpt>
      <trkpt lat="48.01196" lon="6.71582">
        <ele>409.6</ele>
        <time>2022-06-26T09:54:59Z</time>
      </trkpt>
      <trkpt lat="48.012" lon="6.71578">
        <ele>409.6</ele>
        <time>2022-06-26T09:55:00Z</time>
      </trkpt>
      <trkpt lat="48.01205" lon="6.71574">
        <ele>409.6</ele>
        <time>2022-06-26T09:55:01Z</time>
      </trkpt>
      <trkpt lat="48.01209" lon="6.7157">
        <ele>409.4</ele>
        <time>2022-06-26T09:55:02Z</time>
      </trkpt>
      <trkpt lat="48.01214" lon="6.71566">
        <ele>409.4</ele>
        <time>2022-06-26T09:55:03Z</time>
      </trkpt>
      <trkpt lat="48.01218" lon="6.71563">
        <ele>409.4</ele>
        <time>2022-06-26T09:55:04Z</time>
      </trkpt>
      <trkpt lat="48.01223" lon="6.71559">
        <ele>409.4</ele>
        <time>2022-06-26T09:55:05Z</time>
      </trkpt>
      <trkpt lat="48.01228" lon="6.71556">
        <ele>409.4</ele>
        <time>2022-06-26T09:55:06Z</time>
      </trkpt>
      <trkpt lat="48.01233" lon="6.71551">
        <ele>409.4</ele>
        <time>2022-06-26T09:55:07Z</time>
      </trkpt>
      <trkpt lat="48.01238" lon="6.71547">
        <ele>409.4</ele>
        <time>2022-06-26T09:55:08Z</time>
      </trkpt>
      <trkpt lat="48.01242" lon="6.71541">
        <ele>409.4</ele>
        <time>2022-06-26T09:55:09Z</time>
      </trkpt>
      <trkpt lat="48.01246" lon="6.71526">
        <ele>409.6</ele>
        <time>2022-06-26T09:55:11Z</time>
      </trkpt>
      <trkpt lat="48.01245" lon="6.71519">
        <ele>409.4</ele>
        <time>2022-06-26T09:55:12Z</time>
      </trkpt>
      <trkpt lat="48.01238" lon="6.71505">
        <ele>409.4</ele>
        <time>2022-06-26T09:55:14Z</time>
      </trkpt>
      <trkpt lat="48.0122" lon="6.71472">
        <ele>409.4</ele>
        <time>2022-06-26T09:55:19Z</time>
      </trkpt>
      <trkpt lat="48.01216" lon="6.71465">
        <ele>409.4</ele>
        <time>2022-06-26T09:55:20Z</time>
      </trkpt>
      <trkpt lat="48.01215" lon="6.71457">
        <ele>409.4</ele>
        <time>2022-06-26T09:55:21Z</time>
      </trkpt>
      <trkpt lat="48.01214" lon="6.71449">
        <ele>409.2</ele>
        <time>2022-06-26T09:55:22Z</time>
      </trkpt>
      <trkpt lat="48.01216" lon="6.71441">
        <ele>409.2</ele>
        <time>2022-06-26T09:55:23Z</time>
      </trkpt>
      <trkpt lat="48.01224" lon="6.7143">
        <ele>409.2</ele>
        <time>2022-06-26T09:55:25Z</time>
      </trkpt>
      <trkpt lat="48.01229" lon="6.71425">
        <ele>409</ele>
        <time>2022-06-26T09:55:26Z</time>
      </trkpt>
      <trkpt lat="48.01233" lon="6.71419">
        <ele>409</ele>
        <time>2022-06-26T09:55:27Z</time>
      </trkpt>
      <trkpt lat="48.01235" lon="6.71412">
        <ele>409</ele>
        <time>2022-06-26T09:55:28Z</time>
      </trkpt>
      <trkpt lat="48.01235" lon="6.71404">
        <ele>408.8</ele>
        <time>2022-06-26T09:55:29Z</time>
      </trkpt>
      <trkpt lat="48.01232" lon="6.71397">
        <ele>408.8</ele>
        <time>2022-06-26T09:55:30Z</time>
      </trkpt>
      <trkpt lat="48.0123" lon="6.71391">
        <ele>408.8</ele>
        <time>2022-06-26T09:55:31Z</time>
      </trkpt>
      <trkpt lat="48.01226" lon="6.71386">
        <ele>408.6</ele>
        <time>2022-06-26T09:55:32Z</time>
      </trkpt>
      <trkpt lat="48.01222" lon="6.71383">
        <ele>408.6</ele>
        <time>2022-06-26T09:55:33Z</time>
      </trkpt>
      <trkpt lat="48.01218" lon="6.71382">
        <ele>408.6</ele>
        <time>2022-06-26T09:55:34Z</time>
      </trkpt>
      <trkpt lat="48.01216" lon="6.71382">
        <ele>408.6</ele>
        <time>2022-06-26T09:55:35Z</time>
      </trkpt>
      <trkpt lat="48.01215" lon="6.71382">
        <ele>408.6</ele>
        <time>2022-06-26T09:55:36Z</time>
      </trkpt>
      <trkpt lat="48.01214" lon="6.71381">
        <ele>408.6</ele>
        <time>2022-06-26T09:55:37Z</time>
      </trkpt>
      <trkpt lat="48.01214" lon="6.71381">
        <ele>408.6</ele>
        <time>2022-06-26T09:55:38Z</time>
      </trkpt>
      <trkpt lat="48.01214" lon="6.71381">
        <ele>409</ele>
        <time>2022-06-26T09:55:39Z</time>
      </trkpt>
      <trkpt lat="48.01214" lon="6.71381">
        <ele>409.4</ele>
        <time>2022-06-26T09:55:47Z</time>
      </trkpt>
      <trkpt lat="48.01214" lon="6.71381">
        <ele>409.4</ele>
        <time>2022-06-26T09:55:58Z</time>
      </trkpt>
      <trkpt lat="48.01214" lon="6.71381">
        <ele>409.6</ele>
        <time>2022-06-26T09:56:05Z</time>
      </trkpt>
    </trkseg>
  </trk>
</gpx>